<?xml version="1.0" encoding="UTF-8" standalone="no" ?>
<gpx xmlns="http://www.topografix.com/GPX/1/1" xmlns:xsi="http://www.w3.org/2001/XMLSchema-instance" xsi:schemaLocation="http://www.topografix.com/GPX/1/1 http://www.topografix.com/GPX/1/1/gpx.xsd" version="1.1" creator="VisuGPX - https://www.visugpx.com">
  <metadata>
    <name>53 Genève_St-Raphaël 2019</name>
  </metadata>
  <trk>
    <name><![CDATA[53 Genève-St-Raphaël 2019-Original]]></name>
    <trkseg>
      <trkpt lat="46.21001" lon="6.14349">
        <ele>384</ele>
        <time>2019-10-07T05:55:27Z</time>
      </trkpt>
      <trkpt lat="46.20999" lon="6.14346">
        <ele>384</ele>
        <time>2019-10-07T05:55:29Z</time>
      </trkpt>
      <trkpt lat="46.20967" lon="6.14311">
        <ele>384</ele>
        <time>2019-10-07T05:55:41Z</time>
      </trkpt>
      <trkpt lat="46.20932" lon="6.14202">
        <ele>384.39999389648</ele>
        <time>2019-10-07T05:56:03Z</time>
      </trkpt>
      <trkpt lat="46.20891" lon="6.14166">
        <ele>384.20001220703</ele>
        <time>2019-10-07T05:56:16Z</time>
      </trkpt>
      <trkpt lat="46.20867" lon="6.14127">
        <ele>384</ele>
        <time>2019-10-07T05:56:30Z</time>
      </trkpt>
      <trkpt lat="46.20862" lon="6.14115">
        <ele>383.79998779297</ele>
        <time>2019-10-07T05:56:39Z</time>
      </trkpt>
      <trkpt lat="46.20863" lon="6.14109">
        <ele>383.39999389648</ele>
        <time>2019-10-07T05:57:21Z</time>
      </trkpt>
      <trkpt lat="46.20848" lon="6.14133">
        <ele>383.39999389648</ele>
        <time>2019-10-07T05:57:25Z</time>
      </trkpt>
      <trkpt lat="46.20845" lon="6.14159">
        <ele>383.20001220703</ele>
        <time>2019-10-07T05:57:29Z</time>
      </trkpt>
      <trkpt lat="46.2084" lon="6.14206">
        <ele>382.60000610352</ele>
        <time>2019-10-07T05:57:37Z</time>
      </trkpt>
      <trkpt lat="46.20837" lon="6.14234">
        <ele>382.20001220703</ele>
        <time>2019-10-07T05:57:42Z</time>
      </trkpt>
      <trkpt lat="46.20814" lon="6.14243">
        <ele>381.39999389648</ele>
        <time>2019-10-07T05:57:51Z</time>
      </trkpt>
      <trkpt lat="46.20808" lon="6.1426">
        <ele>381.39999389648</ele>
        <time>2019-10-07T05:57:59Z</time>
      </trkpt>
      <trkpt lat="46.20788" lon="6.14284">
        <ele>381.20001220703</ele>
        <time>2019-10-07T05:58:05Z</time>
      </trkpt>
      <trkpt lat="46.20761" lon="6.14301">
        <ele>380</ele>
        <time>2019-10-07T05:58:10Z</time>
      </trkpt>
      <trkpt lat="46.20742" lon="6.14335">
        <ele>376</ele>
        <time>2019-10-07T05:58:19Z</time>
      </trkpt>
      <trkpt lat="46.20727" lon="6.14345">
        <ele>375.20001220703</ele>
        <time>2019-10-07T05:58:24Z</time>
      </trkpt>
      <trkpt lat="46.20677" lon="6.14406">
        <ele>373.20001220703</ele>
        <time>2019-10-07T05:58:38Z</time>
      </trkpt>
      <trkpt lat="46.20668" lon="6.14417">
        <ele>372.79998779297</ele>
        <time>2019-10-07T05:58:44Z</time>
      </trkpt>
      <trkpt lat="46.2064" lon="6.14461">
        <ele>372.60000610352</ele>
        <time>2019-10-07T05:58:54Z</time>
      </trkpt>
      <trkpt lat="46.20635" lon="6.14518">
        <ele>372.79998779297</ele>
        <time>2019-10-07T05:59:05Z</time>
      </trkpt>
      <trkpt lat="46.2064" lon="6.14535">
        <ele>372.79998779297</ele>
        <time>2019-10-07T05:59:08Z</time>
      </trkpt>
      <trkpt lat="46.20671" lon="6.14643">
        <ele>373.20001220703</ele>
        <time>2019-10-07T05:59:27Z</time>
      </trkpt>
      <trkpt lat="46.20675" lon="6.14655">
        <ele>373.20001220703</ele>
        <time>2019-10-07T05:59:30Z</time>
      </trkpt>
      <trkpt lat="46.20611" lon="6.14688">
        <ele>373.79998779297</ele>
        <time>2019-10-07T05:59:47Z</time>
      </trkpt>
      <trkpt lat="46.20592" lon="6.14698">
        <ele>373.60000610352</ele>
        <time>2019-10-07T05:59:57Z</time>
      </trkpt>
      <trkpt lat="46.20585" lon="6.14701">
        <ele>373.39999389648</ele>
        <time>2019-10-07T06:00:48Z</time>
      </trkpt>
      <trkpt lat="46.20583" lon="6.147">
        <ele>373.39999389648</ele>
        <time>2019-10-07T06:00:54Z</time>
      </trkpt>
      <trkpt lat="46.2053" lon="6.14677">
        <ele>373</ele>
        <time>2019-10-07T06:01:07Z</time>
      </trkpt>
      <trkpt lat="46.20486" lon="6.14659">
        <ele>373</ele>
        <time>2019-10-07T06:01:17Z</time>
      </trkpt>
      <trkpt lat="46.20469" lon="6.14673">
        <ele>372.79998779297</ele>
        <time>2019-10-07T06:01:24Z</time>
      </trkpt>
      <trkpt lat="46.2046" lon="6.1472">
        <ele>372.60000610352</ele>
        <time>2019-10-07T06:01:31Z</time>
      </trkpt>
      <trkpt lat="46.20439" lon="6.14822">
        <ele>372</ele>
        <time>2019-10-07T06:01:46Z</time>
      </trkpt>
      <trkpt lat="46.20425" lon="6.14887">
        <ele>371.79998779297</ele>
        <time>2019-10-07T06:01:58Z</time>
      </trkpt>
      <trkpt lat="46.20419" lon="6.14917">
        <ele>371.60000610352</ele>
        <time>2019-10-07T06:02:03Z</time>
      </trkpt>
      <trkpt lat="46.20394" lon="6.15007">
        <ele>371.39999389648</ele>
        <time>2019-10-07T06:02:25Z</time>
      </trkpt>
      <trkpt lat="46.20374" lon="6.15002">
        <ele>371.60000610352</ele>
        <time>2019-10-07T06:02:34Z</time>
      </trkpt>
      <trkpt lat="46.20354" lon="6.15011">
        <ele>371.79998779297</ele>
        <time>2019-10-07T06:02:41Z</time>
      </trkpt>
      <trkpt lat="46.20347" lon="6.15074">
        <ele>371.79998779297</ele>
        <time>2019-10-07T06:02:50Z</time>
      </trkpt>
      <trkpt lat="46.20347" lon="6.1511">
        <ele>371.79998779297</ele>
        <time>2019-10-07T06:02:55Z</time>
      </trkpt>
      <trkpt lat="46.20339" lon="6.15146">
        <ele>371.79998779297</ele>
        <time>2019-10-07T06:03:00Z</time>
      </trkpt>
      <trkpt lat="46.20324" lon="6.15221">
        <ele>372</ele>
        <time>2019-10-07T06:03:13Z</time>
      </trkpt>
      <trkpt lat="46.20302" lon="6.15289">
        <ele>372.39999389648</ele>
        <time>2019-10-07T06:03:25Z</time>
      </trkpt>
      <trkpt lat="46.20292" lon="6.15338">
        <ele>372.79998779297</ele>
        <time>2019-10-07T06:03:38Z</time>
      </trkpt>
      <trkpt lat="46.20291" lon="6.15345">
        <ele>373</ele>
        <time>2019-10-07T06:04:16Z</time>
      </trkpt>
      <trkpt lat="46.20278" lon="6.15404">
        <ele>373</ele>
        <time>2019-10-07T06:04:29Z</time>
      </trkpt>
      <trkpt lat="46.2027" lon="6.15443">
        <ele>373.39999389648</ele>
        <time>2019-10-07T06:04:37Z</time>
      </trkpt>
      <trkpt lat="46.20264" lon="6.15472">
        <ele>373.39999389648</ele>
        <time>2019-10-07T06:04:42Z</time>
      </trkpt>
      <trkpt lat="46.2025" lon="6.15575">
        <ele>373.79998779297</ele>
        <time>2019-10-07T06:04:56Z</time>
      </trkpt>
      <trkpt lat="46.20225" lon="6.15611">
        <ele>373.60000610352</ele>
        <time>2019-10-07T06:05:07Z</time>
      </trkpt>
      <trkpt lat="46.20215" lon="6.156">
        <ele>374</ele>
        <time>2019-10-07T06:05:23Z</time>
      </trkpt>
      <trkpt lat="46.20189" lon="6.1562">
        <ele>374.20001220703</ele>
        <time>2019-10-07T06:05:31Z</time>
      </trkpt>
      <trkpt lat="46.20187" lon="6.15641">
        <ele>374.39999389648</ele>
        <time>2019-10-07T06:05:35Z</time>
      </trkpt>
      <trkpt lat="46.2018" lon="6.15698">
        <ele>374.60000610352</ele>
        <time>2019-10-07T06:05:43Z</time>
      </trkpt>
      <trkpt lat="46.20167" lon="6.15807">
        <ele>374</ele>
        <time>2019-10-07T06:05:58Z</time>
      </trkpt>
      <trkpt lat="46.2016" lon="6.15862">
        <ele>375.20001220703</ele>
        <time>2019-10-07T06:06:09Z</time>
      </trkpt>
      <trkpt lat="46.20159" lon="6.15876">
        <ele>376</ele>
        <time>2019-10-07T06:06:20Z</time>
      </trkpt>
      <trkpt lat="46.20159" lon="6.15878">
        <ele>376</ele>
        <time>2019-10-07T06:06:22Z</time>
      </trkpt>
      <trkpt lat="46.20156" lon="6.15908">
        <ele>376.20001220703</ele>
        <time>2019-10-07T06:06:28Z</time>
      </trkpt>
      <trkpt lat="46.20159" lon="6.15926">
        <ele>376.39999389648</ele>
        <time>2019-10-07T06:06:33Z</time>
      </trkpt>
      <trkpt lat="46.20142" lon="6.1597">
        <ele>377.20001220703</ele>
        <time>2019-10-07T06:06:46Z</time>
      </trkpt>
      <trkpt lat="46.20136" lon="6.15984">
        <ele>377.79998779297</ele>
        <time>2019-10-07T06:07:02Z</time>
      </trkpt>
      <trkpt lat="46.20126" lon="6.16011">
        <ele>377.79998779297</ele>
        <time>2019-10-07T06:07:09Z</time>
      </trkpt>
      <trkpt lat="46.20123" lon="6.1607">
        <ele>379.39999389648</ele>
        <time>2019-10-07T06:07:20Z</time>
      </trkpt>
      <trkpt lat="46.2009" lon="6.16097">
        <ele>381</ele>
        <time>2019-10-07T06:07:28Z</time>
      </trkpt>
      <trkpt lat="46.20074" lon="6.1614">
        <ele>382.60000610352</ele>
        <time>2019-10-07T06:07:39Z</time>
      </trkpt>
      <trkpt lat="46.20091" lon="6.1618">
        <ele>383.79998779297</ele>
        <time>2019-10-07T06:07:49Z</time>
      </trkpt>
      <trkpt lat="46.20091" lon="6.16183">
        <ele>384</ele>
        <time>2019-10-07T06:07:57Z</time>
      </trkpt>
      <trkpt lat="46.20048" lon="6.16204">
        <ele>384.60000610352</ele>
        <time>2019-10-07T06:08:07Z</time>
      </trkpt>
      <trkpt lat="46.20033" lon="6.16241">
        <ele>385.79998779297</ele>
        <time>2019-10-07T06:08:16Z</time>
      </trkpt>
      <trkpt lat="46.20022" lon="6.16269">
        <ele>386.60000610352</ele>
        <time>2019-10-07T06:08:23Z</time>
      </trkpt>
      <trkpt lat="46.20008" lon="6.16308">
        <ele>388.39999389648</ele>
        <time>2019-10-07T06:08:34Z</time>
      </trkpt>
      <trkpt lat="46.20002" lon="6.16351">
        <ele>389.79998779297</ele>
        <time>2019-10-07T06:08:42Z</time>
      </trkpt>
      <trkpt lat="46.20002" lon="6.16398">
        <ele>391.60000610352</ele>
        <time>2019-10-07T06:08:53Z</time>
      </trkpt>
      <trkpt lat="46.20002" lon="6.16409">
        <ele>391.79998779297</ele>
        <time>2019-10-07T06:08:58Z</time>
      </trkpt>
      <trkpt lat="46.20002" lon="6.16428">
        <ele>392.39999389648</ele>
        <time>2019-10-07T06:09:25Z</time>
      </trkpt>
      <trkpt lat="46.20002" lon="6.16446">
        <ele>393.20001220703</ele>
        <time>2019-10-07T06:10:14Z</time>
      </trkpt>
      <trkpt lat="46.20003" lon="6.16459">
        <ele>393.39999389648</ele>
        <time>2019-10-07T06:10:20Z</time>
      </trkpt>
      <trkpt lat="46.20003" lon="6.16476">
        <ele>394.20001220703</ele>
        <time>2019-10-07T06:10:32Z</time>
      </trkpt>
      <trkpt lat="46.20003" lon="6.16518">
        <ele>395</ele>
        <time>2019-10-07T06:10:42Z</time>
      </trkpt>
      <trkpt lat="46.20004" lon="6.16567">
        <ele>396.20001220703</ele>
        <time>2019-10-07T06:10:55Z</time>
      </trkpt>
      <trkpt lat="46.20004" lon="6.16598">
        <ele>397</ele>
        <time>2019-10-07T06:11:05Z</time>
      </trkpt>
      <trkpt lat="46.20005" lon="6.16639">
        <ele>398</ele>
        <time>2019-10-07T06:11:19Z</time>
      </trkpt>
      <trkpt lat="46.20005" lon="6.1666">
        <ele>399</ele>
        <time>2019-10-07T06:11:28Z</time>
      </trkpt>
      <trkpt lat="46.20004" lon="6.16702">
        <ele>400</ele>
        <time>2019-10-07T06:11:40Z</time>
      </trkpt>
      <trkpt lat="46.20003" lon="6.16731">
        <ele>400.39999389648</ele>
        <time>2019-10-07T06:11:48Z</time>
      </trkpt>
      <trkpt lat="46.19996" lon="6.16781">
        <ele>401.60000610352</ele>
        <time>2019-10-07T06:12:02Z</time>
      </trkpt>
      <trkpt lat="46.19996" lon="6.16819">
        <ele>402.20001220703</ele>
        <time>2019-10-07T06:12:09Z</time>
      </trkpt>
      <trkpt lat="46.19997" lon="6.1687">
        <ele>403.60000610352</ele>
        <time>2019-10-07T06:12:18Z</time>
      </trkpt>
      <trkpt lat="46.20005" lon="6.16937">
        <ele>405.60000610352</ele>
        <time>2019-10-07T06:12:31Z</time>
      </trkpt>
      <trkpt lat="46.20005" lon="6.1697">
        <ele>406.39999389648</ele>
        <time>2019-10-07T06:12:37Z</time>
      </trkpt>
      <trkpt lat="46.20006" lon="6.17061">
        <ele>408.79998779297</ele>
        <time>2019-10-07T06:12:54Z</time>
      </trkpt>
      <trkpt lat="46.20006" lon="6.17098">
        <ele>410</ele>
        <time>2019-10-07T06:13:02Z</time>
      </trkpt>
      <trkpt lat="46.20002" lon="6.17165">
        <ele>412.20001220703</ele>
        <time>2019-10-07T06:13:16Z</time>
      </trkpt>
      <trkpt lat="46.19998" lon="6.17195">
        <ele>412.79998779297</ele>
        <time>2019-10-07T06:13:22Z</time>
      </trkpt>
      <trkpt lat="46.19986" lon="6.17287">
        <ele>414.60000610352</ele>
        <time>2019-10-07T06:13:40Z</time>
      </trkpt>
      <trkpt lat="46.19982" lon="6.1732">
        <ele>415.20001220703</ele>
        <time>2019-10-07T06:13:46Z</time>
      </trkpt>
      <trkpt lat="46.19968" lon="6.17423">
        <ele>416.79998779297</ele>
        <time>2019-10-07T06:14:04Z</time>
      </trkpt>
      <trkpt lat="46.19967" lon="6.17428">
        <ele>417</ele>
        <time>2019-10-07T06:14:12Z</time>
      </trkpt>
      <trkpt lat="46.19962" lon="6.17458">
        <ele>417.39999389648</ele>
        <time>2019-10-07T06:14:18Z</time>
      </trkpt>
      <trkpt lat="46.19945" lon="6.17543">
        <ele>418</ele>
        <time>2019-10-07T06:14:33Z</time>
      </trkpt>
      <trkpt lat="46.19931" lon="6.17618">
        <ele>418.79998779297</ele>
        <time>2019-10-07T06:14:44Z</time>
      </trkpt>
      <trkpt lat="46.19904" lon="6.17858">
        <ele>419</ele>
        <time>2019-10-07T06:15:16Z</time>
      </trkpt>
      <trkpt lat="46.19895" lon="6.17952">
        <ele>419</ele>
        <time>2019-10-07T06:15:28Z</time>
      </trkpt>
      <trkpt lat="46.19871" lon="6.18188">
        <ele>418.60000610352</ele>
        <time>2019-10-07T06:15:58Z</time>
      </trkpt>
      <trkpt lat="46.19861" lon="6.18281">
        <ele>418.79998779297</ele>
        <time>2019-10-07T06:16:10Z</time>
      </trkpt>
      <trkpt lat="46.19853" lon="6.18367">
        <ele>419</ele>
        <time>2019-10-07T06:16:21Z</time>
      </trkpt>
      <trkpt lat="46.19844" lon="6.18454">
        <ele>419.39999389648</ele>
        <time>2019-10-07T06:16:35Z</time>
      </trkpt>
      <trkpt lat="46.19833" lon="6.18538">
        <ele>419.20001220703</ele>
        <time>2019-10-07T06:16:48Z</time>
      </trkpt>
      <trkpt lat="46.19818" lon="6.18621">
        <ele>418.79998779297</ele>
        <time>2019-10-07T06:16:58Z</time>
      </trkpt>
      <trkpt lat="46.19776" lon="6.18765">
        <ele>418</ele>
        <time>2019-10-07T06:17:16Z</time>
      </trkpt>
      <trkpt lat="46.19767" lon="6.18793">
        <ele>417.79998779297</ele>
        <time>2019-10-07T06:17:23Z</time>
      </trkpt>
      <trkpt lat="46.19761" lon="6.18811">
        <ele>417.20001220703</ele>
        <time>2019-10-07T06:17:59Z</time>
      </trkpt>
      <trkpt lat="46.19739" lon="6.18865">
        <ele>416.79998779297</ele>
        <time>2019-10-07T06:18:07Z</time>
      </trkpt>
      <trkpt lat="46.19716" lon="6.18913">
        <ele>416.20001220703</ele>
        <time>2019-10-07T06:18:13Z</time>
      </trkpt>
      <trkpt lat="46.19679" lon="6.1897">
        <ele>414.20001220703</ele>
        <time>2019-10-07T06:18:21Z</time>
      </trkpt>
      <trkpt lat="46.19644" lon="6.19025">
        <ele>412.60000610352</ele>
        <time>2019-10-07T06:18:28Z</time>
      </trkpt>
      <trkpt lat="46.19578" lon="6.19149">
        <ele>408.39999389648</ele>
        <time>2019-10-07T06:18:43Z</time>
      </trkpt>
      <trkpt lat="46.19551" lon="6.19207">
        <ele>408.60000610352</ele>
        <time>2019-10-07T06:18:51Z</time>
      </trkpt>
      <trkpt lat="46.19524" lon="6.19265">
        <ele>409.60000610352</ele>
        <time>2019-10-07T06:19:03Z</time>
      </trkpt>
      <trkpt lat="46.19512" lon="6.19292">
        <ele>410.39999389648</ele>
        <time>2019-10-07T06:19:11Z</time>
      </trkpt>
      <trkpt lat="46.19481" lon="6.19351">
        <ele>411.39999389648</ele>
        <time>2019-10-07T06:19:22Z</time>
      </trkpt>
      <trkpt lat="46.19466" lon="6.1939">
        <ele>412.60000610352</ele>
        <time>2019-10-07T06:19:30Z</time>
      </trkpt>
      <trkpt lat="46.19445" lon="6.19436">
        <ele>413.39999389648</ele>
        <time>2019-10-07T06:19:44Z</time>
      </trkpt>
      <trkpt lat="46.19433" lon="6.19469">
        <ele>413.79998779297</ele>
        <time>2019-10-07T06:19:50Z</time>
      </trkpt>
      <trkpt lat="46.19417" lon="6.19549">
        <ele>415</ele>
        <time>2019-10-07T06:20:03Z</time>
      </trkpt>
      <trkpt lat="46.194" lon="6.19644">
        <ele>415.39999389648</ele>
        <time>2019-10-07T06:20:18Z</time>
      </trkpt>
      <trkpt lat="46.19365" lon="6.19845">
        <ele>415.60000610352</ele>
        <time>2019-10-07T06:20:47Z</time>
      </trkpt>
      <trkpt lat="46.19351" lon="6.19921">
        <ele>415.79998779297</ele>
        <time>2019-10-07T06:21:01Z</time>
      </trkpt>
      <trkpt lat="46.19346" lon="6.19953">
        <ele>415.60000610352</ele>
        <time>2019-10-07T06:21:06Z</time>
      </trkpt>
      <trkpt lat="46.19314" lon="6.20141">
        <ele>415</ele>
        <time>2019-10-07T06:21:33Z</time>
      </trkpt>
      <trkpt lat="46.19302" lon="6.2021">
        <ele>415</ele>
        <time>2019-10-07T06:21:43Z</time>
      </trkpt>
      <trkpt lat="46.19289" lon="6.20242">
        <ele>414.79998779297</ele>
        <time>2019-10-07T06:22:46Z</time>
      </trkpt>
      <trkpt lat="46.19285" lon="6.20263">
        <ele>414.60000610352</ele>
        <time>2019-10-07T06:22:53Z</time>
      </trkpt>
      <trkpt lat="46.19273" lon="6.20363">
        <ele>414.39999389648</ele>
        <time>2019-10-07T06:23:09Z</time>
      </trkpt>
      <trkpt lat="46.1926" lon="6.20431">
        <ele>414</ele>
        <time>2019-10-07T06:23:18Z</time>
      </trkpt>
      <trkpt lat="46.19245" lon="6.20504">
        <ele>413</ele>
        <time>2019-10-07T06:23:26Z</time>
      </trkpt>
      <trkpt lat="46.19238" lon="6.20539">
        <ele>411.60000610352</ele>
        <time>2019-10-07T06:23:32Z</time>
      </trkpt>
      <trkpt lat="46.1922" lon="6.20595">
        <ele>409.39999389648</ele>
        <time>2019-10-07T06:23:44Z</time>
      </trkpt>
      <trkpt lat="46.19217" lon="6.20709">
        <ele>409.20001220703</ele>
        <time>2019-10-07T06:24:00Z</time>
      </trkpt>
      <trkpt lat="46.19202" lon="6.20841">
        <ele>410</ele>
        <time>2019-10-07T06:24:20Z</time>
      </trkpt>
      <trkpt lat="46.192" lon="6.20856">
        <ele>410.60000610352</ele>
        <time>2019-10-07T06:24:29Z</time>
      </trkpt>
      <trkpt lat="46.19165" lon="6.20889">
        <ele>411</ele>
        <time>2019-10-07T06:24:35Z</time>
      </trkpt>
      <trkpt lat="46.19183" lon="6.20975">
        <ele>411.79998779297</ele>
        <time>2019-10-07T06:24:43Z</time>
      </trkpt>
      <trkpt lat="46.19166" lon="6.20982">
        <ele>413.20001220703</ele>
        <time>2019-10-07T06:24:52Z</time>
      </trkpt>
      <trkpt lat="46.19161" lon="6.21129">
        <ele>414.39999389648</ele>
        <time>2019-10-07T06:25:09Z</time>
      </trkpt>
      <trkpt lat="46.1916" lon="6.21178">
        <ele>414.79998779297</ele>
        <time>2019-10-07T06:25:19Z</time>
      </trkpt>
      <trkpt lat="46.19161" lon="6.21206">
        <ele>415.20001220703</ele>
        <time>2019-10-07T06:25:58Z</time>
      </trkpt>
      <trkpt lat="46.19147" lon="6.21298">
        <ele>415.60000610352</ele>
        <time>2019-10-07T06:26:12Z</time>
      </trkpt>
      <trkpt lat="46.19129" lon="6.21409">
        <ele>416</ele>
        <time>2019-10-07T06:26:30Z</time>
      </trkpt>
      <trkpt lat="46.19124" lon="6.21464">
        <ele>416.39999389648</ele>
        <time>2019-10-07T06:26:40Z</time>
      </trkpt>
      <trkpt lat="46.19134" lon="6.21519">
        <ele>416.60000610352</ele>
        <time>2019-10-07T06:26:52Z</time>
      </trkpt>
      <trkpt lat="46.19134" lon="6.21583">
        <ele>416.79998779297</ele>
        <time>2019-10-07T06:27:03Z</time>
      </trkpt>
      <trkpt lat="46.19146" lon="6.21661">
        <ele>416.79998779297</ele>
        <time>2019-10-07T06:27:17Z</time>
      </trkpt>
      <trkpt lat="46.19144" lon="6.21717">
        <ele>417.20001220703</ele>
        <time>2019-10-07T06:27:30Z</time>
      </trkpt>
      <trkpt lat="46.19153" lon="6.21796">
        <ele>417.20001220703</ele>
        <time>2019-10-07T06:27:45Z</time>
      </trkpt>
      <trkpt lat="46.19165" lon="6.21914">
        <ele>417</ele>
        <time>2019-10-07T06:28:06Z</time>
      </trkpt>
      <trkpt lat="46.19172" lon="6.21981">
        <ele>417</ele>
        <time>2019-10-07T06:28:19Z</time>
      </trkpt>
      <trkpt lat="46.19202" lon="6.22166">
        <ele>417.20001220703</ele>
        <time>2019-10-07T06:28:45Z</time>
      </trkpt>
      <trkpt lat="46.19236" lon="6.22288">
        <ele>417.60000610352</ele>
        <time>2019-10-07T06:29:03Z</time>
      </trkpt>
      <trkpt lat="46.19272" lon="6.22414">
        <ele>418.79998779297</ele>
        <time>2019-10-07T06:29:22Z</time>
      </trkpt>
      <trkpt lat="46.19284" lon="6.2246">
        <ele>419.20001220703</ele>
        <time>2019-10-07T06:29:31Z</time>
      </trkpt>
      <trkpt lat="46.19303" lon="6.22563">
        <ele>420.39999389648</ele>
        <time>2019-10-07T06:29:49Z</time>
      </trkpt>
      <trkpt lat="46.19304" lon="6.22643">
        <ele>421</ele>
        <time>2019-10-07T06:30:01Z</time>
      </trkpt>
      <trkpt lat="46.19297" lon="6.2273">
        <ele>421.79998779297</ele>
        <time>2019-10-07T06:30:14Z</time>
      </trkpt>
      <trkpt lat="46.1929" lon="6.22821">
        <ele>423</ele>
        <time>2019-10-07T06:30:30Z</time>
      </trkpt>
      <trkpt lat="46.19287" lon="6.22885">
        <ele>423.39999389648</ele>
        <time>2019-10-07T06:30:47Z</time>
      </trkpt>
      <trkpt lat="46.19284" lon="6.22907">
        <ele>423.39999389648</ele>
        <time>2019-10-07T06:30:58Z</time>
      </trkpt>
      <trkpt lat="46.19281" lon="6.2295">
        <ele>423.60000610352</ele>
        <time>2019-10-07T06:31:12Z</time>
      </trkpt>
      <trkpt lat="46.1927" lon="6.23087">
        <ele>423.60000610352</ele>
        <time>2019-10-07T06:31:36Z</time>
      </trkpt>
      <trkpt lat="46.19272" lon="6.2316">
        <ele>424.20001220703</ele>
        <time>2019-10-07T06:31:49Z</time>
      </trkpt>
      <trkpt lat="46.19244" lon="6.2322">
        <ele>424.60000610352</ele>
        <time>2019-10-07T06:32:06Z</time>
      </trkpt>
      <trkpt lat="46.19217" lon="6.23266">
        <ele>424.39999389648</ele>
        <time>2019-10-07T06:32:20Z</time>
      </trkpt>
      <trkpt lat="46.19193" lon="6.23313">
        <ele>424.20001220703</ele>
        <time>2019-10-07T06:32:38Z</time>
      </trkpt>
      <trkpt lat="46.19211" lon="6.2333">
        <ele>424.39999389648</ele>
        <time>2019-10-07T06:32:46Z</time>
      </trkpt>
      <trkpt lat="46.19244" lon="6.23353">
        <ele>423.79998779297</ele>
        <time>2019-10-07T06:32:55Z</time>
      </trkpt>
      <trkpt lat="46.19247" lon="6.23355">
        <ele>423.20001220703</ele>
        <time>2019-10-07T06:33:05Z</time>
      </trkpt>
      <trkpt lat="46.19252" lon="6.23358">
        <ele>423.39999389648</ele>
        <time>2019-10-07T06:33:11Z</time>
      </trkpt>
      <trkpt lat="46.19258" lon="6.23362">
        <ele>424.39999389648</ele>
        <time>2019-10-07T06:33:17Z</time>
      </trkpt>
      <trkpt lat="46.19263" lon="6.23366">
        <ele>426</ele>
        <time>2019-10-07T06:33:28Z</time>
      </trkpt>
      <trkpt lat="46.19293" lon="6.23379">
        <ele>426.20001220703</ele>
        <time>2019-10-07T06:33:41Z</time>
      </trkpt>
      <trkpt lat="46.19312" lon="6.23438">
        <ele>426.39999389648</ele>
        <time>2019-10-07T06:33:57Z</time>
      </trkpt>
      <trkpt lat="46.19311" lon="6.23465">
        <ele>426.60000610352</ele>
        <time>2019-10-07T06:34:09Z</time>
      </trkpt>
      <trkpt lat="46.19305" lon="6.23475">
        <ele>426.79998779297</ele>
        <time>2019-10-07T06:34:17Z</time>
      </trkpt>
      <trkpt lat="46.19282" lon="6.23509">
        <ele>426.60000610352</ele>
        <time>2019-10-07T06:34:35Z</time>
      </trkpt>
      <trkpt lat="46.19275" lon="6.23576">
        <ele>426.79998779297</ele>
        <time>2019-10-07T06:34:52Z</time>
      </trkpt>
      <trkpt lat="46.19256" lon="6.23583">
        <ele>427</ele>
        <time>2019-10-07T06:35:04Z</time>
      </trkpt>
      <trkpt lat="46.19212" lon="6.23558">
        <ele>426.79998779297</ele>
        <time>2019-10-07T06:35:22Z</time>
      </trkpt>
      <trkpt lat="46.19202" lon="6.23582">
        <ele>427</ele>
        <time>2019-10-07T06:35:33Z</time>
      </trkpt>
      <trkpt lat="46.1922" lon="6.23602">
        <ele>427.20001220703</ele>
        <time>2019-10-07T06:35:38Z</time>
      </trkpt>
      <trkpt lat="46.19276" lon="6.23648">
        <ele>427.79998779297</ele>
        <time>2019-10-07T06:36:00Z</time>
      </trkpt>
      <trkpt lat="46.19308" lon="6.23666">
        <ele>427.79998779297</ele>
        <time>2019-10-07T06:36:15Z</time>
      </trkpt>
      <trkpt lat="46.19339" lon="6.23629">
        <ele>427.20001220703</ele>
        <time>2019-10-07T06:36:34Z</time>
      </trkpt>
      <trkpt lat="46.19356" lon="6.2364">
        <ele>427</ele>
        <time>2019-10-07T06:36:44Z</time>
      </trkpt>
      <trkpt lat="46.19412" lon="6.23675">
        <ele>427.20001220703</ele>
        <time>2019-10-07T06:37:02Z</time>
      </trkpt>
      <trkpt lat="46.19445" lon="6.23689">
        <ele>427.20001220703</ele>
        <time>2019-10-07T06:37:11Z</time>
      </trkpt>
      <trkpt lat="46.19451" lon="6.23661">
        <ele>427</ele>
        <time>2019-10-07T06:37:18Z</time>
      </trkpt>
      <trkpt lat="46.1948" lon="6.23596">
        <ele>426.79998779297</ele>
        <time>2019-10-07T06:37:40Z</time>
      </trkpt>
      <trkpt lat="46.19487" lon="6.2359">
        <ele>426.79998779297</ele>
        <time>2019-10-07T06:37:46Z</time>
      </trkpt>
      <trkpt lat="46.19488" lon="6.23569">
        <ele>426.60000610352</ele>
        <time>2019-10-07T06:38:00Z</time>
      </trkpt>
      <trkpt lat="46.19458" lon="6.23545">
        <ele>426.60000610352</ele>
        <time>2019-10-07T06:38:15Z</time>
      </trkpt>
      <trkpt lat="46.19404" lon="6.23517">
        <ele>426.79998779297</ele>
        <time>2019-10-07T06:38:38Z</time>
      </trkpt>
      <trkpt lat="46.19383" lon="6.23506">
        <ele>426.79998779297</ele>
        <time>2019-10-07T06:38:49Z</time>
      </trkpt>
      <trkpt lat="46.1935" lon="6.23488">
        <ele>426.79998779297</ele>
        <time>2019-10-07T06:39:01Z</time>
      </trkpt>
      <trkpt lat="46.19314" lon="6.23471">
        <ele>426.39999389648</ele>
        <time>2019-10-07T06:39:15Z</time>
      </trkpt>
      <trkpt lat="46.19291" lon="6.23469">
        <ele>426.60000610352</ele>
        <time>2019-10-07T06:39:28Z</time>
      </trkpt>
      <trkpt lat="46.19288" lon="6.23463">
        <ele>426.39999389648</ele>
        <time>2019-10-07T06:39:34Z</time>
      </trkpt>
      <trkpt lat="46.19268" lon="6.23455">
        <ele>426.39999389648</ele>
        <time>2019-10-07T06:39:52Z</time>
      </trkpt>
      <trkpt lat="46.19251" lon="6.23448">
        <ele>426.39999389648</ele>
        <time>2019-10-07T06:39:59Z</time>
      </trkpt>
      <trkpt lat="46.19239" lon="6.23443">
        <ele>426.39999389648</ele>
        <time>2019-10-07T06:40:09Z</time>
      </trkpt>
      <trkpt lat="46.19197" lon="6.23421">
        <ele>426</ele>
        <time>2019-10-07T06:40:28Z</time>
      </trkpt>
      <trkpt lat="46.1929" lon="6.23458">
        <ele>428.39999389648</ele>
        <time>2019-10-07T06:51:18Z</time>
      </trkpt>
      <trkpt lat="46.19289" lon="6.23409">
        <ele>428.39999389648</ele>
        <time>2019-10-07T06:51:33Z</time>
      </trkpt>
      <trkpt lat="46.19291" lon="6.23392">
        <ele>428.39999389648</ele>
        <time>2019-10-07T06:51:38Z</time>
      </trkpt>
      <trkpt lat="46.19267" lon="6.23353">
        <ele>427.39999389648</ele>
        <time>2019-10-07T06:51:56Z</time>
      </trkpt>
      <trkpt lat="46.19265" lon="6.23348">
        <ele>427.39999389648</ele>
        <time>2019-10-07T06:52:12Z</time>
      </trkpt>
      <trkpt lat="46.19301" lon="6.23308">
        <ele>427.39999389648</ele>
        <time>2019-10-07T06:53:13Z</time>
      </trkpt>
      <trkpt lat="46.19296" lon="6.23267">
        <ele>427</ele>
        <time>2019-10-07T06:53:25Z</time>
      </trkpt>
      <trkpt lat="46.19283" lon="6.23189">
        <ele>426.39999389648</ele>
        <time>2019-10-07T06:53:43Z</time>
      </trkpt>
      <trkpt lat="46.19271" lon="6.23153">
        <ele>426.39999389648</ele>
        <time>2019-10-07T06:53:49Z</time>
      </trkpt>
      <trkpt lat="46.19272" lon="6.23064">
        <ele>425.79998779297</ele>
        <time>2019-10-07T06:54:07Z</time>
      </trkpt>
      <trkpt lat="46.19273" lon="6.2305">
        <ele>425.60000610352</ele>
        <time>2019-10-07T06:54:12Z</time>
      </trkpt>
      <trkpt lat="46.19277" lon="6.23001">
        <ele>425.20001220703</ele>
        <time>2019-10-07T06:54:23Z</time>
      </trkpt>
      <trkpt lat="46.1928" lon="6.22958">
        <ele>424.79998779297</ele>
        <time>2019-10-07T06:54:35Z</time>
      </trkpt>
      <trkpt lat="46.19297" lon="6.22953">
        <ele>425</ele>
        <time>2019-10-07T06:54:39Z</time>
      </trkpt>
      <trkpt lat="46.19298" lon="6.22935">
        <ele>425.20001220703</ele>
        <time>2019-10-07T06:54:52Z</time>
      </trkpt>
      <trkpt lat="46.19284" lon="6.22905">
        <ele>425.20001220703</ele>
        <time>2019-10-07T06:54:57Z</time>
      </trkpt>
      <trkpt lat="46.19273" lon="6.2288">
        <ele>424.79998779297</ele>
        <time>2019-10-07T06:55:08Z</time>
      </trkpt>
      <trkpt lat="46.19274" lon="6.22879">
        <ele>424.60000610352</ele>
        <time>2019-10-07T06:55:20Z</time>
      </trkpt>
      <trkpt lat="46.19288" lon="6.22902">
        <ele>424.39999389648</ele>
        <time>2019-10-07T07:40:36Z</time>
      </trkpt>
      <trkpt lat="46.19286" lon="6.22897">
        <ele>424.60000610352</ele>
        <time>2019-10-07T07:41:02Z</time>
      </trkpt>
      <trkpt lat="46.19287" lon="6.22885">
        <ele>424.39999389648</ele>
        <time>2019-10-07T07:41:10Z</time>
      </trkpt>
      <trkpt lat="46.19291" lon="6.22804">
        <ele>424.39999389648</ele>
        <time>2019-10-07T07:41:23Z</time>
      </trkpt>
      <trkpt lat="46.19296" lon="6.22735">
        <ele>424</ele>
        <time>2019-10-07T07:41:35Z</time>
      </trkpt>
      <trkpt lat="46.19297" lon="6.22727">
        <ele>423.60000610352</ele>
        <time>2019-10-07T07:41:39Z</time>
      </trkpt>
      <trkpt lat="46.19297" lon="6.22723">
        <ele>423</ele>
        <time>2019-10-07T07:41:48Z</time>
      </trkpt>
      <trkpt lat="46.19295" lon="6.22748">
        <ele>423.20001220703</ele>
        <time>2019-10-07T07:41:55Z</time>
      </trkpt>
      <trkpt lat="46.19293" lon="6.22775">
        <ele>423.39999389648</ele>
        <time>2019-10-07T07:42:01Z</time>
      </trkpt>
      <trkpt lat="46.19234" lon="6.22771">
        <ele>423.60000610352</ele>
        <time>2019-10-07T07:42:13Z</time>
      </trkpt>
      <trkpt lat="46.19169" lon="6.22757">
        <ele>423</ele>
        <time>2019-10-07T07:42:25Z</time>
      </trkpt>
      <trkpt lat="46.19113" lon="6.22739">
        <ele>422.60000610352</ele>
        <time>2019-10-07T07:42:36Z</time>
      </trkpt>
      <trkpt lat="46.19095" lon="6.22743">
        <ele>422.39999389648</ele>
        <time>2019-10-07T07:42:40Z</time>
      </trkpt>
      <trkpt lat="46.19065" lon="6.22737">
        <ele>421</ele>
        <time>2019-10-07T07:42:45Z</time>
      </trkpt>
      <trkpt lat="46.19039" lon="6.22733">
        <ele>419.79998779297</ele>
        <time>2019-10-07T07:42:48Z</time>
      </trkpt>
      <trkpt lat="46.18987" lon="6.22731">
        <ele>417.60000610352</ele>
        <time>2019-10-07T07:42:53Z</time>
      </trkpt>
      <trkpt lat="46.18938" lon="6.22736">
        <ele>413.60000610352</ele>
        <time>2019-10-07T07:42:58Z</time>
      </trkpt>
      <trkpt lat="46.18893" lon="6.22752">
        <ele>409.20001220703</ele>
        <time>2019-10-07T07:43:05Z</time>
      </trkpt>
      <trkpt lat="46.18868" lon="6.22763">
        <ele>408.60000610352</ele>
        <time>2019-10-07T07:43:10Z</time>
      </trkpt>
      <trkpt lat="46.18776" lon="6.22843">
        <ele>407</ele>
        <time>2019-10-07T07:43:27Z</time>
      </trkpt>
      <trkpt lat="46.18759" lon="6.22861">
        <ele>406.79998779297</ele>
        <time>2019-10-07T07:43:30Z</time>
      </trkpt>
      <trkpt lat="46.1874" lon="6.22882">
        <ele>406.39999389648</ele>
        <time>2019-10-07T07:43:34Z</time>
      </trkpt>
      <trkpt lat="46.18697" lon="6.22926">
        <ele>406.20001220703</ele>
        <time>2019-10-07T07:43:43Z</time>
      </trkpt>
      <trkpt lat="46.18657" lon="6.22954">
        <ele>406.39999389648</ele>
        <time>2019-10-07T07:43:51Z</time>
      </trkpt>
      <trkpt lat="46.1861" lon="6.22958">
        <ele>406.39999389648</ele>
        <time>2019-10-07T07:43:58Z</time>
      </trkpt>
      <trkpt lat="46.18563" lon="6.22954">
        <ele>405.20001220703</ele>
        <time>2019-10-07T07:44:05Z</time>
      </trkpt>
      <trkpt lat="46.18507" lon="6.22922">
        <ele>403.20001220703</ele>
        <time>2019-10-07T07:44:13Z</time>
      </trkpt>
      <trkpt lat="46.18475" lon="6.22895">
        <ele>402.20001220703</ele>
        <time>2019-10-07T07:44:19Z</time>
      </trkpt>
      <trkpt lat="46.18447" lon="6.22872">
        <ele>400.60000610352</ele>
        <time>2019-10-07T07:44:27Z</time>
      </trkpt>
      <trkpt lat="46.18447" lon="6.22872">
        <ele>400.39999389648</ele>
        <time>2019-10-07T07:44:30Z</time>
      </trkpt>
      <trkpt lat="46.18437" lon="6.22897">
        <ele>399.20001220703</ele>
        <time>2019-10-07T07:44:36Z</time>
      </trkpt>
      <trkpt lat="46.18408" lon="6.22969">
        <ele>398.79998779297</ele>
        <time>2019-10-07T07:44:47Z</time>
      </trkpt>
      <trkpt lat="46.1838" lon="6.23042">
        <ele>398.79998779297</ele>
        <time>2019-10-07T07:44:57Z</time>
      </trkpt>
      <trkpt lat="46.18377" lon="6.23068">
        <ele>399</ele>
        <time>2019-10-07T07:45:01Z</time>
      </trkpt>
      <trkpt lat="46.1837" lon="6.23089">
        <ele>400</ele>
        <time>2019-10-07T07:45:07Z</time>
      </trkpt>
      <trkpt lat="46.18332" lon="6.23078">
        <ele>402.20001220703</ele>
        <time>2019-10-07T07:45:14Z</time>
      </trkpt>
      <trkpt lat="46.18286" lon="6.23059">
        <ele>402.20001220703</ele>
        <time>2019-10-07T07:45:22Z</time>
      </trkpt>
      <trkpt lat="46.18225" lon="6.23011">
        <ele>400.79998779297</ele>
        <time>2019-10-07T07:45:33Z</time>
      </trkpt>
      <trkpt lat="46.18199" lon="6.22994">
        <ele>401</ele>
        <time>2019-10-07T07:45:38Z</time>
      </trkpt>
      <trkpt lat="46.18137" lon="6.2298">
        <ele>403</ele>
        <time>2019-10-07T07:45:52Z</time>
      </trkpt>
      <trkpt lat="46.181" lon="6.22974">
        <ele>403.39999389648</ele>
        <time>2019-10-07T07:46:00Z</time>
      </trkpt>
      <trkpt lat="46.18069" lon="6.22972">
        <ele>403.20001220703</ele>
        <time>2019-10-07T07:46:06Z</time>
      </trkpt>
      <trkpt lat="46.18057" lon="6.22973">
        <ele>403</ele>
        <time>2019-10-07T07:46:08Z</time>
      </trkpt>
      <trkpt lat="46.1803" lon="6.22959">
        <ele>402.20001220703</ele>
        <time>2019-10-07T07:46:13Z</time>
      </trkpt>
      <trkpt lat="46.18018" lon="6.22921">
        <ele>400.60000610352</ele>
        <time>2019-10-07T07:46:18Z</time>
      </trkpt>
      <trkpt lat="46.17983" lon="6.22857">
        <ele>399.20001220703</ele>
        <time>2019-10-07T07:46:28Z</time>
      </trkpt>
      <trkpt lat="46.17971" lon="6.22833">
        <ele>399</ele>
        <time>2019-10-07T07:46:33Z</time>
      </trkpt>
      <trkpt lat="46.1794" lon="6.22762">
        <ele>398.79998779297</ele>
        <time>2019-10-07T07:46:45Z</time>
      </trkpt>
      <trkpt lat="46.17927" lon="6.22729">
        <ele>398.60000610352</ele>
        <time>2019-10-07T07:46:50Z</time>
      </trkpt>
      <trkpt lat="46.17918" lon="6.22704">
        <ele>398.79998779297</ele>
        <time>2019-10-07T07:46:54Z</time>
      </trkpt>
      <trkpt lat="46.17899" lon="6.22669">
        <ele>399</ele>
        <time>2019-10-07T07:47:01Z</time>
      </trkpt>
      <trkpt lat="46.17869" lon="6.22631">
        <ele>399.20001220703</ele>
        <time>2019-10-07T07:47:09Z</time>
      </trkpt>
      <trkpt lat="46.17823" lon="6.22584">
        <ele>398.39999389648</ele>
        <time>2019-10-07T07:47:21Z</time>
      </trkpt>
      <trkpt lat="46.17814" lon="6.22604">
        <ele>398.39999389648</ele>
        <time>2019-10-07T07:47:24Z</time>
      </trkpt>
      <trkpt lat="46.17784" lon="6.22627">
        <ele>398</ele>
        <time>2019-10-07T07:47:33Z</time>
      </trkpt>
      <trkpt lat="46.17778" lon="6.22642">
        <ele>398</ele>
        <time>2019-10-07T07:47:37Z</time>
      </trkpt>
      <trkpt lat="46.1781" lon="6.22612">
        <ele>398</ele>
        <time>2019-10-07T07:47:44Z</time>
      </trkpt>
      <trkpt lat="46.17825" lon="6.22588">
        <ele>398</ele>
        <time>2019-10-07T07:47:51Z</time>
      </trkpt>
      <trkpt lat="46.17856" lon="6.22616">
        <ele>398.20001220703</ele>
        <time>2019-10-07T07:48:02Z</time>
      </trkpt>
      <trkpt lat="46.17859" lon="6.2262">
        <ele>398.39999389648</ele>
        <time>2019-10-07T07:48:07Z</time>
      </trkpt>
      <trkpt lat="46.17861" lon="6.22622">
        <ele>399</ele>
        <time>2019-10-07T07:48:43Z</time>
      </trkpt>
      <trkpt lat="46.1786" lon="6.22621">
        <ele>399</ele>
        <time>2019-10-07T07:48:47Z</time>
      </trkpt>
      <trkpt lat="46.1785" lon="6.22632">
        <ele>399.20001220703</ele>
        <time>2019-10-07T07:48:50Z</time>
      </trkpt>
      <trkpt lat="46.17841" lon="6.22646">
        <ele>400.79998779297</ele>
        <time>2019-10-07T07:48:59Z</time>
      </trkpt>
      <trkpt lat="46.17835" lon="6.22657">
        <ele>402.60000610352</ele>
        <time>2019-10-07T07:49:07Z</time>
      </trkpt>
      <trkpt lat="46.1783" lon="6.22665">
        <ele>403.79998779297</ele>
        <time>2019-10-07T07:49:12Z</time>
      </trkpt>
      <trkpt lat="46.17824" lon="6.22675">
        <ele>405.79998779297</ele>
        <time>2019-10-07T07:49:20Z</time>
      </trkpt>
      <trkpt lat="46.17818" lon="6.22684">
        <ele>408</ele>
        <time>2019-10-07T07:49:28Z</time>
      </trkpt>
      <trkpt lat="46.1782" lon="6.2269">
        <ele>410.20001220703</ele>
        <time>2019-10-07T07:49:34Z</time>
      </trkpt>
      <trkpt lat="46.17823" lon="6.227">
        <ele>412.39999389648</ele>
        <time>2019-10-07T07:49:41Z</time>
      </trkpt>
      <trkpt lat="46.17826" lon="6.22708">
        <ele>414</ele>
        <time>2019-10-07T07:49:46Z</time>
      </trkpt>
      <trkpt lat="46.17831" lon="6.22725">
        <ele>416.60000610352</ele>
        <time>2019-10-07T07:49:56Z</time>
      </trkpt>
      <trkpt lat="46.17813" lon="6.22736">
        <ele>419.60000610352</ele>
        <time>2019-10-07T07:50:08Z</time>
      </trkpt>
      <trkpt lat="46.178" lon="6.22735">
        <ele>420.39999389648</ele>
        <time>2019-10-07T07:50:16Z</time>
      </trkpt>
      <trkpt lat="46.17786" lon="6.22732">
        <ele>422.39999389648</ele>
        <time>2019-10-07T07:50:26Z</time>
      </trkpt>
      <trkpt lat="46.17763" lon="6.22724">
        <ele>424.39999389648</ele>
        <time>2019-10-07T07:50:40Z</time>
      </trkpt>
      <trkpt lat="46.17733" lon="6.22714">
        <ele>426</ele>
        <time>2019-10-07T07:50:52Z</time>
      </trkpt>
      <trkpt lat="46.17712" lon="6.22712">
        <ele>426</ele>
        <time>2019-10-07T07:51:00Z</time>
      </trkpt>
      <trkpt lat="46.17705" lon="6.22721">
        <ele>426.39999389648</ele>
        <time>2019-10-07T07:51:06Z</time>
      </trkpt>
      <trkpt lat="46.177" lon="6.22734">
        <ele>426.60000610352</ele>
        <time>2019-10-07T07:51:12Z</time>
      </trkpt>
      <trkpt lat="46.17722" lon="6.22781">
        <ele>427.60000610352</ele>
        <time>2019-10-07T07:51:25Z</time>
      </trkpt>
      <trkpt lat="46.17752" lon="6.22824">
        <ele>427.79998779297</ele>
        <time>2019-10-07T07:51:35Z</time>
      </trkpt>
      <trkpt lat="46.17783" lon="6.22895">
        <ele>427.60000610352</ele>
        <time>2019-10-07T07:51:47Z</time>
      </trkpt>
      <trkpt lat="46.17799" lon="6.22979">
        <ele>427.60000610352</ele>
        <time>2019-10-07T07:52:00Z</time>
      </trkpt>
      <trkpt lat="46.17827" lon="6.23117">
        <ele>427.79998779297</ele>
        <time>2019-10-07T07:52:20Z</time>
      </trkpt>
      <trkpt lat="46.17839" lon="6.23268">
        <ele>428.39999389648</ele>
        <time>2019-10-07T07:52:41Z</time>
      </trkpt>
      <trkpt lat="46.17814" lon="6.23358">
        <ele>427.60000610352</ele>
        <time>2019-10-07T07:52:53Z</time>
      </trkpt>
      <trkpt lat="46.17793" lon="6.23388">
        <ele>427</ele>
        <time>2019-10-07T07:52:58Z</time>
      </trkpt>
      <trkpt lat="46.17746" lon="6.23428">
        <ele>426.39999389648</ele>
        <time>2019-10-07T07:53:06Z</time>
      </trkpt>
      <trkpt lat="46.17705" lon="6.23459">
        <ele>425.39999389648</ele>
        <time>2019-10-07T07:53:13Z</time>
      </trkpt>
      <trkpt lat="46.17686" lon="6.23474">
        <ele>425.20001220703</ele>
        <time>2019-10-07T07:53:17Z</time>
      </trkpt>
      <trkpt lat="46.17663" lon="6.23491">
        <ele>425.20001220703</ele>
        <time>2019-10-07T07:53:23Z</time>
      </trkpt>
      <trkpt lat="46.17644" lon="6.23506">
        <ele>425.20001220703</ele>
        <time>2019-10-07T07:53:27Z</time>
      </trkpt>
      <trkpt lat="46.17595" lon="6.23571">
        <ele>425.20001220703</ele>
        <time>2019-10-07T07:53:39Z</time>
      </trkpt>
      <trkpt lat="46.17547" lon="6.23614">
        <ele>424</ele>
        <time>2019-10-07T07:53:48Z</time>
      </trkpt>
      <trkpt lat="46.17502" lon="6.23657">
        <ele>425.20001220703</ele>
        <time>2019-10-07T07:54:01Z</time>
      </trkpt>
      <trkpt lat="46.17485" lon="6.23674">
        <ele>426.20001220703</ele>
        <time>2019-10-07T07:54:07Z</time>
      </trkpt>
      <trkpt lat="46.17469" lon="6.23694">
        <ele>428</ele>
        <time>2019-10-07T07:54:16Z</time>
      </trkpt>
      <trkpt lat="46.17462" lon="6.23706">
        <ele>428.79998779297</ele>
        <time>2019-10-07T07:54:20Z</time>
      </trkpt>
      <trkpt lat="46.17449" lon="6.23727">
        <ele>430.60000610352</ele>
        <time>2019-10-07T07:54:29Z</time>
      </trkpt>
      <trkpt lat="46.17437" lon="6.23748">
        <ele>433.20001220703</ele>
        <time>2019-10-07T07:54:40Z</time>
      </trkpt>
      <trkpt lat="46.17421" lon="6.23774">
        <ele>435.39999389648</ele>
        <time>2019-10-07T07:54:54Z</time>
      </trkpt>
      <trkpt lat="46.17413" lon="6.23786">
        <ele>436.60000610352</ele>
        <time>2019-10-07T07:55:00Z</time>
      </trkpt>
      <trkpt lat="46.17406" lon="6.23797">
        <ele>437.79998779297</ele>
        <time>2019-10-07T07:55:06Z</time>
      </trkpt>
      <trkpt lat="46.17373" lon="6.23824">
        <ele>439.79998779297</ele>
        <time>2019-10-07T07:55:17Z</time>
      </trkpt>
      <trkpt lat="46.17368" lon="6.23831">
        <ele>441.20001220703</ele>
        <time>2019-10-07T07:55:24Z</time>
      </trkpt>
      <trkpt lat="46.17361" lon="6.23839">
        <ele>444.20001220703</ele>
        <time>2019-10-07T07:55:40Z</time>
      </trkpt>
      <trkpt lat="46.17278" lon="6.23802">
        <ele>445</ele>
        <time>2019-10-07T07:55:47Z</time>
      </trkpt>
      <trkpt lat="46.1725" lon="6.23812">
        <ele>448.79998779297</ele>
        <time>2019-10-07T07:56:02Z</time>
      </trkpt>
      <trkpt lat="46.17236" lon="6.23818">
        <ele>450.20001220703</ele>
        <time>2019-10-07T07:56:10Z</time>
      </trkpt>
      <trkpt lat="46.17209" lon="6.23831">
        <ele>452.20001220703</ele>
        <time>2019-10-07T07:56:22Z</time>
      </trkpt>
      <trkpt lat="46.17202" lon="6.23834">
        <ele>453.20001220703</ele>
        <time>2019-10-07T07:56:27Z</time>
      </trkpt>
      <trkpt lat="46.17173" lon="6.23847">
        <ele>455.60000610352</ele>
        <time>2019-10-07T07:56:39Z</time>
      </trkpt>
      <trkpt lat="46.17153" lon="6.23857">
        <ele>458</ele>
        <time>2019-10-07T07:56:50Z</time>
      </trkpt>
      <trkpt lat="46.17133" lon="6.23866">
        <ele>460</ele>
        <time>2019-10-07T07:57:02Z</time>
      </trkpt>
      <trkpt lat="46.17121" lon="6.23869">
        <ele>461.20001220703</ele>
        <time>2019-10-07T07:57:07Z</time>
      </trkpt>
      <trkpt lat="46.17099" lon="6.23874">
        <ele>463.20001220703</ele>
        <time>2019-10-07T07:57:18Z</time>
      </trkpt>
      <trkpt lat="46.17075" lon="6.23874">
        <ele>465.79998779297</ele>
        <time>2019-10-07T07:57:30Z</time>
      </trkpt>
      <trkpt lat="46.17045" lon="6.23872">
        <ele>467.39999389648</ele>
        <time>2019-10-07T07:57:40Z</time>
      </trkpt>
      <trkpt lat="46.16992" lon="6.23869">
        <ele>468.20001220703</ele>
        <time>2019-10-07T07:57:54Z</time>
      </trkpt>
      <trkpt lat="46.16949" lon="6.23866">
        <ele>468.79998779297</ele>
        <time>2019-10-07T07:58:04Z</time>
      </trkpt>
      <trkpt lat="46.16888" lon="6.23864">
        <ele>470.20001220703</ele>
        <time>2019-10-07T07:58:20Z</time>
      </trkpt>
      <trkpt lat="46.16867" lon="6.23863">
        <ele>471.20001220703</ele>
        <time>2019-10-07T07:58:26Z</time>
      </trkpt>
      <trkpt lat="46.16836" lon="6.23862">
        <ele>473</ele>
        <time>2019-10-07T07:58:35Z</time>
      </trkpt>
      <trkpt lat="46.16794" lon="6.2386">
        <ele>476</ele>
        <time>2019-10-07T07:58:49Z</time>
      </trkpt>
      <trkpt lat="46.16753" lon="6.23858">
        <ele>477.60000610352</ele>
        <time>2019-10-07T07:59:02Z</time>
      </trkpt>
      <trkpt lat="46.16727" lon="6.23857">
        <ele>479</ele>
        <time>2019-10-07T07:59:10Z</time>
      </trkpt>
      <trkpt lat="46.16683" lon="6.23855">
        <ele>481.60000610352</ele>
        <time>2019-10-07T07:59:25Z</time>
      </trkpt>
      <trkpt lat="46.16661" lon="6.23853">
        <ele>482.60000610352</ele>
        <time>2019-10-07T07:59:33Z</time>
      </trkpt>
      <trkpt lat="46.16642" lon="6.23846">
        <ele>483.79998779297</ele>
        <time>2019-10-07T07:59:40Z</time>
      </trkpt>
      <trkpt lat="46.16622" lon="6.23837">
        <ele>485.20001220703</ele>
        <time>2019-10-07T07:59:49Z</time>
      </trkpt>
      <trkpt lat="46.16596" lon="6.23818">
        <ele>487.20001220703</ele>
        <time>2019-10-07T07:59:58Z</time>
      </trkpt>
      <trkpt lat="46.16559" lon="6.23787">
        <ele>489</ele>
        <time>2019-10-07T08:00:10Z</time>
      </trkpt>
      <trkpt lat="46.16539" lon="6.23768">
        <ele>490.20001220703</ele>
        <time>2019-10-07T08:00:17Z</time>
      </trkpt>
      <trkpt lat="46.16514" lon="6.23744">
        <ele>492.20001220703</ele>
        <time>2019-10-07T08:00:28Z</time>
      </trkpt>
      <trkpt lat="46.16495" lon="6.2373">
        <ele>493.60000610352</ele>
        <time>2019-10-07T08:00:35Z</time>
      </trkpt>
      <trkpt lat="46.16454" lon="6.23704">
        <ele>496</ele>
        <time>2019-10-07T08:00:49Z</time>
      </trkpt>
      <trkpt lat="46.16431" lon="6.23689">
        <ele>497.20001220703</ele>
        <time>2019-10-07T08:00:57Z</time>
      </trkpt>
      <trkpt lat="46.16394" lon="6.23671">
        <ele>498.60000610352</ele>
        <time>2019-10-07T08:01:09Z</time>
      </trkpt>
      <trkpt lat="46.16352" lon="6.23637">
        <ele>500.60000610352</ele>
        <time>2019-10-07T08:01:24Z</time>
      </trkpt>
      <trkpt lat="46.16317" lon="6.23593">
        <ele>502.60000610352</ele>
        <time>2019-10-07T08:01:38Z</time>
      </trkpt>
      <trkpt lat="46.16302" lon="6.2357">
        <ele>503.79998779297</ele>
        <time>2019-10-07T08:01:45Z</time>
      </trkpt>
      <trkpt lat="46.16296" lon="6.23553">
        <ele>505</ele>
        <time>2019-10-07T08:01:51Z</time>
      </trkpt>
      <trkpt lat="46.16286" lon="6.23523">
        <ele>506.60000610352</ele>
        <time>2019-10-07T08:01:58Z</time>
      </trkpt>
      <trkpt lat="46.16268" lon="6.23496">
        <ele>508</ele>
        <time>2019-10-07T08:02:05Z</time>
      </trkpt>
      <trkpt lat="46.1624" lon="6.2346">
        <ele>509.79998779297</ele>
        <time>2019-10-07T08:02:17Z</time>
      </trkpt>
      <trkpt lat="46.1622" lon="6.23426">
        <ele>511.39999389648</ele>
        <time>2019-10-07T08:02:26Z</time>
      </trkpt>
      <trkpt lat="46.16189" lon="6.23364">
        <ele>514.20001220703</ele>
        <time>2019-10-07T08:02:42Z</time>
      </trkpt>
      <trkpt lat="46.16176" lon="6.23336">
        <ele>515.20001220703</ele>
        <time>2019-10-07T08:02:49Z</time>
      </trkpt>
      <trkpt lat="46.1615" lon="6.23277">
        <ele>517.79998779297</ele>
        <time>2019-10-07T08:03:04Z</time>
      </trkpt>
      <trkpt lat="46.16148" lon="6.23241">
        <ele>519.20001220703</ele>
        <time>2019-10-07T08:03:11Z</time>
      </trkpt>
      <trkpt lat="46.16147" lon="6.23192">
        <ele>520.79998779297</ele>
        <time>2019-10-07T08:03:21Z</time>
      </trkpt>
      <trkpt lat="46.16156" lon="6.23163">
        <ele>521.79998779297</ele>
        <time>2019-10-07T08:03:29Z</time>
      </trkpt>
      <trkpt lat="46.16153" lon="6.23127">
        <ele>523.59997558594</ele>
        <time>2019-10-07T08:03:37Z</time>
      </trkpt>
      <trkpt lat="46.1614" lon="6.23084">
        <ele>525.79998779297</ele>
        <time>2019-10-07T08:03:49Z</time>
      </trkpt>
      <trkpt lat="46.16129" lon="6.23045">
        <ele>526.79998779297</ele>
        <time>2019-10-07T08:03:57Z</time>
      </trkpt>
      <trkpt lat="46.16127" lon="6.23011">
        <ele>527.79998779297</ele>
        <time>2019-10-07T08:04:03Z</time>
      </trkpt>
      <trkpt lat="46.16136" lon="6.22928">
        <ele>530.40002441406</ele>
        <time>2019-10-07T08:04:19Z</time>
      </trkpt>
      <trkpt lat="46.16128" lon="6.22872">
        <ele>532.79998779297</ele>
        <time>2019-10-07T08:04:36Z</time>
      </trkpt>
      <trkpt lat="46.1612" lon="6.22845">
        <ele>533.59997558594</ele>
        <time>2019-10-07T08:04:42Z</time>
      </trkpt>
      <trkpt lat="46.16105" lon="6.228">
        <ele>535.20001220703</ele>
        <time>2019-10-07T08:04:53Z</time>
      </trkpt>
      <trkpt lat="46.16091" lon="6.22778">
        <ele>536</ele>
        <time>2019-10-07T08:05:00Z</time>
      </trkpt>
      <trkpt lat="46.16083" lon="6.22725">
        <ele>538.40002441406</ele>
        <time>2019-10-07T08:05:17Z</time>
      </trkpt>
      <trkpt lat="46.16104" lon="6.22737">
        <ele>539.79998779297</ele>
        <time>2019-10-07T08:05:23Z</time>
      </trkpt>
      <trkpt lat="46.16126" lon="6.22756">
        <ele>541.40002441406</ele>
        <time>2019-10-07T08:05:32Z</time>
      </trkpt>
      <trkpt lat="46.16143" lon="6.22783">
        <ele>542.79998779297</ele>
        <time>2019-10-07T08:05:40Z</time>
      </trkpt>
      <trkpt lat="46.16165" lon="6.22801">
        <ele>544.59997558594</ele>
        <time>2019-10-07T08:05:50Z</time>
      </trkpt>
      <trkpt lat="46.16179" lon="6.22812">
        <ele>545.79998779297</ele>
        <time>2019-10-07T08:05:59Z</time>
      </trkpt>
      <trkpt lat="46.16234" lon="6.22794">
        <ele>547.79998779297</ele>
        <time>2019-10-07T08:06:13Z</time>
      </trkpt>
      <trkpt lat="46.1626" lon="6.22813">
        <ele>549.59997558594</ele>
        <time>2019-10-07T08:06:22Z</time>
      </trkpt>
      <trkpt lat="46.16287" lon="6.22835">
        <ele>551.59997558594</ele>
        <time>2019-10-07T08:06:32Z</time>
      </trkpt>
      <trkpt lat="46.16306" lon="6.22853">
        <ele>553.40002441406</ele>
        <time>2019-10-07T08:06:40Z</time>
      </trkpt>
      <trkpt lat="46.16322" lon="6.22872">
        <ele>554.40002441406</ele>
        <time>2019-10-07T08:06:47Z</time>
      </trkpt>
      <trkpt lat="46.16335" lon="6.22882">
        <ele>555.59997558594</ele>
        <time>2019-10-07T08:06:53Z</time>
      </trkpt>
      <trkpt lat="46.16338" lon="6.22854">
        <ele>556.79998779297</ele>
        <time>2019-10-07T08:07:01Z</time>
      </trkpt>
      <trkpt lat="46.1633" lon="6.22832">
        <ele>558.59997558594</ele>
        <time>2019-10-07T08:07:10Z</time>
      </trkpt>
      <trkpt lat="46.16323" lon="6.22804">
        <ele>559.79998779297</ele>
        <time>2019-10-07T08:07:18Z</time>
      </trkpt>
      <trkpt lat="46.1632" lon="6.2279">
        <ele>561</ele>
        <time>2019-10-07T08:07:24Z</time>
      </trkpt>
      <trkpt lat="46.16314" lon="6.22771">
        <ele>562.40002441406</ele>
        <time>2019-10-07T08:07:30Z</time>
      </trkpt>
      <trkpt lat="46.16302" lon="6.22741">
        <ele>564.40002441406</ele>
        <time>2019-10-07T08:07:41Z</time>
      </trkpt>
      <trkpt lat="46.16289" lon="6.2272">
        <ele>566</ele>
        <time>2019-10-07T08:07:49Z</time>
      </trkpt>
      <trkpt lat="46.16265" lon="6.22687">
        <ele>568.40002441406</ele>
        <time>2019-10-07T08:08:03Z</time>
      </trkpt>
      <trkpt lat="46.16247" lon="6.22665">
        <ele>570.20001220703</ele>
        <time>2019-10-07T08:08:13Z</time>
      </trkpt>
      <trkpt lat="46.16232" lon="6.22655">
        <ele>571.40002441406</ele>
        <time>2019-10-07T08:08:19Z</time>
      </trkpt>
      <trkpt lat="46.162" lon="6.22637">
        <ele>574.20001220703</ele>
        <time>2019-10-07T08:08:34Z</time>
      </trkpt>
      <trkpt lat="46.16189" lon="6.22624">
        <ele>575.79998779297</ele>
        <time>2019-10-07T08:08:40Z</time>
      </trkpt>
      <trkpt lat="46.16173" lon="6.22606">
        <ele>578.20001220703</ele>
        <time>2019-10-07T08:08:49Z</time>
      </trkpt>
      <trkpt lat="46.1616" lon="6.22593">
        <ele>579.59997558594</ele>
        <time>2019-10-07T08:08:57Z</time>
      </trkpt>
      <trkpt lat="46.16135" lon="6.2258">
        <ele>582</ele>
        <time>2019-10-07T08:09:09Z</time>
      </trkpt>
      <trkpt lat="46.1611" lon="6.22566">
        <ele>583.79998779297</ele>
        <time>2019-10-07T08:09:20Z</time>
      </trkpt>
      <trkpt lat="46.1609" lon="6.22545">
        <ele>585.59997558594</ele>
        <time>2019-10-07T08:09:31Z</time>
      </trkpt>
      <trkpt lat="46.1608" lon="6.22528">
        <ele>587</ele>
        <time>2019-10-07T08:09:38Z</time>
      </trkpt>
      <trkpt lat="46.16061" lon="6.22498">
        <ele>590.20001220703</ele>
        <time>2019-10-07T08:09:51Z</time>
      </trkpt>
      <trkpt lat="46.16047" lon="6.22477">
        <ele>592</ele>
        <time>2019-10-07T08:09:59Z</time>
      </trkpt>
      <trkpt lat="46.16022" lon="6.22456">
        <ele>594</ele>
        <time>2019-10-07T08:10:11Z</time>
      </trkpt>
      <trkpt lat="46.16007" lon="6.22445">
        <ele>595.20001220703</ele>
        <time>2019-10-07T08:10:17Z</time>
      </trkpt>
      <trkpt lat="46.15992" lon="6.22431">
        <ele>596.59997558594</ele>
        <time>2019-10-07T08:10:25Z</time>
      </trkpt>
      <trkpt lat="46.15971" lon="6.22404">
        <ele>599.40002441406</ele>
        <time>2019-10-07T08:10:36Z</time>
      </trkpt>
      <trkpt lat="46.15954" lon="6.22384">
        <ele>601.40002441406</ele>
        <time>2019-10-07T08:10:44Z</time>
      </trkpt>
      <trkpt lat="46.15936" lon="6.22365">
        <ele>603.20001220703</ele>
        <time>2019-10-07T08:10:53Z</time>
      </trkpt>
      <trkpt lat="46.1592" lon="6.22353">
        <ele>605</ele>
        <time>2019-10-07T08:11:00Z</time>
      </trkpt>
      <trkpt lat="46.15901" lon="6.22332">
        <ele>607</ele>
        <time>2019-10-07T08:11:10Z</time>
      </trkpt>
      <trkpt lat="46.15887" lon="6.22308">
        <ele>609</ele>
        <time>2019-10-07T08:11:19Z</time>
      </trkpt>
      <trkpt lat="46.15856" lon="6.22295">
        <ele>611.59997558594</ele>
        <time>2019-10-07T08:11:31Z</time>
      </trkpt>
      <trkpt lat="46.15829" lon="6.22293">
        <ele>612.59997558594</ele>
        <time>2019-10-07T08:11:40Z</time>
      </trkpt>
      <trkpt lat="46.15807" lon="6.22288">
        <ele>614.40002441406</ele>
        <time>2019-10-07T08:11:48Z</time>
      </trkpt>
      <trkpt lat="46.15794" lon="6.22278">
        <ele>615.59997558594</ele>
        <time>2019-10-07T08:11:55Z</time>
      </trkpt>
      <trkpt lat="46.15794" lon="6.22259">
        <ele>616.59997558594</ele>
        <time>2019-10-07T08:12:00Z</time>
      </trkpt>
      <trkpt lat="46.15799" lon="6.22252">
        <ele>617.79998779297</ele>
        <time>2019-10-07T08:12:04Z</time>
      </trkpt>
      <trkpt lat="46.1582" lon="6.22254">
        <ele>620.40002441406</ele>
        <time>2019-10-07T08:12:14Z</time>
      </trkpt>
      <trkpt lat="46.15854" lon="6.22249">
        <ele>623</ele>
        <time>2019-10-07T08:12:27Z</time>
      </trkpt>
      <trkpt lat="46.15862" lon="6.22234">
        <ele>623.79998779297</ele>
        <time>2019-10-07T08:12:32Z</time>
      </trkpt>
      <trkpt lat="46.1586" lon="6.22203">
        <ele>625.79998779297</ele>
        <time>2019-10-07T08:12:42Z</time>
      </trkpt>
      <trkpt lat="46.15856" lon="6.22194">
        <ele>627.40002441406</ele>
        <time>2019-10-07T08:12:47Z</time>
      </trkpt>
      <trkpt lat="46.15845" lon="6.22169">
        <ele>629.59997558594</ele>
        <time>2019-10-07T08:12:57Z</time>
      </trkpt>
      <trkpt lat="46.15831" lon="6.2214">
        <ele>631.20001220703</ele>
        <time>2019-10-07T08:13:06Z</time>
      </trkpt>
      <trkpt lat="46.15818" lon="6.22109">
        <ele>632.59997558594</ele>
        <time>2019-10-07T08:13:15Z</time>
      </trkpt>
      <trkpt lat="46.15806" lon="6.2208">
        <ele>633.40002441406</ele>
        <time>2019-10-07T08:13:23Z</time>
      </trkpt>
      <trkpt lat="46.15787" lon="6.2203">
        <ele>635.40002441406</ele>
        <time>2019-10-07T08:13:36Z</time>
      </trkpt>
      <trkpt lat="46.15772" lon="6.21993">
        <ele>636.59997558594</ele>
        <time>2019-10-07T08:13:46Z</time>
      </trkpt>
      <trkpt lat="46.15758" lon="6.21924">
        <ele>638.79998779297</ele>
        <time>2019-10-07T08:13:59Z</time>
      </trkpt>
      <trkpt lat="46.1576" lon="6.21896">
        <ele>640</ele>
        <time>2019-10-07T08:14:05Z</time>
      </trkpt>
      <trkpt lat="46.1577" lon="6.21852">
        <ele>642.79998779297</ele>
        <time>2019-10-07T08:14:16Z</time>
      </trkpt>
      <trkpt lat="46.1578" lon="6.21823">
        <ele>643.79998779297</ele>
        <time>2019-10-07T08:14:24Z</time>
      </trkpt>
      <trkpt lat="46.1579" lon="6.21796">
        <ele>645.20001220703</ele>
        <time>2019-10-07T08:14:31Z</time>
      </trkpt>
      <trkpt lat="46.15807" lon="6.21749">
        <ele>647.79998779297</ele>
        <time>2019-10-07T08:14:44Z</time>
      </trkpt>
      <trkpt lat="46.15819" lon="6.217">
        <ele>650</ele>
        <time>2019-10-07T08:14:57Z</time>
      </trkpt>
      <trkpt lat="46.15827" lon="6.21663">
        <ele>651.59997558594</ele>
        <time>2019-10-07T08:15:07Z</time>
      </trkpt>
      <trkpt lat="46.15834" lon="6.21628">
        <ele>653.20001220703</ele>
        <time>2019-10-07T08:15:16Z</time>
      </trkpt>
      <trkpt lat="46.15842" lon="6.21587">
        <ele>655</ele>
        <time>2019-10-07T08:15:27Z</time>
      </trkpt>
      <trkpt lat="46.15851" lon="6.21551">
        <ele>657.59997558594</ele>
        <time>2019-10-07T08:15:37Z</time>
      </trkpt>
      <trkpt lat="46.15865" lon="6.21506">
        <ele>659.20001220703</ele>
        <time>2019-10-07T08:15:48Z</time>
      </trkpt>
      <trkpt lat="46.15882" lon="6.21462">
        <ele>661.20001220703</ele>
        <time>2019-10-07T08:15:59Z</time>
      </trkpt>
      <trkpt lat="46.15894" lon="6.21418">
        <ele>662.59997558594</ele>
        <time>2019-10-07T08:16:10Z</time>
      </trkpt>
      <trkpt lat="46.15881" lon="6.21387">
        <ele>663.59997558594</ele>
        <time>2019-10-07T08:16:19Z</time>
      </trkpt>
      <trkpt lat="46.15872" lon="6.21303">
        <ele>664.40002441406</ele>
        <time>2019-10-07T08:16:35Z</time>
      </trkpt>
      <trkpt lat="46.1587" lon="6.21276">
        <ele>665.20001220703</ele>
        <time>2019-10-07T08:16:41Z</time>
      </trkpt>
      <trkpt lat="46.15883" lon="6.21222">
        <ele>667.20001220703</ele>
        <time>2019-10-07T08:16:53Z</time>
      </trkpt>
      <trkpt lat="46.15894" lon="6.21187">
        <ele>668</ele>
        <time>2019-10-07T08:17:05Z</time>
      </trkpt>
      <trkpt lat="46.15897" lon="6.21178">
        <ele>668</ele>
        <time>2019-10-07T08:17:11Z</time>
      </trkpt>
      <trkpt lat="46.15902" lon="6.21164">
        <ele>667.79998779297</ele>
        <time>2019-10-07T08:17:19Z</time>
      </trkpt>
      <trkpt lat="46.15904" lon="6.21157">
        <ele>667.79998779297</ele>
        <time>2019-10-07T08:17:28Z</time>
      </trkpt>
      <trkpt lat="46.15911" lon="6.21153">
        <ele>667.40002441406</ele>
        <time>2019-10-07T08:17:36Z</time>
      </trkpt>
      <trkpt lat="46.15905" lon="6.21154">
        <ele>667.59997558594</ele>
        <time>2019-10-07T08:17:40Z</time>
      </trkpt>
      <trkpt lat="46.15905" lon="6.21154">
        <ele>667.59997558594</ele>
        <time>2019-10-07T08:17:52Z</time>
      </trkpt>
      <trkpt lat="46.15899" lon="6.21171">
        <ele>667.40002441406</ele>
        <time>2019-10-07T08:18:04Z</time>
      </trkpt>
      <trkpt lat="46.15895" lon="6.21185">
        <ele>667.20001220703</ele>
        <time>2019-10-07T08:18:24Z</time>
      </trkpt>
      <trkpt lat="46.15892" lon="6.21194">
        <ele>667.40002441406</ele>
        <time>2019-10-07T08:18:30Z</time>
      </trkpt>
      <trkpt lat="46.15885" lon="6.21214">
        <ele>667.40002441406</ele>
        <time>2019-10-07T08:18:37Z</time>
      </trkpt>
      <trkpt lat="46.15872" lon="6.21254">
        <ele>667.59997558594</ele>
        <time>2019-10-07T08:18:47Z</time>
      </trkpt>
      <trkpt lat="46.15864" lon="6.21232">
        <ele>667.79998779297</ele>
        <time>2019-10-07T08:18:54Z</time>
      </trkpt>
      <trkpt lat="46.15863" lon="6.21218">
        <ele>667.79998779297</ele>
        <time>2019-10-07T08:18:57Z</time>
      </trkpt>
      <trkpt lat="46.15858" lon="6.21182">
        <ele>669.20001220703</ele>
        <time>2019-10-07T08:19:06Z</time>
      </trkpt>
      <trkpt lat="46.15857" lon="6.21164">
        <ele>670.40002441406</ele>
        <time>2019-10-07T08:19:12Z</time>
      </trkpt>
      <trkpt lat="46.15855" lon="6.21145">
        <ele>671.79998779297</ele>
        <time>2019-10-07T08:19:18Z</time>
      </trkpt>
      <trkpt lat="46.15853" lon="6.21108">
        <ele>673.59997558594</ele>
        <time>2019-10-07T08:19:30Z</time>
      </trkpt>
      <trkpt lat="46.15852" lon="6.21084">
        <ele>674.79998779297</ele>
        <time>2019-10-07T08:19:38Z</time>
      </trkpt>
      <trkpt lat="46.1586" lon="6.21045">
        <ele>677.20001220703</ele>
        <time>2019-10-07T08:19:51Z</time>
      </trkpt>
      <trkpt lat="46.15865" lon="6.21022">
        <ele>678.40002441406</ele>
        <time>2019-10-07T08:19:59Z</time>
      </trkpt>
      <trkpt lat="46.15878" lon="6.20972">
        <ele>680.59997558594</ele>
        <time>2019-10-07T08:20:15Z</time>
      </trkpt>
      <trkpt lat="46.15887" lon="6.20943">
        <ele>681.59997558594</ele>
        <time>2019-10-07T08:20:24Z</time>
      </trkpt>
      <trkpt lat="46.15898" lon="6.20906">
        <ele>683.40002441406</ele>
        <time>2019-10-07T08:20:35Z</time>
      </trkpt>
      <trkpt lat="46.15906" lon="6.20879">
        <ele>684.79998779297</ele>
        <time>2019-10-07T08:20:43Z</time>
      </trkpt>
      <trkpt lat="46.15916" lon="6.20843">
        <ele>687</ele>
        <time>2019-10-07T08:20:54Z</time>
      </trkpt>
      <trkpt lat="46.15925" lon="6.20812">
        <ele>688.59997558594</ele>
        <time>2019-10-07T08:21:03Z</time>
      </trkpt>
      <trkpt lat="46.15939" lon="6.20765">
        <ele>690.40002441406</ele>
        <time>2019-10-07T08:21:15Z</time>
      </trkpt>
      <trkpt lat="46.15962" lon="6.20697">
        <ele>691.79998779297</ele>
        <time>2019-10-07T08:21:30Z</time>
      </trkpt>
      <trkpt lat="46.15977" lon="6.20662">
        <ele>691.79998779297</ele>
        <time>2019-10-07T08:21:38Z</time>
      </trkpt>
      <trkpt lat="46.16" lon="6.20629">
        <ele>691.79998779297</ele>
        <time>2019-10-07T08:21:45Z</time>
      </trkpt>
      <trkpt lat="46.1602" lon="6.20599">
        <ele>691.59997558594</ele>
        <time>2019-10-07T08:21:52Z</time>
      </trkpt>
      <trkpt lat="46.16025" lon="6.20569">
        <ele>691.59997558594</ele>
        <time>2019-10-07T08:21:57Z</time>
      </trkpt>
      <trkpt lat="46.16023" lon="6.20541">
        <ele>691.59997558594</ele>
        <time>2019-10-07T08:22:03Z</time>
      </trkpt>
      <trkpt lat="46.16021" lon="6.20523">
        <ele>693</ele>
        <time>2019-10-07T08:28:39Z</time>
      </trkpt>
      <trkpt lat="46.16021" lon="6.20518">
        <ele>693.20001220703</ele>
        <time>2019-10-07T08:28:44Z</time>
      </trkpt>
      <trkpt lat="46.16019" lon="6.20479">
        <ele>694.79998779297</ele>
        <time>2019-10-07T08:28:57Z</time>
      </trkpt>
      <trkpt lat="46.16019" lon="6.20458">
        <ele>696</ele>
        <time>2019-10-07T08:29:03Z</time>
      </trkpt>
      <trkpt lat="46.16027" lon="6.20436">
        <ele>697.40002441406</ele>
        <time>2019-10-07T08:29:10Z</time>
      </trkpt>
      <trkpt lat="46.16032" lon="6.20421">
        <ele>698.20001220703</ele>
        <time>2019-10-07T08:29:16Z</time>
      </trkpt>
      <trkpt lat="46.16037" lon="6.20406">
        <ele>699.20001220703</ele>
        <time>2019-10-07T08:29:22Z</time>
      </trkpt>
      <trkpt lat="46.16043" lon="6.20382">
        <ele>701</ele>
        <time>2019-10-07T08:29:30Z</time>
      </trkpt>
      <trkpt lat="46.16033" lon="6.2036">
        <ele>702.79998779297</ele>
        <time>2019-10-07T08:29:40Z</time>
      </trkpt>
      <trkpt lat="46.16009" lon="6.20378">
        <ele>704.20001220703</ele>
        <time>2019-10-07T08:29:54Z</time>
      </trkpt>
      <trkpt lat="46.16001" lon="6.20398">
        <ele>705.40002441406</ele>
        <time>2019-10-07T08:30:01Z</time>
      </trkpt>
      <trkpt lat="46.15991" lon="6.20425">
        <ele>707.20001220703</ele>
        <time>2019-10-07T08:30:13Z</time>
      </trkpt>
      <trkpt lat="46.15984" lon="6.2044">
        <ele>708.40002441406</ele>
        <time>2019-10-07T08:30:20Z</time>
      </trkpt>
      <trkpt lat="46.15969" lon="6.20472">
        <ele>710.40002441406</ele>
        <time>2019-10-07T08:30:32Z</time>
      </trkpt>
      <trkpt lat="46.15963" lon="6.20485">
        <ele>711.40002441406</ele>
        <time>2019-10-07T08:30:38Z</time>
      </trkpt>
      <trkpt lat="46.15946" lon="6.20507">
        <ele>713.59997558594</ele>
        <time>2019-10-07T08:30:49Z</time>
      </trkpt>
      <trkpt lat="46.15934" lon="6.20523">
        <ele>715.20001220703</ele>
        <time>2019-10-07T08:30:58Z</time>
      </trkpt>
      <trkpt lat="46.15917" lon="6.20551">
        <ele>717.20001220703</ele>
        <time>2019-10-07T08:31:10Z</time>
      </trkpt>
      <trkpt lat="46.15905" lon="6.2057">
        <ele>718.59997558594</ele>
        <time>2019-10-07T08:31:19Z</time>
      </trkpt>
      <trkpt lat="46.15887" lon="6.20591">
        <ele>719.79998779297</ele>
        <time>2019-10-07T08:31:29Z</time>
      </trkpt>
      <trkpt lat="46.15876" lon="6.20599">
        <ele>721.59997558594</ele>
        <time>2019-10-07T08:31:37Z</time>
      </trkpt>
      <trkpt lat="46.15863" lon="6.20608">
        <ele>723</ele>
        <time>2019-10-07T08:31:44Z</time>
      </trkpt>
      <trkpt lat="46.15849" lon="6.20629">
        <ele>725.79998779297</ele>
        <time>2019-10-07T08:31:56Z</time>
      </trkpt>
      <trkpt lat="46.15842" lon="6.2064">
        <ele>727.40002441406</ele>
        <time>2019-10-07T08:32:03Z</time>
      </trkpt>
      <trkpt lat="46.15832" lon="6.20652">
        <ele>729.40002441406</ele>
        <time>2019-10-07T08:32:13Z</time>
      </trkpt>
      <trkpt lat="46.15822" lon="6.2066">
        <ele>730.79998779297</ele>
        <time>2019-10-07T08:32:20Z</time>
      </trkpt>
      <trkpt lat="46.15808" lon="6.20674">
        <ele>733</ele>
        <time>2019-10-07T08:32:31Z</time>
      </trkpt>
      <trkpt lat="46.158" lon="6.20682">
        <ele>734.79998779297</ele>
        <time>2019-10-07T08:32:38Z</time>
      </trkpt>
      <trkpt lat="46.15788" lon="6.20696">
        <ele>736.79998779297</ele>
        <time>2019-10-07T08:32:49Z</time>
      </trkpt>
      <trkpt lat="46.15778" lon="6.2071">
        <ele>738.59997558594</ele>
        <time>2019-10-07T08:32:59Z</time>
      </trkpt>
      <trkpt lat="46.15767" lon="6.20725">
        <ele>740.40002441406</ele>
        <time>2019-10-07T08:33:09Z</time>
      </trkpt>
      <trkpt lat="46.15762" lon="6.20731">
        <ele>741.20001220703</ele>
        <time>2019-10-07T08:33:13Z</time>
      </trkpt>
      <trkpt lat="46.15752" lon="6.20744">
        <ele>744.20001220703</ele>
        <time>2019-10-07T08:33:25Z</time>
      </trkpt>
      <trkpt lat="46.15744" lon="6.20755">
        <ele>745.20001220703</ele>
        <time>2019-10-07T08:33:31Z</time>
      </trkpt>
      <trkpt lat="46.15731" lon="6.20772">
        <ele>747</ele>
        <time>2019-10-07T08:33:41Z</time>
      </trkpt>
      <trkpt lat="46.15722" lon="6.20785">
        <ele>749.20001220703</ele>
        <time>2019-10-07T08:33:51Z</time>
      </trkpt>
      <trkpt lat="46.15712" lon="6.20802">
        <ele>751.20001220703</ele>
        <time>2019-10-07T08:34:01Z</time>
      </trkpt>
      <trkpt lat="46.157" lon="6.20822">
        <ele>753.59997558594</ele>
        <time>2019-10-07T08:34:12Z</time>
      </trkpt>
      <trkpt lat="46.15695" lon="6.20831">
        <ele>754.59997558594</ele>
        <time>2019-10-07T08:34:16Z</time>
      </trkpt>
      <trkpt lat="46.1568" lon="6.20857">
        <ele>757</ele>
        <time>2019-10-07T08:34:28Z</time>
      </trkpt>
      <trkpt lat="46.15673" lon="6.20869">
        <ele>758.59997558594</ele>
        <time>2019-10-07T08:34:35Z</time>
      </trkpt>
      <trkpt lat="46.15663" lon="6.20885">
        <ele>760.79998779297</ele>
        <time>2019-10-07T08:34:45Z</time>
      </trkpt>
      <trkpt lat="46.15655" lon="6.209">
        <ele>762</ele>
        <time>2019-10-07T08:34:52Z</time>
      </trkpt>
      <trkpt lat="46.15646" lon="6.20921">
        <ele>764</ele>
        <time>2019-10-07T08:35:02Z</time>
      </trkpt>
      <trkpt lat="46.15637" lon="6.20942">
        <ele>766</ele>
        <time>2019-10-07T08:35:12Z</time>
      </trkpt>
      <trkpt lat="46.15627" lon="6.20965">
        <ele>767.79998779297</ele>
        <time>2019-10-07T08:35:22Z</time>
      </trkpt>
      <trkpt lat="46.15619" lon="6.20978">
        <ele>769.20001220703</ele>
        <time>2019-10-07T08:35:29Z</time>
      </trkpt>
      <trkpt lat="46.15612" lon="6.20989">
        <ele>770.40002441406</ele>
        <time>2019-10-07T08:35:34Z</time>
      </trkpt>
      <trkpt lat="46.15601" lon="6.20978">
        <ele>771.40002441406</ele>
        <time>2019-10-07T08:35:39Z</time>
      </trkpt>
      <trkpt lat="46.15602" lon="6.20974">
        <ele>772.40002441406</ele>
        <time>2019-10-07T08:35:44Z</time>
      </trkpt>
      <trkpt lat="46.15612" lon="6.20948">
        <ele>775.20001220703</ele>
        <time>2019-10-07T08:35:57Z</time>
      </trkpt>
      <trkpt lat="46.1562" lon="6.20929">
        <ele>777.20001220703</ele>
        <time>2019-10-07T08:36:06Z</time>
      </trkpt>
      <trkpt lat="46.15628" lon="6.20908">
        <ele>779.40002441406</ele>
        <time>2019-10-07T08:36:18Z</time>
      </trkpt>
      <trkpt lat="46.15633" lon="6.20895">
        <ele>780.40002441406</ele>
        <time>2019-10-07T08:36:24Z</time>
      </trkpt>
      <trkpt lat="46.15639" lon="6.20879">
        <ele>782.40002441406</ele>
        <time>2019-10-07T08:36:33Z</time>
      </trkpt>
      <trkpt lat="46.15645" lon="6.20864">
        <ele>784</ele>
        <time>2019-10-07T08:36:41Z</time>
      </trkpt>
      <trkpt lat="46.15652" lon="6.20838">
        <ele>786.40002441406</ele>
        <time>2019-10-07T08:36:52Z</time>
      </trkpt>
      <trkpt lat="46.15657" lon="6.20819">
        <ele>788</ele>
        <time>2019-10-07T08:37:00Z</time>
      </trkpt>
      <trkpt lat="46.15662" lon="6.20797">
        <ele>790.20001220703</ele>
        <time>2019-10-07T08:37:10Z</time>
      </trkpt>
      <trkpt lat="46.15665" lon="6.20779">
        <ele>792</ele>
        <time>2019-10-07T08:37:18Z</time>
      </trkpt>
      <trkpt lat="46.15667" lon="6.20767">
        <ele>793</ele>
        <time>2019-10-07T08:37:23Z</time>
      </trkpt>
      <trkpt lat="46.15671" lon="6.20745">
        <ele>794.59997558594</ele>
        <time>2019-10-07T08:37:33Z</time>
      </trkpt>
      <trkpt lat="46.15674" lon="6.20726">
        <ele>796.79998779297</ele>
        <time>2019-10-07T08:37:42Z</time>
      </trkpt>
      <trkpt lat="46.15679" lon="6.20698">
        <ele>800</ele>
        <time>2019-10-07T08:37:55Z</time>
      </trkpt>
      <trkpt lat="46.15681" lon="6.20688">
        <ele>800.79998779297</ele>
        <time>2019-10-07T08:38:00Z</time>
      </trkpt>
      <trkpt lat="46.15685" lon="6.20662">
        <ele>803.20001220703</ele>
        <time>2019-10-07T08:38:12Z</time>
      </trkpt>
      <trkpt lat="46.15688" lon="6.20646">
        <ele>804.20001220703</ele>
        <time>2019-10-07T08:38:18Z</time>
      </trkpt>
      <trkpt lat="46.15691" lon="6.20627">
        <ele>806</ele>
        <time>2019-10-07T08:38:28Z</time>
      </trkpt>
      <trkpt lat="46.15694" lon="6.20608">
        <ele>808</ele>
        <time>2019-10-07T08:38:37Z</time>
      </trkpt>
      <trkpt lat="46.15699" lon="6.20575">
        <ele>811.20001220703</ele>
        <time>2019-10-07T08:38:53Z</time>
      </trkpt>
      <trkpt lat="46.15702" lon="6.20561">
        <ele>812.59997558594</ele>
        <time>2019-10-07T08:38:59Z</time>
      </trkpt>
      <trkpt lat="46.15706" lon="6.20533">
        <ele>815</ele>
        <time>2019-10-07T08:39:11Z</time>
      </trkpt>
      <trkpt lat="46.15708" lon="6.20521">
        <ele>816</ele>
        <time>2019-10-07T08:39:17Z</time>
      </trkpt>
      <trkpt lat="46.15713" lon="6.20494">
        <ele>818</ele>
        <time>2019-10-07T08:39:27Z</time>
      </trkpt>
      <trkpt lat="46.15714" lon="6.20486">
        <ele>819</ele>
        <time>2019-10-07T08:39:31Z</time>
      </trkpt>
      <trkpt lat="46.1572" lon="6.20476">
        <ele>820.40002441406</ele>
        <time>2019-10-07T08:39:38Z</time>
      </trkpt>
      <trkpt lat="46.15731" lon="6.20456">
        <ele>823.20001220703</ele>
        <time>2019-10-07T08:39:48Z</time>
      </trkpt>
      <trkpt lat="46.15737" lon="6.2044">
        <ele>825</ele>
        <time>2019-10-07T08:39:56Z</time>
      </trkpt>
      <trkpt lat="46.15744" lon="6.20415">
        <ele>826.59997558594</ele>
        <time>2019-10-07T08:40:06Z</time>
      </trkpt>
      <trkpt lat="46.15751" lon="6.20387">
        <ele>828.59997558594</ele>
        <time>2019-10-07T08:40:17Z</time>
      </trkpt>
      <trkpt lat="46.15757" lon="6.20364">
        <ele>830.20001220703</ele>
        <time>2019-10-07T08:40:27Z</time>
      </trkpt>
      <trkpt lat="46.15762" lon="6.20345">
        <ele>832.20001220703</ele>
        <time>2019-10-07T08:40:36Z</time>
      </trkpt>
      <trkpt lat="46.1577" lon="6.20315">
        <ele>834.79998779297</ele>
        <time>2019-10-07T08:40:49Z</time>
      </trkpt>
      <trkpt lat="46.15775" lon="6.20296">
        <ele>836.20001220703</ele>
        <time>2019-10-07T08:40:57Z</time>
      </trkpt>
      <trkpt lat="46.15782" lon="6.20267">
        <ele>839</ele>
        <time>2019-10-07T08:41:11Z</time>
      </trkpt>
      <trkpt lat="46.15785" lon="6.20251">
        <ele>840.40002441406</ele>
        <time>2019-10-07T08:41:18Z</time>
      </trkpt>
      <trkpt lat="46.15788" lon="6.20228">
        <ele>842.20001220703</ele>
        <time>2019-10-07T08:41:28Z</time>
      </trkpt>
      <trkpt lat="46.15791" lon="6.20207">
        <ele>844.59997558594</ele>
        <time>2019-10-07T08:41:39Z</time>
      </trkpt>
      <trkpt lat="46.15798" lon="6.20191">
        <ele>845.59997558594</ele>
        <time>2019-10-07T08:41:46Z</time>
      </trkpt>
      <trkpt lat="46.15811" lon="6.20161">
        <ele>848.40002441406</ele>
        <time>2019-10-07T08:41:59Z</time>
      </trkpt>
      <trkpt lat="46.15817" lon="6.20145">
        <ele>849.20001220703</ele>
        <time>2019-10-07T08:42:05Z</time>
      </trkpt>
      <trkpt lat="46.15828" lon="6.2012">
        <ele>851.59997558594</ele>
        <time>2019-10-07T08:42:18Z</time>
      </trkpt>
      <trkpt lat="46.15837" lon="6.201">
        <ele>853.40002441406</ele>
        <time>2019-10-07T08:42:26Z</time>
      </trkpt>
      <trkpt lat="46.15847" lon="6.20071">
        <ele>855.59997558594</ele>
        <time>2019-10-07T08:42:38Z</time>
      </trkpt>
      <trkpt lat="46.15851" lon="6.20056">
        <ele>856.79998779297</ele>
        <time>2019-10-07T08:42:44Z</time>
      </trkpt>
      <trkpt lat="46.15854" lon="6.20027">
        <ele>858.79998779297</ele>
        <time>2019-10-07T08:42:57Z</time>
      </trkpt>
      <trkpt lat="46.15855" lon="6.20016">
        <ele>859.79998779297</ele>
        <time>2019-10-07T08:43:02Z</time>
      </trkpt>
      <trkpt lat="46.15872" lon="6.19993">
        <ele>862.20001220703</ele>
        <time>2019-10-07T08:43:13Z</time>
      </trkpt>
      <trkpt lat="46.15878" lon="6.19987">
        <ele>863.20001220703</ele>
        <time>2019-10-07T08:43:18Z</time>
      </trkpt>
      <trkpt lat="46.15904" lon="6.19957">
        <ele>865.59997558594</ele>
        <time>2019-10-07T08:43:33Z</time>
      </trkpt>
      <trkpt lat="46.15922" lon="6.19934">
        <ele>866.20001220703</ele>
        <time>2019-10-07T08:43:42Z</time>
      </trkpt>
      <trkpt lat="46.15931" lon="6.19922">
        <ele>866.40002441406</ele>
        <time>2019-10-07T08:43:47Z</time>
      </trkpt>
      <trkpt lat="46.1595" lon="6.19894">
        <ele>867.79998779297</ele>
        <time>2019-10-07T08:43:58Z</time>
      </trkpt>
      <trkpt lat="46.1596" lon="6.19878">
        <ele>869.59997558594</ele>
        <time>2019-10-07T08:44:05Z</time>
      </trkpt>
      <trkpt lat="46.15984" lon="6.19862">
        <ele>872.40002441406</ele>
        <time>2019-10-07T08:44:17Z</time>
      </trkpt>
      <trkpt lat="46.15996" lon="6.19855">
        <ele>873.59997558594</ele>
        <time>2019-10-07T08:44:24Z</time>
      </trkpt>
      <trkpt lat="46.16019" lon="6.19827">
        <ele>875.79998779297</ele>
        <time>2019-10-07T08:44:38Z</time>
      </trkpt>
      <trkpt lat="46.16009" lon="6.19821">
        <ele>877.40002441406</ele>
        <time>2019-10-07T08:44:47Z</time>
      </trkpt>
      <trkpt lat="46.15986" lon="6.19828">
        <ele>879.20001220703</ele>
        <time>2019-10-07T08:44:58Z</time>
      </trkpt>
      <trkpt lat="46.15978" lon="6.19831">
        <ele>880</ele>
        <time>2019-10-07T08:45:03Z</time>
      </trkpt>
      <trkpt lat="46.15955" lon="6.19838">
        <ele>883.59997558594</ele>
        <time>2019-10-07T08:45:20Z</time>
      </trkpt>
      <trkpt lat="46.15947" lon="6.1984">
        <ele>884.59997558594</ele>
        <time>2019-10-07T08:45:25Z</time>
      </trkpt>
      <trkpt lat="46.15932" lon="6.19848">
        <ele>887</ele>
        <time>2019-10-07T08:45:36Z</time>
      </trkpt>
      <trkpt lat="46.15924" lon="6.19853">
        <ele>888</ele>
        <time>2019-10-07T08:45:41Z</time>
      </trkpt>
      <trkpt lat="46.1591" lon="6.19863">
        <ele>890</ele>
        <time>2019-10-07T08:45:51Z</time>
      </trkpt>
      <trkpt lat="46.15899" lon="6.19872">
        <ele>891.40002441406</ele>
        <time>2019-10-07T08:45:58Z</time>
      </trkpt>
      <trkpt lat="46.15884" lon="6.19885">
        <ele>893.40002441406</ele>
        <time>2019-10-07T08:46:08Z</time>
      </trkpt>
      <trkpt lat="46.15867" lon="6.19899">
        <ele>895.59997558594</ele>
        <time>2019-10-07T08:46:19Z</time>
      </trkpt>
      <trkpt lat="46.15846" lon="6.19913">
        <ele>898</ele>
        <time>2019-10-07T08:46:32Z</time>
      </trkpt>
      <trkpt lat="46.15818" lon="6.19929">
        <ele>900.79998779297</ele>
        <time>2019-10-07T08:46:50Z</time>
      </trkpt>
      <trkpt lat="46.15805" lon="6.19937">
        <ele>902.59997558594</ele>
        <time>2019-10-07T08:46:57Z</time>
      </trkpt>
      <trkpt lat="46.15779" lon="6.19955">
        <ele>906.79998779297</ele>
        <time>2019-10-07T08:47:15Z</time>
      </trkpt>
      <trkpt lat="46.15772" lon="6.19968">
        <ele>908</ele>
        <time>2019-10-07T08:47:23Z</time>
      </trkpt>
      <trkpt lat="46.15759" lon="6.19993">
        <ele>910</ele>
        <time>2019-10-07T08:47:35Z</time>
      </trkpt>
      <trkpt lat="46.15751" lon="6.20008">
        <ele>911.20001220703</ele>
        <time>2019-10-07T08:47:41Z</time>
      </trkpt>
      <trkpt lat="46.15736" lon="6.20032">
        <ele>913.20001220703</ele>
        <time>2019-10-07T08:47:52Z</time>
      </trkpt>
      <trkpt lat="46.15722" lon="6.20044">
        <ele>914.40002441406</ele>
        <time>2019-10-07T08:47:59Z</time>
      </trkpt>
      <trkpt lat="46.15703" lon="6.20054">
        <ele>917</ele>
        <time>2019-10-07T08:48:10Z</time>
      </trkpt>
      <trkpt lat="46.15692" lon="6.2006">
        <ele>918.79998779297</ele>
        <time>2019-10-07T08:48:18Z</time>
      </trkpt>
      <trkpt lat="46.15683" lon="6.20064">
        <ele>920</ele>
        <time>2019-10-07T08:48:24Z</time>
      </trkpt>
      <trkpt lat="46.1567" lon="6.2008">
        <ele>922.20001220703</ele>
        <time>2019-10-07T08:48:36Z</time>
      </trkpt>
      <trkpt lat="46.15664" lon="6.20092">
        <ele>923.59997558594</ele>
        <time>2019-10-07T08:48:42Z</time>
      </trkpt>
      <trkpt lat="46.15647" lon="6.20126">
        <ele>926.20001220703</ele>
        <time>2019-10-07T08:48:58Z</time>
      </trkpt>
      <trkpt lat="46.15641" lon="6.20137">
        <ele>927.59997558594</ele>
        <time>2019-10-07T08:49:04Z</time>
      </trkpt>
      <trkpt lat="46.1563" lon="6.20159">
        <ele>931</ele>
        <time>2019-10-07T08:49:18Z</time>
      </trkpt>
      <trkpt lat="46.15624" lon="6.20169">
        <ele>931.79998779297</ele>
        <time>2019-10-07T08:49:25Z</time>
      </trkpt>
      <trkpt lat="46.15613" lon="6.20191">
        <ele>934.20001220703</ele>
        <time>2019-10-07T08:49:35Z</time>
      </trkpt>
      <trkpt lat="46.15604" lon="6.20208">
        <ele>935.59997558594</ele>
        <time>2019-10-07T08:49:42Z</time>
      </trkpt>
      <trkpt lat="46.15588" lon="6.20222">
        <ele>937.20001220703</ele>
        <time>2019-10-07T08:49:50Z</time>
      </trkpt>
      <trkpt lat="46.15561" lon="6.20245">
        <ele>940.59997558594</ele>
        <time>2019-10-07T08:50:01Z</time>
      </trkpt>
      <trkpt lat="46.15546" lon="6.20258">
        <ele>942.20001220703</ele>
        <time>2019-10-07T08:50:09Z</time>
      </trkpt>
      <trkpt lat="46.15535" lon="6.20267">
        <ele>943.79998779297</ele>
        <time>2019-10-07T08:50:16Z</time>
      </trkpt>
      <trkpt lat="46.15522" lon="6.20278">
        <ele>945.59997558594</ele>
        <time>2019-10-07T08:50:24Z</time>
      </trkpt>
      <trkpt lat="46.15511" lon="6.20289">
        <ele>947.20001220703</ele>
        <time>2019-10-07T08:50:31Z</time>
      </trkpt>
      <trkpt lat="46.15505" lon="6.203">
        <ele>948.79998779297</ele>
        <time>2019-10-07T08:50:36Z</time>
      </trkpt>
      <trkpt lat="46.15492" lon="6.20322">
        <ele>951</ele>
        <time>2019-10-07T08:50:46Z</time>
      </trkpt>
      <trkpt lat="46.15481" lon="6.20341">
        <ele>953</ele>
        <time>2019-10-07T08:50:54Z</time>
      </trkpt>
      <trkpt lat="46.15468" lon="6.20362">
        <ele>955.59997558594</ele>
        <time>2019-10-07T08:51:04Z</time>
      </trkpt>
      <trkpt lat="46.15457" lon="6.20382">
        <ele>957.79998779297</ele>
        <time>2019-10-07T08:51:13Z</time>
      </trkpt>
      <trkpt lat="46.15451" lon="6.20406">
        <ele>959.59997558594</ele>
        <time>2019-10-07T08:51:20Z</time>
      </trkpt>
      <trkpt lat="46.15448" lon="6.20419">
        <ele>961</ele>
        <time>2019-10-07T08:51:25Z</time>
      </trkpt>
      <trkpt lat="46.15436" lon="6.20456">
        <ele>964.40002441406</ele>
        <time>2019-10-07T08:51:38Z</time>
      </trkpt>
      <trkpt lat="46.15428" lon="6.20471">
        <ele>966</ele>
        <time>2019-10-07T08:51:44Z</time>
      </trkpt>
      <trkpt lat="46.15402" lon="6.20503">
        <ele>969.59997558594</ele>
        <time>2019-10-07T08:52:00Z</time>
      </trkpt>
      <trkpt lat="46.1538" lon="6.20505">
        <ele>971.79998779297</ele>
        <time>2019-10-07T08:52:10Z</time>
      </trkpt>
      <trkpt lat="46.15366" lon="6.20494">
        <ele>973.79998779297</ele>
        <time>2019-10-07T08:52:17Z</time>
      </trkpt>
      <trkpt lat="46.15348" lon="6.20476">
        <ele>975.79998779297</ele>
        <time>2019-10-07T08:52:28Z</time>
      </trkpt>
      <trkpt lat="46.15342" lon="6.20461">
        <ele>977</ele>
        <time>2019-10-07T08:52:34Z</time>
      </trkpt>
      <trkpt lat="46.15336" lon="6.20433">
        <ele>979.20001220703</ele>
        <time>2019-10-07T08:52:43Z</time>
      </trkpt>
      <trkpt lat="46.15345" lon="6.20416">
        <ele>980.79998779297</ele>
        <time>2019-10-07T08:52:51Z</time>
      </trkpt>
      <trkpt lat="46.15353" lon="6.20399">
        <ele>982.79998779297</ele>
        <time>2019-10-07T08:52:59Z</time>
      </trkpt>
      <trkpt lat="46.15356" lon="6.20384">
        <ele>984.20001220703</ele>
        <time>2019-10-07T08:53:05Z</time>
      </trkpt>
      <trkpt lat="46.15362" lon="6.20347">
        <ele>986.59997558594</ele>
        <time>2019-10-07T08:53:18Z</time>
      </trkpt>
      <trkpt lat="46.15365" lon="6.20325">
        <ele>987.59997558594</ele>
        <time>2019-10-07T08:53:26Z</time>
      </trkpt>
      <trkpt lat="46.15369" lon="6.20299">
        <ele>989.59997558594</ele>
        <time>2019-10-07T08:53:35Z</time>
      </trkpt>
      <trkpt lat="46.15374" lon="6.2026">
        <ele>991.59997558594</ele>
        <time>2019-10-07T08:53:47Z</time>
      </trkpt>
      <trkpt lat="46.15381" lon="6.20222">
        <ele>994</ele>
        <time>2019-10-07T08:53:59Z</time>
      </trkpt>
      <trkpt lat="46.15386" lon="6.20195">
        <ele>995.40002441406</ele>
        <time>2019-10-07T08:54:07Z</time>
      </trkpt>
      <trkpt lat="46.15392" lon="6.20163">
        <ele>997.20001220703</ele>
        <time>2019-10-07T08:54:18Z</time>
      </trkpt>
      <trkpt lat="46.15398" lon="6.20153">
        <ele>998.40002441406</ele>
        <time>2019-10-07T08:54:23Z</time>
      </trkpt>
      <trkpt lat="46.15409" lon="6.20137">
        <ele>999.79998779297</ele>
        <time>2019-10-07T08:54:30Z</time>
      </trkpt>
      <trkpt lat="46.15425" lon="6.20116">
        <ele>1001.5999755859</ele>
        <time>2019-10-07T08:54:40Z</time>
      </trkpt>
      <trkpt lat="46.15437" lon="6.20103">
        <ele>1003</ele>
        <time>2019-10-07T08:54:46Z</time>
      </trkpt>
      <trkpt lat="46.15457" lon="6.20084">
        <ele>1004.799987793</ele>
        <time>2019-10-07T08:54:56Z</time>
      </trkpt>
      <trkpt lat="46.15471" lon="6.20071">
        <ele>1006.5999755859</ele>
        <time>2019-10-07T08:55:03Z</time>
      </trkpt>
      <trkpt lat="46.15491" lon="6.2004">
        <ele>1009</ele>
        <time>2019-10-07T08:55:15Z</time>
      </trkpt>
      <trkpt lat="46.15501" lon="6.20017">
        <ele>1010</ele>
        <time>2019-10-07T08:55:22Z</time>
      </trkpt>
      <trkpt lat="46.15515" lon="6.19979">
        <ele>1012.200012207</ele>
        <time>2019-10-07T08:55:34Z</time>
      </trkpt>
      <trkpt lat="46.15516" lon="6.19955">
        <ele>1013.799987793</ele>
        <time>2019-10-07T08:55:42Z</time>
      </trkpt>
      <trkpt lat="46.15507" lon="6.19948">
        <ele>1015.200012207</ele>
        <time>2019-10-07T08:55:51Z</time>
      </trkpt>
      <trkpt lat="46.15494" lon="6.19959">
        <ele>1016</ele>
        <time>2019-10-07T08:55:57Z</time>
      </trkpt>
      <trkpt lat="46.15479" lon="6.19979">
        <ele>1017.4000244141</ele>
        <time>2019-10-07T08:56:06Z</time>
      </trkpt>
      <trkpt lat="46.15462" lon="6.19993">
        <ele>1019.4000244141</ele>
        <time>2019-10-07T08:56:15Z</time>
      </trkpt>
      <trkpt lat="46.15449" lon="6.20002">
        <ele>1020.799987793</ele>
        <time>2019-10-07T08:56:21Z</time>
      </trkpt>
      <trkpt lat="46.15435" lon="6.2001">
        <ele>1022.5999755859</ele>
        <time>2019-10-07T08:56:29Z</time>
      </trkpt>
      <trkpt lat="46.15411" lon="6.20011">
        <ele>1025.4000244141</ele>
        <time>2019-10-07T08:56:40Z</time>
      </trkpt>
      <trkpt lat="46.15393" lon="6.20012">
        <ele>1027</ele>
        <time>2019-10-07T08:56:48Z</time>
      </trkpt>
      <trkpt lat="46.15378" lon="6.20012">
        <ele>1029.1999511719</ele>
        <time>2019-10-07T08:56:56Z</time>
      </trkpt>
      <trkpt lat="46.15353" lon="6.20006">
        <ele>1032</ele>
        <time>2019-10-07T08:57:09Z</time>
      </trkpt>
      <trkpt lat="46.1534" lon="6.20003">
        <ele>1033.1999511719</ele>
        <time>2019-10-07T08:57:16Z</time>
      </trkpt>
      <trkpt lat="46.1532" lon="6.19991">
        <ele>1035.4000244141</ele>
        <time>2019-10-07T08:57:26Z</time>
      </trkpt>
      <trkpt lat="46.15308" lon="6.19984">
        <ele>1036.8000488281</ele>
        <time>2019-10-07T08:57:32Z</time>
      </trkpt>
      <trkpt lat="46.15281" lon="6.1998">
        <ele>1039.1999511719</ele>
        <time>2019-10-07T08:57:45Z</time>
      </trkpt>
      <trkpt lat="46.15259" lon="6.19981">
        <ele>1040.8000488281</ele>
        <time>2019-10-07T08:57:54Z</time>
      </trkpt>
      <trkpt lat="46.15226" lon="6.19984">
        <ele>1043.1999511719</ele>
        <time>2019-10-07T08:58:08Z</time>
      </trkpt>
      <trkpt lat="46.15205" lon="6.19985">
        <ele>1044.8000488281</ele>
        <time>2019-10-07T08:58:18Z</time>
      </trkpt>
      <trkpt lat="46.1519" lon="6.19979">
        <ele>1046</ele>
        <time>2019-10-07T08:58:25Z</time>
      </trkpt>
      <trkpt lat="46.15182" lon="6.19961">
        <ele>1047</ele>
        <time>2019-10-07T08:58:32Z</time>
      </trkpt>
      <trkpt lat="46.15183" lon="6.19941">
        <ele>1048</ele>
        <time>2019-10-07T08:58:38Z</time>
      </trkpt>
      <trkpt lat="46.15209" lon="6.19911">
        <ele>1050.5999755859</ele>
        <time>2019-10-07T08:58:51Z</time>
      </trkpt>
      <trkpt lat="46.15219" lon="6.199">
        <ele>1051.5999755859</ele>
        <time>2019-10-07T08:58:56Z</time>
      </trkpt>
      <trkpt lat="46.15239" lon="6.1987">
        <ele>1053.8000488281</ele>
        <time>2019-10-07T08:59:10Z</time>
      </trkpt>
      <trkpt lat="46.1525" lon="6.19848">
        <ele>1055.1999511719</ele>
        <time>2019-10-07T08:59:17Z</time>
      </trkpt>
      <trkpt lat="46.1526" lon="6.19816">
        <ele>1056.8000488281</ele>
        <time>2019-10-07T08:59:26Z</time>
      </trkpt>
      <trkpt lat="46.15266" lon="6.19795">
        <ele>1058.1999511719</ele>
        <time>2019-10-07T08:59:33Z</time>
      </trkpt>
      <trkpt lat="46.15276" lon="6.1976">
        <ele>1060.5999755859</ele>
        <time>2019-10-07T08:59:46Z</time>
      </trkpt>
      <trkpt lat="46.1528" lon="6.19747">
        <ele>1061.4000244141</ele>
        <time>2019-10-07T08:59:50Z</time>
      </trkpt>
      <trkpt lat="46.15294" lon="6.19712">
        <ele>1063.8000488281</ele>
        <time>2019-10-07T09:00:01Z</time>
      </trkpt>
      <trkpt lat="46.15304" lon="6.19694">
        <ele>1065</ele>
        <time>2019-10-07T09:00:07Z</time>
      </trkpt>
      <trkpt lat="46.15321" lon="6.19675">
        <ele>1067</ele>
        <time>2019-10-07T09:00:17Z</time>
      </trkpt>
      <trkpt lat="46.15336" lon="6.19656">
        <ele>1068.5999755859</ele>
        <time>2019-10-07T09:00:26Z</time>
      </trkpt>
      <trkpt lat="46.15347" lon="6.19644">
        <ele>1069.8000488281</ele>
        <time>2019-10-07T09:00:32Z</time>
      </trkpt>
      <trkpt lat="46.15369" lon="6.19605">
        <ele>1073.4000244141</ele>
        <time>2019-10-07T09:00:48Z</time>
      </trkpt>
      <trkpt lat="46.15376" lon="6.19579">
        <ele>1074.4000244141</ele>
        <time>2019-10-07T09:00:55Z</time>
      </trkpt>
      <trkpt lat="46.15387" lon="6.19535">
        <ele>1076.8000488281</ele>
        <time>2019-10-07T09:01:06Z</time>
      </trkpt>
      <trkpt lat="46.15396" lon="6.19517">
        <ele>1078.4000244141</ele>
        <time>2019-10-07T09:01:12Z</time>
      </trkpt>
      <trkpt lat="46.1542" lon="6.19475">
        <ele>1080.8000488281</ele>
        <time>2019-10-07T09:01:25Z</time>
      </trkpt>
      <trkpt lat="46.15421" lon="6.19433">
        <ele>1083</ele>
        <time>2019-10-07T09:01:37Z</time>
      </trkpt>
      <trkpt lat="46.15412" lon="6.19432">
        <ele>1084</ele>
        <time>2019-10-07T09:01:43Z</time>
      </trkpt>
      <trkpt lat="46.15394" lon="6.19442">
        <ele>1084.4000244141</ele>
        <time>2019-10-07T09:01:50Z</time>
      </trkpt>
      <trkpt lat="46.15365" lon="6.19473">
        <ele>1086.4000244141</ele>
        <time>2019-10-07T09:02:02Z</time>
      </trkpt>
      <trkpt lat="46.1536" lon="6.19477">
        <ele>1086.8000488281</ele>
        <time>2019-10-07T09:02:04Z</time>
      </trkpt>
      <trkpt lat="46.15338" lon="6.19495">
        <ele>1088.1999511719</ele>
        <time>2019-10-07T09:02:14Z</time>
      </trkpt>
      <trkpt lat="46.15324" lon="6.19507">
        <ele>1089.8000488281</ele>
        <time>2019-10-07T09:02:20Z</time>
      </trkpt>
      <trkpt lat="46.15297" lon="6.19523">
        <ele>1091.1999511719</ele>
        <time>2019-10-07T09:02:31Z</time>
      </trkpt>
      <trkpt lat="46.15284" lon="6.19502">
        <ele>1092.5999755859</ele>
        <time>2019-10-07T09:02:40Z</time>
      </trkpt>
      <trkpt lat="46.15295" lon="6.19486">
        <ele>1094.1999511719</ele>
        <time>2019-10-07T09:02:46Z</time>
      </trkpt>
      <trkpt lat="46.15325" lon="6.1945">
        <ele>1096.5999755859</ele>
        <time>2019-10-07T09:03:01Z</time>
      </trkpt>
      <trkpt lat="46.15333" lon="6.19419">
        <ele>1098.1999511719</ele>
        <time>2019-10-07T09:03:11Z</time>
      </trkpt>
      <trkpt lat="46.15337" lon="6.19387">
        <ele>1099.8000488281</ele>
        <time>2019-10-07T09:03:21Z</time>
      </trkpt>
      <trkpt lat="46.15331" lon="6.19355">
        <ele>1101.8000488281</ele>
        <time>2019-10-07T09:03:32Z</time>
      </trkpt>
      <trkpt lat="46.15327" lon="6.19329">
        <ele>1103.1999511719</ele>
        <time>2019-10-07T09:03:41Z</time>
      </trkpt>
      <trkpt lat="46.15321" lon="6.19307">
        <ele>1104.8000488281</ele>
        <time>2019-10-07T09:03:49Z</time>
      </trkpt>
      <trkpt lat="46.1531" lon="6.19276">
        <ele>1106.4000244141</ele>
        <time>2019-10-07T09:03:58Z</time>
      </trkpt>
      <trkpt lat="46.15299" lon="6.19247">
        <ele>1108.1999511719</ele>
        <time>2019-10-07T09:04:07Z</time>
      </trkpt>
      <trkpt lat="46.1528" lon="6.19196">
        <ele>1110.4000244141</ele>
        <time>2019-10-07T09:04:22Z</time>
      </trkpt>
      <trkpt lat="46.15263" lon="6.19196">
        <ele>1111.1999511719</ele>
        <time>2019-10-07T09:04:30Z</time>
      </trkpt>
      <trkpt lat="46.15255" lon="6.19218">
        <ele>1112.1999511719</ele>
        <time>2019-10-07T09:04:37Z</time>
      </trkpt>
      <trkpt lat="46.1527" lon="6.19262">
        <ele>1113.8000488281</ele>
        <time>2019-10-07T09:04:48Z</time>
      </trkpt>
      <trkpt lat="46.15269" lon="6.19281">
        <ele>1114.4000244141</ele>
        <time>2019-10-07T09:04:53Z</time>
      </trkpt>
      <trkpt lat="46.15263" lon="6.19329">
        <ele>1117.4000244141</ele>
        <time>2019-10-07T09:05:06Z</time>
      </trkpt>
      <trkpt lat="46.15254" lon="6.19343">
        <ele>1118.1999511719</ele>
        <time>2019-10-07T09:05:11Z</time>
      </trkpt>
      <trkpt lat="46.15232" lon="6.19365">
        <ele>1120.1999511719</ele>
        <time>2019-10-07T09:05:20Z</time>
      </trkpt>
      <trkpt lat="46.15195" lon="6.19371">
        <ele>1123</ele>
        <time>2019-10-07T09:05:33Z</time>
      </trkpt>
      <trkpt lat="46.1516" lon="6.19372">
        <ele>1125.4000244141</ele>
        <time>2019-10-07T09:05:45Z</time>
      </trkpt>
      <trkpt lat="46.1514" lon="6.19372">
        <ele>1126.4000244141</ele>
        <time>2019-10-07T09:05:52Z</time>
      </trkpt>
      <trkpt lat="46.15099" lon="6.19387">
        <ele>1128.8000488281</ele>
        <time>2019-10-07T09:06:05Z</time>
      </trkpt>
      <trkpt lat="46.15072" lon="6.19396">
        <ele>1130.1999511719</ele>
        <time>2019-10-07T09:06:13Z</time>
      </trkpt>
      <trkpt lat="46.15049" lon="6.19417">
        <ele>1132.1999511719</ele>
        <time>2019-10-07T09:06:22Z</time>
      </trkpt>
      <trkpt lat="46.15031" lon="6.19403">
        <ele>1133.5999755859</ele>
        <time>2019-10-07T09:06:28Z</time>
      </trkpt>
      <trkpt lat="46.15013" lon="6.19405">
        <ele>1135.4000244141</ele>
        <time>2019-10-07T09:06:35Z</time>
      </trkpt>
      <trkpt lat="46.14985" lon="6.19397">
        <ele>1137.8000488281</ele>
        <time>2019-10-07T09:06:46Z</time>
      </trkpt>
      <trkpt lat="46.14968" lon="6.19392">
        <ele>1139.1999511719</ele>
        <time>2019-10-07T09:06:53Z</time>
      </trkpt>
      <trkpt lat="46.14943" lon="6.19385">
        <ele>1141.8000488281</ele>
        <time>2019-10-07T09:07:03Z</time>
      </trkpt>
      <trkpt lat="46.14927" lon="6.19379">
        <ele>1143</ele>
        <time>2019-10-07T09:07:09Z</time>
      </trkpt>
      <trkpt lat="46.149" lon="6.19365">
        <ele>1145.1999511719</ele>
        <time>2019-10-07T09:07:21Z</time>
      </trkpt>
      <trkpt lat="46.14887" lon="6.19359">
        <ele>1146.8000488281</ele>
        <time>2019-10-07T09:07:27Z</time>
      </trkpt>
      <trkpt lat="46.14853" lon="6.19342">
        <ele>1149.4000244141</ele>
        <time>2019-10-07T09:07:42Z</time>
      </trkpt>
      <trkpt lat="46.14838" lon="6.19334">
        <ele>1150.8000488281</ele>
        <time>2019-10-07T09:07:49Z</time>
      </trkpt>
      <trkpt lat="46.1481" lon="6.19325">
        <ele>1153.4000244141</ele>
        <time>2019-10-07T09:08:01Z</time>
      </trkpt>
      <trkpt lat="46.14795" lon="6.19321">
        <ele>1154.1999511719</ele>
        <time>2019-10-07T09:08:07Z</time>
      </trkpt>
      <trkpt lat="46.1477" lon="6.19312">
        <ele>1156.8000488281</ele>
        <time>2019-10-07T09:08:18Z</time>
      </trkpt>
      <trkpt lat="46.14764" lon="6.19283">
        <ele>1158.4000244141</ele>
        <time>2019-10-07T09:08:27Z</time>
      </trkpt>
      <trkpt lat="46.14776" lon="6.19267">
        <ele>1159.1999511719</ele>
        <time>2019-10-07T09:08:33Z</time>
      </trkpt>
      <trkpt lat="46.14794" lon="6.19258">
        <ele>1161.4000244141</ele>
        <time>2019-10-07T09:08:40Z</time>
      </trkpt>
      <trkpt lat="46.14805" lon="6.19252">
        <ele>1161.8000488281</ele>
        <time>2019-10-07T09:08:44Z</time>
      </trkpt>
      <trkpt lat="46.14832" lon="6.19226">
        <ele>1164.5999755859</ele>
        <time>2019-10-07T09:08:55Z</time>
      </trkpt>
      <trkpt lat="46.14856" lon="6.19196">
        <ele>1166.5999755859</ele>
        <time>2019-10-07T09:09:06Z</time>
      </trkpt>
      <trkpt lat="46.14875" lon="6.19172">
        <ele>1168.5999755859</ele>
        <time>2019-10-07T09:09:15Z</time>
      </trkpt>
      <trkpt lat="46.14889" lon="6.19152">
        <ele>1170.4000244141</ele>
        <time>2019-10-07T09:09:22Z</time>
      </trkpt>
      <trkpt lat="46.14922" lon="6.19116">
        <ele>1173.5999755859</ele>
        <time>2019-10-07T09:09:37Z</time>
      </trkpt>
      <trkpt lat="46.14941" lon="6.19108">
        <ele>1175</ele>
        <time>2019-10-07T09:09:46Z</time>
      </trkpt>
      <trkpt lat="46.14958" lon="6.19085">
        <ele>1177</ele>
        <time>2019-10-07T09:09:55Z</time>
      </trkpt>
      <trkpt lat="46.14956" lon="6.19066">
        <ele>1178.1999511719</ele>
        <time>2019-10-07T09:10:01Z</time>
      </trkpt>
      <trkpt lat="46.14936" lon="6.19055">
        <ele>1179.5999755859</ele>
        <time>2019-10-07T09:10:09Z</time>
      </trkpt>
      <trkpt lat="46.14918" lon="6.19047">
        <ele>1181.1999511719</ele>
        <time>2019-10-07T09:10:16Z</time>
      </trkpt>
      <trkpt lat="46.14893" lon="6.19033">
        <ele>1183.1999511719</ele>
        <time>2019-10-07T09:10:26Z</time>
      </trkpt>
      <trkpt lat="46.14877" lon="6.19022">
        <ele>1184.5999755859</ele>
        <time>2019-10-07T09:10:33Z</time>
      </trkpt>
      <trkpt lat="46.14851" lon="6.19004">
        <ele>1186.8000488281</ele>
        <time>2019-10-07T09:10:45Z</time>
      </trkpt>
      <trkpt lat="46.14826" lon="6.18986">
        <ele>1189.1999511719</ele>
        <time>2019-10-07T09:10:56Z</time>
      </trkpt>
      <trkpt lat="46.14813" lon="6.18977">
        <ele>1190.1999511719</ele>
        <time>2019-10-07T09:11:02Z</time>
      </trkpt>
      <trkpt lat="46.14781" lon="6.1894">
        <ele>1193.8000488281</ele>
        <time>2019-10-07T09:11:20Z</time>
      </trkpt>
      <trkpt lat="46.14773" lon="6.18903">
        <ele>1196</ele>
        <time>2019-10-07T09:11:31Z</time>
      </trkpt>
      <trkpt lat="46.14763" lon="6.18869">
        <ele>1198</ele>
        <time>2019-10-07T09:11:41Z</time>
      </trkpt>
      <trkpt lat="46.14754" lon="6.18866">
        <ele>1199.4000244141</ele>
        <time>2019-10-07T09:11:46Z</time>
      </trkpt>
      <trkpt lat="46.1475" lon="6.18867">
        <ele>1200.5999755859</ele>
        <time>2019-10-07T09:12:27Z</time>
      </trkpt>
      <trkpt lat="46.14748" lon="6.18879">
        <ele>1200.4000244141</ele>
        <time>2019-10-07T09:12:30Z</time>
      </trkpt>
      <trkpt lat="46.1474" lon="6.18894">
        <ele>1200.5999755859</ele>
        <time>2019-10-07T09:12:35Z</time>
      </trkpt>
      <trkpt lat="46.14729" lon="6.18902">
        <ele>1201.1999511719</ele>
        <time>2019-10-07T09:12:39Z</time>
      </trkpt>
      <trkpt lat="46.14694" lon="6.18929">
        <ele>1202.5999755859</ele>
        <time>2019-10-07T09:12:52Z</time>
      </trkpt>
      <trkpt lat="46.14675" lon="6.18932">
        <ele>1204.1999511719</ele>
        <time>2019-10-07T09:12:59Z</time>
      </trkpt>
      <trkpt lat="46.14658" lon="6.18936">
        <ele>1205.8000488281</ele>
        <time>2019-10-07T09:13:06Z</time>
      </trkpt>
      <trkpt lat="46.14633" lon="6.18941">
        <ele>1207.1999511719</ele>
        <time>2019-10-07T09:13:16Z</time>
      </trkpt>
      <trkpt lat="46.14613" lon="6.18945">
        <ele>1208.5999755859</ele>
        <time>2019-10-07T09:13:23Z</time>
      </trkpt>
      <trkpt lat="46.14581" lon="6.18952">
        <ele>1210.4000244141</ele>
        <time>2019-10-07T09:13:34Z</time>
      </trkpt>
      <trkpt lat="46.1455" lon="6.18959">
        <ele>1212.5999755859</ele>
        <time>2019-10-07T09:13:44Z</time>
      </trkpt>
      <trkpt lat="46.14516" lon="6.18961">
        <ele>1214</ele>
        <time>2019-10-07T09:13:55Z</time>
      </trkpt>
      <trkpt lat="46.14495" lon="6.18951">
        <ele>1215.4000244141</ele>
        <time>2019-10-07T09:14:02Z</time>
      </trkpt>
      <trkpt lat="46.14456" lon="6.18906">
        <ele>1218.8000488281</ele>
        <time>2019-10-07T09:14:19Z</time>
      </trkpt>
      <trkpt lat="46.14448" lon="6.18889">
        <ele>1220</ele>
        <time>2019-10-07T09:14:24Z</time>
      </trkpt>
      <trkpt lat="46.1443" lon="6.18852">
        <ele>1221.8000488281</ele>
        <time>2019-10-07T09:14:36Z</time>
      </trkpt>
      <trkpt lat="46.14421" lon="6.18833">
        <ele>1223</ele>
        <time>2019-10-07T09:14:42Z</time>
      </trkpt>
      <trkpt lat="46.14411" lon="6.188">
        <ele>1224.5999755859</ele>
        <time>2019-10-07T09:14:51Z</time>
      </trkpt>
      <trkpt lat="46.144" lon="6.18748">
        <ele>1226.4000244141</ele>
        <time>2019-10-07T09:15:02Z</time>
      </trkpt>
      <trkpt lat="46.14394" lon="6.18715">
        <ele>1227.8000488281</ele>
        <time>2019-10-07T09:15:09Z</time>
      </trkpt>
      <trkpt lat="46.14368" lon="6.18612">
        <ele>1231.4000244141</ele>
        <time>2019-10-07T09:15:33Z</time>
      </trkpt>
      <trkpt lat="46.14348" lon="6.18582">
        <ele>1232.4000244141</ele>
        <time>2019-10-07T09:15:42Z</time>
      </trkpt>
      <trkpt lat="46.14307" lon="6.18553">
        <ele>1233.5999755859</ele>
        <time>2019-10-07T09:15:54Z</time>
      </trkpt>
      <trkpt lat="46.14259" lon="6.18518">
        <ele>1235.1999511719</ele>
        <time>2019-10-07T09:16:08Z</time>
      </trkpt>
      <trkpt lat="46.14203" lon="6.18476">
        <ele>1236.4000244141</ele>
        <time>2019-10-07T09:16:24Z</time>
      </trkpt>
      <trkpt lat="46.14159" lon="6.18456">
        <ele>1237.1999511719</ele>
        <time>2019-10-07T09:16:35Z</time>
      </trkpt>
      <trkpt lat="46.1409" lon="6.18473">
        <ele>1237.4000244141</ele>
        <time>2019-10-07T09:16:49Z</time>
      </trkpt>
      <trkpt lat="46.14051" lon="6.18486">
        <ele>1238.4000244141</ele>
        <time>2019-10-07T09:16:58Z</time>
      </trkpt>
      <trkpt lat="46.14024" lon="6.18495">
        <ele>1239.5999755859</ele>
        <time>2019-10-07T09:17:06Z</time>
      </trkpt>
      <trkpt lat="46.14009" lon="6.18501">
        <ele>1240.8000488281</ele>
        <time>2019-10-07T09:17:11Z</time>
      </trkpt>
      <trkpt lat="46.13976" lon="6.18497">
        <ele>1243.4000244141</ele>
        <time>2019-10-07T09:17:22Z</time>
      </trkpt>
      <trkpt lat="46.13963" lon="6.18475">
        <ele>1244.5999755859</ele>
        <time>2019-10-07T09:17:29Z</time>
      </trkpt>
      <trkpt lat="46.13953" lon="6.18419">
        <ele>1247.4000244141</ele>
        <time>2019-10-07T09:17:44Z</time>
      </trkpt>
      <trkpt lat="46.13944" lon="6.18376">
        <ele>1249</ele>
        <time>2019-10-07T09:17:55Z</time>
      </trkpt>
      <trkpt lat="46.1394" lon="6.18353">
        <ele>1250.1999511719</ele>
        <time>2019-10-07T09:18:01Z</time>
      </trkpt>
      <trkpt lat="46.13932" lon="6.18309">
        <ele>1252.8000488281</ele>
        <time>2019-10-07T09:18:12Z</time>
      </trkpt>
      <trkpt lat="46.13925" lon="6.18276">
        <ele>1254.4000244141</ele>
        <time>2019-10-07T09:18:20Z</time>
      </trkpt>
      <trkpt lat="46.1391" lon="6.18239">
        <ele>1256.5999755859</ele>
        <time>2019-10-07T09:18:30Z</time>
      </trkpt>
      <trkpt lat="46.13892" lon="6.18225">
        <ele>1258</ele>
        <time>2019-10-07T09:18:37Z</time>
      </trkpt>
      <trkpt lat="46.13866" lon="6.18197">
        <ele>1260.4000244141</ele>
        <time>2019-10-07T09:18:48Z</time>
      </trkpt>
      <trkpt lat="46.13864" lon="6.18163">
        <ele>1262.1999511719</ele>
        <time>2019-10-07T09:18:57Z</time>
      </trkpt>
      <trkpt lat="46.13883" lon="6.18148">
        <ele>1263</ele>
        <time>2019-10-07T09:19:05Z</time>
      </trkpt>
      <trkpt lat="46.1391" lon="6.18144">
        <ele>1265</ele>
        <time>2019-10-07T09:19:13Z</time>
      </trkpt>
      <trkpt lat="46.13928" lon="6.18123">
        <ele>1267</ele>
        <time>2019-10-07T09:19:21Z</time>
      </trkpt>
      <trkpt lat="46.13935" lon="6.18087">
        <ele>1269</ele>
        <time>2019-10-07T09:19:29Z</time>
      </trkpt>
      <trkpt lat="46.13925" lon="6.18027">
        <ele>1271.4000244141</ele>
        <time>2019-10-07T09:19:45Z</time>
      </trkpt>
      <trkpt lat="46.13931" lon="6.18031">
        <ele>1271.5999755859</ele>
        <time>2019-10-07T09:19:53Z</time>
      </trkpt>
      <trkpt lat="46.13931" lon="6.18031">
        <ele>1271.4000244141</ele>
        <time>2019-10-07T09:20:35Z</time>
      </trkpt>
      <trkpt lat="46.13931" lon="6.18031">
        <ele>1271.4000244141</ele>
        <time>2019-10-07T09:20:39Z</time>
      </trkpt>
      <trkpt lat="46.13914" lon="6.18018">
        <ele>1271.4000244141</ele>
        <time>2019-10-07T09:20:44Z</time>
      </trkpt>
      <trkpt lat="46.13856" lon="6.18002">
        <ele>1270.4000244141</ele>
        <time>2019-10-07T09:20:56Z</time>
      </trkpt>
      <trkpt lat="46.13796" lon="6.17985">
        <ele>1268.8000488281</ele>
        <time>2019-10-07T09:21:06Z</time>
      </trkpt>
      <trkpt lat="46.13745" lon="6.17978">
        <ele>1269</ele>
        <time>2019-10-07T09:21:16Z</time>
      </trkpt>
      <trkpt lat="46.13722" lon="6.17989">
        <ele>1269.5999755859</ele>
        <time>2019-10-07T09:21:22Z</time>
      </trkpt>
      <trkpt lat="46.13696" lon="6.18014">
        <ele>1271.1999511719</ele>
        <time>2019-10-07T09:21:33Z</time>
      </trkpt>
      <trkpt lat="46.13692" lon="6.18022">
        <ele>1272.1999511719</ele>
        <time>2019-10-07T09:22:22Z</time>
      </trkpt>
      <trkpt lat="46.13684" lon="6.18036">
        <ele>1272.4000244141</ele>
        <time>2019-10-07T09:22:27Z</time>
      </trkpt>
      <trkpt lat="46.13667" lon="6.18064">
        <ele>1272.5999755859</ele>
        <time>2019-10-07T09:22:33Z</time>
      </trkpt>
      <trkpt lat="46.13638" lon="6.18115">
        <ele>1273.8000488281</ele>
        <time>2019-10-07T09:22:44Z</time>
      </trkpt>
      <trkpt lat="46.13615" lon="6.18141">
        <ele>1274.8000488281</ele>
        <time>2019-10-07T09:22:51Z</time>
      </trkpt>
      <trkpt lat="46.1359" lon="6.18168">
        <ele>1275.8000488281</ele>
        <time>2019-10-07T09:22:59Z</time>
      </trkpt>
      <trkpt lat="46.13549" lon="6.18186">
        <ele>1277</ele>
        <time>2019-10-07T09:23:10Z</time>
      </trkpt>
      <trkpt lat="46.13519" lon="6.182">
        <ele>1278.4000244141</ele>
        <time>2019-10-07T09:23:18Z</time>
      </trkpt>
      <trkpt lat="46.13472" lon="6.18247">
        <ele>1280.1999511719</ele>
        <time>2019-10-07T09:23:33Z</time>
      </trkpt>
      <trkpt lat="46.13451" lon="6.18248">
        <ele>1281.4000244141</ele>
        <time>2019-10-07T09:23:40Z</time>
      </trkpt>
      <trkpt lat="46.13427" lon="6.1823">
        <ele>1281.5999755859</ele>
        <time>2019-10-07T09:23:48Z</time>
      </trkpt>
      <trkpt lat="46.13427" lon="6.1823">
        <ele>1280.8000488281</ele>
        <time>2019-10-07T09:26:41Z</time>
      </trkpt>
      <trkpt lat="46.13413" lon="6.18216">
        <ele>1280.5999755859</ele>
        <time>2019-10-07T09:26:51Z</time>
      </trkpt>
      <trkpt lat="46.13395" lon="6.18199">
        <ele>1280.4000244141</ele>
        <time>2019-10-07T09:26:57Z</time>
      </trkpt>
      <trkpt lat="46.1335" lon="6.1814">
        <ele>1280.1999511719</ele>
        <time>2019-10-07T09:27:13Z</time>
      </trkpt>
      <trkpt lat="46.13344" lon="6.181">
        <ele>1280.1999511719</ele>
        <time>2019-10-07T09:27:19Z</time>
      </trkpt>
      <trkpt lat="46.13347" lon="6.18018">
        <ele>1279.4000244141</ele>
        <time>2019-10-07T09:27:28Z</time>
      </trkpt>
      <trkpt lat="46.13349" lon="6.17945">
        <ele>1277.4000244141</ele>
        <time>2019-10-07T09:27:35Z</time>
      </trkpt>
      <trkpt lat="46.13351" lon="6.17885">
        <ele>1275.8000488281</ele>
        <time>2019-10-07T09:27:40Z</time>
      </trkpt>
      <trkpt lat="46.13351" lon="6.17817">
        <ele>1273.5999755859</ele>
        <time>2019-10-07T09:27:45Z</time>
      </trkpt>
      <trkpt lat="46.13346" lon="6.17775">
        <ele>1272</ele>
        <time>2019-10-07T09:27:48Z</time>
      </trkpt>
      <trkpt lat="46.13331" lon="6.17722">
        <ele>1269.8000488281</ele>
        <time>2019-10-07T09:27:52Z</time>
      </trkpt>
      <trkpt lat="46.13322" lon="6.17694">
        <ele>1268</ele>
        <time>2019-10-07T09:27:54Z</time>
      </trkpt>
      <trkpt lat="46.13295" lon="6.17609">
        <ele>1264</ele>
        <time>2019-10-07T09:28:00Z</time>
      </trkpt>
      <trkpt lat="46.1328" lon="6.17598">
        <ele>1262.4000244141</ele>
        <time>2019-10-07T09:28:02Z</time>
      </trkpt>
      <trkpt lat="46.13256" lon="6.17596">
        <ele>1260</ele>
        <time>2019-10-07T09:28:05Z</time>
      </trkpt>
      <trkpt lat="46.13221" lon="6.17589">
        <ele>1258</ele>
        <time>2019-10-07T09:28:08Z</time>
      </trkpt>
      <trkpt lat="46.13141" lon="6.17557">
        <ele>1253.8000488281</ele>
        <time>2019-10-07T09:28:15Z</time>
      </trkpt>
      <trkpt lat="46.13098" lon="6.17537">
        <ele>1251</ele>
        <time>2019-10-07T09:28:19Z</time>
      </trkpt>
      <trkpt lat="46.13053" lon="6.17535">
        <ele>1247.8000488281</ele>
        <time>2019-10-07T09:28:23Z</time>
      </trkpt>
      <trkpt lat="46.13028" lon="6.17534">
        <ele>1246</ele>
        <time>2019-10-07T09:28:25Z</time>
      </trkpt>
      <trkpt lat="46.12964" lon="6.17533">
        <ele>1242.4000244141</ele>
        <time>2019-10-07T09:28:30Z</time>
      </trkpt>
      <trkpt lat="46.12899" lon="6.17532">
        <ele>1239.4000244141</ele>
        <time>2019-10-07T09:28:35Z</time>
      </trkpt>
      <trkpt lat="46.12851" lon="6.17526">
        <ele>1236</ele>
        <time>2019-10-07T09:28:39Z</time>
      </trkpt>
      <trkpt lat="46.12793" lon="6.17517">
        <ele>1232.1999511719</ele>
        <time>2019-10-07T09:28:44Z</time>
      </trkpt>
      <trkpt lat="46.12756" lon="6.17517">
        <ele>1229.4000244141</ele>
        <time>2019-10-07T09:28:47Z</time>
      </trkpt>
      <trkpt lat="46.12712" lon="6.17512">
        <ele>1226.1999511719</ele>
        <time>2019-10-07T09:28:51Z</time>
      </trkpt>
      <trkpt lat="46.12683" lon="6.17501">
        <ele>1223.8000488281</ele>
        <time>2019-10-07T09:28:54Z</time>
      </trkpt>
      <trkpt lat="46.12658" lon="6.17486">
        <ele>1220.1999511719</ele>
        <time>2019-10-07T09:28:58Z</time>
      </trkpt>
      <trkpt lat="46.12649" lon="6.17469">
        <ele>1219.8000488281</ele>
        <time>2019-10-07T09:29:00Z</time>
      </trkpt>
      <trkpt lat="46.12619" lon="6.17411">
        <ele>1215.5999755859</ele>
        <time>2019-10-07T09:29:06Z</time>
      </trkpt>
      <trkpt lat="46.12611" lon="6.17397">
        <ele>1214.5999755859</ele>
        <time>2019-10-07T09:29:08Z</time>
      </trkpt>
      <trkpt lat="46.12605" lon="6.17386">
        <ele>1208</ele>
        <time>2019-10-07T09:29:55Z</time>
      </trkpt>
      <trkpt lat="46.12602" lon="6.17381">
        <ele>1208</ele>
        <time>2019-10-07T09:29:57Z</time>
      </trkpt>
      <trkpt lat="46.12582" lon="6.1732">
        <ele>1207.4000244141</ele>
        <time>2019-10-07T09:30:06Z</time>
      </trkpt>
      <trkpt lat="46.12573" lon="6.17279">
        <ele>1206.8000488281</ele>
        <time>2019-10-07T09:30:10Z</time>
      </trkpt>
      <trkpt lat="46.12567" lon="6.17261">
        <ele>1206.1999511719</ele>
        <time>2019-10-07T09:30:12Z</time>
      </trkpt>
      <trkpt lat="46.12557" lon="6.1724">
        <ele>1205</ele>
        <time>2019-10-07T09:30:15Z</time>
      </trkpt>
      <trkpt lat="46.12545" lon="6.1723">
        <ele>1204</ele>
        <time>2019-10-07T09:30:18Z</time>
      </trkpt>
      <trkpt lat="46.12517" lon="6.17207">
        <ele>1200.5999755859</ele>
        <time>2019-10-07T09:30:24Z</time>
      </trkpt>
      <trkpt lat="46.12479" lon="6.17178">
        <ele>1198.1999511719</ele>
        <time>2019-10-07T09:30:30Z</time>
      </trkpt>
      <trkpt lat="46.12435" lon="6.17149">
        <ele>1195.5999755859</ele>
        <time>2019-10-07T09:30:36Z</time>
      </trkpt>
      <trkpt lat="46.12394" lon="6.17129">
        <ele>1194.1999511719</ele>
        <time>2019-10-07T09:30:41Z</time>
      </trkpt>
      <trkpt lat="46.12351" lon="6.17099">
        <ele>1192</ele>
        <time>2019-10-07T09:30:46Z</time>
      </trkpt>
      <trkpt lat="46.12334" lon="6.17085">
        <ele>1190.8000488281</ele>
        <time>2019-10-07T09:30:48Z</time>
      </trkpt>
      <trkpt lat="46.12268" lon="6.17051">
        <ele>1186.4000244141</ele>
        <time>2019-10-07T09:30:56Z</time>
      </trkpt>
      <trkpt lat="46.12253" lon="6.17057">
        <ele>1185.1999511719</ele>
        <time>2019-10-07T09:30:58Z</time>
      </trkpt>
      <trkpt lat="46.12213" lon="6.17088">
        <ele>1183</ele>
        <time>2019-10-07T09:31:03Z</time>
      </trkpt>
      <trkpt lat="46.12197" lon="6.17104">
        <ele>1181.8000488281</ele>
        <time>2019-10-07T09:31:05Z</time>
      </trkpt>
      <trkpt lat="46.1218" lon="6.17116">
        <ele>1181.1999511719</ele>
        <time>2019-10-07T09:31:07Z</time>
      </trkpt>
      <trkpt lat="46.12151" lon="6.17125">
        <ele>1179.5999755859</ele>
        <time>2019-10-07T09:31:10Z</time>
      </trkpt>
      <trkpt lat="46.12112" lon="6.17136">
        <ele>1177.5999755859</ele>
        <time>2019-10-07T09:31:14Z</time>
      </trkpt>
      <trkpt lat="46.12087" lon="6.17156">
        <ele>1175.4000244141</ele>
        <time>2019-10-07T09:31:17Z</time>
      </trkpt>
      <trkpt lat="46.12064" lon="6.17174">
        <ele>1173.5999755859</ele>
        <time>2019-10-07T09:31:20Z</time>
      </trkpt>
      <trkpt lat="46.12014" lon="6.17185">
        <ele>1169.1999511719</ele>
        <time>2019-10-07T09:31:27Z</time>
      </trkpt>
      <trkpt lat="46.11991" lon="6.17186">
        <ele>1167</ele>
        <time>2019-10-07T09:31:31Z</time>
      </trkpt>
      <trkpt lat="46.11958" lon="6.17175">
        <ele>1164</ele>
        <time>2019-10-07T09:31:39Z</time>
      </trkpt>
      <trkpt lat="46.11945" lon="6.1715">
        <ele>1161.1999511719</ele>
        <time>2019-10-07T09:31:48Z</time>
      </trkpt>
      <trkpt lat="46.11943" lon="6.17136">
        <ele>1161.1999511719</ele>
        <time>2019-10-07T09:32:20Z</time>
      </trkpt>
      <trkpt lat="46.11943" lon="6.17133">
        <ele>1161</ele>
        <time>2019-10-07T09:32:22Z</time>
      </trkpt>
      <trkpt lat="46.11936" lon="6.17085">
        <ele>1162.4000244141</ele>
        <time>2019-10-07T09:32:37Z</time>
      </trkpt>
      <trkpt lat="46.11935" lon="6.1707">
        <ele>1162.8000488281</ele>
        <time>2019-10-07T09:32:41Z</time>
      </trkpt>
      <trkpt lat="46.11932" lon="6.17045">
        <ele>1164.4000244141</ele>
        <time>2019-10-07T09:32:48Z</time>
      </trkpt>
      <trkpt lat="46.11929" lon="6.17024">
        <ele>1165.4000244141</ele>
        <time>2019-10-07T09:32:54Z</time>
      </trkpt>
      <trkpt lat="46.11929" lon="6.17015">
        <ele>1166.1999511719</ele>
        <time>2019-10-07T09:32:57Z</time>
      </trkpt>
      <trkpt lat="46.11933" lon="6.16966">
        <ele>1168.1999511719</ele>
        <time>2019-10-07T09:33:11Z</time>
      </trkpt>
      <trkpt lat="46.1193" lon="6.16933">
        <ele>1169.5999755859</ele>
        <time>2019-10-07T09:33:21Z</time>
      </trkpt>
      <trkpt lat="46.11926" lon="6.16889">
        <ele>1171.8000488281</ele>
        <time>2019-10-07T09:33:34Z</time>
      </trkpt>
      <trkpt lat="46.11922" lon="6.16858">
        <ele>1172.8000488281</ele>
        <time>2019-10-07T09:33:43Z</time>
      </trkpt>
      <trkpt lat="46.11921" lon="6.16815">
        <ele>1175</ele>
        <time>2019-10-07T09:33:55Z</time>
      </trkpt>
      <trkpt lat="46.11924" lon="6.16791">
        <ele>1176.1999511719</ele>
        <time>2019-10-07T09:34:02Z</time>
      </trkpt>
      <trkpt lat="46.11929" lon="6.16748">
        <ele>1178.1999511719</ele>
        <time>2019-10-07T09:34:14Z</time>
      </trkpt>
      <trkpt lat="46.11933" lon="6.16706">
        <ele>1180.4000244141</ele>
        <time>2019-10-07T09:34:26Z</time>
      </trkpt>
      <trkpt lat="46.11931" lon="6.16663">
        <ele>1182.4000244141</ele>
        <time>2019-10-07T09:34:38Z</time>
      </trkpt>
      <trkpt lat="46.1193" lon="6.16636">
        <ele>1183.5999755859</ele>
        <time>2019-10-07T09:34:46Z</time>
      </trkpt>
      <trkpt lat="46.11928" lon="6.16609">
        <ele>1184.8000488281</ele>
        <time>2019-10-07T09:34:53Z</time>
      </trkpt>
      <trkpt lat="46.11924" lon="6.16578">
        <ele>1186.1999511719</ele>
        <time>2019-10-07T09:35:02Z</time>
      </trkpt>
      <trkpt lat="46.11916" lon="6.16548">
        <ele>1187.5999755859</ele>
        <time>2019-10-07T09:35:10Z</time>
      </trkpt>
      <trkpt lat="46.11895" lon="6.16492">
        <ele>1190.4000244141</ele>
        <time>2019-10-07T09:35:27Z</time>
      </trkpt>
      <trkpt lat="46.11884" lon="6.16464">
        <ele>1192</ele>
        <time>2019-10-07T09:35:35Z</time>
      </trkpt>
      <trkpt lat="46.11864" lon="6.16426">
        <ele>1194</ele>
        <time>2019-10-07T09:35:47Z</time>
      </trkpt>
      <trkpt lat="46.1185" lon="6.16402">
        <ele>1195.1999511719</ele>
        <time>2019-10-07T09:35:55Z</time>
      </trkpt>
      <trkpt lat="46.11827" lon="6.16368">
        <ele>1197.1999511719</ele>
        <time>2019-10-07T09:36:07Z</time>
      </trkpt>
      <trkpt lat="46.11809" lon="6.16346">
        <ele>1198</ele>
        <time>2019-10-07T09:36:15Z</time>
      </trkpt>
      <trkpt lat="46.11781" lon="6.16315">
        <ele>1201</ele>
        <time>2019-10-07T09:36:28Z</time>
      </trkpt>
      <trkpt lat="46.1176" lon="6.16301">
        <ele>1202.4000244141</ele>
        <time>2019-10-07T09:36:37Z</time>
      </trkpt>
      <trkpt lat="46.11732" lon="6.16283">
        <ele>1204</ele>
        <time>2019-10-07T09:36:48Z</time>
      </trkpt>
      <trkpt lat="46.11708" lon="6.16268">
        <ele>1205.5999755859</ele>
        <time>2019-10-07T09:36:57Z</time>
      </trkpt>
      <trkpt lat="46.11671" lon="6.16245">
        <ele>1207.8000488281</ele>
        <time>2019-10-07T09:37:12Z</time>
      </trkpt>
      <trkpt lat="46.11648" lon="6.16236">
        <ele>1209.4000244141</ele>
        <time>2019-10-07T09:37:20Z</time>
      </trkpt>
      <trkpt lat="46.11622" lon="6.16225">
        <ele>1211.1999511719</ele>
        <time>2019-10-07T09:37:29Z</time>
      </trkpt>
      <trkpt lat="46.11585" lon="6.16205">
        <ele>1212.8000488281</ele>
        <time>2019-10-07T09:37:42Z</time>
      </trkpt>
      <trkpt lat="46.11564" lon="6.16191">
        <ele>1214.1999511719</ele>
        <time>2019-10-07T09:37:50Z</time>
      </trkpt>
      <trkpt lat="46.11539" lon="6.16158">
        <ele>1216.5999755859</ele>
        <time>2019-10-07T09:38:04Z</time>
      </trkpt>
      <trkpt lat="46.11533" lon="6.16145">
        <ele>1217.1999511719</ele>
        <time>2019-10-07T09:38:09Z</time>
      </trkpt>
      <trkpt lat="46.11514" lon="6.16099">
        <ele>1219.5999755859</ele>
        <time>2019-10-07T09:38:23Z</time>
      </trkpt>
      <trkpt lat="46.11505" lon="6.16077">
        <ele>1220.8000488281</ele>
        <time>2019-10-07T09:38:29Z</time>
      </trkpt>
      <trkpt lat="46.1149" lon="6.16042">
        <ele>1222.4000244141</ele>
        <time>2019-10-07T09:38:38Z</time>
      </trkpt>
      <trkpt lat="46.11478" lon="6.16017">
        <ele>1223.5999755859</ele>
        <time>2019-10-07T09:38:45Z</time>
      </trkpt>
      <trkpt lat="46.11457" lon="6.1599">
        <ele>1225.5999755859</ele>
        <time>2019-10-07T09:38:56Z</time>
      </trkpt>
      <trkpt lat="46.11436" lon="6.15965">
        <ele>1227.8000488281</ele>
        <time>2019-10-07T09:39:06Z</time>
      </trkpt>
      <trkpt lat="46.11407" lon="6.15941">
        <ele>1229.1999511719</ele>
        <time>2019-10-07T09:39:17Z</time>
      </trkpt>
      <trkpt lat="46.11391" lon="6.15928">
        <ele>1230.1999511719</ele>
        <time>2019-10-07T09:39:23Z</time>
      </trkpt>
      <trkpt lat="46.11371" lon="6.15912">
        <ele>1231.8000488281</ele>
        <time>2019-10-07T09:39:30Z</time>
      </trkpt>
      <trkpt lat="46.11326" lon="6.15872">
        <ele>1234</ele>
        <time>2019-10-07T09:39:45Z</time>
      </trkpt>
      <trkpt lat="46.11298" lon="6.15845">
        <ele>1235.5999755859</ele>
        <time>2019-10-07T09:39:55Z</time>
      </trkpt>
      <trkpt lat="46.1126" lon="6.15808">
        <ele>1238.4000244141</ele>
        <time>2019-10-07T09:40:09Z</time>
      </trkpt>
      <trkpt lat="46.11243" lon="6.15791">
        <ele>1239.4000244141</ele>
        <time>2019-10-07T09:40:15Z</time>
      </trkpt>
      <trkpt lat="46.11205" lon="6.15755">
        <ele>1241.8000488281</ele>
        <time>2019-10-07T09:40:28Z</time>
      </trkpt>
      <trkpt lat="46.11185" lon="6.15735">
        <ele>1242.8000488281</ele>
        <time>2019-10-07T09:40:35Z</time>
      </trkpt>
      <trkpt lat="46.11138" lon="6.1569">
        <ele>1246</ele>
        <time>2019-10-07T09:40:51Z</time>
      </trkpt>
      <trkpt lat="46.11117" lon="6.15669">
        <ele>1246.8000488281</ele>
        <time>2019-10-07T09:40:59Z</time>
      </trkpt>
      <trkpt lat="46.11083" lon="6.15636">
        <ele>1249</ele>
        <time>2019-10-07T09:41:11Z</time>
      </trkpt>
      <trkpt lat="46.11071" lon="6.15625">
        <ele>1249.8000488281</ele>
        <time>2019-10-07T09:41:15Z</time>
      </trkpt>
      <trkpt lat="46.11024" lon="6.1559">
        <ele>1252.4000244141</ele>
        <time>2019-10-07T09:41:30Z</time>
      </trkpt>
      <trkpt lat="46.11002" lon="6.15574">
        <ele>1253.4000244141</ele>
        <time>2019-10-07T09:41:37Z</time>
      </trkpt>
      <trkpt lat="46.10937" lon="6.15525">
        <ele>1257</ele>
        <time>2019-10-07T09:41:58Z</time>
      </trkpt>
      <trkpt lat="46.10906" lon="6.15503">
        <ele>1258.4000244141</ele>
        <time>2019-10-07T09:42:08Z</time>
      </trkpt>
      <trkpt lat="46.10878" lon="6.15481">
        <ele>1259.4000244141</ele>
        <time>2019-10-07T09:42:17Z</time>
      </trkpt>
      <trkpt lat="46.10832" lon="6.15447">
        <ele>1261.5999755859</ele>
        <time>2019-10-07T09:42:31Z</time>
      </trkpt>
      <trkpt lat="46.10809" lon="6.1543">
        <ele>1263.1999511719</ele>
        <time>2019-10-07T09:42:38Z</time>
      </trkpt>
      <trkpt lat="46.10772" lon="6.15406">
        <ele>1265.4000244141</ele>
        <time>2019-10-07T09:42:50Z</time>
      </trkpt>
      <trkpt lat="46.10748" lon="6.15394">
        <ele>1267</ele>
        <time>2019-10-07T09:42:57Z</time>
      </trkpt>
      <trkpt lat="46.1071" lon="6.15374">
        <ele>1268.8000488281</ele>
        <time>2019-10-07T09:43:08Z</time>
      </trkpt>
      <trkpt lat="46.10679" lon="6.15357">
        <ele>1270.4000244141</ele>
        <time>2019-10-07T09:43:17Z</time>
      </trkpt>
      <trkpt lat="46.10604" lon="6.15327">
        <ele>1273</ele>
        <time>2019-10-07T09:43:37Z</time>
      </trkpt>
      <trkpt lat="46.10575" lon="6.15321">
        <ele>1273.4000244141</ele>
        <time>2019-10-07T09:43:43Z</time>
      </trkpt>
      <trkpt lat="46.105" lon="6.15329">
        <ele>1274.4000244141</ele>
        <time>2019-10-07T09:43:59Z</time>
      </trkpt>
      <trkpt lat="46.10464" lon="6.15313">
        <ele>1275</ele>
        <time>2019-10-07T09:44:07Z</time>
      </trkpt>
      <trkpt lat="46.10426" lon="6.15296">
        <ele>1275.4000244141</ele>
        <time>2019-10-07T09:44:16Z</time>
      </trkpt>
      <trkpt lat="46.1039" lon="6.15268">
        <ele>1276</ele>
        <time>2019-10-07T09:44:25Z</time>
      </trkpt>
      <trkpt lat="46.10353" lon="6.15238">
        <ele>1276.8000488281</ele>
        <time>2019-10-07T09:44:35Z</time>
      </trkpt>
      <trkpt lat="46.10299" lon="6.15192">
        <ele>1278.1999511719</ele>
        <time>2019-10-07T09:44:49Z</time>
      </trkpt>
      <trkpt lat="46.10269" lon="6.15162">
        <ele>1279.4000244141</ele>
        <time>2019-10-07T09:44:58Z</time>
      </trkpt>
      <trkpt lat="46.10246" lon="6.15137">
        <ele>1281</ele>
        <time>2019-10-07T09:45:07Z</time>
      </trkpt>
      <trkpt lat="46.10226" lon="6.15114">
        <ele>1282.4000244141</ele>
        <time>2019-10-07T09:45:15Z</time>
      </trkpt>
      <trkpt lat="46.10205" lon="6.15088">
        <ele>1284</ele>
        <time>2019-10-07T09:45:24Z</time>
      </trkpt>
      <trkpt lat="46.10182" lon="6.15058">
        <ele>1285.5999755859</ele>
        <time>2019-10-07T09:45:33Z</time>
      </trkpt>
      <trkpt lat="46.10152" lon="6.15007">
        <ele>1288</ele>
        <time>2019-10-07T09:45:47Z</time>
      </trkpt>
      <trkpt lat="46.10139" lon="6.14986">
        <ele>1288.8000488281</ele>
        <time>2019-10-07T09:45:54Z</time>
      </trkpt>
      <trkpt lat="46.10134" lon="6.14978">
        <ele>1290.8000488281</ele>
        <time>2019-10-07T09:46:37Z</time>
      </trkpt>
      <trkpt lat="46.10127" lon="6.14965">
        <ele>1290.8000488281</ele>
        <time>2019-10-07T09:46:42Z</time>
      </trkpt>
      <trkpt lat="46.10104" lon="6.1493">
        <ele>1291.4000244141</ele>
        <time>2019-10-07T09:46:52Z</time>
      </trkpt>
      <trkpt lat="46.10079" lon="6.14895">
        <ele>1293.4000244141</ele>
        <time>2019-10-07T09:47:01Z</time>
      </trkpt>
      <trkpt lat="46.1006" lon="6.14869">
        <ele>1294.1999511719</ele>
        <time>2019-10-07T09:47:08Z</time>
      </trkpt>
      <trkpt lat="46.10034" lon="6.14863">
        <ele>1295</ele>
        <time>2019-10-07T09:47:15Z</time>
      </trkpt>
      <trkpt lat="46.10011" lon="6.14874">
        <ele>1296.4000244141</ele>
        <time>2019-10-07T09:47:21Z</time>
      </trkpt>
      <trkpt lat="46.09971" lon="6.14868">
        <ele>1297</ele>
        <time>2019-10-07T09:47:30Z</time>
      </trkpt>
      <trkpt lat="46.09958" lon="6.14859">
        <ele>1297.1999511719</ele>
        <time>2019-10-07T09:47:33Z</time>
      </trkpt>
      <trkpt lat="46.0992" lon="6.14831">
        <ele>1298.4000244141</ele>
        <time>2019-10-07T09:47:43Z</time>
      </trkpt>
      <trkpt lat="46.09893" lon="6.14802">
        <ele>1300.5999755859</ele>
        <time>2019-10-07T09:47:52Z</time>
      </trkpt>
      <trkpt lat="46.09856" lon="6.14733">
        <ele>1302.1999511719</ele>
        <time>2019-10-07T09:48:07Z</time>
      </trkpt>
      <trkpt lat="46.09843" lon="6.14707">
        <ele>1303.1999511719</ele>
        <time>2019-10-07T09:48:13Z</time>
      </trkpt>
      <trkpt lat="46.09803" lon="6.14653">
        <ele>1306</ele>
        <time>2019-10-07T09:48:27Z</time>
      </trkpt>
      <trkpt lat="46.09777" lon="6.14627">
        <ele>1307</ele>
        <time>2019-10-07T09:48:35Z</time>
      </trkpt>
      <trkpt lat="46.09734" lon="6.14625">
        <ele>1309.4000244141</ele>
        <time>2019-10-07T09:48:48Z</time>
      </trkpt>
      <trkpt lat="46.09711" lon="6.14643">
        <ele>1310.1999511719</ele>
        <time>2019-10-07T09:48:55Z</time>
      </trkpt>
      <trkpt lat="46.09688" lon="6.14662">
        <ele>1310.8000488281</ele>
        <time>2019-10-07T09:49:02Z</time>
      </trkpt>
      <trkpt lat="46.09665" lon="6.14679">
        <ele>1312.5999755859</ele>
        <time>2019-10-07T09:49:11Z</time>
      </trkpt>
      <trkpt lat="46.09662" lon="6.14682">
        <ele>1313.4000244141</ele>
        <time>2019-10-07T09:49:15Z</time>
      </trkpt>
      <trkpt lat="46.09654" lon="6.14683">
        <ele>1315.1999511719</ele>
        <time>2019-10-07T09:49:43Z</time>
      </trkpt>
      <trkpt lat="46.09647" lon="6.14685">
        <ele>1315.1999511719</ele>
        <time>2019-10-07T09:49:46Z</time>
      </trkpt>
      <trkpt lat="46.09603" lon="6.14693">
        <ele>1315.4000244141</ele>
        <time>2019-10-07T09:50:00Z</time>
      </trkpt>
      <trkpt lat="46.09575" lon="6.14699">
        <ele>1315.5999755859</ele>
        <time>2019-10-07T09:50:08Z</time>
      </trkpt>
      <trkpt lat="46.09561" lon="6.14686">
        <ele>1315.8000488281</ele>
        <time>2019-10-07T09:50:12Z</time>
      </trkpt>
      <trkpt lat="46.09544" lon="6.14671">
        <ele>1315.8000488281</ele>
        <time>2019-10-07T09:50:16Z</time>
      </trkpt>
      <trkpt lat="46.09532" lon="6.14644">
        <ele>1315.5999755859</ele>
        <time>2019-10-07T09:50:21Z</time>
      </trkpt>
      <trkpt lat="46.09525" lon="6.14608">
        <ele>1315.4000244141</ele>
        <time>2019-10-07T09:50:26Z</time>
      </trkpt>
      <trkpt lat="46.09503" lon="6.14544">
        <ele>1315.4000244141</ele>
        <time>2019-10-07T09:50:36Z</time>
      </trkpt>
      <trkpt lat="46.09492" lon="6.14516">
        <ele>1315.8000488281</ele>
        <time>2019-10-07T09:50:41Z</time>
      </trkpt>
      <trkpt lat="46.09467" lon="6.14452">
        <ele>1318</ele>
        <time>2019-10-07T09:50:55Z</time>
      </trkpt>
      <trkpt lat="46.09456" lon="6.14425">
        <ele>1319.1999511719</ele>
        <time>2019-10-07T09:51:01Z</time>
      </trkpt>
      <trkpt lat="46.09437" lon="6.144">
        <ele>1320</ele>
        <time>2019-10-07T09:51:08Z</time>
      </trkpt>
      <trkpt lat="46.09395" lon="6.14375">
        <ele>1321.8000488281</ele>
        <time>2019-10-07T09:51:19Z</time>
      </trkpt>
      <trkpt lat="46.09363" lon="6.14353">
        <ele>1323</ele>
        <time>2019-10-07T09:51:28Z</time>
      </trkpt>
      <trkpt lat="46.09325" lon="6.14293">
        <ele>1324.8000488281</ele>
        <time>2019-10-07T09:51:42Z</time>
      </trkpt>
      <trkpt lat="46.09301" lon="6.14264">
        <ele>1325.5999755859</ele>
        <time>2019-10-07T09:51:49Z</time>
      </trkpt>
      <trkpt lat="46.09289" lon="6.14249">
        <ele>1327.1999511719</ele>
        <time>2019-10-07T09:52:21Z</time>
      </trkpt>
      <trkpt lat="46.09285" lon="6.14245">
        <ele>1327.4000244141</ele>
        <time>2019-10-07T09:52:23Z</time>
      </trkpt>
      <trkpt lat="46.09274" lon="6.14224">
        <ele>1327.4000244141</ele>
        <time>2019-10-07T09:52:29Z</time>
      </trkpt>
      <trkpt lat="46.09257" lon="6.14173">
        <ele>1327.4000244141</ele>
        <time>2019-10-07T09:52:39Z</time>
      </trkpt>
      <trkpt lat="46.09245" lon="6.14119">
        <ele>1327.1999511719</ele>
        <time>2019-10-07T09:52:46Z</time>
      </trkpt>
      <trkpt lat="46.09234" lon="6.14071">
        <ele>1326.1999511719</ele>
        <time>2019-10-07T09:52:51Z</time>
      </trkpt>
      <trkpt lat="46.09204" lon="6.13979">
        <ele>1323.5999755859</ele>
        <time>2019-10-07T09:53:02Z</time>
      </trkpt>
      <trkpt lat="46.09183" lon="6.13962">
        <ele>1323.5999755859</ele>
        <time>2019-10-07T09:53:06Z</time>
      </trkpt>
      <trkpt lat="46.09165" lon="6.13956">
        <ele>1323.5999755859</ele>
        <time>2019-10-07T09:53:10Z</time>
      </trkpt>
      <trkpt lat="46.09135" lon="6.13953">
        <ele>1323.8000488281</ele>
        <time>2019-10-07T09:53:16Z</time>
      </trkpt>
      <trkpt lat="46.09109" lon="6.13951">
        <ele>1324.4000244141</ele>
        <time>2019-10-07T09:53:21Z</time>
      </trkpt>
      <trkpt lat="46.09083" lon="6.13928">
        <ele>1324.5999755859</ele>
        <time>2019-10-07T09:53:28Z</time>
      </trkpt>
      <trkpt lat="46.09077" lon="6.13911">
        <ele>1324.8000488281</ele>
        <time>2019-10-07T09:53:31Z</time>
      </trkpt>
      <trkpt lat="46.09058" lon="6.1386">
        <ele>1326</ele>
        <time>2019-10-07T09:53:39Z</time>
      </trkpt>
      <trkpt lat="46.09043" lon="6.13818">
        <ele>1326.1999511719</ele>
        <time>2019-10-07T09:53:45Z</time>
      </trkpt>
      <trkpt lat="46.09014" lon="6.13779">
        <ele>1326.4000244141</ele>
        <time>2019-10-07T09:53:53Z</time>
      </trkpt>
      <trkpt lat="46.08985" lon="6.13751">
        <ele>1326.4000244141</ele>
        <time>2019-10-07T09:53:59Z</time>
      </trkpt>
      <trkpt lat="46.08954" lon="6.13718">
        <ele>1326.4000244141</ele>
        <time>2019-10-07T09:54:06Z</time>
      </trkpt>
      <trkpt lat="46.08943" lon="6.13694">
        <ele>1326.8000488281</ele>
        <time>2019-10-07T09:54:10Z</time>
      </trkpt>
      <trkpt lat="46.08931" lon="6.13637">
        <ele>1328</ele>
        <time>2019-10-07T09:54:19Z</time>
      </trkpt>
      <trkpt lat="46.08928" lon="6.13619">
        <ele>1327.8000488281</ele>
        <time>2019-10-07T09:54:21Z</time>
      </trkpt>
      <trkpt lat="46.08921" lon="6.13586">
        <ele>1327.8000488281</ele>
        <time>2019-10-07T09:54:24Z</time>
      </trkpt>
      <trkpt lat="46.08909" lon="6.13531">
        <ele>1327.1999511719</ele>
        <time>2019-10-07T09:54:28Z</time>
      </trkpt>
      <trkpt lat="46.08894" lon="6.13469">
        <ele>1324.8000488281</ele>
        <time>2019-10-07T09:54:33Z</time>
      </trkpt>
      <trkpt lat="46.08876" lon="6.13423">
        <ele>1320.5999755859</ele>
        <time>2019-10-07T09:54:38Z</time>
      </trkpt>
      <trkpt lat="46.08847" lon="6.13383">
        <ele>1316.8000488281</ele>
        <time>2019-10-07T09:54:43Z</time>
      </trkpt>
      <trkpt lat="46.08831" lon="6.13338">
        <ele>1314.8000488281</ele>
        <time>2019-10-07T09:54:47Z</time>
      </trkpt>
      <trkpt lat="46.08817" lon="6.13308">
        <ele>1313.8000488281</ele>
        <time>2019-10-07T09:54:50Z</time>
      </trkpt>
      <trkpt lat="46.08789" lon="6.1328">
        <ele>1312</ele>
        <time>2019-10-07T09:54:54Z</time>
      </trkpt>
      <trkpt lat="46.08746" lon="6.13253">
        <ele>1311</ele>
        <time>2019-10-07T09:54:59Z</time>
      </trkpt>
      <trkpt lat="46.08689" lon="6.13216">
        <ele>1308.4000244141</ele>
        <time>2019-10-07T09:55:05Z</time>
      </trkpt>
      <trkpt lat="46.08642" lon="6.13185">
        <ele>1305.8000488281</ele>
        <time>2019-10-07T09:55:10Z</time>
      </trkpt>
      <trkpt lat="46.08589" lon="6.13154">
        <ele>1303.5999755859</ele>
        <time>2019-10-07T09:55:19Z</time>
      </trkpt>
      <trkpt lat="46.08578" lon="6.1315">
        <ele>1303.8000488281</ele>
        <time>2019-10-07T09:55:21Z</time>
      </trkpt>
      <trkpt lat="46.08537" lon="6.13135">
        <ele>1304.5999755859</ele>
        <time>2019-10-07T09:55:28Z</time>
      </trkpt>
      <trkpt lat="46.08511" lon="6.13099">
        <ele>1304.5999755859</ele>
        <time>2019-10-07T09:55:33Z</time>
      </trkpt>
      <trkpt lat="46.08484" lon="6.13046">
        <ele>1304</ele>
        <time>2019-10-07T09:55:39Z</time>
      </trkpt>
      <trkpt lat="46.08449" lon="6.12964">
        <ele>1302.1999511719</ele>
        <time>2019-10-07T09:55:47Z</time>
      </trkpt>
      <trkpt lat="46.08418" lon="6.12896">
        <ele>1300.5999755859</ele>
        <time>2019-10-07T09:55:54Z</time>
      </trkpt>
      <trkpt lat="46.08354" lon="6.12788">
        <ele>1299</ele>
        <time>2019-10-07T09:56:09Z</time>
      </trkpt>
      <trkpt lat="46.08321" lon="6.12756">
        <ele>1298.5999755859</ele>
        <time>2019-10-07T09:56:14Z</time>
      </trkpt>
      <trkpt lat="46.08278" lon="6.12716">
        <ele>1298</ele>
        <time>2019-10-07T09:56:20Z</time>
      </trkpt>
      <trkpt lat="46.08245" lon="6.12687">
        <ele>1296.5999755859</ele>
        <time>2019-10-07T09:56:24Z</time>
      </trkpt>
      <trkpt lat="46.08205" lon="6.1265">
        <ele>1293.5999755859</ele>
        <time>2019-10-07T09:56:29Z</time>
      </trkpt>
      <trkpt lat="46.08195" lon="6.12631">
        <ele>1292.8000488281</ele>
        <time>2019-10-07T09:56:31Z</time>
      </trkpt>
      <trkpt lat="46.08169" lon="6.12555">
        <ele>1288.4000244141</ele>
        <time>2019-10-07T09:56:37Z</time>
      </trkpt>
      <trkpt lat="46.08157" lon="6.12534">
        <ele>1287.8000488281</ele>
        <time>2019-10-07T09:56:39Z</time>
      </trkpt>
      <trkpt lat="46.0809" lon="6.12485">
        <ele>1283.8000488281</ele>
        <time>2019-10-07T09:56:48Z</time>
      </trkpt>
      <trkpt lat="46.08078" lon="6.1248">
        <ele>1283.8000488281</ele>
        <time>2019-10-07T09:56:50Z</time>
      </trkpt>
      <trkpt lat="46.08067" lon="6.1248">
        <ele>1283.8000488281</ele>
        <time>2019-10-07T09:56:52Z</time>
      </trkpt>
      <trkpt lat="46.08058" lon="6.12491">
        <ele>1283.8000488281</ele>
        <time>2019-10-07T09:56:55Z</time>
      </trkpt>
      <trkpt lat="46.08053" lon="6.12501">
        <ele>1284.1999511719</ele>
        <time>2019-10-07T09:56:57Z</time>
      </trkpt>
      <trkpt lat="46.08036" lon="6.12539">
        <ele>1285.8000488281</ele>
        <time>2019-10-07T09:57:04Z</time>
      </trkpt>
      <trkpt lat="46.08024" lon="6.12563">
        <ele>1287</ele>
        <time>2019-10-07T09:57:09Z</time>
      </trkpt>
      <trkpt lat="46.07992" lon="6.12594">
        <ele>1289.4000244141</ele>
        <time>2019-10-07T09:57:17Z</time>
      </trkpt>
      <trkpt lat="46.07932" lon="6.12635">
        <ele>1290.1999511719</ele>
        <time>2019-10-07T09:57:30Z</time>
      </trkpt>
      <trkpt lat="46.07856" lon="6.12699">
        <ele>1290.1999511719</ele>
        <time>2019-10-07T09:57:45Z</time>
      </trkpt>
      <trkpt lat="46.07842" lon="6.12719">
        <ele>1290</ele>
        <time>2019-10-07T09:57:48Z</time>
      </trkpt>
      <trkpt lat="46.07791" lon="6.12816">
        <ele>1287.8000488281</ele>
        <time>2019-10-07T09:57:59Z</time>
      </trkpt>
      <trkpt lat="46.07764" lon="6.12852">
        <ele>1287</ele>
        <time>2019-10-07T09:58:03Z</time>
      </trkpt>
      <trkpt lat="46.07722" lon="6.12887">
        <ele>1285</ele>
        <time>2019-10-07T09:58:08Z</time>
      </trkpt>
      <trkpt lat="46.07693" lon="6.1289">
        <ele>1283.5999755859</ele>
        <time>2019-10-07T09:58:11Z</time>
      </trkpt>
      <trkpt lat="46.07653" lon="6.12867">
        <ele>1281</ele>
        <time>2019-10-07T09:58:15Z</time>
      </trkpt>
      <trkpt lat="46.07591" lon="6.12795">
        <ele>1277.5999755859</ele>
        <time>2019-10-07T09:58:22Z</time>
      </trkpt>
      <trkpt lat="46.07565" lon="6.12742">
        <ele>1274.8000488281</ele>
        <time>2019-10-07T09:58:26Z</time>
      </trkpt>
      <trkpt lat="46.0754" lon="6.12668">
        <ele>1270.5999755859</ele>
        <time>2019-10-07T09:58:32Z</time>
      </trkpt>
      <trkpt lat="46.0753" lon="6.12646">
        <ele>1269.4000244141</ele>
        <time>2019-10-07T09:58:34Z</time>
      </trkpt>
      <trkpt lat="46.07508" lon="6.1263">
        <ele>1267.1999511719</ele>
        <time>2019-10-07T09:58:37Z</time>
      </trkpt>
      <trkpt lat="46.07488" lon="6.12625">
        <ele>1266</ele>
        <time>2019-10-07T09:58:39Z</time>
      </trkpt>
      <trkpt lat="46.07437" lon="6.12616">
        <ele>1262.8000488281</ele>
        <time>2019-10-07T09:58:44Z</time>
      </trkpt>
      <trkpt lat="46.07411" lon="6.1262">
        <ele>1261.5999755859</ele>
        <time>2019-10-07T09:58:47Z</time>
      </trkpt>
      <trkpt lat="46.07388" lon="6.12607">
        <ele>1259.4000244141</ele>
        <time>2019-10-07T09:58:50Z</time>
      </trkpt>
      <trkpt lat="46.07382" lon="6.12583">
        <ele>1258</ele>
        <time>2019-10-07T09:58:52Z</time>
      </trkpt>
      <trkpt lat="46.07385" lon="6.12534">
        <ele>1255</ele>
        <time>2019-10-07T09:58:56Z</time>
      </trkpt>
      <trkpt lat="46.0739" lon="6.12497">
        <ele>1252.5999755859</ele>
        <time>2019-10-07T09:58:59Z</time>
      </trkpt>
      <trkpt lat="46.07393" lon="6.12478">
        <ele>1250.8000488281</ele>
        <time>2019-10-07T09:59:01Z</time>
      </trkpt>
      <trkpt lat="46.07377" lon="6.12452">
        <ele>1249.5999755859</ele>
        <time>2019-10-07T09:59:04Z</time>
      </trkpt>
      <trkpt lat="46.07357" lon="6.12431">
        <ele>1249</ele>
        <time>2019-10-07T09:59:07Z</time>
      </trkpt>
      <trkpt lat="46.07316" lon="6.12397">
        <ele>1246.8000488281</ele>
        <time>2019-10-07T09:59:12Z</time>
      </trkpt>
      <trkpt lat="46.07286" lon="6.12382">
        <ele>1245.1999511719</ele>
        <time>2019-10-07T09:59:15Z</time>
      </trkpt>
      <trkpt lat="46.07225" lon="6.12361">
        <ele>1242.1999511719</ele>
        <time>2019-10-07T09:59:21Z</time>
      </trkpt>
      <trkpt lat="46.07187" lon="6.12338">
        <ele>1239.5999755859</ele>
        <time>2019-10-07T09:59:25Z</time>
      </trkpt>
      <trkpt lat="46.07162" lon="6.12309">
        <ele>1237.4000244141</ele>
        <time>2019-10-07T09:59:28Z</time>
      </trkpt>
      <trkpt lat="46.07144" lon="6.12289">
        <ele>1236</ele>
        <time>2019-10-07T09:59:30Z</time>
      </trkpt>
      <trkpt lat="46.07105" lon="6.12256">
        <ele>1233.1999511719</ele>
        <time>2019-10-07T09:59:34Z</time>
      </trkpt>
      <trkpt lat="46.07086" lon="6.1224">
        <ele>1231.1999511719</ele>
        <time>2019-10-07T09:59:36Z</time>
      </trkpt>
      <trkpt lat="46.07037" lon="6.12211">
        <ele>1227.4000244141</ele>
        <time>2019-10-07T09:59:41Z</time>
      </trkpt>
      <trkpt lat="46.06973" lon="6.12224">
        <ele>1222.5999755859</ele>
        <time>2019-10-07T09:59:47Z</time>
      </trkpt>
      <trkpt lat="46.06907" lon="6.12239">
        <ele>1219.4000244141</ele>
        <time>2019-10-07T09:59:54Z</time>
      </trkpt>
      <trkpt lat="46.06868" lon="6.12253">
        <ele>1218.8000488281</ele>
        <time>2019-10-07T09:59:58Z</time>
      </trkpt>
      <trkpt lat="46.06839" lon="6.12262">
        <ele>1218.1999511719</ele>
        <time>2019-10-07T10:00:02Z</time>
      </trkpt>
      <trkpt lat="46.06822" lon="6.12252">
        <ele>1216.8000488281</ele>
        <time>2019-10-07T10:00:05Z</time>
      </trkpt>
      <trkpt lat="46.06817" lon="6.12233">
        <ele>1214.5999755859</ele>
        <time>2019-10-07T10:00:08Z</time>
      </trkpt>
      <trkpt lat="46.06816" lon="6.12181">
        <ele>1211.4000244141</ele>
        <time>2019-10-07T10:00:13Z</time>
      </trkpt>
      <trkpt lat="46.06826" lon="6.12144">
        <ele>1209.5999755859</ele>
        <time>2019-10-07T10:00:16Z</time>
      </trkpt>
      <trkpt lat="46.06841" lon="6.12092">
        <ele>1208.1999511719</ele>
        <time>2019-10-07T10:00:20Z</time>
      </trkpt>
      <trkpt lat="46.06856" lon="6.12038">
        <ele>1206.1999511719</ele>
        <time>2019-10-07T10:00:24Z</time>
      </trkpt>
      <trkpt lat="46.06866" lon="6.11999">
        <ele>1204.4000244141</ele>
        <time>2019-10-07T10:00:27Z</time>
      </trkpt>
      <trkpt lat="46.06869" lon="6.1196">
        <ele>1203</ele>
        <time>2019-10-07T10:00:30Z</time>
      </trkpt>
      <trkpt lat="46.06868" lon="6.1189">
        <ele>1200</ele>
        <time>2019-10-07T10:00:35Z</time>
      </trkpt>
      <trkpt lat="46.06873" lon="6.11856">
        <ele>1198</ele>
        <time>2019-10-07T10:00:38Z</time>
      </trkpt>
      <trkpt lat="46.06905" lon="6.11814">
        <ele>1195</ele>
        <time>2019-10-07T10:00:43Z</time>
      </trkpt>
      <trkpt lat="46.0693" lon="6.11782">
        <ele>1192.5999755859</ele>
        <time>2019-10-07T10:00:47Z</time>
      </trkpt>
      <trkpt lat="46.06933" lon="6.11758">
        <ele>1190.8000488281</ele>
        <time>2019-10-07T10:00:50Z</time>
      </trkpt>
      <trkpt lat="46.06925" lon="6.11722">
        <ele>1189.1999511719</ele>
        <time>2019-10-07T10:00:54Z</time>
      </trkpt>
      <trkpt lat="46.06918" lon="6.11693">
        <ele>1187</ele>
        <time>2019-10-07T10:00:57Z</time>
      </trkpt>
      <trkpt lat="46.06886" lon="6.1168">
        <ele>1185.1999511719</ele>
        <time>2019-10-07T10:01:01Z</time>
      </trkpt>
      <trkpt lat="46.06844" lon="6.11673">
        <ele>1183.1999511719</ele>
        <time>2019-10-07T10:01:06Z</time>
      </trkpt>
      <trkpt lat="46.0681" lon="6.11686">
        <ele>1181</ele>
        <time>2019-10-07T10:01:10Z</time>
      </trkpt>
      <trkpt lat="46.06785" lon="6.11697">
        <ele>1179.1999511719</ele>
        <time>2019-10-07T10:01:13Z</time>
      </trkpt>
      <trkpt lat="46.06746" lon="6.1171">
        <ele>1176.8000488281</ele>
        <time>2019-10-07T10:01:17Z</time>
      </trkpt>
      <trkpt lat="46.06703" lon="6.11723">
        <ele>1175</ele>
        <time>2019-10-07T10:01:21Z</time>
      </trkpt>
      <trkpt lat="46.06646" lon="6.11742">
        <ele>1171.8000488281</ele>
        <time>2019-10-07T10:01:26Z</time>
      </trkpt>
      <trkpt lat="46.06624" lon="6.11756">
        <ele>1170.1999511719</ele>
        <time>2019-10-07T10:01:28Z</time>
      </trkpt>
      <trkpt lat="46.06589" lon="6.11762">
        <ele>1167.4000244141</ele>
        <time>2019-10-07T10:01:32Z</time>
      </trkpt>
      <trkpt lat="46.06569" lon="6.11727">
        <ele>1164.4000244141</ele>
        <time>2019-10-07T10:01:36Z</time>
      </trkpt>
      <trkpt lat="46.06557" lon="6.11706">
        <ele>1162.5999755859</ele>
        <time>2019-10-07T10:01:38Z</time>
      </trkpt>
      <trkpt lat="46.06538" lon="6.11654">
        <ele>1159.4000244141</ele>
        <time>2019-10-07T10:01:42Z</time>
      </trkpt>
      <trkpt lat="46.06513" lon="6.11585">
        <ele>1157.1999511719</ele>
        <time>2019-10-07T10:01:47Z</time>
      </trkpt>
      <trkpt lat="46.06487" lon="6.11499">
        <ele>1153.5999755859</ele>
        <time>2019-10-07T10:01:53Z</time>
      </trkpt>
      <trkpt lat="46.06476" lon="6.11454">
        <ele>1151.5999755859</ele>
        <time>2019-10-07T10:01:56Z</time>
      </trkpt>
      <trkpt lat="46.06461" lon="6.11394">
        <ele>1148.4000244141</ele>
        <time>2019-10-07T10:02:00Z</time>
      </trkpt>
      <trkpt lat="46.06447" lon="6.11336">
        <ele>1145.4000244141</ele>
        <time>2019-10-07T10:02:04Z</time>
      </trkpt>
      <trkpt lat="46.0643" lon="6.11284">
        <ele>1142.8000488281</ele>
        <time>2019-10-07T10:02:08Z</time>
      </trkpt>
      <trkpt lat="46.06413" lon="6.11234">
        <ele>1139.8000488281</ele>
        <time>2019-10-07T10:02:12Z</time>
      </trkpt>
      <trkpt lat="46.0641" lon="6.11195">
        <ele>1137.4000244141</ele>
        <time>2019-10-07T10:02:15Z</time>
      </trkpt>
      <trkpt lat="46.06409" lon="6.1117">
        <ele>1135.5999755859</ele>
        <time>2019-10-07T10:02:17Z</time>
      </trkpt>
      <trkpt lat="46.06379" lon="6.11129">
        <ele>1132.1999511719</ele>
        <time>2019-10-07T10:02:22Z</time>
      </trkpt>
      <trkpt lat="46.06343" lon="6.11104">
        <ele>1129.1999511719</ele>
        <time>2019-10-07T10:02:26Z</time>
      </trkpt>
      <trkpt lat="46.06297" lon="6.11072">
        <ele>1126</ele>
        <time>2019-10-07T10:02:31Z</time>
      </trkpt>
      <trkpt lat="46.06285" lon="6.11044">
        <ele>1125.1999511719</ele>
        <time>2019-10-07T10:02:33Z</time>
      </trkpt>
      <trkpt lat="46.06275" lon="6.11017">
        <ele>1123.8000488281</ele>
        <time>2019-10-07T10:02:35Z</time>
      </trkpt>
      <trkpt lat="46.0624" lon="6.10941">
        <ele>1119.1999511719</ele>
        <time>2019-10-07T10:02:41Z</time>
      </trkpt>
      <trkpt lat="46.06213" lon="6.10914">
        <ele>1117.1999511719</ele>
        <time>2019-10-07T10:02:44Z</time>
      </trkpt>
      <trkpt lat="46.06173" lon="6.10842">
        <ele>1113</ele>
        <time>2019-10-07T10:02:50Z</time>
      </trkpt>
      <trkpt lat="46.06154" lon="6.10808">
        <ele>1111</ele>
        <time>2019-10-07T10:02:53Z</time>
      </trkpt>
      <trkpt lat="46.0613" lon="6.1079">
        <ele>1108.4000244141</ele>
        <time>2019-10-07T10:02:56Z</time>
      </trkpt>
      <trkpt lat="46.06099" lon="6.10775">
        <ele>1106.5999755859</ele>
        <time>2019-10-07T10:02:59Z</time>
      </trkpt>
      <trkpt lat="46.06039" lon="6.10732">
        <ele>1102.4000244141</ele>
        <time>2019-10-07T10:03:05Z</time>
      </trkpt>
      <trkpt lat="46.05999" lon="6.10698">
        <ele>1100</ele>
        <time>2019-10-07T10:03:09Z</time>
      </trkpt>
      <trkpt lat="46.05961" lon="6.1065">
        <ele>1096.1999511719</ele>
        <time>2019-10-07T10:03:14Z</time>
      </trkpt>
      <trkpt lat="46.05958" lon="6.10619">
        <ele>1094.4000244141</ele>
        <time>2019-10-07T10:03:16Z</time>
      </trkpt>
      <trkpt lat="46.05936" lon="6.10558">
        <ele>1090.5999755859</ele>
        <time>2019-10-07T10:03:21Z</time>
      </trkpt>
      <trkpt lat="46.05912" lon="6.10567">
        <ele>1088.4000244141</ele>
        <time>2019-10-07T10:03:25Z</time>
      </trkpt>
      <trkpt lat="46.05901" lon="6.10583">
        <ele>1086.8000488281</ele>
        <time>2019-10-07T10:03:27Z</time>
      </trkpt>
      <trkpt lat="46.05902" lon="6.1062">
        <ele>1084.8000488281</ele>
        <time>2019-10-07T10:03:31Z</time>
      </trkpt>
      <trkpt lat="46.05913" lon="6.10658">
        <ele>1082.8000488281</ele>
        <time>2019-10-07T10:03:34Z</time>
      </trkpt>
      <trkpt lat="46.05914" lon="6.10712">
        <ele>1081.1999511719</ele>
        <time>2019-10-07T10:03:38Z</time>
      </trkpt>
      <trkpt lat="46.05912" lon="6.10739">
        <ele>1080.4000244141</ele>
        <time>2019-10-07T10:03:40Z</time>
      </trkpt>
      <trkpt lat="46.05908" lon="6.1081">
        <ele>1078</ele>
        <time>2019-10-07T10:03:45Z</time>
      </trkpt>
      <trkpt lat="46.05912" lon="6.10865">
        <ele>1076.1999511719</ele>
        <time>2019-10-07T10:03:49Z</time>
      </trkpt>
      <trkpt lat="46.05923" lon="6.10926">
        <ele>1073.4000244141</ele>
        <time>2019-10-07T10:03:54Z</time>
      </trkpt>
      <trkpt lat="46.05924" lon="6.10954">
        <ele>1072</ele>
        <time>2019-10-07T10:03:57Z</time>
      </trkpt>
      <trkpt lat="46.05895" lon="6.10971">
        <ele>1070.4000244141</ele>
        <time>2019-10-07T10:04:01Z</time>
      </trkpt>
      <trkpt lat="46.05882" lon="6.10944">
        <ele>1069.1999511719</ele>
        <time>2019-10-07T10:04:03Z</time>
      </trkpt>
      <trkpt lat="46.05855" lon="6.10881">
        <ele>1066.1999511719</ele>
        <time>2019-10-07T10:04:09Z</time>
      </trkpt>
      <trkpt lat="46.05841" lon="6.10848">
        <ele>1064.4000244141</ele>
        <time>2019-10-07T10:04:12Z</time>
      </trkpt>
      <trkpt lat="46.05833" lon="6.10827">
        <ele>1064</ele>
        <time>2019-10-07T10:04:14Z</time>
      </trkpt>
      <trkpt lat="46.05815" lon="6.10771">
        <ele>1061.4000244141</ele>
        <time>2019-10-07T10:04:19Z</time>
      </trkpt>
      <trkpt lat="46.0581" lon="6.10737">
        <ele>1059.5999755859</ele>
        <time>2019-10-07T10:04:22Z</time>
      </trkpt>
      <trkpt lat="46.05794" lon="6.10677">
        <ele>1056.4000244141</ele>
        <time>2019-10-07T10:04:27Z</time>
      </trkpt>
      <trkpt lat="46.05769" lon="6.10634">
        <ele>1054</ele>
        <time>2019-10-07T10:04:31Z</time>
      </trkpt>
      <trkpt lat="46.05738" lon="6.10603">
        <ele>1051.4000244141</ele>
        <time>2019-10-07T10:04:35Z</time>
      </trkpt>
      <trkpt lat="46.05721" lon="6.10608">
        <ele>1050</ele>
        <time>2019-10-07T10:04:38Z</time>
      </trkpt>
      <trkpt lat="46.0571" lon="6.1063">
        <ele>1048.8000488281</ele>
        <time>2019-10-07T10:04:41Z</time>
      </trkpt>
      <trkpt lat="46.05713" lon="6.10651">
        <ele>1047.8000488281</ele>
        <time>2019-10-07T10:04:43Z</time>
      </trkpt>
      <trkpt lat="46.05727" lon="6.10681">
        <ele>1045.8000488281</ele>
        <time>2019-10-07T10:04:46Z</time>
      </trkpt>
      <trkpt lat="46.05734" lon="6.10724">
        <ele>1044</ele>
        <time>2019-10-07T10:04:50Z</time>
      </trkpt>
      <trkpt lat="46.05738" lon="6.10765">
        <ele>1041.8000488281</ele>
        <time>2019-10-07T10:04:54Z</time>
      </trkpt>
      <trkpt lat="46.0574" lon="6.10794">
        <ele>1040.4000244141</ele>
        <time>2019-10-07T10:04:57Z</time>
      </trkpt>
      <trkpt lat="46.05747" lon="6.10816">
        <ele>1039</ele>
        <time>2019-10-07T10:04:59Z</time>
      </trkpt>
      <trkpt lat="46.05766" lon="6.10869">
        <ele>1036</ele>
        <time>2019-10-07T10:05:04Z</time>
      </trkpt>
      <trkpt lat="46.05764" lon="6.10922">
        <ele>1034.4000244141</ele>
        <time>2019-10-07T10:05:08Z</time>
      </trkpt>
      <trkpt lat="46.05754" lon="6.10986">
        <ele>1030.5999755859</ele>
        <time>2019-10-07T10:05:14Z</time>
      </trkpt>
      <trkpt lat="46.05737" lon="6.1099">
        <ele>1029.4000244141</ele>
        <time>2019-10-07T10:05:16Z</time>
      </trkpt>
      <trkpt lat="46.05723" lon="6.10972">
        <ele>1027.5999755859</ele>
        <time>2019-10-07T10:05:19Z</time>
      </trkpt>
      <trkpt lat="46.05718" lon="6.10941">
        <ele>1025.8000488281</ele>
        <time>2019-10-07T10:05:22Z</time>
      </trkpt>
      <trkpt lat="46.0572" lon="6.1088">
        <ele>1023</ele>
        <time>2019-10-07T10:05:27Z</time>
      </trkpt>
      <trkpt lat="46.05714" lon="6.10859">
        <ele>1021.799987793</ele>
        <time>2019-10-07T10:05:29Z</time>
      </trkpt>
      <trkpt lat="46.0569" lon="6.1085">
        <ele>1020.200012207</ele>
        <time>2019-10-07T10:05:33Z</time>
      </trkpt>
      <trkpt lat="46.05676" lon="6.10869">
        <ele>1018.799987793</ele>
        <time>2019-10-07T10:05:36Z</time>
      </trkpt>
      <trkpt lat="46.0567" lon="6.10903">
        <ele>1017.200012207</ele>
        <time>2019-10-07T10:05:39Z</time>
      </trkpt>
      <trkpt lat="46.05667" lon="6.1092">
        <ele>1015.799987793</ele>
        <time>2019-10-07T10:05:41Z</time>
      </trkpt>
      <trkpt lat="46.05649" lon="6.10925">
        <ele>1014.5999755859</ele>
        <time>2019-10-07T10:05:44Z</time>
      </trkpt>
      <trkpt lat="46.05637" lon="6.10917">
        <ele>1013.799987793</ele>
        <time>2019-10-07T10:05:46Z</time>
      </trkpt>
      <trkpt lat="46.05615" lon="6.10903">
        <ele>1012.4000244141</ele>
        <time>2019-10-07T10:05:49Z</time>
      </trkpt>
      <trkpt lat="46.05585" lon="6.10927">
        <ele>1010.200012207</ele>
        <time>2019-10-07T10:05:53Z</time>
      </trkpt>
      <trkpt lat="46.05583" lon="6.10957">
        <ele>1009.200012207</ele>
        <time>2019-10-07T10:05:56Z</time>
      </trkpt>
      <trkpt lat="46.05557" lon="6.10994">
        <ele>1006</ele>
        <time>2019-10-07T10:06:02Z</time>
      </trkpt>
      <trkpt lat="46.05545" lon="6.10989">
        <ele>1004.5999755859</ele>
        <time>2019-10-07T10:06:04Z</time>
      </trkpt>
      <trkpt lat="46.05529" lon="6.10953">
        <ele>1002.200012207</ele>
        <time>2019-10-07T10:06:08Z</time>
      </trkpt>
      <trkpt lat="46.05525" lon="6.10929">
        <ele>1001.200012207</ele>
        <time>2019-10-07T10:06:10Z</time>
      </trkpt>
      <trkpt lat="46.05514" lon="6.10863">
        <ele>998.79998779297</ele>
        <time>2019-10-07T10:06:15Z</time>
      </trkpt>
      <trkpt lat="46.05504" lon="6.10837">
        <ele>997.59997558594</ele>
        <time>2019-10-07T10:06:17Z</time>
      </trkpt>
      <trkpt lat="46.05471" lon="6.10815">
        <ele>996.20001220703</ele>
        <time>2019-10-07T10:06:21Z</time>
      </trkpt>
      <trkpt lat="46.05455" lon="6.1082">
        <ele>995.20001220703</ele>
        <time>2019-10-07T10:06:23Z</time>
      </trkpt>
      <trkpt lat="46.05419" lon="6.10833">
        <ele>992.40002441406</ele>
        <time>2019-10-07T10:06:27Z</time>
      </trkpt>
      <trkpt lat="46.05392" lon="6.10847">
        <ele>990</ele>
        <time>2019-10-07T10:06:30Z</time>
      </trkpt>
      <trkpt lat="46.05367" lon="6.10857">
        <ele>988.20001220703</ele>
        <time>2019-10-07T10:06:33Z</time>
      </trkpt>
      <trkpt lat="46.05343" lon="6.10857">
        <ele>986.20001220703</ele>
        <time>2019-10-07T10:06:37Z</time>
      </trkpt>
      <trkpt lat="46.05333" lon="6.10839">
        <ele>985</ele>
        <time>2019-10-07T10:06:39Z</time>
      </trkpt>
      <trkpt lat="46.0533" lon="6.10776">
        <ele>983</ele>
        <time>2019-10-07T10:06:45Z</time>
      </trkpt>
      <trkpt lat="46.05329" lon="6.10738">
        <ele>981.79998779297</ele>
        <time>2019-10-07T10:06:48Z</time>
      </trkpt>
      <trkpt lat="46.05329" lon="6.10697">
        <ele>979.40002441406</ele>
        <time>2019-10-07T10:06:54Z</time>
      </trkpt>
      <trkpt lat="46.05329" lon="6.10694">
        <ele>975</ele>
        <time>2019-10-07T10:07:15Z</time>
      </trkpt>
      <trkpt lat="46.05329" lon="6.10718">
        <ele>975.20001220703</ele>
        <time>2019-10-07T10:07:27Z</time>
      </trkpt>
      <trkpt lat="46.05329" lon="6.10726">
        <ele>975.20001220703</ele>
        <time>2019-10-07T10:07:30Z</time>
      </trkpt>
      <trkpt lat="46.0533" lon="6.10756">
        <ele>976</ele>
        <time>2019-10-07T10:07:37Z</time>
      </trkpt>
      <trkpt lat="46.0533" lon="6.10769">
        <ele>976.59997558594</ele>
        <time>2019-10-07T10:07:40Z</time>
      </trkpt>
      <trkpt lat="46.0533" lon="6.10796">
        <ele>977.59997558594</ele>
        <time>2019-10-07T10:07:45Z</time>
      </trkpt>
      <trkpt lat="46.05331" lon="6.10822">
        <ele>979.20001220703</ele>
        <time>2019-10-07T10:07:51Z</time>
      </trkpt>
      <trkpt lat="46.05351" lon="6.10857">
        <ele>980.79998779297</ele>
        <time>2019-10-07T10:07:58Z</time>
      </trkpt>
      <trkpt lat="46.05375" lon="6.10856">
        <ele>982</ele>
        <time>2019-10-07T10:08:07Z</time>
      </trkpt>
      <trkpt lat="46.05401" lon="6.10842">
        <ele>983.79998779297</ele>
        <time>2019-10-07T10:08:17Z</time>
      </trkpt>
      <trkpt lat="46.05414" lon="6.10816">
        <ele>984.59997558594</ele>
        <time>2019-10-07T10:08:25Z</time>
      </trkpt>
      <trkpt lat="46.05413" lon="6.10771">
        <ele>986.40002441406</ele>
        <time>2019-10-07T10:08:36Z</time>
      </trkpt>
      <trkpt lat="46.05411" lon="6.10701">
        <ele>988</ele>
        <time>2019-10-07T10:08:49Z</time>
      </trkpt>
      <trkpt lat="46.0541" lon="6.10687">
        <ele>988.20001220703</ele>
        <time>2019-10-07T10:08:52Z</time>
      </trkpt>
      <trkpt lat="46.05399" lon="6.10626">
        <ele>990</ele>
        <time>2019-10-07T10:09:04Z</time>
      </trkpt>
      <trkpt lat="46.05383" lon="6.10608">
        <ele>990.79998779297</ele>
        <time>2019-10-07T10:09:11Z</time>
      </trkpt>
      <trkpt lat="46.05349" lon="6.1058">
        <ele>992.59997558594</ele>
        <time>2019-10-07T10:09:23Z</time>
      </trkpt>
      <trkpt lat="46.05353" lon="6.10548">
        <ele>993.79998779297</ele>
        <time>2019-10-07T10:09:29Z</time>
      </trkpt>
      <trkpt lat="46.05383" lon="6.10524">
        <ele>996.79998779297</ele>
        <time>2019-10-07T10:09:43Z</time>
      </trkpt>
      <trkpt lat="46.05399" lon="6.10527">
        <ele>998</ele>
        <time>2019-10-07T10:09:49Z</time>
      </trkpt>
      <trkpt lat="46.0542" lon="6.10525">
        <ele>998.79998779297</ele>
        <time>2019-10-07T10:09:56Z</time>
      </trkpt>
      <trkpt lat="46.05457" lon="6.10497">
        <ele>1000.799987793</ele>
        <time>2019-10-07T10:10:09Z</time>
      </trkpt>
      <trkpt lat="46.05477" lon="6.10482">
        <ele>1002</ele>
        <time>2019-10-07T10:10:17Z</time>
      </trkpt>
      <trkpt lat="46.05493" lon="6.1047">
        <ele>1003.4000244141</ele>
        <time>2019-10-07T10:10:24Z</time>
      </trkpt>
      <trkpt lat="46.05503" lon="6.1046">
        <ele>1004.200012207</ele>
        <time>2019-10-07T10:10:28Z</time>
      </trkpt>
      <trkpt lat="46.05526" lon="6.10417">
        <ele>1007.200012207</ele>
        <time>2019-10-07T10:10:40Z</time>
      </trkpt>
      <trkpt lat="46.05533" lon="6.10398">
        <ele>1008.200012207</ele>
        <time>2019-10-07T10:10:46Z</time>
      </trkpt>
      <trkpt lat="46.05549" lon="6.10352">
        <ele>1010.200012207</ele>
        <time>2019-10-07T10:10:56Z</time>
      </trkpt>
      <trkpt lat="46.05564" lon="6.103">
        <ele>1011.200012207</ele>
        <time>2019-10-07T10:11:06Z</time>
      </trkpt>
      <trkpt lat="46.05581" lon="6.1024">
        <ele>1012.5999755859</ele>
        <time>2019-10-07T10:11:17Z</time>
      </trkpt>
      <trkpt lat="46.05586" lon="6.10225">
        <ele>1012.5999755859</ele>
        <time>2019-10-07T10:11:20Z</time>
      </trkpt>
      <trkpt lat="46.05605" lon="6.10155">
        <ele>1014</ele>
        <time>2019-10-07T10:11:33Z</time>
      </trkpt>
      <trkpt lat="46.0561" lon="6.10118">
        <ele>1014.4000244141</ele>
        <time>2019-10-07T10:11:39Z</time>
      </trkpt>
      <trkpt lat="46.05609" lon="6.10059">
        <ele>1014</ele>
        <time>2019-10-07T10:11:47Z</time>
      </trkpt>
      <trkpt lat="46.05606" lon="6.09994">
        <ele>1013.200012207</ele>
        <time>2019-10-07T10:11:55Z</time>
      </trkpt>
      <trkpt lat="46.05602" lon="6.09939">
        <ele>1012.200012207</ele>
        <time>2019-10-07T10:12:01Z</time>
      </trkpt>
      <trkpt lat="46.05587" lon="6.09889">
        <ele>1012</ele>
        <time>2019-10-07T10:12:08Z</time>
      </trkpt>
      <trkpt lat="46.05582" lon="6.09868">
        <ele>1012</ele>
        <time>2019-10-07T10:12:11Z</time>
      </trkpt>
      <trkpt lat="46.05582" lon="6.09828">
        <ele>1012.4000244141</ele>
        <time>2019-10-07T10:12:18Z</time>
      </trkpt>
      <trkpt lat="46.05591" lon="6.09801">
        <ele>1013.5999755859</ele>
        <time>2019-10-07T10:12:24Z</time>
      </trkpt>
      <trkpt lat="46.05602" lon="6.09775">
        <ele>1015.4000244141</ele>
        <time>2019-10-07T10:12:31Z</time>
      </trkpt>
      <trkpt lat="46.05615" lon="6.09757">
        <ele>1017</ele>
        <time>2019-10-07T10:12:36Z</time>
      </trkpt>
      <trkpt lat="46.05634" lon="6.09733">
        <ele>1018.799987793</ele>
        <time>2019-10-07T10:12:44Z</time>
      </trkpt>
      <trkpt lat="46.05644" lon="6.09718">
        <ele>1019.799987793</ele>
        <time>2019-10-07T10:12:49Z</time>
      </trkpt>
      <trkpt lat="46.05658" lon="6.09687">
        <ele>1020</ele>
        <time>2019-10-07T10:12:55Z</time>
      </trkpt>
      <trkpt lat="46.05673" lon="6.09653">
        <ele>1019.799987793</ele>
        <time>2019-10-07T10:13:00Z</time>
      </trkpt>
      <trkpt lat="46.05702" lon="6.09622">
        <ele>1018.799987793</ele>
        <time>2019-10-07T10:13:05Z</time>
      </trkpt>
      <trkpt lat="46.05717" lon="6.09591">
        <ele>1018.4000244141</ele>
        <time>2019-10-07T10:13:08Z</time>
      </trkpt>
      <trkpt lat="46.0575" lon="6.0956">
        <ele>1016.799987793</ele>
        <time>2019-10-07T10:13:12Z</time>
      </trkpt>
      <trkpt lat="46.05777" lon="6.09548">
        <ele>1015</ele>
        <time>2019-10-07T10:13:15Z</time>
      </trkpt>
      <trkpt lat="46.058" lon="6.09539">
        <ele>1014</ele>
        <time>2019-10-07T10:13:17Z</time>
      </trkpt>
      <trkpt lat="46.05837" lon="6.09524">
        <ele>1011.799987793</ele>
        <time>2019-10-07T10:13:20Z</time>
      </trkpt>
      <trkpt lat="46.05862" lon="6.09514">
        <ele>1010</ele>
        <time>2019-10-07T10:13:22Z</time>
      </trkpt>
      <trkpt lat="46.059" lon="6.09498">
        <ele>1005.4000244141</ele>
        <time>2019-10-07T10:13:25Z</time>
      </trkpt>
      <trkpt lat="46.05934" lon="6.09484">
        <ele>1000.4000244141</ele>
        <time>2019-10-07T10:13:28Z</time>
      </trkpt>
      <trkpt lat="46.05964" lon="6.0946">
        <ele>997.59997558594</ele>
        <time>2019-10-07T10:13:31Z</time>
      </trkpt>
      <trkpt lat="46.05996" lon="6.09435">
        <ele>992.79998779297</ele>
        <time>2019-10-07T10:13:34Z</time>
      </trkpt>
      <trkpt lat="46.06026" lon="6.09405">
        <ele>989.59997558594</ele>
        <time>2019-10-07T10:13:37Z</time>
      </trkpt>
      <trkpt lat="46.06044" lon="6.09385">
        <ele>987.79998779297</ele>
        <time>2019-10-07T10:13:39Z</time>
      </trkpt>
      <trkpt lat="46.06071" lon="6.09356">
        <ele>984.20001220703</ele>
        <time>2019-10-07T10:13:42Z</time>
      </trkpt>
      <trkpt lat="46.06091" lon="6.09335">
        <ele>982</ele>
        <time>2019-10-07T10:13:44Z</time>
      </trkpt>
      <trkpt lat="46.06113" lon="6.09316">
        <ele>979.59997558594</ele>
        <time>2019-10-07T10:13:46Z</time>
      </trkpt>
      <trkpt lat="46.0615" lon="6.09298">
        <ele>975.59997558594</ele>
        <time>2019-10-07T10:13:49Z</time>
      </trkpt>
      <trkpt lat="46.06172" lon="6.09287">
        <ele>973</ele>
        <time>2019-10-07T10:13:51Z</time>
      </trkpt>
      <trkpt lat="46.06229" lon="6.09295">
        <ele>967.20001220703</ele>
        <time>2019-10-07T10:13:56Z</time>
      </trkpt>
      <trkpt lat="46.06252" lon="6.09298">
        <ele>964.40002441406</ele>
        <time>2019-10-07T10:13:58Z</time>
      </trkpt>
      <trkpt lat="46.06289" lon="6.09303">
        <ele>959.79998779297</ele>
        <time>2019-10-07T10:14:01Z</time>
      </trkpt>
      <trkpt lat="46.06313" lon="6.09306">
        <ele>957.40002441406</ele>
        <time>2019-10-07T10:14:03Z</time>
      </trkpt>
      <trkpt lat="46.06351" lon="6.09306">
        <ele>953</ele>
        <time>2019-10-07T10:14:06Z</time>
      </trkpt>
      <trkpt lat="46.06376" lon="6.09307">
        <ele>950.20001220703</ele>
        <time>2019-10-07T10:14:08Z</time>
      </trkpt>
      <trkpt lat="46.06413" lon="6.09293">
        <ele>946.20001220703</ele>
        <time>2019-10-07T10:14:11Z</time>
      </trkpt>
      <trkpt lat="46.06437" lon="6.09284">
        <ele>943.59997558594</ele>
        <time>2019-10-07T10:14:13Z</time>
      </trkpt>
      <trkpt lat="46.06466" lon="6.09272">
        <ele>939.40002441406</ele>
        <time>2019-10-07T10:14:16Z</time>
      </trkpt>
      <trkpt lat="46.06485" lon="6.09269">
        <ele>936.40002441406</ele>
        <time>2019-10-07T10:14:18Z</time>
      </trkpt>
      <trkpt lat="46.06525" lon="6.0929">
        <ele>931.20001220703</ele>
        <time>2019-10-07T10:14:22Z</time>
      </trkpt>
      <trkpt lat="46.06546" lon="6.09305">
        <ele>928.40002441406</ele>
        <time>2019-10-07T10:14:24Z</time>
      </trkpt>
      <trkpt lat="46.06567" lon="6.0932">
        <ele>925.59997558594</ele>
        <time>2019-10-07T10:14:26Z</time>
      </trkpt>
      <trkpt lat="46.06599" lon="6.09343">
        <ele>921.59997558594</ele>
        <time>2019-10-07T10:14:29Z</time>
      </trkpt>
      <trkpt lat="46.06619" lon="6.09357">
        <ele>919.20001220703</ele>
        <time>2019-10-07T10:14:31Z</time>
      </trkpt>
      <trkpt lat="46.06649" lon="6.09377">
        <ele>915.59997558594</ele>
        <time>2019-10-07T10:14:34Z</time>
      </trkpt>
      <trkpt lat="46.06665" lon="6.09387">
        <ele>912.79998779297</ele>
        <time>2019-10-07T10:14:36Z</time>
      </trkpt>
      <trkpt lat="46.06691" lon="6.09377">
        <ele>906.40002441406</ele>
        <time>2019-10-07T10:14:41Z</time>
      </trkpt>
      <trkpt lat="46.06691" lon="6.09337">
        <ele>901.20001220703</ele>
        <time>2019-10-07T10:14:45Z</time>
      </trkpt>
      <trkpt lat="46.06658" lon="6.0926">
        <ele>895.59997558594</ele>
        <time>2019-10-07T10:14:51Z</time>
      </trkpt>
      <trkpt lat="46.06639" lon="6.09203">
        <ele>892.40002441406</ele>
        <time>2019-10-07T10:14:55Z</time>
      </trkpt>
      <trkpt lat="46.06647" lon="6.09147">
        <ele>890</ele>
        <time>2019-10-07T10:14:59Z</time>
      </trkpt>
      <trkpt lat="46.06648" lon="6.09112">
        <ele>887.79998779297</ele>
        <time>2019-10-07T10:15:02Z</time>
      </trkpt>
      <trkpt lat="46.0662" lon="6.09067">
        <ele>883.40002441406</ele>
        <time>2019-10-07T10:15:07Z</time>
      </trkpt>
      <trkpt lat="46.06605" lon="6.09047">
        <ele>881.59997558594</ele>
        <time>2019-10-07T10:15:09Z</time>
      </trkpt>
      <trkpt lat="46.06577" lon="6.09008">
        <ele>879</ele>
        <time>2019-10-07T10:15:13Z</time>
      </trkpt>
      <trkpt lat="46.06558" lon="6.08982">
        <ele>875.79998779297</ele>
        <time>2019-10-07T10:15:16Z</time>
      </trkpt>
      <trkpt lat="46.06545" lon="6.08966">
        <ele>873.79998779297</ele>
        <time>2019-10-07T10:15:18Z</time>
      </trkpt>
      <trkpt lat="46.06517" lon="6.08933">
        <ele>868</ele>
        <time>2019-10-07T10:15:23Z</time>
      </trkpt>
      <trkpt lat="46.06507" lon="6.0891">
        <ele>864.59997558594</ele>
        <time>2019-10-07T10:15:26Z</time>
      </trkpt>
      <trkpt lat="46.06503" lon="6.08887">
        <ele>861.40002441406</ele>
        <time>2019-10-07T10:15:29Z</time>
      </trkpt>
      <trkpt lat="46.06502" lon="6.08878">
        <ele>859.59997558594</ele>
        <time>2019-10-07T10:15:31Z</time>
      </trkpt>
      <trkpt lat="46.065" lon="6.08864">
        <ele>854.79998779297</ele>
        <time>2019-10-07T10:15:37Z</time>
      </trkpt>
      <trkpt lat="46.06491" lon="6.08861">
        <ele>852.20001220703</ele>
        <time>2019-10-07T10:15:40Z</time>
      </trkpt>
      <trkpt lat="46.06463" lon="6.08865">
        <ele>850</ele>
        <time>2019-10-07T10:15:45Z</time>
      </trkpt>
      <trkpt lat="46.06444" lon="6.08864">
        <ele>849.59997558594</ele>
        <time>2019-10-07T10:15:48Z</time>
      </trkpt>
      <trkpt lat="46.06392" lon="6.0886">
        <ele>847.20001220703</ele>
        <time>2019-10-07T10:15:55Z</time>
      </trkpt>
      <trkpt lat="46.06343" lon="6.08851">
        <ele>845.40002441406</ele>
        <time>2019-10-07T10:16:01Z</time>
      </trkpt>
      <trkpt lat="46.06308" lon="6.08844">
        <ele>844</ele>
        <time>2019-10-07T10:16:06Z</time>
      </trkpt>
      <trkpt lat="46.063" lon="6.08842">
        <ele>841.59997558594</ele>
        <time>2019-10-07T10:16:45Z</time>
      </trkpt>
      <trkpt lat="46.06305" lon="6.08845">
        <ele>841.40002441406</ele>
        <time>2019-10-07T10:16:48Z</time>
      </trkpt>
      <trkpt lat="46.06342" lon="6.08851">
        <ele>841.59997558594</ele>
        <time>2019-10-07T10:17:00Z</time>
      </trkpt>
      <trkpt lat="46.06372" lon="6.08856">
        <ele>842</ele>
        <time>2019-10-07T10:17:06Z</time>
      </trkpt>
      <trkpt lat="46.06406" lon="6.08862">
        <ele>843</ele>
        <time>2019-10-07T10:17:14Z</time>
      </trkpt>
      <trkpt lat="46.06413" lon="6.08862">
        <ele>843.20001220703</ele>
        <time>2019-10-07T10:17:16Z</time>
      </trkpt>
      <trkpt lat="46.06438" lon="6.08864">
        <ele>844.59997558594</ele>
        <time>2019-10-07T10:17:24Z</time>
      </trkpt>
      <trkpt lat="46.06461" lon="6.08865">
        <ele>846</ele>
        <time>2019-10-07T10:17:32Z</time>
      </trkpt>
      <trkpt lat="46.065" lon="6.08863">
        <ele>847.79998779297</ele>
        <time>2019-10-07T10:17:45Z</time>
      </trkpt>
      <trkpt lat="46.06536" lon="6.08857">
        <ele>849.59997558594</ele>
        <time>2019-10-07T10:17:58Z</time>
      </trkpt>
      <trkpt lat="46.06634" lon="6.08843">
        <ele>849.59997558594</ele>
        <time>2019-10-07T10:18:20Z</time>
      </trkpt>
      <trkpt lat="46.06645" lon="6.08836">
        <ele>849.79998779297</ele>
        <time>2019-10-07T10:18:23Z</time>
      </trkpt>
      <trkpt lat="46.06657" lon="6.08817">
        <ele>850.20001220703</ele>
        <time>2019-10-07T10:18:27Z</time>
      </trkpt>
      <trkpt lat="46.06683" lon="6.08767">
        <ele>852.20001220703</ele>
        <time>2019-10-07T10:18:39Z</time>
      </trkpt>
      <trkpt lat="46.06691" lon="6.08741">
        <ele>853.40002441406</ele>
        <time>2019-10-07T10:18:45Z</time>
      </trkpt>
      <trkpt lat="46.06704" lon="6.08701">
        <ele>855.40002441406</ele>
        <time>2019-10-07T10:18:55Z</time>
      </trkpt>
      <trkpt lat="46.06695" lon="6.08679">
        <ele>856.40002441406</ele>
        <time>2019-10-07T10:19:00Z</time>
      </trkpt>
      <trkpt lat="46.06664" lon="6.08574">
        <ele>856.79998779297</ele>
        <time>2019-10-07T10:19:17Z</time>
      </trkpt>
      <trkpt lat="46.06661" lon="6.08524">
        <ele>856.79998779297</ele>
        <time>2019-10-07T10:19:25Z</time>
      </trkpt>
      <trkpt lat="46.0666" lon="6.08486">
        <ele>856.59997558594</ele>
        <time>2019-10-07T10:19:30Z</time>
      </trkpt>
      <trkpt lat="46.0666" lon="6.0845">
        <ele>856.59997558594</ele>
        <time>2019-10-07T10:19:34Z</time>
      </trkpt>
      <trkpt lat="46.06671" lon="6.08404">
        <ele>855.79998779297</ele>
        <time>2019-10-07T10:19:39Z</time>
      </trkpt>
      <trkpt lat="46.06702" lon="6.08345">
        <ele>853.79998779297</ele>
        <time>2019-10-07T10:19:46Z</time>
      </trkpt>
      <trkpt lat="46.06741" lon="6.08304">
        <ele>851.59997558594</ele>
        <time>2019-10-07T10:19:53Z</time>
      </trkpt>
      <trkpt lat="46.06777" lon="6.08316">
        <ele>850.20001220703</ele>
        <time>2019-10-07T10:19:57Z</time>
      </trkpt>
      <trkpt lat="46.06834" lon="6.08352">
        <ele>847.79998779297</ele>
        <time>2019-10-07T10:20:03Z</time>
      </trkpt>
      <trkpt lat="46.0687" lon="6.08386">
        <ele>844.79998779297</ele>
        <time>2019-10-07T10:20:07Z</time>
      </trkpt>
      <trkpt lat="46.06897" lon="6.08412">
        <ele>841.79998779297</ele>
        <time>2019-10-07T10:20:10Z</time>
      </trkpt>
      <trkpt lat="46.06938" lon="6.08437">
        <ele>837.79998779297</ele>
        <time>2019-10-07T10:20:14Z</time>
      </trkpt>
      <trkpt lat="46.06977" lon="6.0847">
        <ele>834.79998779297</ele>
        <time>2019-10-07T10:20:18Z</time>
      </trkpt>
      <trkpt lat="46.07007" lon="6.08499">
        <ele>831.79998779297</ele>
        <time>2019-10-07T10:20:21Z</time>
      </trkpt>
      <trkpt lat="46.07032" lon="6.08535">
        <ele>828.59997558594</ele>
        <time>2019-10-07T10:20:24Z</time>
      </trkpt>
      <trkpt lat="46.07059" lon="6.08589">
        <ele>824.59997558594</ele>
        <time>2019-10-07T10:20:28Z</time>
      </trkpt>
      <trkpt lat="46.07077" lon="6.08631">
        <ele>821.20001220703</ele>
        <time>2019-10-07T10:20:31Z</time>
      </trkpt>
      <trkpt lat="46.07095" lon="6.0866">
        <ele>818</ele>
        <time>2019-10-07T10:20:34Z</time>
      </trkpt>
      <trkpt lat="46.07116" lon="6.08669">
        <ele>815.59997558594</ele>
        <time>2019-10-07T10:20:36Z</time>
      </trkpt>
      <trkpt lat="46.07156" lon="6.08684">
        <ele>811.79998779297</ele>
        <time>2019-10-07T10:20:40Z</time>
      </trkpt>
      <trkpt lat="46.07208" lon="6.08695">
        <ele>807.79998779297</ele>
        <time>2019-10-07T10:20:45Z</time>
      </trkpt>
      <trkpt lat="46.0725" lon="6.08701">
        <ele>804</ele>
        <time>2019-10-07T10:20:49Z</time>
      </trkpt>
      <trkpt lat="46.07272" lon="6.08704">
        <ele>802</ele>
        <time>2019-10-07T10:20:51Z</time>
      </trkpt>
      <trkpt lat="46.07302" lon="6.08709">
        <ele>799.20001220703</ele>
        <time>2019-10-07T10:20:54Z</time>
      </trkpt>
      <trkpt lat="46.07327" lon="6.08714">
        <ele>796.59997558594</ele>
        <time>2019-10-07T10:20:57Z</time>
      </trkpt>
      <trkpt lat="46.07344" lon="6.08717">
        <ele>794.59997558594</ele>
        <time>2019-10-07T10:20:59Z</time>
      </trkpt>
      <trkpt lat="46.07381" lon="6.0872">
        <ele>789.59997558594</ele>
        <time>2019-10-07T10:21:03Z</time>
      </trkpt>
      <trkpt lat="46.07404" lon="6.08716">
        <ele>785.79998779297</ele>
        <time>2019-10-07T10:21:06Z</time>
      </trkpt>
      <trkpt lat="46.07437" lon="6.08688">
        <ele>782.59997558594</ele>
        <time>2019-10-07T10:21:10Z</time>
      </trkpt>
      <trkpt lat="46.07451" lon="6.08686">
        <ele>778.20001220703</ele>
        <time>2019-10-07T10:21:14Z</time>
      </trkpt>
      <trkpt lat="46.07451" lon="6.08672">
        <ele>774.40002441406</ele>
        <time>2019-10-07T10:21:19Z</time>
      </trkpt>
      <trkpt lat="46.0745" lon="6.08644">
        <ele>773.20001220703</ele>
        <time>2019-10-07T10:21:23Z</time>
      </trkpt>
      <trkpt lat="46.07448" lon="6.08579">
        <ele>773.20001220703</ele>
        <time>2019-10-07T10:21:35Z</time>
      </trkpt>
      <trkpt lat="46.07448" lon="6.08576">
        <ele>773.79998779297</ele>
        <time>2019-10-07T10:22:04Z</time>
      </trkpt>
      <trkpt lat="46.07447" lon="6.08539">
        <ele>774</ele>
        <time>2019-10-07T10:22:11Z</time>
      </trkpt>
      <trkpt lat="46.0744" lon="6.08479">
        <ele>774</ele>
        <time>2019-10-07T10:22:20Z</time>
      </trkpt>
      <trkpt lat="46.0743" lon="6.08424">
        <ele>773.79998779297</ele>
        <time>2019-10-07T10:22:27Z</time>
      </trkpt>
      <trkpt lat="46.07407" lon="6.08348">
        <ele>772.79998779297</ele>
        <time>2019-10-07T10:22:36Z</time>
      </trkpt>
      <trkpt lat="46.07384" lon="6.08292">
        <ele>771.59997558594</ele>
        <time>2019-10-07T10:22:42Z</time>
      </trkpt>
      <trkpt lat="46.07324" lon="6.08188">
        <ele>769</ele>
        <time>2019-10-07T10:22:53Z</time>
      </trkpt>
      <trkpt lat="46.07276" lon="6.08128">
        <ele>766.79998779297</ele>
        <time>2019-10-07T10:23:00Z</time>
      </trkpt>
      <trkpt lat="46.07235" lon="6.08097">
        <ele>765.59997558594</ele>
        <time>2019-10-07T10:23:05Z</time>
      </trkpt>
      <trkpt lat="46.07185" lon="6.08061">
        <ele>763.59997558594</ele>
        <time>2019-10-07T10:23:11Z</time>
      </trkpt>
      <trkpt lat="46.07113" lon="6.08023">
        <ele>762</ele>
        <time>2019-10-07T10:23:19Z</time>
      </trkpt>
      <trkpt lat="46.07066" lon="6.07994">
        <ele>760</ele>
        <time>2019-10-07T10:23:24Z</time>
      </trkpt>
      <trkpt lat="46.06986" lon="6.07934">
        <ele>756.40002441406</ele>
        <time>2019-10-07T10:23:33Z</time>
      </trkpt>
      <trkpt lat="46.06959" lon="6.07914">
        <ele>755.40002441406</ele>
        <time>2019-10-07T10:23:36Z</time>
      </trkpt>
      <trkpt lat="46.06867" lon="6.07845">
        <ele>752</ele>
        <time>2019-10-07T10:23:46Z</time>
      </trkpt>
      <trkpt lat="46.0684" lon="6.07825">
        <ele>751</ele>
        <time>2019-10-07T10:23:49Z</time>
      </trkpt>
      <trkpt lat="46.06796" lon="6.07791">
        <ele>749.20001220703</ele>
        <time>2019-10-07T10:23:54Z</time>
      </trkpt>
      <trkpt lat="46.06735" lon="6.07738">
        <ele>747.20001220703</ele>
        <time>2019-10-07T10:24:02Z</time>
      </trkpt>
      <trkpt lat="46.0672" lon="6.07724">
        <ele>745.79998779297</ele>
        <time>2019-10-07T10:24:07Z</time>
      </trkpt>
      <trkpt lat="46.06726" lon="6.07729">
        <ele>742.59997558594</ele>
        <time>2019-10-07T10:25:04Z</time>
      </trkpt>
      <trkpt lat="46.06729" lon="6.07732">
        <ele>742.59997558594</ele>
        <time>2019-10-07T10:25:09Z</time>
      </trkpt>
      <trkpt lat="46.06741" lon="6.07742">
        <ele>743</ele>
        <time>2019-10-07T10:25:15Z</time>
      </trkpt>
      <trkpt lat="46.06753" lon="6.07753">
        <ele>743</ele>
        <time>2019-10-07T10:25:20Z</time>
      </trkpt>
      <trkpt lat="46.06774" lon="6.07773">
        <ele>743.59997558594</ele>
        <time>2019-10-07T10:25:26Z</time>
      </trkpt>
      <trkpt lat="46.06793" lon="6.07789">
        <ele>744.40002441406</ele>
        <time>2019-10-07T10:25:32Z</time>
      </trkpt>
      <trkpt lat="46.06814" lon="6.07765">
        <ele>745</ele>
        <time>2019-10-07T10:25:37Z</time>
      </trkpt>
      <trkpt lat="46.06829" lon="6.07772">
        <ele>745</ele>
        <time>2019-10-07T10:25:40Z</time>
      </trkpt>
      <trkpt lat="46.06869" lon="6.07798">
        <ele>745</ele>
        <time>2019-10-07T10:25:48Z</time>
      </trkpt>
      <trkpt lat="46.06917" lon="6.07817">
        <ele>744.20001220703</ele>
        <time>2019-10-07T10:25:57Z</time>
      </trkpt>
      <trkpt lat="46.06935" lon="6.07784">
        <ele>744</ele>
        <time>2019-10-07T10:26:02Z</time>
      </trkpt>
      <trkpt lat="46.06938" lon="6.07752">
        <ele>744.20001220703</ele>
        <time>2019-10-07T10:26:06Z</time>
      </trkpt>
      <trkpt lat="46.06923" lon="6.07627">
        <ele>743.79998779297</ele>
        <time>2019-10-07T10:26:20Z</time>
      </trkpt>
      <trkpt lat="46.06881" lon="6.07443">
        <ele>743.79998779297</ele>
        <time>2019-10-07T10:26:41Z</time>
      </trkpt>
      <trkpt lat="46.06851" lon="6.07366">
        <ele>743.79998779297</ele>
        <time>2019-10-07T10:26:53Z</time>
      </trkpt>
      <trkpt lat="46.0684" lon="6.07316">
        <ele>743.79998779297</ele>
        <time>2019-10-07T10:26:59Z</time>
      </trkpt>
      <trkpt lat="46.06841" lon="6.0724">
        <ele>744</ele>
        <time>2019-10-07T10:27:07Z</time>
      </trkpt>
      <trkpt lat="46.06848" lon="6.0714">
        <ele>744.40002441406</ele>
        <time>2019-10-07T10:27:19Z</time>
      </trkpt>
      <trkpt lat="46.06856" lon="6.07017">
        <ele>745</ele>
        <time>2019-10-07T10:27:35Z</time>
      </trkpt>
      <trkpt lat="46.06849" lon="6.06986">
        <ele>745</ele>
        <time>2019-10-07T10:27:40Z</time>
      </trkpt>
      <trkpt lat="46.06839" lon="6.06963">
        <ele>745.20001220703</ele>
        <time>2019-10-07T10:27:43Z</time>
      </trkpt>
      <trkpt lat="46.06822" lon="6.06921">
        <ele>745</ele>
        <time>2019-10-07T10:27:47Z</time>
      </trkpt>
      <trkpt lat="46.06811" lon="6.06881">
        <ele>744.40002441406</ele>
        <time>2019-10-07T10:27:50Z</time>
      </trkpt>
      <trkpt lat="46.06803" lon="6.06818">
        <ele>742.40002441406</ele>
        <time>2019-10-07T10:27:54Z</time>
      </trkpt>
      <trkpt lat="46.068" lon="6.06764">
        <ele>739.79998779297</ele>
        <time>2019-10-07T10:27:57Z</time>
      </trkpt>
      <trkpt lat="46.06798" lon="6.06707">
        <ele>737</ele>
        <time>2019-10-07T10:28:00Z</time>
      </trkpt>
      <trkpt lat="46.06796" lon="6.06641">
        <ele>733.59997558594</ele>
        <time>2019-10-07T10:28:04Z</time>
      </trkpt>
      <trkpt lat="46.06795" lon="6.06588">
        <ele>729.40002441406</ele>
        <time>2019-10-07T10:28:08Z</time>
      </trkpt>
      <trkpt lat="46.06803" lon="6.06557">
        <ele>726.40002441406</ele>
        <time>2019-10-07T10:28:11Z</time>
      </trkpt>
      <trkpt lat="46.06817" lon="6.06545">
        <ele>724.20001220703</ele>
        <time>2019-10-07T10:28:13Z</time>
      </trkpt>
      <trkpt lat="46.06842" lon="6.06526">
        <ele>721.40002441406</ele>
        <time>2019-10-07T10:28:16Z</time>
      </trkpt>
      <trkpt lat="46.06861" lon="6.06512">
        <ele>720.59997558594</ele>
        <time>2019-10-07T10:28:18Z</time>
      </trkpt>
      <trkpt lat="46.06877" lon="6.06469">
        <ele>718</ele>
        <time>2019-10-07T10:28:21Z</time>
      </trkpt>
      <trkpt lat="46.06886" lon="6.06443">
        <ele>716.40002441406</ele>
        <time>2019-10-07T10:28:23Z</time>
      </trkpt>
      <trkpt lat="46.06909" lon="6.0642">
        <ele>713.79998779297</ele>
        <time>2019-10-07T10:28:26Z</time>
      </trkpt>
      <trkpt lat="46.06925" lon="6.06411">
        <ele>712</ele>
        <time>2019-10-07T10:28:28Z</time>
      </trkpt>
      <trkpt lat="46.06949" lon="6.06388">
        <ele>709</ele>
        <time>2019-10-07T10:28:31Z</time>
      </trkpt>
      <trkpt lat="46.06951" lon="6.06361">
        <ele>707</ele>
        <time>2019-10-07T10:28:33Z</time>
      </trkpt>
      <trkpt lat="46.06946" lon="6.06334">
        <ele>704.79998779297</ele>
        <time>2019-10-07T10:28:35Z</time>
      </trkpt>
      <trkpt lat="46.06939" lon="6.06289">
        <ele>702</ele>
        <time>2019-10-07T10:28:38Z</time>
      </trkpt>
      <trkpt lat="46.06933" lon="6.06257">
        <ele>700.59997558594</ele>
        <time>2019-10-07T10:28:40Z</time>
      </trkpt>
      <trkpt lat="46.06918" lon="6.0617">
        <ele>697</ele>
        <time>2019-10-07T10:28:45Z</time>
      </trkpt>
      <trkpt lat="46.06909" lon="6.06116">
        <ele>694</ele>
        <time>2019-10-07T10:28:48Z</time>
      </trkpt>
      <trkpt lat="46.06897" lon="6.06045">
        <ele>690.20001220703</ele>
        <time>2019-10-07T10:28:52Z</time>
      </trkpt>
      <trkpt lat="46.06894" lon="6.05993">
        <ele>687.79998779297</ele>
        <time>2019-10-07T10:28:55Z</time>
      </trkpt>
      <trkpt lat="46.06876" lon="6.05952">
        <ele>685</ele>
        <time>2019-10-07T10:28:58Z</time>
      </trkpt>
      <trkpt lat="46.06857" lon="6.05931">
        <ele>682.20001220703</ele>
        <time>2019-10-07T10:29:00Z</time>
      </trkpt>
      <trkpt lat="46.06828" lon="6.05891">
        <ele>678.79998779297</ele>
        <time>2019-10-07T10:29:04Z</time>
      </trkpt>
      <trkpt lat="46.06822" lon="6.05875">
        <ele>677.20001220703</ele>
        <time>2019-10-07T10:29:06Z</time>
      </trkpt>
      <trkpt lat="46.06829" lon="6.05837">
        <ele>674.79998779297</ele>
        <time>2019-10-07T10:29:09Z</time>
      </trkpt>
      <trkpt lat="46.06849" lon="6.05783">
        <ele>671</ele>
        <time>2019-10-07T10:29:13Z</time>
      </trkpt>
      <trkpt lat="46.06874" lon="6.05712">
        <ele>667.20001220703</ele>
        <time>2019-10-07T10:29:18Z</time>
      </trkpt>
      <trkpt lat="46.06871" lon="6.05682">
        <ele>665.59997558594</ele>
        <time>2019-10-07T10:29:20Z</time>
      </trkpt>
      <trkpt lat="46.06868" lon="6.05648">
        <ele>664.40002441406</ele>
        <time>2019-10-07T10:29:22Z</time>
      </trkpt>
      <trkpt lat="46.06863" lon="6.05579">
        <ele>661.79998779297</ele>
        <time>2019-10-07T10:29:26Z</time>
      </trkpt>
      <trkpt lat="46.06867" lon="6.05527">
        <ele>659.20001220703</ele>
        <time>2019-10-07T10:29:29Z</time>
      </trkpt>
      <trkpt lat="46.06837" lon="6.05441">
        <ele>653.79998779297</ele>
        <time>2019-10-07T10:29:36Z</time>
      </trkpt>
      <trkpt lat="46.0683" lon="6.05414">
        <ele>651.79998779297</ele>
        <time>2019-10-07T10:29:38Z</time>
      </trkpt>
      <trkpt lat="46.06826" lon="6.05349">
        <ele>648.59997558594</ele>
        <time>2019-10-07T10:29:42Z</time>
      </trkpt>
      <trkpt lat="46.06823" lon="6.05298">
        <ele>646.20001220703</ele>
        <time>2019-10-07T10:29:45Z</time>
      </trkpt>
      <trkpt lat="46.0682" lon="6.05228">
        <ele>642.40002441406</ele>
        <time>2019-10-07T10:29:49Z</time>
      </trkpt>
      <trkpt lat="46.0682" lon="6.05176">
        <ele>639.79998779297</ele>
        <time>2019-10-07T10:29:52Z</time>
      </trkpt>
      <trkpt lat="46.06807" lon="6.05095">
        <ele>635</ele>
        <time>2019-10-07T10:29:57Z</time>
      </trkpt>
      <trkpt lat="46.06797" lon="6.05047">
        <ele>633</ele>
        <time>2019-10-07T10:30:00Z</time>
      </trkpt>
      <trkpt lat="46.06801" lon="6.05003">
        <ele>630.20001220703</ele>
        <time>2019-10-07T10:30:03Z</time>
      </trkpt>
      <trkpt lat="46.06798" lon="6.04969">
        <ele>627.59997558594</ele>
        <time>2019-10-07T10:30:06Z</time>
      </trkpt>
      <trkpt lat="46.06784" lon="6.04956">
        <ele>625.40002441406</ele>
        <time>2019-10-07T10:30:08Z</time>
      </trkpt>
      <trkpt lat="46.06757" lon="6.04968">
        <ele>622.59997558594</ele>
        <time>2019-10-07T10:30:11Z</time>
      </trkpt>
      <trkpt lat="46.06738" lon="6.04987">
        <ele>621</ele>
        <time>2019-10-07T10:30:13Z</time>
      </trkpt>
      <trkpt lat="46.06688" lon="6.05036">
        <ele>617</ele>
        <time>2019-10-07T10:30:18Z</time>
      </trkpt>
      <trkpt lat="46.06657" lon="6.05069">
        <ele>614.40002441406</ele>
        <time>2019-10-07T10:30:21Z</time>
      </trkpt>
      <trkpt lat="46.06627" lon="6.05103">
        <ele>612.79998779297</ele>
        <time>2019-10-07T10:30:24Z</time>
      </trkpt>
      <trkpt lat="46.06605" lon="6.05119">
        <ele>611</ele>
        <time>2019-10-07T10:30:26Z</time>
      </trkpt>
      <trkpt lat="46.06575" lon="6.05145">
        <ele>608</ele>
        <time>2019-10-07T10:30:29Z</time>
      </trkpt>
      <trkpt lat="46.06556" lon="6.0517">
        <ele>605</ele>
        <time>2019-10-07T10:30:32Z</time>
      </trkpt>
      <trkpt lat="46.06536" lon="6.05182">
        <ele>600</ele>
        <time>2019-10-07T10:30:36Z</time>
      </trkpt>
      <trkpt lat="46.06517" lon="6.0517">
        <ele>596.59997558594</ele>
        <time>2019-10-07T10:30:39Z</time>
      </trkpt>
      <trkpt lat="46.06486" lon="6.05149">
        <ele>592.59997558594</ele>
        <time>2019-10-07T10:30:44Z</time>
      </trkpt>
      <trkpt lat="46.0645" lon="6.05121">
        <ele>589.20001220703</ele>
        <time>2019-10-07T10:30:49Z</time>
      </trkpt>
      <trkpt lat="46.06416" lon="6.05086">
        <ele>586.40002441406</ele>
        <time>2019-10-07T10:30:54Z</time>
      </trkpt>
      <trkpt lat="46.0639" lon="6.05073">
        <ele>584</ele>
        <time>2019-10-07T10:30:58Z</time>
      </trkpt>
      <trkpt lat="46.06368" lon="6.05066">
        <ele>582</ele>
        <time>2019-10-07T10:31:01Z</time>
      </trkpt>
      <trkpt lat="46.06351" lon="6.0506">
        <ele>580</ele>
        <time>2019-10-07T10:31:04Z</time>
      </trkpt>
      <trkpt lat="46.06344" lon="6.05037">
        <ele>577.40002441406</ele>
        <time>2019-10-07T10:31:08Z</time>
      </trkpt>
      <trkpt lat="46.06369" lon="6.04957">
        <ele>573.40002441406</ele>
        <time>2019-10-07T10:31:21Z</time>
      </trkpt>
      <trkpt lat="46.06375" lon="6.04937">
        <ele>573.40002441406</ele>
        <time>2019-10-07T10:31:24Z</time>
      </trkpt>
      <trkpt lat="46.06408" lon="6.04896">
        <ele>573.59997558594</ele>
        <time>2019-10-07T10:31:32Z</time>
      </trkpt>
      <trkpt lat="46.06442" lon="6.04867">
        <ele>573.40002441406</ele>
        <time>2019-10-07T10:31:39Z</time>
      </trkpt>
      <trkpt lat="46.065" lon="6.04822">
        <ele>572.79998779297</ele>
        <time>2019-10-07T10:31:51Z</time>
      </trkpt>
      <trkpt lat="46.0652" lon="6.04801">
        <ele>573</ele>
        <time>2019-10-07T10:31:57Z</time>
      </trkpt>
      <trkpt lat="46.06534" lon="6.04764">
        <ele>574.20001220703</ele>
        <time>2019-10-07T10:32:04Z</time>
      </trkpt>
      <trkpt lat="46.06549" lon="6.0475">
        <ele>574.40002441406</ele>
        <time>2019-10-07T10:32:08Z</time>
      </trkpt>
      <trkpt lat="46.06569" lon="6.04746">
        <ele>575.59997558594</ele>
        <time>2019-10-07T10:32:14Z</time>
      </trkpt>
      <trkpt lat="46.06592" lon="6.04749">
        <ele>577.20001220703</ele>
        <time>2019-10-07T10:32:21Z</time>
      </trkpt>
      <trkpt lat="46.06611" lon="6.04751">
        <ele>579.40002441406</ele>
        <time>2019-10-07T10:32:28Z</time>
      </trkpt>
      <trkpt lat="46.06648" lon="6.04756">
        <ele>582.59997558594</ele>
        <time>2019-10-07T10:32:43Z</time>
      </trkpt>
      <trkpt lat="46.06668" lon="6.04757">
        <ele>583.79998779297</ele>
        <time>2019-10-07T10:32:51Z</time>
      </trkpt>
      <trkpt lat="46.06702" lon="6.04754">
        <ele>586.40002441406</ele>
        <time>2019-10-07T10:33:04Z</time>
      </trkpt>
      <trkpt lat="46.06719" lon="6.04745">
        <ele>587.59997558594</ele>
        <time>2019-10-07T10:33:11Z</time>
      </trkpt>
      <trkpt lat="46.0674" lon="6.04707">
        <ele>589.40002441406</ele>
        <time>2019-10-07T10:33:22Z</time>
      </trkpt>
      <trkpt lat="46.06756" lon="6.04677">
        <ele>591.40002441406</ele>
        <time>2019-10-07T10:33:31Z</time>
      </trkpt>
      <trkpt lat="46.06788" lon="6.04619">
        <ele>594.79998779297</ele>
        <time>2019-10-07T10:33:50Z</time>
      </trkpt>
      <trkpt lat="46.06801" lon="6.04595">
        <ele>596.20001220703</ele>
        <time>2019-10-07T10:33:57Z</time>
      </trkpt>
      <trkpt lat="46.06822" lon="6.04555">
        <ele>598</ele>
        <time>2019-10-07T10:34:09Z</time>
      </trkpt>
      <trkpt lat="46.06841" lon="6.04519">
        <ele>599.20001220703</ele>
        <time>2019-10-07T10:34:19Z</time>
      </trkpt>
      <trkpt lat="46.06859" lon="6.04467">
        <ele>601.79998779297</ele>
        <time>2019-10-07T10:34:33Z</time>
      </trkpt>
      <trkpt lat="46.06858" lon="6.0446">
        <ele>602</ele>
        <time>2019-10-07T10:34:35Z</time>
      </trkpt>
      <trkpt lat="46.06855" lon="6.0445">
        <ele>602.40002441406</ele>
        <time>2019-10-07T10:34:38Z</time>
      </trkpt>
      <trkpt lat="46.0685" lon="6.04437">
        <ele>605</ele>
        <time>2019-10-07T10:34:52Z</time>
      </trkpt>
      <trkpt lat="46.06849" lon="6.04434">
        <ele>605.20001220703</ele>
        <time>2019-10-07T10:45:17Z</time>
      </trkpt>
      <trkpt lat="46.06844" lon="6.04418">
        <ele>605.40002441406</ele>
        <time>2019-10-07T10:45:23Z</time>
      </trkpt>
      <trkpt lat="46.06845" lon="6.04402">
        <ele>606</ele>
        <time>2019-10-07T10:45:27Z</time>
      </trkpt>
      <trkpt lat="46.06847" lon="6.04377">
        <ele>606.20001220703</ele>
        <time>2019-10-07T10:45:33Z</time>
      </trkpt>
      <trkpt lat="46.06848" lon="6.04362">
        <ele>606.59997558594</ele>
        <time>2019-10-07T10:45:37Z</time>
      </trkpt>
      <trkpt lat="46.0685" lon="6.04327">
        <ele>608.20001220703</ele>
        <time>2019-10-07T10:45:47Z</time>
      </trkpt>
      <trkpt lat="46.06847" lon="6.04301">
        <ele>609.79998779297</ele>
        <time>2019-10-07T10:45:55Z</time>
      </trkpt>
      <trkpt lat="46.06842" lon="6.04267">
        <ele>611.79998779297</ele>
        <time>2019-10-07T10:46:05Z</time>
      </trkpt>
      <trkpt lat="46.06839" lon="6.04225">
        <ele>613.59997558594</ele>
        <time>2019-10-07T10:46:17Z</time>
      </trkpt>
      <trkpt lat="46.06846" lon="6.04182">
        <ele>616.20001220703</ele>
        <time>2019-10-07T10:46:29Z</time>
      </trkpt>
      <trkpt lat="46.06853" lon="6.04141">
        <ele>617.79998779297</ele>
        <time>2019-10-07T10:46:40Z</time>
      </trkpt>
      <trkpt lat="46.06844" lon="6.04095">
        <ele>619</ele>
        <time>2019-10-07T10:46:52Z</time>
      </trkpt>
      <trkpt lat="46.06817" lon="6.04042">
        <ele>619.40002441406</ele>
        <time>2019-10-07T10:47:05Z</time>
      </trkpt>
      <trkpt lat="46.06809" lon="6.04008">
        <ele>621</ele>
        <time>2019-10-07T10:47:13Z</time>
      </trkpt>
      <trkpt lat="46.06797" lon="6.03949">
        <ele>623.20001220703</ele>
        <time>2019-10-07T10:47:27Z</time>
      </trkpt>
      <trkpt lat="46.06789" lon="6.03916">
        <ele>624.40002441406</ele>
        <time>2019-10-07T10:47:35Z</time>
      </trkpt>
      <trkpt lat="46.0678" lon="6.0388">
        <ele>626.20001220703</ele>
        <time>2019-10-07T10:47:45Z</time>
      </trkpt>
      <trkpt lat="46.0677" lon="6.03854">
        <ele>627.40002441406</ele>
        <time>2019-10-07T10:47:53Z</time>
      </trkpt>
      <trkpt lat="46.06755" lon="6.03822">
        <ele>629</ele>
        <time>2019-10-07T10:48:03Z</time>
      </trkpt>
      <trkpt lat="46.06739" lon="6.03801">
        <ele>630.40002441406</ele>
        <time>2019-10-07T10:48:11Z</time>
      </trkpt>
      <trkpt lat="46.06725" lon="6.03781">
        <ele>632.20001220703</ele>
        <time>2019-10-07T10:48:19Z</time>
      </trkpt>
      <trkpt lat="46.06711" lon="6.03763">
        <ele>633.79998779297</ele>
        <time>2019-10-07T10:48:26Z</time>
      </trkpt>
      <trkpt lat="46.06693" lon="6.03738">
        <ele>636.40002441406</ele>
        <time>2019-10-07T10:48:36Z</time>
      </trkpt>
      <trkpt lat="46.0669" lon="6.03718">
        <ele>637.79998779297</ele>
        <time>2019-10-07T10:48:42Z</time>
      </trkpt>
      <trkpt lat="46.06687" lon="6.03696">
        <ele>639</ele>
        <time>2019-10-07T10:48:48Z</time>
      </trkpt>
      <trkpt lat="46.06683" lon="6.03664">
        <ele>641.20001220703</ele>
        <time>2019-10-07T10:48:58Z</time>
      </trkpt>
      <trkpt lat="46.0668" lon="6.03642">
        <ele>642.40002441406</ele>
        <time>2019-10-07T10:49:05Z</time>
      </trkpt>
      <trkpt lat="46.0667" lon="6.03603">
        <ele>645.20001220703</ele>
        <time>2019-10-07T10:49:18Z</time>
      </trkpt>
      <trkpt lat="46.06668" lon="6.03596">
        <ele>645.40002441406</ele>
        <time>2019-10-07T10:49:20Z</time>
      </trkpt>
      <trkpt lat="46.06657" lon="6.03563">
        <ele>646.79998779297</ele>
        <time>2019-10-07T10:49:30Z</time>
      </trkpt>
      <trkpt lat="46.0665" lon="6.03518">
        <ele>649.20001220703</ele>
        <time>2019-10-07T10:49:42Z</time>
      </trkpt>
      <trkpt lat="46.06651" lon="6.03468">
        <ele>652</ele>
        <time>2019-10-07T10:49:54Z</time>
      </trkpt>
      <trkpt lat="46.06652" lon="6.03429">
        <ele>653.40002441406</ele>
        <time>2019-10-07T10:50:03Z</time>
      </trkpt>
      <trkpt lat="46.06653" lon="6.03382">
        <ele>655.59997558594</ele>
        <time>2019-10-07T10:50:14Z</time>
      </trkpt>
      <trkpt lat="46.06658" lon="6.03348">
        <ele>657.59997558594</ele>
        <time>2019-10-07T10:50:23Z</time>
      </trkpt>
      <trkpt lat="46.06677" lon="6.03309">
        <ele>660.40002441406</ele>
        <time>2019-10-07T10:50:36Z</time>
      </trkpt>
      <trkpt lat="46.0669" lon="6.03296">
        <ele>661.59997558594</ele>
        <time>2019-10-07T10:50:42Z</time>
      </trkpt>
      <trkpt lat="46.06705" lon="6.03281">
        <ele>663</ele>
        <time>2019-10-07T10:50:49Z</time>
      </trkpt>
      <trkpt lat="46.06743" lon="6.03214">
        <ele>665.40002441406</ele>
        <time>2019-10-07T10:51:06Z</time>
      </trkpt>
      <trkpt lat="46.06753" lon="6.03198">
        <ele>665.40002441406</ele>
        <time>2019-10-07T10:51:10Z</time>
      </trkpt>
      <trkpt lat="46.06776" lon="6.03165">
        <ele>667</ele>
        <time>2019-10-07T10:51:20Z</time>
      </trkpt>
      <trkpt lat="46.06786" lon="6.03149">
        <ele>668.59997558594</ele>
        <time>2019-10-07T10:51:25Z</time>
      </trkpt>
      <trkpt lat="46.06828" lon="6.03089">
        <ele>670.40002441406</ele>
        <time>2019-10-07T10:51:40Z</time>
      </trkpt>
      <trkpt lat="46.06858" lon="6.03047">
        <ele>670.40002441406</ele>
        <time>2019-10-07T10:51:48Z</time>
      </trkpt>
      <trkpt lat="46.069" lon="6.02992">
        <ele>668.79998779297</ele>
        <time>2019-10-07T10:51:57Z</time>
      </trkpt>
      <trkpt lat="46.06923" lon="6.02972">
        <ele>668.20001220703</ele>
        <time>2019-10-07T10:52:01Z</time>
      </trkpt>
      <trkpt lat="46.06949" lon="6.0295">
        <ele>667.79998779297</ele>
        <time>2019-10-07T10:52:06Z</time>
      </trkpt>
      <trkpt lat="46.06963" lon="6.02949">
        <ele>667.79998779297</ele>
        <time>2019-10-07T10:52:09Z</time>
      </trkpt>
      <trkpt lat="46.06985" lon="6.0296">
        <ele>668.40002441406</ele>
        <time>2019-10-07T10:52:17Z</time>
      </trkpt>
      <trkpt lat="46.0701" lon="6.0295">
        <ele>670.79998779297</ele>
        <time>2019-10-07T10:52:24Z</time>
      </trkpt>
      <trkpt lat="46.07024" lon="6.02917">
        <ele>672.20001220703</ele>
        <time>2019-10-07T10:52:32Z</time>
      </trkpt>
      <trkpt lat="46.07029" lon="6.02904">
        <ele>673</ele>
        <time>2019-10-07T10:52:35Z</time>
      </trkpt>
      <trkpt lat="46.07048" lon="6.02847">
        <ele>675.40002441406</ele>
        <time>2019-10-07T10:52:47Z</time>
      </trkpt>
      <trkpt lat="46.07072" lon="6.02763">
        <ele>674.40002441406</ele>
        <time>2019-10-07T10:52:59Z</time>
      </trkpt>
      <trkpt lat="46.07078" lon="6.02747">
        <ele>674.20001220703</ele>
        <time>2019-10-07T10:53:02Z</time>
      </trkpt>
      <trkpt lat="46.07088" lon="6.02721">
        <ele>674.20001220703</ele>
        <time>2019-10-07T10:53:07Z</time>
      </trkpt>
      <trkpt lat="46.07105" lon="6.0269">
        <ele>675.59997558594</ele>
        <time>2019-10-07T10:53:14Z</time>
      </trkpt>
      <trkpt lat="46.0712" lon="6.02676">
        <ele>676.20001220703</ele>
        <time>2019-10-07T10:53:19Z</time>
      </trkpt>
      <trkpt lat="46.07144" lon="6.02666">
        <ele>677.40002441406</ele>
        <time>2019-10-07T10:53:26Z</time>
      </trkpt>
      <trkpt lat="46.07169" lon="6.02652">
        <ele>679.20001220703</ele>
        <time>2019-10-07T10:53:36Z</time>
      </trkpt>
      <trkpt lat="46.0717" lon="6.0265">
        <ele>680</ele>
        <time>2019-10-07T10:53:41Z</time>
      </trkpt>
      <trkpt lat="46.07174" lon="6.02646">
        <ele>680.20001220703</ele>
        <time>2019-10-07T10:54:51Z</time>
      </trkpt>
      <trkpt lat="46.07185" lon="6.02632">
        <ele>680.40002441406</ele>
        <time>2019-10-07T10:54:56Z</time>
      </trkpt>
      <trkpt lat="46.07204" lon="6.02609">
        <ele>679.79998779297</ele>
        <time>2019-10-07T10:55:02Z</time>
      </trkpt>
      <trkpt lat="46.07204" lon="6.02592">
        <ele>679.59997558594</ele>
        <time>2019-10-07T10:55:04Z</time>
      </trkpt>
      <trkpt lat="46.07189" lon="6.02569">
        <ele>679</ele>
        <time>2019-10-07T10:55:08Z</time>
      </trkpt>
      <trkpt lat="46.07154" lon="6.02556">
        <ele>678</ele>
        <time>2019-10-07T10:55:13Z</time>
      </trkpt>
      <trkpt lat="46.07125" lon="6.02545">
        <ele>676.59997558594</ele>
        <time>2019-10-07T10:55:17Z</time>
      </trkpt>
      <trkpt lat="46.07082" lon="6.02529">
        <ele>674.59997558594</ele>
        <time>2019-10-07T10:55:23Z</time>
      </trkpt>
      <trkpt lat="46.0706" lon="6.02519">
        <ele>673.40002441406</ele>
        <time>2019-10-07T10:55:26Z</time>
      </trkpt>
      <trkpt lat="46.07035" lon="6.02483">
        <ele>672.20001220703</ele>
        <time>2019-10-07T10:55:30Z</time>
      </trkpt>
      <trkpt lat="46.07014" lon="6.02452">
        <ele>671.20001220703</ele>
        <time>2019-10-07T10:55:33Z</time>
      </trkpt>
      <trkpt lat="46.06966" lon="6.02371">
        <ele>666.40002441406</ele>
        <time>2019-10-07T10:55:40Z</time>
      </trkpt>
      <trkpt lat="46.06955" lon="6.02345">
        <ele>665.20001220703</ele>
        <time>2019-10-07T10:55:42Z</time>
      </trkpt>
      <trkpt lat="46.06926" lon="6.02265">
        <ele>661.79998779297</ele>
        <time>2019-10-07T10:55:48Z</time>
      </trkpt>
      <trkpt lat="46.06893" lon="6.02174">
        <ele>658</ele>
        <time>2019-10-07T10:55:55Z</time>
      </trkpt>
      <trkpt lat="46.06874" lon="6.02106">
        <ele>656</ele>
        <time>2019-10-07T10:56:00Z</time>
      </trkpt>
      <trkpt lat="46.06857" lon="6.02076">
        <ele>654.79998779297</ele>
        <time>2019-10-07T10:56:03Z</time>
      </trkpt>
      <trkpt lat="46.06835" lon="6.02053">
        <ele>653</ele>
        <time>2019-10-07T10:56:06Z</time>
      </trkpt>
      <trkpt lat="46.06772" lon="6.02003">
        <ele>649.40002441406</ele>
        <time>2019-10-07T10:56:13Z</time>
      </trkpt>
      <trkpt lat="46.06744" lon="6.01983">
        <ele>648.20001220703</ele>
        <time>2019-10-07T10:56:16Z</time>
      </trkpt>
      <trkpt lat="46.06703" lon="6.01966">
        <ele>646.40002441406</ele>
        <time>2019-10-07T10:56:20Z</time>
      </trkpt>
      <trkpt lat="46.06651" lon="6.01944">
        <ele>643.59997558594</ele>
        <time>2019-10-07T10:56:25Z</time>
      </trkpt>
      <trkpt lat="46.06598" lon="6.01926">
        <ele>640.59997558594</ele>
        <time>2019-10-07T10:56:30Z</time>
      </trkpt>
      <trkpt lat="46.06543" lon="6.01908">
        <ele>637.59997558594</ele>
        <time>2019-10-07T10:56:35Z</time>
      </trkpt>
      <trkpt lat="46.06478" lon="6.01887">
        <ele>633.59997558594</ele>
        <time>2019-10-07T10:56:41Z</time>
      </trkpt>
      <trkpt lat="46.06421" lon="6.01872">
        <ele>631</ele>
        <time>2019-10-07T10:56:46Z</time>
      </trkpt>
      <trkpt lat="46.0633" lon="6.01852">
        <ele>626.20001220703</ele>
        <time>2019-10-07T10:56:54Z</time>
      </trkpt>
      <trkpt lat="46.06308" lon="6.01847">
        <ele>624.79998779297</ele>
        <time>2019-10-07T10:56:56Z</time>
      </trkpt>
      <trkpt lat="46.06198" lon="6.01822">
        <ele>620</ele>
        <time>2019-10-07T10:57:07Z</time>
      </trkpt>
      <trkpt lat="46.0615" lon="6.01813">
        <ele>618.79998779297</ele>
        <time>2019-10-07T10:57:12Z</time>
      </trkpt>
      <trkpt lat="46.06102" lon="6.0182">
        <ele>618</ele>
        <time>2019-10-07T10:57:17Z</time>
      </trkpt>
      <trkpt lat="46.06051" lon="6.01837">
        <ele>616.20001220703</ele>
        <time>2019-10-07T10:57:22Z</time>
      </trkpt>
      <trkpt lat="46.05989" lon="6.01858">
        <ele>613.40002441406</ele>
        <time>2019-10-07T10:57:28Z</time>
      </trkpt>
      <trkpt lat="46.05937" lon="6.0185">
        <ele>610.79998779297</ele>
        <time>2019-10-07T10:57:33Z</time>
      </trkpt>
      <trkpt lat="46.05906" lon="6.01844">
        <ele>610.20001220703</ele>
        <time>2019-10-07T10:57:36Z</time>
      </trkpt>
      <trkpt lat="46.05847" lon="6.0182">
        <ele>608.20001220703</ele>
        <time>2019-10-07T10:57:42Z</time>
      </trkpt>
      <trkpt lat="46.0579" lon="6.01787">
        <ele>605</ele>
        <time>2019-10-07T10:57:48Z</time>
      </trkpt>
      <trkpt lat="46.05727" lon="6.01746">
        <ele>602.40002441406</ele>
        <time>2019-10-07T10:57:55Z</time>
      </trkpt>
      <trkpt lat="46.05691" lon="6.01717">
        <ele>600.79998779297</ele>
        <time>2019-10-07T10:57:59Z</time>
      </trkpt>
      <trkpt lat="46.05637" lon="6.0167">
        <ele>598.40002441406</ele>
        <time>2019-10-07T10:58:05Z</time>
      </trkpt>
      <trkpt lat="46.05603" lon="6.01619">
        <ele>596</ele>
        <time>2019-10-07T10:58:10Z</time>
      </trkpt>
      <trkpt lat="46.05539" lon="6.01522">
        <ele>591.79998779297</ele>
        <time>2019-10-07T10:58:20Z</time>
      </trkpt>
      <trkpt lat="46.05527" lon="6.01504">
        <ele>591.20001220703</ele>
        <time>2019-10-07T10:58:22Z</time>
      </trkpt>
      <trkpt lat="46.05501" lon="6.01463">
        <ele>590.59997558594</ele>
        <time>2019-10-07T10:58:29Z</time>
      </trkpt>
      <trkpt lat="46.05484" lon="6.01439">
        <ele>589.40002441406</ele>
        <time>2019-10-07T10:58:34Z</time>
      </trkpt>
      <trkpt lat="46.05453" lon="6.01412">
        <ele>588.40002441406</ele>
        <time>2019-10-07T10:58:40Z</time>
      </trkpt>
      <trkpt lat="46.05404" lon="6.01372">
        <ele>587.59997558594</ele>
        <time>2019-10-07T10:58:49Z</time>
      </trkpt>
      <trkpt lat="46.05369" lon="6.01344">
        <ele>586</ele>
        <time>2019-10-07T10:58:55Z</time>
      </trkpt>
      <trkpt lat="46.05321" lon="6.01309">
        <ele>584</ele>
        <time>2019-10-07T10:59:03Z</time>
      </trkpt>
      <trkpt lat="46.0528" lon="6.01279">
        <ele>582.79998779297</ele>
        <time>2019-10-07T10:59:10Z</time>
      </trkpt>
      <trkpt lat="46.05202" lon="6.01253">
        <ele>580.40002441406</ele>
        <time>2019-10-07T10:59:22Z</time>
      </trkpt>
      <trkpt lat="46.05165" lon="6.01258">
        <ele>579.59997558594</ele>
        <time>2019-10-07T10:59:27Z</time>
      </trkpt>
      <trkpt lat="46.05121" lon="6.01264">
        <ele>579</ele>
        <time>2019-10-07T10:59:32Z</time>
      </trkpt>
      <trkpt lat="46.05094" lon="6.01268">
        <ele>577.79998779297</ele>
        <time>2019-10-07T10:59:35Z</time>
      </trkpt>
      <trkpt lat="46.05057" lon="6.01273">
        <ele>575.20001220703</ele>
        <time>2019-10-07T10:59:40Z</time>
      </trkpt>
      <trkpt lat="46.05037" lon="6.01275">
        <ele>574</ele>
        <time>2019-10-07T10:59:43Z</time>
      </trkpt>
      <trkpt lat="46.05015" lon="6.01277">
        <ele>572.40002441406</ele>
        <time>2019-10-07T10:59:46Z</time>
      </trkpt>
      <trkpt lat="46.04989" lon="6.01269">
        <ele>571</ele>
        <time>2019-10-07T10:59:49Z</time>
      </trkpt>
      <trkpt lat="46.04954" lon="6.01241">
        <ele>569</ele>
        <time>2019-10-07T10:59:53Z</time>
      </trkpt>
      <trkpt lat="46.049" lon="6.01209">
        <ele>564.79998779297</ele>
        <time>2019-10-07T10:59:59Z</time>
      </trkpt>
      <trkpt lat="46.04862" lon="6.01206">
        <ele>562.20001220703</ele>
        <time>2019-10-07T11:00:03Z</time>
      </trkpt>
      <trkpt lat="46.048" lon="6.01202">
        <ele>560.79998779297</ele>
        <time>2019-10-07T11:00:09Z</time>
      </trkpt>
      <trkpt lat="46.04757" lon="6.0118">
        <ele>557.79998779297</ele>
        <time>2019-10-07T11:00:14Z</time>
      </trkpt>
      <trkpt lat="46.0472" lon="6.01143">
        <ele>557.40002441406</ele>
        <time>2019-10-07T11:00:21Z</time>
      </trkpt>
      <trkpt lat="46.04662" lon="6.01084">
        <ele>558.40002441406</ele>
        <time>2019-10-07T11:00:33Z</time>
      </trkpt>
      <trkpt lat="46.04637" lon="6.01058">
        <ele>558.79998779297</ele>
        <time>2019-10-07T11:00:39Z</time>
      </trkpt>
      <trkpt lat="46.04623" lon="6.01052">
        <ele>558.79998779297</ele>
        <time>2019-10-07T11:00:43Z</time>
      </trkpt>
      <trkpt lat="46.04607" lon="6.01045">
        <ele>559.59997558594</ele>
        <time>2019-10-07T11:00:48Z</time>
      </trkpt>
      <trkpt lat="46.04593" lon="6.01039">
        <ele>561</ele>
        <time>2019-10-07T11:00:53Z</time>
      </trkpt>
      <trkpt lat="46.04575" lon="6.01037">
        <ele>562.20001220703</ele>
        <time>2019-10-07T11:00:58Z</time>
      </trkpt>
      <trkpt lat="46.04547" lon="6.01019">
        <ele>564.40002441406</ele>
        <time>2019-10-07T11:01:06Z</time>
      </trkpt>
      <trkpt lat="46.04527" lon="6.00996">
        <ele>564.79998779297</ele>
        <time>2019-10-07T11:01:11Z</time>
      </trkpt>
      <trkpt lat="46.04463" lon="6.00937">
        <ele>563.79998779297</ele>
        <time>2019-10-07T11:01:23Z</time>
      </trkpt>
      <trkpt lat="46.04425" lon="6.00911">
        <ele>563.20001220703</ele>
        <time>2019-10-07T11:01:30Z</time>
      </trkpt>
      <trkpt lat="46.04396" lon="6.00903">
        <ele>563.59997558594</ele>
        <time>2019-10-07T11:01:37Z</time>
      </trkpt>
      <trkpt lat="46.04379" lon="6.00903">
        <ele>564.79998779297</ele>
        <time>2019-10-07T11:01:43Z</time>
      </trkpt>
      <trkpt lat="46.04357" lon="6.00903">
        <ele>567</ele>
        <time>2019-10-07T11:01:51Z</time>
      </trkpt>
      <trkpt lat="46.04335" lon="6.00893">
        <ele>568.59997558594</ele>
        <time>2019-10-07T11:01:57Z</time>
      </trkpt>
      <trkpt lat="46.04306" lon="6.00865">
        <ele>570.59997558594</ele>
        <time>2019-10-07T11:02:07Z</time>
      </trkpt>
      <trkpt lat="46.04289" lon="6.00849">
        <ele>571.79998779297</ele>
        <time>2019-10-07T11:02:13Z</time>
      </trkpt>
      <trkpt lat="46.04256" lon="6.00798">
        <ele>574.59997558594</ele>
        <time>2019-10-07T11:02:28Z</time>
      </trkpt>
      <trkpt lat="46.04227" lon="6.00758">
        <ele>575</ele>
        <time>2019-10-07T11:02:39Z</time>
      </trkpt>
      <trkpt lat="46.04207" lon="6.00738">
        <ele>575.79998779297</ele>
        <time>2019-10-07T11:02:46Z</time>
      </trkpt>
      <trkpt lat="46.04186" lon="6.00723">
        <ele>576.79998779297</ele>
        <time>2019-10-07T11:02:51Z</time>
      </trkpt>
      <trkpt lat="46.04149" lon="6.00704">
        <ele>578.20001220703</ele>
        <time>2019-10-07T11:03:01Z</time>
      </trkpt>
      <trkpt lat="46.04112" lon="6.0069">
        <ele>578.40002441406</ele>
        <time>2019-10-07T11:03:08Z</time>
      </trkpt>
      <trkpt lat="46.04067" lon="6.00683">
        <ele>579</ele>
        <time>2019-10-07T11:03:18Z</time>
      </trkpt>
      <trkpt lat="46.04024" lon="6.0068">
        <ele>579.40002441406</ele>
        <time>2019-10-07T11:03:27Z</time>
      </trkpt>
      <trkpt lat="46.03991" lon="6.00688">
        <ele>580.20001220703</ele>
        <time>2019-10-07T11:03:35Z</time>
      </trkpt>
      <trkpt lat="46.03966" lon="6.00702">
        <ele>580.79998779297</ele>
        <time>2019-10-07T11:03:42Z</time>
      </trkpt>
      <trkpt lat="46.03936" lon="6.00733">
        <ele>581.79998779297</ele>
        <time>2019-10-07T11:03:50Z</time>
      </trkpt>
      <trkpt lat="46.03891" lon="6.00784">
        <ele>583.20001220703</ele>
        <time>2019-10-07T11:04:01Z</time>
      </trkpt>
      <trkpt lat="46.0385" lon="6.00831">
        <ele>584.59997558594</ele>
        <time>2019-10-07T11:04:11Z</time>
      </trkpt>
      <trkpt lat="46.03804" lon="6.00868">
        <ele>585.79998779297</ele>
        <time>2019-10-07T11:04:21Z</time>
      </trkpt>
      <trkpt lat="46.03784" lon="6.00876">
        <ele>586.20001220703</ele>
        <time>2019-10-07T11:04:25Z</time>
      </trkpt>
      <trkpt lat="46.03715" lon="6.00852">
        <ele>587</ele>
        <time>2019-10-07T11:04:38Z</time>
      </trkpt>
      <trkpt lat="46.03689" lon="6.00828">
        <ele>587</ele>
        <time>2019-10-07T11:04:43Z</time>
      </trkpt>
      <trkpt lat="46.03654" lon="6.00767">
        <ele>586.59997558594</ele>
        <time>2019-10-07T11:04:52Z</time>
      </trkpt>
      <trkpt lat="46.0364" lon="6.00743">
        <ele>586</ele>
        <time>2019-10-07T11:04:55Z</time>
      </trkpt>
      <trkpt lat="46.03599" lon="6.00705">
        <ele>584.59997558594</ele>
        <time>2019-10-07T11:05:01Z</time>
      </trkpt>
      <trkpt lat="46.03553" lon="6.00678">
        <ele>582.40002441406</ele>
        <time>2019-10-07T11:05:07Z</time>
      </trkpt>
      <trkpt lat="46.03524" lon="6.00645">
        <ele>580.59997558594</ele>
        <time>2019-10-07T11:05:11Z</time>
      </trkpt>
      <trkpt lat="46.035" lon="6.00605">
        <ele>578.59997558594</ele>
        <time>2019-10-07T11:05:16Z</time>
      </trkpt>
      <trkpt lat="46.03495" lon="6.00577">
        <ele>575.79998779297</ele>
        <time>2019-10-07T11:05:20Z</time>
      </trkpt>
      <trkpt lat="46.0348" lon="6.00542">
        <ele>572.79998779297</ele>
        <time>2019-10-07T11:05:27Z</time>
      </trkpt>
      <trkpt lat="46.03474" lon="6.00539">
        <ele>572</ele>
        <time>2019-10-07T11:05:29Z</time>
      </trkpt>
      <trkpt lat="46.03458" lon="6.00542">
        <ele>571.59997558594</ele>
        <time>2019-10-07T11:05:32Z</time>
      </trkpt>
      <trkpt lat="46.0344" lon="6.00528">
        <ele>570.59997558594</ele>
        <time>2019-10-07T11:05:36Z</time>
      </trkpt>
      <trkpt lat="46.03431" lon="6.00513">
        <ele>569.59997558594</ele>
        <time>2019-10-07T11:05:39Z</time>
      </trkpt>
      <trkpt lat="46.03427" lon="6.00485">
        <ele>568.20001220703</ele>
        <time>2019-10-07T11:05:42Z</time>
      </trkpt>
      <trkpt lat="46.03413" lon="6.0042">
        <ele>565.79998779297</ele>
        <time>2019-10-07T11:05:50Z</time>
      </trkpt>
      <trkpt lat="46.03406" lon="6.00411">
        <ele>564.20001220703</ele>
        <time>2019-10-07T11:05:53Z</time>
      </trkpt>
      <trkpt lat="46.03395" lon="6.00394">
        <ele>562.59997558594</ele>
        <time>2019-10-07T11:05:56Z</time>
      </trkpt>
      <trkpt lat="46.03371" lon="6.00357">
        <ele>560.79998779297</ele>
        <time>2019-10-07T11:06:01Z</time>
      </trkpt>
      <trkpt lat="46.0335" lon="6.00325">
        <ele>559.40002441406</ele>
        <time>2019-10-07T11:06:05Z</time>
      </trkpt>
      <trkpt lat="46.0334" lon="6.00287">
        <ele>558</ele>
        <time>2019-10-07T11:06:09Z</time>
      </trkpt>
      <trkpt lat="46.03334" lon="6.00256">
        <ele>556.40002441406</ele>
        <time>2019-10-07T11:06:12Z</time>
      </trkpt>
      <trkpt lat="46.0332" lon="6.00231">
        <ele>554.40002441406</ele>
        <time>2019-10-07T11:06:15Z</time>
      </trkpt>
      <trkpt lat="46.03308" lon="6.00214">
        <ele>552.59997558594</ele>
        <time>2019-10-07T11:06:18Z</time>
      </trkpt>
      <trkpt lat="46.03301" lon="6.00185">
        <ele>550</ele>
        <time>2019-10-07T11:06:22Z</time>
      </trkpt>
      <trkpt lat="46.03296" lon="6.00162">
        <ele>545.59997558594</ele>
        <time>2019-10-07T11:06:30Z</time>
      </trkpt>
      <trkpt lat="46.03293" lon="6.00137">
        <ele>544.20001220703</ele>
        <time>2019-10-07T11:06:51Z</time>
      </trkpt>
      <trkpt lat="46.03295" lon="6.00112">
        <ele>544</ele>
        <time>2019-10-07T11:06:55Z</time>
      </trkpt>
      <trkpt lat="46.03308" lon="6.00053">
        <ele>544</ele>
        <time>2019-10-07T11:07:03Z</time>
      </trkpt>
      <trkpt lat="46.03322" lon="5.99995">
        <ele>544.20001220703</ele>
        <time>2019-10-07T11:07:12Z</time>
      </trkpt>
      <trkpt lat="46.03335" lon="5.99933">
        <ele>544</ele>
        <time>2019-10-07T11:07:25Z</time>
      </trkpt>
      <trkpt lat="46.03339" lon="5.9993">
        <ele>543.59997558594</ele>
        <time>2019-10-07T11:07:28Z</time>
      </trkpt>
      <trkpt lat="46.0334" lon="5.99927">
        <ele>543.40002441406</ele>
        <time>2019-10-07T11:08:24Z</time>
      </trkpt>
      <trkpt lat="46.03343" lon="5.99917">
        <ele>543.40002441406</ele>
        <time>2019-10-07T11:08:28Z</time>
      </trkpt>
      <trkpt lat="46.03359" lon="5.99859">
        <ele>543.59997558594</ele>
        <time>2019-10-07T11:08:39Z</time>
      </trkpt>
      <trkpt lat="46.03382" lon="5.99782">
        <ele>543</ele>
        <time>2019-10-07T11:08:53Z</time>
      </trkpt>
      <trkpt lat="46.03394" lon="5.9974">
        <ele>542.59997558594</ele>
        <time>2019-10-07T11:08:59Z</time>
      </trkpt>
      <trkpt lat="46.0342" lon="5.99647">
        <ele>541.79998779297</ele>
        <time>2019-10-07T11:09:11Z</time>
      </trkpt>
      <trkpt lat="46.03429" lon="5.99617">
        <ele>541.59997558594</ele>
        <time>2019-10-07T11:09:15Z</time>
      </trkpt>
      <trkpt lat="46.03463" lon="5.99542">
        <ele>540.20001220703</ele>
        <time>2019-10-07T11:09:26Z</time>
      </trkpt>
      <trkpt lat="46.03479" lon="5.9951">
        <ele>539.79998779297</ele>
        <time>2019-10-07T11:09:30Z</time>
      </trkpt>
      <trkpt lat="46.03526" lon="5.99412">
        <ele>537.20001220703</ele>
        <time>2019-10-07T11:09:41Z</time>
      </trkpt>
      <trkpt lat="46.03547" lon="5.99357">
        <ele>535.59997558594</ele>
        <time>2019-10-07T11:09:48Z</time>
      </trkpt>
      <trkpt lat="46.03564" lon="5.99272">
        <ele>534.59997558594</ele>
        <time>2019-10-07T11:09:58Z</time>
      </trkpt>
      <trkpt lat="46.03586" lon="5.9916">
        <ele>534.20001220703</ele>
        <time>2019-10-07T11:10:11Z</time>
      </trkpt>
      <trkpt lat="46.03601" lon="5.99064">
        <ele>533.59997558594</ele>
        <time>2019-10-07T11:10:21Z</time>
      </trkpt>
      <trkpt lat="46.03593" lon="5.9901">
        <ele>533</ele>
        <time>2019-10-07T11:10:26Z</time>
      </trkpt>
      <trkpt lat="46.03581" lon="5.98961">
        <ele>532.40002441406</ele>
        <time>2019-10-07T11:10:30Z</time>
      </trkpt>
      <trkpt lat="46.03566" lon="5.98897">
        <ele>530</ele>
        <time>2019-10-07T11:10:35Z</time>
      </trkpt>
      <trkpt lat="46.03557" lon="5.9886">
        <ele>528.59997558594</ele>
        <time>2019-10-07T11:10:38Z</time>
      </trkpt>
      <trkpt lat="46.03568" lon="5.98793">
        <ele>525.20001220703</ele>
        <time>2019-10-07T11:10:43Z</time>
      </trkpt>
      <trkpt lat="46.03588" lon="5.98765">
        <ele>524.20001220703</ele>
        <time>2019-10-07T11:10:46Z</time>
      </trkpt>
      <trkpt lat="46.03639" lon="5.98718">
        <ele>520.79998779297</ele>
        <time>2019-10-07T11:10:52Z</time>
      </trkpt>
      <trkpt lat="46.03664" lon="5.98694">
        <ele>518.79998779297</ele>
        <time>2019-10-07T11:10:55Z</time>
      </trkpt>
      <trkpt lat="46.03715" lon="5.98648">
        <ele>515.20001220703</ele>
        <time>2019-10-07T11:11:01Z</time>
      </trkpt>
      <trkpt lat="46.03749" lon="5.9862">
        <ele>512.20001220703</ele>
        <time>2019-10-07T11:11:05Z</time>
      </trkpt>
      <trkpt lat="46.03812" lon="5.9858">
        <ele>508.20001220703</ele>
        <time>2019-10-07T11:11:12Z</time>
      </trkpt>
      <trkpt lat="46.03832" lon="5.98568">
        <ele>507.20001220703</ele>
        <time>2019-10-07T11:11:14Z</time>
      </trkpt>
      <trkpt lat="46.0387" lon="5.98544">
        <ele>504.39999389648</ele>
        <time>2019-10-07T11:11:18Z</time>
      </trkpt>
      <trkpt lat="46.03911" lon="5.98535">
        <ele>501.39999389648</ele>
        <time>2019-10-07T11:11:22Z</time>
      </trkpt>
      <trkpt lat="46.03955" lon="5.98527">
        <ele>498.20001220703</ele>
        <time>2019-10-07T11:11:26Z</time>
      </trkpt>
      <trkpt lat="46.04008" lon="5.98552">
        <ele>493.79998779297</ele>
        <time>2019-10-07T11:11:31Z</time>
      </trkpt>
      <trkpt lat="46.04029" lon="5.98554">
        <ele>492.20001220703</ele>
        <time>2019-10-07T11:11:33Z</time>
      </trkpt>
      <trkpt lat="46.0407" lon="5.98527">
        <ele>490.60000610352</ele>
        <time>2019-10-07T11:11:37Z</time>
      </trkpt>
      <trkpt lat="46.04097" lon="5.98497">
        <ele>488</ele>
        <time>2019-10-07T11:11:40Z</time>
      </trkpt>
      <trkpt lat="46.04137" lon="5.98425">
        <ele>483.60000610352</ele>
        <time>2019-10-07T11:11:46Z</time>
      </trkpt>
      <trkpt lat="46.04149" lon="5.98399">
        <ele>482.20001220703</ele>
        <time>2019-10-07T11:11:48Z</time>
      </trkpt>
      <trkpt lat="46.04198" lon="5.98344">
        <ele>478</ele>
        <time>2019-10-07T11:11:54Z</time>
      </trkpt>
      <trkpt lat="46.0423" lon="5.98313">
        <ele>476</ele>
        <time>2019-10-07T11:11:58Z</time>
      </trkpt>
      <trkpt lat="46.04291" lon="5.98269">
        <ele>472.79998779297</ele>
        <time>2019-10-07T11:12:06Z</time>
      </trkpt>
      <trkpt lat="46.04305" lon="5.98269">
        <ele>472</ele>
        <time>2019-10-07T11:12:08Z</time>
      </trkpt>
      <trkpt lat="46.04327" lon="5.98277">
        <ele>471</ele>
        <time>2019-10-07T11:12:11Z</time>
      </trkpt>
      <trkpt lat="46.04391" lon="5.98299">
        <ele>469.20001220703</ele>
        <time>2019-10-07T11:12:20Z</time>
      </trkpt>
      <trkpt lat="46.04433" lon="5.98281">
        <ele>468.20001220703</ele>
        <time>2019-10-07T11:12:26Z</time>
      </trkpt>
      <trkpt lat="46.04501" lon="5.98252">
        <ele>466.60000610352</ele>
        <time>2019-10-07T11:12:36Z</time>
      </trkpt>
      <trkpt lat="46.04529" lon="5.9824">
        <ele>466.20001220703</ele>
        <time>2019-10-07T11:12:40Z</time>
      </trkpt>
      <trkpt lat="46.04611" lon="5.98201">
        <ele>464</ele>
        <time>2019-10-07T11:12:52Z</time>
      </trkpt>
      <trkpt lat="46.04657" lon="5.98157">
        <ele>462.79998779297</ele>
        <time>2019-10-07T11:13:00Z</time>
      </trkpt>
      <trkpt lat="46.0467" lon="5.98119">
        <ele>462</ele>
        <time>2019-10-07T11:13:05Z</time>
      </trkpt>
      <trkpt lat="46.04675" lon="5.98067">
        <ele>462.20001220703</ele>
        <time>2019-10-07T11:13:12Z</time>
      </trkpt>
      <trkpt lat="46.04679" lon="5.98031">
        <ele>463.60000610352</ele>
        <time>2019-10-07T11:13:22Z</time>
      </trkpt>
      <trkpt lat="46.04679" lon="5.9803">
        <ele>464.39999389648</ele>
        <time>2019-10-07T11:13:30Z</time>
      </trkpt>
      <trkpt lat="46.04668" lon="5.98022">
        <ele>464.60000610352</ele>
        <time>2019-10-07T11:13:36Z</time>
      </trkpt>
      <trkpt lat="46.04632" lon="5.98014">
        <ele>464.60000610352</ele>
        <time>2019-10-07T11:13:43Z</time>
      </trkpt>
      <trkpt lat="46.04551" lon="5.97995">
        <ele>463.20001220703</ele>
        <time>2019-10-07T11:13:55Z</time>
      </trkpt>
      <trkpt lat="46.04473" lon="5.97975">
        <ele>461.60000610352</ele>
        <time>2019-10-07T11:14:07Z</time>
      </trkpt>
      <trkpt lat="46.0442" lon="5.97957">
        <ele>461.79998779297</ele>
        <time>2019-10-07T11:14:16Z</time>
      </trkpt>
      <trkpt lat="46.04399" lon="5.97932">
        <ele>462.20001220703</ele>
        <time>2019-10-07T11:14:21Z</time>
      </trkpt>
      <trkpt lat="46.04378" lon="5.97902">
        <ele>463.39999389648</ele>
        <time>2019-10-07T11:14:27Z</time>
      </trkpt>
      <trkpt lat="46.04361" lon="5.97875">
        <ele>464.39999389648</ele>
        <time>2019-10-07T11:14:33Z</time>
      </trkpt>
      <trkpt lat="46.04352" lon="5.97858">
        <ele>465.20001220703</ele>
        <time>2019-10-07T11:14:37Z</time>
      </trkpt>
      <trkpt lat="46.04337" lon="5.97829">
        <ele>467.20001220703</ele>
        <time>2019-10-07T11:14:44Z</time>
      </trkpt>
      <trkpt lat="46.04321" lon="5.978">
        <ele>469</ele>
        <time>2019-10-07T11:14:51Z</time>
      </trkpt>
      <trkpt lat="46.04295" lon="5.97749">
        <ele>471.20001220703</ele>
        <time>2019-10-07T11:15:03Z</time>
      </trkpt>
      <trkpt lat="46.04275" lon="5.97711">
        <ele>473</ele>
        <time>2019-10-07T11:15:13Z</time>
      </trkpt>
      <trkpt lat="46.04214" lon="5.97613">
        <ele>476.60000610352</ele>
        <time>2019-10-07T11:15:39Z</time>
      </trkpt>
      <trkpt lat="46.0417" lon="5.97551">
        <ele>476.60000610352</ele>
        <time>2019-10-07T11:15:50Z</time>
      </trkpt>
      <trkpt lat="46.0414" lon="5.97509">
        <ele>475.60000610352</ele>
        <time>2019-10-07T11:15:56Z</time>
      </trkpt>
      <trkpt lat="46.04112" lon="5.97468">
        <ele>474.60000610352</ele>
        <time>2019-10-07T11:16:02Z</time>
      </trkpt>
      <trkpt lat="46.0407" lon="5.97409">
        <ele>474.39999389648</ele>
        <time>2019-10-07T11:16:11Z</time>
      </trkpt>
      <trkpt lat="46.04022" lon="5.9734">
        <ele>475</ele>
        <time>2019-10-07T11:16:24Z</time>
      </trkpt>
      <trkpt lat="46.04001" lon="5.97309">
        <ele>476.20001220703</ele>
        <time>2019-10-07T11:16:31Z</time>
      </trkpt>
      <trkpt lat="46.03969" lon="5.97263">
        <ele>478</ele>
        <time>2019-10-07T11:16:41Z</time>
      </trkpt>
      <trkpt lat="46.03909" lon="5.97174">
        <ele>478.20001220703</ele>
        <time>2019-10-07T11:16:57Z</time>
      </trkpt>
      <trkpt lat="46.03849" lon="5.97093">
        <ele>477.79998779297</ele>
        <time>2019-10-07T11:17:11Z</time>
      </trkpt>
      <trkpt lat="46.03826" lon="5.97082">
        <ele>477.60000610352</ele>
        <time>2019-10-07T11:17:15Z</time>
      </trkpt>
      <trkpt lat="46.03778" lon="5.97073">
        <ele>477.20001220703</ele>
        <time>2019-10-07T11:17:23Z</time>
      </trkpt>
      <trkpt lat="46.03741" lon="5.97069">
        <ele>476.39999389648</ele>
        <time>2019-10-07T11:17:30Z</time>
      </trkpt>
      <trkpt lat="46.03712" lon="5.97067">
        <ele>476</ele>
        <time>2019-10-07T11:17:35Z</time>
      </trkpt>
      <trkpt lat="46.03683" lon="5.97064">
        <ele>475.79998779297</ele>
        <time>2019-10-07T11:17:39Z</time>
      </trkpt>
      <trkpt lat="46.03616" lon="5.97058">
        <ele>473.79998779297</ele>
        <time>2019-10-07T11:17:47Z</time>
      </trkpt>
      <trkpt lat="46.03511" lon="5.97039">
        <ele>470.79998779297</ele>
        <time>2019-10-07T11:18:00Z</time>
      </trkpt>
      <trkpt lat="46.03492" lon="5.97025">
        <ele>470.79998779297</ele>
        <time>2019-10-07T11:18:03Z</time>
      </trkpt>
      <trkpt lat="46.03479" lon="5.96988">
        <ele>470.79998779297</ele>
        <time>2019-10-07T11:18:07Z</time>
      </trkpt>
      <trkpt lat="46.03475" lon="5.96942">
        <ele>470.79998779297</ele>
        <time>2019-10-07T11:18:11Z</time>
      </trkpt>
      <trkpt lat="46.03466" lon="5.96783">
        <ele>469.20001220703</ele>
        <time>2019-10-07T11:18:26Z</time>
      </trkpt>
      <trkpt lat="46.03456" lon="5.96747">
        <ele>469.20001220703</ele>
        <time>2019-10-07T11:18:31Z</time>
      </trkpt>
      <trkpt lat="46.03443" lon="5.96727">
        <ele>469.60000610352</ele>
        <time>2019-10-07T11:18:35Z</time>
      </trkpt>
      <trkpt lat="46.03422" lon="5.96709">
        <ele>470.20001220703</ele>
        <time>2019-10-07T11:18:40Z</time>
      </trkpt>
      <trkpt lat="46.03346" lon="5.96662">
        <ele>472.20001220703</ele>
        <time>2019-10-07T11:18:56Z</time>
      </trkpt>
      <trkpt lat="46.03287" lon="5.96626">
        <ele>473.20001220703</ele>
        <time>2019-10-07T11:19:08Z</time>
      </trkpt>
      <trkpt lat="46.03213" lon="5.96577">
        <ele>473</ele>
        <time>2019-10-07T11:19:22Z</time>
      </trkpt>
      <trkpt lat="46.03188" lon="5.9656">
        <ele>472.79998779297</ele>
        <time>2019-10-07T11:19:26Z</time>
      </trkpt>
      <trkpt lat="46.03138" lon="5.96527">
        <ele>471.60000610352</ele>
        <time>2019-10-07T11:19:33Z</time>
      </trkpt>
      <trkpt lat="46.03103" lon="5.96503">
        <ele>469.79998779297</ele>
        <time>2019-10-07T11:19:38Z</time>
      </trkpt>
      <trkpt lat="46.03054" lon="5.9647">
        <ele>468.79998779297</ele>
        <time>2019-10-07T11:19:45Z</time>
      </trkpt>
      <trkpt lat="46.03007" lon="5.96439">
        <ele>467.20001220703</ele>
        <time>2019-10-07T11:19:52Z</time>
      </trkpt>
      <trkpt lat="46.02973" lon="5.96416">
        <ele>466.39999389648</ele>
        <time>2019-10-07T11:19:58Z</time>
      </trkpt>
      <trkpt lat="46.02925" lon="5.96379">
        <ele>467</ele>
        <time>2019-10-07T11:20:08Z</time>
      </trkpt>
      <trkpt lat="46.02917" lon="5.96364">
        <ele>467.79998779297</ele>
        <time>2019-10-07T11:20:11Z</time>
      </trkpt>
      <trkpt lat="46.0291" lon="5.96337">
        <ele>469</ele>
        <time>2019-10-07T11:20:16Z</time>
      </trkpt>
      <trkpt lat="46.02906" lon="5.96316">
        <ele>470.20001220703</ele>
        <time>2019-10-07T11:20:20Z</time>
      </trkpt>
      <trkpt lat="46.02898" lon="5.96279">
        <ele>472.39999389648</ele>
        <time>2019-10-07T11:20:27Z</time>
      </trkpt>
      <trkpt lat="46.02894" lon="5.96254">
        <ele>473</ele>
        <time>2019-10-07T11:20:31Z</time>
      </trkpt>
      <trkpt lat="46.02881" lon="5.96162">
        <ele>474.60000610352</ele>
        <time>2019-10-07T11:20:44Z</time>
      </trkpt>
      <trkpt lat="46.02883" lon="5.9615">
        <ele>474.60000610352</ele>
        <time>2019-10-07T11:20:46Z</time>
      </trkpt>
      <trkpt lat="46.02894" lon="5.96091">
        <ele>475.79998779297</ele>
        <time>2019-10-07T11:20:56Z</time>
      </trkpt>
      <trkpt lat="46.02914" lon="5.96053">
        <ele>477</ele>
        <time>2019-10-07T11:21:03Z</time>
      </trkpt>
      <trkpt lat="46.02976" lon="5.95985">
        <ele>478.39999389648</ele>
        <time>2019-10-07T11:21:19Z</time>
      </trkpt>
      <trkpt lat="46.0299" lon="5.95949">
        <ele>478.60000610352</ele>
        <time>2019-10-07T11:21:24Z</time>
      </trkpt>
      <trkpt lat="46.03008" lon="5.95896">
        <ele>478.60000610352</ele>
        <time>2019-10-07T11:21:31Z</time>
      </trkpt>
      <trkpt lat="46.03025" lon="5.95835">
        <ele>478.79998779297</ele>
        <time>2019-10-07T11:21:39Z</time>
      </trkpt>
      <trkpt lat="46.03022" lon="5.95806">
        <ele>478.79998779297</ele>
        <time>2019-10-07T11:21:42Z</time>
      </trkpt>
      <trkpt lat="46.03012" lon="5.95647">
        <ele>479.39999389648</ele>
        <time>2019-10-07T11:22:02Z</time>
      </trkpt>
      <trkpt lat="46.03011" lon="5.95571">
        <ele>479.39999389648</ele>
        <time>2019-10-07T11:22:12Z</time>
      </trkpt>
      <trkpt lat="46.0301" lon="5.95484">
        <ele>479.20001220703</ele>
        <time>2019-10-07T11:22:22Z</time>
      </trkpt>
      <trkpt lat="46.03007" lon="5.95427">
        <ele>477.79998779297</ele>
        <time>2019-10-07T11:22:28Z</time>
      </trkpt>
      <trkpt lat="46.03003" lon="5.95367">
        <ele>477.20001220703</ele>
        <time>2019-10-07T11:22:33Z</time>
      </trkpt>
      <trkpt lat="46.02999" lon="5.95313">
        <ele>476.79998779297</ele>
        <time>2019-10-07T11:22:37Z</time>
      </trkpt>
      <trkpt lat="46.02994" lon="5.95238">
        <ele>474.20001220703</ele>
        <time>2019-10-07T11:22:42Z</time>
      </trkpt>
      <trkpt lat="46.02978" lon="5.95151">
        <ele>471.39999389648</ele>
        <time>2019-10-07T11:22:48Z</time>
      </trkpt>
      <trkpt lat="46.02965" lon="5.95092">
        <ele>470</ele>
        <time>2019-10-07T11:22:52Z</time>
      </trkpt>
      <trkpt lat="46.02946" lon="5.95028">
        <ele>467</ele>
        <time>2019-10-07T11:22:57Z</time>
      </trkpt>
      <trkpt lat="46.0293" lon="5.95014">
        <ele>465.39999389648</ele>
        <time>2019-10-07T11:22:59Z</time>
      </trkpt>
      <trkpt lat="46.0289" lon="5.9501">
        <ele>464</ele>
        <time>2019-10-07T11:23:03Z</time>
      </trkpt>
      <trkpt lat="46.02827" lon="5.95003">
        <ele>461.39999389648</ele>
        <time>2019-10-07T11:23:09Z</time>
      </trkpt>
      <trkpt lat="46.02777" lon="5.94989">
        <ele>458.20001220703</ele>
        <time>2019-10-07T11:23:14Z</time>
      </trkpt>
      <trkpt lat="46.02746" lon="5.94977">
        <ele>457</ele>
        <time>2019-10-07T11:23:17Z</time>
      </trkpt>
      <trkpt lat="46.02665" lon="5.94945">
        <ele>453.20001220703</ele>
        <time>2019-10-07T11:23:25Z</time>
      </trkpt>
      <trkpt lat="46.02634" lon="5.94932">
        <ele>452.20001220703</ele>
        <time>2019-10-07T11:23:28Z</time>
      </trkpt>
      <trkpt lat="46.02592" lon="5.94913">
        <ele>450.60000610352</ele>
        <time>2019-10-07T11:23:32Z</time>
      </trkpt>
      <trkpt lat="46.02575" lon="5.94896">
        <ele>449.60000610352</ele>
        <time>2019-10-07T11:23:34Z</time>
      </trkpt>
      <trkpt lat="46.02557" lon="5.9484">
        <ele>447.20001220703</ele>
        <time>2019-10-07T11:23:38Z</time>
      </trkpt>
      <trkpt lat="46.0255" lon="5.94797">
        <ele>445</ele>
        <time>2019-10-07T11:23:41Z</time>
      </trkpt>
      <trkpt lat="46.02534" lon="5.9471">
        <ele>442.39999389648</ele>
        <time>2019-10-07T11:23:47Z</time>
      </trkpt>
      <trkpt lat="46.02522" lon="5.94639">
        <ele>440.60000610352</ele>
        <time>2019-10-07T11:23:52Z</time>
      </trkpt>
      <trkpt lat="46.02515" lon="5.94599">
        <ele>439.39999389648</ele>
        <time>2019-10-07T11:23:55Z</time>
      </trkpt>
      <trkpt lat="46.02474" lon="5.94581">
        <ele>437.20001220703</ele>
        <time>2019-10-07T11:24:00Z</time>
      </trkpt>
      <trkpt lat="46.02436" lon="5.94581">
        <ele>436.39999389648</ele>
        <time>2019-10-07T11:24:04Z</time>
      </trkpt>
      <trkpt lat="46.02386" lon="5.94583">
        <ele>434.60000610352</ele>
        <time>2019-10-07T11:24:09Z</time>
      </trkpt>
      <trkpt lat="46.02335" lon="5.94584">
        <ele>432.20001220703</ele>
        <time>2019-10-07T11:24:14Z</time>
      </trkpt>
      <trkpt lat="46.02299" lon="5.94568">
        <ele>430.20001220703</ele>
        <time>2019-10-07T11:24:18Z</time>
      </trkpt>
      <trkpt lat="46.02281" lon="5.94535">
        <ele>428.20001220703</ele>
        <time>2019-10-07T11:24:21Z</time>
      </trkpt>
      <trkpt lat="46.02261" lon="5.94453">
        <ele>424.39999389648</ele>
        <time>2019-10-07T11:24:27Z</time>
      </trkpt>
      <trkpt lat="46.02251" lon="5.9441">
        <ele>422</ele>
        <time>2019-10-07T11:24:31Z</time>
      </trkpt>
      <trkpt lat="46.02234" lon="5.94394">
        <ele>420</ele>
        <time>2019-10-07T11:24:34Z</time>
      </trkpt>
      <trkpt lat="46.02222" lon="5.94398">
        <ele>417.79998779297</ele>
        <time>2019-10-07T11:24:37Z</time>
      </trkpt>
      <trkpt lat="46.02202" lon="5.94383">
        <ele>416.20001220703</ele>
        <time>2019-10-07T11:24:40Z</time>
      </trkpt>
      <trkpt lat="46.02188" lon="5.94356">
        <ele>415</ele>
        <time>2019-10-07T11:24:44Z</time>
      </trkpt>
      <trkpt lat="46.02151" lon="5.94333">
        <ele>412</ele>
        <time>2019-10-07T11:24:51Z</time>
      </trkpt>
      <trkpt lat="46.02143" lon="5.94311">
        <ele>412</ele>
        <time>2019-10-07T11:24:55Z</time>
      </trkpt>
      <trkpt lat="46.02121" lon="5.94293">
        <ele>412.39999389648</ele>
        <time>2019-10-07T11:25:02Z</time>
      </trkpt>
      <trkpt lat="46.02104" lon="5.94289">
        <ele>412.60000610352</ele>
        <time>2019-10-07T11:25:06Z</time>
      </trkpt>
      <trkpt lat="46.02099" lon="5.94279">
        <ele>412.60000610352</ele>
        <time>2019-10-07T11:25:08Z</time>
      </trkpt>
      <trkpt lat="46.02084" lon="5.9425">
        <ele>412.60000610352</ele>
        <time>2019-10-07T11:25:13Z</time>
      </trkpt>
      <trkpt lat="46.02078" lon="5.94224">
        <ele>412</ele>
        <time>2019-10-07T11:25:16Z</time>
      </trkpt>
      <trkpt lat="46.02081" lon="5.94184">
        <ele>409</ele>
        <time>2019-10-07T11:25:21Z</time>
      </trkpt>
      <trkpt lat="46.02078" lon="5.94174">
        <ele>407.20001220703</ele>
        <time>2019-10-07T11:25:23Z</time>
      </trkpt>
      <trkpt lat="46.02066" lon="5.94144">
        <ele>404</ele>
        <time>2019-10-07T11:25:27Z</time>
      </trkpt>
      <trkpt lat="46.02064" lon="5.94121">
        <ele>402.20001220703</ele>
        <time>2019-10-07T11:25:30Z</time>
      </trkpt>
      <trkpt lat="46.02061" lon="5.94096">
        <ele>400</ele>
        <time>2019-10-07T11:25:33Z</time>
      </trkpt>
      <trkpt lat="46.02066" lon="5.94063">
        <ele>397.20001220703</ele>
        <time>2019-10-07T11:25:38Z</time>
      </trkpt>
      <trkpt lat="46.02067" lon="5.94063">
        <ele>393</ele>
        <time>2019-10-07T11:26:39Z</time>
      </trkpt>
      <trkpt lat="46.02063" lon="5.94079">
        <ele>393</ele>
        <time>2019-10-07T11:26:45Z</time>
      </trkpt>
      <trkpt lat="46.02063" lon="5.94118">
        <ele>393.20001220703</ele>
        <time>2019-10-07T11:26:53Z</time>
      </trkpt>
      <trkpt lat="46.02065" lon="5.9414">
        <ele>394</ele>
        <time>2019-10-07T11:26:59Z</time>
      </trkpt>
      <trkpt lat="46.02063" lon="5.9415">
        <ele>394.79998779297</ele>
        <time>2019-10-07T11:27:03Z</time>
      </trkpt>
      <trkpt lat="46.02054" lon="5.94159">
        <ele>396.39999389648</ele>
        <time>2019-10-07T11:27:12Z</time>
      </trkpt>
      <trkpt lat="46.02046" lon="5.94182">
        <ele>396.39999389648</ele>
        <time>2019-10-07T11:27:17Z</time>
      </trkpt>
      <trkpt lat="46.02037" lon="5.94207">
        <ele>396</ele>
        <time>2019-10-07T11:27:23Z</time>
      </trkpt>
      <trkpt lat="46.02036" lon="5.94208">
        <ele>395.20001220703</ele>
        <time>2019-10-07T11:27:27Z</time>
      </trkpt>
      <trkpt lat="46.02045" lon="5.94184">
        <ele>394.79998779297</ele>
        <time>2019-10-07T11:27:35Z</time>
      </trkpt>
      <trkpt lat="46.02056" lon="5.94155">
        <ele>394.79998779297</ele>
        <time>2019-10-07T11:27:42Z</time>
      </trkpt>
      <trkpt lat="46.02067" lon="5.9415">
        <ele>395.39999389648</ele>
        <time>2019-10-07T11:27:47Z</time>
      </trkpt>
      <trkpt lat="46.02072" lon="5.94161">
        <ele>396.20001220703</ele>
        <time>2019-10-07T11:27:51Z</time>
      </trkpt>
      <trkpt lat="46.02079" lon="5.94174">
        <ele>398</ele>
        <time>2019-10-07T11:27:57Z</time>
      </trkpt>
      <trkpt lat="46.0208" lon="5.94191">
        <ele>399.60000610352</ele>
        <time>2019-10-07T11:28:02Z</time>
      </trkpt>
      <trkpt lat="46.02078" lon="5.94206">
        <ele>400.79998779297</ele>
        <time>2019-10-07T11:28:07Z</time>
      </trkpt>
      <trkpt lat="46.0208" lon="5.94235">
        <ele>403.20001220703</ele>
        <time>2019-10-07T11:28:17Z</time>
      </trkpt>
      <trkpt lat="46.02081" lon="5.94244">
        <ele>404.20001220703</ele>
        <time>2019-10-07T11:28:21Z</time>
      </trkpt>
      <trkpt lat="46.02092" lon="5.94265">
        <ele>406.39999389648</ele>
        <time>2019-10-07T11:28:30Z</time>
      </trkpt>
      <trkpt lat="46.021" lon="5.94281">
        <ele>408</ele>
        <time>2019-10-07T11:28:37Z</time>
      </trkpt>
      <trkpt lat="46.02115" lon="5.94292">
        <ele>410.60000610352</ele>
        <time>2019-10-07T11:28:46Z</time>
      </trkpt>
      <trkpt lat="46.02139" lon="5.94299">
        <ele>412.20001220703</ele>
        <time>2019-10-07T11:28:56Z</time>
      </trkpt>
      <trkpt lat="46.0216" lon="5.94337">
        <ele>412.79998779297</ele>
        <time>2019-10-07T11:29:04Z</time>
      </trkpt>
      <trkpt lat="46.0218" lon="5.94347">
        <ele>412.79998779297</ele>
        <time>2019-10-07T11:29:08Z</time>
      </trkpt>
      <trkpt lat="46.022" lon="5.94375">
        <ele>411.60000610352</ele>
        <time>2019-10-07T11:29:14Z</time>
      </trkpt>
      <trkpt lat="46.02205" lon="5.94391">
        <ele>411.60000610352</ele>
        <time>2019-10-07T11:29:17Z</time>
      </trkpt>
      <trkpt lat="46.02208" lon="5.9441">
        <ele>411.39999389648</ele>
        <time>2019-10-07T11:29:20Z</time>
      </trkpt>
      <trkpt lat="46.02202" lon="5.94434">
        <ele>411.39999389648</ele>
        <time>2019-10-07T11:29:24Z</time>
      </trkpt>
      <trkpt lat="46.02204" lon="5.94468">
        <ele>411.39999389648</ele>
        <time>2019-10-07T11:29:28Z</time>
      </trkpt>
      <trkpt lat="46.02191" lon="5.94517">
        <ele>410.60000610352</ele>
        <time>2019-10-07T11:29:34Z</time>
      </trkpt>
      <trkpt lat="46.02175" lon="5.94513">
        <ele>409.79998779297</ele>
        <time>2019-10-07T11:29:36Z</time>
      </trkpt>
      <trkpt lat="46.02158" lon="5.94487">
        <ele>408</ele>
        <time>2019-10-07T11:29:39Z</time>
      </trkpt>
      <trkpt lat="46.02132" lon="5.9445">
        <ele>405.79998779297</ele>
        <time>2019-10-07T11:29:43Z</time>
      </trkpt>
      <trkpt lat="46.02102" lon="5.94417">
        <ele>404</ele>
        <time>2019-10-07T11:29:47Z</time>
      </trkpt>
      <trkpt lat="46.02057" lon="5.94386">
        <ele>401.60000610352</ele>
        <time>2019-10-07T11:29:52Z</time>
      </trkpt>
      <trkpt lat="46.02022" lon="5.94355">
        <ele>399</ele>
        <time>2019-10-07T11:29:56Z</time>
      </trkpt>
      <trkpt lat="46.02" lon="5.94324">
        <ele>396.79998779297</ele>
        <time>2019-10-07T11:29:59Z</time>
      </trkpt>
      <trkpt lat="46.01982" lon="5.94262">
        <ele>393</ele>
        <time>2019-10-07T11:30:04Z</time>
      </trkpt>
      <trkpt lat="46.01979" lon="5.94234">
        <ele>391.60000610352</ele>
        <time>2019-10-07T11:30:06Z</time>
      </trkpt>
      <trkpt lat="46.01978" lon="5.94172">
        <ele>388.39999389648</ele>
        <time>2019-10-07T11:30:10Z</time>
      </trkpt>
      <trkpt lat="46.01978" lon="5.9411">
        <ele>385.79998779297</ele>
        <time>2019-10-07T11:30:14Z</time>
      </trkpt>
      <trkpt lat="46.01977" lon="5.94009">
        <ele>379.60000610352</ele>
        <time>2019-10-07T11:30:21Z</time>
      </trkpt>
      <trkpt lat="46.01976" lon="5.93934">
        <ele>375.20001220703</ele>
        <time>2019-10-07T11:30:26Z</time>
      </trkpt>
      <trkpt lat="46.01975" lon="5.93887">
        <ele>373.39999389648</ele>
        <time>2019-10-07T11:30:29Z</time>
      </trkpt>
      <trkpt lat="46.0197" lon="5.93837">
        <ele>371.39999389648</ele>
        <time>2019-10-07T11:30:32Z</time>
      </trkpt>
      <trkpt lat="46.01967" lon="5.93803">
        <ele>370</ele>
        <time>2019-10-07T11:30:34Z</time>
      </trkpt>
      <trkpt lat="46.01967" lon="5.93695">
        <ele>363.79998779297</ele>
        <time>2019-10-07T11:30:41Z</time>
      </trkpt>
      <trkpt lat="46.01971" lon="5.93625">
        <ele>358.39999389648</ele>
        <time>2019-10-07T11:30:46Z</time>
      </trkpt>
      <trkpt lat="46.01975" lon="5.93556">
        <ele>354.39999389648</ele>
        <time>2019-10-07T11:30:51Z</time>
      </trkpt>
      <trkpt lat="46.01979" lon="5.93501">
        <ele>351.79998779297</ele>
        <time>2019-10-07T11:30:55Z</time>
      </trkpt>
      <trkpt lat="46.01978" lon="5.93448">
        <ele>348.60000610352</ele>
        <time>2019-10-07T11:30:59Z</time>
      </trkpt>
      <trkpt lat="46.01978" lon="5.93414">
        <ele>346.39999389648</ele>
        <time>2019-10-07T11:31:02Z</time>
      </trkpt>
      <trkpt lat="46.01977" lon="5.93379">
        <ele>342.60000610352</ele>
        <time>2019-10-07T11:31:07Z</time>
      </trkpt>
      <trkpt lat="46.01975" lon="5.93348">
        <ele>339.20001220703</ele>
        <time>2019-10-07T11:31:11Z</time>
      </trkpt>
      <trkpt lat="46.0197" lon="5.93285">
        <ele>335.39999389648</ele>
        <time>2019-10-07T11:31:17Z</time>
      </trkpt>
      <trkpt lat="46.01968" lon="5.93252">
        <ele>334.39999389648</ele>
        <time>2019-10-07T11:31:20Z</time>
      </trkpt>
      <trkpt lat="46.01965" lon="5.9321">
        <ele>332.20001220703</ele>
        <time>2019-10-07T11:31:24Z</time>
      </trkpt>
      <trkpt lat="46.01956" lon="5.93142">
        <ele>328.60000610352</ele>
        <time>2019-10-07T11:31:31Z</time>
      </trkpt>
      <trkpt lat="46.01945" lon="5.93108">
        <ele>325.79998779297</ele>
        <time>2019-10-07T11:31:36Z</time>
      </trkpt>
      <trkpt lat="46.01941" lon="5.93072">
        <ele>322.39999389648</ele>
        <time>2019-10-07T11:31:44Z</time>
      </trkpt>
      <trkpt lat="46.0194" lon="5.93065">
        <ele>321</ele>
        <time>2019-10-07T11:31:47Z</time>
      </trkpt>
      <trkpt lat="46.01931" lon="5.93023">
        <ele>320</ele>
        <time>2019-10-07T11:31:57Z</time>
      </trkpt>
      <trkpt lat="46.01915" lon="5.92989">
        <ele>319.60000610352</ele>
        <time>2019-10-07T11:32:06Z</time>
      </trkpt>
      <trkpt lat="46.01901" lon="5.92942">
        <ele>318.79998779297</ele>
        <time>2019-10-07T11:32:15Z</time>
      </trkpt>
      <trkpt lat="46.01893" lon="5.92901">
        <ele>318.20001220703</ele>
        <time>2019-10-07T11:32:22Z</time>
      </trkpt>
      <trkpt lat="46.01882" lon="5.92829">
        <ele>317.20001220703</ele>
        <time>2019-10-07T11:32:38Z</time>
      </trkpt>
      <trkpt lat="46.01877" lon="5.92784">
        <ele>316.60000610352</ele>
        <time>2019-10-07T11:32:48Z</time>
      </trkpt>
      <trkpt lat="46.01868" lon="5.92705">
        <ele>316.20001220703</ele>
        <time>2019-10-07T11:33:13Z</time>
      </trkpt>
      <trkpt lat="46.01864" lon="5.92705">
        <ele>316.20001220703</ele>
        <time>2019-10-07T11:33:17Z</time>
      </trkpt>
      <trkpt lat="46.0187" lon="5.9272">
        <ele>316.20001220703</ele>
        <time>2019-10-07T11:33:22Z</time>
      </trkpt>
      <trkpt lat="46.01879" lon="5.92799">
        <ele>316.39999389648</ele>
        <time>2019-10-07T11:33:39Z</time>
      </trkpt>
      <trkpt lat="46.01884" lon="5.92845">
        <ele>316.39999389648</ele>
        <time>2019-10-07T11:33:48Z</time>
      </trkpt>
      <trkpt lat="46.01896" lon="5.92916">
        <ele>317</ele>
        <time>2019-10-07T11:34:05Z</time>
      </trkpt>
      <trkpt lat="46.01905" lon="5.92962">
        <ele>317.39999389648</ele>
        <time>2019-10-07T11:34:14Z</time>
      </trkpt>
      <trkpt lat="46.01929" lon="5.93019">
        <ele>318.79998779297</ele>
        <time>2019-10-07T11:34:28Z</time>
      </trkpt>
      <trkpt lat="46.01937" lon="5.93037">
        <ele>319.39999389648</ele>
        <time>2019-10-07T11:34:36Z</time>
      </trkpt>
      <trkpt lat="46.01937" lon="5.9308">
        <ele>319.60000610352</ele>
        <time>2019-10-07T11:34:47Z</time>
      </trkpt>
      <trkpt lat="46.01932" lon="5.93094">
        <ele>320.20001220703</ele>
        <time>2019-10-07T11:34:52Z</time>
      </trkpt>
      <trkpt lat="46.01927" lon="5.93147">
        <ele>320.20001220703</ele>
        <time>2019-10-07T11:35:06Z</time>
      </trkpt>
      <trkpt lat="46.01926" lon="5.93186">
        <ele>320</ele>
        <time>2019-10-07T11:35:20Z</time>
      </trkpt>
      <trkpt lat="46.01923" lon="5.9323">
        <ele>320.20001220703</ele>
        <time>2019-10-07T11:35:34Z</time>
      </trkpt>
      <trkpt lat="46.01924" lon="5.93222">
        <ele>320.20001220703</ele>
        <time>2019-10-07T11:35:38Z</time>
      </trkpt>
      <trkpt lat="46.01927" lon="5.9315">
        <ele>320.20001220703</ele>
        <time>2019-10-07T11:35:52Z</time>
      </trkpt>
      <trkpt lat="46.01932" lon="5.93097">
        <ele>320.20001220703</ele>
        <time>2019-10-07T11:36:04Z</time>
      </trkpt>
      <trkpt lat="46.01936" lon="5.93083">
        <ele>320.20001220703</ele>
        <time>2019-10-07T11:36:09Z</time>
      </trkpt>
      <trkpt lat="46.01934" lon="5.93028">
        <ele>320.39999389648</ele>
        <time>2019-10-07T11:36:21Z</time>
      </trkpt>
      <trkpt lat="46.01929" lon="5.93017">
        <ele>320.20001220703</ele>
        <time>2019-10-07T11:36:26Z</time>
      </trkpt>
      <trkpt lat="46.01933" lon="5.93008">
        <ele>319.79998779297</ele>
        <time>2019-10-07T11:36:37Z</time>
      </trkpt>
      <trkpt lat="46.01935" lon="5.93006">
        <ele>320</ele>
        <time>2019-10-07T11:36:42Z</time>
      </trkpt>
      <trkpt lat="46.01851" lon="5.92545">
        <ele>318.79998779297</ele>
        <time>2019-10-07T13:17:16Z</time>
      </trkpt>
      <trkpt lat="46.01845" lon="5.92486">
        <ele>318.39999389648</ele>
        <time>2019-10-07T13:17:24Z</time>
      </trkpt>
      <trkpt lat="46.01838" lon="5.92418">
        <ele>317.60000610352</ele>
        <time>2019-10-07T13:17:32Z</time>
      </trkpt>
      <trkpt lat="46.01831" lon="5.92332">
        <ele>317</ele>
        <time>2019-10-07T13:17:42Z</time>
      </trkpt>
      <trkpt lat="46.01838" lon="5.92232">
        <ele>315.79998779297</ele>
        <time>2019-10-07T13:17:55Z</time>
      </trkpt>
      <trkpt lat="46.01851" lon="5.92171">
        <ele>315.39999389648</ele>
        <time>2019-10-07T13:18:04Z</time>
      </trkpt>
      <trkpt lat="46.0188" lon="5.92135">
        <ele>315.39999389648</ele>
        <time>2019-10-07T13:18:12Z</time>
      </trkpt>
      <trkpt lat="46.01878" lon="5.92115">
        <ele>315.60000610352</ele>
        <time>2019-10-07T13:18:15Z</time>
      </trkpt>
      <trkpt lat="46.01868" lon="5.92106">
        <ele>316</ele>
        <time>2019-10-07T13:18:18Z</time>
      </trkpt>
      <trkpt lat="46.01836" lon="5.92109">
        <ele>316</ele>
        <time>2019-10-07T13:18:23Z</time>
      </trkpt>
      <trkpt lat="46.01822" lon="5.92101">
        <ele>316.20001220703</ele>
        <time>2019-10-07T13:18:26Z</time>
      </trkpt>
      <trkpt lat="46.01784" lon="5.92062">
        <ele>316</ele>
        <time>2019-10-07T13:18:36Z</time>
      </trkpt>
      <trkpt lat="46.01775" lon="5.92001">
        <ele>316.20001220703</ele>
        <time>2019-10-07T13:18:46Z</time>
      </trkpt>
      <trkpt lat="46.01773" lon="5.91979">
        <ele>316.79998779297</ele>
        <time>2019-10-07T13:18:52Z</time>
      </trkpt>
      <trkpt lat="46.01772" lon="5.91973">
        <ele>317.39999389648</ele>
        <time>2019-10-07T13:19:05Z</time>
      </trkpt>
      <trkpt lat="46.01792" lon="5.91925">
        <ele>317.60000610352</ele>
        <time>2019-10-07T13:19:18Z</time>
      </trkpt>
      <trkpt lat="46.01783" lon="5.9187">
        <ele>317.60000610352</ele>
        <time>2019-10-07T13:19:28Z</time>
      </trkpt>
      <trkpt lat="46.01784" lon="5.91747">
        <ele>317.79998779297</ele>
        <time>2019-10-07T13:19:48Z</time>
      </trkpt>
      <trkpt lat="46.01783" lon="5.9167">
        <ele>318</ele>
        <time>2019-10-07T13:19:59Z</time>
      </trkpt>
      <trkpt lat="46.01751" lon="5.91543">
        <ele>317.79998779297</ele>
        <time>2019-10-07T13:20:19Z</time>
      </trkpt>
      <trkpt lat="46.01737" lon="5.91492">
        <ele>318.20001220703</ele>
        <time>2019-10-07T13:20:27Z</time>
      </trkpt>
      <trkpt lat="46.0172" lon="5.91426">
        <ele>319</ele>
        <time>2019-10-07T13:20:38Z</time>
      </trkpt>
      <trkpt lat="46.01705" lon="5.91368">
        <ele>319.39999389648</ele>
        <time>2019-10-07T13:20:48Z</time>
      </trkpt>
      <trkpt lat="46.017" lon="5.91339">
        <ele>321.20001220703</ele>
        <time>2019-10-07T13:20:56Z</time>
      </trkpt>
      <trkpt lat="46.01692" lon="5.91304">
        <ele>322.79998779297</ele>
        <time>2019-10-07T13:21:06Z</time>
      </trkpt>
      <trkpt lat="46.01682" lon="5.91273">
        <ele>324.60000610352</ele>
        <time>2019-10-07T13:21:14Z</time>
      </trkpt>
      <trkpt lat="46.01663" lon="5.91232">
        <ele>327</ele>
        <time>2019-10-07T13:21:26Z</time>
      </trkpt>
      <trkpt lat="46.01656" lon="5.912">
        <ele>328.79998779297</ele>
        <time>2019-10-07T13:21:35Z</time>
      </trkpt>
      <trkpt lat="46.01664" lon="5.91182">
        <ele>329</ele>
        <time>2019-10-07T13:21:41Z</time>
      </trkpt>
      <trkpt lat="46.01673" lon="5.91177">
        <ele>329.20001220703</ele>
        <time>2019-10-07T13:21:45Z</time>
      </trkpt>
      <trkpt lat="46.01693" lon="5.91169">
        <ele>330.60000610352</ele>
        <time>2019-10-07T13:21:53Z</time>
      </trkpt>
      <trkpt lat="46.01703" lon="5.91167">
        <ele>331.79998779297</ele>
        <time>2019-10-07T13:21:58Z</time>
      </trkpt>
      <trkpt lat="46.01721" lon="5.91146">
        <ele>334.20001220703</ele>
        <time>2019-10-07T13:22:06Z</time>
      </trkpt>
      <trkpt lat="46.01733" lon="5.91122">
        <ele>335.60000610352</ele>
        <time>2019-10-07T13:22:14Z</time>
      </trkpt>
      <trkpt lat="46.01743" lon="5.91105">
        <ele>337.20001220703</ele>
        <time>2019-10-07T13:22:21Z</time>
      </trkpt>
      <trkpt lat="46.01756" lon="5.91084">
        <ele>338.39999389648</ele>
        <time>2019-10-07T13:22:29Z</time>
      </trkpt>
      <trkpt lat="46.01784" lon="5.91032">
        <ele>342</ele>
        <time>2019-10-07T13:22:46Z</time>
      </trkpt>
      <trkpt lat="46.01802" lon="5.90989">
        <ele>344.20001220703</ele>
        <time>2019-10-07T13:22:59Z</time>
      </trkpt>
      <trkpt lat="46.01809" lon="5.90972">
        <ele>344.79998779297</ele>
        <time>2019-10-07T13:23:05Z</time>
      </trkpt>
      <trkpt lat="46.01823" lon="5.90938">
        <ele>346.79998779297</ele>
        <time>2019-10-07T13:23:16Z</time>
      </trkpt>
      <trkpt lat="46.01826" lon="5.9093">
        <ele>347.79998779297</ele>
        <time>2019-10-07T13:23:21Z</time>
      </trkpt>
      <trkpt lat="46.01805" lon="5.90928">
        <ele>350.60000610352</ele>
        <time>2019-10-07T13:23:36Z</time>
      </trkpt>
      <trkpt lat="46.0179" lon="5.90949">
        <ele>352</ele>
        <time>2019-10-07T13:23:45Z</time>
      </trkpt>
      <trkpt lat="46.01764" lon="5.90978">
        <ele>353.79998779297</ele>
        <time>2019-10-07T13:23:58Z</time>
      </trkpt>
      <trkpt lat="46.01745" lon="5.90994">
        <ele>355</ele>
        <time>2019-10-07T13:24:06Z</time>
      </trkpt>
      <trkpt lat="46.01702" lon="5.91011">
        <ele>356.79998779297</ele>
        <time>2019-10-07T13:24:22Z</time>
      </trkpt>
      <trkpt lat="46.01678" lon="5.91014">
        <ele>358.39999389648</ele>
        <time>2019-10-07T13:24:31Z</time>
      </trkpt>
      <trkpt lat="46.01647" lon="5.91007">
        <ele>359.79998779297</ele>
        <time>2019-10-07T13:24:42Z</time>
      </trkpt>
      <trkpt lat="46.01643" lon="5.90998">
        <ele>360.39999389648</ele>
        <time>2019-10-07T13:24:45Z</time>
      </trkpt>
      <trkpt lat="46.01644" lon="5.90988">
        <ele>361</ele>
        <time>2019-10-07T13:24:48Z</time>
      </trkpt>
      <trkpt lat="46.01656" lon="5.9098">
        <ele>362.20001220703</ele>
        <time>2019-10-07T13:24:53Z</time>
      </trkpt>
      <trkpt lat="46.01672" lon="5.9097">
        <ele>364</ele>
        <time>2019-10-07T13:24:59Z</time>
      </trkpt>
      <trkpt lat="46.01687" lon="5.90941">
        <ele>366</ele>
        <time>2019-10-07T13:25:13Z</time>
      </trkpt>
      <trkpt lat="46.01679" lon="5.9094">
        <ele>366.60000610352</ele>
        <time>2019-10-07T13:25:18Z</time>
      </trkpt>
      <trkpt lat="46.01645" lon="5.90933">
        <ele>369.60000610352</ele>
        <time>2019-10-07T13:25:32Z</time>
      </trkpt>
      <trkpt lat="46.01634" lon="5.90933">
        <ele>370.20001220703</ele>
        <time>2019-10-07T13:25:37Z</time>
      </trkpt>
      <trkpt lat="46.01611" lon="5.90934">
        <ele>372.79998779297</ele>
        <time>2019-10-07T13:25:47Z</time>
      </trkpt>
      <trkpt lat="46.01596" lon="5.90932">
        <ele>374.20001220703</ele>
        <time>2019-10-07T13:25:54Z</time>
      </trkpt>
      <trkpt lat="46.01581" lon="5.90921">
        <ele>376.20001220703</ele>
        <time>2019-10-07T13:26:04Z</time>
      </trkpt>
      <trkpt lat="46.01559" lon="5.90907">
        <ele>379</ele>
        <time>2019-10-07T13:26:16Z</time>
      </trkpt>
      <trkpt lat="46.01536" lon="5.90904">
        <ele>380.39999389648</ele>
        <time>2019-10-07T13:26:25Z</time>
      </trkpt>
      <trkpt lat="46.01521" lon="5.90902">
        <ele>382</ele>
        <time>2019-10-07T13:26:32Z</time>
      </trkpt>
      <trkpt lat="46.01506" lon="5.90897">
        <ele>383</ele>
        <time>2019-10-07T13:26:37Z</time>
      </trkpt>
      <trkpt lat="46.01487" lon="5.90859">
        <ele>385.60000610352</ele>
        <time>2019-10-07T13:26:48Z</time>
      </trkpt>
      <trkpt lat="46.01474" lon="5.90826">
        <ele>387.39999389648</ele>
        <time>2019-10-07T13:26:57Z</time>
      </trkpt>
      <trkpt lat="46.01452" lon="5.90742">
        <ele>389</ele>
        <time>2019-10-07T13:27:16Z</time>
      </trkpt>
      <trkpt lat="46.01438" lon="5.90738">
        <ele>389</ele>
        <time>2019-10-07T13:27:20Z</time>
      </trkpt>
      <trkpt lat="46.01404" lon="5.9073">
        <ele>389.60000610352</ele>
        <time>2019-10-07T13:27:29Z</time>
      </trkpt>
      <trkpt lat="46.01367" lon="5.90726">
        <ele>391.20001220703</ele>
        <time>2019-10-07T13:27:39Z</time>
      </trkpt>
      <trkpt lat="46.01315" lon="5.90739">
        <ele>393.39999389648</ele>
        <time>2019-10-07T13:27:55Z</time>
      </trkpt>
      <trkpt lat="46.01282" lon="5.90748">
        <ele>396.39999389648</ele>
        <time>2019-10-07T13:28:06Z</time>
      </trkpt>
      <trkpt lat="46.01259" lon="5.90754">
        <ele>398.20001220703</ele>
        <time>2019-10-07T13:28:15Z</time>
      </trkpt>
      <trkpt lat="46.0123" lon="5.90762">
        <ele>400.39999389648</ele>
        <time>2019-10-07T13:28:26Z</time>
      </trkpt>
      <trkpt lat="46.0121" lon="5.90767">
        <ele>401.39999389648</ele>
        <time>2019-10-07T13:28:35Z</time>
      </trkpt>
      <trkpt lat="46.01199" lon="5.90777">
        <ele>402</ele>
        <time>2019-10-07T13:28:40Z</time>
      </trkpt>
      <trkpt lat="46.01188" lon="5.90787">
        <ele>403.60000610352</ele>
        <time>2019-10-07T13:28:47Z</time>
      </trkpt>
      <trkpt lat="46.01158" lon="5.90815">
        <ele>406.79998779297</ele>
        <time>2019-10-07T13:29:03Z</time>
      </trkpt>
      <trkpt lat="46.01145" lon="5.90829">
        <ele>408.39999389648</ele>
        <time>2019-10-07T13:29:10Z</time>
      </trkpt>
      <trkpt lat="46.01131" lon="5.90856">
        <ele>410.60000610352</ele>
        <time>2019-10-07T13:29:21Z</time>
      </trkpt>
      <trkpt lat="46.01121" lon="5.90875">
        <ele>412</ele>
        <time>2019-10-07T13:29:28Z</time>
      </trkpt>
      <trkpt lat="46.01108" lon="5.90902">
        <ele>413.79998779297</ele>
        <time>2019-10-07T13:29:37Z</time>
      </trkpt>
      <trkpt lat="46.01096" lon="5.90928">
        <ele>415</ele>
        <time>2019-10-07T13:29:45Z</time>
      </trkpt>
      <trkpt lat="46.01088" lon="5.90946">
        <ele>416.39999389648</ele>
        <time>2019-10-07T13:29:52Z</time>
      </trkpt>
      <trkpt lat="46.01078" lon="5.90966">
        <ele>418.79998779297</ele>
        <time>2019-10-07T13:30:00Z</time>
      </trkpt>
      <trkpt lat="46.01065" lon="5.90995">
        <ele>420.60000610352</ele>
        <time>2019-10-07T13:30:09Z</time>
      </trkpt>
      <trkpt lat="46.01056" lon="5.91015">
        <ele>421.79998779297</ele>
        <time>2019-10-07T13:30:15Z</time>
      </trkpt>
      <trkpt lat="46.01032" lon="5.91032">
        <ele>424.39999389648</ele>
        <time>2019-10-07T13:30:24Z</time>
      </trkpt>
      <trkpt lat="46.01015" lon="5.91027">
        <ele>426.20001220703</ele>
        <time>2019-10-07T13:30:31Z</time>
      </trkpt>
      <trkpt lat="46.01001" lon="5.91015">
        <ele>427.79998779297</ele>
        <time>2019-10-07T13:30:38Z</time>
      </trkpt>
      <trkpt lat="46.00999" lon="5.90982">
        <ele>430.79998779297</ele>
        <time>2019-10-07T13:30:49Z</time>
      </trkpt>
      <trkpt lat="46.00997" lon="5.90957">
        <ele>432.20001220703</ele>
        <time>2019-10-07T13:30:56Z</time>
      </trkpt>
      <trkpt lat="46.00984" lon="5.90922">
        <ele>434.39999389648</ele>
        <time>2019-10-07T13:31:08Z</time>
      </trkpt>
      <trkpt lat="46.0097" lon="5.90906">
        <ele>435.79998779297</ele>
        <time>2019-10-07T13:31:15Z</time>
      </trkpt>
      <trkpt lat="46.00946" lon="5.90891">
        <ele>437.60000610352</ele>
        <time>2019-10-07T13:31:26Z</time>
      </trkpt>
      <trkpt lat="46.00936" lon="5.90884">
        <ele>438.39999389648</ele>
        <time>2019-10-07T13:31:31Z</time>
      </trkpt>
      <trkpt lat="46.00903" lon="5.90866">
        <ele>442.39999389648</ele>
        <time>2019-10-07T13:31:48Z</time>
      </trkpt>
      <trkpt lat="46.00885" lon="5.90858">
        <ele>444</ele>
        <time>2019-10-07T13:31:55Z</time>
      </trkpt>
      <trkpt lat="46.00857" lon="5.90854">
        <ele>445.79998779297</ele>
        <time>2019-10-07T13:32:07Z</time>
      </trkpt>
      <trkpt lat="46.00845" lon="5.90867">
        <ele>447</ele>
        <time>2019-10-07T13:32:14Z</time>
      </trkpt>
      <trkpt lat="46.00837" lon="5.90891">
        <ele>448.20001220703</ele>
        <time>2019-10-07T13:32:21Z</time>
      </trkpt>
      <trkpt lat="46.00827" lon="5.90921">
        <ele>450.39999389648</ele>
        <time>2019-10-07T13:32:30Z</time>
      </trkpt>
      <trkpt lat="46.00802" lon="5.90954">
        <ele>454.20001220703</ele>
        <time>2019-10-07T13:32:45Z</time>
      </trkpt>
      <trkpt lat="46.00795" lon="5.90958">
        <ele>454.60000610352</ele>
        <time>2019-10-07T13:32:49Z</time>
      </trkpt>
      <trkpt lat="46.00784" lon="5.90945">
        <ele>456</ele>
        <time>2019-10-07T13:32:55Z</time>
      </trkpt>
      <trkpt lat="46.0076" lon="5.90916">
        <ele>459</ele>
        <time>2019-10-07T13:33:08Z</time>
      </trkpt>
      <trkpt lat="46.00747" lon="5.909">
        <ele>460.60000610352</ele>
        <time>2019-10-07T13:33:16Z</time>
      </trkpt>
      <trkpt lat="46.00728" lon="5.90905">
        <ele>462</ele>
        <time>2019-10-07T13:33:23Z</time>
      </trkpt>
      <trkpt lat="46.00711" lon="5.9091">
        <ele>463.79998779297</ele>
        <time>2019-10-07T13:33:31Z</time>
      </trkpt>
      <trkpt lat="46.00683" lon="5.90918">
        <ele>466.20001220703</ele>
        <time>2019-10-07T13:33:42Z</time>
      </trkpt>
      <trkpt lat="46.00669" lon="5.90922">
        <ele>467.20001220703</ele>
        <time>2019-10-07T13:33:47Z</time>
      </trkpt>
      <trkpt lat="46.00639" lon="5.90931">
        <ele>469.20001220703</ele>
        <time>2019-10-07T13:33:57Z</time>
      </trkpt>
      <trkpt lat="46.00631" lon="5.90933">
        <ele>470.39999389648</ele>
        <time>2019-10-07T13:34:01Z</time>
      </trkpt>
      <trkpt lat="46.00614" lon="5.90943">
        <ele>472.79998779297</ele>
        <time>2019-10-07T13:34:11Z</time>
      </trkpt>
      <trkpt lat="46.00606" lon="5.90958">
        <ele>474.20001220703</ele>
        <time>2019-10-07T13:34:18Z</time>
      </trkpt>
      <trkpt lat="46.00597" lon="5.90997">
        <ele>477</ele>
        <time>2019-10-07T13:34:30Z</time>
      </trkpt>
      <trkpt lat="46.00588" lon="5.91039">
        <ele>478.20001220703</ele>
        <time>2019-10-07T13:34:40Z</time>
      </trkpt>
      <trkpt lat="46.00564" lon="5.91083">
        <ele>479.79998779297</ele>
        <time>2019-10-07T13:34:51Z</time>
      </trkpt>
      <trkpt lat="46.00542" lon="5.91074">
        <ele>482</ele>
        <time>2019-10-07T13:35:00Z</time>
      </trkpt>
      <trkpt lat="46.00536" lon="5.91067">
        <ele>483</ele>
        <time>2019-10-07T13:35:07Z</time>
      </trkpt>
      <trkpt lat="46.00522" lon="5.91015">
        <ele>484.60000610352</ele>
        <time>2019-10-07T13:35:15Z</time>
      </trkpt>
      <trkpt lat="46.00513" lon="5.90979">
        <ele>485.60000610352</ele>
        <time>2019-10-07T13:35:21Z</time>
      </trkpt>
      <trkpt lat="46.00498" lon="5.90918">
        <ele>487.79998779297</ele>
        <time>2019-10-07T13:35:33Z</time>
      </trkpt>
      <trkpt lat="46.00489" lon="5.90883">
        <ele>489.20001220703</ele>
        <time>2019-10-07T13:35:40Z</time>
      </trkpt>
      <trkpt lat="46.00478" lon="5.9084">
        <ele>491.20001220703</ele>
        <time>2019-10-07T13:35:50Z</time>
      </trkpt>
      <trkpt lat="46.00469" lon="5.90804">
        <ele>492.60000610352</ele>
        <time>2019-10-07T13:35:59Z</time>
      </trkpt>
      <trkpt lat="46.00461" lon="5.90783">
        <ele>494</ele>
        <time>2019-10-07T13:36:06Z</time>
      </trkpt>
      <trkpt lat="46.0045" lon="5.90771">
        <ele>495.39999389648</ele>
        <time>2019-10-07T13:36:11Z</time>
      </trkpt>
      <trkpt lat="46.00425" lon="5.90741">
        <ele>498</ele>
        <time>2019-10-07T13:36:22Z</time>
      </trkpt>
      <trkpt lat="46.00405" lon="5.9072">
        <ele>499.79998779297</ele>
        <time>2019-10-07T13:36:30Z</time>
      </trkpt>
      <trkpt lat="46.00381" lon="5.90697">
        <ele>502.20001220703</ele>
        <time>2019-10-07T13:36:39Z</time>
      </trkpt>
      <trkpt lat="46.00358" lon="5.90676">
        <ele>504.20001220703</ele>
        <time>2019-10-07T13:36:48Z</time>
      </trkpt>
      <trkpt lat="46.00332" lon="5.90652">
        <ele>507</ele>
        <time>2019-10-07T13:36:59Z</time>
      </trkpt>
      <trkpt lat="46.00303" lon="5.90625">
        <ele>509.79998779297</ele>
        <time>2019-10-07T13:37:12Z</time>
      </trkpt>
      <trkpt lat="46.00282" lon="5.90607">
        <ele>511.60000610352</ele>
        <time>2019-10-07T13:37:21Z</time>
      </trkpt>
      <trkpt lat="46.00235" lon="5.90571">
        <ele>512.79998779297</ele>
        <time>2019-10-07T13:37:36Z</time>
      </trkpt>
      <trkpt lat="46.00214" lon="5.90554">
        <ele>512.79998779297</ele>
        <time>2019-10-07T13:37:42Z</time>
      </trkpt>
      <trkpt lat="46.00177" lon="5.90538">
        <ele>513</ele>
        <time>2019-10-07T13:37:51Z</time>
      </trkpt>
      <trkpt lat="46.00123" lon="5.90522">
        <ele>512.59997558594</ele>
        <time>2019-10-07T13:38:02Z</time>
      </trkpt>
      <trkpt lat="46.00068" lon="5.9051">
        <ele>512.20001220703</ele>
        <time>2019-10-07T13:38:13Z</time>
      </trkpt>
      <trkpt lat="46.00054" lon="5.90508">
        <ele>512</ele>
        <time>2019-10-07T13:38:16Z</time>
      </trkpt>
      <trkpt lat="46.00018" lon="5.90512">
        <ele>511.60000610352</ele>
        <time>2019-10-07T13:38:23Z</time>
      </trkpt>
      <trkpt lat="45.99992" lon="5.90524">
        <ele>511.60000610352</ele>
        <time>2019-10-07T13:38:28Z</time>
      </trkpt>
      <trkpt lat="45.99962" lon="5.90539">
        <ele>511.39999389648</ele>
        <time>2019-10-07T13:38:33Z</time>
      </trkpt>
      <trkpt lat="45.9993" lon="5.90537">
        <ele>511.39999389648</ele>
        <time>2019-10-07T13:38:39Z</time>
      </trkpt>
      <trkpt lat="45.99895" lon="5.90527">
        <ele>511.20001220703</ele>
        <time>2019-10-07T13:38:44Z</time>
      </trkpt>
      <trkpt lat="45.99846" lon="5.90512">
        <ele>510.79998779297</ele>
        <time>2019-10-07T13:38:49Z</time>
      </trkpt>
      <trkpt lat="45.99814" lon="5.90495">
        <ele>509.39999389648</ele>
        <time>2019-10-07T13:38:52Z</time>
      </trkpt>
      <trkpt lat="45.99784" lon="5.90476">
        <ele>507.79998779297</ele>
        <time>2019-10-07T13:38:55Z</time>
      </trkpt>
      <trkpt lat="45.99764" lon="5.90466">
        <ele>506.39999389648</ele>
        <time>2019-10-07T13:38:57Z</time>
      </trkpt>
      <trkpt lat="45.99739" lon="5.90476">
        <ele>503.60000610352</ele>
        <time>2019-10-07T13:39:00Z</time>
      </trkpt>
      <trkpt lat="45.9972" lon="5.90491">
        <ele>501.39999389648</ele>
        <time>2019-10-07T13:39:02Z</time>
      </trkpt>
      <trkpt lat="45.99675" lon="5.90503">
        <ele>496.79998779297</ele>
        <time>2019-10-07T13:39:06Z</time>
      </trkpt>
      <trkpt lat="45.9964" lon="5.90513">
        <ele>494</ele>
        <time>2019-10-07T13:39:09Z</time>
      </trkpt>
      <trkpt lat="45.99593" lon="5.90538">
        <ele>490</ele>
        <time>2019-10-07T13:39:13Z</time>
      </trkpt>
      <trkpt lat="45.9956" lon="5.90563">
        <ele>487.79998779297</ele>
        <time>2019-10-07T13:39:16Z</time>
      </trkpt>
      <trkpt lat="45.9953" lon="5.90591">
        <ele>484.60000610352</ele>
        <time>2019-10-07T13:39:19Z</time>
      </trkpt>
      <trkpt lat="45.99507" lon="5.90602">
        <ele>481.20001220703</ele>
        <time>2019-10-07T13:39:22Z</time>
      </trkpt>
      <trkpt lat="45.99498" lon="5.90589">
        <ele>478.79998779297</ele>
        <time>2019-10-07T13:39:24Z</time>
      </trkpt>
      <trkpt lat="45.99471" lon="5.90541">
        <ele>472.79998779297</ele>
        <time>2019-10-07T13:39:31Z</time>
      </trkpt>
      <trkpt lat="45.99463" lon="5.90524">
        <ele>472.60000610352</ele>
        <time>2019-10-07T13:39:35Z</time>
      </trkpt>
      <trkpt lat="45.99452" lon="5.90501">
        <ele>474</ele>
        <time>2019-10-07T13:39:43Z</time>
      </trkpt>
      <trkpt lat="45.99449" lon="5.90493">
        <ele>474.79998779297</ele>
        <time>2019-10-07T13:39:45Z</time>
      </trkpt>
      <trkpt lat="45.99442" lon="5.90479">
        <ele>476.20001220703</ele>
        <time>2019-10-07T13:39:51Z</time>
      </trkpt>
      <trkpt lat="45.99437" lon="5.90469">
        <ele>477.39999389648</ele>
        <time>2019-10-07T13:39:55Z</time>
      </trkpt>
      <trkpt lat="45.99432" lon="5.90458">
        <ele>477.79998779297</ele>
        <time>2019-10-07T13:39:58Z</time>
      </trkpt>
      <trkpt lat="45.99422" lon="5.90437">
        <ele>479</ele>
        <time>2019-10-07T13:40:04Z</time>
      </trkpt>
      <trkpt lat="45.99417" lon="5.90426">
        <ele>479.79998779297</ele>
        <time>2019-10-07T13:40:09Z</time>
      </trkpt>
      <trkpt lat="45.99411" lon="5.90414">
        <ele>481.39999389648</ele>
        <time>2019-10-07T13:40:15Z</time>
      </trkpt>
      <trkpt lat="45.994" lon="5.9039">
        <ele>483</ele>
        <time>2019-10-07T13:40:25Z</time>
      </trkpt>
      <trkpt lat="45.9939" lon="5.90362">
        <ele>485.60000610352</ele>
        <time>2019-10-07T13:40:38Z</time>
      </trkpt>
      <trkpt lat="45.99384" lon="5.90345">
        <ele>487.20001220703</ele>
        <time>2019-10-07T13:40:46Z</time>
      </trkpt>
      <trkpt lat="45.99378" lon="5.90324">
        <ele>488.60000610352</ele>
        <time>2019-10-07T13:40:55Z</time>
      </trkpt>
      <trkpt lat="45.9938" lon="5.90311">
        <ele>489.39999389648</ele>
        <time>2019-10-07T13:40:59Z</time>
      </trkpt>
      <trkpt lat="45.99367" lon="5.90278">
        <ele>492.60000610352</ele>
        <time>2019-10-07T13:41:13Z</time>
      </trkpt>
      <trkpt lat="45.99365" lon="5.90261">
        <ele>493.60000610352</ele>
        <time>2019-10-07T13:41:19Z</time>
      </trkpt>
      <trkpt lat="45.99362" lon="5.90243">
        <ele>494.79998779297</ele>
        <time>2019-10-07T13:41:25Z</time>
      </trkpt>
      <trkpt lat="45.99356" lon="5.90223">
        <ele>495.39999389648</ele>
        <time>2019-10-07T13:41:31Z</time>
      </trkpt>
      <trkpt lat="45.99346" lon="5.90191">
        <ele>497.60000610352</ele>
        <time>2019-10-07T13:41:43Z</time>
      </trkpt>
      <trkpt lat="45.99345" lon="5.90187">
        <ele>497.79998779297</ele>
        <time>2019-10-07T13:41:45Z</time>
      </trkpt>
      <trkpt lat="45.99347" lon="5.90162">
        <ele>500</ele>
        <time>2019-10-07T13:41:54Z</time>
      </trkpt>
      <trkpt lat="45.99348" lon="5.90158">
        <ele>500.20001220703</ele>
        <time>2019-10-07T13:41:56Z</time>
      </trkpt>
      <trkpt lat="45.99356" lon="5.90114">
        <ele>502</ele>
        <time>2019-10-07T13:42:06Z</time>
      </trkpt>
      <trkpt lat="45.99355" lon="5.90093">
        <ele>502.79998779297</ele>
        <time>2019-10-07T13:42:12Z</time>
      </trkpt>
      <trkpt lat="45.9935" lon="5.90086">
        <ele>503.39999389648</ele>
        <time>2019-10-07T13:42:16Z</time>
      </trkpt>
      <trkpt lat="45.99336" lon="5.9015">
        <ele>505.60000610352</ele>
        <time>2019-10-07T13:42:29Z</time>
      </trkpt>
      <trkpt lat="45.99324" lon="5.90202">
        <ele>505.79998779297</ele>
        <time>2019-10-07T13:42:37Z</time>
      </trkpt>
      <trkpt lat="45.99303" lon="5.90295">
        <ele>506.20001220703</ele>
        <time>2019-10-07T13:42:49Z</time>
      </trkpt>
      <trkpt lat="45.9929" lon="5.90336">
        <ele>506.39999389648</ele>
        <time>2019-10-07T13:42:56Z</time>
      </trkpt>
      <trkpt lat="45.99253" lon="5.90397">
        <ele>506.60000610352</ele>
        <time>2019-10-07T13:43:07Z</time>
      </trkpt>
      <trkpt lat="45.9923" lon="5.90413">
        <ele>507</ele>
        <time>2019-10-07T13:43:12Z</time>
      </trkpt>
      <trkpt lat="45.99193" lon="5.90428">
        <ele>507.20001220703</ele>
        <time>2019-10-07T13:43:19Z</time>
      </trkpt>
      <trkpt lat="45.99143" lon="5.90442">
        <ele>507.39999389648</ele>
        <time>2019-10-07T13:43:29Z</time>
      </trkpt>
      <trkpt lat="45.99041" lon="5.90442">
        <ele>507.39999389648</ele>
        <time>2019-10-07T13:43:49Z</time>
      </trkpt>
      <trkpt lat="45.99007" lon="5.90431">
        <ele>507.79998779297</ele>
        <time>2019-10-07T13:43:56Z</time>
      </trkpt>
      <trkpt lat="45.98972" lon="5.90421">
        <ele>509.39999389648</ele>
        <time>2019-10-07T13:44:06Z</time>
      </trkpt>
      <trkpt lat="45.98948" lon="5.90415">
        <ele>510.39999389648</ele>
        <time>2019-10-07T13:44:12Z</time>
      </trkpt>
      <trkpt lat="45.98904" lon="5.90425">
        <ele>512.59997558594</ele>
        <time>2019-10-07T13:44:25Z</time>
      </trkpt>
      <trkpt lat="45.98884" lon="5.90431">
        <ele>514</ele>
        <time>2019-10-07T13:44:32Z</time>
      </trkpt>
      <trkpt lat="45.98865" lon="5.90437">
        <ele>515.20001220703</ele>
        <time>2019-10-07T13:44:39Z</time>
      </trkpt>
      <trkpt lat="45.98845" lon="5.90437">
        <ele>517</ele>
        <time>2019-10-07T13:44:48Z</time>
      </trkpt>
      <trkpt lat="45.98827" lon="5.90436">
        <ele>518.79998779297</ele>
        <time>2019-10-07T13:44:54Z</time>
      </trkpt>
      <trkpt lat="45.98793" lon="5.9042">
        <ele>521</ele>
        <time>2019-10-07T13:45:08Z</time>
      </trkpt>
      <trkpt lat="45.98775" lon="5.90402">
        <ele>522.59997558594</ele>
        <time>2019-10-07T13:45:16Z</time>
      </trkpt>
      <trkpt lat="45.98753" lon="5.90374">
        <ele>524.40002441406</ele>
        <time>2019-10-07T13:45:27Z</time>
      </trkpt>
      <trkpt lat="45.9873" lon="5.90343">
        <ele>526.79998779297</ele>
        <time>2019-10-07T13:45:39Z</time>
      </trkpt>
      <trkpt lat="45.98711" lon="5.90331">
        <ele>528.59997558594</ele>
        <time>2019-10-07T13:45:47Z</time>
      </trkpt>
      <trkpt lat="45.98698" lon="5.90345">
        <ele>529.40002441406</ele>
        <time>2019-10-07T13:45:53Z</time>
      </trkpt>
      <trkpt lat="45.9868" lon="5.9037">
        <ele>532</ele>
        <time>2019-10-07T13:46:05Z</time>
      </trkpt>
      <trkpt lat="45.98673" lon="5.90371">
        <ele>532.59997558594</ele>
        <time>2019-10-07T13:46:08Z</time>
      </trkpt>
      <trkpt lat="45.98633" lon="5.90375">
        <ele>536.59997558594</ele>
        <time>2019-10-07T13:46:25Z</time>
      </trkpt>
      <trkpt lat="45.98619" lon="5.90376">
        <ele>537.79998779297</ele>
        <time>2019-10-07T13:46:31Z</time>
      </trkpt>
      <trkpt lat="45.98603" lon="5.9038">
        <ele>538.79998779297</ele>
        <time>2019-10-07T13:46:36Z</time>
      </trkpt>
      <trkpt lat="45.98566" lon="5.90398">
        <ele>541.20001220703</ele>
        <time>2019-10-07T13:46:48Z</time>
      </trkpt>
      <trkpt lat="45.98545" lon="5.90409">
        <ele>542.20001220703</ele>
        <time>2019-10-07T13:46:55Z</time>
      </trkpt>
      <trkpt lat="45.98521" lon="5.90421">
        <ele>544.20001220703</ele>
        <time>2019-10-07T13:47:03Z</time>
      </trkpt>
      <trkpt lat="45.98503" lon="5.9043">
        <ele>545.40002441406</ele>
        <time>2019-10-07T13:47:09Z</time>
      </trkpt>
      <trkpt lat="45.98468" lon="5.90438">
        <ele>548.40002441406</ele>
        <time>2019-10-07T13:47:22Z</time>
      </trkpt>
      <trkpt lat="45.98454" lon="5.90435">
        <ele>550.20001220703</ele>
        <time>2019-10-07T13:47:28Z</time>
      </trkpt>
      <trkpt lat="45.98433" lon="5.90429">
        <ele>551.59997558594</ele>
        <time>2019-10-07T13:47:36Z</time>
      </trkpt>
      <trkpt lat="45.98405" lon="5.90411">
        <ele>554</ele>
        <time>2019-10-07T13:47:45Z</time>
      </trkpt>
      <trkpt lat="45.98372" lon="5.90382">
        <ele>556.59997558594</ele>
        <time>2019-10-07T13:47:57Z</time>
      </trkpt>
      <trkpt lat="45.98353" lon="5.90372">
        <ele>558</ele>
        <time>2019-10-07T13:48:03Z</time>
      </trkpt>
      <trkpt lat="45.98328" lon="5.90384">
        <ele>559.79998779297</ele>
        <time>2019-10-07T13:48:11Z</time>
      </trkpt>
      <trkpt lat="45.98318" lon="5.90395">
        <ele>560.20001220703</ele>
        <time>2019-10-07T13:48:14Z</time>
      </trkpt>
      <trkpt lat="45.98299" lon="5.90416">
        <ele>561.79998779297</ele>
        <time>2019-10-07T13:48:20Z</time>
      </trkpt>
      <trkpt lat="45.98267" lon="5.90446">
        <ele>565.40002441406</ele>
        <time>2019-10-07T13:48:34Z</time>
      </trkpt>
      <trkpt lat="45.98258" lon="5.90449">
        <ele>566.79998779297</ele>
        <time>2019-10-07T13:48:39Z</time>
      </trkpt>
      <trkpt lat="45.98244" lon="5.90453">
        <ele>568</ele>
        <time>2019-10-07T13:49:27Z</time>
      </trkpt>
      <trkpt lat="45.98235" lon="5.90456">
        <ele>568.40002441406</ele>
        <time>2019-10-07T13:49:31Z</time>
      </trkpt>
      <trkpt lat="45.98208" lon="5.90472">
        <ele>570.20001220703</ele>
        <time>2019-10-07T13:49:41Z</time>
      </trkpt>
      <trkpt lat="45.98185" lon="5.90491">
        <ele>572.20001220703</ele>
        <time>2019-10-07T13:49:51Z</time>
      </trkpt>
      <trkpt lat="45.98165" lon="5.90503">
        <ele>573.59997558594</ele>
        <time>2019-10-07T13:49:59Z</time>
      </trkpt>
      <trkpt lat="45.98145" lon="5.90503">
        <ele>574.59997558594</ele>
        <time>2019-10-07T13:50:06Z</time>
      </trkpt>
      <trkpt lat="45.98115" lon="5.90505">
        <ele>577.20001220703</ele>
        <time>2019-10-07T13:50:18Z</time>
      </trkpt>
      <trkpt lat="45.98094" lon="5.90505">
        <ele>578.79998779297</ele>
        <time>2019-10-07T13:50:27Z</time>
      </trkpt>
      <trkpt lat="45.9807" lon="5.90516">
        <ele>581.20001220703</ele>
        <time>2019-10-07T13:50:37Z</time>
      </trkpt>
      <trkpt lat="45.98055" lon="5.90522">
        <ele>582.40002441406</ele>
        <time>2019-10-07T13:50:44Z</time>
      </trkpt>
      <trkpt lat="45.98032" lon="5.90532">
        <ele>584</ele>
        <time>2019-10-07T13:50:53Z</time>
      </trkpt>
      <trkpt lat="45.98009" lon="5.90542">
        <ele>586</ele>
        <time>2019-10-07T13:51:04Z</time>
      </trkpt>
      <trkpt lat="45.9798" lon="5.90555">
        <ele>588.40002441406</ele>
        <time>2019-10-07T13:51:18Z</time>
      </trkpt>
      <trkpt lat="45.97954" lon="5.90567">
        <ele>590.40002441406</ele>
        <time>2019-10-07T13:51:29Z</time>
      </trkpt>
      <trkpt lat="45.97932" lon="5.90567">
        <ele>591.59997558594</ele>
        <time>2019-10-07T13:51:37Z</time>
      </trkpt>
      <trkpt lat="45.97898" lon="5.9056">
        <ele>594.20001220703</ele>
        <time>2019-10-07T13:51:50Z</time>
      </trkpt>
      <trkpt lat="45.97875" lon="5.90555">
        <ele>596.40002441406</ele>
        <time>2019-10-07T13:51:59Z</time>
      </trkpt>
      <trkpt lat="45.97855" lon="5.90551">
        <ele>597.79998779297</ele>
        <time>2019-10-07T13:52:08Z</time>
      </trkpt>
      <trkpt lat="45.97837" lon="5.90547">
        <ele>599.59997558594</ele>
        <time>2019-10-07T13:52:16Z</time>
      </trkpt>
      <trkpt lat="45.97809" lon="5.90551">
        <ele>601.79998779297</ele>
        <time>2019-10-07T13:52:29Z</time>
      </trkpt>
      <trkpt lat="45.97793" lon="5.90555">
        <ele>603</ele>
        <time>2019-10-07T13:52:36Z</time>
      </trkpt>
      <trkpt lat="45.97767" lon="5.90562">
        <ele>605</ele>
        <time>2019-10-07T13:52:48Z</time>
      </trkpt>
      <trkpt lat="45.97751" lon="5.90566">
        <ele>606</ele>
        <time>2019-10-07T13:52:55Z</time>
      </trkpt>
      <trkpt lat="45.97732" lon="5.90572">
        <ele>607.59997558594</ele>
        <time>2019-10-07T13:53:04Z</time>
      </trkpt>
      <trkpt lat="45.97716" lon="5.90576">
        <ele>609</ele>
        <time>2019-10-07T13:53:11Z</time>
      </trkpt>
      <trkpt lat="45.9769" lon="5.90582">
        <ele>611.40002441406</ele>
        <time>2019-10-07T13:53:24Z</time>
      </trkpt>
      <trkpt lat="45.97673" lon="5.90596">
        <ele>613</ele>
        <time>2019-10-07T13:53:32Z</time>
      </trkpt>
      <trkpt lat="45.97642" lon="5.90632">
        <ele>615.20001220703</ele>
        <time>2019-10-07T13:53:45Z</time>
      </trkpt>
      <trkpt lat="45.97615" lon="5.90637">
        <ele>617</ele>
        <time>2019-10-07T13:53:57Z</time>
      </trkpt>
      <trkpt lat="45.97602" lon="5.9064">
        <ele>618</ele>
        <time>2019-10-07T13:54:02Z</time>
      </trkpt>
      <trkpt lat="45.9757" lon="5.90646">
        <ele>620.79998779297</ele>
        <time>2019-10-07T13:54:15Z</time>
      </trkpt>
      <trkpt lat="45.97557" lon="5.90655">
        <ele>622</ele>
        <time>2019-10-07T13:54:20Z</time>
      </trkpt>
      <trkpt lat="45.97527" lon="5.90678">
        <ele>624</ele>
        <time>2019-10-07T13:54:31Z</time>
      </trkpt>
      <trkpt lat="45.97508" lon="5.90691">
        <ele>625.20001220703</ele>
        <time>2019-10-07T13:54:40Z</time>
      </trkpt>
      <trkpt lat="45.97494" lon="5.90694">
        <ele>626.40002441406</ele>
        <time>2019-10-07T13:54:49Z</time>
      </trkpt>
      <trkpt lat="45.97476" lon="5.90699">
        <ele>627.59997558594</ele>
        <time>2019-10-07T13:54:56Z</time>
      </trkpt>
      <trkpt lat="45.97446" lon="5.90707">
        <ele>629</ele>
        <time>2019-10-07T13:55:04Z</time>
      </trkpt>
      <trkpt lat="45.97433" lon="5.9071">
        <ele>630.40002441406</ele>
        <time>2019-10-07T13:55:11Z</time>
      </trkpt>
      <trkpt lat="45.97419" lon="5.90714">
        <ele>631.40002441406</ele>
        <time>2019-10-07T13:55:18Z</time>
      </trkpt>
      <trkpt lat="45.97393" lon="5.90715">
        <ele>633</ele>
        <time>2019-10-07T13:55:27Z</time>
      </trkpt>
      <trkpt lat="45.97367" lon="5.90703">
        <ele>635.40002441406</ele>
        <time>2019-10-07T13:55:37Z</time>
      </trkpt>
      <trkpt lat="45.97349" lon="5.90692">
        <ele>637.20001220703</ele>
        <time>2019-10-07T13:55:46Z</time>
      </trkpt>
      <trkpt lat="45.97334" lon="5.90683">
        <ele>638.40002441406</ele>
        <time>2019-10-07T13:55:53Z</time>
      </trkpt>
      <trkpt lat="45.97305" lon="5.90666">
        <ele>640.59997558594</ele>
        <time>2019-10-07T13:56:02Z</time>
      </trkpt>
      <trkpt lat="45.97281" lon="5.90651">
        <ele>642.20001220703</ele>
        <time>2019-10-07T13:56:10Z</time>
      </trkpt>
      <trkpt lat="45.97243" lon="5.9066">
        <ele>643.79998779297</ele>
        <time>2019-10-07T13:56:23Z</time>
      </trkpt>
      <trkpt lat="45.97234" lon="5.90683">
        <ele>644</ele>
        <time>2019-10-07T13:56:29Z</time>
      </trkpt>
      <trkpt lat="45.97226" lon="5.90705">
        <ele>644</ele>
        <time>2019-10-07T13:56:35Z</time>
      </trkpt>
      <trkpt lat="45.97218" lon="5.90734">
        <ele>644</ele>
        <time>2019-10-07T13:56:42Z</time>
      </trkpt>
      <trkpt lat="45.97212" lon="5.90756">
        <ele>644.59997558594</ele>
        <time>2019-10-07T13:56:49Z</time>
      </trkpt>
      <trkpt lat="45.97203" lon="5.9076">
        <ele>645.40002441406</ele>
        <time>2019-10-07T13:57:53Z</time>
      </trkpt>
      <trkpt lat="45.97198" lon="5.9076">
        <ele>645.40002441406</ele>
        <time>2019-10-07T13:57:56Z</time>
      </trkpt>
      <trkpt lat="45.97187" lon="5.90761">
        <ele>645.20001220703</ele>
        <time>2019-10-07T13:57:59Z</time>
      </trkpt>
      <trkpt lat="45.97166" lon="5.90761">
        <ele>645</ele>
        <time>2019-10-07T13:58:03Z</time>
      </trkpt>
      <trkpt lat="45.97138" lon="5.90753">
        <ele>644.20001220703</ele>
        <time>2019-10-07T13:58:08Z</time>
      </trkpt>
      <trkpt lat="45.97122" lon="5.90747">
        <ele>643.79998779297</ele>
        <time>2019-10-07T13:58:10Z</time>
      </trkpt>
      <trkpt lat="45.97088" lon="5.90695">
        <ele>641.59997558594</ele>
        <time>2019-10-07T13:58:17Z</time>
      </trkpt>
      <trkpt lat="45.97076" lon="5.90637">
        <ele>640</ele>
        <time>2019-10-07T13:58:22Z</time>
      </trkpt>
      <trkpt lat="45.9706" lon="5.90547">
        <ele>636.40002441406</ele>
        <time>2019-10-07T13:58:29Z</time>
      </trkpt>
      <trkpt lat="45.97046" lon="5.90496">
        <ele>634.59997558594</ele>
        <time>2019-10-07T13:58:33Z</time>
      </trkpt>
      <trkpt lat="45.96997" lon="5.90447">
        <ele>631</ele>
        <time>2019-10-07T13:58:39Z</time>
      </trkpt>
      <trkpt lat="45.96964" lon="5.90438">
        <ele>630</ele>
        <time>2019-10-07T13:58:42Z</time>
      </trkpt>
      <trkpt lat="45.96925" lon="5.90431">
        <ele>627.20001220703</ele>
        <time>2019-10-07T13:58:46Z</time>
      </trkpt>
      <trkpt lat="45.96897" lon="5.9043">
        <ele>625.79998779297</ele>
        <time>2019-10-07T13:58:48Z</time>
      </trkpt>
      <trkpt lat="45.96863" lon="5.90434">
        <ele>624</ele>
        <time>2019-10-07T13:58:51Z</time>
      </trkpt>
      <trkpt lat="45.96817" lon="5.9044">
        <ele>620.79998779297</ele>
        <time>2019-10-07T13:58:55Z</time>
      </trkpt>
      <trkpt lat="45.96774" lon="5.90448">
        <ele>617.79998779297</ele>
        <time>2019-10-07T13:58:59Z</time>
      </trkpt>
      <trkpt lat="45.96693" lon="5.90461">
        <ele>613.40002441406</ele>
        <time>2019-10-07T13:59:08Z</time>
      </trkpt>
      <trkpt lat="45.96646" lon="5.90467">
        <ele>611.40002441406</ele>
        <time>2019-10-07T13:59:17Z</time>
      </trkpt>
      <trkpt lat="45.96631" lon="5.90459">
        <ele>611.40002441406</ele>
        <time>2019-10-07T13:59:20Z</time>
      </trkpt>
      <trkpt lat="45.96619" lon="5.90442">
        <ele>611.20001220703</ele>
        <time>2019-10-07T13:59:22Z</time>
      </trkpt>
      <trkpt lat="45.96621" lon="5.90413">
        <ele>610.79998779297</ele>
        <time>2019-10-07T13:59:25Z</time>
      </trkpt>
      <trkpt lat="45.96624" lon="5.90387">
        <ele>610.59997558594</ele>
        <time>2019-10-07T13:59:27Z</time>
      </trkpt>
      <trkpt lat="45.96624" lon="5.90322">
        <ele>609.40002441406</ele>
        <time>2019-10-07T13:59:32Z</time>
      </trkpt>
      <trkpt lat="45.9662" lon="5.90311">
        <ele>608.20001220703</ele>
        <time>2019-10-07T13:59:34Z</time>
      </trkpt>
      <trkpt lat="45.96559" lon="5.90292">
        <ele>604</ele>
        <time>2019-10-07T13:59:40Z</time>
      </trkpt>
      <trkpt lat="45.96548" lon="5.90289">
        <ele>602.40002441406</ele>
        <time>2019-10-07T13:59:43Z</time>
      </trkpt>
      <trkpt lat="45.96538" lon="5.90286">
        <ele>596.20001220703</ele>
        <time>2019-10-07T14:00:12Z</time>
      </trkpt>
      <trkpt lat="45.9653" lon="5.90283">
        <ele>596.20001220703</ele>
        <time>2019-10-07T14:00:15Z</time>
      </trkpt>
      <trkpt lat="45.9651" lon="5.90277">
        <ele>596</ele>
        <time>2019-10-07T14:00:19Z</time>
      </trkpt>
      <trkpt lat="45.96472" lon="5.90266">
        <ele>594.79998779297</ele>
        <time>2019-10-07T14:00:24Z</time>
      </trkpt>
      <trkpt lat="45.96447" lon="5.90258">
        <ele>593.79998779297</ele>
        <time>2019-10-07T14:00:27Z</time>
      </trkpt>
      <trkpt lat="45.96376" lon="5.90236">
        <ele>590.59997558594</ele>
        <time>2019-10-07T14:00:34Z</time>
      </trkpt>
      <trkpt lat="45.9634" lon="5.90226">
        <ele>588.40002441406</ele>
        <time>2019-10-07T14:00:37Z</time>
      </trkpt>
      <trkpt lat="45.96282" lon="5.90208">
        <ele>584.79998779297</ele>
        <time>2019-10-07T14:00:42Z</time>
      </trkpt>
      <trkpt lat="45.96234" lon="5.90193">
        <ele>582.40002441406</ele>
        <time>2019-10-07T14:00:46Z</time>
      </trkpt>
      <trkpt lat="45.96197" lon="5.90166">
        <ele>577.79998779297</ele>
        <time>2019-10-07T14:00:51Z</time>
      </trkpt>
      <trkpt lat="45.96194" lon="5.9014">
        <ele>576</ele>
        <time>2019-10-07T14:00:53Z</time>
      </trkpt>
      <trkpt lat="45.96174" lon="5.90052">
        <ele>569.79998779297</ele>
        <time>2019-10-07T14:01:00Z</time>
      </trkpt>
      <trkpt lat="45.96152" lon="5.90031">
        <ele>567.79998779297</ele>
        <time>2019-10-07T14:01:03Z</time>
      </trkpt>
      <trkpt lat="45.96106" lon="5.90019">
        <ele>564.20001220703</ele>
        <time>2019-10-07T14:01:08Z</time>
      </trkpt>
      <trkpt lat="45.96092" lon="5.90039">
        <ele>563.79998779297</ele>
        <time>2019-10-07T14:01:10Z</time>
      </trkpt>
      <trkpt lat="45.96067" lon="5.90097">
        <ele>560.79998779297</ele>
        <time>2019-10-07T14:01:14Z</time>
      </trkpt>
      <trkpt lat="45.96038" lon="5.90176">
        <ele>556.40002441406</ele>
        <time>2019-10-07T14:01:19Z</time>
      </trkpt>
      <trkpt lat="45.96021" lon="5.90222">
        <ele>554</ele>
        <time>2019-10-07T14:01:22Z</time>
      </trkpt>
      <trkpt lat="45.95986" lon="5.90296">
        <ele>549.40002441406</ele>
        <time>2019-10-07T14:01:27Z</time>
      </trkpt>
      <trkpt lat="45.9597" lon="5.90317">
        <ele>547.59997558594</ele>
        <time>2019-10-07T14:01:29Z</time>
      </trkpt>
      <trkpt lat="45.95936" lon="5.90349">
        <ele>543.20001220703</ele>
        <time>2019-10-07T14:01:34Z</time>
      </trkpt>
      <trkpt lat="45.95921" lon="5.90361">
        <ele>540.40002441406</ele>
        <time>2019-10-07T14:01:38Z</time>
      </trkpt>
      <trkpt lat="45.95905" lon="5.90369">
        <ele>535.20001220703</ele>
        <time>2019-10-07T14:01:43Z</time>
      </trkpt>
      <trkpt lat="45.959" lon="5.90371">
        <ele>530.79998779297</ele>
        <time>2019-10-07T14:02:08Z</time>
      </trkpt>
      <trkpt lat="45.95881" lon="5.90377">
        <ele>530.59997558594</ele>
        <time>2019-10-07T14:02:13Z</time>
      </trkpt>
      <trkpt lat="45.95846" lon="5.90381">
        <ele>530.20001220703</ele>
        <time>2019-10-07T14:02:18Z</time>
      </trkpt>
      <trkpt lat="45.95773" lon="5.90364">
        <ele>527.79998779297</ele>
        <time>2019-10-07T14:02:26Z</time>
      </trkpt>
      <trkpt lat="45.95742" lon="5.90357">
        <ele>526.20001220703</ele>
        <time>2019-10-07T14:02:29Z</time>
      </trkpt>
      <trkpt lat="45.95707" lon="5.90358">
        <ele>524.40002441406</ele>
        <time>2019-10-07T14:02:32Z</time>
      </trkpt>
      <trkpt lat="45.95657" lon="5.90365">
        <ele>521.59997558594</ele>
        <time>2019-10-07T14:02:36Z</time>
      </trkpt>
      <trkpt lat="45.95617" lon="5.90371">
        <ele>518.79998779297</ele>
        <time>2019-10-07T14:02:39Z</time>
      </trkpt>
      <trkpt lat="45.95546" lon="5.90381">
        <ele>514.59997558594</ele>
        <time>2019-10-07T14:02:44Z</time>
      </trkpt>
      <trkpt lat="45.95461" lon="5.90393">
        <ele>508.79998779297</ele>
        <time>2019-10-07T14:02:51Z</time>
      </trkpt>
      <trkpt lat="45.95357" lon="5.904">
        <ele>503.39999389648</ele>
        <time>2019-10-07T14:03:01Z</time>
      </trkpt>
      <trkpt lat="45.9532" lon="5.904">
        <ele>502.39999389648</ele>
        <time>2019-10-07T14:03:05Z</time>
      </trkpt>
      <trkpt lat="45.95261" lon="5.9039">
        <ele>501</ele>
        <time>2019-10-07T14:03:12Z</time>
      </trkpt>
      <trkpt lat="45.95229" lon="5.90382">
        <ele>500.39999389648</ele>
        <time>2019-10-07T14:03:18Z</time>
      </trkpt>
      <trkpt lat="45.95202" lon="5.9036">
        <ele>500.39999389648</ele>
        <time>2019-10-07T14:03:24Z</time>
      </trkpt>
      <trkpt lat="45.95198" lon="5.90356">
        <ele>500.39999389648</ele>
        <time>2019-10-07T14:03:26Z</time>
      </trkpt>
      <trkpt lat="45.95168" lon="5.90338">
        <ele>500.20001220703</ele>
        <time>2019-10-07T14:03:33Z</time>
      </trkpt>
      <trkpt lat="45.95147" lon="5.9034">
        <ele>500.20001220703</ele>
        <time>2019-10-07T14:03:36Z</time>
      </trkpt>
      <trkpt lat="45.95135" lon="5.90365">
        <ele>500.39999389648</ele>
        <time>2019-10-07T14:03:39Z</time>
      </trkpt>
      <trkpt lat="45.95137" lon="5.90419">
        <ele>499.20001220703</ele>
        <time>2019-10-07T14:03:44Z</time>
      </trkpt>
      <trkpt lat="45.95139" lon="5.90465">
        <ele>497.20001220703</ele>
        <time>2019-10-07T14:03:48Z</time>
      </trkpt>
      <trkpt lat="45.95142" lon="5.90517">
        <ele>494.79998779297</ele>
        <time>2019-10-07T14:03:52Z</time>
      </trkpt>
      <trkpt lat="45.95146" lon="5.90546">
        <ele>493.39999389648</ele>
        <time>2019-10-07T14:03:54Z</time>
      </trkpt>
      <trkpt lat="45.95155" lon="5.90602">
        <ele>490.20001220703</ele>
        <time>2019-10-07T14:03:58Z</time>
      </trkpt>
      <trkpt lat="45.95165" lon="5.90639">
        <ele>487.79998779297</ele>
        <time>2019-10-07T14:04:01Z</time>
      </trkpt>
      <trkpt lat="45.95186" lon="5.90668">
        <ele>486</ele>
        <time>2019-10-07T14:04:04Z</time>
      </trkpt>
      <trkpt lat="45.952" lon="5.90687">
        <ele>483.79998779297</ele>
        <time>2019-10-07T14:04:06Z</time>
      </trkpt>
      <trkpt lat="45.95223" lon="5.9072">
        <ele>479.60000610352</ele>
        <time>2019-10-07T14:04:10Z</time>
      </trkpt>
      <trkpt lat="45.95248" lon="5.90734">
        <ele>477.39999389648</ele>
        <time>2019-10-07T14:04:13Z</time>
      </trkpt>
      <trkpt lat="45.95285" lon="5.90734">
        <ele>473</ele>
        <time>2019-10-07T14:04:17Z</time>
      </trkpt>
      <trkpt lat="45.95307" lon="5.9074">
        <ele>470.79998779297</ele>
        <time>2019-10-07T14:04:20Z</time>
      </trkpt>
      <trkpt lat="45.95317" lon="5.90755">
        <ele>468.39999389648</ele>
        <time>2019-10-07T14:04:24Z</time>
      </trkpt>
      <trkpt lat="45.95314" lon="5.90766">
        <ele>467.39999389648</ele>
        <time>2019-10-07T14:04:26Z</time>
      </trkpt>
      <trkpt lat="45.95305" lon="5.90776">
        <ele>466</ele>
        <time>2019-10-07T14:04:28Z</time>
      </trkpt>
      <trkpt lat="45.95289" lon="5.90792">
        <ele>465.20001220703</ele>
        <time>2019-10-07T14:04:33Z</time>
      </trkpt>
      <trkpt lat="45.9528" lon="5.90801">
        <ele>465.20001220703</ele>
        <time>2019-10-07T14:04:37Z</time>
      </trkpt>
      <trkpt lat="45.95264" lon="5.90817">
        <ele>466.79998779297</ele>
        <time>2019-10-07T14:04:44Z</time>
      </trkpt>
      <trkpt lat="45.95253" lon="5.90828">
        <ele>468.20001220703</ele>
        <time>2019-10-07T14:04:49Z</time>
      </trkpt>
      <trkpt lat="45.95235" lon="5.90846">
        <ele>469</ele>
        <time>2019-10-07T14:04:56Z</time>
      </trkpt>
      <trkpt lat="45.95224" lon="5.90877">
        <ele>469.39999389648</ele>
        <time>2019-10-07T14:05:03Z</time>
      </trkpt>
      <trkpt lat="45.95216" lon="5.90902">
        <ele>470</ele>
        <time>2019-10-07T14:05:10Z</time>
      </trkpt>
      <trkpt lat="45.95205" lon="5.90918">
        <ele>470.20001220703</ele>
        <time>2019-10-07T14:05:13Z</time>
      </trkpt>
      <trkpt lat="45.95184" lon="5.9089">
        <ele>471.39999389648</ele>
        <time>2019-10-07T14:05:22Z</time>
      </trkpt>
      <trkpt lat="45.95171" lon="5.90879">
        <ele>473</ele>
        <time>2019-10-07T14:05:28Z</time>
      </trkpt>
      <trkpt lat="45.95153" lon="5.90872">
        <ele>475.20001220703</ele>
        <time>2019-10-07T14:05:38Z</time>
      </trkpt>
      <trkpt lat="45.95142" lon="5.90872">
        <ele>476.39999389648</ele>
        <time>2019-10-07T14:05:44Z</time>
      </trkpt>
      <trkpt lat="45.95127" lon="5.90873">
        <ele>477.79998779297</ele>
        <time>2019-10-07T14:05:51Z</time>
      </trkpt>
      <trkpt lat="45.95066" lon="5.90861">
        <ele>480.20001220703</ele>
        <time>2019-10-07T14:06:10Z</time>
      </trkpt>
      <trkpt lat="45.95049" lon="5.90869">
        <ele>480.20001220703</ele>
        <time>2019-10-07T14:06:15Z</time>
      </trkpt>
      <trkpt lat="45.95011" lon="5.90871">
        <ele>481.60000610352</ele>
        <time>2019-10-07T14:06:25Z</time>
      </trkpt>
      <trkpt lat="45.94998" lon="5.90869">
        <ele>482.60000610352</ele>
        <time>2019-10-07T14:06:30Z</time>
      </trkpt>
      <trkpt lat="45.9497" lon="5.90876">
        <ele>484.79998779297</ele>
        <time>2019-10-07T14:06:39Z</time>
      </trkpt>
      <trkpt lat="45.9496" lon="5.9088">
        <ele>486</ele>
        <time>2019-10-07T14:06:44Z</time>
      </trkpt>
      <trkpt lat="45.94935" lon="5.90897">
        <ele>488.20001220703</ele>
        <time>2019-10-07T14:06:54Z</time>
      </trkpt>
      <trkpt lat="45.94924" lon="5.90904">
        <ele>489.39999389648</ele>
        <time>2019-10-07T14:07:00Z</time>
      </trkpt>
      <trkpt lat="45.94907" lon="5.90916">
        <ele>491</ele>
        <time>2019-10-07T14:07:07Z</time>
      </trkpt>
      <trkpt lat="45.94894" lon="5.90924">
        <ele>492</ele>
        <time>2019-10-07T14:07:13Z</time>
      </trkpt>
      <trkpt lat="45.94862" lon="5.90945">
        <ele>494.60000610352</ele>
        <time>2019-10-07T14:07:26Z</time>
      </trkpt>
      <trkpt lat="45.9483" lon="5.90985">
        <ele>495.60000610352</ele>
        <time>2019-10-07T14:07:37Z</time>
      </trkpt>
      <trkpt lat="45.94807" lon="5.91">
        <ele>495.79998779297</ele>
        <time>2019-10-07T14:07:43Z</time>
      </trkpt>
      <trkpt lat="45.94776" lon="5.91011">
        <ele>495.60000610352</ele>
        <time>2019-10-07T14:07:50Z</time>
      </trkpt>
      <trkpt lat="45.9476" lon="5.91015">
        <ele>495.60000610352</ele>
        <time>2019-10-07T14:07:53Z</time>
      </trkpt>
      <trkpt lat="45.9473" lon="5.90997">
        <ele>495</ele>
        <time>2019-10-07T14:07:58Z</time>
      </trkpt>
      <trkpt lat="45.94705" lon="5.91">
        <ele>494.60000610352</ele>
        <time>2019-10-07T14:08:02Z</time>
      </trkpt>
      <trkpt lat="45.9468" lon="5.91077">
        <ele>493</ele>
        <time>2019-10-07T14:08:14Z</time>
      </trkpt>
      <trkpt lat="45.94673" lon="5.91095">
        <ele>493.39999389648</ele>
        <time>2019-10-07T14:08:19Z</time>
      </trkpt>
      <trkpt lat="45.94665" lon="5.91114">
        <ele>494.79998779297</ele>
        <time>2019-10-07T14:08:24Z</time>
      </trkpt>
      <trkpt lat="45.94659" lon="5.91132">
        <ele>495.79998779297</ele>
        <time>2019-10-07T14:08:29Z</time>
      </trkpt>
      <trkpt lat="45.94648" lon="5.91156">
        <ele>498</ele>
        <time>2019-10-07T14:08:38Z</time>
      </trkpt>
      <trkpt lat="45.94638" lon="5.91177">
        <ele>499.39999389648</ele>
        <time>2019-10-07T14:08:45Z</time>
      </trkpt>
      <trkpt lat="45.94621" lon="5.9121">
        <ele>501.79998779297</ele>
        <time>2019-10-07T14:08:55Z</time>
      </trkpt>
      <trkpt lat="45.94612" lon="5.91229">
        <ele>503</ele>
        <time>2019-10-07T14:09:01Z</time>
      </trkpt>
      <trkpt lat="45.94577" lon="5.91314">
        <ele>505.20001220703</ele>
        <time>2019-10-07T14:09:19Z</time>
      </trkpt>
      <trkpt lat="45.94573" lon="5.91328">
        <ele>505.20001220703</ele>
        <time>2019-10-07T14:09:21Z</time>
      </trkpt>
      <trkpt lat="45.94578" lon="5.91354">
        <ele>504.79998779297</ele>
        <time>2019-10-07T14:09:24Z</time>
      </trkpt>
      <trkpt lat="45.9459" lon="5.91411">
        <ele>503.79998779297</ele>
        <time>2019-10-07T14:09:30Z</time>
      </trkpt>
      <trkpt lat="45.94608" lon="5.91457">
        <ele>502.79998779297</ele>
        <time>2019-10-07T14:09:37Z</time>
      </trkpt>
      <trkpt lat="45.94645" lon="5.91525">
        <ele>503.39999389648</ele>
        <time>2019-10-07T14:09:49Z</time>
      </trkpt>
      <trkpt lat="45.94654" lon="5.9154">
        <ele>503.60000610352</ele>
        <time>2019-10-07T14:09:52Z</time>
      </trkpt>
      <trkpt lat="45.947" lon="5.91639">
        <ele>506</ele>
        <time>2019-10-07T14:10:09Z</time>
      </trkpt>
      <trkpt lat="45.94752" lon="5.91758">
        <ele>506</ele>
        <time>2019-10-07T14:10:25Z</time>
      </trkpt>
      <trkpt lat="45.94806" lon="5.91884">
        <ele>505.60000610352</ele>
        <time>2019-10-07T14:10:44Z</time>
      </trkpt>
      <trkpt lat="45.94827" lon="5.91933">
        <ele>506.20001220703</ele>
        <time>2019-10-07T14:10:52Z</time>
      </trkpt>
      <trkpt lat="45.94856" lon="5.92">
        <ele>507</ele>
        <time>2019-10-07T14:11:03Z</time>
      </trkpt>
      <trkpt lat="45.94892" lon="5.92082">
        <ele>505.79998779297</ele>
        <time>2019-10-07T14:11:14Z</time>
      </trkpt>
      <trkpt lat="45.94912" lon="5.92128">
        <ele>505.20001220703</ele>
        <time>2019-10-07T14:11:21Z</time>
      </trkpt>
      <trkpt lat="45.94927" lon="5.92162">
        <ele>504.60000610352</ele>
        <time>2019-10-07T14:11:26Z</time>
      </trkpt>
      <trkpt lat="45.9494" lon="5.92192">
        <ele>504</ele>
        <time>2019-10-07T14:11:31Z</time>
      </trkpt>
      <trkpt lat="45.94951" lon="5.92219">
        <ele>503.79998779297</ele>
        <time>2019-10-07T14:11:36Z</time>
      </trkpt>
      <trkpt lat="45.9494" lon="5.92239">
        <ele>503.39999389648</ele>
        <time>2019-10-07T14:11:40Z</time>
      </trkpt>
      <trkpt lat="45.94905" lon="5.92299">
        <ele>503.20001220703</ele>
        <time>2019-10-07T14:11:49Z</time>
      </trkpt>
      <trkpt lat="45.94876" lon="5.92347">
        <ele>502.39999389648</ele>
        <time>2019-10-07T14:11:55Z</time>
      </trkpt>
      <trkpt lat="45.94841" lon="5.92406">
        <ele>500</ele>
        <time>2019-10-07T14:12:04Z</time>
      </trkpt>
      <trkpt lat="45.94849" lon="5.92433">
        <ele>499.60000610352</ele>
        <time>2019-10-07T14:12:10Z</time>
      </trkpt>
      <trkpt lat="45.94861" lon="5.92508">
        <ele>498</ele>
        <time>2019-10-07T14:12:18Z</time>
      </trkpt>
      <trkpt lat="45.94867" lon="5.92542">
        <ele>496.79998779297</ele>
        <time>2019-10-07T14:12:21Z</time>
      </trkpt>
      <trkpt lat="45.94875" lon="5.92592">
        <ele>494.79998779297</ele>
        <time>2019-10-07T14:12:25Z</time>
      </trkpt>
      <trkpt lat="45.94891" lon="5.92643">
        <ele>492.20001220703</ele>
        <time>2019-10-07T14:12:29Z</time>
      </trkpt>
      <trkpt lat="45.94925" lon="5.92742">
        <ele>488.39999389648</ele>
        <time>2019-10-07T14:12:36Z</time>
      </trkpt>
      <trkpt lat="45.9494" lon="5.92785">
        <ele>486.79998779297</ele>
        <time>2019-10-07T14:12:39Z</time>
      </trkpt>
      <trkpt lat="45.9496" lon="5.92841">
        <ele>484.20001220703</ele>
        <time>2019-10-07T14:12:43Z</time>
      </trkpt>
      <trkpt lat="45.94997" lon="5.92881">
        <ele>479.79998779297</ele>
        <time>2019-10-07T14:12:48Z</time>
      </trkpt>
      <trkpt lat="45.95016" lon="5.92895">
        <ele>478</ele>
        <time>2019-10-07T14:12:50Z</time>
      </trkpt>
      <trkpt lat="45.95056" lon="5.92926">
        <ele>474.20001220703</ele>
        <time>2019-10-07T14:12:54Z</time>
      </trkpt>
      <trkpt lat="45.95076" lon="5.92935">
        <ele>473.39999389648</ele>
        <time>2019-10-07T14:12:56Z</time>
      </trkpt>
      <trkpt lat="45.95112" lon="5.92927">
        <ele>469.39999389648</ele>
        <time>2019-10-07T14:13:00Z</time>
      </trkpt>
      <trkpt lat="45.95143" lon="5.92895">
        <ele>466</ele>
        <time>2019-10-07T14:13:03Z</time>
      </trkpt>
      <trkpt lat="45.95176" lon="5.92854">
        <ele>461.60000610352</ele>
        <time>2019-10-07T14:13:07Z</time>
      </trkpt>
      <trkpt lat="45.95187" lon="5.92829">
        <ele>459.20001220703</ele>
        <time>2019-10-07T14:13:09Z</time>
      </trkpt>
      <trkpt lat="45.95192" lon="5.92786">
        <ele>456.20001220703</ele>
        <time>2019-10-07T14:13:12Z</time>
      </trkpt>
      <trkpt lat="45.95199" lon="5.92727">
        <ele>452</ele>
        <time>2019-10-07T14:13:16Z</time>
      </trkpt>
      <trkpt lat="45.95221" lon="5.92694">
        <ele>447.20001220703</ele>
        <time>2019-10-07T14:13:21Z</time>
      </trkpt>
      <trkpt lat="45.95234" lon="5.92716">
        <ele>445.39999389648</ele>
        <time>2019-10-07T14:13:24Z</time>
      </trkpt>
      <trkpt lat="45.95241" lon="5.92761">
        <ele>442.20001220703</ele>
        <time>2019-10-07T14:13:28Z</time>
      </trkpt>
      <trkpt lat="45.95248" lon="5.92802">
        <ele>441.20001220703</ele>
        <time>2019-10-07T14:13:31Z</time>
      </trkpt>
      <trkpt lat="45.95254" lon="5.9284">
        <ele>440.39999389648</ele>
        <time>2019-10-07T14:13:34Z</time>
      </trkpt>
      <trkpt lat="45.95269" lon="5.92897">
        <ele>438.79998779297</ele>
        <time>2019-10-07T14:13:38Z</time>
      </trkpt>
      <trkpt lat="45.95277" lon="5.92925">
        <ele>437.60000610352</ele>
        <time>2019-10-07T14:13:40Z</time>
      </trkpt>
      <trkpt lat="45.95296" lon="5.92969">
        <ele>434.20001220703</ele>
        <time>2019-10-07T14:13:44Z</time>
      </trkpt>
      <trkpt lat="45.95302" lon="5.92976">
        <ele>433.39999389648</ele>
        <time>2019-10-07T14:13:46Z</time>
      </trkpt>
      <trkpt lat="45.95348" lon="5.92981">
        <ele>427.39999389648</ele>
        <time>2019-10-07T14:13:52Z</time>
      </trkpt>
      <trkpt lat="45.95358" lon="5.92982">
        <ele>425.39999389648</ele>
        <time>2019-10-07T14:13:55Z</time>
      </trkpt>
      <trkpt lat="45.95336" lon="5.92994">
        <ele>424.39999389648</ele>
        <time>2019-10-07T14:13:58Z</time>
      </trkpt>
      <trkpt lat="45.95317" lon="5.92994">
        <ele>423.20001220703</ele>
        <time>2019-10-07T14:14:01Z</time>
      </trkpt>
      <trkpt lat="45.9528" lon="5.92996">
        <ele>420.60000610352</ele>
        <time>2019-10-07T14:14:07Z</time>
      </trkpt>
      <trkpt lat="45.95276" lon="5.92998">
        <ele>419.60000610352</ele>
        <time>2019-10-07T14:14:09Z</time>
      </trkpt>
      <trkpt lat="45.95256" lon="5.93065">
        <ele>416.79998779297</ele>
        <time>2019-10-07T14:14:16Z</time>
      </trkpt>
      <trkpt lat="45.95248" lon="5.9308">
        <ele>416.39999389648</ele>
        <time>2019-10-07T14:14:18Z</time>
      </trkpt>
      <trkpt lat="45.95203" lon="5.93114">
        <ele>414</ele>
        <time>2019-10-07T14:14:25Z</time>
      </trkpt>
      <trkpt lat="45.9514" lon="5.93162">
        <ele>413</ele>
        <time>2019-10-07T14:14:36Z</time>
      </trkpt>
      <trkpt lat="45.95123" lon="5.93196">
        <ele>412.79998779297</ele>
        <time>2019-10-07T14:14:40Z</time>
      </trkpt>
      <trkpt lat="45.95126" lon="5.93234">
        <ele>412.60000610352</ele>
        <time>2019-10-07T14:14:44Z</time>
      </trkpt>
      <trkpt lat="45.9515" lon="5.93295">
        <ele>412.39999389648</ele>
        <time>2019-10-07T14:14:52Z</time>
      </trkpt>
      <trkpt lat="45.95168" lon="5.93344">
        <ele>412.60000610352</ele>
        <time>2019-10-07T14:15:01Z</time>
      </trkpt>
      <trkpt lat="45.9515" lon="5.93367">
        <ele>412.79998779297</ele>
        <time>2019-10-07T14:15:04Z</time>
      </trkpt>
      <trkpt lat="45.95124" lon="5.93317">
        <ele>412.39999389648</ele>
        <time>2019-10-07T14:15:10Z</time>
      </trkpt>
      <trkpt lat="45.95089" lon="5.93274">
        <ele>411.20001220703</ele>
        <time>2019-10-07T14:15:20Z</time>
      </trkpt>
      <trkpt lat="45.95074" lon="5.93267">
        <ele>412</ele>
        <time>2019-10-07T14:15:26Z</time>
      </trkpt>
      <trkpt lat="45.95065" lon="5.93267">
        <ele>413.20001220703</ele>
        <time>2019-10-07T14:15:30Z</time>
      </trkpt>
      <trkpt lat="45.9505" lon="5.93274">
        <ele>415.39999389648</ele>
        <time>2019-10-07T14:15:38Z</time>
      </trkpt>
      <trkpt lat="45.95041" lon="5.93282">
        <ele>416.60000610352</ele>
        <time>2019-10-07T14:15:42Z</time>
      </trkpt>
      <trkpt lat="45.95033" lon="5.93299">
        <ele>417.79998779297</ele>
        <time>2019-10-07T14:15:50Z</time>
      </trkpt>
      <trkpt lat="45.95031" lon="5.93303">
        <ele>419.20001220703</ele>
        <time>2019-10-07T14:15:56Z</time>
      </trkpt>
      <trkpt lat="45.95027" lon="5.93313">
        <ele>419.60000610352</ele>
        <time>2019-10-07T14:17:47Z</time>
      </trkpt>
      <trkpt lat="45.95021" lon="5.93325">
        <ele>419.79998779297</ele>
        <time>2019-10-07T14:17:54Z</time>
      </trkpt>
      <trkpt lat="45.95013" lon="5.93342">
        <ele>420.20001220703</ele>
        <time>2019-10-07T14:18:01Z</time>
      </trkpt>
      <trkpt lat="45.95008" lon="5.93353">
        <ele>421.20001220703</ele>
        <time>2019-10-07T14:18:06Z</time>
      </trkpt>
      <trkpt lat="45.95002" lon="5.93364">
        <ele>422</ele>
        <time>2019-10-07T14:18:11Z</time>
      </trkpt>
      <trkpt lat="45.9499" lon="5.9339">
        <ele>423.79998779297</ele>
        <time>2019-10-07T14:18:22Z</time>
      </trkpt>
      <trkpt lat="45.94982" lon="5.93407">
        <ele>424.79998779297</ele>
        <time>2019-10-07T14:18:29Z</time>
      </trkpt>
      <trkpt lat="45.94968" lon="5.93437">
        <ele>427</ele>
        <time>2019-10-07T14:18:42Z</time>
      </trkpt>
      <trkpt lat="45.94961" lon="5.93453">
        <ele>428.20001220703</ele>
        <time>2019-10-07T14:18:49Z</time>
      </trkpt>
      <trkpt lat="45.94946" lon="5.93484">
        <ele>431</ele>
        <time>2019-10-07T14:19:02Z</time>
      </trkpt>
      <trkpt lat="45.94937" lon="5.93503">
        <ele>432</ele>
        <time>2019-10-07T14:19:10Z</time>
      </trkpt>
      <trkpt lat="45.94925" lon="5.93529">
        <ele>433.79998779297</ele>
        <time>2019-10-07T14:19:21Z</time>
      </trkpt>
      <trkpt lat="45.94909" lon="5.93545">
        <ele>435.60000610352</ele>
        <time>2019-10-07T14:19:30Z</time>
      </trkpt>
      <trkpt lat="45.94897" lon="5.93549">
        <ele>436.60000610352</ele>
        <time>2019-10-07T14:19:36Z</time>
      </trkpt>
      <trkpt lat="45.94877" lon="5.93545">
        <ele>438.39999389648</ele>
        <time>2019-10-07T14:19:47Z</time>
      </trkpt>
      <trkpt lat="45.94863" lon="5.93542">
        <ele>439.79998779297</ele>
        <time>2019-10-07T14:19:54Z</time>
      </trkpt>
      <trkpt lat="45.94828" lon="5.93528">
        <ele>442.79998779297</ele>
        <time>2019-10-07T14:20:11Z</time>
      </trkpt>
      <trkpt lat="45.94806" lon="5.93513">
        <ele>445</ele>
        <time>2019-10-07T14:20:21Z</time>
      </trkpt>
      <trkpt lat="45.94783" lon="5.93497">
        <ele>446.79998779297</ele>
        <time>2019-10-07T14:20:31Z</time>
      </trkpt>
      <trkpt lat="45.94771" lon="5.93489">
        <ele>448.20001220703</ele>
        <time>2019-10-07T14:20:37Z</time>
      </trkpt>
      <trkpt lat="45.94745" lon="5.93486">
        <ele>450.79998779297</ele>
        <time>2019-10-07T14:20:48Z</time>
      </trkpt>
      <trkpt lat="45.94736" lon="5.93491">
        <ele>451.39999389648</ele>
        <time>2019-10-07T14:20:53Z</time>
      </trkpt>
      <trkpt lat="45.94721" lon="5.93503">
        <ele>454.39999389648</ele>
        <time>2019-10-07T14:21:03Z</time>
      </trkpt>
      <trkpt lat="45.94706" lon="5.93515">
        <ele>455.39999389648</ele>
        <time>2019-10-07T14:21:10Z</time>
      </trkpt>
      <trkpt lat="45.94681" lon="5.93534">
        <ele>457.20001220703</ele>
        <time>2019-10-07T14:21:21Z</time>
      </trkpt>
      <trkpt lat="45.94669" lon="5.93543">
        <ele>458.20001220703</ele>
        <time>2019-10-07T14:21:26Z</time>
      </trkpt>
      <trkpt lat="45.94652" lon="5.93563">
        <ele>459.60000610352</ele>
        <time>2019-10-07T14:21:34Z</time>
      </trkpt>
      <trkpt lat="45.94629" lon="5.93596">
        <ele>461.79998779297</ele>
        <time>2019-10-07T14:21:46Z</time>
      </trkpt>
      <trkpt lat="45.94616" lon="5.93614">
        <ele>463.79998779297</ele>
        <time>2019-10-07T14:21:53Z</time>
      </trkpt>
      <trkpt lat="45.94594" lon="5.93645">
        <ele>465.79998779297</ele>
        <time>2019-10-07T14:22:04Z</time>
      </trkpt>
      <trkpt lat="45.94587" lon="5.93655">
        <ele>466.60000610352</ele>
        <time>2019-10-07T14:22:08Z</time>
      </trkpt>
      <trkpt lat="45.94571" lon="5.93679">
        <ele>469</ele>
        <time>2019-10-07T14:22:17Z</time>
      </trkpt>
      <trkpt lat="45.94569" lon="5.93721">
        <ele>471.60000610352</ele>
        <time>2019-10-07T14:22:29Z</time>
      </trkpt>
      <trkpt lat="45.94572" lon="5.93745">
        <ele>473.79998779297</ele>
        <time>2019-10-07T14:22:38Z</time>
      </trkpt>
      <trkpt lat="45.94572" lon="5.93753">
        <ele>474.39999389648</ele>
        <time>2019-10-07T14:22:42Z</time>
      </trkpt>
      <trkpt lat="45.94572" lon="5.9375">
        <ele>476</ele>
        <time>2019-10-07T14:22:55Z</time>
      </trkpt>
      <trkpt lat="45.94572" lon="5.93754">
        <ele>476</ele>
        <time>2019-10-07T14:23:03Z</time>
      </trkpt>
      <trkpt lat="45.94573" lon="5.93771">
        <ele>476.20001220703</ele>
        <time>2019-10-07T14:23:12Z</time>
      </trkpt>
      <trkpt lat="45.94572" lon="5.93778">
        <ele>476.20001220703</ele>
        <time>2019-10-07T14:23:15Z</time>
      </trkpt>
      <trkpt lat="45.94567" lon="5.93798">
        <ele>477</ele>
        <time>2019-10-07T14:23:23Z</time>
      </trkpt>
      <trkpt lat="45.94558" lon="5.9382">
        <ele>478</ele>
        <time>2019-10-07T14:23:32Z</time>
      </trkpt>
      <trkpt lat="45.94552" lon="5.93837">
        <ele>479.60000610352</ele>
        <time>2019-10-07T14:23:39Z</time>
      </trkpt>
      <trkpt lat="45.94553" lon="5.93867">
        <ele>480.79998779297</ele>
        <time>2019-10-07T14:23:48Z</time>
      </trkpt>
      <trkpt lat="45.94562" lon="5.93882">
        <ele>482.20001220703</ele>
        <time>2019-10-07T14:23:55Z</time>
      </trkpt>
      <trkpt lat="45.94574" lon="5.93918">
        <ele>485.20001220703</ele>
        <time>2019-10-07T14:24:09Z</time>
      </trkpt>
      <trkpt lat="45.94531" lon="5.93958">
        <ele>486.20001220703</ele>
        <time>2019-10-07T14:24:23Z</time>
      </trkpt>
      <trkpt lat="45.94506" lon="5.93982">
        <ele>486.20001220703</ele>
        <time>2019-10-07T14:24:30Z</time>
      </trkpt>
      <trkpt lat="45.94487" lon="5.93999">
        <ele>486</ele>
        <time>2019-10-07T14:24:35Z</time>
      </trkpt>
      <trkpt lat="45.94441" lon="5.94042">
        <ele>486.39999389648</ele>
        <time>2019-10-07T14:24:48Z</time>
      </trkpt>
      <trkpt lat="45.94407" lon="5.94078">
        <ele>486.20001220703</ele>
        <time>2019-10-07T14:24:57Z</time>
      </trkpt>
      <trkpt lat="45.9438" lon="5.94108">
        <ele>485.79998779297</ele>
        <time>2019-10-07T14:25:03Z</time>
      </trkpt>
      <trkpt lat="45.94347" lon="5.94145">
        <ele>484.79998779297</ele>
        <time>2019-10-07T14:25:09Z</time>
      </trkpt>
      <trkpt lat="45.94328" lon="5.94159">
        <ele>484.39999389648</ele>
        <time>2019-10-07T14:25:12Z</time>
      </trkpt>
      <trkpt lat="45.94301" lon="5.94151">
        <ele>483</ele>
        <time>2019-10-07T14:25:16Z</time>
      </trkpt>
      <trkpt lat="45.94276" lon="5.94124">
        <ele>481.60000610352</ele>
        <time>2019-10-07T14:25:21Z</time>
      </trkpt>
      <trkpt lat="45.9425" lon="5.94095">
        <ele>477.60000610352</ele>
        <time>2019-10-07T14:25:27Z</time>
      </trkpt>
      <trkpt lat="45.94231" lon="5.94075">
        <ele>474.79998779297</ele>
        <time>2019-10-07T14:25:32Z</time>
      </trkpt>
      <trkpt lat="45.94215" lon="5.94057">
        <ele>472.39999389648</ele>
        <time>2019-10-07T14:25:37Z</time>
      </trkpt>
      <trkpt lat="45.94197" lon="5.94037">
        <ele>469</ele>
        <time>2019-10-07T14:25:44Z</time>
      </trkpt>
      <trkpt lat="45.9417" lon="5.94019">
        <ele>466.79998779297</ele>
        <time>2019-10-07T14:25:51Z</time>
      </trkpt>
      <trkpt lat="45.94163" lon="5.94023">
        <ele>466.39999389648</ele>
        <time>2019-10-07T14:25:53Z</time>
      </trkpt>
      <trkpt lat="45.94142" lon="5.94046">
        <ele>465</ele>
        <time>2019-10-07T14:25:58Z</time>
      </trkpt>
      <trkpt lat="45.94122" lon="5.94068">
        <ele>464</ele>
        <time>2019-10-07T14:26:02Z</time>
      </trkpt>
      <trkpt lat="45.94097" lon="5.9406">
        <ele>462.79998779297</ele>
        <time>2019-10-07T14:26:06Z</time>
      </trkpt>
      <trkpt lat="45.94061" lon="5.94008">
        <ele>461</ele>
        <time>2019-10-07T14:26:12Z</time>
      </trkpt>
      <trkpt lat="45.94024" lon="5.93978">
        <ele>459</ele>
        <time>2019-10-07T14:26:18Z</time>
      </trkpt>
      <trkpt lat="45.93993" lon="5.93966">
        <ele>456.79998779297</ele>
        <time>2019-10-07T14:26:23Z</time>
      </trkpt>
      <trkpt lat="45.93984" lon="5.93951">
        <ele>456</ele>
        <time>2019-10-07T14:26:25Z</time>
      </trkpt>
      <trkpt lat="45.93944" lon="5.93913">
        <ele>452.79998779297</ele>
        <time>2019-10-07T14:26:32Z</time>
      </trkpt>
      <trkpt lat="45.93903" lon="5.93902">
        <ele>451.79998779297</ele>
        <time>2019-10-07T14:26:37Z</time>
      </trkpt>
      <trkpt lat="45.93836" lon="5.93885">
        <ele>448.60000610352</ele>
        <time>2019-10-07T14:26:44Z</time>
      </trkpt>
      <trkpt lat="45.93806" lon="5.93876">
        <ele>447.20001220703</ele>
        <time>2019-10-07T14:26:47Z</time>
      </trkpt>
      <trkpt lat="45.93753" lon="5.9386">
        <ele>444.39999389648</ele>
        <time>2019-10-07T14:26:52Z</time>
      </trkpt>
      <trkpt lat="45.93721" lon="5.93851">
        <ele>442</ele>
        <time>2019-10-07T14:26:55Z</time>
      </trkpt>
      <trkpt lat="45.93657" lon="5.93833">
        <ele>438.79998779297</ele>
        <time>2019-10-07T14:27:01Z</time>
      </trkpt>
      <trkpt lat="45.93625" lon="5.93827">
        <ele>437</ele>
        <time>2019-10-07T14:27:04Z</time>
      </trkpt>
      <trkpt lat="45.93588" lon="5.93804">
        <ele>434.60000610352</ele>
        <time>2019-10-07T14:27:08Z</time>
      </trkpt>
      <trkpt lat="45.93563" lon="5.93775">
        <ele>432.79998779297</ele>
        <time>2019-10-07T14:27:11Z</time>
      </trkpt>
      <trkpt lat="45.93528" lon="5.93747">
        <ele>430.39999389648</ele>
        <time>2019-10-07T14:27:15Z</time>
      </trkpt>
      <trkpt lat="45.935" lon="5.93745">
        <ele>428.20001220703</ele>
        <time>2019-10-07T14:27:18Z</time>
      </trkpt>
      <trkpt lat="45.93473" lon="5.93748">
        <ele>426.60000610352</ele>
        <time>2019-10-07T14:27:21Z</time>
      </trkpt>
      <trkpt lat="45.93405" lon="5.9376">
        <ele>423</ele>
        <time>2019-10-07T14:27:29Z</time>
      </trkpt>
      <trkpt lat="45.93379" lon="5.93752">
        <ele>422.20001220703</ele>
        <time>2019-10-07T14:27:32Z</time>
      </trkpt>
      <trkpt lat="45.93344" lon="5.93747">
        <ele>421.20001220703</ele>
        <time>2019-10-07T14:27:36Z</time>
      </trkpt>
      <trkpt lat="45.93317" lon="5.93758">
        <ele>420.20001220703</ele>
        <time>2019-10-07T14:27:39Z</time>
      </trkpt>
      <trkpt lat="45.93278" lon="5.93776">
        <ele>418.39999389648</ele>
        <time>2019-10-07T14:27:43Z</time>
      </trkpt>
      <trkpt lat="45.93226" lon="5.93793">
        <ele>415.60000610352</ele>
        <time>2019-10-07T14:27:48Z</time>
      </trkpt>
      <trkpt lat="45.93171" lon="5.93809">
        <ele>412.60000610352</ele>
        <time>2019-10-07T14:27:53Z</time>
      </trkpt>
      <trkpt lat="45.93138" lon="5.93819">
        <ele>410.39999389648</ele>
        <time>2019-10-07T14:27:56Z</time>
      </trkpt>
      <trkpt lat="45.93091" lon="5.93833">
        <ele>407</ele>
        <time>2019-10-07T14:28:01Z</time>
      </trkpt>
      <trkpt lat="45.93083" lon="5.93833">
        <ele>404.60000610352</ele>
        <time>2019-10-07T14:28:04Z</time>
      </trkpt>
      <trkpt lat="45.93079" lon="5.93818">
        <ele>401.79998779297</ele>
        <time>2019-10-07T14:28:07Z</time>
      </trkpt>
      <trkpt lat="45.93111" lon="5.93805">
        <ele>398.79998779297</ele>
        <time>2019-10-07T14:28:12Z</time>
      </trkpt>
      <trkpt lat="45.93127" lon="5.93795">
        <ele>397.60000610352</ele>
        <time>2019-10-07T14:28:14Z</time>
      </trkpt>
      <trkpt lat="45.93169" lon="5.93759">
        <ele>395.79998779297</ele>
        <time>2019-10-07T14:28:20Z</time>
      </trkpt>
      <trkpt lat="45.93194" lon="5.93731">
        <ele>394.20001220703</ele>
        <time>2019-10-07T14:28:23Z</time>
      </trkpt>
      <trkpt lat="45.93209" lon="5.93712">
        <ele>392.39999389648</ele>
        <time>2019-10-07T14:28:26Z</time>
      </trkpt>
      <trkpt lat="45.93209" lon="5.937">
        <ele>391.39999389648</ele>
        <time>2019-10-07T14:28:28Z</time>
      </trkpt>
      <trkpt lat="45.93182" lon="5.93697">
        <ele>389.20001220703</ele>
        <time>2019-10-07T14:28:32Z</time>
      </trkpt>
      <trkpt lat="45.93147" lon="5.93707">
        <ele>386.60000610352</ele>
        <time>2019-10-07T14:28:36Z</time>
      </trkpt>
      <trkpt lat="45.93121" lon="5.93698">
        <ele>385.20001220703</ele>
        <time>2019-10-07T14:28:39Z</time>
      </trkpt>
      <trkpt lat="45.93111" lon="5.9368">
        <ele>383.60000610352</ele>
        <time>2019-10-07T14:28:41Z</time>
      </trkpt>
      <trkpt lat="45.93096" lon="5.93616">
        <ele>380</ele>
        <time>2019-10-07T14:28:46Z</time>
      </trkpt>
      <trkpt lat="45.93088" lon="5.9359">
        <ele>377</ele>
        <time>2019-10-07T14:28:49Z</time>
      </trkpt>
      <trkpt lat="45.9307" lon="5.93578">
        <ele>375.60000610352</ele>
        <time>2019-10-07T14:28:52Z</time>
      </trkpt>
      <trkpt lat="45.93061" lon="5.93578">
        <ele>375.39999389648</ele>
        <time>2019-10-07T14:28:54Z</time>
      </trkpt>
      <trkpt lat="45.9305" lon="5.9358">
        <ele>375.60000610352</ele>
        <time>2019-10-07T14:28:57Z</time>
      </trkpt>
      <trkpt lat="45.93027" lon="5.93588">
        <ele>376.20001220703</ele>
        <time>2019-10-07T14:29:04Z</time>
      </trkpt>
      <trkpt lat="45.93011" lon="5.93593">
        <ele>377.60000610352</ele>
        <time>2019-10-07T14:29:10Z</time>
      </trkpt>
      <trkpt lat="45.92983" lon="5.93603">
        <ele>379.20001220703</ele>
        <time>2019-10-07T14:29:19Z</time>
      </trkpt>
      <trkpt lat="45.92971" lon="5.93607">
        <ele>380</ele>
        <time>2019-10-07T14:29:23Z</time>
      </trkpt>
      <trkpt lat="45.92944" lon="5.93613">
        <ele>381.60000610352</ele>
        <time>2019-10-07T14:29:33Z</time>
      </trkpt>
      <trkpt lat="45.92927" lon="5.93615">
        <ele>382.60000610352</ele>
        <time>2019-10-07T14:29:39Z</time>
      </trkpt>
      <trkpt lat="45.92888" lon="5.93611">
        <ele>385.20001220703</ele>
        <time>2019-10-07T14:29:51Z</time>
      </trkpt>
      <trkpt lat="45.9286" lon="5.93598">
        <ele>386.79998779297</ele>
        <time>2019-10-07T14:30:00Z</time>
      </trkpt>
      <trkpt lat="45.92825" lon="5.93564">
        <ele>388.79998779297</ele>
        <time>2019-10-07T14:30:15Z</time>
      </trkpt>
      <trkpt lat="45.92805" lon="5.93542">
        <ele>390.20001220703</ele>
        <time>2019-10-07T14:30:24Z</time>
      </trkpt>
      <trkpt lat="45.92786" lon="5.93526">
        <ele>391.79998779297</ele>
        <time>2019-10-07T14:30:32Z</time>
      </trkpt>
      <trkpt lat="45.9276" lon="5.93518">
        <ele>393.60000610352</ele>
        <time>2019-10-07T14:30:41Z</time>
      </trkpt>
      <trkpt lat="45.92716" lon="5.93512">
        <ele>395.60000610352</ele>
        <time>2019-10-07T14:30:55Z</time>
      </trkpt>
      <trkpt lat="45.92703" lon="5.93511">
        <ele>396.20001220703</ele>
        <time>2019-10-07T14:30:59Z</time>
      </trkpt>
      <trkpt lat="45.92667" lon="5.93511">
        <ele>397.79998779297</ele>
        <time>2019-10-07T14:31:09Z</time>
      </trkpt>
      <trkpt lat="45.92612" lon="5.9352">
        <ele>400.20001220703</ele>
        <time>2019-10-07T14:31:25Z</time>
      </trkpt>
      <trkpt lat="45.92585" lon="5.93524">
        <ele>401.20001220703</ele>
        <time>2019-10-07T14:31:33Z</time>
      </trkpt>
      <trkpt lat="45.92545" lon="5.9353">
        <ele>403</ele>
        <time>2019-10-07T14:31:43Z</time>
      </trkpt>
      <trkpt lat="45.92468" lon="5.93543">
        <ele>405.20001220703</ele>
        <time>2019-10-07T14:32:00Z</time>
      </trkpt>
      <trkpt lat="45.92418" lon="5.93541">
        <ele>405.20001220703</ele>
        <time>2019-10-07T14:32:09Z</time>
      </trkpt>
      <trkpt lat="45.92404" lon="5.93533">
        <ele>405</ele>
        <time>2019-10-07T14:32:12Z</time>
      </trkpt>
      <trkpt lat="45.92354" lon="5.93505">
        <ele>404.79998779297</ele>
        <time>2019-10-07T14:32:22Z</time>
      </trkpt>
      <trkpt lat="45.92337" lon="5.93504">
        <ele>405</ele>
        <time>2019-10-07T14:32:25Z</time>
      </trkpt>
      <trkpt lat="45.92302" lon="5.935">
        <ele>405.20001220703</ele>
        <time>2019-10-07T14:32:33Z</time>
      </trkpt>
      <trkpt lat="45.92296" lon="5.93478">
        <ele>405</ele>
        <time>2019-10-07T14:32:38Z</time>
      </trkpt>
      <trkpt lat="45.92276" lon="5.93486">
        <ele>404.79998779297</ele>
        <time>2019-10-07T14:32:42Z</time>
      </trkpt>
      <trkpt lat="45.92238" lon="5.93501">
        <ele>404.39999389648</ele>
        <time>2019-10-07T14:32:48Z</time>
      </trkpt>
      <trkpt lat="45.922" lon="5.93516">
        <ele>403</ele>
        <time>2019-10-07T14:32:53Z</time>
      </trkpt>
      <trkpt lat="45.92172" lon="5.93513">
        <ele>402.20001220703</ele>
        <time>2019-10-07T14:32:56Z</time>
      </trkpt>
      <trkpt lat="45.92121" lon="5.93499">
        <ele>400.20001220703</ele>
        <time>2019-10-07T14:33:02Z</time>
      </trkpt>
      <trkpt lat="45.92084" lon="5.93502">
        <ele>398.60000610352</ele>
        <time>2019-10-07T14:33:07Z</time>
      </trkpt>
      <trkpt lat="45.92068" lon="5.93517">
        <ele>398.20001220703</ele>
        <time>2019-10-07T14:33:10Z</time>
      </trkpt>
      <trkpt lat="45.92028" lon="5.93567">
        <ele>396.79998779297</ele>
        <time>2019-10-07T14:33:16Z</time>
      </trkpt>
      <trkpt lat="45.91997" lon="5.93591">
        <ele>395.39999389648</ele>
        <time>2019-10-07T14:33:20Z</time>
      </trkpt>
      <trkpt lat="45.91969" lon="5.93604">
        <ele>394.39999389648</ele>
        <time>2019-10-07T14:33:23Z</time>
      </trkpt>
      <trkpt lat="45.91935" lon="5.93621">
        <ele>392.39999389648</ele>
        <time>2019-10-07T14:33:27Z</time>
      </trkpt>
      <trkpt lat="45.91899" lon="5.93638">
        <ele>391.60000610352</ele>
        <time>2019-10-07T14:33:31Z</time>
      </trkpt>
      <trkpt lat="45.91869" lon="5.93647">
        <ele>389.79998779297</ele>
        <time>2019-10-07T14:33:34Z</time>
      </trkpt>
      <trkpt lat="45.91826" lon="5.93629">
        <ele>388</ele>
        <time>2019-10-07T14:33:38Z</time>
      </trkpt>
      <trkpt lat="45.9178" lon="5.93602">
        <ele>385.39999389648</ele>
        <time>2019-10-07T14:33:42Z</time>
      </trkpt>
      <trkpt lat="45.91745" lon="5.93582">
        <ele>383.20001220703</ele>
        <time>2019-10-07T14:33:45Z</time>
      </trkpt>
      <trkpt lat="45.91684" lon="5.93548">
        <ele>379</ele>
        <time>2019-10-07T14:33:50Z</time>
      </trkpt>
      <trkpt lat="45.91638" lon="5.93518">
        <ele>376</ele>
        <time>2019-10-07T14:33:54Z</time>
      </trkpt>
      <trkpt lat="45.91595" lon="5.93486">
        <ele>372.79998779297</ele>
        <time>2019-10-07T14:33:58Z</time>
      </trkpt>
      <trkpt lat="45.91575" lon="5.93465">
        <ele>371</ele>
        <time>2019-10-07T14:34:00Z</time>
      </trkpt>
      <trkpt lat="45.91534" lon="5.93423">
        <ele>368.39999389648</ele>
        <time>2019-10-07T14:34:04Z</time>
      </trkpt>
      <trkpt lat="45.915" lon="5.93391">
        <ele>366</ele>
        <time>2019-10-07T14:34:07Z</time>
      </trkpt>
      <trkpt lat="45.91423" lon="5.93361">
        <ele>359</ele>
        <time>2019-10-07T14:34:13Z</time>
      </trkpt>
      <trkpt lat="45.91364" lon="5.93342">
        <ele>354.60000610352</ele>
        <time>2019-10-07T14:34:18Z</time>
      </trkpt>
      <trkpt lat="45.91282" lon="5.93316">
        <ele>350.20001220703</ele>
        <time>2019-10-07T14:34:27Z</time>
      </trkpt>
      <trkpt lat="45.91252" lon="5.93306">
        <ele>350.20001220703</ele>
        <time>2019-10-07T14:34:32Z</time>
      </trkpt>
      <trkpt lat="45.91217" lon="5.93295">
        <ele>351.20001220703</ele>
        <time>2019-10-07T14:34:39Z</time>
      </trkpt>
      <trkpt lat="45.91176" lon="5.93282">
        <ele>352.60000610352</ele>
        <time>2019-10-07T14:34:47Z</time>
      </trkpt>
      <trkpt lat="45.91158" lon="5.93279">
        <ele>353</ele>
        <time>2019-10-07T14:34:51Z</time>
      </trkpt>
      <trkpt lat="45.9115" lon="5.93311">
        <ele>354.79998779297</ele>
        <time>2019-10-07T14:38:48Z</time>
      </trkpt>
      <trkpt lat="45.91149" lon="5.93334">
        <ele>355</ele>
        <time>2019-10-07T14:38:55Z</time>
      </trkpt>
      <trkpt lat="45.91146" lon="5.93372">
        <ele>356.39999389648</ele>
        <time>2019-10-07T14:39:06Z</time>
      </trkpt>
      <trkpt lat="45.91145" lon="5.93395">
        <ele>357.20001220703</ele>
        <time>2019-10-07T14:39:13Z</time>
      </trkpt>
      <trkpt lat="45.91143" lon="5.93423">
        <ele>358.39999389648</ele>
        <time>2019-10-07T14:39:22Z</time>
      </trkpt>
      <trkpt lat="45.91142" lon="5.93441">
        <ele>359.39999389648</ele>
        <time>2019-10-07T14:39:29Z</time>
      </trkpt>
      <trkpt lat="45.91141" lon="5.93457">
        <ele>361</ele>
        <time>2019-10-07T14:39:36Z</time>
      </trkpt>
      <trkpt lat="45.9114" lon="5.93474">
        <ele>363.39999389648</ele>
        <time>2019-10-07T14:39:44Z</time>
      </trkpt>
      <trkpt lat="45.91141" lon="5.93496">
        <ele>365.60000610352</ele>
        <time>2019-10-07T14:39:54Z</time>
      </trkpt>
      <trkpt lat="45.91145" lon="5.93508">
        <ele>367.20001220703</ele>
        <time>2019-10-07T14:40:00Z</time>
      </trkpt>
      <trkpt lat="45.9115" lon="5.93526">
        <ele>368.60000610352</ele>
        <time>2019-10-07T14:40:08Z</time>
      </trkpt>
      <trkpt lat="45.91155" lon="5.93542">
        <ele>370.20001220703</ele>
        <time>2019-10-07T14:40:15Z</time>
      </trkpt>
      <trkpt lat="45.91158" lon="5.93563">
        <ele>371.79998779297</ele>
        <time>2019-10-07T14:40:24Z</time>
      </trkpt>
      <trkpt lat="45.91161" lon="5.93595">
        <ele>374.79998779297</ele>
        <time>2019-10-07T14:40:36Z</time>
      </trkpt>
      <trkpt lat="45.91166" lon="5.93645">
        <ele>376</ele>
        <time>2019-10-07T14:40:49Z</time>
      </trkpt>
      <trkpt lat="45.91171" lon="5.937">
        <ele>376</ele>
        <time>2019-10-07T14:41:00Z</time>
      </trkpt>
      <trkpt lat="45.91175" lon="5.93722">
        <ele>376</ele>
        <time>2019-10-07T14:41:04Z</time>
      </trkpt>
      <trkpt lat="45.91197" lon="5.93756">
        <ele>376.79998779297</ele>
        <time>2019-10-07T14:41:14Z</time>
      </trkpt>
      <trkpt lat="45.91225" lon="5.93784">
        <ele>378.39999389648</ele>
        <time>2019-10-07T14:41:24Z</time>
      </trkpt>
      <trkpt lat="45.91282" lon="5.93847">
        <ele>379.60000610352</ele>
        <time>2019-10-07T14:41:42Z</time>
      </trkpt>
      <trkpt lat="45.91301" lon="5.93877">
        <ele>380.79998779297</ele>
        <time>2019-10-07T14:41:50Z</time>
      </trkpt>
      <trkpt lat="45.91315" lon="5.93929">
        <ele>382</ele>
        <time>2019-10-07T14:42:00Z</time>
      </trkpt>
      <trkpt lat="45.91326" lon="5.9399">
        <ele>384.39999389648</ele>
        <time>2019-10-07T14:42:14Z</time>
      </trkpt>
      <trkpt lat="45.91341" lon="5.94062">
        <ele>385.79998779297</ele>
        <time>2019-10-07T14:42:29Z</time>
      </trkpt>
      <trkpt lat="45.91345" lon="5.94082">
        <ele>386.39999389648</ele>
        <time>2019-10-07T14:42:34Z</time>
      </trkpt>
      <trkpt lat="45.91352" lon="5.94132">
        <ele>387.79998779297</ele>
        <time>2019-10-07T14:42:45Z</time>
      </trkpt>
      <trkpt lat="45.91353" lon="5.9417">
        <ele>389.79998779297</ele>
        <time>2019-10-07T14:42:54Z</time>
      </trkpt>
      <trkpt lat="45.91355" lon="5.94209">
        <ele>390.60000610352</ele>
        <time>2019-10-07T14:43:03Z</time>
      </trkpt>
      <trkpt lat="45.91357" lon="5.9426">
        <ele>392.20001220703</ele>
        <time>2019-10-07T14:43:15Z</time>
      </trkpt>
      <trkpt lat="45.9136" lon="5.94285">
        <ele>394</ele>
        <time>2019-10-07T14:43:22Z</time>
      </trkpt>
      <trkpt lat="45.91369" lon="5.94323">
        <ele>396.20001220703</ele>
        <time>2019-10-07T14:43:33Z</time>
      </trkpt>
      <trkpt lat="45.9138" lon="5.94355">
        <ele>398</ele>
        <time>2019-10-07T14:43:42Z</time>
      </trkpt>
      <trkpt lat="45.91393" lon="5.94389">
        <ele>398.60000610352</ele>
        <time>2019-10-07T14:43:51Z</time>
      </trkpt>
      <trkpt lat="45.91416" lon="5.94448">
        <ele>400.20001220703</ele>
        <time>2019-10-07T14:44:06Z</time>
      </trkpt>
      <trkpt lat="45.91423" lon="5.94473">
        <ele>401.60000610352</ele>
        <time>2019-10-07T14:44:13Z</time>
      </trkpt>
      <trkpt lat="45.91427" lon="5.94488">
        <ele>403</ele>
        <time>2019-10-07T14:44:18Z</time>
      </trkpt>
      <trkpt lat="45.91427" lon="5.94528">
        <ele>405.79998779297</ele>
        <time>2019-10-07T14:44:30Z</time>
      </trkpt>
      <trkpt lat="45.91427" lon="5.94556">
        <ele>407.60000610352</ele>
        <time>2019-10-07T14:44:38Z</time>
      </trkpt>
      <trkpt lat="45.91425" lon="5.94589">
        <ele>409.20001220703</ele>
        <time>2019-10-07T14:44:49Z</time>
      </trkpt>
      <trkpt lat="45.91423" lon="5.94611">
        <ele>410.79998779297</ele>
        <time>2019-10-07T14:44:55Z</time>
      </trkpt>
      <trkpt lat="45.9142" lon="5.94646">
        <ele>412.39999389648</ele>
        <time>2019-10-07T14:45:04Z</time>
      </trkpt>
      <trkpt lat="45.91412" lon="5.9469">
        <ele>415</ele>
        <time>2019-10-07T14:45:16Z</time>
      </trkpt>
      <trkpt lat="45.91395" lon="5.94702">
        <ele>416</ele>
        <time>2019-10-07T14:45:24Z</time>
      </trkpt>
      <trkpt lat="45.91359" lon="5.94683">
        <ele>416.79998779297</ele>
        <time>2019-10-07T14:45:34Z</time>
      </trkpt>
      <trkpt lat="45.91343" lon="5.94676">
        <ele>416.79998779297</ele>
        <time>2019-10-07T14:45:38Z</time>
      </trkpt>
      <trkpt lat="45.9132" lon="5.94666">
        <ele>416.60000610352</ele>
        <time>2019-10-07T14:45:44Z</time>
      </trkpt>
      <trkpt lat="45.91292" lon="5.94646">
        <ele>416.20001220703</ele>
        <time>2019-10-07T14:45:49Z</time>
      </trkpt>
      <trkpt lat="45.9126" lon="5.94618">
        <ele>414.60000610352</ele>
        <time>2019-10-07T14:45:55Z</time>
      </trkpt>
      <trkpt lat="45.91252" lon="5.94606">
        <ele>414</ele>
        <time>2019-10-07T14:45:57Z</time>
      </trkpt>
      <trkpt lat="45.91231" lon="5.94564">
        <ele>411.79998779297</ele>
        <time>2019-10-07T14:46:02Z</time>
      </trkpt>
      <trkpt lat="45.91216" lon="5.94535">
        <ele>410.60000610352</ele>
        <time>2019-10-07T14:46:05Z</time>
      </trkpt>
      <trkpt lat="45.91194" lon="5.94504">
        <ele>408.60000610352</ele>
        <time>2019-10-07T14:46:09Z</time>
      </trkpt>
      <trkpt lat="45.91175" lon="5.94492">
        <ele>407</ele>
        <time>2019-10-07T14:46:12Z</time>
      </trkpt>
      <trkpt lat="45.91139" lon="5.9449">
        <ele>405</ele>
        <time>2019-10-07T14:46:17Z</time>
      </trkpt>
      <trkpt lat="45.91118" lon="5.94491">
        <ele>403.60000610352</ele>
        <time>2019-10-07T14:46:20Z</time>
      </trkpt>
      <trkpt lat="45.91102" lon="5.94487">
        <ele>403.20001220703</ele>
        <time>2019-10-07T14:46:22Z</time>
      </trkpt>
      <trkpt lat="45.91085" lon="5.94474">
        <ele>402.60000610352</ele>
        <time>2019-10-07T14:46:25Z</time>
      </trkpt>
      <trkpt lat="45.91084" lon="5.94463">
        <ele>401.60000610352</ele>
        <time>2019-10-07T14:46:27Z</time>
      </trkpt>
      <trkpt lat="45.91084" lon="5.94422">
        <ele>399.20001220703</ele>
        <time>2019-10-07T14:46:31Z</time>
      </trkpt>
      <trkpt lat="45.91072" lon="5.94411">
        <ele>397.79998779297</ele>
        <time>2019-10-07T14:46:33Z</time>
      </trkpt>
      <trkpt lat="45.91044" lon="5.94424">
        <ele>395.39999389648</ele>
        <time>2019-10-07T14:46:36Z</time>
      </trkpt>
      <trkpt lat="45.91024" lon="5.94437">
        <ele>394.20001220703</ele>
        <time>2019-10-07T14:46:38Z</time>
      </trkpt>
      <trkpt lat="45.90984" lon="5.94486">
        <ele>390.20001220703</ele>
        <time>2019-10-07T14:46:43Z</time>
      </trkpt>
      <trkpt lat="45.90963" lon="5.94502">
        <ele>387.60000610352</ele>
        <time>2019-10-07T14:46:45Z</time>
      </trkpt>
      <trkpt lat="45.90922" lon="5.94534">
        <ele>384</ele>
        <time>2019-10-07T14:46:49Z</time>
      </trkpt>
      <trkpt lat="45.90893" lon="5.94547">
        <ele>382</ele>
        <time>2019-10-07T14:46:52Z</time>
      </trkpt>
      <trkpt lat="45.90863" lon="5.9453">
        <ele>379.20001220703</ele>
        <time>2019-10-07T14:46:55Z</time>
      </trkpt>
      <trkpt lat="45.9081" lon="5.94472">
        <ele>371.39999389648</ele>
        <time>2019-10-07T14:47:03Z</time>
      </trkpt>
      <trkpt lat="45.90786" lon="5.94435">
        <ele>371</ele>
        <time>2019-10-07T14:47:11Z</time>
      </trkpt>
      <trkpt lat="45.90768" lon="5.94417">
        <ele>372.39999389648</ele>
        <time>2019-10-07T14:47:17Z</time>
      </trkpt>
      <trkpt lat="45.90738" lon="5.94407">
        <ele>374.20001220703</ele>
        <time>2019-10-07T14:47:24Z</time>
      </trkpt>
      <trkpt lat="45.90711" lon="5.94399">
        <ele>375</ele>
        <time>2019-10-07T14:47:30Z</time>
      </trkpt>
      <trkpt lat="45.90694" lon="5.94381">
        <ele>375.39999389648</ele>
        <time>2019-10-07T14:47:35Z</time>
      </trkpt>
      <trkpt lat="45.90657" lon="5.94294">
        <ele>377.20001220703</ele>
        <time>2019-10-07T14:47:51Z</time>
      </trkpt>
      <trkpt lat="45.90635" lon="5.94241">
        <ele>377.79998779297</ele>
        <time>2019-10-07T14:48:02Z</time>
      </trkpt>
      <trkpt lat="45.90607" lon="5.94204">
        <ele>377.79998779297</ele>
        <time>2019-10-07T14:48:10Z</time>
      </trkpt>
      <trkpt lat="45.90584" lon="5.94179">
        <ele>377.20001220703</ele>
        <time>2019-10-07T14:48:14Z</time>
      </trkpt>
      <trkpt lat="45.90564" lon="5.94135">
        <ele>376.20001220703</ele>
        <time>2019-10-07T14:48:19Z</time>
      </trkpt>
      <trkpt lat="45.90554" lon="5.94107">
        <ele>375.39999389648</ele>
        <time>2019-10-07T14:48:22Z</time>
      </trkpt>
      <trkpt lat="45.9054" lon="5.94069">
        <ele>373.60000610352</ele>
        <time>2019-10-07T14:48:27Z</time>
      </trkpt>
      <trkpt lat="45.90513" lon="5.9401">
        <ele>371.20001220703</ele>
        <time>2019-10-07T14:48:34Z</time>
      </trkpt>
      <trkpt lat="45.90496" lon="5.93985">
        <ele>369.79998779297</ele>
        <time>2019-10-07T14:48:37Z</time>
      </trkpt>
      <trkpt lat="45.90458" lon="5.93934">
        <ele>367.60000610352</ele>
        <time>2019-10-07T14:48:43Z</time>
      </trkpt>
      <trkpt lat="45.90444" lon="5.93914">
        <ele>363.60000610352</ele>
        <time>2019-10-07T14:48:50Z</time>
      </trkpt>
      <trkpt lat="45.90442" lon="5.93912">
        <ele>360</ele>
        <time>2019-10-07T14:49:18Z</time>
      </trkpt>
      <trkpt lat="45.90437" lon="5.93905">
        <ele>360</ele>
        <time>2019-10-07T14:49:21Z</time>
      </trkpt>
      <trkpt lat="45.90415" lon="5.93875">
        <ele>360</ele>
        <time>2019-10-07T14:49:27Z</time>
      </trkpt>
      <trkpt lat="45.90395" lon="5.93848">
        <ele>359.60000610352</ele>
        <time>2019-10-07T14:49:31Z</time>
      </trkpt>
      <trkpt lat="45.90359" lon="5.93799">
        <ele>357.79998779297</ele>
        <time>2019-10-07T14:49:37Z</time>
      </trkpt>
      <trkpt lat="45.90341" lon="5.93775">
        <ele>356.60000610352</ele>
        <time>2019-10-07T14:49:40Z</time>
      </trkpt>
      <trkpt lat="45.90305" lon="5.9375">
        <ele>355</ele>
        <time>2019-10-07T14:49:45Z</time>
      </trkpt>
      <trkpt lat="45.90259" lon="5.93737">
        <ele>352.60000610352</ele>
        <time>2019-10-07T14:49:51Z</time>
      </trkpt>
      <trkpt lat="45.9023" lon="5.93706">
        <ele>351.39999389648</ele>
        <time>2019-10-07T14:49:57Z</time>
      </trkpt>
      <trkpt lat="45.90223" lon="5.93671">
        <ele>351.39999389648</ele>
        <time>2019-10-07T14:50:01Z</time>
      </trkpt>
      <trkpt lat="45.90216" lon="5.93625">
        <ele>351.20001220703</ele>
        <time>2019-10-07T14:50:08Z</time>
      </trkpt>
      <trkpt lat="45.90206" lon="5.93538">
        <ele>351.20001220703</ele>
        <time>2019-10-07T14:50:22Z</time>
      </trkpt>
      <trkpt lat="45.90202" lon="5.93501">
        <ele>351</ele>
        <time>2019-10-07T14:50:28Z</time>
      </trkpt>
      <trkpt lat="45.90197" lon="5.93473">
        <ele>350</ele>
        <time>2019-10-07T14:50:51Z</time>
      </trkpt>
      <trkpt lat="45.90192" lon="5.93466">
        <ele>349.79998779297</ele>
        <time>2019-10-07T14:50:55Z</time>
      </trkpt>
      <trkpt lat="45.90139" lon="5.9347">
        <ele>349.79998779297</ele>
        <time>2019-10-07T14:51:08Z</time>
      </trkpt>
      <trkpt lat="45.90127" lon="5.93468">
        <ele>349.79998779297</ele>
        <time>2019-10-07T14:51:16Z</time>
      </trkpt>
      <trkpt lat="45.90106" lon="5.93468">
        <ele>350</ele>
        <time>2019-10-07T14:51:22Z</time>
      </trkpt>
      <trkpt lat="45.90029" lon="5.93476">
        <ele>349.79998779297</ele>
        <time>2019-10-07T14:51:37Z</time>
      </trkpt>
      <trkpt lat="45.89888" lon="5.93487">
        <ele>349.39999389648</ele>
        <time>2019-10-07T14:52:02Z</time>
      </trkpt>
      <trkpt lat="45.8979" lon="5.93493">
        <ele>349</ele>
        <time>2019-10-07T14:52:20Z</time>
      </trkpt>
      <trkpt lat="45.89681" lon="5.93497">
        <ele>349.39999389648</ele>
        <time>2019-10-07T14:52:40Z</time>
      </trkpt>
      <trkpt lat="45.89606" lon="5.93501">
        <ele>349.79998779297</ele>
        <time>2019-10-07T14:52:55Z</time>
      </trkpt>
      <trkpt lat="45.8954" lon="5.93505">
        <ele>350.20001220703</ele>
        <time>2019-10-07T14:53:08Z</time>
      </trkpt>
      <trkpt lat="45.89524" lon="5.93506">
        <ele>350</ele>
        <time>2019-10-07T14:53:11Z</time>
      </trkpt>
      <trkpt lat="45.89511" lon="5.93506">
        <ele>349.60000610352</ele>
        <time>2019-10-07T14:53:13Z</time>
      </trkpt>
      <trkpt lat="45.89463" lon="5.93494">
        <ele>348.39999389648</ele>
        <time>2019-10-07T14:53:21Z</time>
      </trkpt>
      <trkpt lat="45.89443" lon="5.93506">
        <ele>347.79998779297</ele>
        <time>2019-10-07T14:53:24Z</time>
      </trkpt>
      <trkpt lat="45.89406" lon="5.93531">
        <ele>347.39999389648</ele>
        <time>2019-10-07T14:53:30Z</time>
      </trkpt>
      <trkpt lat="45.89378" lon="5.9355">
        <ele>346.39999389648</ele>
        <time>2019-10-07T14:53:34Z</time>
      </trkpt>
      <trkpt lat="45.89314" lon="5.93575">
        <ele>344.20001220703</ele>
        <time>2019-10-07T14:53:41Z</time>
      </trkpt>
      <trkpt lat="45.89279" lon="5.93595">
        <ele>342.79998779297</ele>
        <time>2019-10-07T14:53:45Z</time>
      </trkpt>
      <trkpt lat="45.89217" lon="5.93631">
        <ele>341</ele>
        <time>2019-10-07T14:53:52Z</time>
      </trkpt>
      <trkpt lat="45.89163" lon="5.93662">
        <ele>339.20001220703</ele>
        <time>2019-10-07T14:53:58Z</time>
      </trkpt>
      <trkpt lat="45.89109" lon="5.93693">
        <ele>336.20001220703</ele>
        <time>2019-10-07T14:54:04Z</time>
      </trkpt>
      <trkpt lat="45.8904" lon="5.93732">
        <ele>333.20001220703</ele>
        <time>2019-10-07T14:54:12Z</time>
      </trkpt>
      <trkpt lat="45.88947" lon="5.93805">
        <ele>331.20001220703</ele>
        <time>2019-10-07T14:54:26Z</time>
      </trkpt>
      <trkpt lat="45.88892" lon="5.9388">
        <ele>330.39999389648</ele>
        <time>2019-10-07T14:54:36Z</time>
      </trkpt>
      <trkpt lat="45.88861" lon="5.93922">
        <ele>330.39999389648</ele>
        <time>2019-10-07T14:54:42Z</time>
      </trkpt>
      <trkpt lat="45.88785" lon="5.93964">
        <ele>329.20001220703</ele>
        <time>2019-10-07T14:54:53Z</time>
      </trkpt>
      <trkpt lat="45.88698" lon="5.94002">
        <ele>328</ele>
        <time>2019-10-07T14:55:05Z</time>
      </trkpt>
      <trkpt lat="45.88639" lon="5.94019">
        <ele>327.39999389648</ele>
        <time>2019-10-07T14:55:13Z</time>
      </trkpt>
      <trkpt lat="45.88611" lon="5.94011">
        <ele>327</ele>
        <time>2019-10-07T14:55:17Z</time>
      </trkpt>
      <trkpt lat="45.88563" lon="5.93964">
        <ele>326.39999389648</ele>
        <time>2019-10-07T14:55:25Z</time>
      </trkpt>
      <trkpt lat="45.88548" lon="5.93925">
        <ele>326.20001220703</ele>
        <time>2019-10-07T14:55:29Z</time>
      </trkpt>
      <trkpt lat="45.88543" lon="5.93864">
        <ele>326.20001220703</ele>
        <time>2019-10-07T14:55:35Z</time>
      </trkpt>
      <trkpt lat="45.88551" lon="5.93775">
        <ele>325.60000610352</ele>
        <time>2019-10-07T14:55:45Z</time>
      </trkpt>
      <trkpt lat="45.8854" lon="5.93744">
        <ele>325.60000610352</ele>
        <time>2019-10-07T14:55:49Z</time>
      </trkpt>
      <trkpt lat="45.88523" lon="5.93721">
        <ele>325.60000610352</ele>
        <time>2019-10-07T14:55:53Z</time>
      </trkpt>
      <trkpt lat="45.88462" lon="5.93643">
        <ele>325.60000610352</ele>
        <time>2019-10-07T14:56:06Z</time>
      </trkpt>
      <trkpt lat="45.88452" lon="5.93602">
        <ele>325.60000610352</ele>
        <time>2019-10-07T14:56:11Z</time>
      </trkpt>
      <trkpt lat="45.88442" lon="5.93503">
        <ele>325.60000610352</ele>
        <time>2019-10-07T14:56:23Z</time>
      </trkpt>
      <trkpt lat="45.88419" lon="5.9347">
        <ele>325.39999389648</ele>
        <time>2019-10-07T14:56:29Z</time>
      </trkpt>
      <trkpt lat="45.88394" lon="5.93466">
        <ele>325.39999389648</ele>
        <time>2019-10-07T14:56:33Z</time>
      </trkpt>
      <trkpt lat="45.88253" lon="5.93498">
        <ele>325.60000610352</ele>
        <time>2019-10-07T14:56:54Z</time>
      </trkpt>
      <trkpt lat="45.88149" lon="5.93536">
        <ele>326</ele>
        <time>2019-10-07T14:57:10Z</time>
      </trkpt>
      <trkpt lat="45.88064" lon="5.93617">
        <ele>326.39999389648</ele>
        <time>2019-10-07T14:57:25Z</time>
      </trkpt>
      <trkpt lat="45.87988" lon="5.93717">
        <ele>326.39999389648</ele>
        <time>2019-10-07T14:57:41Z</time>
      </trkpt>
      <trkpt lat="45.87855" lon="5.93809">
        <ele>326.60000610352</ele>
        <time>2019-10-07T14:58:03Z</time>
      </trkpt>
      <trkpt lat="45.87747" lon="5.93861">
        <ele>327</ele>
        <time>2019-10-07T14:58:22Z</time>
      </trkpt>
      <trkpt lat="45.87663" lon="5.93899">
        <ele>327.79998779297</ele>
        <time>2019-10-07T14:58:37Z</time>
      </trkpt>
      <trkpt lat="45.87596" lon="5.93932">
        <ele>328</ele>
        <time>2019-10-07T14:58:49Z</time>
      </trkpt>
      <trkpt lat="45.87475" lon="5.93995">
        <ele>328.79998779297</ele>
        <time>2019-10-07T14:59:10Z</time>
      </trkpt>
      <trkpt lat="45.87425" lon="5.94021">
        <ele>329.39999389648</ele>
        <time>2019-10-07T14:59:19Z</time>
      </trkpt>
      <trkpt lat="45.87359" lon="5.94098">
        <ele>329.79998779297</ele>
        <time>2019-10-07T14:59:33Z</time>
      </trkpt>
      <trkpt lat="45.8728" lon="5.94184">
        <ele>330.39999389648</ele>
        <time>2019-10-07T14:59:50Z</time>
      </trkpt>
      <trkpt lat="45.87195" lon="5.94233">
        <ele>331</ele>
        <time>2019-10-07T15:00:06Z</time>
      </trkpt>
      <trkpt lat="45.87157" lon="5.94253">
        <ele>331.39999389648</ele>
        <time>2019-10-07T15:00:19Z</time>
      </trkpt>
      <trkpt lat="45.87147" lon="5.94254">
        <ele>331.39999389648</ele>
        <time>2019-10-07T15:00:25Z</time>
      </trkpt>
      <trkpt lat="45.87127" lon="5.94224">
        <ele>331.39999389648</ele>
        <time>2019-10-07T15:00:37Z</time>
      </trkpt>
      <trkpt lat="45.87129" lon="5.94189">
        <ele>331.20001220703</ele>
        <time>2019-10-07T15:00:44Z</time>
      </trkpt>
      <trkpt lat="45.87127" lon="5.94176">
        <ele>330.60000610352</ele>
        <time>2019-10-07T15:01:57Z</time>
      </trkpt>
      <trkpt lat="45.87129" lon="5.94199">
        <ele>330.60000610352</ele>
        <time>2019-10-07T15:02:01Z</time>
      </trkpt>
      <trkpt lat="45.87119" lon="5.94265">
        <ele>331</ele>
        <time>2019-10-07T15:02:13Z</time>
      </trkpt>
      <trkpt lat="45.87104" lon="5.94289">
        <ele>331.60000610352</ele>
        <time>2019-10-07T15:02:19Z</time>
      </trkpt>
      <trkpt lat="45.87064" lon="5.94351">
        <ele>332.20001220703</ele>
        <time>2019-10-07T15:02:33Z</time>
      </trkpt>
      <trkpt lat="45.87043" lon="5.94402">
        <ele>332.20001220703</ele>
        <time>2019-10-07T15:02:42Z</time>
      </trkpt>
      <trkpt lat="45.8702" lon="5.94412">
        <ele>332.20001220703</ele>
        <time>2019-10-07T15:02:47Z</time>
      </trkpt>
      <trkpt lat="45.87004" lon="5.94412">
        <ele>331.79998779297</ele>
        <time>2019-10-07T15:02:51Z</time>
      </trkpt>
      <trkpt lat="45.86996" lon="5.94412">
        <ele>331.79998779297</ele>
        <time>2019-10-07T15:02:53Z</time>
      </trkpt>
      <trkpt lat="45.86969" lon="5.94409">
        <ele>331.20001220703</ele>
        <time>2019-10-07T15:02:58Z</time>
      </trkpt>
      <trkpt lat="45.86956" lon="5.94405">
        <ele>330.60000610352</ele>
        <time>2019-10-07T15:03:00Z</time>
      </trkpt>
      <trkpt lat="45.8692" lon="5.94392">
        <ele>329.20001220703</ele>
        <time>2019-10-07T15:03:08Z</time>
      </trkpt>
      <trkpt lat="45.86892" lon="5.94401">
        <ele>328.39999389648</ele>
        <time>2019-10-07T15:03:17Z</time>
      </trkpt>
      <trkpt lat="45.86885" lon="5.9442">
        <ele>328.60000610352</ele>
        <time>2019-10-07T15:03:23Z</time>
      </trkpt>
      <trkpt lat="45.86884" lon="5.94422">
        <ele>328.60000610352</ele>
        <time>2019-10-07T15:03:25Z</time>
      </trkpt>
      <trkpt lat="45.86889" lon="5.94409">
        <ele>329.60000610352</ele>
        <time>2019-10-07T15:03:34Z</time>
      </trkpt>
      <trkpt lat="45.86891" lon="5.944">
        <ele>329.79998779297</ele>
        <time>2019-10-07T15:03:37Z</time>
      </trkpt>
      <trkpt lat="45.86891" lon="5.94389">
        <ele>329.20001220703</ele>
        <time>2019-10-07T15:03:44Z</time>
      </trkpt>
      <trkpt lat="45.86882" lon="5.94381">
        <ele>328.79998779297</ele>
        <time>2019-10-07T15:03:48Z</time>
      </trkpt>
      <trkpt lat="45.86854" lon="5.94368">
        <ele>328</ele>
        <time>2019-10-07T15:04:00Z</time>
      </trkpt>
      <trkpt lat="45.86843" lon="5.94362">
        <ele>328</ele>
        <time>2019-10-07T15:04:05Z</time>
      </trkpt>
      <trkpt lat="45.86833" lon="5.94349">
        <ele>327.60000610352</ele>
        <time>2019-10-07T15:04:09Z</time>
      </trkpt>
      <trkpt lat="45.86825" lon="5.94307">
        <ele>326.60000610352</ele>
        <time>2019-10-07T15:04:17Z</time>
      </trkpt>
      <trkpt lat="45.86814" lon="5.94276">
        <ele>325.39999389648</ele>
        <time>2019-10-07T15:04:21Z</time>
      </trkpt>
      <trkpt lat="45.86775" lon="5.94251">
        <ele>325</ele>
        <time>2019-10-07T15:04:30Z</time>
      </trkpt>
      <trkpt lat="45.8675" lon="5.94245">
        <ele>325.39999389648</ele>
        <time>2019-10-07T15:04:38Z</time>
      </trkpt>
      <trkpt lat="45.86726" lon="5.94239">
        <ele>326.60000610352</ele>
        <time>2019-10-07T15:04:45Z</time>
      </trkpt>
      <trkpt lat="45.867" lon="5.94232">
        <ele>327.20001220703</ele>
        <time>2019-10-07T15:04:52Z</time>
      </trkpt>
      <trkpt lat="45.86664" lon="5.94226">
        <ele>327.60000610352</ele>
        <time>2019-10-07T15:05:04Z</time>
      </trkpt>
      <trkpt lat="45.86657" lon="5.94227">
        <ele>328.20001220703</ele>
        <time>2019-10-07T15:05:09Z</time>
      </trkpt>
      <trkpt lat="45.86641" lon="5.94274">
        <ele>329</ele>
        <time>2019-10-07T15:05:22Z</time>
      </trkpt>
      <trkpt lat="45.86632" lon="5.94305">
        <ele>329.60000610352</ele>
        <time>2019-10-07T15:05:30Z</time>
      </trkpt>
      <trkpt lat="45.8662" lon="5.94323">
        <ele>329.39999389648</ele>
        <time>2019-10-07T15:05:37Z</time>
      </trkpt>
      <trkpt lat="45.86611" lon="5.94332">
        <ele>329.79998779297</ele>
        <time>2019-10-07T15:05:40Z</time>
      </trkpt>
      <trkpt lat="45.86605" lon="5.94339">
        <ele>330.39999389648</ele>
        <time>2019-10-07T15:05:43Z</time>
      </trkpt>
      <trkpt lat="45.86597" lon="5.94347">
        <ele>331.39999389648</ele>
        <time>2019-10-07T15:05:47Z</time>
      </trkpt>
      <trkpt lat="45.86591" lon="5.94354">
        <ele>332.79998779297</ele>
        <time>2019-10-07T15:05:51Z</time>
      </trkpt>
      <trkpt lat="45.86586" lon="5.94362">
        <ele>334.79998779297</ele>
        <time>2019-10-07T15:05:56Z</time>
      </trkpt>
      <trkpt lat="45.8658" lon="5.94371">
        <ele>336.39999389648</ele>
        <time>2019-10-07T15:06:01Z</time>
      </trkpt>
      <trkpt lat="45.86559" lon="5.94399">
        <ele>337</ele>
        <time>2019-10-07T15:06:11Z</time>
      </trkpt>
      <trkpt lat="45.86527" lon="5.9441">
        <ele>337.39999389648</ele>
        <time>2019-10-07T15:06:17Z</time>
      </trkpt>
      <trkpt lat="45.86478" lon="5.94426">
        <ele>337.79998779297</ele>
        <time>2019-10-07T15:06:30Z</time>
      </trkpt>
      <trkpt lat="45.86458" lon="5.94435">
        <ele>338</ele>
        <time>2019-10-07T15:06:35Z</time>
      </trkpt>
      <trkpt lat="45.86435" lon="5.94457">
        <ele>338.20001220703</ele>
        <time>2019-10-07T15:06:41Z</time>
      </trkpt>
      <trkpt lat="45.86418" lon="5.94485">
        <ele>338.79998779297</ele>
        <time>2019-10-07T15:06:48Z</time>
      </trkpt>
      <trkpt lat="45.86396" lon="5.94533">
        <ele>339.20001220703</ele>
        <time>2019-10-07T15:07:04Z</time>
      </trkpt>
      <trkpt lat="45.86394" lon="5.94545">
        <ele>339.39999389648</ele>
        <time>2019-10-07T15:07:10Z</time>
      </trkpt>
      <trkpt lat="45.86373" lon="5.9457">
        <ele>339.20001220703</ele>
        <time>2019-10-07T15:07:16Z</time>
      </trkpt>
      <trkpt lat="45.86357" lon="5.94592">
        <ele>339.39999389648</ele>
        <time>2019-10-07T15:07:24Z</time>
      </trkpt>
      <trkpt lat="45.86347" lon="5.94598">
        <ele>339.39999389648</ele>
        <time>2019-10-07T15:07:28Z</time>
      </trkpt>
      <trkpt lat="45.8636" lon="5.94587">
        <ele>339.20001220703</ele>
        <time>2019-10-07T15:07:37Z</time>
      </trkpt>
      <trkpt lat="45.86367" lon="5.94575">
        <ele>339</ele>
        <time>2019-10-07T15:07:44Z</time>
      </trkpt>
      <trkpt lat="45.86371" lon="5.94572">
        <ele>339.60000610352</ele>
        <time>2019-10-07T15:08:44Z</time>
      </trkpt>
      <trkpt lat="45.86368" lon="5.94574">
        <ele>339.60000610352</ele>
        <time>2019-10-07T15:08:47Z</time>
      </trkpt>
      <trkpt lat="45.86359" lon="5.94588">
        <ele>339.39999389648</ele>
        <time>2019-10-07T15:08:57Z</time>
      </trkpt>
      <trkpt lat="45.86353" lon="5.94598">
        <ele>339.39999389648</ele>
        <time>2019-10-07T15:09:01Z</time>
      </trkpt>
      <trkpt lat="45.86339" lon="5.94617">
        <ele>339.60000610352</ele>
        <time>2019-10-07T15:09:06Z</time>
      </trkpt>
      <trkpt lat="45.86312" lon="5.94652">
        <ele>339.79998779297</ele>
        <time>2019-10-07T15:09:15Z</time>
      </trkpt>
      <trkpt lat="45.86254" lon="5.94703">
        <ele>340.20001220703</ele>
        <time>2019-10-07T15:09:32Z</time>
      </trkpt>
      <trkpt lat="45.86218" lon="5.94723">
        <ele>340.60000610352</ele>
        <time>2019-10-07T15:09:43Z</time>
      </trkpt>
      <trkpt lat="45.8619" lon="5.9474">
        <ele>341</ele>
        <time>2019-10-07T15:09:52Z</time>
      </trkpt>
      <trkpt lat="45.86157" lon="5.94759">
        <ele>341.20001220703</ele>
        <time>2019-10-07T15:10:00Z</time>
      </trkpt>
      <trkpt lat="45.86129" lon="5.94776">
        <ele>341.20001220703</ele>
        <time>2019-10-07T15:10:07Z</time>
      </trkpt>
      <trkpt lat="45.86037" lon="5.94821">
        <ele>341.79998779297</ele>
        <time>2019-10-07T15:10:25Z</time>
      </trkpt>
      <trkpt lat="45.85988" lon="5.94845">
        <ele>342.39999389648</ele>
        <time>2019-10-07T15:10:37Z</time>
      </trkpt>
      <trkpt lat="45.85953" lon="5.94862">
        <ele>342.60000610352</ele>
        <time>2019-10-07T15:10:45Z</time>
      </trkpt>
      <trkpt lat="45.85927" lon="5.94877">
        <ele>343</ele>
        <time>2019-10-07T15:10:51Z</time>
      </trkpt>
      <trkpt lat="45.8584" lon="5.94926">
        <ele>343.79998779297</ele>
        <time>2019-10-07T15:11:10Z</time>
      </trkpt>
      <trkpt lat="45.85755" lon="5.9497">
        <ele>344.20001220703</ele>
        <time>2019-10-07T15:11:27Z</time>
      </trkpt>
      <trkpt lat="45.85668" lon="5.95011">
        <ele>345.39999389648</ele>
        <time>2019-10-07T15:11:46Z</time>
      </trkpt>
      <trkpt lat="45.85636" lon="5.95027">
        <ele>345.39999389648</ele>
        <time>2019-10-07T15:11:54Z</time>
      </trkpt>
      <trkpt lat="45.85553" lon="5.95071">
        <ele>346.60000610352</ele>
        <time>2019-10-07T15:12:16Z</time>
      </trkpt>
      <trkpt lat="45.85524" lon="5.95088">
        <ele>346.60000610352</ele>
        <time>2019-10-07T15:12:22Z</time>
      </trkpt>
      <trkpt lat="45.85422" lon="5.95146">
        <ele>347.39999389648</ele>
        <time>2019-10-07T15:12:42Z</time>
      </trkpt>
      <trkpt lat="45.85354" lon="5.95182">
        <ele>347.60000610352</ele>
        <time>2019-10-07T15:12:55Z</time>
      </trkpt>
      <trkpt lat="45.85289" lon="5.95216">
        <ele>348.20001220703</ele>
        <time>2019-10-07T15:13:07Z</time>
      </trkpt>
      <trkpt lat="45.85199" lon="5.95249">
        <ele>348.79998779297</ele>
        <time>2019-10-07T15:13:24Z</time>
      </trkpt>
      <trkpt lat="45.85137" lon="5.95248">
        <ele>348.79998779297</ele>
        <time>2019-10-07T15:13:35Z</time>
      </trkpt>
      <trkpt lat="45.85103" lon="5.95246">
        <ele>349</ele>
        <time>2019-10-07T15:13:42Z</time>
      </trkpt>
      <trkpt lat="45.85082" lon="5.95244">
        <ele>349</ele>
        <time>2019-10-07T15:13:46Z</time>
      </trkpt>
      <trkpt lat="45.85011" lon="5.95241">
        <ele>349.20001220703</ele>
        <time>2019-10-07T15:13:58Z</time>
      </trkpt>
      <trkpt lat="45.84946" lon="5.95238">
        <ele>349.60000610352</ele>
        <time>2019-10-07T15:14:11Z</time>
      </trkpt>
      <trkpt lat="45.8489" lon="5.95235">
        <ele>349.79998779297</ele>
        <time>2019-10-07T15:14:24Z</time>
      </trkpt>
      <trkpt lat="45.84887" lon="5.95235">
        <ele>349.79998779297</ele>
        <time>2019-10-07T15:14:34Z</time>
      </trkpt>
      <trkpt lat="45.84875" lon="5.95235">
        <ele>350.20001220703</ele>
        <time>2019-10-07T15:14:54Z</time>
      </trkpt>
      <trkpt lat="45.84836" lon="5.95233">
        <ele>350.39999389648</ele>
        <time>2019-10-07T15:15:03Z</time>
      </trkpt>
      <trkpt lat="45.84793" lon="5.95231">
        <ele>350.79998779297</ele>
        <time>2019-10-07T15:15:14Z</time>
      </trkpt>
      <trkpt lat="45.84775" lon="5.9523">
        <ele>350.79998779297</ele>
        <time>2019-10-07T15:15:22Z</time>
      </trkpt>
      <trkpt lat="45.84769" lon="5.95229">
        <ele>352</ele>
        <time>2019-10-07T15:17:03Z</time>
      </trkpt>
      <trkpt lat="45.84765" lon="5.95251">
        <ele>351.79998779297</ele>
        <time>2019-10-07T15:17:08Z</time>
      </trkpt>
      <trkpt lat="45.84765" lon="5.95276">
        <ele>351.60000610352</ele>
        <time>2019-10-07T15:17:11Z</time>
      </trkpt>
      <trkpt lat="45.84766" lon="5.95324">
        <ele>351.60000610352</ele>
        <time>2019-10-07T15:17:15Z</time>
      </trkpt>
      <trkpt lat="45.84766" lon="5.95386">
        <ele>350</ele>
        <time>2019-10-07T15:17:20Z</time>
      </trkpt>
      <trkpt lat="45.84761" lon="5.95479">
        <ele>346.20001220703</ele>
        <time>2019-10-07T15:17:27Z</time>
      </trkpt>
      <trkpt lat="45.84759" lon="5.95572">
        <ele>341.79998779297</ele>
        <time>2019-10-07T15:17:34Z</time>
      </trkpt>
      <trkpt lat="45.84758" lon="5.95654">
        <ele>339.79998779297</ele>
        <time>2019-10-07T15:17:41Z</time>
      </trkpt>
      <trkpt lat="45.84739" lon="5.95671">
        <ele>339.20001220703</ele>
        <time>2019-10-07T15:17:44Z</time>
      </trkpt>
      <trkpt lat="45.84735" lon="5.95731">
        <ele>338.60000610352</ele>
        <time>2019-10-07T15:17:51Z</time>
      </trkpt>
      <trkpt lat="45.84725" lon="5.95765">
        <ele>338.79998779297</ele>
        <time>2019-10-07T15:17:55Z</time>
      </trkpt>
      <trkpt lat="45.8466" lon="5.95923">
        <ele>338.79998779297</ele>
        <time>2019-10-07T15:18:20Z</time>
      </trkpt>
      <trkpt lat="45.84638" lon="5.95976">
        <ele>338.39999389648</ele>
        <time>2019-10-07T15:18:27Z</time>
      </trkpt>
      <trkpt lat="45.84569" lon="5.96135">
        <ele>337.20001220703</ele>
        <time>2019-10-07T15:18:48Z</time>
      </trkpt>
      <trkpt lat="45.84552" lon="5.96175">
        <ele>337.79998779297</ele>
        <time>2019-10-07T15:18:54Z</time>
      </trkpt>
      <trkpt lat="45.84528" lon="5.96219">
        <ele>338.20001220703</ele>
        <time>2019-10-07T15:19:02Z</time>
      </trkpt>
      <trkpt lat="45.84497" lon="5.96257">
        <ele>338.79998779297</ele>
        <time>2019-10-07T15:19:12Z</time>
      </trkpt>
      <trkpt lat="45.84478" lon="5.96255">
        <ele>339.20001220703</ele>
        <time>2019-10-07T15:19:15Z</time>
      </trkpt>
      <trkpt lat="45.84441" lon="5.9624">
        <ele>339.60000610352</ele>
        <time>2019-10-07T15:19:22Z</time>
      </trkpt>
      <trkpt lat="45.84398" lon="5.96186">
        <ele>340</ele>
        <time>2019-10-07T15:19:34Z</time>
      </trkpt>
      <trkpt lat="45.84367" lon="5.96154">
        <ele>340.39999389648</ele>
        <time>2019-10-07T15:19:41Z</time>
      </trkpt>
      <trkpt lat="45.84327" lon="5.96148">
        <ele>340.79998779297</ele>
        <time>2019-10-07T15:19:49Z</time>
      </trkpt>
      <trkpt lat="45.84303" lon="5.96152">
        <ele>341</ele>
        <time>2019-10-07T15:19:53Z</time>
      </trkpt>
      <trkpt lat="45.84289" lon="5.96155">
        <ele>341.20001220703</ele>
        <time>2019-10-07T15:19:56Z</time>
      </trkpt>
      <trkpt lat="45.84246" lon="5.96163">
        <ele>341.60000610352</ele>
        <time>2019-10-07T15:20:04Z</time>
      </trkpt>
      <trkpt lat="45.84205" lon="5.9617">
        <ele>342.79998779297</ele>
        <time>2019-10-07T15:20:13Z</time>
      </trkpt>
      <trkpt lat="45.84162" lon="5.96179">
        <ele>344.20001220703</ele>
        <time>2019-10-07T15:20:22Z</time>
      </trkpt>
      <trkpt lat="45.841" lon="5.96191">
        <ele>345.20001220703</ele>
        <time>2019-10-07T15:20:34Z</time>
      </trkpt>
      <trkpt lat="45.8404" lon="5.96202">
        <ele>345.60000610352</ele>
        <time>2019-10-07T15:20:45Z</time>
      </trkpt>
      <trkpt lat="45.83994" lon="5.9621">
        <ele>345.79998779297</ele>
        <time>2019-10-07T15:20:55Z</time>
      </trkpt>
      <trkpt lat="45.83981" lon="5.96212">
        <ele>346</ele>
        <time>2019-10-07T15:20:58Z</time>
      </trkpt>
      <trkpt lat="45.83922" lon="5.96252">
        <ele>346.60000610352</ele>
        <time>2019-10-07T15:21:10Z</time>
      </trkpt>
      <trkpt lat="45.83851" lon="5.96299">
        <ele>347.20001220703</ele>
        <time>2019-10-07T15:21:24Z</time>
      </trkpt>
      <trkpt lat="45.8381" lon="5.9631">
        <ele>347.20001220703</ele>
        <time>2019-10-07T15:21:33Z</time>
      </trkpt>
      <trkpt lat="45.83796" lon="5.9628">
        <ele>347.39999389648</ele>
        <time>2019-10-07T15:21:38Z</time>
      </trkpt>
      <trkpt lat="45.83783" lon="5.96263">
        <ele>347.39999389648</ele>
        <time>2019-10-07T15:21:43Z</time>
      </trkpt>
      <trkpt lat="45.83762" lon="5.96244">
        <ele>347.79998779297</ele>
        <time>2019-10-07T15:21:47Z</time>
      </trkpt>
      <trkpt lat="45.83662" lon="5.96203">
        <ele>347.79998779297</ele>
        <time>2019-10-07T15:22:07Z</time>
      </trkpt>
      <trkpt lat="45.83633" lon="5.96194">
        <ele>348</ele>
        <time>2019-10-07T15:22:13Z</time>
      </trkpt>
      <trkpt lat="45.83599" lon="5.96186">
        <ele>349.20001220703</ele>
        <time>2019-10-07T15:22:21Z</time>
      </trkpt>
      <trkpt lat="45.83589" lon="5.96186">
        <ele>349.60000610352</ele>
        <time>2019-10-07T15:22:23Z</time>
      </trkpt>
      <trkpt lat="45.83575" lon="5.96185">
        <ele>350</ele>
        <time>2019-10-07T15:22:26Z</time>
      </trkpt>
      <trkpt lat="45.83551" lon="5.96184">
        <ele>351.20001220703</ele>
        <time>2019-10-07T15:22:31Z</time>
      </trkpt>
      <trkpt lat="45.8351" lon="5.96182">
        <ele>353.20001220703</ele>
        <time>2019-10-07T15:22:40Z</time>
      </trkpt>
      <trkpt lat="45.83428" lon="5.9616">
        <ele>354</ele>
        <time>2019-10-07T15:22:58Z</time>
      </trkpt>
      <trkpt lat="45.83407" lon="5.96156">
        <ele>354</ele>
        <time>2019-10-07T15:23:02Z</time>
      </trkpt>
      <trkpt lat="45.83341" lon="5.96145">
        <ele>353.79998779297</ele>
        <time>2019-10-07T15:23:15Z</time>
      </trkpt>
      <trkpt lat="45.83309" lon="5.96139">
        <ele>353.60000610352</ele>
        <time>2019-10-07T15:23:21Z</time>
      </trkpt>
      <trkpt lat="45.83273" lon="5.96133">
        <ele>353.39999389648</ele>
        <time>2019-10-07T15:23:28Z</time>
      </trkpt>
      <trkpt lat="45.83238" lon="5.96128">
        <ele>353.39999389648</ele>
        <time>2019-10-07T15:23:34Z</time>
      </trkpt>
      <trkpt lat="45.83125" lon="5.96108">
        <ele>352.39999389648</ele>
        <time>2019-10-07T15:23:54Z</time>
      </trkpt>
      <trkpt lat="45.83079" lon="5.96103">
        <ele>352.60000610352</ele>
        <time>2019-10-07T15:24:02Z</time>
      </trkpt>
      <trkpt lat="45.83005" lon="5.96098">
        <ele>352.60000610352</ele>
        <time>2019-10-07T15:24:14Z</time>
      </trkpt>
      <trkpt lat="45.8297" lon="5.96075">
        <ele>352.60000610352</ele>
        <time>2019-10-07T15:24:21Z</time>
      </trkpt>
      <trkpt lat="45.8294" lon="5.96048">
        <ele>353</ele>
        <time>2019-10-07T15:24:29Z</time>
      </trkpt>
      <trkpt lat="45.82921" lon="5.96039">
        <ele>354.20001220703</ele>
        <time>2019-10-07T15:24:33Z</time>
      </trkpt>
      <trkpt lat="45.82906" lon="5.96037">
        <ele>355</ele>
        <time>2019-10-07T15:24:37Z</time>
      </trkpt>
      <trkpt lat="45.82858" lon="5.9604">
        <ele>356.60000610352</ele>
        <time>2019-10-07T15:24:48Z</time>
      </trkpt>
      <trkpt lat="45.82836" lon="5.96043">
        <ele>356.79998779297</ele>
        <time>2019-10-07T15:24:52Z</time>
      </trkpt>
      <trkpt lat="45.82799" lon="5.96047">
        <ele>357.60000610352</ele>
        <time>2019-10-07T15:24:59Z</time>
      </trkpt>
      <trkpt lat="45.82745" lon="5.96051">
        <ele>358.39999389648</ele>
        <time>2019-10-07T15:25:10Z</time>
      </trkpt>
      <trkpt lat="45.82673" lon="5.96053">
        <ele>358.60000610352</ele>
        <time>2019-10-07T15:25:22Z</time>
      </trkpt>
      <trkpt lat="45.82603" lon="5.96064">
        <ele>358</ele>
        <time>2019-10-07T15:25:34Z</time>
      </trkpt>
      <trkpt lat="45.82571" lon="5.96064">
        <ele>358</ele>
        <time>2019-10-07T15:25:41Z</time>
      </trkpt>
      <trkpt lat="45.82553" lon="5.96104">
        <ele>358.60000610352</ele>
        <time>2019-10-07T15:25:47Z</time>
      </trkpt>
      <trkpt lat="45.8251" lon="5.96169">
        <ele>359.20001220703</ele>
        <time>2019-10-07T15:25:59Z</time>
      </trkpt>
      <trkpt lat="45.82499" lon="5.9621">
        <ele>359.20001220703</ele>
        <time>2019-10-07T15:26:04Z</time>
      </trkpt>
      <trkpt lat="45.82506" lon="5.96283">
        <ele>358.60000610352</ele>
        <time>2019-10-07T15:26:12Z</time>
      </trkpt>
      <trkpt lat="45.8253" lon="5.96363">
        <ele>358</ele>
        <time>2019-10-07T15:26:22Z</time>
      </trkpt>
      <trkpt lat="45.82568" lon="5.96432">
        <ele>357</ele>
        <time>2019-10-07T15:26:32Z</time>
      </trkpt>
      <trkpt lat="45.82607" lon="5.96485">
        <ele>356.20001220703</ele>
        <time>2019-10-07T15:26:41Z</time>
      </trkpt>
      <trkpt lat="45.82622" lon="5.96526">
        <ele>356</ele>
        <time>2019-10-07T15:26:46Z</time>
      </trkpt>
      <trkpt lat="45.82651" lon="5.96635">
        <ele>356.39999389648</ele>
        <time>2019-10-07T15:27:00Z</time>
      </trkpt>
      <trkpt lat="45.82653" lon="5.96671">
        <ele>356.60000610352</ele>
        <time>2019-10-07T15:27:04Z</time>
      </trkpt>
      <trkpt lat="45.82634" lon="5.96734">
        <ele>356.60000610352</ele>
        <time>2019-10-07T15:27:12Z</time>
      </trkpt>
      <trkpt lat="45.82591" lon="5.96827">
        <ele>357</ele>
        <time>2019-10-07T15:27:25Z</time>
      </trkpt>
      <trkpt lat="45.82568" lon="5.96898">
        <ele>357.60000610352</ele>
        <time>2019-10-07T15:27:35Z</time>
      </trkpt>
      <trkpt lat="45.82568" lon="5.9692">
        <ele>358</ele>
        <time>2019-10-07T15:27:38Z</time>
      </trkpt>
      <trkpt lat="45.82581" lon="5.97005">
        <ele>359.60000610352</ele>
        <time>2019-10-07T15:27:51Z</time>
      </trkpt>
      <trkpt lat="45.82592" lon="5.97061">
        <ele>360.39999389648</ele>
        <time>2019-10-07T15:28:00Z</time>
      </trkpt>
      <trkpt lat="45.82616" lon="5.97201">
        <ele>362.20001220703</ele>
        <time>2019-10-07T15:28:21Z</time>
      </trkpt>
      <trkpt lat="45.82616" lon="5.97248">
        <ele>362.60000610352</ele>
        <time>2019-10-07T15:28:28Z</time>
      </trkpt>
      <trkpt lat="45.82613" lon="5.97295">
        <ele>363.39999389648</ele>
        <time>2019-10-07T15:28:35Z</time>
      </trkpt>
      <trkpt lat="45.82608" lon="5.97357">
        <ele>364.39999389648</ele>
        <time>2019-10-07T15:28:44Z</time>
      </trkpt>
      <trkpt lat="45.82603" lon="5.9742">
        <ele>365.39999389648</ele>
        <time>2019-10-07T15:28:53Z</time>
      </trkpt>
      <trkpt lat="45.82599" lon="5.97475">
        <ele>367</ele>
        <time>2019-10-07T15:29:02Z</time>
      </trkpt>
      <trkpt lat="45.82593" lon="5.97497">
        <ele>367.60000610352</ele>
        <time>2019-10-07T15:29:06Z</time>
      </trkpt>
      <trkpt lat="45.8249" lon="5.9751">
        <ele>368.79998779297</ele>
        <time>2019-10-07T15:29:26Z</time>
      </trkpt>
      <trkpt lat="45.82433" lon="5.97526">
        <ele>368.79998779297</ele>
        <time>2019-10-07T15:29:36Z</time>
      </trkpt>
      <trkpt lat="45.82327" lon="5.97543">
        <ele>369.20001220703</ele>
        <time>2019-10-07T15:29:54Z</time>
      </trkpt>
      <trkpt lat="45.82279" lon="5.97545">
        <ele>369.79998779297</ele>
        <time>2019-10-07T15:30:03Z</time>
      </trkpt>
      <trkpt lat="45.82197" lon="5.97546">
        <ele>371</ele>
        <time>2019-10-07T15:30:20Z</time>
      </trkpt>
      <trkpt lat="45.82155" lon="5.97547">
        <ele>371</ele>
        <time>2019-10-07T15:30:28Z</time>
      </trkpt>
      <trkpt lat="45.82129" lon="5.97546">
        <ele>371</ele>
        <time>2019-10-07T15:30:36Z</time>
      </trkpt>
      <trkpt lat="45.82125" lon="5.97546">
        <ele>370.20001220703</ele>
        <time>2019-10-07T15:31:17Z</time>
      </trkpt>
      <trkpt lat="45.82117" lon="5.97545">
        <ele>370.20001220703</ele>
        <time>2019-10-07T15:31:20Z</time>
      </trkpt>
      <trkpt lat="45.82086" lon="5.97525">
        <ele>370.20001220703</ele>
        <time>2019-10-07T15:31:27Z</time>
      </trkpt>
      <trkpt lat="45.82011" lon="5.97494">
        <ele>369.79998779297</ele>
        <time>2019-10-07T15:31:41Z</time>
      </trkpt>
      <trkpt lat="45.81969" lon="5.97489">
        <ele>370.20001220703</ele>
        <time>2019-10-07T15:31:49Z</time>
      </trkpt>
      <trkpt lat="45.81943" lon="5.97487">
        <ele>370.79998779297</ele>
        <time>2019-10-07T15:31:54Z</time>
      </trkpt>
      <trkpt lat="45.81893" lon="5.97481">
        <ele>372.39999389648</ele>
        <time>2019-10-07T15:32:05Z</time>
      </trkpt>
      <trkpt lat="45.81819" lon="5.97458">
        <ele>373.79998779297</ele>
        <time>2019-10-07T15:32:20Z</time>
      </trkpt>
      <trkpt lat="45.81761" lon="5.97428">
        <ele>374.39999389648</ele>
        <time>2019-10-07T15:32:32Z</time>
      </trkpt>
      <trkpt lat="45.817" lon="5.97407">
        <ele>375.60000610352</ele>
        <time>2019-10-07T15:32:44Z</time>
      </trkpt>
      <trkpt lat="45.81648" lon="5.97389">
        <ele>376.20001220703</ele>
        <time>2019-10-07T15:32:55Z</time>
      </trkpt>
      <trkpt lat="45.81598" lon="5.97372">
        <ele>377.79998779297</ele>
        <time>2019-10-07T15:33:06Z</time>
      </trkpt>
      <trkpt lat="45.81516" lon="5.97343">
        <ele>380</ele>
        <time>2019-10-07T15:33:25Z</time>
      </trkpt>
      <trkpt lat="45.81485" lon="5.97333">
        <ele>381.60000610352</ele>
        <time>2019-10-07T15:33:32Z</time>
      </trkpt>
      <trkpt lat="45.81389" lon="5.973">
        <ele>383</ele>
        <time>2019-10-07T15:33:52Z</time>
      </trkpt>
      <trkpt lat="45.81354" lon="5.97292">
        <ele>383</ele>
        <time>2019-10-07T15:33:58Z</time>
      </trkpt>
      <trkpt lat="45.81283" lon="5.97296">
        <ele>382.20001220703</ele>
        <time>2019-10-07T15:34:09Z</time>
      </trkpt>
      <trkpt lat="45.81229" lon="5.97302">
        <ele>382.20001220703</ele>
        <time>2019-10-07T15:34:18Z</time>
      </trkpt>
      <trkpt lat="45.81182" lon="5.97308">
        <ele>383.79998779297</ele>
        <time>2019-10-07T15:34:28Z</time>
      </trkpt>
      <trkpt lat="45.81129" lon="5.97315">
        <ele>386</ele>
        <time>2019-10-07T15:34:40Z</time>
      </trkpt>
      <trkpt lat="45.81094" lon="5.97319">
        <ele>387.20001220703</ele>
        <time>2019-10-07T15:34:48Z</time>
      </trkpt>
      <trkpt lat="45.81038" lon="5.97327">
        <ele>389.60000610352</ele>
        <time>2019-10-07T15:35:01Z</time>
      </trkpt>
      <trkpt lat="45.8101" lon="5.97325">
        <ele>390.39999389648</ele>
        <time>2019-10-07T15:35:08Z</time>
      </trkpt>
      <trkpt lat="45.80981" lon="5.97318">
        <ele>391.39999389648</ele>
        <time>2019-10-07T15:35:14Z</time>
      </trkpt>
      <trkpt lat="45.80934" lon="5.97302">
        <ele>392.60000610352</ele>
        <time>2019-10-07T15:35:25Z</time>
      </trkpt>
      <trkpt lat="45.8089" lon="5.97287">
        <ele>392.39999389648</ele>
        <time>2019-10-07T15:35:34Z</time>
      </trkpt>
      <trkpt lat="45.80868" lon="5.97281">
        <ele>392.39999389648</ele>
        <time>2019-10-07T15:35:38Z</time>
      </trkpt>
      <trkpt lat="45.80842" lon="5.97277">
        <ele>391.79998779297</ele>
        <time>2019-10-07T15:35:42Z</time>
      </trkpt>
      <trkpt lat="45.80797" lon="5.97272">
        <ele>390.60000610352</ele>
        <time>2019-10-07T15:35:49Z</time>
      </trkpt>
      <trkpt lat="45.80757" lon="5.97266">
        <ele>389.39999389648</ele>
        <time>2019-10-07T15:35:56Z</time>
      </trkpt>
      <trkpt lat="45.80715" lon="5.97259">
        <ele>388.60000610352</ele>
        <time>2019-10-07T15:36:03Z</time>
      </trkpt>
      <trkpt lat="45.80679" lon="5.97254">
        <ele>387.79998779297</ele>
        <time>2019-10-07T15:36:08Z</time>
      </trkpt>
      <trkpt lat="45.80624" lon="5.97247">
        <ele>386.39999389648</ele>
        <time>2019-10-07T15:36:15Z</time>
      </trkpt>
      <trkpt lat="45.8059" lon="5.97242">
        <ele>385</ele>
        <time>2019-10-07T15:36:19Z</time>
      </trkpt>
      <trkpt lat="45.80535" lon="5.97234">
        <ele>383.60000610352</ele>
        <time>2019-10-07T15:36:25Z</time>
      </trkpt>
      <trkpt lat="45.80512" lon="5.97233">
        <ele>381.79998779297</ele>
        <time>2019-10-07T15:36:28Z</time>
      </trkpt>
      <trkpt lat="45.80433" lon="5.97231">
        <ele>376.79998779297</ele>
        <time>2019-10-07T15:36:38Z</time>
      </trkpt>
      <trkpt lat="45.80406" lon="5.9723">
        <ele>375.20001220703</ele>
        <time>2019-10-07T15:36:42Z</time>
      </trkpt>
      <trkpt lat="45.8033" lon="5.97227">
        <ele>372.79998779297</ele>
        <time>2019-10-07T15:36:53Z</time>
      </trkpt>
      <trkpt lat="45.80304" lon="5.97226">
        <ele>372.79998779297</ele>
        <time>2019-10-07T15:36:58Z</time>
      </trkpt>
      <trkpt lat="45.80263" lon="5.97225">
        <ele>374</ele>
        <time>2019-10-07T15:37:07Z</time>
      </trkpt>
      <trkpt lat="45.80239" lon="5.97225">
        <ele>374.39999389648</ele>
        <time>2019-10-07T15:37:12Z</time>
      </trkpt>
      <trkpt lat="45.80193" lon="5.9723">
        <ele>375</ele>
        <time>2019-10-07T15:37:21Z</time>
      </trkpt>
      <trkpt lat="45.80174" lon="5.97236">
        <ele>375.20001220703</ele>
        <time>2019-10-07T15:37:26Z</time>
      </trkpt>
      <trkpt lat="45.80158" lon="5.9724">
        <ele>376.20001220703</ele>
        <time>2019-10-07T15:37:32Z</time>
      </trkpt>
      <trkpt lat="45.80154" lon="5.97241">
        <ele>378</ele>
        <time>2019-10-07T15:39:27Z</time>
      </trkpt>
      <trkpt lat="45.80141" lon="5.97244">
        <ele>378</ele>
        <time>2019-10-07T15:39:32Z</time>
      </trkpt>
      <trkpt lat="45.80122" lon="5.97258">
        <ele>378</ele>
        <time>2019-10-07T15:39:40Z</time>
      </trkpt>
      <trkpt lat="45.80093" lon="5.97282">
        <ele>378.60000610352</ele>
        <time>2019-10-07T15:39:53Z</time>
      </trkpt>
      <trkpt lat="45.80069" lon="5.97263">
        <ele>378.60000610352</ele>
        <time>2019-10-07T15:40:00Z</time>
      </trkpt>
      <trkpt lat="45.80055" lon="5.97243">
        <ele>378.20001220703</ele>
        <time>2019-10-07T15:40:03Z</time>
      </trkpt>
      <trkpt lat="45.80032" lon="5.97206">
        <ele>376.60000610352</ele>
        <time>2019-10-07T15:40:08Z</time>
      </trkpt>
      <trkpt lat="45.8001" lon="5.97172">
        <ele>375.20001220703</ele>
        <time>2019-10-07T15:40:12Z</time>
      </trkpt>
      <trkpt lat="45.79971" lon="5.97111">
        <ele>373</ele>
        <time>2019-10-07T15:40:19Z</time>
      </trkpt>
      <trkpt lat="45.79932" lon="5.97052">
        <ele>369.20001220703</ele>
        <time>2019-10-07T15:40:27Z</time>
      </trkpt>
      <trkpt lat="45.79891" lon="5.96995">
        <ele>367.79998779297</ele>
        <time>2019-10-07T15:40:35Z</time>
      </trkpt>
      <trkpt lat="45.79851" lon="5.9694">
        <ele>366.39999389648</ele>
        <time>2019-10-07T15:40:44Z</time>
      </trkpt>
      <trkpt lat="45.79834" lon="5.969">
        <ele>365.20001220703</ele>
        <time>2019-10-07T15:40:49Z</time>
      </trkpt>
      <trkpt lat="45.79821" lon="5.96881">
        <ele>363.20001220703</ele>
        <time>2019-10-07T15:40:56Z</time>
      </trkpt>
      <trkpt lat="45.79818" lon="5.96878">
        <ele>362.20001220703</ele>
        <time>2019-10-07T15:41:28Z</time>
      </trkpt>
      <trkpt lat="45.79812" lon="5.96884">
        <ele>362</ele>
        <time>2019-10-07T15:41:31Z</time>
      </trkpt>
      <trkpt lat="45.79805" lon="5.96931">
        <ele>362</ele>
        <time>2019-10-07T15:41:41Z</time>
      </trkpt>
      <trkpt lat="45.79801" lon="5.96965">
        <ele>362.60000610352</ele>
        <time>2019-10-07T15:41:48Z</time>
      </trkpt>
      <trkpt lat="45.79798" lon="5.96991">
        <ele>363.39999389648</ele>
        <time>2019-10-07T15:41:54Z</time>
      </trkpt>
      <trkpt lat="45.7979" lon="5.97016">
        <ele>364.39999389648</ele>
        <time>2019-10-07T15:42:01Z</time>
      </trkpt>
      <trkpt lat="45.79784" lon="5.97012">
        <ele>364.39999389648</ele>
        <time>2019-10-07T15:42:03Z</time>
      </trkpt>
      <trkpt lat="45.79749" lon="5.96986">
        <ele>364.39999389648</ele>
        <time>2019-10-07T15:42:09Z</time>
      </trkpt>
      <trkpt lat="45.79726" lon="5.96969">
        <ele>363.79998779297</ele>
        <time>2019-10-07T15:42:12Z</time>
      </trkpt>
      <trkpt lat="45.79683" lon="5.96954">
        <ele>361.79998779297</ele>
        <time>2019-10-07T15:42:18Z</time>
      </trkpt>
      <trkpt lat="45.79675" lon="5.9695">
        <ele>360.60000610352</ele>
        <time>2019-10-07T15:42:21Z</time>
      </trkpt>
      <trkpt lat="45.79662" lon="5.9696">
        <ele>359.39999389648</ele>
        <time>2019-10-07T15:42:24Z</time>
      </trkpt>
      <trkpt lat="45.79633" lon="5.96965">
        <ele>357.79998779297</ele>
        <time>2019-10-07T15:42:30Z</time>
      </trkpt>
      <trkpt lat="45.79601" lon="5.96971">
        <ele>357</ele>
        <time>2019-10-07T15:42:35Z</time>
      </trkpt>
      <trkpt lat="45.79528" lon="5.96993">
        <ele>355</ele>
        <time>2019-10-07T15:42:46Z</time>
      </trkpt>
      <trkpt lat="45.79516" lon="5.96997">
        <ele>355</ele>
        <time>2019-10-07T15:42:48Z</time>
      </trkpt>
      <trkpt lat="45.79484" lon="5.96996">
        <ele>354.39999389648</ele>
        <time>2019-10-07T15:42:53Z</time>
      </trkpt>
      <trkpt lat="45.7946" lon="5.96995">
        <ele>353.79998779297</ele>
        <time>2019-10-07T15:43:01Z</time>
      </trkpt>
      <trkpt lat="45.79457" lon="5.96994">
        <ele>353.39999389648</ele>
        <time>2019-10-07T15:44:03Z</time>
      </trkpt>
      <trkpt lat="45.79446" lon="5.96994">
        <ele>352.79998779297</ele>
        <time>2019-10-07T15:44:06Z</time>
      </trkpt>
      <trkpt lat="45.79381" lon="5.96968">
        <ele>351.79998779297</ele>
        <time>2019-10-07T15:44:17Z</time>
      </trkpt>
      <trkpt lat="45.7934" lon="5.96951">
        <ele>351.60000610352</ele>
        <time>2019-10-07T15:44:23Z</time>
      </trkpt>
      <trkpt lat="45.79287" lon="5.96929">
        <ele>350.60000610352</ele>
        <time>2019-10-07T15:44:31Z</time>
      </trkpt>
      <trkpt lat="45.79226" lon="5.96904">
        <ele>350.39999389648</ele>
        <time>2019-10-07T15:44:41Z</time>
      </trkpt>
      <trkpt lat="45.79145" lon="5.96856">
        <ele>350.20001220703</ele>
        <time>2019-10-07T15:44:55Z</time>
      </trkpt>
      <trkpt lat="45.79096" lon="5.96812">
        <ele>349.60000610352</ele>
        <time>2019-10-07T15:45:04Z</time>
      </trkpt>
      <trkpt lat="45.79069" lon="5.96783">
        <ele>349.39999389648</ele>
        <time>2019-10-07T15:45:08Z</time>
      </trkpt>
      <trkpt lat="45.79048" lon="5.9676">
        <ele>348.79998779297</ele>
        <time>2019-10-07T15:45:11Z</time>
      </trkpt>
      <trkpt lat="45.79022" lon="5.96739">
        <ele>347.20001220703</ele>
        <time>2019-10-07T15:45:14Z</time>
      </trkpt>
      <trkpt lat="45.78983" lon="5.96746">
        <ele>346</ele>
        <time>2019-10-07T15:45:18Z</time>
      </trkpt>
      <trkpt lat="45.78919" lon="5.96791">
        <ele>342</ele>
        <time>2019-10-07T15:45:26Z</time>
      </trkpt>
      <trkpt lat="45.78882" lon="5.9682">
        <ele>341.79998779297</ele>
        <time>2019-10-07T15:45:33Z</time>
      </trkpt>
      <trkpt lat="45.78864" lon="5.96828">
        <ele>342</ele>
        <time>2019-10-07T15:45:37Z</time>
      </trkpt>
      <trkpt lat="45.7884" lon="5.96833">
        <ele>343</ele>
        <time>2019-10-07T15:45:42Z</time>
      </trkpt>
      <trkpt lat="45.7882" lon="5.9683">
        <ele>344.20001220703</ele>
        <time>2019-10-07T15:45:46Z</time>
      </trkpt>
      <trkpt lat="45.78782" lon="5.96818">
        <ele>345.60000610352</ele>
        <time>2019-10-07T15:45:53Z</time>
      </trkpt>
      <trkpt lat="45.78753" lon="5.96802">
        <ele>345.79998779297</ele>
        <time>2019-10-07T15:45:58Z</time>
      </trkpt>
      <trkpt lat="45.78701" lon="5.96789">
        <ele>345.79998779297</ele>
        <time>2019-10-07T15:46:05Z</time>
      </trkpt>
      <trkpt lat="45.78623" lon="5.96771">
        <ele>343.79998779297</ele>
        <time>2019-10-07T15:46:16Z</time>
      </trkpt>
      <trkpt lat="45.78559" lon="5.96765">
        <ele>343.60000610352</ele>
        <time>2019-10-07T15:46:26Z</time>
      </trkpt>
      <trkpt lat="45.78453" lon="5.96743">
        <ele>344.39999389648</ele>
        <time>2019-10-07T15:46:43Z</time>
      </trkpt>
      <trkpt lat="45.78382" lon="5.96735">
        <ele>344.60000610352</ele>
        <time>2019-10-07T15:46:54Z</time>
      </trkpt>
      <trkpt lat="45.78303" lon="5.96732">
        <ele>345.20001220703</ele>
        <time>2019-10-07T15:47:08Z</time>
      </trkpt>
      <trkpt lat="45.78246" lon="5.96734">
        <ele>346.79998779297</ele>
        <time>2019-10-07T15:47:19Z</time>
      </trkpt>
      <trkpt lat="45.78197" lon="5.96737">
        <ele>348.39999389648</ele>
        <time>2019-10-07T15:47:30Z</time>
      </trkpt>
      <trkpt lat="45.78172" lon="5.96738">
        <ele>349.60000610352</ele>
        <time>2019-10-07T15:47:36Z</time>
      </trkpt>
      <trkpt lat="45.78128" lon="5.96742">
        <ele>351.20001220703</ele>
        <time>2019-10-07T15:47:46Z</time>
      </trkpt>
      <trkpt lat="45.78094" lon="5.96746">
        <ele>352.39999389648</ele>
        <time>2019-10-07T15:47:54Z</time>
      </trkpt>
      <trkpt lat="45.7804" lon="5.96746">
        <ele>354.20001220703</ele>
        <time>2019-10-07T15:48:06Z</time>
      </trkpt>
      <trkpt lat="45.78008" lon="5.96736">
        <ele>355</ele>
        <time>2019-10-07T15:48:15Z</time>
      </trkpt>
      <trkpt lat="45.78001" lon="5.96713">
        <ele>355.39999389648</ele>
        <time>2019-10-07T15:48:19Z</time>
      </trkpt>
      <trkpt lat="45.77988" lon="5.96727">
        <ele>355.60000610352</ele>
        <time>2019-10-07T15:48:23Z</time>
      </trkpt>
      <trkpt lat="45.77971" lon="5.96749">
        <ele>355.79998779297</ele>
        <time>2019-10-07T15:48:27Z</time>
      </trkpt>
      <trkpt lat="45.7792" lon="5.96768">
        <ele>356.20001220703</ele>
        <time>2019-10-07T15:48:38Z</time>
      </trkpt>
      <trkpt lat="45.77876" lon="5.9677">
        <ele>356.79998779297</ele>
        <time>2019-10-07T15:48:47Z</time>
      </trkpt>
      <trkpt lat="45.77829" lon="5.96745">
        <ele>357</ele>
        <time>2019-10-07T15:48:56Z</time>
      </trkpt>
      <trkpt lat="45.77799" lon="5.96731">
        <ele>356.60000610352</ele>
        <time>2019-10-07T15:49:01Z</time>
      </trkpt>
      <trkpt lat="45.7775" lon="5.96706">
        <ele>355.39999389648</ele>
        <time>2019-10-07T15:49:09Z</time>
      </trkpt>
      <trkpt lat="45.77703" lon="5.96682">
        <ele>353.60000610352</ele>
        <time>2019-10-07T15:49:16Z</time>
      </trkpt>
      <trkpt lat="45.77588" lon="5.96633">
        <ele>351.20001220703</ele>
        <time>2019-10-07T15:49:33Z</time>
      </trkpt>
      <trkpt lat="45.77536" lon="5.96602">
        <ele>350.79998779297</ele>
        <time>2019-10-07T15:49:41Z</time>
      </trkpt>
      <trkpt lat="45.77482" lon="5.96571">
        <ele>350.60000610352</ele>
        <time>2019-10-07T15:49:50Z</time>
      </trkpt>
      <trkpt lat="45.77428" lon="5.9653">
        <ele>351</ele>
        <time>2019-10-07T15:50:00Z</time>
      </trkpt>
      <trkpt lat="45.77366" lon="5.96483">
        <ele>351.79998779297</ele>
        <time>2019-10-07T15:50:12Z</time>
      </trkpt>
      <trkpt lat="45.77352" lon="5.96477">
        <ele>352</ele>
        <time>2019-10-07T15:50:15Z</time>
      </trkpt>
      <trkpt lat="45.77311" lon="5.96464">
        <ele>352.20001220703</ele>
        <time>2019-10-07T15:50:22Z</time>
      </trkpt>
      <trkpt lat="45.77238" lon="5.9643">
        <ele>351.60000610352</ele>
        <time>2019-10-07T15:50:34Z</time>
      </trkpt>
      <trkpt lat="45.7722" lon="5.96418">
        <ele>351.20001220703</ele>
        <time>2019-10-07T15:50:37Z</time>
      </trkpt>
      <trkpt lat="45.77185" lon="5.96395">
        <ele>350.60000610352</ele>
        <time>2019-10-07T15:50:43Z</time>
      </trkpt>
      <trkpt lat="45.77156" lon="5.96379">
        <ele>349.79998779297</ele>
        <time>2019-10-07T15:50:48Z</time>
      </trkpt>
      <trkpt lat="45.77097" lon="5.96378">
        <ele>349.20001220703</ele>
        <time>2019-10-07T15:50:56Z</time>
      </trkpt>
      <trkpt lat="45.77034" lon="5.96374">
        <ele>348.20001220703</ele>
        <time>2019-10-07T15:51:04Z</time>
      </trkpt>
      <trkpt lat="45.76977" lon="5.96319">
        <ele>347</ele>
        <time>2019-10-07T15:51:13Z</time>
      </trkpt>
      <trkpt lat="45.76927" lon="5.96268">
        <ele>346.79998779297</ele>
        <time>2019-10-07T15:51:22Z</time>
      </trkpt>
      <trkpt lat="45.76863" lon="5.9621">
        <ele>346.60000610352</ele>
        <time>2019-10-07T15:51:33Z</time>
      </trkpt>
      <trkpt lat="45.76787" lon="5.96165">
        <ele>344.60000610352</ele>
        <time>2019-10-07T15:51:43Z</time>
      </trkpt>
      <trkpt lat="45.76663" lon="5.9609">
        <ele>342.79998779297</ele>
        <time>2019-10-07T15:52:01Z</time>
      </trkpt>
      <trkpt lat="45.76625" lon="5.96065">
        <ele>342.79998779297</ele>
        <time>2019-10-07T15:52:07Z</time>
      </trkpt>
      <trkpt lat="45.76582" lon="5.96036">
        <ele>342.60000610352</ele>
        <time>2019-10-07T15:52:13Z</time>
      </trkpt>
      <trkpt lat="45.76506" lon="5.95983">
        <ele>340.79998779297</ele>
        <time>2019-10-07T15:52:24Z</time>
      </trkpt>
      <trkpt lat="45.76475" lon="5.95945">
        <ele>340.60000610352</ele>
        <time>2019-10-07T15:52:29Z</time>
      </trkpt>
      <trkpt lat="45.76397" lon="5.95833">
        <ele>339.60000610352</ele>
        <time>2019-10-07T15:52:44Z</time>
      </trkpt>
      <trkpt lat="45.7636" lon="5.95788">
        <ele>339.39999389648</ele>
        <time>2019-10-07T15:52:50Z</time>
      </trkpt>
      <trkpt lat="45.76289" lon="5.9574">
        <ele>338.20001220703</ele>
        <time>2019-10-07T15:53:00Z</time>
      </trkpt>
      <trkpt lat="45.76245" lon="5.95713">
        <ele>336.79998779297</ele>
        <time>2019-10-07T15:53:07Z</time>
      </trkpt>
      <trkpt lat="45.76212" lon="5.95693">
        <ele>336.79998779297</ele>
        <time>2019-10-07T15:53:13Z</time>
      </trkpt>
      <trkpt lat="45.76148" lon="5.95646">
        <ele>336.39999389648</ele>
        <time>2019-10-07T15:53:23Z</time>
      </trkpt>
      <trkpt lat="45.76063" lon="5.9557">
        <ele>334.20001220703</ele>
        <time>2019-10-07T15:53:36Z</time>
      </trkpt>
      <trkpt lat="45.76014" lon="5.9554">
        <ele>333.20001220703</ele>
        <time>2019-10-07T15:53:43Z</time>
      </trkpt>
      <trkpt lat="45.759" lon="5.95432">
        <ele>332</ele>
        <time>2019-10-07T15:54:03Z</time>
      </trkpt>
      <trkpt lat="45.75823" lon="5.9536">
        <ele>332.20001220703</ele>
        <time>2019-10-07T15:54:17Z</time>
      </trkpt>
      <trkpt lat="45.75783" lon="5.95323">
        <ele>332.20001220703</ele>
        <time>2019-10-07T15:54:24Z</time>
      </trkpt>
      <trkpt lat="45.75751" lon="5.95287">
        <ele>332.20001220703</ele>
        <time>2019-10-07T15:54:31Z</time>
      </trkpt>
      <trkpt lat="45.75737" lon="5.9525">
        <ele>332.60000610352</ele>
        <time>2019-10-07T15:54:36Z</time>
      </trkpt>
      <trkpt lat="45.757" lon="5.9517">
        <ele>333.79998779297</ele>
        <time>2019-10-07T15:54:48Z</time>
      </trkpt>
      <trkpt lat="45.75673" lon="5.95129">
        <ele>333.60000610352</ele>
        <time>2019-10-07T15:54:54Z</time>
      </trkpt>
      <trkpt lat="45.75643" lon="5.95047">
        <ele>333</ele>
        <time>2019-10-07T15:55:03Z</time>
      </trkpt>
      <trkpt lat="45.75625" lon="5.94973">
        <ele>332</ele>
        <time>2019-10-07T15:55:10Z</time>
      </trkpt>
      <trkpt lat="45.75596" lon="5.94856">
        <ele>330.79998779297</ele>
        <time>2019-10-07T15:55:22Z</time>
      </trkpt>
      <trkpt lat="45.75587" lon="5.94841">
        <ele>330.60000610352</ele>
        <time>2019-10-07T15:55:24Z</time>
      </trkpt>
      <trkpt lat="45.75541" lon="5.94735">
        <ele>330.39999389648</ele>
        <time>2019-10-07T15:55:37Z</time>
      </trkpt>
      <trkpt lat="45.75526" lon="5.94679">
        <ele>331</ele>
        <time>2019-10-07T15:55:44Z</time>
      </trkpt>
      <trkpt lat="45.75492" lon="5.9462">
        <ele>332.20001220703</ele>
        <time>2019-10-07T15:55:53Z</time>
      </trkpt>
      <trkpt lat="45.75472" lon="5.94592">
        <ele>332.60000610352</ele>
        <time>2019-10-07T15:55:58Z</time>
      </trkpt>
      <trkpt lat="45.75412" lon="5.94484">
        <ele>333.20001220703</ele>
        <time>2019-10-07T15:56:14Z</time>
      </trkpt>
      <trkpt lat="45.75378" lon="5.94442">
        <ele>333.39999389648</ele>
        <time>2019-10-07T15:56:20Z</time>
      </trkpt>
      <trkpt lat="45.75366" lon="5.94427">
        <ele>333</ele>
        <time>2019-10-07T15:56:22Z</time>
      </trkpt>
      <trkpt lat="45.75325" lon="5.94378">
        <ele>332.20001220703</ele>
        <time>2019-10-07T15:56:28Z</time>
      </trkpt>
      <trkpt lat="45.7529" lon="5.94335">
        <ele>330</ele>
        <time>2019-10-07T15:56:33Z</time>
      </trkpt>
      <trkpt lat="45.75261" lon="5.94292">
        <ele>327.20001220703</ele>
        <time>2019-10-07T15:56:38Z</time>
      </trkpt>
      <trkpt lat="45.75238" lon="5.94253">
        <ele>326</ele>
        <time>2019-10-07T15:56:43Z</time>
      </trkpt>
      <trkpt lat="45.75188" lon="5.94184">
        <ele>326.39999389648</ele>
        <time>2019-10-07T15:56:55Z</time>
      </trkpt>
      <trkpt lat="45.75173" lon="5.94164">
        <ele>327</ele>
        <time>2019-10-07T15:56:59Z</time>
      </trkpt>
      <trkpt lat="45.75148" lon="5.94132">
        <ele>328.20001220703</ele>
        <time>2019-10-07T15:57:07Z</time>
      </trkpt>
      <trkpt lat="45.75136" lon="5.94122">
        <ele>329.20001220703</ele>
        <time>2019-10-07T15:57:10Z</time>
      </trkpt>
      <trkpt lat="45.75119" lon="5.94108">
        <ele>330.39999389648</ele>
        <time>2019-10-07T15:57:15Z</time>
      </trkpt>
      <trkpt lat="45.75098" lon="5.9409">
        <ele>331.60000610352</ele>
        <time>2019-10-07T15:57:21Z</time>
      </trkpt>
      <trkpt lat="45.75071" lon="5.94064">
        <ele>333.20001220703</ele>
        <time>2019-10-07T15:57:29Z</time>
      </trkpt>
      <trkpt lat="45.75062" lon="5.94052">
        <ele>333.60000610352</ele>
        <time>2019-10-07T15:57:32Z</time>
      </trkpt>
      <trkpt lat="45.75024" lon="5.94002">
        <ele>335.79998779297</ele>
        <time>2019-10-07T15:57:43Z</time>
      </trkpt>
      <trkpt lat="45.74981" lon="5.93948">
        <ele>337.20001220703</ele>
        <time>2019-10-07T15:57:55Z</time>
      </trkpt>
      <trkpt lat="45.74944" lon="5.93914">
        <ele>338.60000610352</ele>
        <time>2019-10-07T15:58:04Z</time>
      </trkpt>
      <trkpt lat="45.74861" lon="5.93818">
        <ele>339</ele>
        <time>2019-10-07T15:58:23Z</time>
      </trkpt>
      <trkpt lat="45.74838" lon="5.93764">
        <ele>339</ele>
        <time>2019-10-07T15:58:30Z</time>
      </trkpt>
      <trkpt lat="45.74815" lon="5.93708">
        <ele>338.60000610352</ele>
        <time>2019-10-07T15:58:37Z</time>
      </trkpt>
      <trkpt lat="45.74804" lon="5.93686">
        <ele>338.20001220703</ele>
        <time>2019-10-07T15:58:40Z</time>
      </trkpt>
      <trkpt lat="45.74765" lon="5.93646">
        <ele>337.39999389648</ele>
        <time>2019-10-07T15:58:47Z</time>
      </trkpt>
      <trkpt lat="45.74723" lon="5.93632">
        <ele>337</ele>
        <time>2019-10-07T15:58:53Z</time>
      </trkpt>
      <trkpt lat="45.74653" lon="5.93585">
        <ele>336.39999389648</ele>
        <time>2019-10-07T15:59:04Z</time>
      </trkpt>
      <trkpt lat="45.74609" lon="5.93542">
        <ele>335.20001220703</ele>
        <time>2019-10-07T15:59:11Z</time>
      </trkpt>
      <trkpt lat="45.74521" lon="5.93471">
        <ele>334.60000610352</ele>
        <time>2019-10-07T15:59:25Z</time>
      </trkpt>
      <trkpt lat="45.74502" lon="5.93457">
        <ele>334.60000610352</ele>
        <time>2019-10-07T15:59:28Z</time>
      </trkpt>
      <trkpt lat="45.7444" lon="5.93409">
        <ele>332.60000610352</ele>
        <time>2019-10-07T15:59:38Z</time>
      </trkpt>
      <trkpt lat="45.7436" lon="5.93348">
        <ele>332.20001220703</ele>
        <time>2019-10-07T15:59:51Z</time>
      </trkpt>
      <trkpt lat="45.74308" lon="5.93322">
        <ele>331.60000610352</ele>
        <time>2019-10-07T16:00:00Z</time>
      </trkpt>
      <trkpt lat="45.7427" lon="5.93281">
        <ele>331.20001220703</ele>
        <time>2019-10-07T16:00:07Z</time>
      </trkpt>
      <trkpt lat="45.74239" lon="5.93241">
        <ele>329.60000610352</ele>
        <time>2019-10-07T16:00:13Z</time>
      </trkpt>
      <trkpt lat="45.74166" lon="5.93146">
        <ele>327.60000610352</ele>
        <time>2019-10-07T16:00:27Z</time>
      </trkpt>
      <trkpt lat="45.74135" lon="5.93105">
        <ele>327.20001220703</ele>
        <time>2019-10-07T16:00:33Z</time>
      </trkpt>
      <trkpt lat="45.74104" lon="5.93065">
        <ele>327.20001220703</ele>
        <time>2019-10-07T16:00:40Z</time>
      </trkpt>
      <trkpt lat="45.74088" lon="5.93047">
        <ele>327.79998779297</ele>
        <time>2019-10-07T16:00:45Z</time>
      </trkpt>
      <trkpt lat="45.74069" lon="5.93031">
        <ele>329.39999389648</ele>
        <time>2019-10-07T16:00:50Z</time>
      </trkpt>
      <trkpt lat="45.74062" lon="5.93028">
        <ele>330.20001220703</ele>
        <time>2019-10-07T16:00:52Z</time>
      </trkpt>
      <trkpt lat="45.74038" lon="5.93024">
        <ele>332</ele>
        <time>2019-10-07T16:00:58Z</time>
      </trkpt>
      <trkpt lat="45.74025" lon="5.93024">
        <ele>333</ele>
        <time>2019-10-07T16:01:01Z</time>
      </trkpt>
      <trkpt lat="45.73973" lon="5.93031">
        <ele>335.60000610352</ele>
        <time>2019-10-07T16:01:13Z</time>
      </trkpt>
      <trkpt lat="45.73905" lon="5.93032">
        <ele>335.20001220703</ele>
        <time>2019-10-07T16:01:24Z</time>
      </trkpt>
      <trkpt lat="45.73882" lon="5.93032">
        <ele>334.60000610352</ele>
        <time>2019-10-07T16:01:27Z</time>
      </trkpt>
      <trkpt lat="45.73834" lon="5.93037">
        <ele>332.79998779297</ele>
        <time>2019-10-07T16:01:33Z</time>
      </trkpt>
      <trkpt lat="45.73808" lon="5.93043">
        <ele>331.79998779297</ele>
        <time>2019-10-07T16:01:36Z</time>
      </trkpt>
      <trkpt lat="45.7373" lon="5.93094">
        <ele>329.79998779297</ele>
        <time>2019-10-07T16:01:47Z</time>
      </trkpt>
      <trkpt lat="45.73696" lon="5.93112">
        <ele>329.39999389648</ele>
        <time>2019-10-07T16:01:52Z</time>
      </trkpt>
      <trkpt lat="45.73587" lon="5.93114">
        <ele>329.79998779297</ele>
        <time>2019-10-07T16:02:09Z</time>
      </trkpt>
      <trkpt lat="45.7353" lon="5.93076">
        <ele>330</ele>
        <time>2019-10-07T16:02:19Z</time>
      </trkpt>
      <trkpt lat="45.7341" lon="5.93066">
        <ele>329.20001220703</ele>
        <time>2019-10-07T16:02:37Z</time>
      </trkpt>
      <trkpt lat="45.73365" lon="5.93059">
        <ele>329.39999389648</ele>
        <time>2019-10-07T16:02:44Z</time>
      </trkpt>
      <trkpt lat="45.733" lon="5.93041">
        <ele>330.20001220703</ele>
        <time>2019-10-07T16:02:56Z</time>
      </trkpt>
      <trkpt lat="45.73266" lon="5.93022">
        <ele>330.79998779297</ele>
        <time>2019-10-07T16:03:03Z</time>
      </trkpt>
      <trkpt lat="45.732" lon="5.92972">
        <ele>330</ele>
        <time>2019-10-07T16:03:15Z</time>
      </trkpt>
      <trkpt lat="45.73178" lon="5.92945">
        <ele>329.20001220703</ele>
        <time>2019-10-07T16:03:19Z</time>
      </trkpt>
      <trkpt lat="45.73168" lon="5.92928">
        <ele>328.60000610352</ele>
        <time>2019-10-07T16:03:21Z</time>
      </trkpt>
      <trkpt lat="45.73115" lon="5.92885">
        <ele>326.60000610352</ele>
        <time>2019-10-07T16:03:29Z</time>
      </trkpt>
      <trkpt lat="45.73101" lon="5.92874">
        <ele>326</ele>
        <time>2019-10-07T16:03:31Z</time>
      </trkpt>
      <trkpt lat="45.73046" lon="5.92851">
        <ele>324.39999389648</ele>
        <time>2019-10-07T16:03:39Z</time>
      </trkpt>
      <trkpt lat="45.73032" lon="5.9285">
        <ele>324.20001220703</ele>
        <time>2019-10-07T16:03:41Z</time>
      </trkpt>
      <trkpt lat="45.72978" lon="5.92862">
        <ele>323.79998779297</ele>
        <time>2019-10-07T16:03:50Z</time>
      </trkpt>
      <trkpt lat="45.72938" lon="5.92872">
        <ele>323.60000610352</ele>
        <time>2019-10-07T16:03:57Z</time>
      </trkpt>
      <trkpt lat="45.7289" lon="5.92888">
        <ele>323</ele>
        <time>2019-10-07T16:04:04Z</time>
      </trkpt>
      <trkpt lat="45.72849" lon="5.92902">
        <ele>322.60000610352</ele>
        <time>2019-10-07T16:04:09Z</time>
      </trkpt>
      <trkpt lat="45.72767" lon="5.92942">
        <ele>319</ele>
        <time>2019-10-07T16:04:19Z</time>
      </trkpt>
      <trkpt lat="45.7274" lon="5.9296">
        <ele>318.79998779297</ele>
        <time>2019-10-07T16:04:24Z</time>
      </trkpt>
      <trkpt lat="45.727" lon="5.92999">
        <ele>319.79998779297</ele>
        <time>2019-10-07T16:04:33Z</time>
      </trkpt>
      <trkpt lat="45.72671" lon="5.9303">
        <ele>320.60000610352</ele>
        <time>2019-10-07T16:04:40Z</time>
      </trkpt>
      <trkpt lat="45.72651" lon="5.93043">
        <ele>320.39999389648</ele>
        <time>2019-10-07T16:04:45Z</time>
      </trkpt>
      <trkpt lat="45.72636" lon="5.93034">
        <ele>320.39999389648</ele>
        <time>2019-10-07T16:04:48Z</time>
      </trkpt>
      <trkpt lat="45.72626" lon="5.93006">
        <ele>320.20001220703</ele>
        <time>2019-10-07T16:04:51Z</time>
      </trkpt>
      <trkpt lat="45.72619" lon="5.92959">
        <ele>319.79998779297</ele>
        <time>2019-10-07T16:04:55Z</time>
      </trkpt>
      <trkpt lat="45.72611" lon="5.92936">
        <ele>319</ele>
        <time>2019-10-07T16:04:57Z</time>
      </trkpt>
      <trkpt lat="45.7259" lon="5.92873">
        <ele>316.79998779297</ele>
        <time>2019-10-07T16:05:02Z</time>
      </trkpt>
      <trkpt lat="45.72578" lon="5.92837">
        <ele>314.79998779297</ele>
        <time>2019-10-07T16:05:05Z</time>
      </trkpt>
      <trkpt lat="45.72567" lon="5.92781">
        <ele>311.60000610352</ele>
        <time>2019-10-07T16:05:09Z</time>
      </trkpt>
      <trkpt lat="45.72565" lon="5.92716">
        <ele>309.39999389648</ele>
        <time>2019-10-07T16:05:13Z</time>
      </trkpt>
      <trkpt lat="45.72562" lon="5.92651">
        <ele>306.60000610352</ele>
        <time>2019-10-07T16:05:17Z</time>
      </trkpt>
      <trkpt lat="45.7256" lon="5.92615">
        <ele>304</ele>
        <time>2019-10-07T16:05:20Z</time>
      </trkpt>
      <trkpt lat="45.72535" lon="5.92595">
        <ele>300.39999389648</ele>
        <time>2019-10-07T16:05:24Z</time>
      </trkpt>
      <trkpt lat="45.725" lon="5.92588">
        <ele>297</ele>
        <time>2019-10-07T16:05:28Z</time>
      </trkpt>
      <trkpt lat="45.72484" lon="5.92586">
        <ele>295.39999389648</ele>
        <time>2019-10-07T16:05:30Z</time>
      </trkpt>
      <trkpt lat="45.72471" lon="5.92573">
        <ele>293.60000610352</ele>
        <time>2019-10-07T16:05:33Z</time>
      </trkpt>
      <trkpt lat="45.72463" lon="5.92577">
        <ele>292.79998779297</ele>
        <time>2019-10-07T16:05:35Z</time>
      </trkpt>
      <trkpt lat="45.72449" lon="5.92603">
        <ele>290.39999389648</ele>
        <time>2019-10-07T16:05:41Z</time>
      </trkpt>
      <trkpt lat="45.72423" lon="5.92672">
        <ele>287.79998779297</ele>
        <time>2019-10-07T16:05:50Z</time>
      </trkpt>
      <trkpt lat="45.72402" lon="5.92722">
        <ele>287.39999389648</ele>
        <time>2019-10-07T16:05:57Z</time>
      </trkpt>
      <trkpt lat="45.7238" lon="5.92744">
        <ele>287.20001220703</ele>
        <time>2019-10-07T16:06:04Z</time>
      </trkpt>
      <trkpt lat="45.72332" lon="5.92651">
        <ele>286.79998779297</ele>
        <time>2019-10-07T16:06:18Z</time>
      </trkpt>
      <trkpt lat="45.72321" lon="5.92601">
        <ele>286.60000610352</ele>
        <time>2019-10-07T16:06:24Z</time>
      </trkpt>
      <trkpt lat="45.72291" lon="5.92463">
        <ele>286.20001220703</ele>
        <time>2019-10-07T16:06:40Z</time>
      </trkpt>
      <trkpt lat="45.72273" lon="5.92381">
        <ele>285.79998779297</ele>
        <time>2019-10-07T16:06:49Z</time>
      </trkpt>
      <trkpt lat="45.72248" lon="5.92328">
        <ele>285.39999389648</ele>
        <time>2019-10-07T16:06:56Z</time>
      </trkpt>
      <trkpt lat="45.72227" lon="5.92309">
        <ele>285.39999389648</ele>
        <time>2019-10-07T16:07:00Z</time>
      </trkpt>
      <trkpt lat="45.72194" lon="5.92277">
        <ele>285.79998779297</ele>
        <time>2019-10-07T16:07:11Z</time>
      </trkpt>
      <trkpt lat="45.72184" lon="5.92275">
        <ele>286</ele>
        <time>2019-10-07T16:07:13Z</time>
      </trkpt>
      <trkpt lat="45.72176" lon="5.92282">
        <ele>285.79998779297</ele>
        <time>2019-10-07T16:07:15Z</time>
      </trkpt>
      <trkpt lat="45.72095" lon="5.92308">
        <ele>286.20001220703</ele>
        <time>2019-10-07T16:07:30Z</time>
      </trkpt>
      <trkpt lat="45.7206" lon="5.92305">
        <ele>286</ele>
        <time>2019-10-07T16:07:35Z</time>
      </trkpt>
      <trkpt lat="45.71983" lon="5.92276">
        <ele>284.79998779297</ele>
        <time>2019-10-07T16:07:46Z</time>
      </trkpt>
      <trkpt lat="45.71934" lon="5.92252">
        <ele>283.39999389648</ele>
        <time>2019-10-07T16:07:53Z</time>
      </trkpt>
      <trkpt lat="45.71891" lon="5.92227">
        <ele>282.39999389648</ele>
        <time>2019-10-07T16:08:00Z</time>
      </trkpt>
      <trkpt lat="45.7186" lon="5.9221">
        <ele>281.60000610352</ele>
        <time>2019-10-07T16:08:09Z</time>
      </trkpt>
      <trkpt lat="45.71844" lon="5.92188">
        <ele>281</ele>
        <time>2019-10-07T16:08:15Z</time>
      </trkpt>
      <trkpt lat="45.71828" lon="5.92182">
        <ele>280.79998779297</ele>
        <time>2019-10-07T16:08:18Z</time>
      </trkpt>
      <trkpt lat="45.71789" lon="5.92159">
        <ele>280.60000610352</ele>
        <time>2019-10-07T16:08:25Z</time>
      </trkpt>
      <trkpt lat="45.71723" lon="5.92108">
        <ele>279.60000610352</ele>
        <time>2019-10-07T16:08:37Z</time>
      </trkpt>
      <trkpt lat="45.71688" lon="5.92081">
        <ele>279</ele>
        <time>2019-10-07T16:08:43Z</time>
      </trkpt>
      <trkpt lat="45.71674" lon="5.92071">
        <ele>278.79998779297</ele>
        <time>2019-10-07T16:08:45Z</time>
      </trkpt>
      <trkpt lat="45.71642" lon="5.92046">
        <ele>278.20001220703</ele>
        <time>2019-10-07T16:08:49Z</time>
      </trkpt>
      <trkpt lat="45.71586" lon="5.92004">
        <ele>275.20001220703</ele>
        <time>2019-10-07T16:08:55Z</time>
      </trkpt>
      <trkpt lat="45.71535" lon="5.91948">
        <ele>272.20001220703</ele>
        <time>2019-10-07T16:09:01Z</time>
      </trkpt>
      <trkpt lat="45.71512" lon="5.91886">
        <ele>267.20001220703</ele>
        <time>2019-10-07T16:09:07Z</time>
      </trkpt>
      <trkpt lat="45.71503" lon="5.91846">
        <ele>265.60000610352</ele>
        <time>2019-10-07T16:09:12Z</time>
      </trkpt>
      <trkpt lat="45.71502" lon="5.91802">
        <ele>265.60000610352</ele>
        <time>2019-10-07T16:09:18Z</time>
      </trkpt>
      <trkpt lat="45.71506" lon="5.91769">
        <ele>266.39999389648</ele>
        <time>2019-10-07T16:09:23Z</time>
      </trkpt>
      <trkpt lat="45.71508" lon="5.91748">
        <ele>267.20001220703</ele>
        <time>2019-10-07T16:09:30Z</time>
      </trkpt>
      <trkpt lat="45.71506" lon="5.9174">
        <ele>267.79998779297</ele>
        <time>2019-10-07T16:10:50Z</time>
      </trkpt>
      <trkpt lat="45.71497" lon="5.91729">
        <ele>268</ele>
        <time>2019-10-07T16:10:54Z</time>
      </trkpt>
      <trkpt lat="45.71478" lon="5.91722">
        <ele>267.79998779297</ele>
        <time>2019-10-07T16:10:58Z</time>
      </trkpt>
      <trkpt lat="45.71402" lon="5.91686">
        <ele>267.20001220703</ele>
        <time>2019-10-07T16:11:13Z</time>
      </trkpt>
      <trkpt lat="45.71364" lon="5.9166">
        <ele>266.79998779297</ele>
        <time>2019-10-07T16:11:21Z</time>
      </trkpt>
      <trkpt lat="45.71313" lon="5.9162">
        <ele>266.39999389648</ele>
        <time>2019-10-07T16:11:31Z</time>
      </trkpt>
      <trkpt lat="45.71261" lon="5.91573">
        <ele>265.79998779297</ele>
        <time>2019-10-07T16:11:41Z</time>
      </trkpt>
      <trkpt lat="45.71222" lon="5.91531">
        <ele>264.79998779297</ele>
        <time>2019-10-07T16:11:48Z</time>
      </trkpt>
      <trkpt lat="45.7116" lon="5.91464">
        <ele>263.39999389648</ele>
        <time>2019-10-07T16:11:58Z</time>
      </trkpt>
      <trkpt lat="45.7114" lon="5.91442">
        <ele>262.60000610352</ele>
        <time>2019-10-07T16:12:01Z</time>
      </trkpt>
      <trkpt lat="45.71091" lon="5.91386">
        <ele>260.39999389648</ele>
        <time>2019-10-07T16:12:08Z</time>
      </trkpt>
      <trkpt lat="45.71062" lon="5.91352">
        <ele>258.60000610352</ele>
        <time>2019-10-07T16:12:12Z</time>
      </trkpt>
      <trkpt lat="45.70973" lon="5.91261">
        <ele>254</ele>
        <time>2019-10-07T16:12:24Z</time>
      </trkpt>
      <trkpt lat="45.70945" lon="5.91234">
        <ele>253</ele>
        <time>2019-10-07T16:12:28Z</time>
      </trkpt>
      <trkpt lat="45.70878" lon="5.9118">
        <ele>251.19999694824</ele>
        <time>2019-10-07T16:12:38Z</time>
      </trkpt>
      <trkpt lat="45.70837" lon="5.91163">
        <ele>250</ele>
        <time>2019-10-07T16:12:45Z</time>
      </trkpt>
      <trkpt lat="45.70796" lon="5.9115">
        <ele>249.39999389648</ele>
        <time>2019-10-07T16:12:53Z</time>
      </trkpt>
      <trkpt lat="45.70715" lon="5.9112">
        <ele>248.39999389648</ele>
        <time>2019-10-07T16:13:06Z</time>
      </trkpt>
      <trkpt lat="45.70668" lon="5.91102">
        <ele>248.19999694824</ele>
        <time>2019-10-07T16:13:13Z</time>
      </trkpt>
      <trkpt lat="45.70611" lon="5.91081">
        <ele>247.60000610352</ele>
        <time>2019-10-07T16:13:23Z</time>
      </trkpt>
      <trkpt lat="45.70606" lon="5.91079">
        <ele>246.60000610352</ele>
        <time>2019-10-07T16:13:31Z</time>
      </trkpt>
      <trkpt lat="45.7057" lon="5.91066">
        <ele>246.39999389648</ele>
        <time>2019-10-07T16:13:41Z</time>
      </trkpt>
      <trkpt lat="45.70525" lon="5.91049">
        <ele>246.39999389648</ele>
        <time>2019-10-07T16:13:49Z</time>
      </trkpt>
      <trkpt lat="45.70401" lon="5.91004">
        <ele>244.39999389648</ele>
        <time>2019-10-07T16:14:08Z</time>
      </trkpt>
      <trkpt lat="45.7034" lon="5.90982">
        <ele>243.39999389648</ele>
        <time>2019-10-07T16:14:17Z</time>
      </trkpt>
      <trkpt lat="45.70246" lon="5.90947">
        <ele>242</ele>
        <time>2019-10-07T16:14:31Z</time>
      </trkpt>
      <trkpt lat="45.70194" lon="5.90928">
        <ele>241</ele>
        <time>2019-10-07T16:14:39Z</time>
      </trkpt>
      <trkpt lat="45.70169" lon="5.90905">
        <ele>240.19999694824</ele>
        <time>2019-10-07T16:14:45Z</time>
      </trkpt>
      <trkpt lat="45.7016" lon="5.90912">
        <ele>239.80000305176</ele>
        <time>2019-10-07T16:14:48Z</time>
      </trkpt>
      <trkpt lat="45.70108" lon="5.90901">
        <ele>239</ele>
        <time>2019-10-07T16:14:56Z</time>
      </trkpt>
      <trkpt lat="45.70082" lon="5.90891">
        <ele>238.60000610352</ele>
        <time>2019-10-07T16:15:00Z</time>
      </trkpt>
      <trkpt lat="45.69993" lon="5.90859">
        <ele>238</ele>
        <time>2019-10-07T16:15:13Z</time>
      </trkpt>
      <trkpt lat="45.69917" lon="5.90831">
        <ele>236.80000305176</ele>
        <time>2019-10-07T16:15:24Z</time>
      </trkpt>
      <trkpt lat="45.69861" lon="5.90811">
        <ele>236.39999389648</ele>
        <time>2019-10-07T16:15:32Z</time>
      </trkpt>
      <trkpt lat="45.69736" lon="5.90765">
        <ele>235.19999694824</ele>
        <time>2019-10-07T16:15:51Z</time>
      </trkpt>
      <trkpt lat="45.69706" lon="5.90754">
        <ele>235.19999694824</ele>
        <time>2019-10-07T16:16:00Z</time>
      </trkpt>
      <trkpt lat="45.69696" lon="5.90745">
        <ele>235.39999389648</ele>
        <time>2019-10-07T16:16:07Z</time>
      </trkpt>
      <trkpt lat="45.69696" lon="5.90745">
        <ele>235.39999389648</ele>
        <time>2019-10-07T16:16:10Z</time>
      </trkpt>
      <trkpt lat="45.69694" lon="5.90737">
        <ele>235.60000610352</ele>
        <time>2019-10-07T16:16:14Z</time>
      </trkpt>
      <trkpt lat="45.69664" lon="5.90738">
        <ele>235.39999389648</ele>
        <time>2019-10-07T16:16:18Z</time>
      </trkpt>
      <trkpt lat="45.69568" lon="5.90719">
        <ele>234.80000305176</ele>
        <time>2019-10-07T16:16:27Z</time>
      </trkpt>
      <trkpt lat="45.69552" lon="5.90712">
        <ele>234.39999389648</ele>
        <time>2019-10-07T16:16:30Z</time>
      </trkpt>
      <trkpt lat="45.69532" lon="5.9068">
        <ele>233.60000610352</ele>
        <time>2019-10-07T16:16:36Z</time>
      </trkpt>
      <trkpt lat="45.69513" lon="5.90683">
        <ele>233.19999694824</ele>
        <time>2019-10-07T16:16:40Z</time>
      </trkpt>
      <trkpt lat="45.69498" lon="5.90725">
        <ele>232.80000305176</ele>
        <time>2019-10-07T16:16:46Z</time>
      </trkpt>
      <trkpt lat="45.69492" lon="5.9075">
        <ele>232.80000305176</ele>
        <time>2019-10-07T16:16:50Z</time>
      </trkpt>
      <trkpt lat="45.69473" lon="5.90791">
        <ele>233.19999694824</ele>
        <time>2019-10-07T16:16:58Z</time>
      </trkpt>
      <trkpt lat="45.6945" lon="5.90831">
        <ele>234</ele>
        <time>2019-10-07T16:17:09Z</time>
      </trkpt>
      <trkpt lat="45.69432" lon="5.90838">
        <ele>235</ele>
        <time>2019-10-07T16:17:15Z</time>
      </trkpt>
      <trkpt lat="45.69418" lon="5.9086">
        <ele>235.39999389648</ele>
        <time>2019-10-07T16:17:20Z</time>
      </trkpt>
      <trkpt lat="45.69402" lon="5.90874">
        <ele>235.60000610352</ele>
        <time>2019-10-07T16:17:24Z</time>
      </trkpt>
      <trkpt lat="45.6938" lon="5.90882">
        <ele>236</ele>
        <time>2019-10-07T16:17:29Z</time>
      </trkpt>
      <trkpt lat="45.69361" lon="5.90888">
        <ele>236.80000305176</ele>
        <time>2019-10-07T16:17:33Z</time>
      </trkpt>
      <trkpt lat="45.69337" lon="5.90891">
        <ele>238.60000610352</ele>
        <time>2019-10-07T16:17:39Z</time>
      </trkpt>
      <trkpt lat="45.6932" lon="5.90893">
        <ele>240</ele>
        <time>2019-10-07T16:17:43Z</time>
      </trkpt>
      <trkpt lat="45.69283" lon="5.90899">
        <ele>241.80000305176</ele>
        <time>2019-10-07T16:17:51Z</time>
      </trkpt>
      <trkpt lat="45.69241" lon="5.90905">
        <ele>243.19999694824</ele>
        <time>2019-10-07T16:18:00Z</time>
      </trkpt>
      <trkpt lat="45.69207" lon="5.90908">
        <ele>243.39999389648</ele>
        <time>2019-10-07T16:18:07Z</time>
      </trkpt>
      <trkpt lat="45.69195" lon="5.9091">
        <ele>242.19999694824</ele>
        <time>2019-10-07T16:18:12Z</time>
      </trkpt>
      <trkpt lat="45.69189" lon="5.90911">
        <ele>240.80000305176</ele>
        <time>2019-10-07T16:18:16Z</time>
      </trkpt>
      <trkpt lat="45.69169" lon="5.90919">
        <ele>239.19999694824</ele>
        <time>2019-10-07T16:18:21Z</time>
      </trkpt>
      <trkpt lat="45.69166" lon="5.90919">
        <ele>239</ele>
        <time>2019-10-07T16:18:23Z</time>
      </trkpt>
      <trkpt lat="45.69141" lon="5.90921">
        <ele>238.60000610352</ele>
        <time>2019-10-07T16:18:29Z</time>
      </trkpt>
      <trkpt lat="45.69121" lon="5.90923">
        <ele>238.39999389648</ele>
        <time>2019-10-07T16:18:33Z</time>
      </trkpt>
      <trkpt lat="45.69089" lon="5.90926">
        <ele>238.60000610352</ele>
        <time>2019-10-07T16:18:39Z</time>
      </trkpt>
      <trkpt lat="45.69059" lon="5.90929">
        <ele>238.39999389648</ele>
        <time>2019-10-07T16:18:46Z</time>
      </trkpt>
      <trkpt lat="45.69011" lon="5.90934">
        <ele>238.19999694824</ele>
        <time>2019-10-07T16:18:58Z</time>
      </trkpt>
      <trkpt lat="45.68981" lon="5.90935">
        <ele>238.39999389648</ele>
        <time>2019-10-07T16:19:06Z</time>
      </trkpt>
      <trkpt lat="45.68986" lon="5.90985">
        <ele>238.60000610352</ele>
        <time>2019-10-07T16:19:18Z</time>
      </trkpt>
      <trkpt lat="45.68987" lon="5.91">
        <ele>238.80000305176</ele>
        <time>2019-10-07T16:19:23Z</time>
      </trkpt>
      <trkpt lat="45.68984" lon="5.91007">
        <ele>240</ele>
        <time>2019-10-07T16:19:30Z</time>
      </trkpt>
      <trkpt lat="45.6897" lon="5.91009">
        <ele>240.60000610352</ele>
        <time>2019-10-07T16:19:36Z</time>
      </trkpt>
      <trkpt lat="45.68943" lon="5.91013">
        <ele>240.80000305176</ele>
        <time>2019-10-07T16:19:48Z</time>
      </trkpt>
      <trkpt lat="45.68938" lon="5.91014">
        <ele>240.60000610352</ele>
        <time>2019-10-07T16:19:55Z</time>
      </trkpt>
      <trkpt lat="45.68957" lon="5.91011">
        <ele>239.80000305176</ele>
        <time>2019-10-07T16:28:26Z</time>
      </trkpt>
      <trkpt lat="45.68989" lon="5.91007">
        <ele>240.19999694824</ele>
        <time>2019-10-07T16:28:41Z</time>
      </trkpt>
      <trkpt lat="45.68986" lon="5.90973">
        <ele>240.60000610352</ele>
        <time>2019-10-07T16:28:48Z</time>
      </trkpt>
      <trkpt lat="45.68992" lon="5.90935">
        <ele>239.19999694824</ele>
        <time>2019-10-07T16:28:59Z</time>
      </trkpt>
      <trkpt lat="45.6898" lon="5.90936">
        <ele>238.60000610352</ele>
        <time>2019-10-07T16:29:03Z</time>
      </trkpt>
      <trkpt lat="45.68952" lon="5.90942">
        <ele>238.19999694824</ele>
        <time>2019-10-07T16:29:14Z</time>
      </trkpt>
      <trkpt lat="45.68936" lon="5.90943">
        <ele>238.19999694824</ele>
        <time>2019-10-07T16:29:20Z</time>
      </trkpt>
      <trkpt lat="45.68921" lon="5.90941">
        <ele>238.19999694824</ele>
        <time>2019-10-07T16:29:28Z</time>
      </trkpt>
      <trkpt lat="45.68906" lon="5.90946">
        <ele>238.39999389648</ele>
        <time>2019-10-07T16:30:16Z</time>
      </trkpt>
      <trkpt lat="45.68877" lon="5.90951">
        <ele>238.39999389648</ele>
        <time>2019-10-07T16:30:28Z</time>
      </trkpt>
      <trkpt lat="45.68868" lon="5.90952">
        <ele>238.39999389648</ele>
        <time>2019-10-07T16:30:32Z</time>
      </trkpt>
      <trkpt lat="45.68856" lon="5.90954">
        <ele>238.60000610352</ele>
        <time>2019-10-07T16:31:20Z</time>
      </trkpt>
      <trkpt lat="45.68849" lon="5.90955">
        <ele>238.60000610352</ele>
        <time>2019-10-07T16:31:22Z</time>
      </trkpt>
      <trkpt lat="45.6884" lon="5.90956">
        <ele>238.60000610352</ele>
        <time>2019-10-07T16:31:29Z</time>
      </trkpt>
      <trkpt lat="45.68821" lon="5.9097">
        <ele>238.80000305176</ele>
        <time>2019-10-07T16:31:38Z</time>
      </trkpt>
      <trkpt lat="45.68819" lon="5.9099">
        <ele>238.60000610352</ele>
        <time>2019-10-07T16:31:44Z</time>
      </trkpt>
      <trkpt lat="45.68815" lon="5.91027">
        <ele>238.80000305176</ele>
        <time>2019-10-07T16:31:53Z</time>
      </trkpt>
      <trkpt lat="45.68817" lon="5.91055">
        <ele>239.80000305176</ele>
        <time>2019-10-07T16:32:00Z</time>
      </trkpt>
      <trkpt lat="45.68813" lon="5.91086">
        <ele>240.80000305176</ele>
        <time>2019-10-07T16:32:07Z</time>
      </trkpt>
      <trkpt lat="45.68808" lon="5.91121">
        <ele>241.80000305176</ele>
        <time>2019-10-07T16:32:15Z</time>
      </trkpt>
      <trkpt lat="45.68804" lon="5.9117">
        <ele>243.60000610352</ele>
        <time>2019-10-07T16:32:27Z</time>
      </trkpt>
      <trkpt lat="45.68799" lon="5.91211">
        <ele>244.80000305176</ele>
        <time>2019-10-07T16:32:36Z</time>
      </trkpt>
      <trkpt lat="45.68796" lon="5.9125">
        <ele>245.60000610352</ele>
        <time>2019-10-07T16:32:45Z</time>
      </trkpt>
      <trkpt lat="45.68792" lon="5.91291">
        <ele>247.19999694824</ele>
        <time>2019-10-07T16:32:54Z</time>
      </trkpt>
      <trkpt lat="45.68791" lon="5.91342">
        <ele>248.60000610352</ele>
        <time>2019-10-07T16:33:06Z</time>
      </trkpt>
      <trkpt lat="45.68794" lon="5.9137">
        <ele>250</ele>
        <time>2019-10-07T16:33:15Z</time>
      </trkpt>
      <trkpt lat="45.68797" lon="5.91384">
        <ele>250.60000610352</ele>
        <time>2019-10-07T16:33:23Z</time>
      </trkpt>
      <trkpt lat="45.688" lon="5.91425">
        <ele>251</ele>
        <time>2019-10-07T16:33:34Z</time>
      </trkpt>
      <trkpt lat="45.68802" lon="5.91423">
        <ele>251.19999694824</ele>
        <time>2019-10-07T16:33:37Z</time>
      </trkpt>
      <trkpt lat="45.68817" lon="5.91385">
        <ele>251.60000610352</ele>
        <time>2019-10-07T16:33:46Z</time>
      </trkpt>
      <trkpt lat="45.68836" lon="5.91375">
        <ele>252</ele>
        <time>2019-10-07T16:33:55Z</time>
      </trkpt>
      <trkpt lat="45.6889" lon="5.9136">
        <ele>252.19999694824</ele>
        <time>2019-10-07T16:34:11Z</time>
      </trkpt>
      <trkpt lat="45.68902" lon="5.91356">
        <ele>252.60000610352</ele>
        <time>2019-10-07T16:34:18Z</time>
      </trkpt>
      <trkpt lat="45.68912" lon="5.91353">
        <ele>252.39999389648</ele>
        <time>2019-10-07T16:34:49Z</time>
      </trkpt>
      <trkpt lat="45.68925" lon="5.9135">
        <ele>252.39999389648</ele>
        <time>2019-10-07T16:34:54Z</time>
      </trkpt>
      <trkpt lat="45.68951" lon="5.91342">
        <ele>252.60000610352</ele>
        <time>2019-10-07T16:35:03Z</time>
      </trkpt>
      <trkpt lat="45.68966" lon="5.91338">
        <ele>252.39999389648</ele>
        <time>2019-10-07T16:35:11Z</time>
      </trkpt>
      <trkpt lat="45.68977" lon="5.91397">
        <ele>268.79998779297</ele>
        <time>2019-10-08T05:44:16Z</time>
      </trkpt>
      <trkpt lat="45.68996" lon="5.9139">
        <ele>268.60000610352</ele>
        <time>2019-10-08T05:44:22Z</time>
      </trkpt>
      <trkpt lat="45.69004" lon="5.91384">
        <ele>268</ele>
        <time>2019-10-08T05:44:27Z</time>
      </trkpt>
      <trkpt lat="45.69013" lon="5.91365">
        <ele>266.79998779297</ele>
        <time>2019-10-08T05:44:38Z</time>
      </trkpt>
      <trkpt lat="45.69008" lon="5.91341">
        <ele>266.39999389648</ele>
        <time>2019-10-08T05:44:47Z</time>
      </trkpt>
      <trkpt lat="45.69001" lon="5.91304">
        <ele>266</ele>
        <time>2019-10-08T05:44:57Z</time>
      </trkpt>
      <trkpt lat="45.68997" lon="5.91272">
        <ele>266</ele>
        <time>2019-10-08T05:45:04Z</time>
      </trkpt>
      <trkpt lat="45.68991" lon="5.91231">
        <ele>265.20001220703</ele>
        <time>2019-10-08T05:45:11Z</time>
      </trkpt>
      <trkpt lat="45.6899" lon="5.912">
        <ele>264.20001220703</ele>
        <time>2019-10-08T05:45:16Z</time>
      </trkpt>
      <trkpt lat="45.68989" lon="5.91121">
        <ele>263</ele>
        <time>2019-10-08T05:45:24Z</time>
      </trkpt>
      <trkpt lat="45.68989" lon="5.91072">
        <ele>260.79998779297</ele>
        <time>2019-10-08T05:45:30Z</time>
      </trkpt>
      <trkpt lat="45.68989" lon="5.91015">
        <ele>257.79998779297</ele>
        <time>2019-10-08T05:45:36Z</time>
      </trkpt>
      <trkpt lat="45.68987" lon="5.90997">
        <ele>257</ele>
        <time>2019-10-08T05:45:39Z</time>
      </trkpt>
      <trkpt lat="45.68988" lon="5.90972">
        <ele>255.60000610352</ele>
        <time>2019-10-08T05:45:45Z</time>
      </trkpt>
      <trkpt lat="45.6899" lon="5.90964">
        <ele>254</ele>
        <time>2019-10-08T05:45:50Z</time>
      </trkpt>
      <trkpt lat="45.69024" lon="5.90941">
        <ele>253</ele>
        <time>2019-10-08T05:46:02Z</time>
      </trkpt>
      <trkpt lat="45.69031" lon="5.9094">
        <ele>252.60000610352</ele>
        <time>2019-10-08T05:46:05Z</time>
      </trkpt>
      <trkpt lat="45.69041" lon="5.90939">
        <ele>252.60000610352</ele>
        <time>2019-10-08T05:46:14Z</time>
      </trkpt>
      <trkpt lat="45.69059" lon="5.90937">
        <ele>252.60000610352</ele>
        <time>2019-10-08T05:46:19Z</time>
      </trkpt>
      <trkpt lat="45.6909" lon="5.90934">
        <ele>252.80000305176</ele>
        <time>2019-10-08T05:46:25Z</time>
      </trkpt>
      <trkpt lat="45.69128" lon="5.9093">
        <ele>252.80000305176</ele>
        <time>2019-10-08T05:46:35Z</time>
      </trkpt>
      <trkpt lat="45.69124" lon="5.90911">
        <ele>249.60000610352</ele>
        <time>2019-10-08T05:58:59Z</time>
      </trkpt>
      <trkpt lat="45.69139" lon="5.9091">
        <ele>250.19999694824</ele>
        <time>2019-10-08T05:59:04Z</time>
      </trkpt>
      <trkpt lat="45.69169" lon="5.9093">
        <ele>250.80000305176</ele>
        <time>2019-10-08T05:59:14Z</time>
      </trkpt>
      <trkpt lat="45.69192" lon="5.9092">
        <ele>250.60000610352</ele>
        <time>2019-10-08T05:59:22Z</time>
      </trkpt>
      <trkpt lat="45.69197" lon="5.90919">
        <ele>250.80000305176</ele>
        <time>2019-10-08T05:59:25Z</time>
      </trkpt>
      <trkpt lat="45.69223" lon="5.9092">
        <ele>251.19999694824</ele>
        <time>2019-10-08T05:59:32Z</time>
      </trkpt>
      <trkpt lat="45.69237" lon="5.90918">
        <ele>252.80000305176</ele>
        <time>2019-10-08T05:59:37Z</time>
      </trkpt>
      <trkpt lat="45.69264" lon="5.90914">
        <ele>255.19999694824</ele>
        <time>2019-10-08T05:59:45Z</time>
      </trkpt>
      <trkpt lat="45.69298" lon="5.9091">
        <ele>256.20001220703</ele>
        <time>2019-10-08T05:59:55Z</time>
      </trkpt>
      <trkpt lat="45.69325" lon="5.90906">
        <ele>256.60000610352</ele>
        <time>2019-10-08T06:00:01Z</time>
      </trkpt>
      <trkpt lat="45.69367" lon="5.909">
        <ele>255.80000305176</ele>
        <time>2019-10-08T06:00:08Z</time>
      </trkpt>
      <trkpt lat="45.69392" lon="5.90892">
        <ele>254.80000305176</ele>
        <time>2019-10-08T06:00:12Z</time>
      </trkpt>
      <trkpt lat="45.69418" lon="5.90876">
        <ele>251.60000610352</ele>
        <time>2019-10-08T06:00:18Z</time>
      </trkpt>
      <trkpt lat="45.69418" lon="5.90876">
        <ele>251.39999389648</ele>
        <time>2019-10-08T06:00:20Z</time>
      </trkpt>
      <trkpt lat="45.69418" lon="5.90876">
        <ele>250</ele>
        <time>2019-10-08T06:00:25Z</time>
      </trkpt>
      <trkpt lat="45.69448" lon="5.90852">
        <ele>248.80000305176</ele>
        <time>2019-10-08T06:00:29Z</time>
      </trkpt>
      <trkpt lat="45.69463" lon="5.90821">
        <ele>248.19999694824</ele>
        <time>2019-10-08T06:00:34Z</time>
      </trkpt>
      <trkpt lat="45.69489" lon="5.90788">
        <ele>247.80000305176</ele>
        <time>2019-10-08T06:00:41Z</time>
      </trkpt>
      <trkpt lat="45.6951" lon="5.90763">
        <ele>247</ele>
        <time>2019-10-08T06:00:47Z</time>
      </trkpt>
      <trkpt lat="45.69525" lon="5.90761">
        <ele>247</ele>
        <time>2019-10-08T06:00:50Z</time>
      </trkpt>
      <trkpt lat="45.69537" lon="5.90756">
        <ele>246.60000610352</ele>
        <time>2019-10-08T06:00:53Z</time>
      </trkpt>
      <trkpt lat="45.69551" lon="5.90737">
        <ele>246.60000610352</ele>
        <time>2019-10-08T06:00:57Z</time>
      </trkpt>
      <trkpt lat="45.69551" lon="5.90737">
        <ele>246.60000610352</ele>
        <time>2019-10-08T06:01:00Z</time>
      </trkpt>
      <trkpt lat="45.69541" lon="5.90689">
        <ele>246.39999389648</ele>
        <time>2019-10-08T06:01:05Z</time>
      </trkpt>
      <trkpt lat="45.69527" lon="5.90652">
        <ele>245.80000305176</ele>
        <time>2019-10-08T06:01:14Z</time>
      </trkpt>
      <trkpt lat="45.69508" lon="5.90551">
        <ele>244.80000305176</ele>
        <time>2019-10-08T06:01:27Z</time>
      </trkpt>
      <trkpt lat="45.69505" lon="5.90518">
        <ele>243.80000305176</ele>
        <time>2019-10-08T06:01:31Z</time>
      </trkpt>
      <trkpt lat="45.69488" lon="5.9045">
        <ele>243.19999694824</ele>
        <time>2019-10-08T06:01:40Z</time>
      </trkpt>
      <trkpt lat="45.6948" lon="5.90391">
        <ele>243.19999694824</ele>
        <time>2019-10-08T06:01:47Z</time>
      </trkpt>
      <trkpt lat="45.69462" lon="5.90251">
        <ele>243.19999694824</ele>
        <time>2019-10-08T06:02:03Z</time>
      </trkpt>
      <trkpt lat="45.69458" lon="5.90217">
        <ele>243.39999389648</ele>
        <time>2019-10-08T06:02:07Z</time>
      </trkpt>
      <trkpt lat="45.69446" lon="5.90127">
        <ele>243</ele>
        <time>2019-10-08T06:02:23Z</time>
      </trkpt>
      <trkpt lat="45.69446" lon="5.90127">
        <ele>243</ele>
        <time>2019-10-08T06:02:27Z</time>
      </trkpt>
      <trkpt lat="45.69454" lon="5.90011">
        <ele>242.80000305176</ele>
        <time>2019-10-08T06:02:35Z</time>
      </trkpt>
      <trkpt lat="45.69454" lon="5.89996">
        <ele>242.80000305176</ele>
        <time>2019-10-08T06:02:38Z</time>
      </trkpt>
      <trkpt lat="45.69437" lon="5.89967">
        <ele>243.19999694824</ele>
        <time>2019-10-08T06:02:43Z</time>
      </trkpt>
      <trkpt lat="45.69425" lon="5.89884">
        <ele>243.19999694824</ele>
        <time>2019-10-08T06:02:56Z</time>
      </trkpt>
      <trkpt lat="45.69417" lon="5.89828">
        <ele>243.39999389648</ele>
        <time>2019-10-08T06:03:04Z</time>
      </trkpt>
      <trkpt lat="45.69395" lon="5.89741">
        <ele>243.39999389648</ele>
        <time>2019-10-08T06:03:18Z</time>
      </trkpt>
      <trkpt lat="45.69389" lon="5.89727">
        <ele>243.39999389648</ele>
        <time>2019-10-08T06:03:21Z</time>
      </trkpt>
      <trkpt lat="45.69357" lon="5.89649">
        <ele>242.80000305176</ele>
        <time>2019-10-08T06:03:33Z</time>
      </trkpt>
      <trkpt lat="45.69359" lon="5.89631">
        <ele>242.39999389648</ele>
        <time>2019-10-08T06:03:37Z</time>
      </trkpt>
      <trkpt lat="45.69368" lon="5.89608">
        <ele>242.19999694824</ele>
        <time>2019-10-08T06:03:43Z</time>
      </trkpt>
      <trkpt lat="45.69355" lon="5.89592">
        <ele>242.19999694824</ele>
        <time>2019-10-08T06:03:47Z</time>
      </trkpt>
      <trkpt lat="45.69325" lon="5.89588">
        <ele>242.19999694824</ele>
        <time>2019-10-08T06:03:54Z</time>
      </trkpt>
      <trkpt lat="45.69323" lon="5.8959">
        <ele>242.19999694824</ele>
        <time>2019-10-08T06:03:58Z</time>
      </trkpt>
      <trkpt lat="45.69244" lon="5.89597">
        <ele>242.39999389648</ele>
        <time>2019-10-08T06:04:12Z</time>
      </trkpt>
      <trkpt lat="45.69196" lon="5.89587">
        <ele>242</ele>
        <time>2019-10-08T06:04:21Z</time>
      </trkpt>
      <trkpt lat="45.69065" lon="5.89569">
        <ele>241.19999694824</ele>
        <time>2019-10-08T06:04:43Z</time>
      </trkpt>
      <trkpt lat="45.69002" lon="5.89566">
        <ele>241.39999389648</ele>
        <time>2019-10-08T06:04:54Z</time>
      </trkpt>
      <trkpt lat="45.68905" lon="5.8957">
        <ele>241.19999694824</ele>
        <time>2019-10-08T06:05:11Z</time>
      </trkpt>
      <trkpt lat="45.68793" lon="5.89547">
        <ele>240.60000610352</ele>
        <time>2019-10-08T06:05:31Z</time>
      </trkpt>
      <trkpt lat="45.68747" lon="5.89539">
        <ele>240.39999389648</ele>
        <time>2019-10-08T06:05:39Z</time>
      </trkpt>
      <trkpt lat="45.68641" lon="5.89531">
        <ele>240.39999389648</ele>
        <time>2019-10-08T06:05:56Z</time>
      </trkpt>
      <trkpt lat="45.68538" lon="5.89503">
        <ele>240.39999389648</ele>
        <time>2019-10-08T06:06:13Z</time>
      </trkpt>
      <trkpt lat="45.68419" lon="5.89481">
        <ele>240.39999389648</ele>
        <time>2019-10-08T06:06:33Z</time>
      </trkpt>
      <trkpt lat="45.68386" lon="5.89475">
        <ele>240.39999389648</ele>
        <time>2019-10-08T06:06:39Z</time>
      </trkpt>
      <trkpt lat="45.68376" lon="5.89451">
        <ele>240.19999694824</ele>
        <time>2019-10-08T06:06:44Z</time>
      </trkpt>
      <trkpt lat="45.68362" lon="5.89447">
        <ele>240.19999694824</ele>
        <time>2019-10-08T06:06:47Z</time>
      </trkpt>
      <trkpt lat="45.6828" lon="5.89443">
        <ele>238.60000610352</ele>
        <time>2019-10-08T06:06:59Z</time>
      </trkpt>
      <trkpt lat="45.68259" lon="5.89439">
        <ele>238.39999389648</ele>
        <time>2019-10-08T06:07:03Z</time>
      </trkpt>
      <trkpt lat="45.68217" lon="5.89429">
        <ele>238</ele>
        <time>2019-10-08T06:07:11Z</time>
      </trkpt>
      <trkpt lat="45.68181" lon="5.89418">
        <ele>237.80000305176</ele>
        <time>2019-10-08T06:07:21Z</time>
      </trkpt>
      <trkpt lat="45.68176" lon="5.89417">
        <ele>237.39999389648</ele>
        <time>2019-10-08T06:08:45Z</time>
      </trkpt>
      <trkpt lat="45.68159" lon="5.8942">
        <ele>237.39999389648</ele>
        <time>2019-10-08T06:08:52Z</time>
      </trkpt>
      <trkpt lat="45.68127" lon="5.89416">
        <ele>237.60000610352</ele>
        <time>2019-10-08T06:08:58Z</time>
      </trkpt>
      <trkpt lat="45.6805" lon="5.89398">
        <ele>237.60000610352</ele>
        <time>2019-10-08T06:09:12Z</time>
      </trkpt>
      <trkpt lat="45.68002" lon="5.89379">
        <ele>237.60000610352</ele>
        <time>2019-10-08T06:09:21Z</time>
      </trkpt>
      <trkpt lat="45.6798" lon="5.89384">
        <ele>237.80000305176</ele>
        <time>2019-10-08T06:09:26Z</time>
      </trkpt>
      <trkpt lat="45.67955" lon="5.89393">
        <ele>238.39999389648</ele>
        <time>2019-10-08T06:09:32Z</time>
      </trkpt>
      <trkpt lat="45.6793" lon="5.89394">
        <ele>239.39999389648</ele>
        <time>2019-10-08T06:09:38Z</time>
      </trkpt>
      <trkpt lat="45.67834" lon="5.89396">
        <ele>239.80000305176</ele>
        <time>2019-10-08T06:09:57Z</time>
      </trkpt>
      <trkpt lat="45.67762" lon="5.89389">
        <ele>240</ele>
        <time>2019-10-08T06:10:11Z</time>
      </trkpt>
      <trkpt lat="45.67729" lon="5.89387">
        <ele>239.80000305176</ele>
        <time>2019-10-08T06:10:16Z</time>
      </trkpt>
      <trkpt lat="45.67594" lon="5.89376">
        <ele>237.80000305176</ele>
        <time>2019-10-08T06:10:36Z</time>
      </trkpt>
      <trkpt lat="45.67507" lon="5.89366">
        <ele>238</ele>
        <time>2019-10-08T06:10:50Z</time>
      </trkpt>
      <trkpt lat="45.67435" lon="5.89358">
        <ele>238</ele>
        <time>2019-10-08T06:11:02Z</time>
      </trkpt>
      <trkpt lat="45.67365" lon="5.89349">
        <ele>238.19999694824</ele>
        <time>2019-10-08T06:11:14Z</time>
      </trkpt>
      <trkpt lat="45.67345" lon="5.8935">
        <ele>238.19999694824</ele>
        <time>2019-10-08T06:11:18Z</time>
      </trkpt>
      <trkpt lat="45.6727" lon="5.89347">
        <ele>240.60000610352</ele>
        <time>2019-10-08T06:11:34Z</time>
      </trkpt>
      <trkpt lat="45.67188" lon="5.8934">
        <ele>240.80000305176</ele>
        <time>2019-10-08T06:11:49Z</time>
      </trkpt>
      <trkpt lat="45.6706" lon="5.89329">
        <ele>240.80000305176</ele>
        <time>2019-10-08T06:12:13Z</time>
      </trkpt>
      <trkpt lat="45.66983" lon="5.89352">
        <ele>240.39999389648</ele>
        <time>2019-10-08T06:12:27Z</time>
      </trkpt>
      <trkpt lat="45.66857" lon="5.89393">
        <ele>240.60000610352</ele>
        <time>2019-10-08T06:12:50Z</time>
      </trkpt>
      <trkpt lat="45.66803" lon="5.89435">
        <ele>240.60000610352</ele>
        <time>2019-10-08T06:13:02Z</time>
      </trkpt>
      <trkpt lat="45.66747" lon="5.89469">
        <ele>241</ele>
        <time>2019-10-08T06:13:16Z</time>
      </trkpt>
      <trkpt lat="45.66654" lon="5.89531">
        <ele>240.39999389648</ele>
        <time>2019-10-08T06:13:34Z</time>
      </trkpt>
      <trkpt lat="45.66495" lon="5.89593">
        <ele>240.19999694824</ele>
        <time>2019-10-08T06:14:04Z</time>
      </trkpt>
      <trkpt lat="45.66427" lon="5.89601">
        <ele>240.19999694824</ele>
        <time>2019-10-08T06:14:16Z</time>
      </trkpt>
      <trkpt lat="45.66377" lon="5.89594">
        <ele>240.19999694824</ele>
        <time>2019-10-08T06:14:25Z</time>
      </trkpt>
      <trkpt lat="45.6629" lon="5.89577">
        <ele>239.80000305176</ele>
        <time>2019-10-08T06:14:39Z</time>
      </trkpt>
      <trkpt lat="45.66204" lon="5.89551">
        <ele>238.60000610352</ele>
        <time>2019-10-08T06:14:52Z</time>
      </trkpt>
      <trkpt lat="45.66132" lon="5.8952">
        <ele>238</ele>
        <time>2019-10-08T06:15:04Z</time>
      </trkpt>
      <trkpt lat="45.66071" lon="5.89494">
        <ele>237.60000610352</ele>
        <time>2019-10-08T06:15:15Z</time>
      </trkpt>
      <trkpt lat="45.65973" lon="5.89457">
        <ele>237.80000305176</ele>
        <time>2019-10-08T06:15:33Z</time>
      </trkpt>
      <trkpt lat="45.65905" lon="5.89448">
        <ele>237.80000305176</ele>
        <time>2019-10-08T06:15:44Z</time>
      </trkpt>
      <trkpt lat="45.65796" lon="5.89423">
        <ele>237.60000610352</ele>
        <time>2019-10-08T06:16:03Z</time>
      </trkpt>
      <trkpt lat="45.65755" lon="5.89402">
        <ele>238.19999694824</ele>
        <time>2019-10-08T06:16:12Z</time>
      </trkpt>
      <trkpt lat="45.65732" lon="5.89386">
        <ele>238.80000305176</ele>
        <time>2019-10-08T06:16:17Z</time>
      </trkpt>
      <trkpt lat="45.65725" lon="5.89391">
        <ele>239</ele>
        <time>2019-10-08T06:16:20Z</time>
      </trkpt>
      <trkpt lat="45.65693" lon="5.89437">
        <ele>239.39999389648</ele>
        <time>2019-10-08T06:16:28Z</time>
      </trkpt>
      <trkpt lat="45.65677" lon="5.89445">
        <ele>239.19999694824</ele>
        <time>2019-10-08T06:16:31Z</time>
      </trkpt>
      <trkpt lat="45.65603" lon="5.89439">
        <ele>239</ele>
        <time>2019-10-08T06:16:41Z</time>
      </trkpt>
      <trkpt lat="45.65543" lon="5.89394">
        <ele>237.39999389648</ele>
        <time>2019-10-08T06:16:51Z</time>
      </trkpt>
      <trkpt lat="45.65457" lon="5.89333">
        <ele>237.19999694824</ele>
        <time>2019-10-08T06:17:06Z</time>
      </trkpt>
      <trkpt lat="45.65371" lon="5.8927">
        <ele>237.39999389648</ele>
        <time>2019-10-08T06:17:22Z</time>
      </trkpt>
      <trkpt lat="45.65356" lon="5.89266">
        <ele>237.60000610352</ele>
        <time>2019-10-08T06:17:26Z</time>
      </trkpt>
      <trkpt lat="45.6535" lon="5.89285">
        <ele>238</ele>
        <time>2019-10-08T06:17:30Z</time>
      </trkpt>
      <trkpt lat="45.65339" lon="5.89307">
        <ele>239</ele>
        <time>2019-10-08T06:17:34Z</time>
      </trkpt>
      <trkpt lat="45.65318" lon="5.893">
        <ele>240.19999694824</ele>
        <time>2019-10-08T06:17:40Z</time>
      </trkpt>
      <trkpt lat="45.65291" lon="5.89286">
        <ele>241.39999389648</ele>
        <time>2019-10-08T06:17:48Z</time>
      </trkpt>
      <trkpt lat="45.65264" lon="5.89272">
        <ele>241.60000610352</ele>
        <time>2019-10-08T06:17:58Z</time>
      </trkpt>
      <trkpt lat="45.65261" lon="5.8926">
        <ele>241.60000610352</ele>
        <time>2019-10-08T06:18:00Z</time>
      </trkpt>
      <trkpt lat="45.65245" lon="5.89229">
        <ele>241.39999389648</ele>
        <time>2019-10-08T06:18:05Z</time>
      </trkpt>
      <trkpt lat="45.65235" lon="5.89211">
        <ele>240.80000305176</ele>
        <time>2019-10-08T06:18:08Z</time>
      </trkpt>
      <trkpt lat="45.6522" lon="5.89193">
        <ele>240</ele>
        <time>2019-10-08T06:18:12Z</time>
      </trkpt>
      <trkpt lat="45.65206" lon="5.89194">
        <ele>239.39999389648</ele>
        <time>2019-10-08T06:18:15Z</time>
      </trkpt>
      <trkpt lat="45.65198" lon="5.89205">
        <ele>239.19999694824</ele>
        <time>2019-10-08T06:18:18Z</time>
      </trkpt>
      <trkpt lat="45.6514" lon="5.8928">
        <ele>239.39999389648</ele>
        <time>2019-10-08T06:18:34Z</time>
      </trkpt>
      <trkpt lat="45.65127" lon="5.89287">
        <ele>239.19999694824</ele>
        <time>2019-10-08T06:18:42Z</time>
      </trkpt>
      <trkpt lat="45.65111" lon="5.89273">
        <ele>239.19999694824</ele>
        <time>2019-10-08T06:18:50Z</time>
      </trkpt>
      <trkpt lat="45.65111" lon="5.89253">
        <ele>239.19999694824</ele>
        <time>2019-10-08T06:18:53Z</time>
      </trkpt>
      <trkpt lat="45.65098" lon="5.89219">
        <ele>239.19999694824</ele>
        <time>2019-10-08T06:18:59Z</time>
      </trkpt>
      <trkpt lat="45.6509" lon="5.89211">
        <ele>239</ele>
        <time>2019-10-08T06:19:02Z</time>
      </trkpt>
      <trkpt lat="45.65081" lon="5.89212">
        <ele>239</ele>
        <time>2019-10-08T06:19:05Z</time>
      </trkpt>
      <trkpt lat="45.65062" lon="5.89223">
        <ele>239.39999389648</ele>
        <time>2019-10-08T06:19:09Z</time>
      </trkpt>
      <trkpt lat="45.65038" lon="5.89227">
        <ele>240.39999389648</ele>
        <time>2019-10-08T06:19:15Z</time>
      </trkpt>
      <trkpt lat="45.65014" lon="5.89219">
        <ele>242.19999694824</ele>
        <time>2019-10-08T06:19:21Z</time>
      </trkpt>
      <trkpt lat="45.64961" lon="5.89212">
        <ele>243.60000610352</ele>
        <time>2019-10-08T06:19:33Z</time>
      </trkpt>
      <trkpt lat="45.64932" lon="5.89224">
        <ele>243.60000610352</ele>
        <time>2019-10-08T06:19:39Z</time>
      </trkpt>
      <trkpt lat="45.64913" lon="5.89231">
        <ele>243.39999389648</ele>
        <time>2019-10-08T06:19:43Z</time>
      </trkpt>
      <trkpt lat="45.64872" lon="5.89228">
        <ele>242.19999694824</ele>
        <time>2019-10-08T06:19:50Z</time>
      </trkpt>
      <trkpt lat="45.64852" lon="5.89226">
        <ele>241.80000305176</ele>
        <time>2019-10-08T06:19:53Z</time>
      </trkpt>
      <trkpt lat="45.64826" lon="5.89205">
        <ele>240.80000305176</ele>
        <time>2019-10-08T06:19:58Z</time>
      </trkpt>
      <trkpt lat="45.64823" lon="5.89186">
        <ele>239.60000610352</ele>
        <time>2019-10-08T06:20:01Z</time>
      </trkpt>
      <trkpt lat="45.64828" lon="5.89148">
        <ele>238.80000305176</ele>
        <time>2019-10-08T06:20:06Z</time>
      </trkpt>
      <trkpt lat="45.64822" lon="5.8911">
        <ele>238.60000610352</ele>
        <time>2019-10-08T06:20:12Z</time>
      </trkpt>
      <trkpt lat="45.64822" lon="5.89025">
        <ele>238.60000610352</ele>
        <time>2019-10-08T06:20:23Z</time>
      </trkpt>
      <trkpt lat="45.64822" lon="5.88945">
        <ele>238.60000610352</ele>
        <time>2019-10-08T06:20:32Z</time>
      </trkpt>
      <trkpt lat="45.64823" lon="5.88763">
        <ele>238.19999694824</ele>
        <time>2019-10-08T06:20:53Z</time>
      </trkpt>
      <trkpt lat="45.6482" lon="5.88682">
        <ele>238.19999694824</ele>
        <time>2019-10-08T06:21:03Z</time>
      </trkpt>
      <trkpt lat="45.6482" lon="5.88605">
        <ele>238.80000305176</ele>
        <time>2019-10-08T06:21:17Z</time>
      </trkpt>
      <trkpt lat="45.6482" lon="5.88594">
        <ele>238.80000305176</ele>
        <time>2019-10-08T06:21:19Z</time>
      </trkpt>
      <trkpt lat="45.64821" lon="5.88498">
        <ele>238.39999389648</ele>
        <time>2019-10-08T06:21:32Z</time>
      </trkpt>
      <trkpt lat="45.64824" lon="5.88354">
        <ele>238.39999389648</ele>
        <time>2019-10-08T06:21:49Z</time>
      </trkpt>
      <trkpt lat="45.64826" lon="5.88233">
        <ele>238.39999389648</ele>
        <time>2019-10-08T06:22:03Z</time>
      </trkpt>
      <trkpt lat="45.64828" lon="5.88078">
        <ele>238.60000610352</ele>
        <time>2019-10-08T06:22:21Z</time>
      </trkpt>
      <trkpt lat="45.64829" lon="5.87974">
        <ele>238.39999389648</ele>
        <time>2019-10-08T06:22:33Z</time>
      </trkpt>
      <trkpt lat="45.64832" lon="5.8779">
        <ele>238.60000610352</ele>
        <time>2019-10-08T06:22:55Z</time>
      </trkpt>
      <trkpt lat="45.64833" lon="5.8768">
        <ele>238.19999694824</ele>
        <time>2019-10-08T06:23:07Z</time>
      </trkpt>
      <trkpt lat="45.64834" lon="5.87546">
        <ele>238</ele>
        <time>2019-10-08T06:23:23Z</time>
      </trkpt>
      <trkpt lat="45.64833" lon="5.87452">
        <ele>238.19999694824</ele>
        <time>2019-10-08T06:23:35Z</time>
      </trkpt>
      <trkpt lat="45.64832" lon="5.87401">
        <ele>238.19999694824</ele>
        <time>2019-10-08T06:23:43Z</time>
      </trkpt>
      <trkpt lat="45.64831" lon="5.87329">
        <ele>238.19999694824</ele>
        <time>2019-10-08T06:23:52Z</time>
      </trkpt>
      <trkpt lat="45.64822" lon="5.87122">
        <ele>237.60000610352</ele>
        <time>2019-10-08T06:24:17Z</time>
      </trkpt>
      <trkpt lat="45.64816" lon="5.86989">
        <ele>237.80000305176</ele>
        <time>2019-10-08T06:24:33Z</time>
      </trkpt>
      <trkpt lat="45.6481" lon="5.86811">
        <ele>238</ele>
        <time>2019-10-08T06:24:56Z</time>
      </trkpt>
      <trkpt lat="45.64804" lon="5.86674">
        <ele>238.19999694824</ele>
        <time>2019-10-08T06:25:12Z</time>
      </trkpt>
      <trkpt lat="45.64802" lon="5.86607">
        <ele>238.39999389648</ele>
        <time>2019-10-08T06:25:21Z</time>
      </trkpt>
      <trkpt lat="45.64809" lon="5.86549">
        <ele>238.19999694824</ele>
        <time>2019-10-08T06:25:28Z</time>
      </trkpt>
      <trkpt lat="45.64827" lon="5.86513">
        <ele>238.19999694824</ele>
        <time>2019-10-08T06:25:33Z</time>
      </trkpt>
      <trkpt lat="45.6485" lon="5.865">
        <ele>238</ele>
        <time>2019-10-08T06:25:38Z</time>
      </trkpt>
      <trkpt lat="45.64896" lon="5.86506">
        <ele>237.80000305176</ele>
        <time>2019-10-08T06:25:45Z</time>
      </trkpt>
      <trkpt lat="45.65019" lon="5.86443">
        <ele>237.60000610352</ele>
        <time>2019-10-08T06:26:07Z</time>
      </trkpt>
      <trkpt lat="45.65049" lon="5.86415">
        <ele>237.80000305176</ele>
        <time>2019-10-08T06:26:13Z</time>
      </trkpt>
      <trkpt lat="45.6511" lon="5.86329">
        <ele>237.80000305176</ele>
        <time>2019-10-08T06:26:27Z</time>
      </trkpt>
      <trkpt lat="45.65127" lon="5.86293">
        <ele>237.80000305176</ele>
        <time>2019-10-08T06:26:32Z</time>
      </trkpt>
      <trkpt lat="45.65138" lon="5.86262">
        <ele>237.80000305176</ele>
        <time>2019-10-08T06:26:36Z</time>
      </trkpt>
      <trkpt lat="45.65156" lon="5.86273">
        <ele>237.80000305176</ele>
        <time>2019-10-08T06:26:39Z</time>
      </trkpt>
      <trkpt lat="45.6518" lon="5.86228">
        <ele>239.19999694824</ele>
        <time>2019-10-08T06:26:50Z</time>
      </trkpt>
      <trkpt lat="45.65187" lon="5.86215">
        <ele>239.80000305176</ele>
        <time>2019-10-08T06:26:55Z</time>
      </trkpt>
      <trkpt lat="45.6519" lon="5.86213">
        <ele>239.80000305176</ele>
        <time>2019-10-08T06:26:59Z</time>
      </trkpt>
      <trkpt lat="45.65191" lon="5.86213">
        <ele>239.60000610352</ele>
        <time>2019-10-08T06:29:24Z</time>
      </trkpt>
      <trkpt lat="45.65204" lon="5.86223">
        <ele>239.39999389648</ele>
        <time>2019-10-08T06:29:31Z</time>
      </trkpt>
      <trkpt lat="45.65248" lon="5.86236">
        <ele>239</ele>
        <time>2019-10-08T06:29:43Z</time>
      </trkpt>
      <trkpt lat="45.65273" lon="5.86232">
        <ele>238.60000610352</ele>
        <time>2019-10-08T06:29:49Z</time>
      </trkpt>
      <trkpt lat="45.65308" lon="5.86211">
        <ele>238.80000305176</ele>
        <time>2019-10-08T06:29:58Z</time>
      </trkpt>
      <trkpt lat="45.65329" lon="5.86217">
        <ele>239</ele>
        <time>2019-10-08T06:30:03Z</time>
      </trkpt>
      <trkpt lat="45.65362" lon="5.86202">
        <ele>239.60000610352</ele>
        <time>2019-10-08T06:30:10Z</time>
      </trkpt>
      <trkpt lat="45.65406" lon="5.86181">
        <ele>239.60000610352</ele>
        <time>2019-10-08T06:30:19Z</time>
      </trkpt>
      <trkpt lat="45.65454" lon="5.86175">
        <ele>239.19999694824</ele>
        <time>2019-10-08T06:30:30Z</time>
      </trkpt>
      <trkpt lat="45.65495" lon="5.86181">
        <ele>239</ele>
        <time>2019-10-08T06:30:39Z</time>
      </trkpt>
      <trkpt lat="45.65513" lon="5.86189">
        <ele>238.60000610352</ele>
        <time>2019-10-08T06:30:45Z</time>
      </trkpt>
      <trkpt lat="45.6552" lon="5.86171">
        <ele>238.60000610352</ele>
        <time>2019-10-08T06:30:49Z</time>
      </trkpt>
      <trkpt lat="45.65515" lon="5.86128">
        <ele>238.60000610352</ele>
        <time>2019-10-08T06:30:55Z</time>
      </trkpt>
      <trkpt lat="45.65504" lon="5.86033">
        <ele>238.60000610352</ele>
        <time>2019-10-08T06:31:08Z</time>
      </trkpt>
      <trkpt lat="45.65519" lon="5.85985">
        <ele>238.60000610352</ele>
        <time>2019-10-08T06:31:16Z</time>
      </trkpt>
      <trkpt lat="45.65545" lon="5.85961">
        <ele>238.60000610352</ele>
        <time>2019-10-08T06:31:23Z</time>
      </trkpt>
      <trkpt lat="45.65558" lon="5.85956">
        <ele>238.39999389648</ele>
        <time>2019-10-08T06:31:28Z</time>
      </trkpt>
      <trkpt lat="45.65616" lon="5.85916">
        <ele>238.39999389648</ele>
        <time>2019-10-08T06:31:39Z</time>
      </trkpt>
      <trkpt lat="45.65663" lon="5.85872">
        <ele>238.39999389648</ele>
        <time>2019-10-08T06:31:50Z</time>
      </trkpt>
      <trkpt lat="45.65682" lon="5.85857">
        <ele>238.39999389648</ele>
        <time>2019-10-08T06:31:56Z</time>
      </trkpt>
      <trkpt lat="45.65713" lon="5.85848">
        <ele>238.60000610352</ele>
        <time>2019-10-08T06:32:03Z</time>
      </trkpt>
      <trkpt lat="45.65763" lon="5.85853">
        <ele>238.39999389648</ele>
        <time>2019-10-08T06:32:13Z</time>
      </trkpt>
      <trkpt lat="45.65837" lon="5.85869">
        <ele>238.19999694824</ele>
        <time>2019-10-08T06:32:27Z</time>
      </trkpt>
      <trkpt lat="45.6591" lon="5.85882">
        <ele>237.60000610352</ele>
        <time>2019-10-08T06:32:40Z</time>
      </trkpt>
      <trkpt lat="45.65933" lon="5.85878">
        <ele>237.60000610352</ele>
        <time>2019-10-08T06:32:44Z</time>
      </trkpt>
      <trkpt lat="45.66007" lon="5.85849">
        <ele>238</ele>
        <time>2019-10-08T06:32:58Z</time>
      </trkpt>
      <trkpt lat="45.6604" lon="5.85836">
        <ele>238.19999694824</ele>
        <time>2019-10-08T06:33:04Z</time>
      </trkpt>
      <trkpt lat="45.66119" lon="5.85835">
        <ele>238.60000610352</ele>
        <time>2019-10-08T06:33:18Z</time>
      </trkpt>
      <trkpt lat="45.66184" lon="5.85828">
        <ele>238.80000305176</ele>
        <time>2019-10-08T06:33:30Z</time>
      </trkpt>
      <trkpt lat="45.66249" lon="5.85803">
        <ele>239.19999694824</ele>
        <time>2019-10-08T06:33:41Z</time>
      </trkpt>
      <trkpt lat="45.66312" lon="5.85807">
        <ele>239.39999389648</ele>
        <time>2019-10-08T06:33:52Z</time>
      </trkpt>
      <trkpt lat="45.66403" lon="5.85832">
        <ele>239.19999694824</ele>
        <time>2019-10-08T06:34:08Z</time>
      </trkpt>
      <trkpt lat="45.66435" lon="5.85872">
        <ele>239</ele>
        <time>2019-10-08T06:34:15Z</time>
      </trkpt>
      <trkpt lat="45.66444" lon="5.8588">
        <ele>239</ele>
        <time>2019-10-08T06:34:17Z</time>
      </trkpt>
      <trkpt lat="45.66478" lon="5.8587">
        <ele>238.60000610352</ele>
        <time>2019-10-08T06:34:23Z</time>
      </trkpt>
      <trkpt lat="45.66525" lon="5.85872">
        <ele>239</ele>
        <time>2019-10-08T06:34:32Z</time>
      </trkpt>
      <trkpt lat="45.66564" lon="5.85855">
        <ele>239.19999694824</ele>
        <time>2019-10-08T06:34:39Z</time>
      </trkpt>
      <trkpt lat="45.66624" lon="5.85828">
        <ele>239.19999694824</ele>
        <time>2019-10-08T06:34:49Z</time>
      </trkpt>
      <trkpt lat="45.66726" lon="5.85792">
        <ele>238.80000305176</ele>
        <time>2019-10-08T06:35:06Z</time>
      </trkpt>
      <trkpt lat="45.66806" lon="5.85747">
        <ele>238.60000610352</ele>
        <time>2019-10-08T06:35:20Z</time>
      </trkpt>
      <trkpt lat="45.66872" lon="5.8572">
        <ele>238.39999389648</ele>
        <time>2019-10-08T06:35:33Z</time>
      </trkpt>
      <trkpt lat="45.66949" lon="5.85707">
        <ele>238.60000610352</ele>
        <time>2019-10-08T06:35:46Z</time>
      </trkpt>
      <trkpt lat="45.66966" lon="5.85703">
        <ele>239</ele>
        <time>2019-10-08T06:35:51Z</time>
      </trkpt>
      <trkpt lat="45.66989" lon="5.85699">
        <ele>241.19999694824</ele>
        <time>2019-10-08T06:35:58Z</time>
      </trkpt>
      <trkpt lat="45.67004" lon="5.85696">
        <ele>243</ele>
        <time>2019-10-08T06:36:05Z</time>
      </trkpt>
      <trkpt lat="45.67029" lon="5.85692">
        <ele>245.19999694824</ele>
        <time>2019-10-08T06:36:15Z</time>
      </trkpt>
      <trkpt lat="45.67049" lon="5.85688">
        <ele>246.60000610352</ele>
        <time>2019-10-08T06:36:22Z</time>
      </trkpt>
      <trkpt lat="45.67062" lon="5.85681">
        <ele>247.80000305176</ele>
        <time>2019-10-08T06:36:29Z</time>
      </trkpt>
      <trkpt lat="45.67066" lon="5.85667">
        <ele>248.80000305176</ele>
        <time>2019-10-08T06:36:33Z</time>
      </trkpt>
      <trkpt lat="45.67074" lon="5.85649">
        <ele>250.39999389648</ele>
        <time>2019-10-08T06:36:41Z</time>
      </trkpt>
      <trkpt lat="45.67095" lon="5.85631">
        <ele>252.39999389648</ele>
        <time>2019-10-08T06:36:51Z</time>
      </trkpt>
      <trkpt lat="45.67116" lon="5.8563">
        <ele>254.19999694824</ele>
        <time>2019-10-08T06:36:59Z</time>
      </trkpt>
      <trkpt lat="45.6713" lon="5.8563">
        <ele>255.60000610352</ele>
        <time>2019-10-08T06:37:06Z</time>
      </trkpt>
      <trkpt lat="45.6714" lon="5.85631">
        <ele>256.79998779297</ele>
        <time>2019-10-08T06:37:12Z</time>
      </trkpt>
      <trkpt lat="45.67165" lon="5.85632">
        <ele>258.39999389648</ele>
        <time>2019-10-08T06:37:23Z</time>
      </trkpt>
      <trkpt lat="45.67178" lon="5.85633">
        <ele>259.39999389648</ele>
        <time>2019-10-08T06:37:28Z</time>
      </trkpt>
      <trkpt lat="45.67205" lon="5.85634">
        <ele>261.20001220703</ele>
        <time>2019-10-08T06:37:38Z</time>
      </trkpt>
      <trkpt lat="45.67222" lon="5.85635">
        <ele>262.20001220703</ele>
        <time>2019-10-08T06:37:45Z</time>
      </trkpt>
      <trkpt lat="45.6725" lon="5.85637">
        <ele>264.39999389648</ele>
        <time>2019-10-08T06:37:56Z</time>
      </trkpt>
      <trkpt lat="45.67267" lon="5.85638">
        <ele>265.39999389648</ele>
        <time>2019-10-08T06:38:03Z</time>
      </trkpt>
      <trkpt lat="45.67285" lon="5.85639">
        <ele>266.60000610352</ele>
        <time>2019-10-08T06:38:11Z</time>
      </trkpt>
      <trkpt lat="45.67299" lon="5.8564">
        <ele>267.79998779297</ele>
        <time>2019-10-08T06:38:17Z</time>
      </trkpt>
      <trkpt lat="45.67324" lon="5.85642">
        <ele>270.20001220703</ele>
        <time>2019-10-08T06:38:31Z</time>
      </trkpt>
      <trkpt lat="45.67341" lon="5.85644">
        <ele>271.79998779297</ele>
        <time>2019-10-08T06:38:39Z</time>
      </trkpt>
      <trkpt lat="45.67369" lon="5.85648">
        <ele>273.79998779297</ele>
        <time>2019-10-08T06:38:50Z</time>
      </trkpt>
      <trkpt lat="45.67383" lon="5.8565">
        <ele>274.79998779297</ele>
        <time>2019-10-08T06:38:55Z</time>
      </trkpt>
      <trkpt lat="45.67395" lon="5.85651">
        <ele>275.79998779297</ele>
        <time>2019-10-08T06:39:01Z</time>
      </trkpt>
      <trkpt lat="45.67417" lon="5.85654">
        <ele>277.39999389648</ele>
        <time>2019-10-08T06:39:10Z</time>
      </trkpt>
      <trkpt lat="45.67434" lon="5.85656">
        <ele>278.60000610352</ele>
        <time>2019-10-08T06:39:16Z</time>
      </trkpt>
      <trkpt lat="45.67463" lon="5.85664">
        <ele>280.79998779297</ele>
        <time>2019-10-08T06:39:29Z</time>
      </trkpt>
      <trkpt lat="45.67474" lon="5.85667">
        <ele>281.60000610352</ele>
        <time>2019-10-08T06:39:34Z</time>
      </trkpt>
      <trkpt lat="45.67496" lon="5.85661">
        <ele>283</ele>
        <time>2019-10-08T06:39:42Z</time>
      </trkpt>
      <trkpt lat="45.67512" lon="5.8565">
        <ele>284.79998779297</ele>
        <time>2019-10-08T06:39:50Z</time>
      </trkpt>
      <trkpt lat="45.67532" lon="5.8564">
        <ele>286.39999389648</ele>
        <time>2019-10-08T06:40:00Z</time>
      </trkpt>
      <trkpt lat="45.6755" lon="5.85634">
        <ele>287.39999389648</ele>
        <time>2019-10-08T06:40:06Z</time>
      </trkpt>
      <trkpt lat="45.67579" lon="5.85623">
        <ele>290</ele>
        <time>2019-10-08T06:40:17Z</time>
      </trkpt>
      <trkpt lat="45.67597" lon="5.85619">
        <ele>291.39999389648</ele>
        <time>2019-10-08T06:40:24Z</time>
      </trkpt>
      <trkpt lat="45.6762" lon="5.85617">
        <ele>292.60000610352</ele>
        <time>2019-10-08T06:40:32Z</time>
      </trkpt>
      <trkpt lat="45.67652" lon="5.85641">
        <ele>294.39999389648</ele>
        <time>2019-10-08T06:40:44Z</time>
      </trkpt>
      <trkpt lat="45.67668" lon="5.85646">
        <ele>294.79998779297</ele>
        <time>2019-10-08T06:40:52Z</time>
      </trkpt>
      <trkpt lat="45.67699" lon="5.85643">
        <ele>295</ele>
        <time>2019-10-08T06:40:59Z</time>
      </trkpt>
      <trkpt lat="45.67708" lon="5.85642">
        <ele>295</ele>
        <time>2019-10-08T06:41:01Z</time>
      </trkpt>
      <trkpt lat="45.67781" lon="5.85641">
        <ele>294.20001220703</ele>
        <time>2019-10-08T06:41:13Z</time>
      </trkpt>
      <trkpt lat="45.67823" lon="5.85651">
        <ele>294.20001220703</ele>
        <time>2019-10-08T06:41:21Z</time>
      </trkpt>
      <trkpt lat="45.67906" lon="5.85666">
        <ele>296</ele>
        <time>2019-10-08T06:41:38Z</time>
      </trkpt>
      <trkpt lat="45.67945" lon="5.85669">
        <ele>296.60000610352</ele>
        <time>2019-10-08T06:41:46Z</time>
      </trkpt>
      <trkpt lat="45.68006" lon="5.85687">
        <ele>298.20001220703</ele>
        <time>2019-10-08T06:41:58Z</time>
      </trkpt>
      <trkpt lat="45.68024" lon="5.85692">
        <ele>298.60000610352</ele>
        <time>2019-10-08T06:42:03Z</time>
      </trkpt>
      <trkpt lat="45.6807" lon="5.85698">
        <ele>300.79998779297</ele>
        <time>2019-10-08T06:42:16Z</time>
      </trkpt>
      <trkpt lat="45.68096" lon="5.85682">
        <ele>301.60000610352</ele>
        <time>2019-10-08T06:42:24Z</time>
      </trkpt>
      <trkpt lat="45.6811" lon="5.8566">
        <ele>301.60000610352</ele>
        <time>2019-10-08T06:42:29Z</time>
      </trkpt>
      <trkpt lat="45.68126" lon="5.85634">
        <ele>301.79998779297</ele>
        <time>2019-10-08T06:42:35Z</time>
      </trkpt>
      <trkpt lat="45.68149" lon="5.85614">
        <ele>303</ele>
        <time>2019-10-08T06:42:44Z</time>
      </trkpt>
      <trkpt lat="45.68169" lon="5.85604">
        <ele>304.79998779297</ele>
        <time>2019-10-08T06:42:52Z</time>
      </trkpt>
      <trkpt lat="45.68182" lon="5.85597">
        <ele>305.79998779297</ele>
        <time>2019-10-08T06:42:58Z</time>
      </trkpt>
      <trkpt lat="45.68201" lon="5.85586">
        <ele>308.20001220703</ele>
        <time>2019-10-08T06:43:10Z</time>
      </trkpt>
      <trkpt lat="45.6821" lon="5.8557">
        <ele>308.39999389648</ele>
        <time>2019-10-08T06:43:15Z</time>
      </trkpt>
      <trkpt lat="45.68195" lon="5.85568">
        <ele>309.20001220703</ele>
        <time>2019-10-08T06:43:25Z</time>
      </trkpt>
      <trkpt lat="45.68176" lon="5.85564">
        <ele>309.79998779297</ele>
        <time>2019-10-08T06:43:32Z</time>
      </trkpt>
      <trkpt lat="45.68158" lon="5.85558">
        <ele>310.79998779297</ele>
        <time>2019-10-08T06:43:42Z</time>
      </trkpt>
      <trkpt lat="45.6814" lon="5.85548">
        <ele>312</ele>
        <time>2019-10-08T06:43:51Z</time>
      </trkpt>
      <trkpt lat="45.68093" lon="5.85544">
        <ele>313.20001220703</ele>
        <time>2019-10-08T06:44:05Z</time>
      </trkpt>
      <trkpt lat="45.6807" lon="5.85539">
        <ele>313.20001220703</ele>
        <time>2019-10-08T06:44:11Z</time>
      </trkpt>
      <trkpt lat="45.67997" lon="5.85512">
        <ele>313.39999389648</ele>
        <time>2019-10-08T06:44:29Z</time>
      </trkpt>
      <trkpt lat="45.67981" lon="5.85505">
        <ele>313.60000610352</ele>
        <time>2019-10-08T06:44:33Z</time>
      </trkpt>
      <trkpt lat="45.67923" lon="5.85476">
        <ele>314.79998779297</ele>
        <time>2019-10-08T06:44:49Z</time>
      </trkpt>
      <trkpt lat="45.67911" lon="5.8547">
        <ele>315.79998779297</ele>
        <time>2019-10-08T06:44:56Z</time>
      </trkpt>
      <trkpt lat="45.67902" lon="5.85467">
        <ele>316.79998779297</ele>
        <time>2019-10-08T06:45:01Z</time>
      </trkpt>
      <trkpt lat="45.67897" lon="5.85442">
        <ele>319</ele>
        <time>2019-10-08T06:45:12Z</time>
      </trkpt>
      <trkpt lat="45.679" lon="5.85425">
        <ele>320</ele>
        <time>2019-10-08T06:45:17Z</time>
      </trkpt>
      <trkpt lat="45.67903" lon="5.85397">
        <ele>321.79998779297</ele>
        <time>2019-10-08T06:45:27Z</time>
      </trkpt>
      <trkpt lat="45.679" lon="5.85384">
        <ele>323</ele>
        <time>2019-10-08T06:45:32Z</time>
      </trkpt>
      <trkpt lat="45.67878" lon="5.85368">
        <ele>326</ele>
        <time>2019-10-08T06:45:47Z</time>
      </trkpt>
      <trkpt lat="45.67863" lon="5.85359">
        <ele>327.20001220703</ele>
        <time>2019-10-08T06:45:55Z</time>
      </trkpt>
      <trkpt lat="45.6784" lon="5.85323">
        <ele>330</ele>
        <time>2019-10-08T06:46:10Z</time>
      </trkpt>
      <trkpt lat="45.67829" lon="5.85296">
        <ele>330.60000610352</ele>
        <time>2019-10-08T06:46:18Z</time>
      </trkpt>
      <trkpt lat="45.67819" lon="5.85269">
        <ele>331.79998779297</ele>
        <time>2019-10-08T06:46:27Z</time>
      </trkpt>
      <trkpt lat="45.67813" lon="5.85248">
        <ele>332.60000610352</ele>
        <time>2019-10-08T06:46:33Z</time>
      </trkpt>
      <trkpt lat="45.67796" lon="5.85204">
        <ele>334.60000610352</ele>
        <time>2019-10-08T06:46:45Z</time>
      </trkpt>
      <trkpt lat="45.67789" lon="5.85188">
        <ele>335.79998779297</ele>
        <time>2019-10-08T06:46:51Z</time>
      </trkpt>
      <trkpt lat="45.67781" lon="5.85169">
        <ele>337.60000610352</ele>
        <time>2019-10-08T06:47:00Z</time>
      </trkpt>
      <trkpt lat="45.67784" lon="5.85157">
        <ele>339</ele>
        <time>2019-10-08T06:47:05Z</time>
      </trkpt>
      <trkpt lat="45.67791" lon="5.85145">
        <ele>340.39999389648</ele>
        <time>2019-10-08T06:47:11Z</time>
      </trkpt>
      <trkpt lat="45.67802" lon="5.85127">
        <ele>343.39999389648</ele>
        <time>2019-10-08T06:47:22Z</time>
      </trkpt>
      <trkpt lat="45.67801" lon="5.85122">
        <ele>344.20001220703</ele>
        <time>2019-10-08T06:47:26Z</time>
      </trkpt>
      <trkpt lat="45.67779" lon="5.85127">
        <ele>345</ele>
        <time>2019-10-08T06:47:34Z</time>
      </trkpt>
      <trkpt lat="45.67766" lon="5.85133">
        <ele>345.60000610352</ele>
        <time>2019-10-08T06:47:40Z</time>
      </trkpt>
      <trkpt lat="45.67741" lon="5.85144">
        <ele>347.20001220703</ele>
        <time>2019-10-08T06:47:50Z</time>
      </trkpt>
      <trkpt lat="45.67722" lon="5.85156">
        <ele>348.39999389648</ele>
        <time>2019-10-08T06:47:58Z</time>
      </trkpt>
      <trkpt lat="45.67705" lon="5.85173">
        <ele>350.79998779297</ele>
        <time>2019-10-08T06:48:07Z</time>
      </trkpt>
      <trkpt lat="45.67694" lon="5.85177">
        <ele>352.39999389648</ele>
        <time>2019-10-08T06:48:14Z</time>
      </trkpt>
      <trkpt lat="45.67701" lon="5.85176">
        <ele>353.79998779297</ele>
        <time>2019-10-08T06:48:38Z</time>
      </trkpt>
      <trkpt lat="45.677" lon="5.85176">
        <ele>353.60000610352</ele>
        <time>2019-10-08T06:48:43Z</time>
      </trkpt>
      <trkpt lat="45.67693" lon="5.85159">
        <ele>355.20001220703</ele>
        <time>2019-10-08T06:55:45Z</time>
      </trkpt>
      <trkpt lat="45.67693" lon="5.85159">
        <ele>355.20001220703</ele>
        <time>2019-10-08T06:55:51Z</time>
      </trkpt>
      <trkpt lat="45.67689" lon="5.85154">
        <ele>355.39999389648</ele>
        <time>2019-10-08T06:55:54Z</time>
      </trkpt>
      <trkpt lat="45.67665" lon="5.85151">
        <ele>355.60000610352</ele>
        <time>2019-10-08T06:56:05Z</time>
      </trkpt>
      <trkpt lat="45.6765" lon="5.85152">
        <ele>355.60000610352</ele>
        <time>2019-10-08T06:56:11Z</time>
      </trkpt>
      <trkpt lat="45.67639" lon="5.8517">
        <ele>356.39999389648</ele>
        <time>2019-10-08T06:56:18Z</time>
      </trkpt>
      <trkpt lat="45.6763" lon="5.85166">
        <ele>357.20001220703</ele>
        <time>2019-10-08T06:56:24Z</time>
      </trkpt>
      <trkpt lat="45.67631" lon="5.85149">
        <ele>358.20001220703</ele>
        <time>2019-10-08T06:56:29Z</time>
      </trkpt>
      <trkpt lat="45.67642" lon="5.85129">
        <ele>360.20001220703</ele>
        <time>2019-10-08T06:56:37Z</time>
      </trkpt>
      <trkpt lat="45.67661" lon="5.85096">
        <ele>362.39999389648</ele>
        <time>2019-10-08T06:56:51Z</time>
      </trkpt>
      <trkpt lat="45.67676" lon="5.8507">
        <ele>364.39999389648</ele>
        <time>2019-10-08T06:57:04Z</time>
      </trkpt>
      <trkpt lat="45.67686" lon="5.85053">
        <ele>365.79998779297</ele>
        <time>2019-10-08T06:57:12Z</time>
      </trkpt>
      <trkpt lat="45.67695" lon="5.85041">
        <ele>366.60000610352</ele>
        <time>2019-10-08T06:57:18Z</time>
      </trkpt>
      <trkpt lat="45.67712" lon="5.85026">
        <ele>368.39999389648</ele>
        <time>2019-10-08T06:57:28Z</time>
      </trkpt>
      <trkpt lat="45.67725" lon="5.85018">
        <ele>369.79998779297</ele>
        <time>2019-10-08T06:57:36Z</time>
      </trkpt>
      <trkpt lat="45.67739" lon="5.85015">
        <ele>371</ele>
        <time>2019-10-08T06:57:43Z</time>
      </trkpt>
      <trkpt lat="45.67772" lon="5.85013">
        <ele>373.60000610352</ele>
        <time>2019-10-08T06:57:58Z</time>
      </trkpt>
      <trkpt lat="45.67781" lon="5.85013">
        <ele>374.39999389648</ele>
        <time>2019-10-08T06:58:03Z</time>
      </trkpt>
      <trkpt lat="45.67804" lon="5.85011">
        <ele>376.39999389648</ele>
        <time>2019-10-08T06:58:15Z</time>
      </trkpt>
      <trkpt lat="45.67823" lon="5.8501">
        <ele>377.79998779297</ele>
        <time>2019-10-08T06:58:23Z</time>
      </trkpt>
      <trkpt lat="45.67838" lon="5.8501">
        <ele>379</ele>
        <time>2019-10-08T06:58:31Z</time>
      </trkpt>
      <trkpt lat="45.67853" lon="5.85009">
        <ele>380.20001220703</ele>
        <time>2019-10-08T06:58:38Z</time>
      </trkpt>
      <trkpt lat="45.67876" lon="5.85007">
        <ele>382</ele>
        <time>2019-10-08T06:58:51Z</time>
      </trkpt>
      <trkpt lat="45.67887" lon="5.85007">
        <ele>383</ele>
        <time>2019-10-08T06:58:55Z</time>
      </trkpt>
      <trkpt lat="45.67915" lon="5.85005">
        <ele>385</ele>
        <time>2019-10-08T06:59:07Z</time>
      </trkpt>
      <trkpt lat="45.67934" lon="5.85008">
        <ele>386.39999389648</ele>
        <time>2019-10-08T06:59:15Z</time>
      </trkpt>
      <trkpt lat="45.67956" lon="5.85016">
        <ele>388.39999389648</ele>
        <time>2019-10-08T06:59:27Z</time>
      </trkpt>
      <trkpt lat="45.6797" lon="5.85027">
        <ele>389.39999389648</ele>
        <time>2019-10-08T06:59:33Z</time>
      </trkpt>
      <trkpt lat="45.67983" lon="5.85042">
        <ele>390.60000610352</ele>
        <time>2019-10-08T06:59:40Z</time>
      </trkpt>
      <trkpt lat="45.68003" lon="5.85056">
        <ele>392.20001220703</ele>
        <time>2019-10-08T06:59:51Z</time>
      </trkpt>
      <trkpt lat="45.68018" lon="5.85056">
        <ele>393.39999389648</ele>
        <time>2019-10-08T06:59:57Z</time>
      </trkpt>
      <trkpt lat="45.68038" lon="5.85051">
        <ele>394.60000610352</ele>
        <time>2019-10-08T07:00:07Z</time>
      </trkpt>
      <trkpt lat="45.68055" lon="5.85048">
        <ele>396</ele>
        <time>2019-10-08T07:00:14Z</time>
      </trkpt>
      <trkpt lat="45.68082" lon="5.85045">
        <ele>398.20001220703</ele>
        <time>2019-10-08T07:00:27Z</time>
      </trkpt>
      <trkpt lat="45.68098" lon="5.85049">
        <ele>399.20001220703</ele>
        <time>2019-10-08T07:00:34Z</time>
      </trkpt>
      <trkpt lat="45.68122" lon="5.8505">
        <ele>401</ele>
        <time>2019-10-08T07:00:45Z</time>
      </trkpt>
      <trkpt lat="45.68139" lon="5.85049">
        <ele>402.20001220703</ele>
        <time>2019-10-08T07:00:52Z</time>
      </trkpt>
      <trkpt lat="45.68167" lon="5.85049">
        <ele>404.20001220703</ele>
        <time>2019-10-08T07:01:04Z</time>
      </trkpt>
      <trkpt lat="45.68183" lon="5.85049">
        <ele>405.20001220703</ele>
        <time>2019-10-08T07:01:11Z</time>
      </trkpt>
      <trkpt lat="45.68208" lon="5.85048">
        <ele>407.60000610352</ele>
        <time>2019-10-08T07:01:23Z</time>
      </trkpt>
      <trkpt lat="45.68223" lon="5.85048">
        <ele>408.60000610352</ele>
        <time>2019-10-08T07:01:30Z</time>
      </trkpt>
      <trkpt lat="45.68249" lon="5.85048">
        <ele>410.79998779297</ele>
        <time>2019-10-08T07:01:43Z</time>
      </trkpt>
      <trkpt lat="45.68262" lon="5.85049">
        <ele>411.60000610352</ele>
        <time>2019-10-08T07:01:49Z</time>
      </trkpt>
      <trkpt lat="45.68276" lon="5.85054">
        <ele>413</ele>
        <time>2019-10-08T07:01:57Z</time>
      </trkpt>
      <trkpt lat="45.6829" lon="5.85058">
        <ele>414.39999389648</ele>
        <time>2019-10-08T07:02:06Z</time>
      </trkpt>
      <trkpt lat="45.68306" lon="5.85062">
        <ele>415.60000610352</ele>
        <time>2019-10-08T07:02:13Z</time>
      </trkpt>
      <trkpt lat="45.6833" lon="5.85065">
        <ele>417.39999389648</ele>
        <time>2019-10-08T07:02:26Z</time>
      </trkpt>
      <trkpt lat="45.68343" lon="5.85067">
        <ele>418.79998779297</ele>
        <time>2019-10-08T07:02:34Z</time>
      </trkpt>
      <trkpt lat="45.68361" lon="5.8507">
        <ele>420</ele>
        <time>2019-10-08T07:02:41Z</time>
      </trkpt>
      <trkpt lat="45.68376" lon="5.85072">
        <ele>421.20001220703</ele>
        <time>2019-10-08T07:02:50Z</time>
      </trkpt>
      <trkpt lat="45.68397" lon="5.85075">
        <ele>423</ele>
        <time>2019-10-08T07:03:01Z</time>
      </trkpt>
      <trkpt lat="45.6841" lon="5.85077">
        <ele>423.79998779297</ele>
        <time>2019-10-08T07:03:07Z</time>
      </trkpt>
      <trkpt lat="45.68428" lon="5.8508">
        <ele>425.20001220703</ele>
        <time>2019-10-08T07:03:16Z</time>
      </trkpt>
      <trkpt lat="45.68444" lon="5.85083">
        <ele>426.39999389648</ele>
        <time>2019-10-08T07:03:24Z</time>
      </trkpt>
      <trkpt lat="45.68465" lon="5.85091">
        <ele>427.79998779297</ele>
        <time>2019-10-08T07:03:33Z</time>
      </trkpt>
      <trkpt lat="45.68479" lon="5.85096">
        <ele>428.60000610352</ele>
        <time>2019-10-08T07:03:39Z</time>
      </trkpt>
      <trkpt lat="45.68501" lon="5.85104">
        <ele>430.20001220703</ele>
        <time>2019-10-08T07:03:49Z</time>
      </trkpt>
      <trkpt lat="45.68528" lon="5.85128">
        <ele>432.39999389648</ele>
        <time>2019-10-08T07:03:59Z</time>
      </trkpt>
      <trkpt lat="45.6854" lon="5.85136">
        <ele>433.20001220703</ele>
        <time>2019-10-08T07:04:04Z</time>
      </trkpt>
      <trkpt lat="45.68553" lon="5.85144">
        <ele>435</ele>
        <time>2019-10-08T07:04:15Z</time>
      </trkpt>
      <trkpt lat="45.68564" lon="5.85151">
        <ele>436.20001220703</ele>
        <time>2019-10-08T07:04:21Z</time>
      </trkpt>
      <trkpt lat="45.68583" lon="5.85178">
        <ele>437.60000610352</ele>
        <time>2019-10-08T07:04:31Z</time>
      </trkpt>
      <trkpt lat="45.68591" lon="5.85203">
        <ele>439</ele>
        <time>2019-10-08T07:04:37Z</time>
      </trkpt>
      <trkpt lat="45.68594" lon="5.85232">
        <ele>440.79998779297</ele>
        <time>2019-10-08T07:04:45Z</time>
      </trkpt>
      <trkpt lat="45.68596" lon="5.85248">
        <ele>441.79998779297</ele>
        <time>2019-10-08T07:04:51Z</time>
      </trkpt>
      <trkpt lat="45.68616" lon="5.85273">
        <ele>444.20001220703</ele>
        <time>2019-10-08T07:05:05Z</time>
      </trkpt>
      <trkpt lat="45.68628" lon="5.85277">
        <ele>445.39999389648</ele>
        <time>2019-10-08T07:05:12Z</time>
      </trkpt>
      <trkpt lat="45.68648" lon="5.85283">
        <ele>447</ele>
        <time>2019-10-08T07:05:24Z</time>
      </trkpt>
      <trkpt lat="45.68661" lon="5.85287">
        <ele>448.20001220703</ele>
        <time>2019-10-08T07:05:31Z</time>
      </trkpt>
      <trkpt lat="45.68672" lon="5.85291">
        <ele>449.60000610352</ele>
        <time>2019-10-08T07:05:38Z</time>
      </trkpt>
      <trkpt lat="45.687" lon="5.85299">
        <ele>452</ele>
        <time>2019-10-08T07:05:51Z</time>
      </trkpt>
      <trkpt lat="45.68717" lon="5.85301">
        <ele>453</ele>
        <time>2019-10-08T07:05:58Z</time>
      </trkpt>
      <trkpt lat="45.68734" lon="5.85292">
        <ele>454.60000610352</ele>
        <time>2019-10-08T07:06:06Z</time>
      </trkpt>
      <trkpt lat="45.68752" lon="5.85283">
        <ele>455.79998779297</ele>
        <time>2019-10-08T07:06:14Z</time>
      </trkpt>
      <trkpt lat="45.68774" lon="5.85283">
        <ele>457.39999389648</ele>
        <time>2019-10-08T07:06:23Z</time>
      </trkpt>
      <trkpt lat="45.68793" lon="5.85288">
        <ele>459</ele>
        <time>2019-10-08T07:06:31Z</time>
      </trkpt>
      <trkpt lat="45.68813" lon="5.85292">
        <ele>461.20001220703</ele>
        <time>2019-10-08T07:06:41Z</time>
      </trkpt>
      <trkpt lat="45.68817" lon="5.8529">
        <ele>461.60000610352</ele>
        <time>2019-10-08T07:06:43Z</time>
      </trkpt>
      <trkpt lat="45.68782" lon="5.85268">
        <ele>462.79998779297</ele>
        <time>2019-10-08T07:06:57Z</time>
      </trkpt>
      <trkpt lat="45.68766" lon="5.85266">
        <ele>463.79998779297</ele>
        <time>2019-10-08T07:07:04Z</time>
      </trkpt>
      <trkpt lat="45.6874" lon="5.85262">
        <ele>465.79998779297</ele>
        <time>2019-10-08T07:07:15Z</time>
      </trkpt>
      <trkpt lat="45.68731" lon="5.8526">
        <ele>466.79998779297</ele>
        <time>2019-10-08T07:07:20Z</time>
      </trkpt>
      <trkpt lat="45.68704" lon="5.85256">
        <ele>468.79998779297</ele>
        <time>2019-10-08T07:07:31Z</time>
      </trkpt>
      <trkpt lat="45.68688" lon="5.85253">
        <ele>470.20001220703</ele>
        <time>2019-10-08T07:07:38Z</time>
      </trkpt>
      <trkpt lat="45.68668" lon="5.8525">
        <ele>472</ele>
        <time>2019-10-08T07:07:46Z</time>
      </trkpt>
      <trkpt lat="45.68652" lon="5.85247">
        <ele>473.60000610352</ele>
        <time>2019-10-08T07:07:56Z</time>
      </trkpt>
      <trkpt lat="45.68652" lon="5.85247">
        <ele>473.79998779297</ele>
        <time>2019-10-08T07:07:58Z</time>
      </trkpt>
      <trkpt lat="45.68646" lon="5.85263">
        <ele>474.60000610352</ele>
        <time>2019-10-08T07:08:04Z</time>
      </trkpt>
      <trkpt lat="45.68645" lon="5.85239">
        <ele>474.60000610352</ele>
        <time>2019-10-08T07:08:11Z</time>
      </trkpt>
      <trkpt lat="45.68645" lon="5.85239">
        <ele>474.60000610352</ele>
        <time>2019-10-08T07:09:39Z</time>
      </trkpt>
      <trkpt lat="45.68642" lon="5.85244">
        <ele>474.60000610352</ele>
        <time>2019-10-08T07:09:44Z</time>
      </trkpt>
      <trkpt lat="45.68669" lon="5.8523">
        <ele>475</ele>
        <time>2019-10-08T07:09:56Z</time>
      </trkpt>
      <trkpt lat="45.68677" lon="5.8523">
        <ele>475.39999389648</ele>
        <time>2019-10-08T07:10:00Z</time>
      </trkpt>
      <trkpt lat="45.68692" lon="5.85227">
        <ele>476.79998779297</ele>
        <time>2019-10-08T07:10:09Z</time>
      </trkpt>
      <trkpt lat="45.68703" lon="5.85226">
        <ele>478.20001220703</ele>
        <time>2019-10-08T07:10:14Z</time>
      </trkpt>
      <trkpt lat="45.68715" lon="5.85224">
        <ele>479.60000610352</ele>
        <time>2019-10-08T07:10:22Z</time>
      </trkpt>
      <trkpt lat="45.68727" lon="5.85222">
        <ele>480.39999389648</ele>
        <time>2019-10-08T07:10:28Z</time>
      </trkpt>
      <trkpt lat="45.68739" lon="5.85221">
        <ele>481.60000610352</ele>
        <time>2019-10-08T07:10:34Z</time>
      </trkpt>
      <trkpt lat="45.6876" lon="5.85221">
        <ele>484</ele>
        <time>2019-10-08T07:10:44Z</time>
      </trkpt>
      <trkpt lat="45.68772" lon="5.85225">
        <ele>485</ele>
        <time>2019-10-08T07:10:50Z</time>
      </trkpt>
      <trkpt lat="45.68793" lon="5.85226">
        <ele>487</ele>
        <time>2019-10-08T07:11:02Z</time>
      </trkpt>
      <trkpt lat="45.68804" lon="5.85222">
        <ele>488.39999389648</ele>
        <time>2019-10-08T07:11:10Z</time>
      </trkpt>
      <trkpt lat="45.68826" lon="5.85213">
        <ele>490.39999389648</ele>
        <time>2019-10-08T07:11:23Z</time>
      </trkpt>
      <trkpt lat="45.68837" lon="5.85213">
        <ele>491.60000610352</ele>
        <time>2019-10-08T07:11:30Z</time>
      </trkpt>
      <trkpt lat="45.6886" lon="5.85213">
        <ele>493.39999389648</ele>
        <time>2019-10-08T07:11:40Z</time>
      </trkpt>
      <trkpt lat="45.68889" lon="5.85239">
        <ele>494.20001220703</ele>
        <time>2019-10-08T07:11:46Z</time>
      </trkpt>
      <trkpt lat="45.68893" lon="5.85261">
        <ele>495.39999389648</ele>
        <time>2019-10-08T07:11:53Z</time>
      </trkpt>
      <trkpt lat="45.68894" lon="5.85279">
        <ele>496.60000610352</ele>
        <time>2019-10-08T07:12:00Z</time>
      </trkpt>
      <trkpt lat="45.68895" lon="5.853">
        <ele>498</ele>
        <time>2019-10-08T07:12:08Z</time>
      </trkpt>
      <trkpt lat="45.68896" lon="5.85313">
        <ele>499.20001220703</ele>
        <time>2019-10-08T07:12:16Z</time>
      </trkpt>
      <trkpt lat="45.68896" lon="5.85328">
        <ele>500.20001220703</ele>
        <time>2019-10-08T07:12:22Z</time>
      </trkpt>
      <trkpt lat="45.68888" lon="5.85354">
        <ele>502</ele>
        <time>2019-10-08T07:12:32Z</time>
      </trkpt>
      <trkpt lat="45.68889" lon="5.85386">
        <ele>503</ele>
        <time>2019-10-08T07:12:40Z</time>
      </trkpt>
      <trkpt lat="45.6889" lon="5.85406">
        <ele>504.60000610352</ele>
        <time>2019-10-08T07:12:50Z</time>
      </trkpt>
      <trkpt lat="45.6889" lon="5.85406">
        <ele>506.39999389648</ele>
        <time>2019-10-08T07:13:20Z</time>
      </trkpt>
      <trkpt lat="45.68887" lon="5.8542">
        <ele>506.60000610352</ele>
        <time>2019-10-08T07:13:24Z</time>
      </trkpt>
      <trkpt lat="45.68885" lon="5.85431">
        <ele>506.60000610352</ele>
        <time>2019-10-08T07:13:28Z</time>
      </trkpt>
      <trkpt lat="45.68878" lon="5.85459">
        <ele>507.79998779297</ele>
        <time>2019-10-08T07:13:37Z</time>
      </trkpt>
      <trkpt lat="45.68877" lon="5.85466">
        <ele>508.20001220703</ele>
        <time>2019-10-08T07:13:39Z</time>
      </trkpt>
      <trkpt lat="45.68871" lon="5.85493">
        <ele>510</ele>
        <time>2019-10-08T07:13:47Z</time>
      </trkpt>
      <trkpt lat="45.68872" lon="5.85508">
        <ele>511.79998779297</ele>
        <time>2019-10-08T07:13:55Z</time>
      </trkpt>
      <trkpt lat="45.68884" lon="5.85499">
        <ele>513</ele>
        <time>2019-10-08T07:14:04Z</time>
      </trkpt>
      <trkpt lat="45.68886" lon="5.85473">
        <ele>513</ele>
        <time>2019-10-08T07:14:10Z</time>
      </trkpt>
      <trkpt lat="45.68892" lon="5.85448">
        <ele>513.59997558594</ele>
        <time>2019-10-08T07:14:16Z</time>
      </trkpt>
      <trkpt lat="45.68903" lon="5.85413">
        <ele>516.20001220703</ele>
        <time>2019-10-08T07:14:28Z</time>
      </trkpt>
      <trkpt lat="45.68909" lon="5.85387">
        <ele>518.59997558594</ele>
        <time>2019-10-08T07:14:39Z</time>
      </trkpt>
      <trkpt lat="45.68916" lon="5.85355">
        <ele>520.20001220703</ele>
        <time>2019-10-08T07:14:48Z</time>
      </trkpt>
      <trkpt lat="45.68926" lon="5.85333">
        <ele>521.79998779297</ele>
        <time>2019-10-08T07:14:56Z</time>
      </trkpt>
      <trkpt lat="45.68935" lon="5.85312">
        <ele>522.79998779297</ele>
        <time>2019-10-08T07:15:03Z</time>
      </trkpt>
      <trkpt lat="45.68938" lon="5.8529">
        <ele>523.79998779297</ele>
        <time>2019-10-08T07:15:09Z</time>
      </trkpt>
      <trkpt lat="45.68938" lon="5.85261">
        <ele>526</ele>
        <time>2019-10-08T07:15:20Z</time>
      </trkpt>
      <trkpt lat="45.68939" lon="5.85234">
        <ele>526.79998779297</ele>
        <time>2019-10-08T07:15:23Z</time>
      </trkpt>
      <trkpt lat="45.68949" lon="5.85233">
        <ele>528.20001220703</ele>
        <time>2019-10-08T07:15:34Z</time>
      </trkpt>
      <trkpt lat="45.6895" lon="5.85269">
        <ele>529.20001220703</ele>
        <time>2019-10-08T07:15:42Z</time>
      </trkpt>
      <trkpt lat="45.68954" lon="5.85305">
        <ele>531.40002441406</ele>
        <time>2019-10-08T07:15:55Z</time>
      </trkpt>
      <trkpt lat="45.6895" lon="5.85317">
        <ele>532.20001220703</ele>
        <time>2019-10-08T07:16:01Z</time>
      </trkpt>
      <trkpt lat="45.68938" lon="5.8535">
        <ele>534.59997558594</ele>
        <time>2019-10-08T07:16:13Z</time>
      </trkpt>
      <trkpt lat="45.68937" lon="5.85367">
        <ele>535.79998779297</ele>
        <time>2019-10-08T07:16:20Z</time>
      </trkpt>
      <trkpt lat="45.68936" lon="5.85383">
        <ele>536.79998779297</ele>
        <time>2019-10-08T07:16:26Z</time>
      </trkpt>
      <trkpt lat="45.68933" lon="5.85418">
        <ele>538.59997558594</ele>
        <time>2019-10-08T07:16:36Z</time>
      </trkpt>
      <trkpt lat="45.68927" lon="5.85439">
        <ele>539.59997558594</ele>
        <time>2019-10-08T07:16:42Z</time>
      </trkpt>
      <trkpt lat="45.68921" lon="5.85478">
        <ele>542.40002441406</ele>
        <time>2019-10-08T07:16:56Z</time>
      </trkpt>
      <trkpt lat="45.68929" lon="5.85496">
        <ele>543.59997558594</ele>
        <time>2019-10-08T07:17:02Z</time>
      </trkpt>
      <trkpt lat="45.68941" lon="5.85503">
        <ele>544.79998779297</ele>
        <time>2019-10-08T07:17:08Z</time>
      </trkpt>
      <trkpt lat="45.68959" lon="5.85513">
        <ele>546.59997558594</ele>
        <time>2019-10-08T07:17:17Z</time>
      </trkpt>
      <trkpt lat="45.68977" lon="5.8552">
        <ele>549</ele>
        <time>2019-10-08T07:17:27Z</time>
      </trkpt>
      <trkpt lat="45.68991" lon="5.85518">
        <ele>550.40002441406</ele>
        <time>2019-10-08T07:17:34Z</time>
      </trkpt>
      <trkpt lat="45.69018" lon="5.8554">
        <ele>552.40002441406</ele>
        <time>2019-10-08T07:17:46Z</time>
      </trkpt>
      <trkpt lat="45.69026" lon="5.85553">
        <ele>553.79998779297</ele>
        <time>2019-10-08T07:17:52Z</time>
      </trkpt>
      <trkpt lat="45.69044" lon="5.85563">
        <ele>555.79998779297</ele>
        <time>2019-10-08T07:18:01Z</time>
      </trkpt>
      <trkpt lat="45.69068" lon="5.85565">
        <ele>557.79998779297</ele>
        <time>2019-10-08T07:18:11Z</time>
      </trkpt>
      <trkpt lat="45.69086" lon="5.85567">
        <ele>559.59997558594</ele>
        <time>2019-10-08T07:18:20Z</time>
      </trkpt>
      <trkpt lat="45.69114" lon="5.85569">
        <ele>562.20001220703</ele>
        <time>2019-10-08T07:18:34Z</time>
      </trkpt>
      <trkpt lat="45.69123" lon="5.85569">
        <ele>563</ele>
        <time>2019-10-08T07:18:39Z</time>
      </trkpt>
      <trkpt lat="45.69148" lon="5.85561">
        <ele>565</ele>
        <time>2019-10-08T07:18:50Z</time>
      </trkpt>
      <trkpt lat="45.6916" lon="5.85549">
        <ele>566.20001220703</ele>
        <time>2019-10-08T07:18:56Z</time>
      </trkpt>
      <trkpt lat="45.69176" lon="5.85524">
        <ele>568.40002441406</ele>
        <time>2019-10-08T07:19:08Z</time>
      </trkpt>
      <trkpt lat="45.69185" lon="5.85515">
        <ele>570</ele>
        <time>2019-10-08T07:19:15Z</time>
      </trkpt>
      <trkpt lat="45.69211" lon="5.85509">
        <ele>571.40002441406</ele>
        <time>2019-10-08T07:19:23Z</time>
      </trkpt>
      <trkpt lat="45.6923" lon="5.85519">
        <ele>573.40002441406</ele>
        <time>2019-10-08T07:19:32Z</time>
      </trkpt>
      <trkpt lat="45.69246" lon="5.8553">
        <ele>575.20001220703</ele>
        <time>2019-10-08T07:19:41Z</time>
      </trkpt>
      <trkpt lat="45.69261" lon="5.8554">
        <ele>576.59997558594</ele>
        <time>2019-10-08T07:19:48Z</time>
      </trkpt>
      <trkpt lat="45.69288" lon="5.85562">
        <ele>579</ele>
        <time>2019-10-08T07:20:00Z</time>
      </trkpt>
      <trkpt lat="45.69303" lon="5.85577">
        <ele>580.40002441406</ele>
        <time>2019-10-08T07:20:08Z</time>
      </trkpt>
      <trkpt lat="45.69315" lon="5.85586">
        <ele>581.59997558594</ele>
        <time>2019-10-08T07:20:15Z</time>
      </trkpt>
      <trkpt lat="45.69313" lon="5.85562">
        <ele>583.20001220703</ele>
        <time>2019-10-08T07:20:22Z</time>
      </trkpt>
      <trkpt lat="45.69301" lon="5.85547">
        <ele>583.59997558594</ele>
        <time>2019-10-08T07:20:28Z</time>
      </trkpt>
      <trkpt lat="45.6928" lon="5.85526">
        <ele>585.59997558594</ele>
        <time>2019-10-08T07:20:40Z</time>
      </trkpt>
      <trkpt lat="45.69266" lon="5.85515">
        <ele>586.59997558594</ele>
        <time>2019-10-08T07:20:47Z</time>
      </trkpt>
      <trkpt lat="45.69253" lon="5.85498">
        <ele>588.40002441406</ele>
        <time>2019-10-08T07:20:56Z</time>
      </trkpt>
      <trkpt lat="45.69249" lon="5.85489">
        <ele>589.79998779297</ele>
        <time>2019-10-08T07:21:01Z</time>
      </trkpt>
      <trkpt lat="45.69242" lon="5.85468">
        <ele>592</ele>
        <time>2019-10-08T07:21:12Z</time>
      </trkpt>
      <trkpt lat="45.69227" lon="5.85463">
        <ele>593.40002441406</ele>
        <time>2019-10-08T07:21:52Z</time>
      </trkpt>
      <trkpt lat="45.69232" lon="5.85437">
        <ele>593.59997558594</ele>
        <time>2019-10-08T07:21:59Z</time>
      </trkpt>
      <trkpt lat="45.69225" lon="5.85415">
        <ele>594.79998779297</ele>
        <time>2019-10-08T07:22:07Z</time>
      </trkpt>
      <trkpt lat="45.69217" lon="5.85388">
        <ele>597</ele>
        <time>2019-10-08T07:22:18Z</time>
      </trkpt>
      <trkpt lat="45.69201" lon="5.85367">
        <ele>597.59997558594</ele>
        <time>2019-10-08T07:22:22Z</time>
      </trkpt>
      <trkpt lat="45.69197" lon="5.85364">
        <ele>598.79998779297</ele>
        <time>2019-10-08T07:22:28Z</time>
      </trkpt>
      <trkpt lat="45.69183" lon="5.85357">
        <ele>600.20001220703</ele>
        <time>2019-10-08T07:22:36Z</time>
      </trkpt>
      <trkpt lat="45.69163" lon="5.85335">
        <ele>602</ele>
        <time>2019-10-08T07:22:46Z</time>
      </trkpt>
      <trkpt lat="45.69154" lon="5.85318">
        <ele>605.40002441406</ele>
        <time>2019-10-08T07:23:00Z</time>
      </trkpt>
      <trkpt lat="45.69148" lon="5.85268">
        <ele>606.20001220703</ele>
        <time>2019-10-08T07:23:07Z</time>
      </trkpt>
      <trkpt lat="45.69126" lon="5.85243">
        <ele>608.59997558594</ele>
        <time>2019-10-08T07:23:21Z</time>
      </trkpt>
      <trkpt lat="45.69119" lon="5.85228">
        <ele>610.40002441406</ele>
        <time>2019-10-08T07:23:30Z</time>
      </trkpt>
      <trkpt lat="45.69119" lon="5.85206">
        <ele>611.79998779297</ele>
        <time>2019-10-08T07:23:37Z</time>
      </trkpt>
      <trkpt lat="45.6913" lon="5.85191">
        <ele>612.79998779297</ele>
        <time>2019-10-08T07:23:44Z</time>
      </trkpt>
      <trkpt lat="45.69144" lon="5.85175">
        <ele>615.20001220703</ele>
        <time>2019-10-08T07:23:55Z</time>
      </trkpt>
      <trkpt lat="45.69147" lon="5.85171">
        <ele>615.20001220703</ele>
        <time>2019-10-08T07:23:57Z</time>
      </trkpt>
      <trkpt lat="45.69165" lon="5.85137">
        <ele>617.40002441406</ele>
        <time>2019-10-08T07:24:09Z</time>
      </trkpt>
      <trkpt lat="45.69176" lon="5.85109">
        <ele>619.59997558594</ele>
        <time>2019-10-08T07:24:20Z</time>
      </trkpt>
      <trkpt lat="45.69185" lon="5.85077">
        <ele>621.40002441406</ele>
        <time>2019-10-08T07:24:32Z</time>
      </trkpt>
      <trkpt lat="45.69186" lon="5.8506">
        <ele>622.59997558594</ele>
        <time>2019-10-08T07:24:38Z</time>
      </trkpt>
      <trkpt lat="45.69184" lon="5.85037">
        <ele>624.20001220703</ele>
        <time>2019-10-08T07:24:46Z</time>
      </trkpt>
      <trkpt lat="45.69189" lon="5.85014">
        <ele>626</ele>
        <time>2019-10-08T07:24:54Z</time>
      </trkpt>
      <trkpt lat="45.69197" lon="5.84995">
        <ele>627.20001220703</ele>
        <time>2019-10-08T07:25:02Z</time>
      </trkpt>
      <trkpt lat="45.69203" lon="5.8496">
        <ele>629.20001220703</ele>
        <time>2019-10-08T07:25:12Z</time>
      </trkpt>
      <trkpt lat="45.692" lon="5.84935">
        <ele>630.79998779297</ele>
        <time>2019-10-08T07:25:21Z</time>
      </trkpt>
      <trkpt lat="45.69197" lon="5.84925">
        <ele>632.40002441406</ele>
        <time>2019-10-08T07:25:29Z</time>
      </trkpt>
      <trkpt lat="45.69199" lon="5.84909">
        <ele>633.20001220703</ele>
        <time>2019-10-08T07:25:34Z</time>
      </trkpt>
      <trkpt lat="45.6921" lon="5.84878">
        <ele>635.79998779297</ele>
        <time>2019-10-08T07:25:44Z</time>
      </trkpt>
      <trkpt lat="45.6922" lon="5.84859">
        <ele>637.59997558594</ele>
        <time>2019-10-08T07:25:53Z</time>
      </trkpt>
      <trkpt lat="45.69231" lon="5.84839">
        <ele>639</ele>
        <time>2019-10-08T07:26:01Z</time>
      </trkpt>
      <trkpt lat="45.69239" lon="5.84824">
        <ele>640.79998779297</ele>
        <time>2019-10-08T07:26:08Z</time>
      </trkpt>
      <trkpt lat="45.69249" lon="5.84807">
        <ele>642</ele>
        <time>2019-10-08T07:26:17Z</time>
      </trkpt>
      <trkpt lat="45.69256" lon="5.84794">
        <ele>643.59997558594</ele>
        <time>2019-10-08T07:26:24Z</time>
      </trkpt>
      <trkpt lat="45.69267" lon="5.84765">
        <ele>645.59997558594</ele>
        <time>2019-10-08T07:26:34Z</time>
      </trkpt>
      <trkpt lat="45.69268" lon="5.84762">
        <ele>647.59997558594</ele>
        <time>2019-10-08T07:27:07Z</time>
      </trkpt>
      <trkpt lat="45.69275" lon="5.8474">
        <ele>647.79998779297</ele>
        <time>2019-10-08T07:27:11Z</time>
      </trkpt>
      <trkpt lat="45.69284" lon="5.84716">
        <ele>647.79998779297</ele>
        <time>2019-10-08T07:27:20Z</time>
      </trkpt>
      <trkpt lat="45.69295" lon="5.8469">
        <ele>647.79998779297</ele>
        <time>2019-10-08T07:27:26Z</time>
      </trkpt>
      <trkpt lat="45.69316" lon="5.84649">
        <ele>647.79998779297</ele>
        <time>2019-10-08T07:27:32Z</time>
      </trkpt>
      <trkpt lat="45.69325" lon="5.84632">
        <ele>647.59997558594</ele>
        <time>2019-10-08T07:27:34Z</time>
      </trkpt>
      <trkpt lat="45.69349" lon="5.84587">
        <ele>646.59997558594</ele>
        <time>2019-10-08T07:27:38Z</time>
      </trkpt>
      <trkpt lat="45.69367" lon="5.84552">
        <ele>645</ele>
        <time>2019-10-08T07:27:41Z</time>
      </trkpt>
      <trkpt lat="45.69379" lon="5.84524">
        <ele>642</ele>
        <time>2019-10-08T07:27:45Z</time>
      </trkpt>
      <trkpt lat="45.69377" lon="5.84502">
        <ele>639.20001220703</ele>
        <time>2019-10-08T07:27:48Z</time>
      </trkpt>
      <trkpt lat="45.69367" lon="5.84492">
        <ele>637</ele>
        <time>2019-10-08T07:27:52Z</time>
      </trkpt>
      <trkpt lat="45.69353" lon="5.84491">
        <ele>635.79998779297</ele>
        <time>2019-10-08T07:27:54Z</time>
      </trkpt>
      <trkpt lat="45.69335" lon="5.84476">
        <ele>635.20001220703</ele>
        <time>2019-10-08T07:27:56Z</time>
      </trkpt>
      <trkpt lat="45.69336" lon="5.84427">
        <ele>634</ele>
        <time>2019-10-08T07:27:59Z</time>
      </trkpt>
      <trkpt lat="45.69339" lon="5.84379">
        <ele>631.20001220703</ele>
        <time>2019-10-08T07:28:03Z</time>
      </trkpt>
      <trkpt lat="45.69335" lon="5.84329">
        <ele>627.79998779297</ele>
        <time>2019-10-08T07:28:07Z</time>
      </trkpt>
      <trkpt lat="45.69329" lon="5.84312">
        <ele>626</ele>
        <time>2019-10-08T07:28:09Z</time>
      </trkpt>
      <trkpt lat="45.69331" lon="5.84281">
        <ele>623.40002441406</ele>
        <time>2019-10-08T07:28:13Z</time>
      </trkpt>
      <trkpt lat="45.69325" lon="5.84269">
        <ele>621</ele>
        <time>2019-10-08T07:28:16Z</time>
      </trkpt>
      <trkpt lat="45.69345" lon="5.84316">
        <ele>617.79998779297</ele>
        <time>2019-10-08T07:28:22Z</time>
      </trkpt>
      <trkpt lat="45.69356" lon="5.84342">
        <ele>616.79998779297</ele>
        <time>2019-10-08T07:28:25Z</time>
      </trkpt>
      <trkpt lat="45.69379" lon="5.84404">
        <ele>614.40002441406</ele>
        <time>2019-10-08T07:28:31Z</time>
      </trkpt>
      <trkpt lat="45.6939" lon="5.8441">
        <ele>613.20001220703</ele>
        <time>2019-10-08T07:28:33Z</time>
      </trkpt>
      <trkpt lat="45.69439" lon="5.84408">
        <ele>609.79998779297</ele>
        <time>2019-10-08T07:28:39Z</time>
      </trkpt>
      <trkpt lat="45.69455" lon="5.84427">
        <ele>608.79998779297</ele>
        <time>2019-10-08T07:28:41Z</time>
      </trkpt>
      <trkpt lat="45.69473" lon="5.8445">
        <ele>606.79998779297</ele>
        <time>2019-10-08T07:28:44Z</time>
      </trkpt>
      <trkpt lat="45.6949" lon="5.84452">
        <ele>605.40002441406</ele>
        <time>2019-10-08T07:28:46Z</time>
      </trkpt>
      <trkpt lat="45.6952" lon="5.84454">
        <ele>603.59997558594</ele>
        <time>2019-10-08T07:28:49Z</time>
      </trkpt>
      <trkpt lat="45.69571" lon="5.84457">
        <ele>599.79998779297</ele>
        <time>2019-10-08T07:28:54Z</time>
      </trkpt>
      <trkpt lat="45.6959" lon="5.84447">
        <ele>598.20001220703</ele>
        <time>2019-10-08T07:28:56Z</time>
      </trkpt>
      <trkpt lat="45.69615" lon="5.8442">
        <ele>595.79998779297</ele>
        <time>2019-10-08T07:28:59Z</time>
      </trkpt>
      <trkpt lat="45.69632" lon="5.8441">
        <ele>594.79998779297</ele>
        <time>2019-10-08T07:29:01Z</time>
      </trkpt>
      <trkpt lat="45.6966" lon="5.84416">
        <ele>591.79998779297</ele>
        <time>2019-10-08T07:29:04Z</time>
      </trkpt>
      <trkpt lat="45.6969" lon="5.84423">
        <ele>589.40002441406</ele>
        <time>2019-10-08T07:29:07Z</time>
      </trkpt>
      <trkpt lat="45.6974" lon="5.84421">
        <ele>586.20001220703</ele>
        <time>2019-10-08T07:29:12Z</time>
      </trkpt>
      <trkpt lat="45.69772" lon="5.84382">
        <ele>583</ele>
        <time>2019-10-08T07:29:16Z</time>
      </trkpt>
      <trkpt lat="45.69807" lon="5.84332">
        <ele>578.79998779297</ele>
        <time>2019-10-08T07:29:21Z</time>
      </trkpt>
      <trkpt lat="45.69807" lon="5.84303">
        <ele>577.40002441406</ele>
        <time>2019-10-08T07:29:23Z</time>
      </trkpt>
      <trkpt lat="45.69771" lon="5.8425">
        <ele>573.79998779297</ele>
        <time>2019-10-08T07:29:28Z</time>
      </trkpt>
      <trkpt lat="45.69737" lon="5.84211">
        <ele>570.59997558594</ele>
        <time>2019-10-08T07:29:36Z</time>
      </trkpt>
      <trkpt lat="45.69731" lon="5.84205">
        <ele>567.79998779297</ele>
        <time>2019-10-08T07:30:17Z</time>
      </trkpt>
      <trkpt lat="45.69716" lon="5.84187">
        <ele>567.79998779297</ele>
        <time>2019-10-08T07:30:23Z</time>
      </trkpt>
      <trkpt lat="45.69706" lon="5.84177">
        <ele>567.79998779297</ele>
        <time>2019-10-08T07:30:26Z</time>
      </trkpt>
      <trkpt lat="45.69689" lon="5.84153">
        <ele>567.20001220703</ele>
        <time>2019-10-08T07:30:56Z</time>
      </trkpt>
      <trkpt lat="45.69678" lon="5.84124">
        <ele>567.20001220703</ele>
        <time>2019-10-08T07:31:01Z</time>
      </trkpt>
      <trkpt lat="45.69658" lon="5.84066">
        <ele>565.79998779297</ele>
        <time>2019-10-08T07:31:07Z</time>
      </trkpt>
      <trkpt lat="45.69644" lon="5.84038">
        <ele>565</ele>
        <time>2019-10-08T07:31:10Z</time>
      </trkpt>
      <trkpt lat="45.69633" lon="5.84">
        <ele>562.79998779297</ele>
        <time>2019-10-08T07:31:14Z</time>
      </trkpt>
      <trkpt lat="45.69626" lon="5.83942">
        <ele>560.20001220703</ele>
        <time>2019-10-08T07:31:19Z</time>
      </trkpt>
      <trkpt lat="45.69621" lon="5.83897">
        <ele>557.59997558594</ele>
        <time>2019-10-08T07:31:23Z</time>
      </trkpt>
      <trkpt lat="45.69616" lon="5.83879">
        <ele>555.40002441406</ele>
        <time>2019-10-08T07:31:26Z</time>
      </trkpt>
      <trkpt lat="45.69615" lon="5.83874">
        <ele>547.59997558594</ele>
        <time>2019-10-08T07:32:30Z</time>
      </trkpt>
      <trkpt lat="45.69613" lon="5.83866">
        <ele>547.40002441406</ele>
        <time>2019-10-08T07:32:33Z</time>
      </trkpt>
      <trkpt lat="45.69607" lon="5.83854">
        <ele>547.20001220703</ele>
        <time>2019-10-08T07:32:36Z</time>
      </trkpt>
      <trkpt lat="45.69589" lon="5.83828">
        <ele>547</ele>
        <time>2019-10-08T07:32:40Z</time>
      </trkpt>
      <trkpt lat="45.69556" lon="5.83799">
        <ele>546</ele>
        <time>2019-10-08T07:32:43Z</time>
      </trkpt>
      <trkpt lat="45.69487" lon="5.83801">
        <ele>542.79998779297</ele>
        <time>2019-10-08T07:32:49Z</time>
      </trkpt>
      <trkpt lat="45.69455" lon="5.83802">
        <ele>540.79998779297</ele>
        <time>2019-10-08T07:32:52Z</time>
      </trkpt>
      <trkpt lat="45.69423" lon="5.83797">
        <ele>538.40002441406</ele>
        <time>2019-10-08T07:32:55Z</time>
      </trkpt>
      <trkpt lat="45.6939" lon="5.83792">
        <ele>535.79998779297</ele>
        <time>2019-10-08T07:32:59Z</time>
      </trkpt>
      <trkpt lat="45.6936" lon="5.83773">
        <ele>533</ele>
        <time>2019-10-08T07:33:02Z</time>
      </trkpt>
      <trkpt lat="45.69351" lon="5.83767">
        <ele>529.40002441406</ele>
        <time>2019-10-08T07:33:06Z</time>
      </trkpt>
      <trkpt lat="45.69319" lon="5.83712">
        <ele>525.40002441406</ele>
        <time>2019-10-08T07:33:10Z</time>
      </trkpt>
      <trkpt lat="45.69302" lon="5.83669">
        <ele>522.79998779297</ele>
        <time>2019-10-08T07:33:13Z</time>
      </trkpt>
      <trkpt lat="45.69276" lon="5.83627">
        <ele>519.40002441406</ele>
        <time>2019-10-08T07:33:17Z</time>
      </trkpt>
      <trkpt lat="45.69253" lon="5.83623">
        <ele>517.59997558594</ele>
        <time>2019-10-08T07:33:19Z</time>
      </trkpt>
      <trkpt lat="45.69223" lon="5.83603">
        <ele>515</ele>
        <time>2019-10-08T07:33:23Z</time>
      </trkpt>
      <trkpt lat="45.69179" lon="5.83595">
        <ele>510.39999389648</ele>
        <time>2019-10-08T07:33:28Z</time>
      </trkpt>
      <trkpt lat="45.69158" lon="5.83593">
        <ele>509</ele>
        <time>2019-10-08T07:33:30Z</time>
      </trkpt>
      <trkpt lat="45.69121" lon="5.83588">
        <ele>505.79998779297</ele>
        <time>2019-10-08T07:33:34Z</time>
      </trkpt>
      <trkpt lat="45.69093" lon="5.83583">
        <ele>503.39999389648</ele>
        <time>2019-10-08T07:33:37Z</time>
      </trkpt>
      <trkpt lat="45.69057" lon="5.83567">
        <ele>500.20001220703</ele>
        <time>2019-10-08T07:33:41Z</time>
      </trkpt>
      <trkpt lat="45.69018" lon="5.83546">
        <ele>497.39999389648</ele>
        <time>2019-10-08T07:33:45Z</time>
      </trkpt>
      <trkpt lat="45.68963" lon="5.83506">
        <ele>493.20001220703</ele>
        <time>2019-10-08T07:33:51Z</time>
      </trkpt>
      <trkpt lat="45.68929" lon="5.83474">
        <ele>490</ele>
        <time>2019-10-08T07:33:55Z</time>
      </trkpt>
      <trkpt lat="45.68898" lon="5.83437">
        <ele>485.79998779297</ele>
        <time>2019-10-08T07:33:59Z</time>
      </trkpt>
      <trkpt lat="45.68885" lon="5.83414">
        <ele>484.20001220703</ele>
        <time>2019-10-08T07:34:01Z</time>
      </trkpt>
      <trkpt lat="45.68874" lon="5.83384">
        <ele>481.60000610352</ele>
        <time>2019-10-08T07:34:04Z</time>
      </trkpt>
      <trkpt lat="45.68864" lon="5.83355">
        <ele>478.39999389648</ele>
        <time>2019-10-08T07:34:07Z</time>
      </trkpt>
      <trkpt lat="45.68839" lon="5.83333">
        <ele>475.79998779297</ele>
        <time>2019-10-08T07:34:10Z</time>
      </trkpt>
      <trkpt lat="45.6882" lon="5.83298">
        <ele>473.79998779297</ele>
        <time>2019-10-08T07:34:13Z</time>
      </trkpt>
      <trkpt lat="45.68809" lon="5.83274">
        <ele>472.39999389648</ele>
        <time>2019-10-08T07:34:15Z</time>
      </trkpt>
      <trkpt lat="45.68787" lon="5.83227">
        <ele>469.60000610352</ele>
        <time>2019-10-08T07:34:19Z</time>
      </trkpt>
      <trkpt lat="45.68766" lon="5.83181">
        <ele>466.39999389648</ele>
        <time>2019-10-08T07:34:23Z</time>
      </trkpt>
      <trkpt lat="45.68741" lon="5.83127">
        <ele>462</ele>
        <time>2019-10-08T07:34:28Z</time>
      </trkpt>
      <trkpt lat="45.6873" lon="5.83082">
        <ele>459.39999389648</ele>
        <time>2019-10-08T07:34:31Z</time>
      </trkpt>
      <trkpt lat="45.6872" lon="5.83033">
        <ele>455.20001220703</ele>
        <time>2019-10-08T07:34:35Z</time>
      </trkpt>
      <trkpt lat="45.68693" lon="5.8298">
        <ele>452</ele>
        <time>2019-10-08T07:34:40Z</time>
      </trkpt>
      <trkpt lat="45.68668" lon="5.82907">
        <ele>447.79998779297</ele>
        <time>2019-10-08T07:34:46Z</time>
      </trkpt>
      <trkpt lat="45.68667" lon="5.82883">
        <ele>445.39999389648</ele>
        <time>2019-10-08T07:34:48Z</time>
      </trkpt>
      <trkpt lat="45.68674" lon="5.82845">
        <ele>442.79998779297</ele>
        <time>2019-10-08T07:34:51Z</time>
      </trkpt>
      <trkpt lat="45.68682" lon="5.82823">
        <ele>441.20001220703</ele>
        <time>2019-10-08T07:34:53Z</time>
      </trkpt>
      <trkpt lat="45.68706" lon="5.82784">
        <ele>435.60000610352</ele>
        <time>2019-10-08T07:35:00Z</time>
      </trkpt>
      <trkpt lat="45.68725" lon="5.82742">
        <ele>432.60000610352</ele>
        <time>2019-10-08T07:35:05Z</time>
      </trkpt>
      <trkpt lat="45.68724" lon="5.8272">
        <ele>431.20001220703</ele>
        <time>2019-10-08T07:35:07Z</time>
      </trkpt>
      <trkpt lat="45.68714" lon="5.82653">
        <ele>429</ele>
        <time>2019-10-08T07:35:12Z</time>
      </trkpt>
      <trkpt lat="45.68711" lon="5.82632">
        <ele>428</ele>
        <time>2019-10-08T07:35:14Z</time>
      </trkpt>
      <trkpt lat="45.68705" lon="5.8259">
        <ele>426</ele>
        <time>2019-10-08T07:35:17Z</time>
      </trkpt>
      <trkpt lat="45.687" lon="5.82559">
        <ele>424.39999389648</ele>
        <time>2019-10-08T07:35:19Z</time>
      </trkpt>
      <trkpt lat="45.68672" lon="5.8251">
        <ele>420.60000610352</ele>
        <time>2019-10-08T07:35:23Z</time>
      </trkpt>
      <trkpt lat="45.68658" lon="5.82467">
        <ele>418.20001220703</ele>
        <time>2019-10-08T07:35:26Z</time>
      </trkpt>
      <trkpt lat="45.68647" lon="5.82423">
        <ele>415.39999389648</ele>
        <time>2019-10-08T07:35:29Z</time>
      </trkpt>
      <trkpt lat="45.68629" lon="5.82344">
        <ele>411.39999389648</ele>
        <time>2019-10-08T07:35:34Z</time>
      </trkpt>
      <trkpt lat="45.68616" lon="5.82282">
        <ele>407.20001220703</ele>
        <time>2019-10-08T07:35:38Z</time>
      </trkpt>
      <trkpt lat="45.68606" lon="5.8225">
        <ele>405</ele>
        <time>2019-10-08T07:35:40Z</time>
      </trkpt>
      <trkpt lat="45.68589" lon="5.82193">
        <ele>401</ele>
        <time>2019-10-08T07:35:44Z</time>
      </trkpt>
      <trkpt lat="45.68584" lon="5.8215">
        <ele>397.60000610352</ele>
        <time>2019-10-08T07:35:47Z</time>
      </trkpt>
      <trkpt lat="45.68583" lon="5.82109">
        <ele>394</ele>
        <time>2019-10-08T07:35:50Z</time>
      </trkpt>
      <trkpt lat="45.68582" lon="5.82068">
        <ele>391.39999389648</ele>
        <time>2019-10-08T07:35:53Z</time>
      </trkpt>
      <trkpt lat="45.6858" lon="5.82016">
        <ele>388.39999389648</ele>
        <time>2019-10-08T07:35:57Z</time>
      </trkpt>
      <trkpt lat="45.68579" lon="5.81983">
        <ele>385</ele>
        <time>2019-10-08T07:36:01Z</time>
      </trkpt>
      <trkpt lat="45.68594" lon="5.81986">
        <ele>381.39999389648</ele>
        <time>2019-10-08T07:36:05Z</time>
      </trkpt>
      <trkpt lat="45.68603" lon="5.82014">
        <ele>378.60000610352</ele>
        <time>2019-10-08T07:36:09Z</time>
      </trkpt>
      <trkpt lat="45.68617" lon="5.8205">
        <ele>377.20001220703</ele>
        <time>2019-10-08T07:36:13Z</time>
      </trkpt>
      <trkpt lat="45.68634" lon="5.82072">
        <ele>376.39999389648</ele>
        <time>2019-10-08T07:36:16Z</time>
      </trkpt>
      <trkpt lat="45.6865" lon="5.82082">
        <ele>375.20001220703</ele>
        <time>2019-10-08T07:36:18Z</time>
      </trkpt>
      <trkpt lat="45.68713" lon="5.82078">
        <ele>371.79998779297</ele>
        <time>2019-10-08T07:36:25Z</time>
      </trkpt>
      <trkpt lat="45.6874" lon="5.82084">
        <ele>369</ele>
        <time>2019-10-08T07:36:28Z</time>
      </trkpt>
      <trkpt lat="45.68773" lon="5.82066">
        <ele>366</ele>
        <time>2019-10-08T07:36:32Z</time>
      </trkpt>
      <trkpt lat="45.68806" lon="5.82032">
        <ele>362.39999389648</ele>
        <time>2019-10-08T07:36:36Z</time>
      </trkpt>
      <trkpt lat="45.68832" lon="5.82007">
        <ele>360</ele>
        <time>2019-10-08T07:36:39Z</time>
      </trkpt>
      <trkpt lat="45.68866" lon="5.81975">
        <ele>357</ele>
        <time>2019-10-08T07:36:43Z</time>
      </trkpt>
      <trkpt lat="45.68889" lon="5.81957">
        <ele>355</ele>
        <time>2019-10-08T07:36:46Z</time>
      </trkpt>
      <trkpt lat="45.6892" lon="5.81951">
        <ele>351.60000610352</ele>
        <time>2019-10-08T07:36:50Z</time>
      </trkpt>
      <trkpt lat="45.68955" lon="5.81951">
        <ele>347.60000610352</ele>
        <time>2019-10-08T07:36:55Z</time>
      </trkpt>
      <trkpt lat="45.68993" lon="5.81962">
        <ele>344.20001220703</ele>
        <time>2019-10-08T07:37:01Z</time>
      </trkpt>
      <trkpt lat="45.69013" lon="5.81978">
        <ele>341</ele>
        <time>2019-10-08T07:37:10Z</time>
      </trkpt>
      <trkpt lat="45.6902" lon="5.81977">
        <ele>340.60000610352</ele>
        <time>2019-10-08T07:37:18Z</time>
      </trkpt>
      <trkpt lat="45.69037" lon="5.81979">
        <ele>340.60000610352</ele>
        <time>2019-10-08T07:37:22Z</time>
      </trkpt>
      <trkpt lat="45.69048" lon="5.81944">
        <ele>340.20001220703</ele>
        <time>2019-10-08T07:37:27Z</time>
      </trkpt>
      <trkpt lat="45.69055" lon="5.81912">
        <ele>339.79998779297</ele>
        <time>2019-10-08T07:37:31Z</time>
      </trkpt>
      <trkpt lat="45.69063" lon="5.81835">
        <ele>337.20001220703</ele>
        <time>2019-10-08T07:37:40Z</time>
      </trkpt>
      <trkpt lat="45.69059" lon="5.81796">
        <ele>335.39999389648</ele>
        <time>2019-10-08T07:37:44Z</time>
      </trkpt>
      <trkpt lat="45.69044" lon="5.81679">
        <ele>332</ele>
        <time>2019-10-08T07:37:56Z</time>
      </trkpt>
      <trkpt lat="45.69037" lon="5.81645">
        <ele>331.60000610352</ele>
        <time>2019-10-08T07:38:00Z</time>
      </trkpt>
      <trkpt lat="45.69029" lon="5.81589">
        <ele>331</ele>
        <time>2019-10-08T07:38:06Z</time>
      </trkpt>
      <trkpt lat="45.69029" lon="5.81557">
        <ele>329.60000610352</ele>
        <time>2019-10-08T07:38:14Z</time>
      </trkpt>
      <trkpt lat="45.69038" lon="5.81532">
        <ele>328.39999389648</ele>
        <time>2019-10-08T07:38:16Z</time>
      </trkpt>
      <trkpt lat="45.6901" lon="5.81524">
        <ele>327.39999389648</ele>
        <time>2019-10-08T07:38:21Z</time>
      </trkpt>
      <trkpt lat="45.68984" lon="5.8149">
        <ele>326.39999389648</ele>
        <time>2019-10-08T07:38:28Z</time>
      </trkpt>
      <trkpt lat="45.68946" lon="5.81448">
        <ele>326.60000610352</ele>
        <time>2019-10-08T07:38:38Z</time>
      </trkpt>
      <trkpt lat="45.68933" lon="5.81433">
        <ele>326.79998779297</ele>
        <time>2019-10-08T07:38:42Z</time>
      </trkpt>
      <trkpt lat="45.68888" lon="5.81375">
        <ele>327.79998779297</ele>
        <time>2019-10-08T07:38:56Z</time>
      </trkpt>
      <trkpt lat="45.68867" lon="5.81334">
        <ele>328.79998779297</ele>
        <time>2019-10-08T07:39:06Z</time>
      </trkpt>
      <trkpt lat="45.68842" lon="5.81285">
        <ele>330.60000610352</ele>
        <time>2019-10-08T07:39:20Z</time>
      </trkpt>
      <trkpt lat="45.68826" lon="5.81254">
        <ele>332.20001220703</ele>
        <time>2019-10-08T07:39:30Z</time>
      </trkpt>
      <trkpt lat="45.68803" lon="5.81212">
        <ele>334.60000610352</ele>
        <time>2019-10-08T07:39:43Z</time>
      </trkpt>
      <trkpt lat="45.6879" lon="5.81188">
        <ele>335.20001220703</ele>
        <time>2019-10-08T07:39:50Z</time>
      </trkpt>
      <trkpt lat="45.68773" lon="5.81155">
        <ele>337</ele>
        <time>2019-10-08T07:40:00Z</time>
      </trkpt>
      <trkpt lat="45.68753" lon="5.81118">
        <ele>339</ele>
        <time>2019-10-08T07:40:11Z</time>
      </trkpt>
      <trkpt lat="45.68732" lon="5.81079">
        <ele>341.20001220703</ele>
        <time>2019-10-08T07:40:24Z</time>
      </trkpt>
      <trkpt lat="45.68714" lon="5.81043">
        <ele>343</ele>
        <time>2019-10-08T07:40:35Z</time>
      </trkpt>
      <trkpt lat="45.6869" lon="5.80999">
        <ele>344.79998779297</ele>
        <time>2019-10-08T07:40:48Z</time>
      </trkpt>
      <trkpt lat="45.68671" lon="5.80948">
        <ele>347</ele>
        <time>2019-10-08T07:41:02Z</time>
      </trkpt>
      <trkpt lat="45.68663" lon="5.80912">
        <ele>348.39999389648</ele>
        <time>2019-10-08T07:41:11Z</time>
      </trkpt>
      <trkpt lat="45.68664" lon="5.80865">
        <ele>350.60000610352</ele>
        <time>2019-10-08T07:41:25Z</time>
      </trkpt>
      <trkpt lat="45.68664" lon="5.80841">
        <ele>351.60000610352</ele>
        <time>2019-10-08T07:41:32Z</time>
      </trkpt>
      <trkpt lat="45.6868" lon="5.80791">
        <ele>353.20001220703</ele>
        <time>2019-10-08T07:41:43Z</time>
      </trkpt>
      <trkpt lat="45.68691" lon="5.80768">
        <ele>354.60000610352</ele>
        <time>2019-10-08T07:41:50Z</time>
      </trkpt>
      <trkpt lat="45.68715" lon="5.80735">
        <ele>356.79998779297</ele>
        <time>2019-10-08T07:42:03Z</time>
      </trkpt>
      <trkpt lat="45.68727" lon="5.80722">
        <ele>357.79998779297</ele>
        <time>2019-10-08T07:42:10Z</time>
      </trkpt>
      <trkpt lat="45.68741" lon="5.80706">
        <ele>358.79998779297</ele>
        <time>2019-10-08T07:42:17Z</time>
      </trkpt>
      <trkpt lat="45.68769" lon="5.80675">
        <ele>361.39999389648</ele>
        <time>2019-10-08T07:42:31Z</time>
      </trkpt>
      <trkpt lat="45.68781" lon="5.80662">
        <ele>362.39999389648</ele>
        <time>2019-10-08T07:42:37Z</time>
      </trkpt>
      <trkpt lat="45.68801" lon="5.8061">
        <ele>365</ele>
        <time>2019-10-08T07:42:53Z</time>
      </trkpt>
      <trkpt lat="45.6881" lon="5.80579">
        <ele>366.39999389648</ele>
        <time>2019-10-08T07:43:02Z</time>
      </trkpt>
      <trkpt lat="45.68826" lon="5.80524">
        <ele>368.39999389648</ele>
        <time>2019-10-08T07:43:18Z</time>
      </trkpt>
      <trkpt lat="45.68833" lon="5.80502">
        <ele>369.39999389648</ele>
        <time>2019-10-08T07:43:24Z</time>
      </trkpt>
      <trkpt lat="45.6885" lon="5.80446">
        <ele>371.39999389648</ele>
        <time>2019-10-08T07:43:39Z</time>
      </trkpt>
      <trkpt lat="45.6886" lon="5.80409">
        <ele>373.20001220703</ele>
        <time>2019-10-08T07:43:49Z</time>
      </trkpt>
      <trkpt lat="45.68863" lon="5.80359">
        <ele>375.39999389648</ele>
        <time>2019-10-08T07:44:01Z</time>
      </trkpt>
      <trkpt lat="45.68848" lon="5.80307">
        <ele>377</ele>
        <time>2019-10-08T07:44:13Z</time>
      </trkpt>
      <trkpt lat="45.68823" lon="5.80254">
        <ele>378.20001220703</ele>
        <time>2019-10-08T07:44:26Z</time>
      </trkpt>
      <trkpt lat="45.68801" lon="5.80207">
        <ele>379.39999389648</ele>
        <time>2019-10-08T07:44:37Z</time>
      </trkpt>
      <trkpt lat="45.68781" lon="5.80164">
        <ele>380.60000610352</ele>
        <time>2019-10-08T07:44:50Z</time>
      </trkpt>
      <trkpt lat="45.68758" lon="5.80115">
        <ele>381.39999389648</ele>
        <time>2019-10-08T07:45:02Z</time>
      </trkpt>
      <trkpt lat="45.6874" lon="5.80076">
        <ele>382.20001220703</ele>
        <time>2019-10-08T07:45:12Z</time>
      </trkpt>
      <trkpt lat="45.68698" lon="5.7999">
        <ele>384.60000610352</ele>
        <time>2019-10-08T07:45:33Z</time>
      </trkpt>
      <trkpt lat="45.68668" lon="5.79928">
        <ele>386</ele>
        <time>2019-10-08T07:45:47Z</time>
      </trkpt>
      <trkpt lat="45.68631" lon="5.79864">
        <ele>387.39999389648</ele>
        <time>2019-10-08T07:46:03Z</time>
      </trkpt>
      <trkpt lat="45.68595" lon="5.79814">
        <ele>388.39999389648</ele>
        <time>2019-10-08T07:46:15Z</time>
      </trkpt>
      <trkpt lat="45.68527" lon="5.79721">
        <ele>390.39999389648</ele>
        <time>2019-10-08T07:46:37Z</time>
      </trkpt>
      <trkpt lat="45.68493" lon="5.79673">
        <ele>391.60000610352</ele>
        <time>2019-10-08T07:46:48Z</time>
      </trkpt>
      <trkpt lat="45.68432" lon="5.79585">
        <ele>394</ele>
        <time>2019-10-08T07:47:10Z</time>
      </trkpt>
      <trkpt lat="45.68412" lon="5.79557">
        <ele>394.60000610352</ele>
        <time>2019-10-08T07:47:18Z</time>
      </trkpt>
      <trkpt lat="45.6836" lon="5.79483">
        <ele>396.20001220703</ele>
        <time>2019-10-08T07:47:36Z</time>
      </trkpt>
      <trkpt lat="45.6832" lon="5.79431">
        <ele>397.60000610352</ele>
        <time>2019-10-08T07:47:50Z</time>
      </trkpt>
      <trkpt lat="45.68279" lon="5.79375">
        <ele>399.20001220703</ele>
        <time>2019-10-08T07:48:05Z</time>
      </trkpt>
      <trkpt lat="45.68254" lon="5.79339">
        <ele>400.20001220703</ele>
        <time>2019-10-08T07:48:15Z</time>
      </trkpt>
      <trkpt lat="45.68236" lon="5.79312">
        <ele>401</ele>
        <time>2019-10-08T07:48:23Z</time>
      </trkpt>
      <trkpt lat="45.68187" lon="5.79235">
        <ele>403</ele>
        <time>2019-10-08T07:48:42Z</time>
      </trkpt>
      <trkpt lat="45.68171" lon="5.7921">
        <ele>403.79998779297</ele>
        <time>2019-10-08T07:48:49Z</time>
      </trkpt>
      <trkpt lat="45.68138" lon="5.79157">
        <ele>406.20001220703</ele>
        <time>2019-10-08T07:49:05Z</time>
      </trkpt>
      <trkpt lat="45.68122" lon="5.79133">
        <ele>407</ele>
        <time>2019-10-08T07:49:13Z</time>
      </trkpt>
      <trkpt lat="45.68087" lon="5.79077">
        <ele>409.60000610352</ele>
        <time>2019-10-08T07:49:30Z</time>
      </trkpt>
      <trkpt lat="45.68066" lon="5.79044">
        <ele>411</ele>
        <time>2019-10-08T07:49:40Z</time>
      </trkpt>
      <trkpt lat="45.6806" lon="5.79035">
        <ele>411.79998779297</ele>
        <time>2019-10-08T07:49:48Z</time>
      </trkpt>
      <trkpt lat="45.68065" lon="5.79011">
        <ele>412.20001220703</ele>
        <time>2019-10-08T08:02:20Z</time>
      </trkpt>
      <trkpt lat="45.68076" lon="5.7899">
        <ele>412</ele>
        <time>2019-10-08T08:02:27Z</time>
      </trkpt>
      <trkpt lat="45.6809" lon="5.78961">
        <ele>411.79998779297</ele>
        <time>2019-10-08T08:02:32Z</time>
      </trkpt>
      <trkpt lat="45.68114" lon="5.78897">
        <ele>410.39999389648</ele>
        <time>2019-10-08T08:02:40Z</time>
      </trkpt>
      <trkpt lat="45.68141" lon="5.78846">
        <ele>408.39999389648</ele>
        <time>2019-10-08T08:02:47Z</time>
      </trkpt>
      <trkpt lat="45.68166" lon="5.78819">
        <ele>407.60000610352</ele>
        <time>2019-10-08T08:02:52Z</time>
      </trkpt>
      <trkpt lat="45.68204" lon="5.78778">
        <ele>406.39999389648</ele>
        <time>2019-10-08T08:02:59Z</time>
      </trkpt>
      <trkpt lat="45.68213" lon="5.78736">
        <ele>405.20001220703</ele>
        <time>2019-10-08T08:03:04Z</time>
      </trkpt>
      <trkpt lat="45.68227" lon="5.78653">
        <ele>403.39999389648</ele>
        <time>2019-10-08T08:03:13Z</time>
      </trkpt>
      <trkpt lat="45.68231" lon="5.78609">
        <ele>402.39999389648</ele>
        <time>2019-10-08T08:03:17Z</time>
      </trkpt>
      <trkpt lat="45.6824" lon="5.78553">
        <ele>400.79998779297</ele>
        <time>2019-10-08T08:03:22Z</time>
      </trkpt>
      <trkpt lat="45.68258" lon="5.78548">
        <ele>399.39999389648</ele>
        <time>2019-10-08T08:03:25Z</time>
      </trkpt>
      <trkpt lat="45.68294" lon="5.78561">
        <ele>395.39999389648</ele>
        <time>2019-10-08T08:03:31Z</time>
      </trkpt>
      <trkpt lat="45.6832" lon="5.78577">
        <ele>393.79998779297</ele>
        <time>2019-10-08T08:03:35Z</time>
      </trkpt>
      <trkpt lat="45.68388" lon="5.78667">
        <ele>391</ele>
        <time>2019-10-08T08:03:46Z</time>
      </trkpt>
      <trkpt lat="45.68412" lon="5.7871">
        <ele>390</ele>
        <time>2019-10-08T08:03:50Z</time>
      </trkpt>
      <trkpt lat="45.68435" lon="5.78767">
        <ele>388</ele>
        <time>2019-10-08T08:03:55Z</time>
      </trkpt>
      <trkpt lat="45.68449" lon="5.78803">
        <ele>386.60000610352</ele>
        <time>2019-10-08T08:03:58Z</time>
      </trkpt>
      <trkpt lat="45.68475" lon="5.78836">
        <ele>384.39999389648</ele>
        <time>2019-10-08T08:04:02Z</time>
      </trkpt>
      <trkpt lat="45.6852" lon="5.78866">
        <ele>381</ele>
        <time>2019-10-08T08:04:08Z</time>
      </trkpt>
      <trkpt lat="45.68539" lon="5.78873">
        <ele>380</ele>
        <time>2019-10-08T08:04:10Z</time>
      </trkpt>
      <trkpt lat="45.68559" lon="5.7887">
        <ele>379.20001220703</ele>
        <time>2019-10-08T08:04:13Z</time>
      </trkpt>
      <trkpt lat="45.686" lon="5.78848">
        <ele>378.39999389648</ele>
        <time>2019-10-08T08:04:18Z</time>
      </trkpt>
      <trkpt lat="45.6866" lon="5.78812">
        <ele>376.79998779297</ele>
        <time>2019-10-08T08:04:26Z</time>
      </trkpt>
      <trkpt lat="45.68683" lon="5.78799">
        <ele>376</ele>
        <time>2019-10-08T08:04:30Z</time>
      </trkpt>
      <trkpt lat="45.68711" lon="5.78795">
        <ele>376.20001220703</ele>
        <time>2019-10-08T08:04:37Z</time>
      </trkpt>
      <trkpt lat="45.6873" lon="5.78789">
        <ele>376.20001220703</ele>
        <time>2019-10-08T08:04:41Z</time>
      </trkpt>
      <trkpt lat="45.68756" lon="5.78768">
        <ele>376</ele>
        <time>2019-10-08T08:04:46Z</time>
      </trkpt>
      <trkpt lat="45.6878" lon="5.78754">
        <ele>375.79998779297</ele>
        <time>2019-10-08T08:04:50Z</time>
      </trkpt>
      <trkpt lat="45.68817" lon="5.78751">
        <ele>374.39999389648</ele>
        <time>2019-10-08T08:04:56Z</time>
      </trkpt>
      <trkpt lat="45.68851" lon="5.78757">
        <ele>373.79998779297</ele>
        <time>2019-10-08T08:05:03Z</time>
      </trkpt>
      <trkpt lat="45.68883" lon="5.78764">
        <ele>374.39999389648</ele>
        <time>2019-10-08T08:05:11Z</time>
      </trkpt>
      <trkpt lat="45.68914" lon="5.78761">
        <ele>375.39999389648</ele>
        <time>2019-10-08T08:05:18Z</time>
      </trkpt>
      <trkpt lat="45.68936" lon="5.7874">
        <ele>375.79998779297</ele>
        <time>2019-10-08T08:05:24Z</time>
      </trkpt>
      <trkpt lat="45.68956" lon="5.78719">
        <ele>376.79998779297</ele>
        <time>2019-10-08T08:05:30Z</time>
      </trkpt>
      <trkpt lat="45.68993" lon="5.78663">
        <ele>378</ele>
        <time>2019-10-08T08:05:43Z</time>
      </trkpt>
      <trkpt lat="45.69032" lon="5.78598">
        <ele>378.20001220703</ele>
        <time>2019-10-08T08:05:54Z</time>
      </trkpt>
      <trkpt lat="45.69045" lon="5.78574">
        <ele>378</ele>
        <time>2019-10-08T08:05:57Z</time>
      </trkpt>
      <trkpt lat="45.69065" lon="5.7854">
        <ele>377.60000610352</ele>
        <time>2019-10-08T08:06:01Z</time>
      </trkpt>
      <trkpt lat="45.69082" lon="5.78516">
        <ele>376.60000610352</ele>
        <time>2019-10-08T08:06:04Z</time>
      </trkpt>
      <trkpt lat="45.69125" lon="5.78468">
        <ele>373.79998779297</ele>
        <time>2019-10-08T08:06:10Z</time>
      </trkpt>
      <trkpt lat="45.69163" lon="5.78429">
        <ele>371.20001220703</ele>
        <time>2019-10-08T08:06:15Z</time>
      </trkpt>
      <trkpt lat="45.6922" lon="5.78371">
        <ele>367.79998779297</ele>
        <time>2019-10-08T08:06:23Z</time>
      </trkpt>
      <trkpt lat="45.69242" lon="5.78349">
        <ele>366.79998779297</ele>
        <time>2019-10-08T08:06:26Z</time>
      </trkpt>
      <trkpt lat="45.69302" lon="5.78286">
        <ele>363.20001220703</ele>
        <time>2019-10-08T08:06:35Z</time>
      </trkpt>
      <trkpt lat="45.69328" lon="5.78254">
        <ele>362</ele>
        <time>2019-10-08T08:06:39Z</time>
      </trkpt>
      <trkpt lat="45.69343" lon="5.78192">
        <ele>360.60000610352</ele>
        <time>2019-10-08T08:06:45Z</time>
      </trkpt>
      <trkpt lat="45.69347" lon="5.78131">
        <ele>359.60000610352</ele>
        <time>2019-10-08T08:06:51Z</time>
      </trkpt>
      <trkpt lat="45.69351" lon="5.78082">
        <ele>359.20001220703</ele>
        <time>2019-10-08T08:06:56Z</time>
      </trkpt>
      <trkpt lat="45.69355" lon="5.7804">
        <ele>358.39999389648</ele>
        <time>2019-10-08T08:07:00Z</time>
      </trkpt>
      <trkpt lat="45.69361" lon="5.77988">
        <ele>357.20001220703</ele>
        <time>2019-10-08T08:07:05Z</time>
      </trkpt>
      <trkpt lat="45.69365" lon="5.77942">
        <ele>355.39999389648</ele>
        <time>2019-10-08T08:07:11Z</time>
      </trkpt>
      <trkpt lat="45.69366" lon="5.77935">
        <ele>350.20001220703</ele>
        <time>2019-10-08T08:07:31Z</time>
      </trkpt>
      <trkpt lat="45.69367" lon="5.77915">
        <ele>350.39999389648</ele>
        <time>2019-10-08T08:07:36Z</time>
      </trkpt>
      <trkpt lat="45.69371" lon="5.77875">
        <ele>350</ele>
        <time>2019-10-08T08:07:41Z</time>
      </trkpt>
      <trkpt lat="45.69378" lon="5.77789">
        <ele>348.20001220703</ele>
        <time>2019-10-08T08:07:49Z</time>
      </trkpt>
      <trkpt lat="45.69382" lon="5.7774">
        <ele>346.39999389648</ele>
        <time>2019-10-08T08:07:53Z</time>
      </trkpt>
      <trkpt lat="45.69388" lon="5.77667">
        <ele>343.60000610352</ele>
        <time>2019-10-08T08:07:59Z</time>
      </trkpt>
      <trkpt lat="45.69391" lon="5.77629">
        <ele>342.20001220703</ele>
        <time>2019-10-08T08:08:02Z</time>
      </trkpt>
      <trkpt lat="45.69396" lon="5.7758">
        <ele>339.79998779297</ele>
        <time>2019-10-08T08:08:06Z</time>
      </trkpt>
      <trkpt lat="45.69413" lon="5.77511">
        <ele>334.79998779297</ele>
        <time>2019-10-08T08:08:12Z</time>
      </trkpt>
      <trkpt lat="45.69419" lon="5.77485">
        <ele>332.79998779297</ele>
        <time>2019-10-08T08:08:14Z</time>
      </trkpt>
      <trkpt lat="45.6943" lon="5.77443">
        <ele>329.79998779297</ele>
        <time>2019-10-08T08:08:17Z</time>
      </trkpt>
      <trkpt lat="45.69437" lon="5.77415">
        <ele>328.39999389648</ele>
        <time>2019-10-08T08:08:19Z</time>
      </trkpt>
      <trkpt lat="45.69441" lon="5.77341">
        <ele>324.79998779297</ele>
        <time>2019-10-08T08:08:24Z</time>
      </trkpt>
      <trkpt lat="45.69439" lon="5.773">
        <ele>321</ele>
        <time>2019-10-08T08:08:27Z</time>
      </trkpt>
      <trkpt lat="45.6942" lon="5.7724">
        <ele>314.60000610352</ele>
        <time>2019-10-08T08:08:33Z</time>
      </trkpt>
      <trkpt lat="45.69392" lon="5.77208">
        <ele>310.60000610352</ele>
        <time>2019-10-08T08:08:37Z</time>
      </trkpt>
      <trkpt lat="45.69365" lon="5.77157">
        <ele>306.79998779297</ele>
        <time>2019-10-08T08:08:42Z</time>
      </trkpt>
      <trkpt lat="45.69357" lon="5.77136">
        <ele>305.79998779297</ele>
        <time>2019-10-08T08:08:44Z</time>
      </trkpt>
      <trkpt lat="45.69332" lon="5.77069">
        <ele>304</ele>
        <time>2019-10-08T08:08:49Z</time>
      </trkpt>
      <trkpt lat="45.69312" lon="5.77019">
        <ele>301.79998779297</ele>
        <time>2019-10-08T08:08:53Z</time>
      </trkpt>
      <trkpt lat="45.69304" lon="5.76993">
        <ele>299.60000610352</ele>
        <time>2019-10-08T08:08:55Z</time>
      </trkpt>
      <trkpt lat="45.69286" lon="5.7694">
        <ele>296.79998779297</ele>
        <time>2019-10-08T08:08:59Z</time>
      </trkpt>
      <trkpt lat="45.69267" lon="5.76883">
        <ele>294.20001220703</ele>
        <time>2019-10-08T08:09:03Z</time>
      </trkpt>
      <trkpt lat="45.69248" lon="5.76829">
        <ele>291.20001220703</ele>
        <time>2019-10-08T08:09:07Z</time>
      </trkpt>
      <trkpt lat="45.69244" lon="5.76806">
        <ele>290</ele>
        <time>2019-10-08T08:09:09Z</time>
      </trkpt>
      <trkpt lat="45.69255" lon="5.76767">
        <ele>288</ele>
        <time>2019-10-08T08:09:13Z</time>
      </trkpt>
      <trkpt lat="45.69266" lon="5.76748">
        <ele>287.39999389648</ele>
        <time>2019-10-08T08:09:15Z</time>
      </trkpt>
      <trkpt lat="45.69302" lon="5.76688">
        <ele>285</ele>
        <time>2019-10-08T08:09:21Z</time>
      </trkpt>
      <trkpt lat="45.69305" lon="5.76648">
        <ele>283</ele>
        <time>2019-10-08T08:09:24Z</time>
      </trkpt>
      <trkpt lat="45.69293" lon="5.76575">
        <ele>278.60000610352</ele>
        <time>2019-10-08T08:09:31Z</time>
      </trkpt>
      <trkpt lat="45.69289" lon="5.76552">
        <ele>276.79998779297</ele>
        <time>2019-10-08T08:09:34Z</time>
      </trkpt>
      <trkpt lat="45.69291" lon="5.76459">
        <ele>272.39999389648</ele>
        <time>2019-10-08T08:09:44Z</time>
      </trkpt>
      <trkpt lat="45.69292" lon="5.76388">
        <ele>270.20001220703</ele>
        <time>2019-10-08T08:09:51Z</time>
      </trkpt>
      <trkpt lat="45.69284" lon="5.7633">
        <ele>268.60000610352</ele>
        <time>2019-10-08T08:09:57Z</time>
      </trkpt>
      <trkpt lat="45.69271" lon="5.76265">
        <ele>267.60000610352</ele>
        <time>2019-10-08T08:10:03Z</time>
      </trkpt>
      <trkpt lat="45.6927" lon="5.76154">
        <ele>263.60000610352</ele>
        <time>2019-10-08T08:10:12Z</time>
      </trkpt>
      <trkpt lat="45.69283" lon="5.76076">
        <ele>262.60000610352</ele>
        <time>2019-10-08T08:10:20Z</time>
      </trkpt>
      <trkpt lat="45.6934" lon="5.76027">
        <ele>262</ele>
        <time>2019-10-08T08:10:29Z</time>
      </trkpt>
      <trkpt lat="45.69387" lon="5.75987">
        <ele>260.39999389648</ele>
        <time>2019-10-08T08:10:37Z</time>
      </trkpt>
      <trkpt lat="45.6939" lon="5.75985">
        <ele>258.39999389648</ele>
        <time>2019-10-08T08:11:26Z</time>
      </trkpt>
      <trkpt lat="45.69387" lon="5.75987">
        <ele>258.60000610352</ele>
        <time>2019-10-08T08:11:34Z</time>
      </trkpt>
      <trkpt lat="45.69364" lon="5.76007">
        <ele>258.79998779297</ele>
        <time>2019-10-08T08:11:45Z</time>
      </trkpt>
      <trkpt lat="45.69346" lon="5.76022">
        <ele>258.79998779297</ele>
        <time>2019-10-08T08:11:50Z</time>
      </trkpt>
      <trkpt lat="45.69326" lon="5.7604">
        <ele>259.39999389648</ele>
        <time>2019-10-08T08:11:55Z</time>
      </trkpt>
      <trkpt lat="45.69291" lon="5.76069">
        <ele>260.60000610352</ele>
        <time>2019-10-08T08:12:04Z</time>
      </trkpt>
      <trkpt lat="45.69256" lon="5.76082">
        <ele>261.60000610352</ele>
        <time>2019-10-08T08:12:14Z</time>
      </trkpt>
      <trkpt lat="45.69252" lon="5.76082">
        <ele>262.60000610352</ele>
        <time>2019-10-08T08:12:19Z</time>
      </trkpt>
      <trkpt lat="45.69247" lon="5.76085">
        <ele>262.79998779297</ele>
        <time>2019-10-08T08:12:26Z</time>
      </trkpt>
      <trkpt lat="45.69241" lon="5.76088">
        <ele>263.20001220703</ele>
        <time>2019-10-08T08:12:31Z</time>
      </trkpt>
      <trkpt lat="45.69228" lon="5.76086">
        <ele>263.79998779297</ele>
        <time>2019-10-08T08:12:41Z</time>
      </trkpt>
      <trkpt lat="45.6923" lon="5.76081">
        <ele>264</ele>
        <time>2019-10-08T08:12:45Z</time>
      </trkpt>
      <trkpt lat="45.69233" lon="5.76077">
        <ele>264.20001220703</ele>
        <time>2019-10-08T08:12:50Z</time>
      </trkpt>
      <trkpt lat="45.69233" lon="5.76081">
        <ele>264.20001220703</ele>
        <time>2019-10-08T08:12:58Z</time>
      </trkpt>
      <trkpt lat="45.69225" lon="5.76093">
        <ele>264.60000610352</ele>
        <time>2019-10-08T08:25:24Z</time>
      </trkpt>
      <trkpt lat="45.69234" lon="5.76092">
        <ele>264.60000610352</ele>
        <time>2019-10-08T08:25:28Z</time>
      </trkpt>
      <trkpt lat="45.69257" lon="5.76066">
        <ele>264.39999389648</ele>
        <time>2019-10-08T08:25:37Z</time>
      </trkpt>
      <trkpt lat="45.69251" lon="5.76056">
        <ele>264</ele>
        <time>2019-10-08T08:25:41Z</time>
      </trkpt>
      <trkpt lat="45.69196" lon="5.75964">
        <ele>263.20001220703</ele>
        <time>2019-10-08T08:26:02Z</time>
      </trkpt>
      <trkpt lat="45.69187" lon="5.75949">
        <ele>263.20001220703</ele>
        <time>2019-10-08T08:26:05Z</time>
      </trkpt>
      <trkpt lat="45.69152" lon="5.7589">
        <ele>263.39999389648</ele>
        <time>2019-10-08T08:26:17Z</time>
      </trkpt>
      <trkpt lat="45.69129" lon="5.75848">
        <ele>263.60000610352</ele>
        <time>2019-10-08T08:26:25Z</time>
      </trkpt>
      <trkpt lat="45.69117" lon="5.75805">
        <ele>264</ele>
        <time>2019-10-08T08:26:32Z</time>
      </trkpt>
      <trkpt lat="45.69101" lon="5.75728">
        <ele>265</ele>
        <time>2019-10-08T08:26:45Z</time>
      </trkpt>
      <trkpt lat="45.69093" lon="5.75676">
        <ele>265.39999389648</ele>
        <time>2019-10-08T08:26:54Z</time>
      </trkpt>
      <trkpt lat="45.69101" lon="5.75631">
        <ele>265.79998779297</ele>
        <time>2019-10-08T08:27:02Z</time>
      </trkpt>
      <trkpt lat="45.69103" lon="5.75598">
        <ele>265.79998779297</ele>
        <time>2019-10-08T08:27:08Z</time>
      </trkpt>
      <trkpt lat="45.69132" lon="5.75533">
        <ele>265.39999389648</ele>
        <time>2019-10-08T08:27:19Z</time>
      </trkpt>
      <trkpt lat="45.6915" lon="5.75513">
        <ele>265</ele>
        <time>2019-10-08T08:27:24Z</time>
      </trkpt>
      <trkpt lat="45.69174" lon="5.7549">
        <ele>264</ele>
        <time>2019-10-08T08:27:29Z</time>
      </trkpt>
      <trkpt lat="45.69184" lon="5.75475">
        <ele>263.79998779297</ele>
        <time>2019-10-08T08:27:32Z</time>
      </trkpt>
      <trkpt lat="45.69198" lon="5.75437">
        <ele>263.39999389648</ele>
        <time>2019-10-08T08:27:42Z</time>
      </trkpt>
      <trkpt lat="45.69181" lon="5.75424">
        <ele>263.39999389648</ele>
        <time>2019-10-08T08:27:47Z</time>
      </trkpt>
      <trkpt lat="45.69125" lon="5.75388">
        <ele>263.60000610352</ele>
        <time>2019-10-08T08:27:59Z</time>
      </trkpt>
      <trkpt lat="45.69082" lon="5.75369">
        <ele>263.60000610352</ele>
        <time>2019-10-08T08:28:08Z</time>
      </trkpt>
      <trkpt lat="45.69049" lon="5.7536">
        <ele>263.60000610352</ele>
        <time>2019-10-08T08:28:15Z</time>
      </trkpt>
      <trkpt lat="45.69021" lon="5.75359">
        <ele>263.79998779297</ele>
        <time>2019-10-08T08:28:21Z</time>
      </trkpt>
      <trkpt lat="45.68991" lon="5.75361">
        <ele>264.60000610352</ele>
        <time>2019-10-08T08:28:28Z</time>
      </trkpt>
      <trkpt lat="45.68932" lon="5.75364">
        <ele>266.60000610352</ele>
        <time>2019-10-08T08:28:44Z</time>
      </trkpt>
      <trkpt lat="45.68922" lon="5.75364">
        <ele>267.20001220703</ele>
        <time>2019-10-08T08:28:50Z</time>
      </trkpt>
      <trkpt lat="45.6892" lon="5.75364">
        <ele>268.20001220703</ele>
        <time>2019-10-08T08:29:46Z</time>
      </trkpt>
      <trkpt lat="45.68917" lon="5.75363">
        <ele>268</ele>
        <time>2019-10-08T08:29:48Z</time>
      </trkpt>
      <trkpt lat="45.68908" lon="5.75354">
        <ele>268.20001220703</ele>
        <time>2019-10-08T08:29:53Z</time>
      </trkpt>
      <trkpt lat="45.68904" lon="5.75349">
        <ele>268.20001220703</ele>
        <time>2019-10-08T08:29:55Z</time>
      </trkpt>
      <trkpt lat="45.68895" lon="5.75339">
        <ele>268.60000610352</ele>
        <time>2019-10-08T08:29:59Z</time>
      </trkpt>
      <trkpt lat="45.68883" lon="5.75331">
        <ele>268.79998779297</ele>
        <time>2019-10-08T08:30:03Z</time>
      </trkpt>
      <trkpt lat="45.68845" lon="5.75323">
        <ele>269.79998779297</ele>
        <time>2019-10-08T08:30:10Z</time>
      </trkpt>
      <trkpt lat="45.68812" lon="5.75323">
        <ele>270.60000610352</ele>
        <time>2019-10-08T08:30:18Z</time>
      </trkpt>
      <trkpt lat="45.6877" lon="5.75308">
        <ele>271.39999389648</ele>
        <time>2019-10-08T08:30:29Z</time>
      </trkpt>
      <trkpt lat="45.68737" lon="5.75298">
        <ele>272.39999389648</ele>
        <time>2019-10-08T08:30:38Z</time>
      </trkpt>
      <trkpt lat="45.68709" lon="5.75299">
        <ele>273.39999389648</ele>
        <time>2019-10-08T08:30:46Z</time>
      </trkpt>
      <trkpt lat="45.68644" lon="5.7533">
        <ele>273.39999389648</ele>
        <time>2019-10-08T08:31:00Z</time>
      </trkpt>
      <trkpt lat="45.68595" lon="5.75385">
        <ele>273</ele>
        <time>2019-10-08T08:31:10Z</time>
      </trkpt>
      <trkpt lat="45.6854" lon="5.75435">
        <ele>273.39999389648</ele>
        <time>2019-10-08T08:31:23Z</time>
      </trkpt>
      <trkpt lat="45.68525" lon="5.75448">
        <ele>273.79998779297</ele>
        <time>2019-10-08T08:31:27Z</time>
      </trkpt>
      <trkpt lat="45.68444" lon="5.75601">
        <ele>274.60000610352</ele>
        <time>2019-10-08T08:31:55Z</time>
      </trkpt>
      <trkpt lat="45.68419" lon="5.75646">
        <ele>274.79998779297</ele>
        <time>2019-10-08T08:32:03Z</time>
      </trkpt>
      <trkpt lat="45.68357" lon="5.75709">
        <ele>276.20001220703</ele>
        <time>2019-10-08T08:32:19Z</time>
      </trkpt>
      <trkpt lat="45.68322" lon="5.75761">
        <ele>277</ele>
        <time>2019-10-08T08:32:30Z</time>
      </trkpt>
      <trkpt lat="45.6828" lon="5.75819">
        <ele>277.39999389648</ele>
        <time>2019-10-08T08:32:43Z</time>
      </trkpt>
      <trkpt lat="45.68252" lon="5.75841">
        <ele>277.79998779297</ele>
        <time>2019-10-08T08:32:50Z</time>
      </trkpt>
      <trkpt lat="45.682" lon="5.75875">
        <ele>278.60000610352</ele>
        <time>2019-10-08T08:33:04Z</time>
      </trkpt>
      <trkpt lat="45.68177" lon="5.75887">
        <ele>279.20001220703</ele>
        <time>2019-10-08T08:33:10Z</time>
      </trkpt>
      <trkpt lat="45.68153" lon="5.75898">
        <ele>279.39999389648</ele>
        <time>2019-10-08T08:33:16Z</time>
      </trkpt>
      <trkpt lat="45.68137" lon="5.75904">
        <ele>280.20001220703</ele>
        <time>2019-10-08T08:33:20Z</time>
      </trkpt>
      <trkpt lat="45.6812" lon="5.7591">
        <ele>280.79998779297</ele>
        <time>2019-10-08T08:33:24Z</time>
      </trkpt>
      <trkpt lat="45.68058" lon="5.75959">
        <ele>282.20001220703</ele>
        <time>2019-10-08T08:33:38Z</time>
      </trkpt>
      <trkpt lat="45.68033" lon="5.75997">
        <ele>283</ele>
        <time>2019-10-08T08:33:45Z</time>
      </trkpt>
      <trkpt lat="45.67986" lon="5.76095">
        <ele>284.20001220703</ele>
        <time>2019-10-08T08:34:03Z</time>
      </trkpt>
      <trkpt lat="45.67959" lon="5.76149">
        <ele>285</ele>
        <time>2019-10-08T08:34:13Z</time>
      </trkpt>
      <trkpt lat="45.67936" lon="5.76198">
        <ele>286.20001220703</ele>
        <time>2019-10-08T08:34:24Z</time>
      </trkpt>
      <trkpt lat="45.67918" lon="5.76235">
        <ele>287.20001220703</ele>
        <time>2019-10-08T08:34:32Z</time>
      </trkpt>
      <trkpt lat="45.67892" lon="5.76288">
        <ele>288.79998779297</ele>
        <time>2019-10-08T08:34:43Z</time>
      </trkpt>
      <trkpt lat="45.67851" lon="5.76373">
        <ele>290.20001220703</ele>
        <time>2019-10-08T08:34:58Z</time>
      </trkpt>
      <trkpt lat="45.67803" lon="5.76425">
        <ele>290.39999389648</ele>
        <time>2019-10-08T08:35:11Z</time>
      </trkpt>
      <trkpt lat="45.67769" lon="5.76451">
        <ele>291.20001220703</ele>
        <time>2019-10-08T08:35:20Z</time>
      </trkpt>
      <trkpt lat="45.67733" lon="5.76479">
        <ele>292.20001220703</ele>
        <time>2019-10-08T08:35:29Z</time>
      </trkpt>
      <trkpt lat="45.67674" lon="5.76526">
        <ele>294.20001220703</ele>
        <time>2019-10-08T08:35:44Z</time>
      </trkpt>
      <trkpt lat="45.67655" lon="5.7654">
        <ele>294.79998779297</ele>
        <time>2019-10-08T08:35:49Z</time>
      </trkpt>
      <trkpt lat="45.67573" lon="5.76604">
        <ele>297.20001220703</ele>
        <time>2019-10-08T08:36:08Z</time>
      </trkpt>
      <trkpt lat="45.6752" lon="5.76627">
        <ele>297.39999389648</ele>
        <time>2019-10-08T08:36:21Z</time>
      </trkpt>
      <trkpt lat="45.67391" lon="5.76603">
        <ele>298.20001220703</ele>
        <time>2019-10-08T08:36:44Z</time>
      </trkpt>
      <trkpt lat="45.67363" lon="5.76591">
        <ele>298.60000610352</ele>
        <time>2019-10-08T08:36:50Z</time>
      </trkpt>
      <trkpt lat="45.67337" lon="5.76579">
        <ele>299</ele>
        <time>2019-10-08T08:36:57Z</time>
      </trkpt>
      <trkpt lat="45.6732" lon="5.76571">
        <ele>299.60000610352</ele>
        <time>2019-10-08T08:37:01Z</time>
      </trkpt>
      <trkpt lat="45.67285" lon="5.76555">
        <ele>300.79998779297</ele>
        <time>2019-10-08T08:37:10Z</time>
      </trkpt>
      <trkpt lat="45.67265" lon="5.76546">
        <ele>301.60000610352</ele>
        <time>2019-10-08T08:37:16Z</time>
      </trkpt>
      <trkpt lat="45.6721" lon="5.76521">
        <ele>303.79998779297</ele>
        <time>2019-10-08T08:37:30Z</time>
      </trkpt>
      <trkpt lat="45.67173" lon="5.76505">
        <ele>304.79998779297</ele>
        <time>2019-10-08T08:37:38Z</time>
      </trkpt>
      <trkpt lat="45.67122" lon="5.7648">
        <ele>306.60000610352</ele>
        <time>2019-10-08T08:37:52Z</time>
      </trkpt>
      <trkpt lat="45.67095" lon="5.76466">
        <ele>308</ele>
        <time>2019-10-08T08:38:01Z</time>
      </trkpt>
      <trkpt lat="45.67053" lon="5.76428">
        <ele>311</ele>
        <time>2019-10-08T08:38:17Z</time>
      </trkpt>
      <trkpt lat="45.6701" lon="5.76398">
        <ele>312.20001220703</ele>
        <time>2019-10-08T08:38:28Z</time>
      </trkpt>
      <trkpt lat="45.66986" lon="5.76399">
        <ele>312.39999389648</ele>
        <time>2019-10-08T08:38:33Z</time>
      </trkpt>
      <trkpt lat="45.66929" lon="5.76434">
        <ele>313.39999389648</ele>
        <time>2019-10-08T08:38:46Z</time>
      </trkpt>
      <trkpt lat="45.66921" lon="5.76439">
        <ele>313.39999389648</ele>
        <time>2019-10-08T08:38:48Z</time>
      </trkpt>
      <trkpt lat="45.6687" lon="5.76429">
        <ele>314</ele>
        <time>2019-10-08T08:38:57Z</time>
      </trkpt>
      <trkpt lat="45.66824" lon="5.76404">
        <ele>315.60000610352</ele>
        <time>2019-10-08T08:39:07Z</time>
      </trkpt>
      <trkpt lat="45.66752" lon="5.76378">
        <ele>317.60000610352</ele>
        <time>2019-10-08T08:39:25Z</time>
      </trkpt>
      <trkpt lat="45.66723" lon="5.76371">
        <ele>318.60000610352</ele>
        <time>2019-10-08T08:39:34Z</time>
      </trkpt>
      <trkpt lat="45.66715" lon="5.76369">
        <ele>320.39999389648</ele>
        <time>2019-10-08T08:39:50Z</time>
      </trkpt>
      <trkpt lat="45.66729" lon="5.76369">
        <ele>320.39999389648</ele>
        <time>2019-10-08T08:39:55Z</time>
      </trkpt>
      <trkpt lat="45.66749" lon="5.76356">
        <ele>320.39999389648</ele>
        <time>2019-10-08T08:40:03Z</time>
      </trkpt>
      <trkpt lat="45.66763" lon="5.76348">
        <ele>320.60000610352</ele>
        <time>2019-10-08T08:40:08Z</time>
      </trkpt>
      <trkpt lat="45.66776" lon="5.76341">
        <ele>321.60000610352</ele>
        <time>2019-10-08T08:40:13Z</time>
      </trkpt>
      <trkpt lat="45.66799" lon="5.7633">
        <ele>324</ele>
        <time>2019-10-08T08:40:23Z</time>
      </trkpt>
      <trkpt lat="45.66809" lon="5.76327">
        <ele>325.20001220703</ele>
        <time>2019-10-08T08:40:29Z</time>
      </trkpt>
      <trkpt lat="45.66833" lon="5.76327">
        <ele>327.60000610352</ele>
        <time>2019-10-08T08:40:41Z</time>
      </trkpt>
      <trkpt lat="45.66844" lon="5.76328">
        <ele>329</ele>
        <time>2019-10-08T08:40:47Z</time>
      </trkpt>
      <trkpt lat="45.66873" lon="5.76331">
        <ele>331.20001220703</ele>
        <time>2019-10-08T08:40:59Z</time>
      </trkpt>
      <trkpt lat="45.66886" lon="5.7634">
        <ele>332.60000610352</ele>
        <time>2019-10-08T08:41:06Z</time>
      </trkpt>
      <trkpt lat="45.66904" lon="5.76357">
        <ele>334</ele>
        <time>2019-10-08T08:41:16Z</time>
      </trkpt>
      <trkpt lat="45.66918" lon="5.76355">
        <ele>335.60000610352</ele>
        <time>2019-10-08T08:41:23Z</time>
      </trkpt>
      <trkpt lat="45.66928" lon="5.76335">
        <ele>338</ele>
        <time>2019-10-08T08:41:34Z</time>
      </trkpt>
      <trkpt lat="45.66935" lon="5.76318">
        <ele>339.20001220703</ele>
        <time>2019-10-08T08:41:42Z</time>
      </trkpt>
      <trkpt lat="45.6694" lon="5.76294">
        <ele>340.39999389648</ele>
        <time>2019-10-08T08:41:49Z</time>
      </trkpt>
      <trkpt lat="45.66914" lon="5.76308">
        <ele>342.20001220703</ele>
        <time>2019-10-08T08:41:59Z</time>
      </trkpt>
      <trkpt lat="45.66903" lon="5.76314">
        <ele>343.39999389648</ele>
        <time>2019-10-08T08:42:06Z</time>
      </trkpt>
      <trkpt lat="45.66889" lon="5.76301">
        <ele>345.60000610352</ele>
        <time>2019-10-08T08:42:16Z</time>
      </trkpt>
      <trkpt lat="45.6688" lon="5.76291">
        <ele>346.79998779297</ele>
        <time>2019-10-08T08:42:21Z</time>
      </trkpt>
      <trkpt lat="45.66863" lon="5.76269">
        <ele>348.60000610352</ele>
        <time>2019-10-08T08:42:31Z</time>
      </trkpt>
      <trkpt lat="45.66848" lon="5.76244">
        <ele>350.39999389648</ele>
        <time>2019-10-08T08:42:40Z</time>
      </trkpt>
      <trkpt lat="45.66828" lon="5.76211">
        <ele>352.79998779297</ele>
        <time>2019-10-08T08:42:52Z</time>
      </trkpt>
      <trkpt lat="45.66799" lon="5.762">
        <ele>355</ele>
        <time>2019-10-08T08:43:05Z</time>
      </trkpt>
      <trkpt lat="45.66778" lon="5.76223">
        <ele>357</ele>
        <time>2019-10-08T08:43:15Z</time>
      </trkpt>
      <trkpt lat="45.66763" lon="5.76223">
        <ele>358</ele>
        <time>2019-10-08T08:43:21Z</time>
      </trkpt>
      <trkpt lat="45.66744" lon="5.76207">
        <ele>360.20001220703</ele>
        <time>2019-10-08T08:43:31Z</time>
      </trkpt>
      <trkpt lat="45.66731" lon="5.76197">
        <ele>361.39999389648</ele>
        <time>2019-10-08T08:43:37Z</time>
      </trkpt>
      <trkpt lat="45.66709" lon="5.76179">
        <ele>363.60000610352</ele>
        <time>2019-10-08T08:43:49Z</time>
      </trkpt>
      <trkpt lat="45.6669" lon="5.76163">
        <ele>365.79998779297</ele>
        <time>2019-10-08T08:43:59Z</time>
      </trkpt>
      <trkpt lat="45.66677" lon="5.76136">
        <ele>367.79998779297</ele>
        <time>2019-10-08T08:44:10Z</time>
      </trkpt>
      <trkpt lat="45.66676" lon="5.76115">
        <ele>369.20001220703</ele>
        <time>2019-10-08T08:44:17Z</time>
      </trkpt>
      <trkpt lat="45.66677" lon="5.76108">
        <ele>370</ele>
        <time>2019-10-08T08:44:20Z</time>
      </trkpt>
      <trkpt lat="45.66678" lon="5.76105">
        <ele>373</ele>
        <time>2019-10-08T08:54:38Z</time>
      </trkpt>
      <trkpt lat="45.66679" lon="5.76098">
        <ele>373</ele>
        <time>2019-10-08T08:54:41Z</time>
      </trkpt>
      <trkpt lat="45.6668" lon="5.76083">
        <ele>373.39999389648</ele>
        <time>2019-10-08T08:54:47Z</time>
      </trkpt>
      <trkpt lat="45.66678" lon="5.76059">
        <ele>374.39999389648</ele>
        <time>2019-10-08T08:54:54Z</time>
      </trkpt>
      <trkpt lat="45.66669" lon="5.76052">
        <ele>375.39999389648</ele>
        <time>2019-10-08T08:54:58Z</time>
      </trkpt>
      <trkpt lat="45.66658" lon="5.76053">
        <ele>376.20001220703</ele>
        <time>2019-10-08T08:55:03Z</time>
      </trkpt>
      <trkpt lat="45.66648" lon="5.76056">
        <ele>377.20001220703</ele>
        <time>2019-10-08T08:55:09Z</time>
      </trkpt>
      <trkpt lat="45.6663" lon="5.76061">
        <ele>378.60000610352</ele>
        <time>2019-10-08T08:55:18Z</time>
      </trkpt>
      <trkpt lat="45.66613" lon="5.76056">
        <ele>380.20001220703</ele>
        <time>2019-10-08T08:55:28Z</time>
      </trkpt>
      <trkpt lat="45.6659" lon="5.76043">
        <ele>382.20001220703</ele>
        <time>2019-10-08T08:55:39Z</time>
      </trkpt>
      <trkpt lat="45.66568" lon="5.76026">
        <ele>384.39999389648</ele>
        <time>2019-10-08T08:55:52Z</time>
      </trkpt>
      <trkpt lat="45.66562" lon="5.76009">
        <ele>385.79998779297</ele>
        <time>2019-10-08T08:55:59Z</time>
      </trkpt>
      <trkpt lat="45.66564" lon="5.7598">
        <ele>387.20001220703</ele>
        <time>2019-10-08T08:56:08Z</time>
      </trkpt>
      <trkpt lat="45.66566" lon="5.75946">
        <ele>388.60000610352</ele>
        <time>2019-10-08T08:56:19Z</time>
      </trkpt>
      <trkpt lat="45.66568" lon="5.75917">
        <ele>390.39999389648</ele>
        <time>2019-10-08T08:56:28Z</time>
      </trkpt>
      <trkpt lat="45.66559" lon="5.7587">
        <ele>392.79998779297</ele>
        <time>2019-10-08T08:56:44Z</time>
      </trkpt>
      <trkpt lat="45.66548" lon="5.75848">
        <ele>394</ele>
        <time>2019-10-08T08:56:52Z</time>
      </trkpt>
      <trkpt lat="45.66532" lon="5.75809">
        <ele>396.60000610352</ele>
        <time>2019-10-08T08:57:08Z</time>
      </trkpt>
      <trkpt lat="45.66535" lon="5.75797">
        <ele>397.60000610352</ele>
        <time>2019-10-08T08:57:14Z</time>
      </trkpt>
      <trkpt lat="45.66562" lon="5.75799">
        <ele>400.79998779297</ele>
        <time>2019-10-08T08:57:28Z</time>
      </trkpt>
      <trkpt lat="45.66576" lon="5.75808">
        <ele>402</ele>
        <time>2019-10-08T08:57:36Z</time>
      </trkpt>
      <trkpt lat="45.66597" lon="5.75822">
        <ele>404.39999389648</ele>
        <time>2019-10-08T08:57:49Z</time>
      </trkpt>
      <trkpt lat="45.66606" lon="5.75828">
        <ele>405</ele>
        <time>2019-10-08T08:57:54Z</time>
      </trkpt>
      <trkpt lat="45.66634" lon="5.75843">
        <ele>407.39999389648</ele>
        <time>2019-10-08T08:58:07Z</time>
      </trkpt>
      <trkpt lat="45.6665" lon="5.75844">
        <ele>409</ele>
        <time>2019-10-08T08:58:15Z</time>
      </trkpt>
      <trkpt lat="45.66678" lon="5.75844">
        <ele>411.20001220703</ele>
        <time>2019-10-08T08:58:29Z</time>
      </trkpt>
      <trkpt lat="45.66699" lon="5.75843">
        <ele>412.79998779297</ele>
        <time>2019-10-08T08:58:40Z</time>
      </trkpt>
      <trkpt lat="45.66715" lon="5.75843">
        <ele>414.20001220703</ele>
        <time>2019-10-08T08:58:49Z</time>
      </trkpt>
      <trkpt lat="45.66745" lon="5.75842">
        <ele>416.79998779297</ele>
        <time>2019-10-08T08:59:04Z</time>
      </trkpt>
      <trkpt lat="45.66759" lon="5.75841">
        <ele>417.79998779297</ele>
        <time>2019-10-08T08:59:11Z</time>
      </trkpt>
      <trkpt lat="45.66785" lon="5.75841">
        <ele>420.20001220703</ele>
        <time>2019-10-08T08:59:24Z</time>
      </trkpt>
      <trkpt lat="45.66809" lon="5.7584">
        <ele>421.79998779297</ele>
        <time>2019-10-08T08:59:36Z</time>
      </trkpt>
      <trkpt lat="45.66819" lon="5.75817">
        <ele>424.60000610352</ele>
        <time>2019-10-08T08:59:48Z</time>
      </trkpt>
      <trkpt lat="45.66814" lon="5.75799">
        <ele>425.79998779297</ele>
        <time>2019-10-08T08:59:55Z</time>
      </trkpt>
      <trkpt lat="45.66809" lon="5.75762">
        <ele>428.20001220703</ele>
        <time>2019-10-08T09:00:09Z</time>
      </trkpt>
      <trkpt lat="45.66834" lon="5.75756">
        <ele>430.79998779297</ele>
        <time>2019-10-08T09:00:22Z</time>
      </trkpt>
      <trkpt lat="45.6686" lon="5.75774">
        <ele>432.60000610352</ele>
        <time>2019-10-08T09:00:35Z</time>
      </trkpt>
      <trkpt lat="45.66867" lon="5.7578">
        <ele>433.39999389648</ele>
        <time>2019-10-08T09:00:39Z</time>
      </trkpt>
      <trkpt lat="45.66891" lon="5.75795">
        <ele>435.60000610352</ele>
        <time>2019-10-08T09:00:50Z</time>
      </trkpt>
      <trkpt lat="45.66903" lon="5.75791">
        <ele>437.20001220703</ele>
        <time>2019-10-08T09:00:58Z</time>
      </trkpt>
      <trkpt lat="45.66913" lon="5.75752">
        <ele>440.39999389648</ele>
        <time>2019-10-08T09:01:12Z</time>
      </trkpt>
      <trkpt lat="45.66919" lon="5.75687">
        <ele>442.20001220703</ele>
        <time>2019-10-08T09:01:30Z</time>
      </trkpt>
      <trkpt lat="45.66917" lon="5.75656">
        <ele>442.79998779297</ele>
        <time>2019-10-08T09:01:38Z</time>
      </trkpt>
      <trkpt lat="45.66904" lon="5.75613">
        <ele>444.20001220703</ele>
        <time>2019-10-08T09:01:50Z</time>
      </trkpt>
      <trkpt lat="45.66894" lon="5.75593">
        <ele>445</ele>
        <time>2019-10-08T09:01:56Z</time>
      </trkpt>
      <trkpt lat="45.66878" lon="5.7556">
        <ele>447.60000610352</ele>
        <time>2019-10-08T09:02:08Z</time>
      </trkpt>
      <trkpt lat="45.66861" lon="5.75525">
        <ele>450.20001220703</ele>
        <time>2019-10-08T09:02:21Z</time>
      </trkpt>
      <trkpt lat="45.66845" lon="5.75492">
        <ele>452.20001220703</ele>
        <time>2019-10-08T09:02:34Z</time>
      </trkpt>
      <trkpt lat="45.66835" lon="5.75471">
        <ele>453.39999389648</ele>
        <time>2019-10-08T09:02:41Z</time>
      </trkpt>
      <trkpt lat="45.66817" lon="5.75418">
        <ele>456.60000610352</ele>
        <time>2019-10-08T09:02:59Z</time>
      </trkpt>
      <trkpt lat="45.66813" lon="5.75398">
        <ele>458</ele>
        <time>2019-10-08T09:03:05Z</time>
      </trkpt>
      <trkpt lat="45.66797" lon="5.75323">
        <ele>461</ele>
        <time>2019-10-08T09:03:24Z</time>
      </trkpt>
      <trkpt lat="45.66794" lon="5.75305">
        <ele>461.60000610352</ele>
        <time>2019-10-08T09:03:29Z</time>
      </trkpt>
      <trkpt lat="45.66791" lon="5.75266">
        <ele>462</ele>
        <time>2019-10-08T09:03:37Z</time>
      </trkpt>
      <trkpt lat="45.66793" lon="5.75221">
        <ele>462.20001220703</ele>
        <time>2019-10-08T09:03:44Z</time>
      </trkpt>
      <trkpt lat="45.66803" lon="5.75176">
        <ele>461.79998779297</ele>
        <time>2019-10-08T09:03:50Z</time>
      </trkpt>
      <trkpt lat="45.66816" lon="5.75115">
        <ele>460.39999389648</ele>
        <time>2019-10-08T09:03:58Z</time>
      </trkpt>
      <trkpt lat="45.66833" lon="5.75046">
        <ele>460.20001220703</ele>
        <time>2019-10-08T09:04:07Z</time>
      </trkpt>
      <trkpt lat="45.66861" lon="5.74969">
        <ele>460.20001220703</ele>
        <time>2019-10-08T09:04:19Z</time>
      </trkpt>
      <trkpt lat="45.66877" lon="5.74944">
        <ele>460.39999389648</ele>
        <time>2019-10-08T09:04:24Z</time>
      </trkpt>
      <trkpt lat="45.66909" lon="5.74859">
        <ele>460.79998779297</ele>
        <time>2019-10-08T09:04:38Z</time>
      </trkpt>
      <trkpt lat="45.66935" lon="5.74705">
        <ele>461.39999389648</ele>
        <time>2019-10-08T09:05:00Z</time>
      </trkpt>
      <trkpt lat="45.66962" lon="5.74654">
        <ele>461.60000610352</ele>
        <time>2019-10-08T09:05:09Z</time>
      </trkpt>
      <trkpt lat="45.67006" lon="5.74579">
        <ele>462.79998779297</ele>
        <time>2019-10-08T09:05:25Z</time>
      </trkpt>
      <trkpt lat="45.67037" lon="5.74558">
        <ele>463.60000610352</ele>
        <time>2019-10-08T09:05:37Z</time>
      </trkpt>
      <trkpt lat="45.67045" lon="5.74509">
        <ele>464.60000610352</ele>
        <time>2019-10-08T09:05:48Z</time>
      </trkpt>
      <trkpt lat="45.67052" lon="5.74466">
        <ele>464.60000610352</ele>
        <time>2019-10-08T09:05:54Z</time>
      </trkpt>
      <trkpt lat="45.67061" lon="5.74405">
        <ele>464</ele>
        <time>2019-10-08T09:06:01Z</time>
      </trkpt>
      <trkpt lat="45.67065" lon="5.74355">
        <ele>462.60000610352</ele>
        <time>2019-10-08T09:06:06Z</time>
      </trkpt>
      <trkpt lat="45.67057" lon="5.74307">
        <ele>461.39999389648</ele>
        <time>2019-10-08T09:06:11Z</time>
      </trkpt>
      <trkpt lat="45.67046" lon="5.74295">
        <ele>460.39999389648</ele>
        <time>2019-10-08T09:06:13Z</time>
      </trkpt>
      <trkpt lat="45.67001" lon="5.74247">
        <ele>457.39999389648</ele>
        <time>2019-10-08T09:06:19Z</time>
      </trkpt>
      <trkpt lat="45.66976" lon="5.74207">
        <ele>456</ele>
        <time>2019-10-08T09:06:23Z</time>
      </trkpt>
      <trkpt lat="45.66943" lon="5.74163">
        <ele>453</ele>
        <time>2019-10-08T09:06:28Z</time>
      </trkpt>
      <trkpt lat="45.66942" lon="5.74158">
        <ele>451.39999389648</ele>
        <time>2019-10-08T09:06:30Z</time>
      </trkpt>
      <trkpt lat="45.66956" lon="5.74137">
        <ele>448.20001220703</ele>
        <time>2019-10-08T09:06:36Z</time>
      </trkpt>
      <trkpt lat="45.66961" lon="5.74137">
        <ele>447.79998779297</ele>
        <time>2019-10-08T09:06:38Z</time>
      </trkpt>
      <trkpt lat="45.6698" lon="5.74144">
        <ele>447.79998779297</ele>
        <time>2019-10-08T09:06:44Z</time>
      </trkpt>
      <trkpt lat="45.66989" lon="5.74147">
        <ele>448.60000610352</ele>
        <time>2019-10-08T09:06:49Z</time>
      </trkpt>
      <trkpt lat="45.66992" lon="5.74133">
        <ele>449.20001220703</ele>
        <time>2019-10-08T09:06:51Z</time>
      </trkpt>
      <trkpt lat="45.66981" lon="5.7412">
        <ele>450</ele>
        <time>2019-10-08T09:06:56Z</time>
      </trkpt>
      <trkpt lat="45.66976" lon="5.74114">
        <ele>450.79998779297</ele>
        <time>2019-10-08T09:06:59Z</time>
      </trkpt>
      <trkpt lat="45.66959" lon="5.74096">
        <ele>452.79998779297</ele>
        <time>2019-10-08T09:07:08Z</time>
      </trkpt>
      <trkpt lat="45.66944" lon="5.7408">
        <ele>454.20001220703</ele>
        <time>2019-10-08T09:07:16Z</time>
      </trkpt>
      <trkpt lat="45.6692" lon="5.74051">
        <ele>456.39999389648</ele>
        <time>2019-10-08T09:07:29Z</time>
      </trkpt>
      <trkpt lat="45.6691" lon="5.74038">
        <ele>457.79998779297</ele>
        <time>2019-10-08T09:07:35Z</time>
      </trkpt>
      <trkpt lat="45.66884" lon="5.74005">
        <ele>459.79998779297</ele>
        <time>2019-10-08T09:07:48Z</time>
      </trkpt>
      <trkpt lat="45.66873" lon="5.73988">
        <ele>460.79998779297</ele>
        <time>2019-10-08T09:07:54Z</time>
      </trkpt>
      <trkpt lat="45.66862" lon="5.73934">
        <ele>462.20001220703</ele>
        <time>2019-10-08T09:08:07Z</time>
      </trkpt>
      <trkpt lat="45.6687" lon="5.73925">
        <ele>462.39999389648</ele>
        <time>2019-10-08T09:08:11Z</time>
      </trkpt>
      <trkpt lat="45.66898" lon="5.73913">
        <ele>464.79998779297</ele>
        <time>2019-10-08T09:08:22Z</time>
      </trkpt>
      <trkpt lat="45.66911" lon="5.73899">
        <ele>465.79998779297</ele>
        <time>2019-10-08T09:08:29Z</time>
      </trkpt>
      <trkpt lat="45.66918" lon="5.73875">
        <ele>467.20001220703</ele>
        <time>2019-10-08T09:08:36Z</time>
      </trkpt>
      <trkpt lat="45.66915" lon="5.73844">
        <ele>469</ele>
        <time>2019-10-08T09:08:46Z</time>
      </trkpt>
      <trkpt lat="45.66917" lon="5.73813">
        <ele>470.20001220703</ele>
        <time>2019-10-08T09:08:55Z</time>
      </trkpt>
      <trkpt lat="45.66926" lon="5.73793">
        <ele>471.79998779297</ele>
        <time>2019-10-08T09:09:02Z</time>
      </trkpt>
      <trkpt lat="45.66943" lon="5.73782">
        <ele>473</ele>
        <time>2019-10-08T09:09:08Z</time>
      </trkpt>
      <trkpt lat="45.66963" lon="5.73812">
        <ele>475.60000610352</ele>
        <time>2019-10-08T09:09:21Z</time>
      </trkpt>
      <trkpt lat="45.66975" lon="5.73826">
        <ele>476.60000610352</ele>
        <time>2019-10-08T09:09:27Z</time>
      </trkpt>
      <trkpt lat="45.67009" lon="5.73841">
        <ele>479.20001220703</ele>
        <time>2019-10-08T09:09:42Z</time>
      </trkpt>
      <trkpt lat="45.67017" lon="5.73834">
        <ele>479.79998779297</ele>
        <time>2019-10-08T09:09:47Z</time>
      </trkpt>
      <trkpt lat="45.6702" lon="5.73782">
        <ele>481.60000610352</ele>
        <time>2019-10-08T09:10:01Z</time>
      </trkpt>
      <trkpt lat="45.67021" lon="5.73752">
        <ele>482.79998779297</ele>
        <time>2019-10-08T09:10:09Z</time>
      </trkpt>
      <trkpt lat="45.67027" lon="5.73714">
        <ele>484.39999389648</ele>
        <time>2019-10-08T09:10:20Z</time>
      </trkpt>
      <trkpt lat="45.67046" lon="5.73663">
        <ele>486.79998779297</ele>
        <time>2019-10-08T09:10:32Z</time>
      </trkpt>
      <trkpt lat="45.67065" lon="5.73623">
        <ele>487</ele>
        <time>2019-10-08T09:10:41Z</time>
      </trkpt>
      <trkpt lat="45.67075" lon="5.73598">
        <ele>487.20001220703</ele>
        <time>2019-10-08T09:10:48Z</time>
      </trkpt>
      <trkpt lat="45.67081" lon="5.7359">
        <ele>487.39999389648</ele>
        <time>2019-10-08T09:10:51Z</time>
      </trkpt>
      <trkpt lat="45.67084" lon="5.73586">
        <ele>487.79998779297</ele>
        <time>2019-10-08T09:12:18Z</time>
      </trkpt>
      <trkpt lat="45.67086" lon="5.73582">
        <ele>487.60000610352</ele>
        <time>2019-10-08T09:12:29Z</time>
      </trkpt>
      <trkpt lat="45.67075" lon="5.73597">
        <ele>487.60000610352</ele>
        <time>2019-10-08T09:12:36Z</time>
      </trkpt>
      <trkpt lat="45.67042" lon="5.7358">
        <ele>487.79998779297</ele>
        <time>2019-10-08T09:12:46Z</time>
      </trkpt>
      <trkpt lat="45.67007" lon="5.73553">
        <ele>488.60000610352</ele>
        <time>2019-10-08T09:12:57Z</time>
      </trkpt>
      <trkpt lat="45.66993" lon="5.73547">
        <ele>488.60000610352</ele>
        <time>2019-10-08T09:13:01Z</time>
      </trkpt>
      <trkpt lat="45.66962" lon="5.73548">
        <ele>489.79998779297</ele>
        <time>2019-10-08T09:13:12Z</time>
      </trkpt>
      <trkpt lat="45.66947" lon="5.73556">
        <ele>490.60000610352</ele>
        <time>2019-10-08T09:13:18Z</time>
      </trkpt>
      <trkpt lat="45.66925" lon="5.7357">
        <ele>492.60000610352</ele>
        <time>2019-10-08T09:13:28Z</time>
      </trkpt>
      <trkpt lat="45.66906" lon="5.73574">
        <ele>494.20001220703</ele>
        <time>2019-10-08T09:13:37Z</time>
      </trkpt>
      <trkpt lat="45.66878" lon="5.73574">
        <ele>496.60000610352</ele>
        <time>2019-10-08T09:13:50Z</time>
      </trkpt>
      <trkpt lat="45.6686" lon="5.73574">
        <ele>497.79998779297</ele>
        <time>2019-10-08T09:13:58Z</time>
      </trkpt>
      <trkpt lat="45.66833" lon="5.73569">
        <ele>499.60000610352</ele>
        <time>2019-10-08T09:14:11Z</time>
      </trkpt>
      <trkpt lat="45.66826" lon="5.73551">
        <ele>500.60000610352</ele>
        <time>2019-10-08T09:14:20Z</time>
      </trkpt>
      <trkpt lat="45.66831" lon="5.73532">
        <ele>501.79998779297</ele>
        <time>2019-10-08T09:14:26Z</time>
      </trkpt>
      <trkpt lat="45.66855" lon="5.73486">
        <ele>505</ele>
        <time>2019-10-08T09:14:44Z</time>
      </trkpt>
      <trkpt lat="45.66855" lon="5.73462">
        <ele>506</ele>
        <time>2019-10-08T09:14:52Z</time>
      </trkpt>
      <trkpt lat="45.66841" lon="5.73425">
        <ele>507.79998779297</ele>
        <time>2019-10-08T09:15:04Z</time>
      </trkpt>
      <trkpt lat="45.66827" lon="5.73414">
        <ele>509</ele>
        <time>2019-10-08T09:15:11Z</time>
      </trkpt>
      <trkpt lat="45.66792" lon="5.73435">
        <ele>511.39999389648</ele>
        <time>2019-10-08T09:15:25Z</time>
      </trkpt>
      <trkpt lat="45.66765" lon="5.73465">
        <ele>512.59997558594</ele>
        <time>2019-10-08T09:15:37Z</time>
      </trkpt>
      <trkpt lat="45.66734" lon="5.73507">
        <ele>514</ele>
        <time>2019-10-08T09:15:51Z</time>
      </trkpt>
      <trkpt lat="45.66719" lon="5.73538">
        <ele>515.20001220703</ele>
        <time>2019-10-08T09:16:01Z</time>
      </trkpt>
      <trkpt lat="45.66701" lon="5.73576">
        <ele>517.40002441406</ele>
        <time>2019-10-08T09:16:14Z</time>
      </trkpt>
      <trkpt lat="45.66687" lon="5.73603">
        <ele>519.20001220703</ele>
        <time>2019-10-08T09:16:24Z</time>
      </trkpt>
      <trkpt lat="45.66672" lon="5.73616">
        <ele>520.20001220703</ele>
        <time>2019-10-08T09:16:31Z</time>
      </trkpt>
      <trkpt lat="45.66646" lon="5.73627">
        <ele>522.40002441406</ele>
        <time>2019-10-08T09:16:44Z</time>
      </trkpt>
      <trkpt lat="45.66633" lon="5.73632">
        <ele>523.59997558594</ele>
        <time>2019-10-08T09:16:50Z</time>
      </trkpt>
      <trkpt lat="45.66609" lon="5.7364">
        <ele>526</ele>
        <time>2019-10-08T09:17:03Z</time>
      </trkpt>
      <trkpt lat="45.6659" lon="5.73641">
        <ele>527.59997558594</ele>
        <time>2019-10-08T09:17:12Z</time>
      </trkpt>
      <trkpt lat="45.66561" lon="5.73643">
        <ele>530.20001220703</ele>
        <time>2019-10-08T09:17:25Z</time>
      </trkpt>
      <trkpt lat="45.66549" lon="5.73643">
        <ele>531</ele>
        <time>2019-10-08T09:17:31Z</time>
      </trkpt>
      <trkpt lat="45.66509" lon="5.73633">
        <ele>534.59997558594</ele>
        <time>2019-10-08T09:17:50Z</time>
      </trkpt>
      <trkpt lat="45.66488" lon="5.73628">
        <ele>536.79998779297</ele>
        <time>2019-10-08T09:18:00Z</time>
      </trkpt>
      <trkpt lat="45.66454" lon="5.73627">
        <ele>539.20001220703</ele>
        <time>2019-10-08T09:18:16Z</time>
      </trkpt>
      <trkpt lat="45.6644" lon="5.73635">
        <ele>541.20001220703</ele>
        <time>2019-10-08T09:18:25Z</time>
      </trkpt>
      <trkpt lat="45.66428" lon="5.73672">
        <ele>543.79998779297</ele>
        <time>2019-10-08T09:18:39Z</time>
      </trkpt>
      <trkpt lat="45.6642" lon="5.73696">
        <ele>545.40002441406</ele>
        <time>2019-10-08T09:18:48Z</time>
      </trkpt>
      <trkpt lat="45.66403" lon="5.73726">
        <ele>547.79998779297</ele>
        <time>2019-10-08T09:19:02Z</time>
      </trkpt>
      <trkpt lat="45.66387" lon="5.73737">
        <ele>549.20001220703</ele>
        <time>2019-10-08T09:19:11Z</time>
      </trkpt>
      <trkpt lat="45.66357" lon="5.73746">
        <ele>551.79998779297</ele>
        <time>2019-10-08T09:19:24Z</time>
      </trkpt>
      <trkpt lat="45.66325" lon="5.73736">
        <ele>554.79998779297</ele>
        <time>2019-10-08T09:19:39Z</time>
      </trkpt>
      <trkpt lat="45.6631" lon="5.73729">
        <ele>556</ele>
        <time>2019-10-08T09:19:47Z</time>
      </trkpt>
      <trkpt lat="45.66286" lon="5.73715">
        <ele>558</ele>
        <time>2019-10-08T09:19:58Z</time>
      </trkpt>
      <trkpt lat="45.66267" lon="5.73703">
        <ele>559.79998779297</ele>
        <time>2019-10-08T09:20:06Z</time>
      </trkpt>
      <trkpt lat="45.66236" lon="5.73672">
        <ele>562.40002441406</ele>
        <time>2019-10-08T09:20:20Z</time>
      </trkpt>
      <trkpt lat="45.66208" lon="5.73654">
        <ele>563.79998779297</ele>
        <time>2019-10-08T09:20:31Z</time>
      </trkpt>
      <trkpt lat="45.66158" lon="5.73653">
        <ele>565.20001220703</ele>
        <time>2019-10-08T09:20:46Z</time>
      </trkpt>
      <trkpt lat="45.66127" lon="5.73656">
        <ele>566.20001220703</ele>
        <time>2019-10-08T09:20:56Z</time>
      </trkpt>
      <trkpt lat="45.66086" lon="5.73659">
        <ele>568.20001220703</ele>
        <time>2019-10-08T09:21:10Z</time>
      </trkpt>
      <trkpt lat="45.66045" lon="5.73663">
        <ele>570.20001220703</ele>
        <time>2019-10-08T09:21:25Z</time>
      </trkpt>
      <trkpt lat="45.65998" lon="5.73667">
        <ele>572.40002441406</ele>
        <time>2019-10-08T09:21:43Z</time>
      </trkpt>
      <trkpt lat="45.65954" lon="5.73669">
        <ele>575</ele>
        <time>2019-10-08T09:21:58Z</time>
      </trkpt>
      <trkpt lat="45.65929" lon="5.73658">
        <ele>576.40002441406</ele>
        <time>2019-10-08T09:22:07Z</time>
      </trkpt>
      <trkpt lat="45.65902" lon="5.73634">
        <ele>578</ele>
        <time>2019-10-08T09:22:18Z</time>
      </trkpt>
      <trkpt lat="45.65887" lon="5.73604">
        <ele>579.20001220703</ele>
        <time>2019-10-08T09:22:28Z</time>
      </trkpt>
      <trkpt lat="45.65885" lon="5.73559">
        <ele>580.59997558594</ele>
        <time>2019-10-08T09:22:40Z</time>
      </trkpt>
      <trkpt lat="45.65891" lon="5.73536">
        <ele>582</ele>
        <time>2019-10-08T09:22:46Z</time>
      </trkpt>
      <trkpt lat="45.65908" lon="5.73508">
        <ele>584</ele>
        <time>2019-10-08T09:22:58Z</time>
      </trkpt>
      <trkpt lat="45.65922" lon="5.73492">
        <ele>585.59997558594</ele>
        <time>2019-10-08T09:23:07Z</time>
      </trkpt>
      <trkpt lat="45.6594" lon="5.73472">
        <ele>588.40002441406</ele>
        <time>2019-10-08T09:23:19Z</time>
      </trkpt>
      <trkpt lat="45.65956" lon="5.73456">
        <ele>590.20001220703</ele>
        <time>2019-10-08T09:23:29Z</time>
      </trkpt>
      <trkpt lat="45.65981" lon="5.73443">
        <ele>593.20001220703</ele>
        <time>2019-10-08T09:23:43Z</time>
      </trkpt>
      <trkpt lat="45.65993" lon="5.73437">
        <ele>594.59997558594</ele>
        <time>2019-10-08T09:23:50Z</time>
      </trkpt>
      <trkpt lat="45.66012" lon="5.73427">
        <ele>596.79998779297</ele>
        <time>2019-10-08T09:24:01Z</time>
      </trkpt>
      <trkpt lat="45.66019" lon="5.73416">
        <ele>597.79998779297</ele>
        <time>2019-10-08T09:24:06Z</time>
      </trkpt>
      <trkpt lat="45.66029" lon="5.73384">
        <ele>600.20001220703</ele>
        <time>2019-10-08T09:24:18Z</time>
      </trkpt>
      <trkpt lat="45.66013" lon="5.73362">
        <ele>602.79998779297</ele>
        <time>2019-10-08T09:24:31Z</time>
      </trkpt>
      <trkpt lat="45.66002" lon="5.73351">
        <ele>603.79998779297</ele>
        <time>2019-10-08T09:24:37Z</time>
      </trkpt>
      <trkpt lat="45.65985" lon="5.73327">
        <ele>606.20001220703</ele>
        <time>2019-10-08T09:24:49Z</time>
      </trkpt>
      <trkpt lat="45.65972" lon="5.73308">
        <ele>608</ele>
        <time>2019-10-08T09:24:58Z</time>
      </trkpt>
      <trkpt lat="45.65945" lon="5.733">
        <ele>610.59997558594</ele>
        <time>2019-10-08T09:25:11Z</time>
      </trkpt>
      <trkpt lat="45.65933" lon="5.73286">
        <ele>612</ele>
        <time>2019-10-08T09:25:19Z</time>
      </trkpt>
      <trkpt lat="45.65933" lon="5.73259">
        <ele>614</ele>
        <time>2019-10-08T09:25:27Z</time>
      </trkpt>
      <trkpt lat="45.65933" lon="5.73227">
        <ele>616.20001220703</ele>
        <time>2019-10-08T09:25:38Z</time>
      </trkpt>
      <trkpt lat="45.65923" lon="5.73202">
        <ele>618.40002441406</ele>
        <time>2019-10-08T09:25:48Z</time>
      </trkpt>
      <trkpt lat="45.65916" lon="5.7319">
        <ele>619.59997558594</ele>
        <time>2019-10-08T09:25:53Z</time>
      </trkpt>
      <trkpt lat="45.6589" lon="5.73154">
        <ele>623.20001220703</ele>
        <time>2019-10-08T09:26:10Z</time>
      </trkpt>
      <trkpt lat="45.6588" lon="5.73147">
        <ele>624.40002441406</ele>
        <time>2019-10-08T09:26:16Z</time>
      </trkpt>
      <trkpt lat="45.65863" lon="5.73137">
        <ele>625.40002441406</ele>
        <time>2019-10-08T09:26:23Z</time>
      </trkpt>
      <trkpt lat="45.65826" lon="5.73119">
        <ele>627.79998779297</ele>
        <time>2019-10-08T09:26:37Z</time>
      </trkpt>
      <trkpt lat="45.65808" lon="5.73108">
        <ele>628.20001220703</ele>
        <time>2019-10-08T09:26:44Z</time>
      </trkpt>
      <trkpt lat="45.65778" lon="5.73086">
        <ele>629</ele>
        <time>2019-10-08T09:26:55Z</time>
      </trkpt>
      <trkpt lat="45.65762" lon="5.7307">
        <ele>630</ele>
        <time>2019-10-08T09:27:02Z</time>
      </trkpt>
      <trkpt lat="45.65738" lon="5.73043">
        <ele>632.20001220703</ele>
        <time>2019-10-08T09:27:14Z</time>
      </trkpt>
      <trkpt lat="45.65714" lon="5.73015">
        <ele>634</ele>
        <time>2019-10-08T09:27:24Z</time>
      </trkpt>
      <trkpt lat="45.65673" lon="5.72959">
        <ele>636.40002441406</ele>
        <time>2019-10-08T09:27:42Z</time>
      </trkpt>
      <trkpt lat="45.65654" lon="5.72918">
        <ele>637</ele>
        <time>2019-10-08T09:27:53Z</time>
      </trkpt>
      <trkpt lat="45.65628" lon="5.72854">
        <ele>639.20001220703</ele>
        <time>2019-10-08T09:28:09Z</time>
      </trkpt>
      <trkpt lat="45.65604" lon="5.72821">
        <ele>641</ele>
        <time>2019-10-08T09:28:22Z</time>
      </trkpt>
      <trkpt lat="45.65582" lon="5.7279">
        <ele>643.40002441406</ele>
        <time>2019-10-08T09:28:36Z</time>
      </trkpt>
      <trkpt lat="45.65567" lon="5.72764">
        <ele>645.40002441406</ele>
        <time>2019-10-08T09:28:46Z</time>
      </trkpt>
      <trkpt lat="45.65546" lon="5.72724">
        <ele>648.40002441406</ele>
        <time>2019-10-08T09:29:00Z</time>
      </trkpt>
      <trkpt lat="45.65528" lon="5.72709">
        <ele>649.59997558594</ele>
        <time>2019-10-08T09:29:08Z</time>
      </trkpt>
      <trkpt lat="45.65505" lon="5.727">
        <ele>650.79998779297</ele>
        <time>2019-10-08T09:29:15Z</time>
      </trkpt>
      <trkpt lat="45.65455" lon="5.72686">
        <ele>653.40002441406</ele>
        <time>2019-10-08T09:29:30Z</time>
      </trkpt>
      <trkpt lat="45.6543" lon="5.72687">
        <ele>655</ele>
        <time>2019-10-08T09:29:41Z</time>
      </trkpt>
      <trkpt lat="45.65424" lon="5.72688">
        <ele>656.59997558594</ele>
        <time>2019-10-08T09:30:42Z</time>
      </trkpt>
      <trkpt lat="45.65411" lon="5.72689">
        <ele>656.79998779297</ele>
        <time>2019-10-08T09:30:49Z</time>
      </trkpt>
      <trkpt lat="45.65386" lon="5.7269">
        <ele>656.59997558594</ele>
        <time>2019-10-08T09:30:57Z</time>
      </trkpt>
      <trkpt lat="45.65334" lon="5.72693">
        <ele>657.79998779297</ele>
        <time>2019-10-08T09:31:11Z</time>
      </trkpt>
      <trkpt lat="45.65308" lon="5.72695">
        <ele>658.40002441406</ele>
        <time>2019-10-08T09:31:20Z</time>
      </trkpt>
      <trkpt lat="45.65283" lon="5.72697">
        <ele>659</ele>
        <time>2019-10-08T09:31:28Z</time>
      </trkpt>
      <trkpt lat="45.65231" lon="5.72701">
        <ele>660.40002441406</ele>
        <time>2019-10-08T09:31:44Z</time>
      </trkpt>
      <trkpt lat="45.65199" lon="5.72713">
        <ele>661.79998779297</ele>
        <time>2019-10-08T09:31:55Z</time>
      </trkpt>
      <trkpt lat="45.65172" lon="5.72723">
        <ele>662.79998779297</ele>
        <time>2019-10-08T09:32:04Z</time>
      </trkpt>
      <trkpt lat="45.65157" lon="5.72729">
        <ele>663.59997558594</ele>
        <time>2019-10-08T09:32:09Z</time>
      </trkpt>
      <trkpt lat="45.65135" lon="5.72733">
        <ele>665.20001220703</ele>
        <time>2019-10-08T09:32:19Z</time>
      </trkpt>
      <trkpt lat="45.65106" lon="5.72739">
        <ele>665.59997558594</ele>
        <time>2019-10-08T09:36:02Z</time>
      </trkpt>
      <trkpt lat="45.65063" lon="5.72748">
        <ele>665</ele>
        <time>2019-10-08T09:36:10Z</time>
      </trkpt>
      <trkpt lat="45.65005" lon="5.72754">
        <ele>663.59997558594</ele>
        <time>2019-10-08T09:36:18Z</time>
      </trkpt>
      <trkpt lat="45.64981" lon="5.72752">
        <ele>662.40002441406</ele>
        <time>2019-10-08T09:36:21Z</time>
      </trkpt>
      <trkpt lat="45.64946" lon="5.72745">
        <ele>660.40002441406</ele>
        <time>2019-10-08T09:36:27Z</time>
      </trkpt>
      <trkpt lat="45.64935" lon="5.72741">
        <ele>656.59997558594</ele>
        <time>2019-10-08T09:37:10Z</time>
      </trkpt>
      <trkpt lat="45.64925" lon="5.72732">
        <ele>656.59997558594</ele>
        <time>2019-10-08T09:37:15Z</time>
      </trkpt>
      <trkpt lat="45.64918" lon="5.7272">
        <ele>656.40002441406</ele>
        <time>2019-10-08T09:37:18Z</time>
      </trkpt>
      <trkpt lat="45.6491" lon="5.72686">
        <ele>655.59997558594</ele>
        <time>2019-10-08T09:37:23Z</time>
      </trkpt>
      <trkpt lat="45.64902" lon="5.72633">
        <ele>654.59997558594</ele>
        <time>2019-10-08T09:37:28Z</time>
      </trkpt>
      <trkpt lat="45.64888" lon="5.72543">
        <ele>651.79998779297</ele>
        <time>2019-10-08T09:37:35Z</time>
      </trkpt>
      <trkpt lat="45.6487" lon="5.7252">
        <ele>650.59997558594</ele>
        <time>2019-10-08T09:37:38Z</time>
      </trkpt>
      <trkpt lat="45.64833" lon="5.72491">
        <ele>648.40002441406</ele>
        <time>2019-10-08T09:37:43Z</time>
      </trkpt>
      <trkpt lat="45.64806" lon="5.72496">
        <ele>647.20001220703</ele>
        <time>2019-10-08T09:37:47Z</time>
      </trkpt>
      <trkpt lat="45.64773" lon="5.72504">
        <ele>647</ele>
        <time>2019-10-08T09:37:53Z</time>
      </trkpt>
      <trkpt lat="45.64761" lon="5.72502">
        <ele>647</ele>
        <time>2019-10-08T09:37:57Z</time>
      </trkpt>
      <trkpt lat="45.64747" lon="5.72501">
        <ele>648.40002441406</ele>
        <time>2019-10-08T09:38:03Z</time>
      </trkpt>
      <trkpt lat="45.64731" lon="5.725">
        <ele>650.20001220703</ele>
        <time>2019-10-08T09:38:12Z</time>
      </trkpt>
      <trkpt lat="45.64721" lon="5.725">
        <ele>651</ele>
        <time>2019-10-08T09:38:16Z</time>
      </trkpt>
      <trkpt lat="45.64705" lon="5.72502">
        <ele>652.20001220703</ele>
        <time>2019-10-08T09:38:24Z</time>
      </trkpt>
      <trkpt lat="45.64695" lon="5.72503">
        <ele>653.20001220703</ele>
        <time>2019-10-08T09:38:29Z</time>
      </trkpt>
      <trkpt lat="45.64678" lon="5.725">
        <ele>655</ele>
        <time>2019-10-08T09:38:38Z</time>
      </trkpt>
      <trkpt lat="45.6466" lon="5.72495">
        <ele>656.20001220703</ele>
        <time>2019-10-08T09:38:47Z</time>
      </trkpt>
      <trkpt lat="45.64622" lon="5.72485">
        <ele>658</ele>
        <time>2019-10-08T09:39:02Z</time>
      </trkpt>
      <trkpt lat="45.64599" lon="5.72491">
        <ele>658.59997558594</ele>
        <time>2019-10-08T09:39:10Z</time>
      </trkpt>
      <trkpt lat="45.64585" lon="5.72496">
        <ele>658.79998779297</ele>
        <time>2019-10-08T09:39:14Z</time>
      </trkpt>
      <trkpt lat="45.64559" lon="5.72489">
        <ele>660.40002441406</ele>
        <time>2019-10-08T09:39:25Z</time>
      </trkpt>
      <trkpt lat="45.64547" lon="5.72493">
        <ele>661.40002441406</ele>
        <time>2019-10-08T09:39:31Z</time>
      </trkpt>
      <trkpt lat="45.64527" lon="5.72491">
        <ele>663.20001220703</ele>
        <time>2019-10-08T09:39:42Z</time>
      </trkpt>
      <trkpt lat="45.64505" lon="5.72488">
        <ele>665.79998779297</ele>
        <time>2019-10-08T09:39:53Z</time>
      </trkpt>
      <trkpt lat="45.64478" lon="5.72483">
        <ele>667.79998779297</ele>
        <time>2019-10-08T09:40:07Z</time>
      </trkpt>
      <trkpt lat="45.64464" lon="5.72478">
        <ele>669</ele>
        <time>2019-10-08T09:40:14Z</time>
      </trkpt>
      <trkpt lat="45.64445" lon="5.7247">
        <ele>670.79998779297</ele>
        <time>2019-10-08T09:40:24Z</time>
      </trkpt>
      <trkpt lat="45.64424" lon="5.72462">
        <ele>673.20001220703</ele>
        <time>2019-10-08T09:40:35Z</time>
      </trkpt>
      <trkpt lat="45.64402" lon="5.72452">
        <ele>675.79998779297</ele>
        <time>2019-10-08T09:40:48Z</time>
      </trkpt>
      <trkpt lat="45.64389" lon="5.72446">
        <ele>677</ele>
        <time>2019-10-08T09:40:56Z</time>
      </trkpt>
      <trkpt lat="45.64365" lon="5.72435">
        <ele>679.59997558594</ele>
        <time>2019-10-08T09:41:11Z</time>
      </trkpt>
      <trkpt lat="45.6435" lon="5.72427">
        <ele>681</ele>
        <time>2019-10-08T09:41:20Z</time>
      </trkpt>
      <trkpt lat="45.64338" lon="5.724">
        <ele>683.20001220703</ele>
        <time>2019-10-08T09:41:31Z</time>
      </trkpt>
      <trkpt lat="45.64329" lon="5.72372">
        <ele>684.79998779297</ele>
        <time>2019-10-08T09:41:41Z</time>
      </trkpt>
      <trkpt lat="45.64324" lon="5.72359">
        <ele>685.79998779297</ele>
        <time>2019-10-08T09:41:47Z</time>
      </trkpt>
      <trkpt lat="45.64301" lon="5.72335">
        <ele>688</ele>
        <time>2019-10-08T09:42:00Z</time>
      </trkpt>
      <trkpt lat="45.64288" lon="5.72322">
        <ele>689.20001220703</ele>
        <time>2019-10-08T09:42:08Z</time>
      </trkpt>
      <trkpt lat="45.64273" lon="5.72309">
        <ele>691</ele>
        <time>2019-10-08T09:42:18Z</time>
      </trkpt>
      <trkpt lat="45.64253" lon="5.7229">
        <ele>693.59997558594</ele>
        <time>2019-10-08T09:42:30Z</time>
      </trkpt>
      <trkpt lat="45.64216" lon="5.72257">
        <ele>697.20001220703</ele>
        <time>2019-10-08T09:42:50Z</time>
      </trkpt>
      <trkpt lat="45.64202" lon="5.72245">
        <ele>698.20001220703</ele>
        <time>2019-10-08T09:42:58Z</time>
      </trkpt>
      <trkpt lat="45.64188" lon="5.72225">
        <ele>700.59997558594</ele>
        <time>2019-10-08T09:43:09Z</time>
      </trkpt>
      <trkpt lat="45.64185" lon="5.72207">
        <ele>702.20001220703</ele>
        <time>2019-10-08T09:43:16Z</time>
      </trkpt>
      <trkpt lat="45.6419" lon="5.72183">
        <ele>703.59997558594</ele>
        <time>2019-10-08T09:43:25Z</time>
      </trkpt>
      <trkpt lat="45.64197" lon="5.72177">
        <ele>705</ele>
        <time>2019-10-08T09:43:30Z</time>
      </trkpt>
      <trkpt lat="45.64207" lon="5.72171">
        <ele>707</ele>
        <time>2019-10-08T09:43:38Z</time>
      </trkpt>
      <trkpt lat="45.64219" lon="5.72168">
        <ele>709</ele>
        <time>2019-10-08T09:43:45Z</time>
      </trkpt>
      <trkpt lat="45.64234" lon="5.72165">
        <ele>710.59997558594</ele>
        <time>2019-10-08T09:43:53Z</time>
      </trkpt>
      <trkpt lat="45.64253" lon="5.72161">
        <ele>712.40002441406</ele>
        <time>2019-10-08T09:44:04Z</time>
      </trkpt>
      <trkpt lat="45.64259" lon="5.72137">
        <ele>713.79998779297</ele>
        <time>2019-10-08T09:44:12Z</time>
      </trkpt>
      <trkpt lat="45.64242" lon="5.72089">
        <ele>715.79998779297</ele>
        <time>2019-10-08T09:44:29Z</time>
      </trkpt>
      <trkpt lat="45.6424" lon="5.72074">
        <ele>716.59997558594</ele>
        <time>2019-10-08T09:44:35Z</time>
      </trkpt>
      <trkpt lat="45.64242" lon="5.7205">
        <ele>718.20001220703</ele>
        <time>2019-10-08T09:44:44Z</time>
      </trkpt>
      <trkpt lat="45.64242" lon="5.7203">
        <ele>719.40002441406</ele>
        <time>2019-10-08T09:44:51Z</time>
      </trkpt>
      <trkpt lat="45.64233" lon="5.72015">
        <ele>720.59997558594</ele>
        <time>2019-10-08T09:44:58Z</time>
      </trkpt>
      <trkpt lat="45.64215" lon="5.72003">
        <ele>722</ele>
        <time>2019-10-08T09:45:06Z</time>
      </trkpt>
      <trkpt lat="45.64197" lon="5.71995">
        <ele>724.20001220703</ele>
        <time>2019-10-08T09:45:17Z</time>
      </trkpt>
      <trkpt lat="45.64191" lon="5.71993">
        <ele>724.79998779297</ele>
        <time>2019-10-08T09:45:20Z</time>
      </trkpt>
      <trkpt lat="45.64165" lon="5.71984">
        <ele>727.40002441406</ele>
        <time>2019-10-08T09:45:33Z</time>
      </trkpt>
      <trkpt lat="45.64152" lon="5.71983">
        <ele>728.59997558594</ele>
        <time>2019-10-08T09:45:39Z</time>
      </trkpt>
      <trkpt lat="45.6413" lon="5.71982">
        <ele>730.59997558594</ele>
        <time>2019-10-08T09:45:49Z</time>
      </trkpt>
      <trkpt lat="45.64102" lon="5.71978">
        <ele>733.20001220703</ele>
        <time>2019-10-08T09:46:02Z</time>
      </trkpt>
      <trkpt lat="45.64084" lon="5.71963">
        <ele>735</ele>
        <time>2019-10-08T09:46:12Z</time>
      </trkpt>
      <trkpt lat="45.64069" lon="5.71961">
        <ele>736.59997558594</ele>
        <time>2019-10-08T09:46:21Z</time>
      </trkpt>
      <trkpt lat="45.64049" lon="5.71955">
        <ele>738.79998779297</ele>
        <time>2019-10-08T09:46:33Z</time>
      </trkpt>
      <trkpt lat="45.64029" lon="5.71943">
        <ele>740.79998779297</ele>
        <time>2019-10-08T09:46:44Z</time>
      </trkpt>
      <trkpt lat="45.64017" lon="5.71923">
        <ele>742.40002441406</ele>
        <time>2019-10-08T09:46:53Z</time>
      </trkpt>
      <trkpt lat="45.64016" lon="5.71901">
        <ele>743.79998779297</ele>
        <time>2019-10-08T09:47:01Z</time>
      </trkpt>
      <trkpt lat="45.6402" lon="5.71881">
        <ele>745.20001220703</ele>
        <time>2019-10-08T09:47:08Z</time>
      </trkpt>
      <trkpt lat="45.64032" lon="5.71858">
        <ele>747</ele>
        <time>2019-10-08T09:47:18Z</time>
      </trkpt>
      <trkpt lat="45.64033" lon="5.71845">
        <ele>747.79998779297</ele>
        <time>2019-10-08T09:47:23Z</time>
      </trkpt>
      <trkpt lat="45.6403" lon="5.71816">
        <ele>749.59997558594</ele>
        <time>2019-10-08T09:47:33Z</time>
      </trkpt>
      <trkpt lat="45.64027" lon="5.71798">
        <ele>751</ele>
        <time>2019-10-08T09:47:40Z</time>
      </trkpt>
      <trkpt lat="45.6401" lon="5.71769">
        <ele>753.20001220703</ele>
        <time>2019-10-08T09:47:50Z</time>
      </trkpt>
      <trkpt lat="45.63994" lon="5.71755">
        <ele>755</ele>
        <time>2019-10-08T09:47:59Z</time>
      </trkpt>
      <trkpt lat="45.63981" lon="5.71744">
        <ele>756</ele>
        <time>2019-10-08T09:48:05Z</time>
      </trkpt>
      <trkpt lat="45.63961" lon="5.71726">
        <ele>758.20001220703</ele>
        <time>2019-10-08T09:48:16Z</time>
      </trkpt>
      <trkpt lat="45.63946" lon="5.71713">
        <ele>759.59997558594</ele>
        <time>2019-10-08T09:48:24Z</time>
      </trkpt>
      <trkpt lat="45.63926" lon="5.71695">
        <ele>762</ele>
        <time>2019-10-08T09:48:37Z</time>
      </trkpt>
      <trkpt lat="45.63914" lon="5.71685">
        <ele>763.59997558594</ele>
        <time>2019-10-08T09:48:45Z</time>
      </trkpt>
      <trkpt lat="45.63896" lon="5.71675">
        <ele>765.59997558594</ele>
        <time>2019-10-08T09:48:56Z</time>
      </trkpt>
      <trkpt lat="45.63879" lon="5.71672">
        <ele>767.59997558594</ele>
        <time>2019-10-08T09:49:05Z</time>
      </trkpt>
      <trkpt lat="45.63861" lon="5.71678">
        <ele>770.40002441406</ele>
        <time>2019-10-08T09:49:16Z</time>
      </trkpt>
      <trkpt lat="45.63851" lon="5.7168">
        <ele>771.59997558594</ele>
        <time>2019-10-08T09:49:23Z</time>
      </trkpt>
      <trkpt lat="45.63836" lon="5.71669">
        <ele>773.59997558594</ele>
        <time>2019-10-08T09:49:33Z</time>
      </trkpt>
      <trkpt lat="45.6383" lon="5.71659">
        <ele>774.79998779297</ele>
        <time>2019-10-08T09:49:38Z</time>
      </trkpt>
      <trkpt lat="45.63829" lon="5.71614">
        <ele>778.59997558594</ele>
        <time>2019-10-08T09:49:54Z</time>
      </trkpt>
      <trkpt lat="45.63831" lon="5.71589">
        <ele>779.79998779297</ele>
        <time>2019-10-08T09:50:01Z</time>
      </trkpt>
      <trkpt lat="45.63839" lon="5.71567">
        <ele>780.79998779297</ele>
        <time>2019-10-08T09:50:08Z</time>
      </trkpt>
      <trkpt lat="45.63861" lon="5.71535">
        <ele>782.79998779297</ele>
        <time>2019-10-08T09:50:21Z</time>
      </trkpt>
      <trkpt lat="45.63871" lon="5.71529">
        <ele>784</ele>
        <time>2019-10-08T09:50:26Z</time>
      </trkpt>
      <trkpt lat="45.63893" lon="5.71519">
        <ele>785.59997558594</ele>
        <time>2019-10-08T09:50:36Z</time>
      </trkpt>
      <trkpt lat="45.63904" lon="5.71515">
        <ele>786.59997558594</ele>
        <time>2019-10-08T09:50:41Z</time>
      </trkpt>
      <trkpt lat="45.63928" lon="5.71507">
        <ele>788</ele>
        <time>2019-10-08T09:50:50Z</time>
      </trkpt>
      <trkpt lat="45.63944" lon="5.71504">
        <ele>789.20001220703</ele>
        <time>2019-10-08T09:50:55Z</time>
      </trkpt>
      <trkpt lat="45.63958" lon="5.7148">
        <ele>791.20001220703</ele>
        <time>2019-10-08T09:51:04Z</time>
      </trkpt>
      <trkpt lat="45.63961" lon="5.71467">
        <ele>792.40002441406</ele>
        <time>2019-10-08T09:51:09Z</time>
      </trkpt>
      <trkpt lat="45.63965" lon="5.71429">
        <ele>794.79998779297</ele>
        <time>2019-10-08T09:51:20Z</time>
      </trkpt>
      <trkpt lat="45.63974" lon="5.71416">
        <ele>796</ele>
        <time>2019-10-08T09:51:25Z</time>
      </trkpt>
      <trkpt lat="45.64001" lon="5.71389">
        <ele>798.20001220703</ele>
        <time>2019-10-08T09:51:37Z</time>
      </trkpt>
      <trkpt lat="45.64003" lon="5.71362">
        <ele>799.40002441406</ele>
        <time>2019-10-08T09:51:43Z</time>
      </trkpt>
      <trkpt lat="45.63992" lon="5.7133">
        <ele>800.59997558594</ele>
        <time>2019-10-08T09:51:51Z</time>
      </trkpt>
      <trkpt lat="45.63977" lon="5.71295">
        <ele>801.40002441406</ele>
        <time>2019-10-08T09:52:00Z</time>
      </trkpt>
      <trkpt lat="45.63965" lon="5.71274">
        <ele>801.79998779297</ele>
        <time>2019-10-08T09:52:06Z</time>
      </trkpt>
      <trkpt lat="45.63949" lon="5.71271">
        <ele>803.20001220703</ele>
        <time>2019-10-08T09:52:15Z</time>
      </trkpt>
      <trkpt lat="45.63923" lon="5.71268">
        <ele>804.59997558594</ele>
        <time>2019-10-08T09:52:23Z</time>
      </trkpt>
      <trkpt lat="45.63876" lon="5.7125">
        <ele>806.79998779297</ele>
        <time>2019-10-08T09:52:36Z</time>
      </trkpt>
      <trkpt lat="45.63854" lon="5.71258">
        <ele>807.79998779297</ele>
        <time>2019-10-08T09:52:44Z</time>
      </trkpt>
      <trkpt lat="45.63814" lon="5.71293">
        <ele>809.20001220703</ele>
        <time>2019-10-08T09:53:01Z</time>
      </trkpt>
      <trkpt lat="45.63788" lon="5.71313">
        <ele>810</ele>
        <time>2019-10-08T09:53:08Z</time>
      </trkpt>
      <trkpt lat="45.63761" lon="5.71311">
        <ele>810.40002441406</ele>
        <time>2019-10-08T09:53:14Z</time>
      </trkpt>
      <trkpt lat="45.63741" lon="5.71301">
        <ele>811.40002441406</ele>
        <time>2019-10-08T09:53:20Z</time>
      </trkpt>
      <trkpt lat="45.63711" lon="5.71281">
        <ele>813.59997558594</ele>
        <time>2019-10-08T09:53:32Z</time>
      </trkpt>
      <trkpt lat="45.63689" lon="5.71263">
        <ele>815</ele>
        <time>2019-10-08T09:53:40Z</time>
      </trkpt>
      <trkpt lat="45.63671" lon="5.71252">
        <ele>816.40002441406</ele>
        <time>2019-10-08T09:53:48Z</time>
      </trkpt>
      <trkpt lat="45.63642" lon="5.71234">
        <ele>818.59997558594</ele>
        <time>2019-10-08T09:54:01Z</time>
      </trkpt>
      <trkpt lat="45.63623" lon="5.71205">
        <ele>820.20001220703</ele>
        <time>2019-10-08T09:54:11Z</time>
      </trkpt>
      <trkpt lat="45.63596" lon="5.71164">
        <ele>821.79998779297</ele>
        <time>2019-10-08T09:54:24Z</time>
      </trkpt>
      <trkpt lat="45.63568" lon="5.71147">
        <ele>822.40002441406</ele>
        <time>2019-10-08T09:54:33Z</time>
      </trkpt>
      <trkpt lat="45.63511" lon="5.71147">
        <ele>823.79998779297</ele>
        <time>2019-10-08T09:54:47Z</time>
      </trkpt>
      <trkpt lat="45.63499" lon="5.71146">
        <ele>824</ele>
        <time>2019-10-08T09:54:51Z</time>
      </trkpt>
      <trkpt lat="45.63477" lon="5.71125">
        <ele>824.40002441406</ele>
        <time>2019-10-08T09:54:59Z</time>
      </trkpt>
      <trkpt lat="45.63446" lon="5.71097">
        <ele>824.79998779297</ele>
        <time>2019-10-08T09:55:08Z</time>
      </trkpt>
      <trkpt lat="45.63383" lon="5.71051">
        <ele>825.79998779297</ele>
        <time>2019-10-08T09:55:25Z</time>
      </trkpt>
      <trkpt lat="45.63359" lon="5.71043">
        <ele>826.20001220703</ele>
        <time>2019-10-08T09:55:31Z</time>
      </trkpt>
      <trkpt lat="45.63332" lon="5.71046">
        <ele>827.79998779297</ele>
        <time>2019-10-08T09:55:41Z</time>
      </trkpt>
      <trkpt lat="45.63336" lon="5.71016">
        <ele>828.79998779297</ele>
        <time>2019-10-08T09:55:46Z</time>
      </trkpt>
      <trkpt lat="45.63351" lon="5.70998">
        <ele>830.20001220703</ele>
        <time>2019-10-08T09:55:53Z</time>
      </trkpt>
      <trkpt lat="45.63372" lon="5.7096">
        <ele>832.40002441406</ele>
        <time>2019-10-08T09:56:05Z</time>
      </trkpt>
      <trkpt lat="45.63372" lon="5.7096">
        <ele>832.79998779297</ele>
        <time>2019-10-08T09:57:12Z</time>
      </trkpt>
      <trkpt lat="45.6338" lon="5.70944">
        <ele>833</ele>
        <time>2019-10-08T09:57:16Z</time>
      </trkpt>
      <trkpt lat="45.6338" lon="5.70927">
        <ele>833</ele>
        <time>2019-10-08T09:57:21Z</time>
      </trkpt>
      <trkpt lat="45.63362" lon="5.7089">
        <ele>833</ele>
        <time>2019-10-08T09:57:29Z</time>
      </trkpt>
      <trkpt lat="45.63339" lon="5.70864">
        <ele>833</ele>
        <time>2019-10-08T09:57:34Z</time>
      </trkpt>
      <trkpt lat="45.63313" lon="5.7085">
        <ele>832</ele>
        <time>2019-10-08T09:57:39Z</time>
      </trkpt>
      <trkpt lat="45.63286" lon="5.70837">
        <ele>830.40002441406</ele>
        <time>2019-10-08T09:57:44Z</time>
      </trkpt>
      <trkpt lat="45.63283" lon="5.70809">
        <ele>829.20001220703</ele>
        <time>2019-10-08T09:57:48Z</time>
      </trkpt>
      <trkpt lat="45.6329" lon="5.70786">
        <ele>828.79998779297</ele>
        <time>2019-10-08T09:57:52Z</time>
      </trkpt>
      <trkpt lat="45.63297" lon="5.70768">
        <ele>826.40002441406</ele>
        <time>2019-10-08T09:58:37Z</time>
      </trkpt>
      <trkpt lat="45.633" lon="5.7076">
        <ele>826.59997558594</ele>
        <time>2019-10-08T09:58:41Z</time>
      </trkpt>
      <trkpt lat="45.63318" lon="5.70718">
        <ele>826</ele>
        <time>2019-10-08T09:58:51Z</time>
      </trkpt>
      <trkpt lat="45.63338" lon="5.70677">
        <ele>825.40002441406</ele>
        <time>2019-10-08T09:58:59Z</time>
      </trkpt>
      <trkpt lat="45.63382" lon="5.7062">
        <ele>824.40002441406</ele>
        <time>2019-10-08T09:59:11Z</time>
      </trkpt>
      <trkpt lat="45.63427" lon="5.70613">
        <ele>824.20001220703</ele>
        <time>2019-10-08T09:59:19Z</time>
      </trkpt>
      <trkpt lat="45.6345" lon="5.7061">
        <ele>823.79998779297</ele>
        <time>2019-10-08T09:59:24Z</time>
      </trkpt>
      <trkpt lat="45.63464" lon="5.70579">
        <ele>823</ele>
        <time>2019-10-08T09:59:29Z</time>
      </trkpt>
      <trkpt lat="45.63469" lon="5.70565">
        <ele>822.79998779297</ele>
        <time>2019-10-08T09:59:31Z</time>
      </trkpt>
      <trkpt lat="45.63502" lon="5.7052">
        <ele>821</ele>
        <time>2019-10-08T09:59:37Z</time>
      </trkpt>
      <trkpt lat="45.63515" lon="5.70504">
        <ele>820</ele>
        <time>2019-10-08T09:59:39Z</time>
      </trkpt>
      <trkpt lat="45.6355" lon="5.70458">
        <ele>815.79998779297</ele>
        <time>2019-10-08T09:59:45Z</time>
      </trkpt>
      <trkpt lat="45.63568" lon="5.70422">
        <ele>813.20001220703</ele>
        <time>2019-10-08T09:59:49Z</time>
      </trkpt>
      <trkpt lat="45.6356" lon="5.70391">
        <ele>811.20001220703</ele>
        <time>2019-10-08T09:59:52Z</time>
      </trkpt>
      <trkpt lat="45.63551" lon="5.7037">
        <ele>810</ele>
        <time>2019-10-08T09:59:54Z</time>
      </trkpt>
      <trkpt lat="45.63534" lon="5.70341">
        <ele>808.40002441406</ele>
        <time>2019-10-08T09:59:57Z</time>
      </trkpt>
      <trkpt lat="45.63514" lon="5.70312">
        <ele>806.79998779297</ele>
        <time>2019-10-08T10:00:00Z</time>
      </trkpt>
      <trkpt lat="45.63501" lon="5.70294">
        <ele>805.20001220703</ele>
        <time>2019-10-08T10:00:02Z</time>
      </trkpt>
      <trkpt lat="45.6348" lon="5.70266">
        <ele>802</ele>
        <time>2019-10-08T10:00:06Z</time>
      </trkpt>
      <trkpt lat="45.63451" lon="5.70262">
        <ele>797.79998779297</ele>
        <time>2019-10-08T10:00:10Z</time>
      </trkpt>
      <trkpt lat="45.63419" lon="5.70265">
        <ele>794.59997558594</ele>
        <time>2019-10-08T10:00:14Z</time>
      </trkpt>
      <trkpt lat="45.63396" lon="5.70277">
        <ele>792.20001220703</ele>
        <time>2019-10-08T10:00:17Z</time>
      </trkpt>
      <trkpt lat="45.63377" lon="5.70294">
        <ele>790</ele>
        <time>2019-10-08T10:00:20Z</time>
      </trkpt>
      <trkpt lat="45.63357" lon="5.70326">
        <ele>788</ele>
        <time>2019-10-08T10:00:24Z</time>
      </trkpt>
      <trkpt lat="45.63328" lon="5.7034">
        <ele>785.59997558594</ele>
        <time>2019-10-08T10:00:28Z</time>
      </trkpt>
      <trkpt lat="45.63291" lon="5.70347">
        <ele>782.59997558594</ele>
        <time>2019-10-08T10:00:32Z</time>
      </trkpt>
      <trkpt lat="45.63253" lon="5.70344">
        <ele>779.59997558594</ele>
        <time>2019-10-08T10:00:36Z</time>
      </trkpt>
      <trkpt lat="45.63215" lon="5.70343">
        <ele>776</ele>
        <time>2019-10-08T10:00:40Z</time>
      </trkpt>
      <trkpt lat="45.63176" lon="5.70345">
        <ele>771.79998779297</ele>
        <time>2019-10-08T10:00:45Z</time>
      </trkpt>
      <trkpt lat="45.63159" lon="5.70329">
        <ele>770.20001220703</ele>
        <time>2019-10-08T10:00:48Z</time>
      </trkpt>
      <trkpt lat="45.63135" lon="5.70303">
        <ele>767.40002441406</ele>
        <time>2019-10-08T10:00:52Z</time>
      </trkpt>
      <trkpt lat="45.6311" lon="5.70278">
        <ele>764.79998779297</ele>
        <time>2019-10-08T10:00:57Z</time>
      </trkpt>
      <trkpt lat="45.63103" lon="5.70274">
        <ele>761</ele>
        <time>2019-10-08T10:01:27Z</time>
      </trkpt>
      <trkpt lat="45.6309" lon="5.70268">
        <ele>760.79998779297</ele>
        <time>2019-10-08T10:01:32Z</time>
      </trkpt>
      <trkpt lat="45.63071" lon="5.70263">
        <ele>760.40002441406</ele>
        <time>2019-10-08T10:01:36Z</time>
      </trkpt>
      <trkpt lat="45.63029" lon="5.70243">
        <ele>759.59997558594</ele>
        <time>2019-10-08T10:01:42Z</time>
      </trkpt>
      <trkpt lat="45.62998" lon="5.70219">
        <ele>758.20001220703</ele>
        <time>2019-10-08T10:01:46Z</time>
      </trkpt>
      <trkpt lat="45.62926" lon="5.7018">
        <ele>753.59997558594</ele>
        <time>2019-10-08T10:01:55Z</time>
      </trkpt>
      <trkpt lat="45.62909" lon="5.7016">
        <ele>752.20001220703</ele>
        <time>2019-10-08T10:01:58Z</time>
      </trkpt>
      <trkpt lat="45.62884" lon="5.7012">
        <ele>750.40002441406</ele>
        <time>2019-10-08T10:02:03Z</time>
      </trkpt>
      <trkpt lat="45.62864" lon="5.70074">
        <ele>748.59997558594</ele>
        <time>2019-10-08T10:02:08Z</time>
      </trkpt>
      <trkpt lat="45.62835" lon="5.69999">
        <ele>745.20001220703</ele>
        <time>2019-10-08T10:02:16Z</time>
      </trkpt>
      <trkpt lat="45.62818" lon="5.69956">
        <ele>743.40002441406</ele>
        <time>2019-10-08T10:02:21Z</time>
      </trkpt>
      <trkpt lat="45.62795" lon="5.69906">
        <ele>740.79998779297</ele>
        <time>2019-10-08T10:02:27Z</time>
      </trkpt>
      <trkpt lat="45.62782" lon="5.69874">
        <ele>739.40002441406</ele>
        <time>2019-10-08T10:02:31Z</time>
      </trkpt>
      <trkpt lat="45.62781" lon="5.69861">
        <ele>738.40002441406</ele>
        <time>2019-10-08T10:02:33Z</time>
      </trkpt>
      <trkpt lat="45.62776" lon="5.69847">
        <ele>736.20001220703</ele>
        <time>2019-10-08T10:02:38Z</time>
      </trkpt>
      <trkpt lat="45.62775" lon="5.69842">
        <ele>735</ele>
        <time>2019-10-08T10:02:41Z</time>
      </trkpt>
      <trkpt lat="45.62764" lon="5.69822">
        <ele>733</ele>
        <time>2019-10-08T10:02:46Z</time>
      </trkpt>
      <trkpt lat="45.62751" lon="5.69812">
        <ele>732.79998779297</ele>
        <time>2019-10-08T10:02:49Z</time>
      </trkpt>
      <trkpt lat="45.62737" lon="5.69807">
        <ele>730.59997558594</ele>
        <time>2019-10-08T10:02:53Z</time>
      </trkpt>
      <trkpt lat="45.62717" lon="5.69812">
        <ele>728.20001220703</ele>
        <time>2019-10-08T10:02:59Z</time>
      </trkpt>
      <trkpt lat="45.627" lon="5.69815">
        <ele>726.20001220703</ele>
        <time>2019-10-08T10:03:03Z</time>
      </trkpt>
      <trkpt lat="45.62692" lon="5.69811">
        <ele>725.20001220703</ele>
        <time>2019-10-08T10:03:05Z</time>
      </trkpt>
      <trkpt lat="45.62668" lon="5.69802">
        <ele>722.40002441406</ele>
        <time>2019-10-08T10:03:09Z</time>
      </trkpt>
      <trkpt lat="45.62633" lon="5.69792">
        <ele>718.59997558594</ele>
        <time>2019-10-08T10:03:14Z</time>
      </trkpt>
      <trkpt lat="45.62601" lon="5.69791">
        <ele>714.40002441406</ele>
        <time>2019-10-08T10:03:21Z</time>
      </trkpt>
      <trkpt lat="45.62587" lon="5.69805">
        <ele>711.79998779297</ele>
        <time>2019-10-08T10:03:27Z</time>
      </trkpt>
      <trkpt lat="45.62587" lon="5.69805">
        <ele>711.20001220703</ele>
        <time>2019-10-08T10:04:30Z</time>
      </trkpt>
      <trkpt lat="45.62595" lon="5.69797">
        <ele>711.40002441406</ele>
        <time>2019-10-08T10:04:37Z</time>
      </trkpt>
      <trkpt lat="45.62605" lon="5.69779">
        <ele>711</ele>
        <time>2019-10-08T10:04:42Z</time>
      </trkpt>
      <trkpt lat="45.62585" lon="5.69705">
        <ele>709.79998779297</ele>
        <time>2019-10-08T10:04:52Z</time>
      </trkpt>
      <trkpt lat="45.62583" lon="5.69669">
        <ele>708.79998779297</ele>
        <time>2019-10-08T10:04:56Z</time>
      </trkpt>
      <trkpt lat="45.62579" lon="5.69648">
        <ele>708.20001220703</ele>
        <time>2019-10-08T10:04:59Z</time>
      </trkpt>
      <trkpt lat="45.62571" lon="5.6965">
        <ele>707.79998779297</ele>
        <time>2019-10-08T10:05:01Z</time>
      </trkpt>
      <trkpt lat="45.62523" lon="5.69664">
        <ele>705.59997558594</ele>
        <time>2019-10-08T10:05:10Z</time>
      </trkpt>
      <trkpt lat="45.62474" lon="5.69676">
        <ele>704.59997558594</ele>
        <time>2019-10-08T10:05:18Z</time>
      </trkpt>
      <trkpt lat="45.62441" lon="5.69667">
        <ele>704.40002441406</ele>
        <time>2019-10-08T10:05:24Z</time>
      </trkpt>
      <trkpt lat="45.62422" lon="5.69651">
        <ele>704</ele>
        <time>2019-10-08T10:05:28Z</time>
      </trkpt>
      <trkpt lat="45.62368" lon="5.69615">
        <ele>703.79998779297</ele>
        <time>2019-10-08T10:05:39Z</time>
      </trkpt>
      <trkpt lat="45.62323" lon="5.69605">
        <ele>703.79998779297</ele>
        <time>2019-10-08T10:05:49Z</time>
      </trkpt>
      <trkpt lat="45.62292" lon="5.69623">
        <ele>705.59997558594</ele>
        <time>2019-10-08T10:06:00Z</time>
      </trkpt>
      <trkpt lat="45.6225" lon="5.69667">
        <ele>707</ele>
        <time>2019-10-08T10:06:14Z</time>
      </trkpt>
      <trkpt lat="45.62222" lon="5.69672">
        <ele>707</ele>
        <time>2019-10-08T10:06:21Z</time>
      </trkpt>
      <trkpt lat="45.62185" lon="5.69673">
        <ele>706.79998779297</ele>
        <time>2019-10-08T10:06:28Z</time>
      </trkpt>
      <trkpt lat="45.62149" lon="5.69675">
        <ele>706</ele>
        <time>2019-10-08T10:06:33Z</time>
      </trkpt>
      <trkpt lat="45.6212" lon="5.6968">
        <ele>704.79998779297</ele>
        <time>2019-10-08T10:06:37Z</time>
      </trkpt>
      <trkpt lat="45.6211" lon="5.69691">
        <ele>704</ele>
        <time>2019-10-08T10:06:39Z</time>
      </trkpt>
      <trkpt lat="45.62098" lon="5.69717">
        <ele>702.59997558594</ele>
        <time>2019-10-08T10:06:42Z</time>
      </trkpt>
      <trkpt lat="45.6208" lon="5.69757">
        <ele>700.79998779297</ele>
        <time>2019-10-08T10:06:46Z</time>
      </trkpt>
      <trkpt lat="45.62062" lon="5.69796">
        <ele>698.40002441406</ele>
        <time>2019-10-08T10:06:50Z</time>
      </trkpt>
      <trkpt lat="45.62049" lon="5.69816">
        <ele>696</ele>
        <time>2019-10-08T10:06:53Z</time>
      </trkpt>
      <trkpt lat="45.62032" lon="5.6983">
        <ele>692.79998779297</ele>
        <time>2019-10-08T10:06:57Z</time>
      </trkpt>
      <trkpt lat="45.6202" lon="5.69838">
        <ele>690.59997558594</ele>
        <time>2019-10-08T10:07:00Z</time>
      </trkpt>
      <trkpt lat="45.62026" lon="5.69862">
        <ele>687.59997558594</ele>
        <time>2019-10-08T10:07:05Z</time>
      </trkpt>
      <trkpt lat="45.62029" lon="5.69868">
        <ele>687</ele>
        <time>2019-10-08T10:07:08Z</time>
      </trkpt>
      <trkpt lat="45.62033" lon="5.69878">
        <ele>687</ele>
        <time>2019-10-08T10:07:12Z</time>
      </trkpt>
      <trkpt lat="45.62038" lon="5.69889">
        <ele>687.20001220703</ele>
        <time>2019-10-08T10:07:17Z</time>
      </trkpt>
      <trkpt lat="45.62041" lon="5.69897">
        <ele>688.20001220703</ele>
        <time>2019-10-08T10:07:21Z</time>
      </trkpt>
      <trkpt lat="45.62041" lon="5.69914">
        <ele>690.20001220703</ele>
        <time>2019-10-08T10:07:28Z</time>
      </trkpt>
      <trkpt lat="45.62036" lon="5.69924">
        <ele>691</ele>
        <time>2019-10-08T10:07:33Z</time>
      </trkpt>
      <trkpt lat="45.62027" lon="5.69939">
        <ele>692.40002441406</ele>
        <time>2019-10-08T10:07:40Z</time>
      </trkpt>
      <trkpt lat="45.6202" lon="5.69956">
        <ele>694</ele>
        <time>2019-10-08T10:07:48Z</time>
      </trkpt>
      <trkpt lat="45.62018" lon="5.69987">
        <ele>695.59997558594</ele>
        <time>2019-10-08T10:07:59Z</time>
      </trkpt>
      <trkpt lat="45.62017" lon="5.70007">
        <ele>697</ele>
        <time>2019-10-08T10:08:07Z</time>
      </trkpt>
      <trkpt lat="45.62015" lon="5.7004">
        <ele>699.59997558594</ele>
        <time>2019-10-08T10:08:21Z</time>
      </trkpt>
      <trkpt lat="45.62008" lon="5.70062">
        <ele>701.40002441406</ele>
        <time>2019-10-08T10:08:31Z</time>
      </trkpt>
      <trkpt lat="45.61996" lon="5.70085">
        <ele>703.40002441406</ele>
        <time>2019-10-08T10:08:43Z</time>
      </trkpt>
      <trkpt lat="45.61985" lon="5.7011">
        <ele>705</ele>
        <time>2019-10-08T10:08:54Z</time>
      </trkpt>
      <trkpt lat="45.61983" lon="5.70128">
        <ele>705.79998779297</ele>
        <time>2019-10-08T10:09:01Z</time>
      </trkpt>
      <trkpt lat="45.61979" lon="5.70154">
        <ele>707.79998779297</ele>
        <time>2019-10-08T10:09:12Z</time>
      </trkpt>
      <trkpt lat="45.61975" lon="5.70182">
        <ele>710</ele>
        <time>2019-10-08T10:09:24Z</time>
      </trkpt>
      <trkpt lat="45.61958" lon="5.7021">
        <ele>713</ele>
        <time>2019-10-08T10:09:39Z</time>
      </trkpt>
      <trkpt lat="45.61948" lon="5.70226">
        <ele>714.40002441406</ele>
        <time>2019-10-08T10:09:47Z</time>
      </trkpt>
      <trkpt lat="45.61935" lon="5.70246">
        <ele>716.40002441406</ele>
        <time>2019-10-08T10:09:58Z</time>
      </trkpt>
      <trkpt lat="45.61928" lon="5.70253">
        <ele>718</ele>
        <time>2019-10-08T10:10:05Z</time>
      </trkpt>
      <trkpt lat="45.61903" lon="5.70277">
        <ele>720.59997558594</ele>
        <time>2019-10-08T10:10:21Z</time>
      </trkpt>
      <trkpt lat="45.6189" lon="5.7029">
        <ele>721.59997558594</ele>
        <time>2019-10-08T10:10:28Z</time>
      </trkpt>
      <trkpt lat="45.61867" lon="5.70314">
        <ele>723.79998779297</ele>
        <time>2019-10-08T10:10:42Z</time>
      </trkpt>
      <trkpt lat="45.61854" lon="5.70327">
        <ele>724.79998779297</ele>
        <time>2019-10-08T10:10:50Z</time>
      </trkpt>
      <trkpt lat="45.61827" lon="5.70356">
        <ele>726.79998779297</ele>
        <time>2019-10-08T10:11:04Z</time>
      </trkpt>
      <trkpt lat="45.61821" lon="5.70364">
        <ele>727.59997558594</ele>
        <time>2019-10-08T10:11:08Z</time>
      </trkpt>
      <trkpt lat="45.61803" lon="5.70385">
        <ele>729.59997558594</ele>
        <time>2019-10-08T10:11:18Z</time>
      </trkpt>
      <trkpt lat="45.61783" lon="5.70409">
        <ele>731.59997558594</ele>
        <time>2019-10-08T10:11:30Z</time>
      </trkpt>
      <trkpt lat="45.61768" lon="5.70432">
        <ele>733.20001220703</ele>
        <time>2019-10-08T10:11:40Z</time>
      </trkpt>
      <trkpt lat="45.61748" lon="5.70461">
        <ele>734.59997558594</ele>
        <time>2019-10-08T10:11:52Z</time>
      </trkpt>
      <trkpt lat="45.61733" lon="5.70479">
        <ele>736.20001220703</ele>
        <time>2019-10-08T10:12:00Z</time>
      </trkpt>
      <trkpt lat="45.617" lon="5.70525">
        <ele>739.20001220703</ele>
        <time>2019-10-08T10:12:21Z</time>
      </trkpt>
      <trkpt lat="45.61683" lon="5.70561">
        <ele>740.79998779297</ele>
        <time>2019-10-08T10:12:33Z</time>
      </trkpt>
      <trkpt lat="45.61667" lon="5.706">
        <ele>742.40002441406</ele>
        <time>2019-10-08T10:12:46Z</time>
      </trkpt>
      <trkpt lat="45.61656" lon="5.70624">
        <ele>743.59997558594</ele>
        <time>2019-10-08T10:12:54Z</time>
      </trkpt>
      <trkpt lat="45.61635" lon="5.7067">
        <ele>745.59997558594</ele>
        <time>2019-10-08T10:13:09Z</time>
      </trkpt>
      <trkpt lat="45.61621" lon="5.707">
        <ele>746.79998779297</ele>
        <time>2019-10-08T10:13:16Z</time>
      </trkpt>
      <trkpt lat="45.61598" lon="5.70751">
        <ele>748.59997558594</ele>
        <time>2019-10-08T10:13:28Z</time>
      </trkpt>
      <trkpt lat="45.61581" lon="5.70789">
        <ele>750.20001220703</ele>
        <time>2019-10-08T10:13:38Z</time>
      </trkpt>
      <trkpt lat="45.61564" lon="5.70827">
        <ele>752.79998779297</ele>
        <time>2019-10-08T10:13:49Z</time>
      </trkpt>
      <trkpt lat="45.61529" lon="5.70882">
        <ele>755.20001220703</ele>
        <time>2019-10-08T10:14:05Z</time>
      </trkpt>
      <trkpt lat="45.61509" lon="5.7091">
        <ele>755.59997558594</ele>
        <time>2019-10-08T10:14:13Z</time>
      </trkpt>
      <trkpt lat="45.61472" lon="5.70963">
        <ele>758</ele>
        <time>2019-10-08T10:14:29Z</time>
      </trkpt>
      <trkpt lat="45.61454" lon="5.70989">
        <ele>758.79998779297</ele>
        <time>2019-10-08T10:14:36Z</time>
      </trkpt>
      <trkpt lat="45.61414" lon="5.71056">
        <ele>761.79998779297</ele>
        <time>2019-10-08T10:14:52Z</time>
      </trkpt>
      <trkpt lat="45.61395" lon="5.71096">
        <ele>762.59997558594</ele>
        <time>2019-10-08T10:15:01Z</time>
      </trkpt>
      <trkpt lat="45.61359" lon="5.71175">
        <ele>763.40002441406</ele>
        <time>2019-10-08T10:15:17Z</time>
      </trkpt>
      <trkpt lat="45.61357" lon="5.71197">
        <ele>763.20001220703</ele>
        <time>2019-10-08T10:15:23Z</time>
      </trkpt>
      <trkpt lat="45.61357" lon="5.71207">
        <ele>763.20001220703</ele>
        <time>2019-10-08T10:15:56Z</time>
      </trkpt>
      <trkpt lat="45.61356" lon="5.71214">
        <ele>763</ele>
        <time>2019-10-08T10:16:02Z</time>
      </trkpt>
      <trkpt lat="45.61355" lon="5.71244">
        <ele>762.79998779297</ele>
        <time>2019-10-08T10:16:41Z</time>
      </trkpt>
      <trkpt lat="45.61354" lon="5.71266">
        <ele>763</ele>
        <time>2019-10-08T10:16:46Z</time>
      </trkpt>
      <trkpt lat="45.61362" lon="5.71346">
        <ele>762.59997558594</ele>
        <time>2019-10-08T10:17:01Z</time>
      </trkpt>
      <trkpt lat="45.61366" lon="5.71382">
        <ele>762.79998779297</ele>
        <time>2019-10-08T10:17:09Z</time>
      </trkpt>
      <trkpt lat="45.61366" lon="5.71412">
        <ele>763.59997558594</ele>
        <time>2019-10-08T10:17:15Z</time>
      </trkpt>
      <trkpt lat="45.61355" lon="5.71459">
        <ele>764.79998779297</ele>
        <time>2019-10-08T10:17:25Z</time>
      </trkpt>
      <trkpt lat="45.61353" lon="5.71466">
        <ele>765.40002441406</ele>
        <time>2019-10-08T10:17:28Z</time>
      </trkpt>
      <trkpt lat="45.6135" lon="5.71479">
        <ele>766.79998779297</ele>
        <time>2019-10-08T10:18:03Z</time>
      </trkpt>
      <trkpt lat="45.61346" lon="5.71494">
        <ele>766.79998779297</ele>
        <time>2019-10-08T10:18:08Z</time>
      </trkpt>
      <trkpt lat="45.61336" lon="5.71535">
        <ele>767</ele>
        <time>2019-10-08T10:18:16Z</time>
      </trkpt>
      <trkpt lat="45.61323" lon="5.71608">
        <ele>767.79998779297</ele>
        <time>2019-10-08T10:18:27Z</time>
      </trkpt>
      <trkpt lat="45.61304" lon="5.71693">
        <ele>768.20001220703</ele>
        <time>2019-10-08T10:18:40Z</time>
      </trkpt>
      <trkpt lat="45.61304" lon="5.71723">
        <ele>768</ele>
        <time>2019-10-08T10:18:43Z</time>
      </trkpt>
      <trkpt lat="45.6131" lon="5.71765">
        <ele>767.20001220703</ele>
        <time>2019-10-08T10:18:47Z</time>
      </trkpt>
      <trkpt lat="45.61316" lon="5.718">
        <ele>765.79998779297</ele>
        <time>2019-10-08T10:18:50Z</time>
      </trkpt>
      <trkpt lat="45.61313" lon="5.71899">
        <ele>760.59997558594</ele>
        <time>2019-10-08T10:18:59Z</time>
      </trkpt>
      <trkpt lat="45.613" lon="5.71949">
        <ele>760.40002441406</ele>
        <time>2019-10-08T10:19:06Z</time>
      </trkpt>
      <trkpt lat="45.61298" lon="5.71971">
        <ele>760.40002441406</ele>
        <time>2019-10-08T10:19:10Z</time>
      </trkpt>
      <trkpt lat="45.61302" lon="5.72015">
        <ele>760.59997558594</ele>
        <time>2019-10-08T10:19:18Z</time>
      </trkpt>
      <trkpt lat="45.61291" lon="5.72025">
        <ele>761.20001220703</ele>
        <time>2019-10-08T10:19:23Z</time>
      </trkpt>
      <trkpt lat="45.61261" lon="5.72034">
        <ele>761.20001220703</ele>
        <time>2019-10-08T10:19:30Z</time>
      </trkpt>
      <trkpt lat="45.6123" lon="5.72044">
        <ele>761</ele>
        <time>2019-10-08T10:19:37Z</time>
      </trkpt>
      <trkpt lat="45.61147" lon="5.72037">
        <ele>760</ele>
        <time>2019-10-08T10:19:54Z</time>
      </trkpt>
      <trkpt lat="45.61085" lon="5.72048">
        <ele>759.40002441406</ele>
        <time>2019-10-08T10:20:06Z</time>
      </trkpt>
      <trkpt lat="45.61043" lon="5.72072">
        <ele>759</ele>
        <time>2019-10-08T10:20:15Z</time>
      </trkpt>
      <trkpt lat="45.61035" lon="5.7208">
        <ele>758.79998779297</ele>
        <time>2019-10-08T10:20:18Z</time>
      </trkpt>
      <trkpt lat="45.61029" lon="5.72093">
        <ele>759.20001220703</ele>
        <time>2019-10-08T10:20:22Z</time>
      </trkpt>
      <trkpt lat="45.61027" lon="5.72107">
        <ele>760</ele>
        <time>2019-10-08T10:20:26Z</time>
      </trkpt>
      <trkpt lat="45.61026" lon="5.72136">
        <ele>762.20001220703</ele>
        <time>2019-10-08T10:20:34Z</time>
      </trkpt>
      <trkpt lat="45.61025" lon="5.72146">
        <ele>763.20001220703</ele>
        <time>2019-10-08T10:20:37Z</time>
      </trkpt>
      <trkpt lat="45.61017" lon="5.72175">
        <ele>764.79998779297</ele>
        <time>2019-10-08T10:20:46Z</time>
      </trkpt>
      <trkpt lat="45.60986" lon="5.72211">
        <ele>767.40002441406</ele>
        <time>2019-10-08T10:21:00Z</time>
      </trkpt>
      <trkpt lat="45.60987" lon="5.72236">
        <ele>768.40002441406</ele>
        <time>2019-10-08T10:21:05Z</time>
      </trkpt>
      <trkpt lat="45.60992" lon="5.72312">
        <ele>769.79998779297</ele>
        <time>2019-10-08T10:21:20Z</time>
      </trkpt>
      <trkpt lat="45.60985" lon="5.7234">
        <ele>770.40002441406</ele>
        <time>2019-10-08T10:21:26Z</time>
      </trkpt>
      <trkpt lat="45.60953" lon="5.72392">
        <ele>771.40002441406</ele>
        <time>2019-10-08T10:21:38Z</time>
      </trkpt>
      <trkpt lat="45.60913" lon="5.7245">
        <ele>773</ele>
        <time>2019-10-08T10:21:52Z</time>
      </trkpt>
      <trkpt lat="45.60901" lon="5.72485">
        <ele>773.59997558594</ele>
        <time>2019-10-08T10:21:59Z</time>
      </trkpt>
      <trkpt lat="45.60901" lon="5.72515">
        <ele>774</ele>
        <time>2019-10-08T10:22:04Z</time>
      </trkpt>
      <trkpt lat="45.60887" lon="5.72541">
        <ele>773.79998779297</ele>
        <time>2019-10-08T10:22:09Z</time>
      </trkpt>
      <trkpt lat="45.60872" lon="5.72552">
        <ele>773.79998779297</ele>
        <time>2019-10-08T10:22:12Z</time>
      </trkpt>
      <trkpt lat="45.60871" lon="5.72565">
        <ele>771.79998779297</ele>
        <time>2019-10-08T10:22:16Z</time>
      </trkpt>
      <trkpt lat="45.60883" lon="5.72568">
        <ele>769.59997558594</ele>
        <time>2019-10-08T10:22:19Z</time>
      </trkpt>
      <trkpt lat="45.60905" lon="5.72586">
        <ele>768</ele>
        <time>2019-10-08T10:22:22Z</time>
      </trkpt>
      <trkpt lat="45.60931" lon="5.72629">
        <ele>766.40002441406</ele>
        <time>2019-10-08T10:22:26Z</time>
      </trkpt>
      <trkpt lat="45.60945" lon="5.72652">
        <ele>765.40002441406</ele>
        <time>2019-10-08T10:22:28Z</time>
      </trkpt>
      <trkpt lat="45.60974" lon="5.72709">
        <ele>761.79998779297</ele>
        <time>2019-10-08T10:22:33Z</time>
      </trkpt>
      <trkpt lat="45.60985" lon="5.72728">
        <ele>760.20001220703</ele>
        <time>2019-10-08T10:22:35Z</time>
      </trkpt>
      <trkpt lat="45.61015" lon="5.72757">
        <ele>756.20001220703</ele>
        <time>2019-10-08T10:22:39Z</time>
      </trkpt>
      <trkpt lat="45.61041" lon="5.72776">
        <ele>753.40002441406</ele>
        <time>2019-10-08T10:22:42Z</time>
      </trkpt>
      <trkpt lat="45.61088" lon="5.72802">
        <ele>750.20001220703</ele>
        <time>2019-10-08T10:22:47Z</time>
      </trkpt>
      <trkpt lat="45.61116" lon="5.72818">
        <ele>748.59997558594</ele>
        <time>2019-10-08T10:22:50Z</time>
      </trkpt>
      <trkpt lat="45.61148" lon="5.72833">
        <ele>745.40002441406</ele>
        <time>2019-10-08T10:22:54Z</time>
      </trkpt>
      <trkpt lat="45.61152" lon="5.72834">
        <ele>743.59997558594</ele>
        <time>2019-10-08T10:22:56Z</time>
      </trkpt>
      <trkpt lat="45.61148" lon="5.7285">
        <ele>739</ele>
        <time>2019-10-08T10:23:01Z</time>
      </trkpt>
      <trkpt lat="45.61129" lon="5.72848">
        <ele>736.20001220703</ele>
        <time>2019-10-08T10:23:05Z</time>
      </trkpt>
      <trkpt lat="45.61117" lon="5.72846">
        <ele>730.20001220703</ele>
        <time>2019-10-08T10:23:58Z</time>
      </trkpt>
      <trkpt lat="45.61099" lon="5.72843">
        <ele>729.79998779297</ele>
        <time>2019-10-08T10:24:03Z</time>
      </trkpt>
      <trkpt lat="45.61079" lon="5.72843">
        <ele>729.40002441406</ele>
        <time>2019-10-08T10:24:06Z</time>
      </trkpt>
      <trkpt lat="45.61048" lon="5.72847">
        <ele>728.79998779297</ele>
        <time>2019-10-08T10:24:10Z</time>
      </trkpt>
      <trkpt lat="45.61045" lon="5.72858">
        <ele>728.20001220703</ele>
        <time>2019-10-08T10:24:12Z</time>
      </trkpt>
      <trkpt lat="45.61055" lon="5.72864">
        <ele>726.59997558594</ele>
        <time>2019-10-08T10:24:15Z</time>
      </trkpt>
      <trkpt lat="45.61071" lon="5.72863">
        <ele>724.79998779297</ele>
        <time>2019-10-08T10:24:18Z</time>
      </trkpt>
      <trkpt lat="45.61118" lon="5.72875">
        <ele>721.79998779297</ele>
        <time>2019-10-08T10:24:23Z</time>
      </trkpt>
      <trkpt lat="45.6116" lon="5.72913">
        <ele>718.79998779297</ele>
        <time>2019-10-08T10:24:28Z</time>
      </trkpt>
      <trkpt lat="45.612" lon="5.72963">
        <ele>716.59997558594</ele>
        <time>2019-10-08T10:24:33Z</time>
      </trkpt>
      <trkpt lat="45.61207" lon="5.7299">
        <ele>715.59997558594</ele>
        <time>2019-10-08T10:24:35Z</time>
      </trkpt>
      <trkpt lat="45.61211" lon="5.73034">
        <ele>713.59997558594</ele>
        <time>2019-10-08T10:24:38Z</time>
      </trkpt>
      <trkpt lat="45.61211" lon="5.73066">
        <ele>712.40002441406</ele>
        <time>2019-10-08T10:24:40Z</time>
      </trkpt>
      <trkpt lat="45.61208" lon="5.73109">
        <ele>709.40002441406</ele>
        <time>2019-10-08T10:24:43Z</time>
      </trkpt>
      <trkpt lat="45.61192" lon="5.73147">
        <ele>707.59997558594</ele>
        <time>2019-10-08T10:24:45Z</time>
      </trkpt>
      <trkpt lat="45.61173" lon="5.73192">
        <ele>704</ele>
        <time>2019-10-08T10:24:48Z</time>
      </trkpt>
      <trkpt lat="45.61153" lon="5.73239">
        <ele>700.40002441406</ele>
        <time>2019-10-08T10:24:51Z</time>
      </trkpt>
      <trkpt lat="45.61141" lon="5.73267">
        <ele>697.79998779297</ele>
        <time>2019-10-08T10:24:53Z</time>
      </trkpt>
      <trkpt lat="45.6113" lon="5.73303">
        <ele>693.59997558594</ele>
        <time>2019-10-08T10:24:57Z</time>
      </trkpt>
      <trkpt lat="45.61124" lon="5.73317">
        <ele>690.59997558594</ele>
        <time>2019-10-08T10:24:59Z</time>
      </trkpt>
      <trkpt lat="45.61107" lon="5.73274">
        <ele>683.20001220703</ele>
        <time>2019-10-08T10:25:05Z</time>
      </trkpt>
      <trkpt lat="45.61105" lon="5.73263">
        <ele>681</ele>
        <time>2019-10-08T10:25:07Z</time>
      </trkpt>
      <trkpt lat="45.61092" lon="5.73265">
        <ele>678.20001220703</ele>
        <time>2019-10-08T10:25:11Z</time>
      </trkpt>
      <trkpt lat="45.61088" lon="5.7328">
        <ele>677.20001220703</ele>
        <time>2019-10-08T10:25:13Z</time>
      </trkpt>
      <trkpt lat="45.61079" lon="5.7331">
        <ele>674.40002441406</ele>
        <time>2019-10-08T10:25:17Z</time>
      </trkpt>
      <trkpt lat="45.61072" lon="5.73326">
        <ele>672.20001220703</ele>
        <time>2019-10-08T10:25:21Z</time>
      </trkpt>
      <trkpt lat="45.61042" lon="5.73322">
        <ele>668.79998779297</ele>
        <time>2019-10-08T10:25:27Z</time>
      </trkpt>
      <trkpt lat="45.61027" lon="5.73317">
        <ele>668.20001220703</ele>
        <time>2019-10-08T10:25:29Z</time>
      </trkpt>
      <trkpt lat="45.61015" lon="5.73317">
        <ele>667.79998779297</ele>
        <time>2019-10-08T10:25:31Z</time>
      </trkpt>
      <trkpt lat="45.61008" lon="5.73333">
        <ele>666.59997558594</ele>
        <time>2019-10-08T10:25:34Z</time>
      </trkpt>
      <trkpt lat="45.61006" lon="5.73351">
        <ele>665.40002441406</ele>
        <time>2019-10-08T10:25:36Z</time>
      </trkpt>
      <trkpt lat="45.61013" lon="5.73399">
        <ele>663</ele>
        <time>2019-10-08T10:25:40Z</time>
      </trkpt>
      <trkpt lat="45.61015" lon="5.73438">
        <ele>660.59997558594</ele>
        <time>2019-10-08T10:25:44Z</time>
      </trkpt>
      <trkpt lat="45.61" lon="5.73433">
        <ele>658.40002441406</ele>
        <time>2019-10-08T10:25:48Z</time>
      </trkpt>
      <trkpt lat="45.60993" lon="5.73404">
        <ele>655.20001220703</ele>
        <time>2019-10-08T10:25:51Z</time>
      </trkpt>
      <trkpt lat="45.60973" lon="5.73363">
        <ele>652</ele>
        <time>2019-10-08T10:25:55Z</time>
      </trkpt>
      <trkpt lat="45.60961" lon="5.73341">
        <ele>650.59997558594</ele>
        <time>2019-10-08T10:25:57Z</time>
      </trkpt>
      <trkpt lat="45.60935" lon="5.73318">
        <ele>647.79998779297</ele>
        <time>2019-10-08T10:26:01Z</time>
      </trkpt>
      <trkpt lat="45.60905" lon="5.73326">
        <ele>644.59997558594</ele>
        <time>2019-10-08T10:26:05Z</time>
      </trkpt>
      <trkpt lat="45.60867" lon="5.73344">
        <ele>640.79998779297</ele>
        <time>2019-10-08T10:26:09Z</time>
      </trkpt>
      <trkpt lat="45.60848" lon="5.73352">
        <ele>640</ele>
        <time>2019-10-08T10:26:11Z</time>
      </trkpt>
      <trkpt lat="45.60799" lon="5.73364">
        <ele>635.20001220703</ele>
        <time>2019-10-08T10:26:17Z</time>
      </trkpt>
      <trkpt lat="45.60777" lon="5.73378">
        <ele>631.40002441406</ele>
        <time>2019-10-08T10:26:21Z</time>
      </trkpt>
      <trkpt lat="45.60758" lon="5.73393">
        <ele>630.40002441406</ele>
        <time>2019-10-08T10:26:25Z</time>
      </trkpt>
      <trkpt lat="45.60728" lon="5.73413">
        <ele>630.40002441406</ele>
        <time>2019-10-08T10:26:32Z</time>
      </trkpt>
      <trkpt lat="45.60707" lon="5.73427">
        <ele>631</ele>
        <time>2019-10-08T10:26:37Z</time>
      </trkpt>
      <trkpt lat="45.60673" lon="5.73449">
        <ele>631.59997558594</ele>
        <time>2019-10-08T10:26:45Z</time>
      </trkpt>
      <trkpt lat="45.60624" lon="5.73484">
        <ele>632.59997558594</ele>
        <time>2019-10-08T10:26:56Z</time>
      </trkpt>
      <trkpt lat="45.60558" lon="5.73536">
        <ele>632.40002441406</ele>
        <time>2019-10-08T10:27:10Z</time>
      </trkpt>
      <trkpt lat="45.60534" lon="5.73533">
        <ele>632</ele>
        <time>2019-10-08T10:27:14Z</time>
      </trkpt>
      <trkpt lat="45.60479" lon="5.73519">
        <ele>631.20001220703</ele>
        <time>2019-10-08T10:27:23Z</time>
      </trkpt>
      <trkpt lat="45.60452" lon="5.73517">
        <ele>630.59997558594</ele>
        <time>2019-10-08T10:27:28Z</time>
      </trkpt>
      <trkpt lat="45.60384" lon="5.73526">
        <ele>629.20001220703</ele>
        <time>2019-10-08T10:27:40Z</time>
      </trkpt>
      <trkpt lat="45.60323" lon="5.73539">
        <ele>627.79998779297</ele>
        <time>2019-10-08T10:27:50Z</time>
      </trkpt>
      <trkpt lat="45.60286" lon="5.73542">
        <ele>627.20001220703</ele>
        <time>2019-10-08T10:27:55Z</time>
      </trkpt>
      <trkpt lat="45.60255" lon="5.73537">
        <ele>626.20001220703</ele>
        <time>2019-10-08T10:27:59Z</time>
      </trkpt>
      <trkpt lat="45.60242" lon="5.73531">
        <ele>625.59997558594</ele>
        <time>2019-10-08T10:28:01Z</time>
      </trkpt>
      <trkpt lat="45.60194" lon="5.73491">
        <ele>622</ele>
        <time>2019-10-08T10:28:08Z</time>
      </trkpt>
      <trkpt lat="45.60174" lon="5.73465">
        <ele>620.59997558594</ele>
        <time>2019-10-08T10:28:11Z</time>
      </trkpt>
      <trkpt lat="45.60146" lon="5.73419">
        <ele>618.20001220703</ele>
        <time>2019-10-08T10:28:16Z</time>
      </trkpt>
      <trkpt lat="45.60128" lon="5.7339">
        <ele>617</ele>
        <time>2019-10-08T10:28:19Z</time>
      </trkpt>
      <trkpt lat="45.60086" lon="5.73337">
        <ele>614.20001220703</ele>
        <time>2019-10-08T10:28:25Z</time>
      </trkpt>
      <trkpt lat="45.60059" lon="5.73332">
        <ele>612.40002441406</ele>
        <time>2019-10-08T10:28:28Z</time>
      </trkpt>
      <trkpt lat="45.59991" lon="5.73296">
        <ele>608.40002441406</ele>
        <time>2019-10-08T10:28:36Z</time>
      </trkpt>
      <trkpt lat="45.59956" lon="5.73279">
        <ele>606.59997558594</ele>
        <time>2019-10-08T10:28:40Z</time>
      </trkpt>
      <trkpt lat="45.59883" lon="5.73237">
        <ele>603.40002441406</ele>
        <time>2019-10-08T10:28:49Z</time>
      </trkpt>
      <trkpt lat="45.59854" lon="5.73216">
        <ele>601.40002441406</ele>
        <time>2019-10-08T10:28:53Z</time>
      </trkpt>
      <trkpt lat="45.59807" lon="5.73213">
        <ele>599.79998779297</ele>
        <time>2019-10-08T10:28:59Z</time>
      </trkpt>
      <trkpt lat="45.59773" lon="5.73212">
        <ele>599.40002441406</ele>
        <time>2019-10-08T10:29:04Z</time>
      </trkpt>
      <trkpt lat="45.59731" lon="5.73207">
        <ele>599.40002441406</ele>
        <time>2019-10-08T10:29:11Z</time>
      </trkpt>
      <trkpt lat="45.59681" lon="5.73197">
        <ele>599.40002441406</ele>
        <time>2019-10-08T10:29:20Z</time>
      </trkpt>
      <trkpt lat="45.59617" lon="5.73184">
        <ele>599</ele>
        <time>2019-10-08T10:29:31Z</time>
      </trkpt>
      <trkpt lat="45.59549" lon="5.73162">
        <ele>598.20001220703</ele>
        <time>2019-10-08T10:29:42Z</time>
      </trkpt>
      <trkpt lat="45.59489" lon="5.73144">
        <ele>597.20001220703</ele>
        <time>2019-10-08T10:29:52Z</time>
      </trkpt>
      <trkpt lat="45.59438" lon="5.7314">
        <ele>596.59997558594</ele>
        <time>2019-10-08T10:30:00Z</time>
      </trkpt>
      <trkpt lat="45.59397" lon="5.73139">
        <ele>595.79998779297</ele>
        <time>2019-10-08T10:30:06Z</time>
      </trkpt>
      <trkpt lat="45.59363" lon="5.73137">
        <ele>594.40002441406</ele>
        <time>2019-10-08T10:30:12Z</time>
      </trkpt>
      <trkpt lat="45.59354" lon="5.73134">
        <ele>590.79998779297</ele>
        <time>2019-10-08T10:31:00Z</time>
      </trkpt>
      <trkpt lat="45.5935" lon="5.7312">
        <ele>591</ele>
        <time>2019-10-08T10:31:04Z</time>
      </trkpt>
      <trkpt lat="45.59354" lon="5.73104">
        <ele>591</ele>
        <time>2019-10-08T10:31:07Z</time>
      </trkpt>
      <trkpt lat="45.59358" lon="5.73074">
        <ele>590.79998779297</ele>
        <time>2019-10-08T10:31:11Z</time>
      </trkpt>
      <trkpt lat="45.59354" lon="5.73054">
        <ele>590.40002441406</ele>
        <time>2019-10-08T10:31:13Z</time>
      </trkpt>
      <trkpt lat="45.59352" lon="5.73018">
        <ele>590.20001220703</ele>
        <time>2019-10-08T10:31:16Z</time>
      </trkpt>
      <trkpt lat="45.59367" lon="5.72932">
        <ele>587.79998779297</ele>
        <time>2019-10-08T10:31:22Z</time>
      </trkpt>
      <trkpt lat="45.59378" lon="5.72876">
        <ele>585.20001220703</ele>
        <time>2019-10-08T10:31:26Z</time>
      </trkpt>
      <trkpt lat="45.59392" lon="5.72818">
        <ele>581.79998779297</ele>
        <time>2019-10-08T10:31:31Z</time>
      </trkpt>
      <trkpt lat="45.59401" lon="5.72793">
        <ele>579.79998779297</ele>
        <time>2019-10-08T10:31:34Z</time>
      </trkpt>
      <trkpt lat="45.5942" lon="5.72759">
        <ele>576.40002441406</ele>
        <time>2019-10-08T10:31:38Z</time>
      </trkpt>
      <trkpt lat="45.59446" lon="5.72718">
        <ele>574</ele>
        <time>2019-10-08T10:31:42Z</time>
      </trkpt>
      <trkpt lat="45.59466" lon="5.72684">
        <ele>572.20001220703</ele>
        <time>2019-10-08T10:31:45Z</time>
      </trkpt>
      <trkpt lat="45.59484" lon="5.72649">
        <ele>570.40002441406</ele>
        <time>2019-10-08T10:31:48Z</time>
      </trkpt>
      <trkpt lat="45.59486" lon="5.72607">
        <ele>568.20001220703</ele>
        <time>2019-10-08T10:31:51Z</time>
      </trkpt>
      <trkpt lat="45.59479" lon="5.72582">
        <ele>566.59997558594</ele>
        <time>2019-10-08T10:31:53Z</time>
      </trkpt>
      <trkpt lat="45.59466" lon="5.72542">
        <ele>562.59997558594</ele>
        <time>2019-10-08T10:31:57Z</time>
      </trkpt>
      <trkpt lat="45.59468" lon="5.72516">
        <ele>560.59997558594</ele>
        <time>2019-10-08T10:31:59Z</time>
      </trkpt>
      <trkpt lat="45.59495" lon="5.72455">
        <ele>556.79998779297</ele>
        <time>2019-10-08T10:32:04Z</time>
      </trkpt>
      <trkpt lat="45.59511" lon="5.72418">
        <ele>555.40002441406</ele>
        <time>2019-10-08T10:32:07Z</time>
      </trkpt>
      <trkpt lat="45.59534" lon="5.72365">
        <ele>552.59997558594</ele>
        <time>2019-10-08T10:32:11Z</time>
      </trkpt>
      <trkpt lat="45.59557" lon="5.72312">
        <ele>549.40002441406</ele>
        <time>2019-10-08T10:32:15Z</time>
      </trkpt>
      <trkpt lat="45.59572" lon="5.72272">
        <ele>547.40002441406</ele>
        <time>2019-10-08T10:32:18Z</time>
      </trkpt>
      <trkpt lat="45.59589" lon="5.72191">
        <ele>542</ele>
        <time>2019-10-08T10:32:24Z</time>
      </trkpt>
      <trkpt lat="45.59593" lon="5.7213">
        <ele>538.59997558594</ele>
        <time>2019-10-08T10:32:28Z</time>
      </trkpt>
      <trkpt lat="45.59593" lon="5.72056">
        <ele>534.59997558594</ele>
        <time>2019-10-08T10:32:34Z</time>
      </trkpt>
      <trkpt lat="45.59583" lon="5.72034">
        <ele>532.40002441406</ele>
        <time>2019-10-08T10:32:37Z</time>
      </trkpt>
      <trkpt lat="45.59569" lon="5.72029">
        <ele>529.79998779297</ele>
        <time>2019-10-08T10:32:40Z</time>
      </trkpt>
      <trkpt lat="45.59554" lon="5.72042">
        <ele>528.79998779297</ele>
        <time>2019-10-08T10:32:42Z</time>
      </trkpt>
      <trkpt lat="45.5952" lon="5.72083">
        <ele>525.59997558594</ele>
        <time>2019-10-08T10:32:47Z</time>
      </trkpt>
      <trkpt lat="45.59506" lon="5.72099">
        <ele>524</ele>
        <time>2019-10-08T10:32:50Z</time>
      </trkpt>
      <trkpt lat="45.59471" lon="5.72105">
        <ele>520.79998779297</ele>
        <time>2019-10-08T10:32:56Z</time>
      </trkpt>
      <trkpt lat="45.59462" lon="5.72093">
        <ele>519.20001220703</ele>
        <time>2019-10-08T10:32:58Z</time>
      </trkpt>
      <trkpt lat="45.59454" lon="5.72064">
        <ele>517.59997558594</ele>
        <time>2019-10-08T10:33:02Z</time>
      </trkpt>
      <trkpt lat="45.59456" lon="5.72032">
        <ele>515</ele>
        <time>2019-10-08T10:33:07Z</time>
      </trkpt>
      <trkpt lat="45.59462" lon="5.72014">
        <ele>512</ele>
        <time>2019-10-08T10:33:13Z</time>
      </trkpt>
      <trkpt lat="45.59451" lon="5.72019">
        <ele>510.60000610352</ele>
        <time>2019-10-08T10:33:21Z</time>
      </trkpt>
      <trkpt lat="45.5945" lon="5.72019">
        <ele>510.20001220703</ele>
        <time>2019-10-08T10:34:10Z</time>
      </trkpt>
      <trkpt lat="45.59442" lon="5.72024">
        <ele>510.39999389648</ele>
        <time>2019-10-08T10:34:14Z</time>
      </trkpt>
      <trkpt lat="45.59416" lon="5.72039">
        <ele>510.39999389648</ele>
        <time>2019-10-08T10:34:20Z</time>
      </trkpt>
      <trkpt lat="45.59365" lon="5.72042">
        <ele>508.60000610352</ele>
        <time>2019-10-08T10:34:32Z</time>
      </trkpt>
      <trkpt lat="45.59343" lon="5.72043">
        <ele>508.20001220703</ele>
        <time>2019-10-08T10:34:38Z</time>
      </trkpt>
      <trkpt lat="45.59321" lon="5.72044">
        <ele>508.79998779297</ele>
        <time>2019-10-08T10:34:48Z</time>
      </trkpt>
      <trkpt lat="45.59307" lon="5.72045">
        <ele>509.39999389648</ele>
        <time>2019-10-08T10:34:53Z</time>
      </trkpt>
      <trkpt lat="45.59289" lon="5.72046">
        <ele>510.20001220703</ele>
        <time>2019-10-08T10:34:59Z</time>
      </trkpt>
      <trkpt lat="45.59273" lon="5.72045">
        <ele>511.39999389648</ele>
        <time>2019-10-08T10:35:06Z</time>
      </trkpt>
      <trkpt lat="45.59265" lon="5.72036">
        <ele>512.40002441406</ele>
        <time>2019-10-08T10:35:11Z</time>
      </trkpt>
      <trkpt lat="45.59261" lon="5.72006">
        <ele>514.40002441406</ele>
        <time>2019-10-08T10:35:21Z</time>
      </trkpt>
      <trkpt lat="45.5926" lon="5.72">
        <ele>515</ele>
        <time>2019-10-08T10:35:24Z</time>
      </trkpt>
      <trkpt lat="45.5924" lon="5.72004">
        <ele>516.40002441406</ele>
        <time>2019-10-08T10:35:35Z</time>
      </trkpt>
      <trkpt lat="45.59236" lon="5.72014">
        <ele>516.59997558594</ele>
        <time>2019-10-08T10:35:41Z</time>
      </trkpt>
      <trkpt lat="45.59231" lon="5.7201">
        <ele>521</ele>
        <time>2019-10-08T11:17:17Z</time>
      </trkpt>
      <trkpt lat="45.59236" lon="5.72">
        <ele>521.79998779297</ele>
        <time>2019-10-08T11:17:19Z</time>
      </trkpt>
      <trkpt lat="45.59248" lon="5.71987">
        <ele>521.79998779297</ele>
        <time>2019-10-08T11:17:24Z</time>
      </trkpt>
      <trkpt lat="45.5926" lon="5.71997">
        <ele>521.79998779297</ele>
        <time>2019-10-08T11:17:31Z</time>
      </trkpt>
      <trkpt lat="45.59261" lon="5.71996">
        <ele>521.79998779297</ele>
        <time>2019-10-08T11:17:38Z</time>
      </trkpt>
      <trkpt lat="45.59252" lon="5.71985">
        <ele>521.79998779297</ele>
        <time>2019-10-08T11:17:40Z</time>
      </trkpt>
      <trkpt lat="45.5924" lon="5.71969">
        <ele>521.79998779297</ele>
        <time>2019-10-08T11:17:43Z</time>
      </trkpt>
      <trkpt lat="45.59222" lon="5.71954">
        <ele>521.20001220703</ele>
        <time>2019-10-08T11:17:47Z</time>
      </trkpt>
      <trkpt lat="45.59204" lon="5.71943">
        <ele>519.20001220703</ele>
        <time>2019-10-08T11:17:50Z</time>
      </trkpt>
      <trkpt lat="45.59194" lon="5.71935">
        <ele>517.79998779297</ele>
        <time>2019-10-08T11:17:52Z</time>
      </trkpt>
      <trkpt lat="45.59184" lon="5.71924">
        <ele>516.20001220703</ele>
        <time>2019-10-08T11:17:54Z</time>
      </trkpt>
      <trkpt lat="45.5917" lon="5.71907">
        <ele>513.40002441406</ele>
        <time>2019-10-08T11:17:57Z</time>
      </trkpt>
      <trkpt lat="45.59156" lon="5.71892">
        <ele>509.60000610352</ele>
        <time>2019-10-08T11:18:01Z</time>
      </trkpt>
      <trkpt lat="45.59138" lon="5.71883">
        <ele>503.79998779297</ele>
        <time>2019-10-08T11:18:05Z</time>
      </trkpt>
      <trkpt lat="45.59125" lon="5.71892">
        <ele>500</ele>
        <time>2019-10-08T11:18:08Z</time>
      </trkpt>
      <trkpt lat="45.59095" lon="5.71894">
        <ele>496.39999389648</ele>
        <time>2019-10-08T11:18:13Z</time>
      </trkpt>
      <trkpt lat="45.5908" lon="5.719">
        <ele>494.79998779297</ele>
        <time>2019-10-08T11:18:16Z</time>
      </trkpt>
      <trkpt lat="45.59064" lon="5.71927">
        <ele>491.20001220703</ele>
        <time>2019-10-08T11:18:21Z</time>
      </trkpt>
      <trkpt lat="45.59055" lon="5.71936">
        <ele>489.79998779297</ele>
        <time>2019-10-08T11:18:23Z</time>
      </trkpt>
      <trkpt lat="45.59027" lon="5.71957">
        <ele>488</ele>
        <time>2019-10-08T11:18:28Z</time>
      </trkpt>
      <trkpt lat="45.59008" lon="5.71971">
        <ele>485.39999389648</ele>
        <time>2019-10-08T11:18:32Z</time>
      </trkpt>
      <trkpt lat="45.58998" lon="5.71962">
        <ele>482.20001220703</ele>
        <time>2019-10-08T11:18:37Z</time>
      </trkpt>
      <trkpt lat="45.58997" lon="5.7195">
        <ele>480.79998779297</ele>
        <time>2019-10-08T11:18:39Z</time>
      </trkpt>
      <trkpt lat="45.58994" lon="5.71926">
        <ele>479.20001220703</ele>
        <time>2019-10-08T11:18:42Z</time>
      </trkpt>
      <trkpt lat="45.58991" lon="5.71903">
        <ele>477.79998779297</ele>
        <time>2019-10-08T11:18:46Z</time>
      </trkpt>
      <trkpt lat="45.58985" lon="5.71901">
        <ele>477.20001220703</ele>
        <time>2019-10-08T11:18:49Z</time>
      </trkpt>
      <trkpt lat="45.58969" lon="5.71914">
        <ele>476</ele>
        <time>2019-10-08T11:18:53Z</time>
      </trkpt>
      <trkpt lat="45.58948" lon="5.71915">
        <ele>475.39999389648</ele>
        <time>2019-10-08T11:18:57Z</time>
      </trkpt>
      <trkpt lat="45.58927" lon="5.71906">
        <ele>473.79998779297</ele>
        <time>2019-10-08T11:19:01Z</time>
      </trkpt>
      <trkpt lat="45.58911" lon="5.71896">
        <ele>471.60000610352</ele>
        <time>2019-10-08T11:19:05Z</time>
      </trkpt>
      <trkpt lat="45.58907" lon="5.71914">
        <ele>470</ele>
        <time>2019-10-08T11:19:09Z</time>
      </trkpt>
      <trkpt lat="45.58907" lon="5.71943">
        <ele>468.39999389648</ele>
        <time>2019-10-08T11:19:13Z</time>
      </trkpt>
      <trkpt lat="45.58906" lon="5.72002">
        <ele>467.20001220703</ele>
        <time>2019-10-08T11:19:20Z</time>
      </trkpt>
      <trkpt lat="45.58906" lon="5.7201">
        <ele>466.39999389648</ele>
        <time>2019-10-08T11:19:23Z</time>
      </trkpt>
      <trkpt lat="45.58909" lon="5.72031">
        <ele>464</ele>
        <time>2019-10-08T11:20:05Z</time>
      </trkpt>
      <trkpt lat="45.58912" lon="5.72066">
        <ele>463.79998779297</ele>
        <time>2019-10-08T11:20:10Z</time>
      </trkpt>
      <trkpt lat="45.58916" lon="5.721">
        <ele>463.39999389648</ele>
        <time>2019-10-08T11:20:14Z</time>
      </trkpt>
      <trkpt lat="45.58921" lon="5.72164">
        <ele>462.20001220703</ele>
        <time>2019-10-08T11:20:20Z</time>
      </trkpt>
      <trkpt lat="45.58922" lon="5.722">
        <ele>461.39999389648</ele>
        <time>2019-10-08T11:20:23Z</time>
      </trkpt>
      <trkpt lat="45.58906" lon="5.72272">
        <ele>459</ele>
        <time>2019-10-08T11:20:29Z</time>
      </trkpt>
      <trkpt lat="45.58903" lon="5.72311">
        <ele>458.20001220703</ele>
        <time>2019-10-08T11:20:32Z</time>
      </trkpt>
      <trkpt lat="45.58915" lon="5.7236">
        <ele>456.20001220703</ele>
        <time>2019-10-08T11:20:36Z</time>
      </trkpt>
      <trkpt lat="45.58926" lon="5.7238">
        <ele>455.20001220703</ele>
        <time>2019-10-08T11:20:38Z</time>
      </trkpt>
      <trkpt lat="45.58953" lon="5.72424">
        <ele>452.79998779297</ele>
        <time>2019-10-08T11:20:43Z</time>
      </trkpt>
      <trkpt lat="45.58951" lon="5.72474">
        <ele>451.20001220703</ele>
        <time>2019-10-08T11:20:47Z</time>
      </trkpt>
      <trkpt lat="45.58957" lon="5.72505">
        <ele>449.20001220703</ele>
        <time>2019-10-08T11:20:50Z</time>
      </trkpt>
      <trkpt lat="45.58966" lon="5.72528">
        <ele>447.79998779297</ele>
        <time>2019-10-08T11:20:52Z</time>
      </trkpt>
      <trkpt lat="45.58992" lon="5.72574">
        <ele>446</ele>
        <time>2019-10-08T11:20:57Z</time>
      </trkpt>
      <trkpt lat="45.59005" lon="5.72606">
        <ele>444.60000610352</ele>
        <time>2019-10-08T11:21:00Z</time>
      </trkpt>
      <trkpt lat="45.59002" lon="5.72635">
        <ele>443.20001220703</ele>
        <time>2019-10-08T11:21:03Z</time>
      </trkpt>
      <trkpt lat="45.58976" lon="5.72662">
        <ele>441</ele>
        <time>2019-10-08T11:21:08Z</time>
      </trkpt>
      <trkpt lat="45.58958" lon="5.72657">
        <ele>440.20001220703</ele>
        <time>2019-10-08T11:21:10Z</time>
      </trkpt>
      <trkpt lat="45.58905" lon="5.72633">
        <ele>439.60000610352</ele>
        <time>2019-10-08T11:21:19Z</time>
      </trkpt>
      <trkpt lat="45.58871" lon="5.72613">
        <ele>440</ele>
        <time>2019-10-08T11:21:26Z</time>
      </trkpt>
      <trkpt lat="45.58835" lon="5.72591">
        <ele>441</ele>
        <time>2019-10-08T11:21:34Z</time>
      </trkpt>
      <trkpt lat="45.58795" lon="5.72567">
        <ele>441.60000610352</ele>
        <time>2019-10-08T11:21:40Z</time>
      </trkpt>
      <trkpt lat="45.58728" lon="5.72528">
        <ele>442.60000610352</ele>
        <time>2019-10-08T11:21:54Z</time>
      </trkpt>
      <trkpt lat="45.58685" lon="5.72503">
        <ele>443</ele>
        <time>2019-10-08T11:22:04Z</time>
      </trkpt>
      <trkpt lat="45.58656" lon="5.72498">
        <ele>443.60000610352</ele>
        <time>2019-10-08T11:22:11Z</time>
      </trkpt>
      <trkpt lat="45.58635" lon="5.72508">
        <ele>443.79998779297</ele>
        <time>2019-10-08T11:22:16Z</time>
      </trkpt>
      <trkpt lat="45.58601" lon="5.72524">
        <ele>444</ele>
        <time>2019-10-08T11:22:22Z</time>
      </trkpt>
      <trkpt lat="45.58567" lon="5.7253">
        <ele>443.39999389648</ele>
        <time>2019-10-08T11:22:27Z</time>
      </trkpt>
      <trkpt lat="45.58521" lon="5.72544">
        <ele>441.20001220703</ele>
        <time>2019-10-08T11:22:33Z</time>
      </trkpt>
      <trkpt lat="45.58497" lon="5.72552">
        <ele>440</ele>
        <time>2019-10-08T11:22:36Z</time>
      </trkpt>
      <trkpt lat="45.58455" lon="5.72567">
        <ele>438.39999389648</ele>
        <time>2019-10-08T11:22:41Z</time>
      </trkpt>
      <trkpt lat="45.58435" lon="5.7256">
        <ele>437.20001220703</ele>
        <time>2019-10-08T11:22:44Z</time>
      </trkpt>
      <trkpt lat="45.58427" lon="5.72547">
        <ele>436.20001220703</ele>
        <time>2019-10-08T11:22:46Z</time>
      </trkpt>
      <trkpt lat="45.58392" lon="5.72508">
        <ele>432.20001220703</ele>
        <time>2019-10-08T11:22:52Z</time>
      </trkpt>
      <trkpt lat="45.58368" lon="5.72515">
        <ele>430.60000610352</ele>
        <time>2019-10-08T11:22:55Z</time>
      </trkpt>
      <trkpt lat="45.58352" lon="5.72534">
        <ele>429</ele>
        <time>2019-10-08T11:22:58Z</time>
      </trkpt>
      <trkpt lat="45.58336" lon="5.72583">
        <ele>427</ele>
        <time>2019-10-08T11:23:02Z</time>
      </trkpt>
      <trkpt lat="45.58307" lon="5.72606">
        <ele>425.39999389648</ele>
        <time>2019-10-08T11:23:06Z</time>
      </trkpt>
      <trkpt lat="45.58282" lon="5.72603">
        <ele>423.39999389648</ele>
        <time>2019-10-08T11:23:09Z</time>
      </trkpt>
      <trkpt lat="45.58253" lon="5.72605">
        <ele>421.79998779297</ele>
        <time>2019-10-08T11:23:12Z</time>
      </trkpt>
      <trkpt lat="45.58225" lon="5.72613">
        <ele>420.20001220703</ele>
        <time>2019-10-08T11:23:15Z</time>
      </trkpt>
      <trkpt lat="45.58181" lon="5.7258">
        <ele>417</ele>
        <time>2019-10-08T11:23:20Z</time>
      </trkpt>
      <trkpt lat="45.58159" lon="5.72556">
        <ele>415.20001220703</ele>
        <time>2019-10-08T11:23:23Z</time>
      </trkpt>
      <trkpt lat="45.5814" lon="5.72538">
        <ele>414</ele>
        <time>2019-10-08T11:23:25Z</time>
      </trkpt>
      <trkpt lat="45.581" lon="5.72522">
        <ele>412</ele>
        <time>2019-10-08T11:23:29Z</time>
      </trkpt>
      <trkpt lat="45.58071" lon="5.7251">
        <ele>410.60000610352</ele>
        <time>2019-10-08T11:23:32Z</time>
      </trkpt>
      <trkpt lat="45.58031" lon="5.72496">
        <ele>406.60000610352</ele>
        <time>2019-10-08T11:23:38Z</time>
      </trkpt>
      <trkpt lat="45.5803" lon="5.72495">
        <ele>403.60000610352</ele>
        <time>2019-10-08T11:23:42Z</time>
      </trkpt>
      <trkpt lat="45.5805" lon="5.72534">
        <ele>399.39999389648</ele>
        <time>2019-10-08T11:23:50Z</time>
      </trkpt>
      <trkpt lat="45.58062" lon="5.72559">
        <ele>398.79998779297</ele>
        <time>2019-10-08T11:23:53Z</time>
      </trkpt>
      <trkpt lat="45.58069" lon="5.72602">
        <ele>398.20001220703</ele>
        <time>2019-10-08T11:23:57Z</time>
      </trkpt>
      <trkpt lat="45.58061" lon="5.7262">
        <ele>397.60000610352</ele>
        <time>2019-10-08T11:23:59Z</time>
      </trkpt>
      <trkpt lat="45.58039" lon="5.72643">
        <ele>396</ele>
        <time>2019-10-08T11:24:03Z</time>
      </trkpt>
      <trkpt lat="45.58019" lon="5.72646">
        <ele>394.79998779297</ele>
        <time>2019-10-08T11:24:06Z</time>
      </trkpt>
      <trkpt lat="45.57978" lon="5.72673">
        <ele>392.20001220703</ele>
        <time>2019-10-08T11:24:12Z</time>
      </trkpt>
      <trkpt lat="45.57973" lon="5.72698">
        <ele>391.20001220703</ele>
        <time>2019-10-08T11:24:15Z</time>
      </trkpt>
      <trkpt lat="45.57969" lon="5.72731">
        <ele>391</ele>
        <time>2019-10-08T11:24:19Z</time>
      </trkpt>
      <trkpt lat="45.57958" lon="5.72768">
        <ele>391</ele>
        <time>2019-10-08T11:24:24Z</time>
      </trkpt>
      <trkpt lat="45.57944" lon="5.72785">
        <ele>391</ele>
        <time>2019-10-08T11:24:28Z</time>
      </trkpt>
      <trkpt lat="45.57916" lon="5.72803">
        <ele>391.39999389648</ele>
        <time>2019-10-08T11:24:34Z</time>
      </trkpt>
      <trkpt lat="45.57873" lon="5.72813">
        <ele>391.39999389648</ele>
        <time>2019-10-08T11:24:40Z</time>
      </trkpt>
      <trkpt lat="45.57819" lon="5.72853">
        <ele>389.79998779297</ele>
        <time>2019-10-08T11:24:48Z</time>
      </trkpt>
      <trkpt lat="45.57797" lon="5.72869">
        <ele>388.79998779297</ele>
        <time>2019-10-08T11:24:51Z</time>
      </trkpt>
      <trkpt lat="45.57764" lon="5.72889">
        <ele>387.20001220703</ele>
        <time>2019-10-08T11:24:55Z</time>
      </trkpt>
      <trkpt lat="45.57728" lon="5.72899">
        <ele>386</ele>
        <time>2019-10-08T11:24:59Z</time>
      </trkpt>
      <trkpt lat="45.57654" lon="5.72907">
        <ele>383</ele>
        <time>2019-10-08T11:25:06Z</time>
      </trkpt>
      <trkpt lat="45.57607" lon="5.72912">
        <ele>381</ele>
        <time>2019-10-08T11:25:11Z</time>
      </trkpt>
      <trkpt lat="45.57534" lon="5.72912">
        <ele>377.39999389648</ele>
        <time>2019-10-08T11:25:20Z</time>
      </trkpt>
      <trkpt lat="45.57525" lon="5.7291">
        <ele>376.79998779297</ele>
        <time>2019-10-08T11:25:23Z</time>
      </trkpt>
      <trkpt lat="45.5752" lon="5.72908">
        <ele>375.39999389648</ele>
        <time>2019-10-08T11:26:36Z</time>
      </trkpt>
      <trkpt lat="45.57519" lon="5.72908">
        <ele>375.39999389648</ele>
        <time>2019-10-08T11:26:40Z</time>
      </trkpt>
      <trkpt lat="45.57509" lon="5.72904">
        <ele>375</ele>
        <time>2019-10-08T11:26:46Z</time>
      </trkpt>
      <trkpt lat="45.57495" lon="5.72899">
        <ele>374.79998779297</ele>
        <time>2019-10-08T11:26:49Z</time>
      </trkpt>
      <trkpt lat="45.57484" lon="5.72895">
        <ele>375</ele>
        <time>2019-10-08T11:26:51Z</time>
      </trkpt>
      <trkpt lat="45.57449" lon="5.72874">
        <ele>372.39999389648</ele>
        <time>2019-10-08T11:27:00Z</time>
      </trkpt>
      <trkpt lat="45.57449" lon="5.72864">
        <ele>371.60000610352</ele>
        <time>2019-10-08T11:27:02Z</time>
      </trkpt>
      <trkpt lat="45.57442" lon="5.7281">
        <ele>368.60000610352</ele>
        <time>2019-10-08T11:27:10Z</time>
      </trkpt>
      <trkpt lat="45.57435" lon="5.72796">
        <ele>368.39999389648</ele>
        <time>2019-10-08T11:27:15Z</time>
      </trkpt>
      <trkpt lat="45.57426" lon="5.72784">
        <ele>368.20001220703</ele>
        <time>2019-10-08T11:27:20Z</time>
      </trkpt>
      <trkpt lat="45.57411" lon="5.72767">
        <ele>369.20001220703</ele>
        <time>2019-10-08T11:27:27Z</time>
      </trkpt>
      <trkpt lat="45.57402" lon="5.72758">
        <ele>370.20001220703</ele>
        <time>2019-10-08T11:27:33Z</time>
      </trkpt>
      <trkpt lat="45.57394" lon="5.7275">
        <ele>371</ele>
        <time>2019-10-08T11:27:38Z</time>
      </trkpt>
      <trkpt lat="45.57383" lon="5.72738">
        <ele>372.79998779297</ele>
        <time>2019-10-08T11:27:47Z</time>
      </trkpt>
      <trkpt lat="45.57377" lon="5.72732">
        <ele>373.39999389648</ele>
        <time>2019-10-08T11:27:51Z</time>
      </trkpt>
      <trkpt lat="45.57372" lon="5.72728">
        <ele>374.79998779297</ele>
        <time>2019-10-08T11:27:56Z</time>
      </trkpt>
      <trkpt lat="45.57363" lon="5.72718">
        <ele>377.79998779297</ele>
        <time>2019-10-08T11:28:08Z</time>
      </trkpt>
      <trkpt lat="45.57356" lon="5.72712">
        <ele>379.60000610352</ele>
        <time>2019-10-08T11:28:14Z</time>
      </trkpt>
      <trkpt lat="45.57343" lon="5.72698">
        <ele>382.60000610352</ele>
        <time>2019-10-08T11:28:25Z</time>
      </trkpt>
      <trkpt lat="45.57333" lon="5.72686">
        <ele>384.79998779297</ele>
        <time>2019-10-08T11:28:34Z</time>
      </trkpt>
      <trkpt lat="45.57323" lon="5.72672">
        <ele>387.79998779297</ele>
        <time>2019-10-08T11:28:46Z</time>
      </trkpt>
      <trkpt lat="45.57319" lon="5.72667">
        <ele>389</ele>
        <time>2019-10-08T11:28:50Z</time>
      </trkpt>
      <trkpt lat="45.57311" lon="5.72657">
        <ele>391</ele>
        <time>2019-10-08T11:28:58Z</time>
      </trkpt>
      <trkpt lat="45.57303" lon="5.72646">
        <ele>393.60000610352</ele>
        <time>2019-10-08T11:29:06Z</time>
      </trkpt>
      <trkpt lat="45.57296" lon="5.72632">
        <ele>396</ele>
        <time>2019-10-08T11:29:15Z</time>
      </trkpt>
      <trkpt lat="45.57291" lon="5.72619">
        <ele>397.79998779297</ele>
        <time>2019-10-08T11:29:22Z</time>
      </trkpt>
      <trkpt lat="45.57286" lon="5.72606">
        <ele>399.60000610352</ele>
        <time>2019-10-08T11:29:31Z</time>
      </trkpt>
      <trkpt lat="45.5728" lon="5.72593">
        <ele>401.20001220703</ele>
        <time>2019-10-08T11:29:37Z</time>
      </trkpt>
      <trkpt lat="45.57263" lon="5.72567">
        <ele>404</ele>
        <time>2019-10-08T11:29:51Z</time>
      </trkpt>
      <trkpt lat="45.5725" lon="5.72546">
        <ele>404.79998779297</ele>
        <time>2019-10-08T11:30:01Z</time>
      </trkpt>
      <trkpt lat="45.57223" lon="5.7254">
        <ele>406.39999389648</ele>
        <time>2019-10-08T11:30:13Z</time>
      </trkpt>
      <trkpt lat="45.57186" lon="5.72541">
        <ele>407.20001220703</ele>
        <time>2019-10-08T11:30:26Z</time>
      </trkpt>
      <trkpt lat="45.57172" lon="5.72538">
        <ele>408.20001220703</ele>
        <time>2019-10-08T11:30:32Z</time>
      </trkpt>
      <trkpt lat="45.5715" lon="5.7253">
        <ele>410.39999389648</ele>
        <time>2019-10-08T11:30:43Z</time>
      </trkpt>
      <trkpt lat="45.57129" lon="5.72529">
        <ele>412.79998779297</ele>
        <time>2019-10-08T11:30:52Z</time>
      </trkpt>
      <trkpt lat="45.57092" lon="5.72546">
        <ele>414.20001220703</ele>
        <time>2019-10-08T11:31:05Z</time>
      </trkpt>
      <trkpt lat="45.57076" lon="5.7256">
        <ele>414.20001220703</ele>
        <time>2019-10-08T11:31:13Z</time>
      </trkpt>
      <trkpt lat="45.57055" lon="5.72573">
        <ele>416.20001220703</ele>
        <time>2019-10-08T11:31:23Z</time>
      </trkpt>
      <trkpt lat="45.57031" lon="5.72573">
        <ele>417.60000610352</ele>
        <time>2019-10-08T11:31:31Z</time>
      </trkpt>
      <trkpt lat="45.56999" lon="5.72591">
        <ele>418.39999389648</ele>
        <time>2019-10-08T11:31:40Z</time>
      </trkpt>
      <trkpt lat="45.5698" lon="5.72613">
        <ele>418.79998779297</ele>
        <time>2019-10-08T11:31:47Z</time>
      </trkpt>
      <trkpt lat="45.56968" lon="5.72625">
        <ele>418.79998779297</ele>
        <time>2019-10-08T11:31:51Z</time>
      </trkpt>
      <trkpt lat="45.56937" lon="5.72636">
        <ele>418.60000610352</ele>
        <time>2019-10-08T11:31:57Z</time>
      </trkpt>
      <trkpt lat="45.56917" lon="5.72629">
        <ele>418.60000610352</ele>
        <time>2019-10-08T11:32:00Z</time>
      </trkpt>
      <trkpt lat="45.56867" lon="5.72607">
        <ele>417</ele>
        <time>2019-10-08T11:32:06Z</time>
      </trkpt>
      <trkpt lat="45.56775" lon="5.72566">
        <ele>413.20001220703</ele>
        <time>2019-10-08T11:32:19Z</time>
      </trkpt>
      <trkpt lat="45.56747" lon="5.72542">
        <ele>413.39999389648</ele>
        <time>2019-10-08T11:32:26Z</time>
      </trkpt>
      <trkpt lat="45.56736" lon="5.72536">
        <ele>414.20001220703</ele>
        <time>2019-10-08T11:32:30Z</time>
      </trkpt>
      <trkpt lat="45.56719" lon="5.72526">
        <ele>416</ele>
        <time>2019-10-08T11:32:37Z</time>
      </trkpt>
      <trkpt lat="45.56708" lon="5.72521">
        <ele>417</ele>
        <time>2019-10-08T11:32:42Z</time>
      </trkpt>
      <trkpt lat="45.56677" lon="5.72505">
        <ele>419.20001220703</ele>
        <time>2019-10-08T11:32:54Z</time>
      </trkpt>
      <trkpt lat="45.56659" lon="5.72496">
        <ele>421</ele>
        <time>2019-10-08T11:33:02Z</time>
      </trkpt>
      <trkpt lat="45.56637" lon="5.72498">
        <ele>422.39999389648</ele>
        <time>2019-10-08T11:33:12Z</time>
      </trkpt>
      <trkpt lat="45.56625" lon="5.72501">
        <ele>423.39999389648</ele>
        <time>2019-10-08T11:33:17Z</time>
      </trkpt>
      <trkpt lat="45.56609" lon="5.72504">
        <ele>425.20001220703</ele>
        <time>2019-10-08T11:33:25Z</time>
      </trkpt>
      <trkpt lat="45.56583" lon="5.72505">
        <ele>426.79998779297</ele>
        <time>2019-10-08T11:33:36Z</time>
      </trkpt>
      <trkpt lat="45.56559" lon="5.72493">
        <ele>428.60000610352</ele>
        <time>2019-10-08T11:33:46Z</time>
      </trkpt>
      <trkpt lat="45.56531" lon="5.72487">
        <ele>430.20001220703</ele>
        <time>2019-10-08T11:33:58Z</time>
      </trkpt>
      <trkpt lat="45.56512" lon="5.725">
        <ele>431.39999389648</ele>
        <time>2019-10-08T11:34:06Z</time>
      </trkpt>
      <trkpt lat="45.56469" lon="5.72513">
        <ele>434.60000610352</ele>
        <time>2019-10-08T11:34:23Z</time>
      </trkpt>
      <trkpt lat="45.56449" lon="5.72517">
        <ele>435.60000610352</ele>
        <time>2019-10-08T11:34:30Z</time>
      </trkpt>
      <trkpt lat="45.56406" lon="5.72519">
        <ele>437.60000610352</ele>
        <time>2019-10-08T11:34:44Z</time>
      </trkpt>
      <trkpt lat="45.5638" lon="5.72517">
        <ele>438.20001220703</ele>
        <time>2019-10-08T11:34:52Z</time>
      </trkpt>
      <trkpt lat="45.56354" lon="5.72513">
        <ele>438.20001220703</ele>
        <time>2019-10-08T11:35:00Z</time>
      </trkpt>
      <trkpt lat="45.56343" lon="5.7251">
        <ele>438.20001220703</ele>
        <time>2019-10-08T11:35:03Z</time>
      </trkpt>
      <trkpt lat="45.56325" lon="5.725">
        <ele>438</ele>
        <time>2019-10-08T11:35:08Z</time>
      </trkpt>
      <trkpt lat="45.56306" lon="5.72488">
        <ele>437.20001220703</ele>
        <time>2019-10-08T11:35:12Z</time>
      </trkpt>
      <trkpt lat="45.56276" lon="5.72469">
        <ele>436.20001220703</ele>
        <time>2019-10-08T11:35:17Z</time>
      </trkpt>
      <trkpt lat="45.56209" lon="5.72459">
        <ele>433.60000610352</ele>
        <time>2019-10-08T11:35:29Z</time>
      </trkpt>
      <trkpt lat="45.56201" lon="5.72473">
        <ele>433.39999389648</ele>
        <time>2019-10-08T11:35:33Z</time>
      </trkpt>
      <trkpt lat="45.56205" lon="5.7251">
        <ele>433.39999389648</ele>
        <time>2019-10-08T11:35:38Z</time>
      </trkpt>
      <trkpt lat="45.56207" lon="5.72627">
        <ele>433.39999389648</ele>
        <time>2019-10-08T11:35:55Z</time>
      </trkpt>
      <trkpt lat="45.56189" lon="5.72657">
        <ele>434</ele>
        <time>2019-10-08T11:36:07Z</time>
      </trkpt>
      <trkpt lat="45.56179" lon="5.72662">
        <ele>434.39999389648</ele>
        <time>2019-10-08T11:36:11Z</time>
      </trkpt>
      <trkpt lat="45.56166" lon="5.72707">
        <ele>436</ele>
        <time>2019-10-08T11:36:23Z</time>
      </trkpt>
      <trkpt lat="45.56166" lon="5.72709">
        <ele>436.20001220703</ele>
        <time>2019-10-08T11:38:28Z</time>
      </trkpt>
      <trkpt lat="45.56164" lon="5.72723">
        <ele>436</ele>
        <time>2019-10-08T11:38:35Z</time>
      </trkpt>
      <trkpt lat="45.56163" lon="5.7273">
        <ele>436.79998779297</ele>
        <time>2019-10-08T11:39:27Z</time>
      </trkpt>
      <trkpt lat="45.56162" lon="5.72745">
        <ele>436.79998779297</ele>
        <time>2019-10-08T11:39:33Z</time>
      </trkpt>
      <trkpt lat="45.56153" lon="5.72831">
        <ele>437</ele>
        <time>2019-10-08T11:39:48Z</time>
      </trkpt>
      <trkpt lat="45.56149" lon="5.72878">
        <ele>437.20001220703</ele>
        <time>2019-10-08T11:39:56Z</time>
      </trkpt>
      <trkpt lat="45.56143" lon="5.72935">
        <ele>438.60000610352</ele>
        <time>2019-10-08T11:40:06Z</time>
      </trkpt>
      <trkpt lat="45.56142" lon="5.72947">
        <ele>438.79998779297</ele>
        <time>2019-10-08T11:40:08Z</time>
      </trkpt>
      <trkpt lat="45.56133" lon="5.73003">
        <ele>441.39999389648</ele>
        <time>2019-10-08T11:40:24Z</time>
      </trkpt>
      <trkpt lat="45.56131" lon="5.73009">
        <ele>441.79998779297</ele>
        <time>2019-10-08T11:40:26Z</time>
      </trkpt>
      <trkpt lat="45.56106" lon="5.73017">
        <ele>444</ele>
        <time>2019-10-08T11:40:38Z</time>
      </trkpt>
      <trkpt lat="45.56109" lon="5.73021">
        <ele>444.20001220703</ele>
        <time>2019-10-08T11:40:40Z</time>
      </trkpt>
      <trkpt lat="45.5614" lon="5.73031">
        <ele>446.20001220703</ele>
        <time>2019-10-08T11:40:55Z</time>
      </trkpt>
      <trkpt lat="45.56157" lon="5.73031">
        <ele>447.20001220703</ele>
        <time>2019-10-08T11:41:03Z</time>
      </trkpt>
      <trkpt lat="45.56185" lon="5.73042">
        <ele>448.79998779297</ele>
        <time>2019-10-08T11:41:15Z</time>
      </trkpt>
      <trkpt lat="45.56187" lon="5.73056">
        <ele>449.60000610352</ele>
        <time>2019-10-08T11:41:20Z</time>
      </trkpt>
      <trkpt lat="45.56182" lon="5.73067">
        <ele>450.79998779297</ele>
        <time>2019-10-08T11:41:26Z</time>
      </trkpt>
      <trkpt lat="45.56168" lon="5.73069">
        <ele>453.20001220703</ele>
        <time>2019-10-08T11:41:35Z</time>
      </trkpt>
      <trkpt lat="45.56147" lon="5.73072">
        <ele>455</ele>
        <time>2019-10-08T11:41:46Z</time>
      </trkpt>
      <trkpt lat="45.5613" lon="5.73074">
        <ele>456</ele>
        <time>2019-10-08T11:41:54Z</time>
      </trkpt>
      <trkpt lat="45.56115" lon="5.73076">
        <ele>457.39999389648</ele>
        <time>2019-10-08T11:42:02Z</time>
      </trkpt>
      <trkpt lat="45.56092" lon="5.73081">
        <ele>459.39999389648</ele>
        <time>2019-10-08T11:42:14Z</time>
      </trkpt>
      <trkpt lat="45.56082" lon="5.73084">
        <ele>460.60000610352</ele>
        <time>2019-10-08T11:42:20Z</time>
      </trkpt>
      <trkpt lat="45.56057" lon="5.7309">
        <ele>462.79998779297</ele>
        <time>2019-10-08T11:42:34Z</time>
      </trkpt>
      <trkpt lat="45.56044" lon="5.73094">
        <ele>463.79998779297</ele>
        <time>2019-10-08T11:42:40Z</time>
      </trkpt>
      <trkpt lat="45.56013" lon="5.73105">
        <ele>466.79998779297</ele>
        <time>2019-10-08T11:42:57Z</time>
      </trkpt>
      <trkpt lat="45.56001" lon="5.73109">
        <ele>468</ele>
        <time>2019-10-08T11:43:03Z</time>
      </trkpt>
      <trkpt lat="45.55979" lon="5.73118">
        <ele>470.79998779297</ele>
        <time>2019-10-08T11:43:15Z</time>
      </trkpt>
      <trkpt lat="45.55965" lon="5.73124">
        <ele>471.60000610352</ele>
        <time>2019-10-08T11:43:22Z</time>
      </trkpt>
      <trkpt lat="45.55931" lon="5.73147">
        <ele>474.39999389648</ele>
        <time>2019-10-08T11:43:40Z</time>
      </trkpt>
      <trkpt lat="45.55911" lon="5.73161">
        <ele>475.39999389648</ele>
        <time>2019-10-08T11:43:50Z</time>
      </trkpt>
      <trkpt lat="45.55895" lon="5.73173">
        <ele>477.39999389648</ele>
        <time>2019-10-08T11:43:59Z</time>
      </trkpt>
      <trkpt lat="45.55879" lon="5.73186">
        <ele>479</ele>
        <time>2019-10-08T11:44:08Z</time>
      </trkpt>
      <trkpt lat="45.55864" lon="5.73198">
        <ele>481</ele>
        <time>2019-10-08T11:44:17Z</time>
      </trkpt>
      <trkpt lat="45.55852" lon="5.73208">
        <ele>482.79998779297</ele>
        <time>2019-10-08T11:44:26Z</time>
      </trkpt>
      <trkpt lat="45.55842" lon="5.7322">
        <ele>483.79998779297</ele>
        <time>2019-10-08T11:44:32Z</time>
      </trkpt>
      <trkpt lat="45.55833" lon="5.7323">
        <ele>485.79998779297</ele>
        <time>2019-10-08T11:45:08Z</time>
      </trkpt>
      <trkpt lat="45.55821" lon="5.73239">
        <ele>486</ele>
        <time>2019-10-08T11:45:17Z</time>
      </trkpt>
      <trkpt lat="45.55806" lon="5.7325">
        <ele>487.39999389648</ele>
        <time>2019-10-08T11:45:25Z</time>
      </trkpt>
      <trkpt lat="45.55803" lon="5.73265">
        <ele>488.39999389648</ele>
        <time>2019-10-08T11:45:30Z</time>
      </trkpt>
      <trkpt lat="45.55816" lon="5.73258">
        <ele>489.60000610352</ele>
        <time>2019-10-08T11:45:38Z</time>
      </trkpt>
      <trkpt lat="45.55826" lon="5.73251">
        <ele>490.39999389648</ele>
        <time>2019-10-08T11:45:43Z</time>
      </trkpt>
      <trkpt lat="45.55847" lon="5.73238">
        <ele>492.20001220703</ele>
        <time>2019-10-08T11:45:54Z</time>
      </trkpt>
      <trkpt lat="45.55862" lon="5.73228">
        <ele>493.79998779297</ele>
        <time>2019-10-08T11:46:02Z</time>
      </trkpt>
      <trkpt lat="45.55879" lon="5.73216">
        <ele>495.60000610352</ele>
        <time>2019-10-08T11:46:13Z</time>
      </trkpt>
      <trkpt lat="45.55885" lon="5.73212">
        <ele>496.60000610352</ele>
        <time>2019-10-08T11:46:18Z</time>
      </trkpt>
      <trkpt lat="45.55902" lon="5.73201">
        <ele>499</ele>
        <time>2019-10-08T11:46:29Z</time>
      </trkpt>
      <trkpt lat="45.55915" lon="5.73195">
        <ele>501</ele>
        <time>2019-10-08T11:46:38Z</time>
      </trkpt>
      <trkpt lat="45.5593" lon="5.73189">
        <ele>502.39999389648</ele>
        <time>2019-10-08T11:46:47Z</time>
      </trkpt>
      <trkpt lat="45.55951" lon="5.73182">
        <ele>504.39999389648</ele>
        <time>2019-10-08T11:46:59Z</time>
      </trkpt>
      <trkpt lat="45.55964" lon="5.73182">
        <ele>506</ele>
        <time>2019-10-08T11:47:06Z</time>
      </trkpt>
      <trkpt lat="45.55986" lon="5.73182">
        <ele>507.20001220703</ele>
        <time>2019-10-08T11:47:16Z</time>
      </trkpt>
      <trkpt lat="45.56" lon="5.73179">
        <ele>509</ele>
        <time>2019-10-08T11:47:24Z</time>
      </trkpt>
      <trkpt lat="45.56022" lon="5.7317">
        <ele>511</ele>
        <time>2019-10-08T11:47:36Z</time>
      </trkpt>
      <trkpt lat="45.56038" lon="5.73163">
        <ele>512.79998779297</ele>
        <time>2019-10-08T11:47:45Z</time>
      </trkpt>
      <trkpt lat="45.56056" lon="5.73157">
        <ele>514.59997558594</ele>
        <time>2019-10-08T11:47:55Z</time>
      </trkpt>
      <trkpt lat="45.56066" lon="5.73153">
        <ele>516</ele>
        <time>2019-10-08T11:48:02Z</time>
      </trkpt>
      <trkpt lat="45.56086" lon="5.73146">
        <ele>517.59997558594</ele>
        <time>2019-10-08T11:48:12Z</time>
      </trkpt>
      <trkpt lat="45.56118" lon="5.73135">
        <ele>520.40002441406</ele>
        <time>2019-10-08T11:48:28Z</time>
      </trkpt>
      <trkpt lat="45.56144" lon="5.73135">
        <ele>522.40002441406</ele>
        <time>2019-10-08T11:48:39Z</time>
      </trkpt>
      <trkpt lat="45.56155" lon="5.73142">
        <ele>523.79998779297</ele>
        <time>2019-10-08T11:48:46Z</time>
      </trkpt>
      <trkpt lat="45.56168" lon="5.73145">
        <ele>524.79998779297</ele>
        <time>2019-10-08T11:48:53Z</time>
      </trkpt>
      <trkpt lat="45.56199" lon="5.73144">
        <ele>527.79998779297</ele>
        <time>2019-10-08T11:49:09Z</time>
      </trkpt>
      <trkpt lat="45.56211" lon="5.73144">
        <ele>529</ele>
        <time>2019-10-08T11:49:15Z</time>
      </trkpt>
      <trkpt lat="45.56241" lon="5.73144">
        <ele>531.79998779297</ele>
        <time>2019-10-08T11:49:31Z</time>
      </trkpt>
      <trkpt lat="45.56258" lon="5.73144">
        <ele>533.40002441406</ele>
        <time>2019-10-08T11:49:40Z</time>
      </trkpt>
      <trkpt lat="45.56285" lon="5.73146">
        <ele>535.79998779297</ele>
        <time>2019-10-08T11:49:54Z</time>
      </trkpt>
      <trkpt lat="45.56301" lon="5.73147">
        <ele>537.40002441406</ele>
        <time>2019-10-08T11:50:03Z</time>
      </trkpt>
      <trkpt lat="45.56327" lon="5.73147">
        <ele>539.40002441406</ele>
        <time>2019-10-08T11:50:15Z</time>
      </trkpt>
      <trkpt lat="45.5634" lon="5.73146">
        <ele>541</ele>
        <time>2019-10-08T11:50:22Z</time>
      </trkpt>
      <trkpt lat="45.56359" lon="5.73143">
        <ele>542.79998779297</ele>
        <time>2019-10-08T11:50:31Z</time>
      </trkpt>
      <trkpt lat="45.56376" lon="5.7314">
        <ele>544.40002441406</ele>
        <time>2019-10-08T11:50:40Z</time>
      </trkpt>
      <trkpt lat="45.56401" lon="5.73139">
        <ele>546.40002441406</ele>
        <time>2019-10-08T11:50:51Z</time>
      </trkpt>
      <trkpt lat="45.56416" lon="5.73139">
        <ele>547.79998779297</ele>
        <time>2019-10-08T11:50:58Z</time>
      </trkpt>
      <trkpt lat="45.56439" lon="5.73135">
        <ele>550</ele>
        <time>2019-10-08T11:51:09Z</time>
      </trkpt>
      <trkpt lat="45.56462" lon="5.73126">
        <ele>552.40002441406</ele>
        <time>2019-10-08T11:51:20Z</time>
      </trkpt>
      <trkpt lat="45.56477" lon="5.73122">
        <ele>553.79998779297</ele>
        <time>2019-10-08T11:51:29Z</time>
      </trkpt>
      <trkpt lat="45.56507" lon="5.73118">
        <ele>557.20001220703</ele>
        <time>2019-10-08T11:51:45Z</time>
      </trkpt>
      <trkpt lat="45.56525" lon="5.73119">
        <ele>558.59997558594</ele>
        <time>2019-10-08T11:51:53Z</time>
      </trkpt>
      <trkpt lat="45.56548" lon="5.73112">
        <ele>560.40002441406</ele>
        <time>2019-10-08T11:52:04Z</time>
      </trkpt>
      <trkpt lat="45.56565" lon="5.73107">
        <ele>562.20001220703</ele>
        <time>2019-10-08T11:52:12Z</time>
      </trkpt>
      <trkpt lat="45.56591" lon="5.73104">
        <ele>564.40002441406</ele>
        <time>2019-10-08T11:52:24Z</time>
      </trkpt>
      <trkpt lat="45.56603" lon="5.73108">
        <ele>565.59997558594</ele>
        <time>2019-10-08T11:52:31Z</time>
      </trkpt>
      <trkpt lat="45.56611" lon="5.73123">
        <ele>566.59997558594</ele>
        <time>2019-10-08T11:52:36Z</time>
      </trkpt>
      <trkpt lat="45.56607" lon="5.73129">
        <ele>567</ele>
        <time>2019-10-08T11:52:38Z</time>
      </trkpt>
      <trkpt lat="45.56584" lon="5.73119">
        <ele>569.20001220703</ele>
        <time>2019-10-08T11:52:48Z</time>
      </trkpt>
      <trkpt lat="45.56569" lon="5.73129">
        <ele>570</ele>
        <time>2019-10-08T11:52:56Z</time>
      </trkpt>
      <trkpt lat="45.56537" lon="5.73152">
        <ele>572.59997558594</ele>
        <time>2019-10-08T11:53:14Z</time>
      </trkpt>
      <trkpt lat="45.56518" lon="5.7315">
        <ele>573.79998779297</ele>
        <time>2019-10-08T11:53:22Z</time>
      </trkpt>
      <trkpt lat="45.56502" lon="5.73149">
        <ele>575.20001220703</ele>
        <time>2019-10-08T11:53:30Z</time>
      </trkpt>
      <trkpt lat="45.56502" lon="5.7316">
        <ele>575.79998779297</ele>
        <time>2019-10-08T11:53:35Z</time>
      </trkpt>
      <trkpt lat="45.56517" lon="5.73163">
        <ele>577.20001220703</ele>
        <time>2019-10-08T11:53:44Z</time>
      </trkpt>
      <trkpt lat="45.56535" lon="5.7317">
        <ele>579.59997558594</ele>
        <time>2019-10-08T11:53:54Z</time>
      </trkpt>
      <trkpt lat="45.56547" lon="5.7318">
        <ele>580.79998779297</ele>
        <time>2019-10-08T11:54:01Z</time>
      </trkpt>
      <trkpt lat="45.56568" lon="5.73174">
        <ele>583</ele>
        <time>2019-10-08T11:54:11Z</time>
      </trkpt>
      <trkpt lat="45.56578" lon="5.73166">
        <ele>584</ele>
        <time>2019-10-08T11:54:17Z</time>
      </trkpt>
      <trkpt lat="45.56595" lon="5.73166">
        <ele>585.20001220703</ele>
        <time>2019-10-08T11:54:26Z</time>
      </trkpt>
      <trkpt lat="45.56605" lon="5.7317">
        <ele>586.40002441406</ele>
        <time>2019-10-08T11:54:32Z</time>
      </trkpt>
      <trkpt lat="45.5663" lon="5.73184">
        <ele>589.59997558594</ele>
        <time>2019-10-08T11:54:47Z</time>
      </trkpt>
      <trkpt lat="45.56647" lon="5.73191">
        <ele>591.40002441406</ele>
        <time>2019-10-08T11:54:56Z</time>
      </trkpt>
      <trkpt lat="45.56666" lon="5.73191">
        <ele>593.40002441406</ele>
        <time>2019-10-08T11:55:05Z</time>
      </trkpt>
      <trkpt lat="45.5668" lon="5.73197">
        <ele>594.79998779297</ele>
        <time>2019-10-08T11:55:12Z</time>
      </trkpt>
      <trkpt lat="45.56682" lon="5.73219">
        <ele>595.59997558594</ele>
        <time>2019-10-08T11:55:18Z</time>
      </trkpt>
      <trkpt lat="45.56658" lon="5.73233">
        <ele>597.40002441406</ele>
        <time>2019-10-08T11:55:29Z</time>
      </trkpt>
      <trkpt lat="45.56648" lon="5.73231">
        <ele>598</ele>
        <time>2019-10-08T11:55:34Z</time>
      </trkpt>
      <trkpt lat="45.56621" lon="5.73225">
        <ele>600.40002441406</ele>
        <time>2019-10-08T11:55:47Z</time>
      </trkpt>
      <trkpt lat="45.56605" lon="5.73225">
        <ele>602</ele>
        <time>2019-10-08T11:55:55Z</time>
      </trkpt>
      <trkpt lat="45.56589" lon="5.73234">
        <ele>603.79998779297</ele>
        <time>2019-10-08T11:56:04Z</time>
      </trkpt>
      <trkpt lat="45.56579" lon="5.73253">
        <ele>605.20001220703</ele>
        <time>2019-10-08T11:56:12Z</time>
      </trkpt>
      <trkpt lat="45.56569" lon="5.73284">
        <ele>607.40002441406</ele>
        <time>2019-10-08T11:56:23Z</time>
      </trkpt>
      <trkpt lat="45.56563" lon="5.7331">
        <ele>609.59997558594</ele>
        <time>2019-10-08T11:56:33Z</time>
      </trkpt>
      <trkpt lat="45.5656" lon="5.73341">
        <ele>612.20001220703</ele>
        <time>2019-10-08T11:56:44Z</time>
      </trkpt>
      <trkpt lat="45.56559" lon="5.73364">
        <ele>614</ele>
        <time>2019-10-08T11:56:51Z</time>
      </trkpt>
      <trkpt lat="45.5657" lon="5.73396">
        <ele>615.20001220703</ele>
        <time>2019-10-08T11:57:05Z</time>
      </trkpt>
      <trkpt lat="45.56578" lon="5.73403">
        <ele>615.20001220703</ele>
        <time>2019-10-08T11:57:09Z</time>
      </trkpt>
      <trkpt lat="45.56588" lon="5.73409">
        <ele>615.40002441406</ele>
        <time>2019-10-08T11:57:13Z</time>
      </trkpt>
      <trkpt lat="45.566" lon="5.73414">
        <ele>615.79998779297</ele>
        <time>2019-10-08T11:57:46Z</time>
      </trkpt>
      <trkpt lat="45.56609" lon="5.73418">
        <ele>615.79998779297</ele>
        <time>2019-10-08T11:57:50Z</time>
      </trkpt>
      <trkpt lat="45.56628" lon="5.73432">
        <ele>615.59997558594</ele>
        <time>2019-10-08T11:57:56Z</time>
      </trkpt>
      <trkpt lat="45.56642" lon="5.7345">
        <ele>615.20001220703</ele>
        <time>2019-10-08T11:58:00Z</time>
      </trkpt>
      <trkpt lat="45.56682" lon="5.73514">
        <ele>614</ele>
        <time>2019-10-08T11:58:10Z</time>
      </trkpt>
      <trkpt lat="45.56704" lon="5.73553">
        <ele>613</ele>
        <time>2019-10-08T11:58:16Z</time>
      </trkpt>
      <trkpt lat="45.56702" lon="5.73581">
        <ele>612.40002441406</ele>
        <time>2019-10-08T11:58:19Z</time>
      </trkpt>
      <trkpt lat="45.56693" lon="5.73605">
        <ele>612</ele>
        <time>2019-10-08T11:58:22Z</time>
      </trkpt>
      <trkpt lat="45.56676" lon="5.73666">
        <ele>610.40002441406</ele>
        <time>2019-10-08T11:58:29Z</time>
      </trkpt>
      <trkpt lat="45.56659" lon="5.73744">
        <ele>608.40002441406</ele>
        <time>2019-10-08T11:58:36Z</time>
      </trkpt>
      <trkpt lat="45.56662" lon="5.73867">
        <ele>606.59997558594</ele>
        <time>2019-10-08T11:58:50Z</time>
      </trkpt>
      <trkpt lat="45.56664" lon="5.73907">
        <ele>606.79998779297</ele>
        <time>2019-10-08T11:58:56Z</time>
      </trkpt>
      <trkpt lat="45.56674" lon="5.73948">
        <ele>608.20001220703</ele>
        <time>2019-10-08T11:59:05Z</time>
      </trkpt>
      <trkpt lat="45.5668" lon="5.73963">
        <ele>608.79998779297</ele>
        <time>2019-10-08T11:59:09Z</time>
      </trkpt>
      <trkpt lat="45.56693" lon="5.73992">
        <ele>610.20001220703</ele>
        <time>2019-10-08T11:59:16Z</time>
      </trkpt>
      <trkpt lat="45.56696" lon="5.74094">
        <ele>612</ele>
        <time>2019-10-08T11:59:35Z</time>
      </trkpt>
      <trkpt lat="45.56692" lon="5.74121">
        <ele>611.79998779297</ele>
        <time>2019-10-08T11:59:39Z</time>
      </trkpt>
      <trkpt lat="45.56686" lon="5.74139">
        <ele>611.20001220703</ele>
        <time>2019-10-08T11:59:44Z</time>
      </trkpt>
      <trkpt lat="45.56676" lon="5.74165">
        <ele>610</ele>
        <time>2019-10-08T11:59:50Z</time>
      </trkpt>
      <trkpt lat="45.56656" lon="5.74218">
        <ele>609.20001220703</ele>
        <time>2019-10-08T12:00:00Z</time>
      </trkpt>
      <trkpt lat="45.56644" lon="5.74244">
        <ele>608.79998779297</ele>
        <time>2019-10-08T12:00:07Z</time>
      </trkpt>
      <trkpt lat="45.56638" lon="5.74254">
        <ele>608.79998779297</ele>
        <time>2019-10-08T12:00:12Z</time>
      </trkpt>
      <trkpt lat="45.56635" lon="5.74261">
        <ele>610</ele>
        <time>2019-10-08T12:01:29Z</time>
      </trkpt>
      <trkpt lat="45.56626" lon="5.74268">
        <ele>610</ele>
        <time>2019-10-08T12:01:34Z</time>
      </trkpt>
      <trkpt lat="45.56604" lon="5.7427">
        <ele>609.59997558594</ele>
        <time>2019-10-08T12:01:40Z</time>
      </trkpt>
      <trkpt lat="45.56576" lon="5.7428">
        <ele>608.79998779297</ele>
        <time>2019-10-08T12:01:46Z</time>
      </trkpt>
      <trkpt lat="45.56559" lon="5.74292">
        <ele>608.20001220703</ele>
        <time>2019-10-08T12:01:50Z</time>
      </trkpt>
      <trkpt lat="45.56545" lon="5.74304">
        <ele>607.59997558594</ele>
        <time>2019-10-08T12:01:53Z</time>
      </trkpt>
      <trkpt lat="45.5652" lon="5.74328">
        <ele>605.40002441406</ele>
        <time>2019-10-08T12:01:59Z</time>
      </trkpt>
      <trkpt lat="45.56495" lon="5.74319">
        <ele>604</ele>
        <time>2019-10-08T12:02:04Z</time>
      </trkpt>
      <trkpt lat="45.56457" lon="5.74328">
        <ele>602.79998779297</ele>
        <time>2019-10-08T12:02:17Z</time>
      </trkpt>
      <trkpt lat="45.56458" lon="5.74341">
        <ele>602.59997558594</ele>
        <time>2019-10-08T12:02:23Z</time>
      </trkpt>
      <trkpt lat="45.56454" lon="5.74357">
        <ele>602.20001220703</ele>
        <time>2019-10-08T12:02:31Z</time>
      </trkpt>
      <trkpt lat="45.56436" lon="5.7436">
        <ele>601</ele>
        <time>2019-10-08T12:02:38Z</time>
      </trkpt>
      <trkpt lat="45.56402" lon="5.74373">
        <ele>600.40002441406</ele>
        <time>2019-10-08T12:02:46Z</time>
      </trkpt>
      <trkpt lat="45.5639" lon="5.74382">
        <ele>600</ele>
        <time>2019-10-08T12:02:49Z</time>
      </trkpt>
      <trkpt lat="45.56368" lon="5.74421">
        <ele>598.79998779297</ele>
        <time>2019-10-08T12:02:55Z</time>
      </trkpt>
      <trkpt lat="45.56358" lon="5.74442">
        <ele>597</ele>
        <time>2019-10-08T12:02:58Z</time>
      </trkpt>
      <trkpt lat="45.56343" lon="5.74471">
        <ele>592.20001220703</ele>
        <time>2019-10-08T12:03:04Z</time>
      </trkpt>
      <trkpt lat="45.56335" lon="5.74468">
        <ele>589.40002441406</ele>
        <time>2019-10-08T12:03:08Z</time>
      </trkpt>
      <trkpt lat="45.56321" lon="5.74439">
        <ele>586.40002441406</ele>
        <time>2019-10-08T12:03:13Z</time>
      </trkpt>
      <trkpt lat="45.56298" lon="5.7439">
        <ele>584.79998779297</ele>
        <time>2019-10-08T12:03:19Z</time>
      </trkpt>
      <trkpt lat="45.56287" lon="5.74376">
        <ele>584.40002441406</ele>
        <time>2019-10-08T12:03:21Z</time>
      </trkpt>
      <trkpt lat="45.56257" lon="5.74366">
        <ele>582.79998779297</ele>
        <time>2019-10-08T12:03:25Z</time>
      </trkpt>
      <trkpt lat="45.56205" lon="5.74375">
        <ele>581.20001220703</ele>
        <time>2019-10-08T12:03:31Z</time>
      </trkpt>
      <trkpt lat="45.56155" lon="5.74386">
        <ele>578.79998779297</ele>
        <time>2019-10-08T12:03:37Z</time>
      </trkpt>
      <trkpt lat="45.56126" lon="5.74401">
        <ele>577.79998779297</ele>
        <time>2019-10-08T12:03:41Z</time>
      </trkpt>
      <trkpt lat="45.5611" lon="5.74429">
        <ele>576.40002441406</ele>
        <time>2019-10-08T12:03:45Z</time>
      </trkpt>
      <trkpt lat="45.56104" lon="5.74459">
        <ele>575.20001220703</ele>
        <time>2019-10-08T12:03:48Z</time>
      </trkpt>
      <trkpt lat="45.56086" lon="5.74508">
        <ele>573.20001220703</ele>
        <time>2019-10-08T12:03:53Z</time>
      </trkpt>
      <trkpt lat="45.56069" lon="5.74527">
        <ele>572.40002441406</ele>
        <time>2019-10-08T12:03:56Z</time>
      </trkpt>
      <trkpt lat="45.56031" lon="5.74549">
        <ele>570.40002441406</ele>
        <time>2019-10-08T12:04:01Z</time>
      </trkpt>
      <trkpt lat="45.56006" lon="5.74553">
        <ele>569.40002441406</ele>
        <time>2019-10-08T12:04:04Z</time>
      </trkpt>
      <trkpt lat="45.55983" lon="5.74546">
        <ele>568.59997558594</ele>
        <time>2019-10-08T12:04:07Z</time>
      </trkpt>
      <trkpt lat="45.55953" lon="5.74509">
        <ele>566</ele>
        <time>2019-10-08T12:04:12Z</time>
      </trkpt>
      <trkpt lat="45.55944" lon="5.745">
        <ele>564.79998779297</ele>
        <time>2019-10-08T12:04:14Z</time>
      </trkpt>
      <trkpt lat="45.55931" lon="5.74489">
        <ele>560.20001220703</ele>
        <time>2019-10-08T12:04:59Z</time>
      </trkpt>
      <trkpt lat="45.55924" lon="5.74486">
        <ele>560.20001220703</ele>
        <time>2019-10-08T12:05:02Z</time>
      </trkpt>
      <trkpt lat="45.55881" lon="5.74476">
        <ele>559.79998779297</ele>
        <time>2019-10-08T12:05:12Z</time>
      </trkpt>
      <trkpt lat="45.55861" lon="5.74478">
        <ele>559.59997558594</ele>
        <time>2019-10-08T12:05:15Z</time>
      </trkpt>
      <trkpt lat="45.55809" lon="5.74522">
        <ele>557.79998779297</ele>
        <time>2019-10-08T12:05:23Z</time>
      </trkpt>
      <trkpt lat="45.55775" lon="5.74556">
        <ele>555.79998779297</ele>
        <time>2019-10-08T12:05:28Z</time>
      </trkpt>
      <trkpt lat="45.55727" lon="5.74586">
        <ele>553.59997558594</ele>
        <time>2019-10-08T12:05:34Z</time>
      </trkpt>
      <trkpt lat="45.55711" lon="5.74593">
        <ele>552.79998779297</ele>
        <time>2019-10-08T12:05:36Z</time>
      </trkpt>
      <trkpt lat="45.5565" lon="5.74613">
        <ele>550</ele>
        <time>2019-10-08T12:05:43Z</time>
      </trkpt>
      <trkpt lat="45.55603" lon="5.74622">
        <ele>548</ele>
        <time>2019-10-08T12:05:48Z</time>
      </trkpt>
      <trkpt lat="45.55556" lon="5.74642">
        <ele>545.40002441406</ele>
        <time>2019-10-08T12:05:54Z</time>
      </trkpt>
      <trkpt lat="45.55513" lon="5.7467">
        <ele>542.59997558594</ele>
        <time>2019-10-08T12:06:00Z</time>
      </trkpt>
      <trkpt lat="45.55483" lon="5.74693">
        <ele>541</ele>
        <time>2019-10-08T12:06:04Z</time>
      </trkpt>
      <trkpt lat="45.55439" lon="5.74733">
        <ele>538.40002441406</ele>
        <time>2019-10-08T12:06:10Z</time>
      </trkpt>
      <trkpt lat="45.55391" lon="5.74774">
        <ele>535.59997558594</ele>
        <time>2019-10-08T12:06:16Z</time>
      </trkpt>
      <trkpt lat="45.55355" lon="5.74804">
        <ele>533.40002441406</ele>
        <time>2019-10-08T12:06:21Z</time>
      </trkpt>
      <trkpt lat="45.5533" lon="5.74822">
        <ele>531.59997558594</ele>
        <time>2019-10-08T12:06:25Z</time>
      </trkpt>
      <trkpt lat="45.55304" lon="5.74839">
        <ele>527.40002441406</ele>
        <time>2019-10-08T12:06:33Z</time>
      </trkpt>
      <trkpt lat="45.55307" lon="5.74861">
        <ele>526</ele>
        <time>2019-10-08T12:06:37Z</time>
      </trkpt>
      <trkpt lat="45.55312" lon="5.74907">
        <ele>525.20001220703</ele>
        <time>2019-10-08T12:06:41Z</time>
      </trkpt>
      <trkpt lat="45.55313" lon="5.74934">
        <ele>524.79998779297</ele>
        <time>2019-10-08T12:06:43Z</time>
      </trkpt>
      <trkpt lat="45.55305" lon="5.7501">
        <ele>520.59997558594</ele>
        <time>2019-10-08T12:06:49Z</time>
      </trkpt>
      <trkpt lat="45.55299" lon="5.75058">
        <ele>516.40002441406</ele>
        <time>2019-10-08T12:06:53Z</time>
      </trkpt>
      <trkpt lat="45.55286" lon="5.75117">
        <ele>511</ele>
        <time>2019-10-08T12:06:59Z</time>
      </trkpt>
      <trkpt lat="45.55275" lon="5.75164">
        <ele>508.60000610352</ele>
        <time>2019-10-08T12:07:04Z</time>
      </trkpt>
      <trkpt lat="45.55266" lon="5.75207">
        <ele>505.79998779297</ele>
        <time>2019-10-08T12:07:08Z</time>
      </trkpt>
      <trkpt lat="45.55263" lon="5.75256">
        <ele>503.60000610352</ele>
        <time>2019-10-08T12:07:12Z</time>
      </trkpt>
      <trkpt lat="45.5526" lon="5.75304">
        <ele>500.39999389648</ele>
        <time>2019-10-08T12:07:16Z</time>
      </trkpt>
      <trkpt lat="45.5526" lon="5.75362">
        <ele>494.79998779297</ele>
        <time>2019-10-08T12:07:21Z</time>
      </trkpt>
      <trkpt lat="45.55262" lon="5.75386">
        <ele>493</ele>
        <time>2019-10-08T12:07:23Z</time>
      </trkpt>
      <trkpt lat="45.55272" lon="5.7544">
        <ele>489.39999389648</ele>
        <time>2019-10-08T12:07:28Z</time>
      </trkpt>
      <trkpt lat="45.55281" lon="5.75474">
        <ele>487</ele>
        <time>2019-10-08T12:07:31Z</time>
      </trkpt>
      <trkpt lat="45.5531" lon="5.75495">
        <ele>483.39999389648</ele>
        <time>2019-10-08T12:07:35Z</time>
      </trkpt>
      <trkpt lat="45.55342" lon="5.75503">
        <ele>479.60000610352</ele>
        <time>2019-10-08T12:07:39Z</time>
      </trkpt>
      <trkpt lat="45.5535" lon="5.75514">
        <ele>477.20001220703</ele>
        <time>2019-10-08T12:07:43Z</time>
      </trkpt>
      <trkpt lat="45.55359" lon="5.75549">
        <ele>475.79998779297</ele>
        <time>2019-10-08T12:07:46Z</time>
      </trkpt>
      <trkpt lat="45.55369" lon="5.75565">
        <ele>475.20001220703</ele>
        <time>2019-10-08T12:07:51Z</time>
      </trkpt>
      <trkpt lat="45.55377" lon="5.75577">
        <ele>475.20001220703</ele>
        <time>2019-10-08T12:07:57Z</time>
      </trkpt>
      <trkpt lat="45.55378" lon="5.75579">
        <ele>475.39999389648</ele>
        <time>2019-10-08T12:07:59Z</time>
      </trkpt>
      <trkpt lat="45.55382" lon="5.7559">
        <ele>476.79998779297</ele>
        <time>2019-10-08T12:08:04Z</time>
      </trkpt>
      <trkpt lat="45.55385" lon="5.756">
        <ele>477.79998779297</ele>
        <time>2019-10-08T12:08:09Z</time>
      </trkpt>
      <trkpt lat="45.55392" lon="5.75623">
        <ele>479.39999389648</ele>
        <time>2019-10-08T12:08:19Z</time>
      </trkpt>
      <trkpt lat="45.55397" lon="5.75638">
        <ele>480.79998779297</ele>
        <time>2019-10-08T12:08:25Z</time>
      </trkpt>
      <trkpt lat="45.55407" lon="5.75659">
        <ele>482.60000610352</ele>
        <time>2019-10-08T12:08:36Z</time>
      </trkpt>
      <trkpt lat="45.55414" lon="5.75671">
        <ele>483.79998779297</ele>
        <time>2019-10-08T12:08:43Z</time>
      </trkpt>
      <trkpt lat="45.55423" lon="5.75683">
        <ele>484.79998779297</ele>
        <time>2019-10-08T12:08:51Z</time>
      </trkpt>
      <trkpt lat="45.55429" lon="5.7569">
        <ele>485.79998779297</ele>
        <time>2019-10-08T12:08:56Z</time>
      </trkpt>
      <trkpt lat="45.55442" lon="5.75707">
        <ele>488.20001220703</ele>
        <time>2019-10-08T12:09:08Z</time>
      </trkpt>
      <trkpt lat="45.55451" lon="5.75718">
        <ele>489.39999389648</ele>
        <time>2019-10-08T12:09:15Z</time>
      </trkpt>
      <trkpt lat="45.55451" lon="5.75734">
        <ele>490.20001220703</ele>
        <time>2019-10-08T12:09:20Z</time>
      </trkpt>
      <trkpt lat="45.55444" lon="5.75736">
        <ele>490.79998779297</ele>
        <time>2019-10-08T12:09:24Z</time>
      </trkpt>
      <trkpt lat="45.55414" lon="5.75724">
        <ele>493</ele>
        <time>2019-10-08T12:09:40Z</time>
      </trkpt>
      <trkpt lat="45.55393" lon="5.75746">
        <ele>495</ele>
        <time>2019-10-08T12:09:54Z</time>
      </trkpt>
      <trkpt lat="45.55394" lon="5.7577">
        <ele>496.20001220703</ele>
        <time>2019-10-08T12:10:02Z</time>
      </trkpt>
      <trkpt lat="45.55399" lon="5.75803">
        <ele>498.60000610352</ele>
        <time>2019-10-08T12:10:14Z</time>
      </trkpt>
      <trkpt lat="45.55403" lon="5.75835">
        <ele>500.60000610352</ele>
        <time>2019-10-08T12:10:26Z</time>
      </trkpt>
      <trkpt lat="45.55399" lon="5.75867">
        <ele>502.60000610352</ele>
        <time>2019-10-08T12:10:37Z</time>
      </trkpt>
      <trkpt lat="45.55394" lon="5.75882">
        <ele>504</ele>
        <time>2019-10-08T12:10:43Z</time>
      </trkpt>
      <trkpt lat="45.55384" lon="5.7593">
        <ele>506.79998779297</ele>
        <time>2019-10-08T12:10:58Z</time>
      </trkpt>
      <trkpt lat="45.5538" lon="5.75963">
        <ele>508.20001220703</ele>
        <time>2019-10-08T12:11:07Z</time>
      </trkpt>
      <trkpt lat="45.5536" lon="5.76025">
        <ele>509.20001220703</ele>
        <time>2019-10-08T12:11:22Z</time>
      </trkpt>
      <trkpt lat="45.55347" lon="5.7607">
        <ele>511</ele>
        <time>2019-10-08T12:11:33Z</time>
      </trkpt>
      <trkpt lat="45.55338" lon="5.761">
        <ele>511.79998779297</ele>
        <time>2019-10-08T12:11:42Z</time>
      </trkpt>
      <trkpt lat="45.55337" lon="5.76101">
        <ele>513.20001220703</ele>
        <time>2019-10-08T12:12:23Z</time>
      </trkpt>
      <trkpt lat="45.55328" lon="5.76099">
        <ele>513.20001220703</ele>
        <time>2019-10-08T12:12:27Z</time>
      </trkpt>
      <trkpt lat="45.55323" lon="5.76097">
        <ele>512.79998779297</ele>
        <time>2019-10-08T12:12:40Z</time>
      </trkpt>
      <trkpt lat="45.55313" lon="5.76094">
        <ele>512.59997558594</ele>
        <time>2019-10-08T12:12:44Z</time>
      </trkpt>
      <trkpt lat="45.55278" lon="5.76082">
        <ele>512</ele>
        <time>2019-10-08T12:12:52Z</time>
      </trkpt>
      <trkpt lat="45.55262" lon="5.76077">
        <ele>511.79998779297</ele>
        <time>2019-10-08T12:12:55Z</time>
      </trkpt>
      <trkpt lat="45.55217" lon="5.7607">
        <ele>510.79998779297</ele>
        <time>2019-10-08T12:13:03Z</time>
      </trkpt>
      <trkpt lat="45.55204" lon="5.76082">
        <ele>510.20001220703</ele>
        <time>2019-10-08T12:13:06Z</time>
      </trkpt>
      <trkpt lat="45.55189" lon="5.7611">
        <ele>509</ele>
        <time>2019-10-08T12:13:10Z</time>
      </trkpt>
      <trkpt lat="45.55182" lon="5.76129">
        <ele>508.39999389648</ele>
        <time>2019-10-08T12:13:12Z</time>
      </trkpt>
      <trkpt lat="45.55156" lon="5.76169">
        <ele>506.79998779297</ele>
        <time>2019-10-08T12:13:17Z</time>
      </trkpt>
      <trkpt lat="45.5513" lon="5.76203">
        <ele>503.79998779297</ele>
        <time>2019-10-08T12:13:21Z</time>
      </trkpt>
      <trkpt lat="45.55089" lon="5.76247">
        <ele>500.60000610352</ele>
        <time>2019-10-08T12:13:26Z</time>
      </trkpt>
      <trkpt lat="45.5507" lon="5.76288">
        <ele>498</ele>
        <time>2019-10-08T12:13:30Z</time>
      </trkpt>
      <trkpt lat="45.55045" lon="5.7633">
        <ele>494.39999389648</ele>
        <time>2019-10-08T12:13:35Z</time>
      </trkpt>
      <trkpt lat="45.55028" lon="5.76349">
        <ele>492</ele>
        <time>2019-10-08T12:13:38Z</time>
      </trkpt>
      <trkpt lat="45.55005" lon="5.76363">
        <ele>490</ele>
        <time>2019-10-08T12:13:41Z</time>
      </trkpt>
      <trkpt lat="45.54977" lon="5.7638">
        <ele>487.60000610352</ele>
        <time>2019-10-08T12:13:44Z</time>
      </trkpt>
      <trkpt lat="45.5496" lon="5.76396">
        <ele>485.79998779297</ele>
        <time>2019-10-08T12:13:46Z</time>
      </trkpt>
      <trkpt lat="45.54917" lon="5.76437">
        <ele>480.60000610352</ele>
        <time>2019-10-08T12:13:52Z</time>
      </trkpt>
      <trkpt lat="45.54902" lon="5.7644">
        <ele>479</ele>
        <time>2019-10-08T12:13:54Z</time>
      </trkpt>
      <trkpt lat="45.54868" lon="5.7643">
        <ele>476.60000610352</ele>
        <time>2019-10-08T12:13:58Z</time>
      </trkpt>
      <trkpt lat="45.54848" lon="5.76422">
        <ele>475.60000610352</ele>
        <time>2019-10-08T12:14:00Z</time>
      </trkpt>
      <trkpt lat="45.54807" lon="5.76406">
        <ele>471.79998779297</ele>
        <time>2019-10-08T12:14:05Z</time>
      </trkpt>
      <trkpt lat="45.54785" lon="5.76396">
        <ele>469.79998779297</ele>
        <time>2019-10-08T12:14:07Z</time>
      </trkpt>
      <trkpt lat="45.54757" lon="5.76378">
        <ele>465.20001220703</ele>
        <time>2019-10-08T12:14:11Z</time>
      </trkpt>
      <trkpt lat="45.54744" lon="5.76369">
        <ele>463.20001220703</ele>
        <time>2019-10-08T12:14:13Z</time>
      </trkpt>
      <trkpt lat="45.54697" lon="5.76346">
        <ele>458</ele>
        <time>2019-10-08T12:14:19Z</time>
      </trkpt>
      <trkpt lat="45.54676" lon="5.76337">
        <ele>455.39999389648</ele>
        <time>2019-10-08T12:14:22Z</time>
      </trkpt>
      <trkpt lat="45.54656" lon="5.76317">
        <ele>452</ele>
        <time>2019-10-08T12:14:25Z</time>
      </trkpt>
      <trkpt lat="45.54629" lon="5.76285">
        <ele>447.60000610352</ele>
        <time>2019-10-08T12:14:29Z</time>
      </trkpt>
      <trkpt lat="45.54602" lon="5.76252">
        <ele>444</ele>
        <time>2019-10-08T12:14:33Z</time>
      </trkpt>
      <trkpt lat="45.54561" lon="5.76219">
        <ele>438.20001220703</ele>
        <time>2019-10-08T12:14:40Z</time>
      </trkpt>
      <trkpt lat="45.5455" lon="5.7622">
        <ele>435.79998779297</ele>
        <time>2019-10-08T12:14:42Z</time>
      </trkpt>
      <trkpt lat="45.5451" lon="5.76231">
        <ele>431</ele>
        <time>2019-10-08T12:14:47Z</time>
      </trkpt>
      <trkpt lat="45.54486" lon="5.76238">
        <ele>429.20001220703</ele>
        <time>2019-10-08T12:14:50Z</time>
      </trkpt>
      <trkpt lat="45.54451" lon="5.76242">
        <ele>424</ele>
        <time>2019-10-08T12:14:56Z</time>
      </trkpt>
      <trkpt lat="45.54439" lon="5.76229">
        <ele>422.39999389648</ele>
        <time>2019-10-08T12:14:58Z</time>
      </trkpt>
      <trkpt lat="45.54414" lon="5.76203">
        <ele>419.20001220703</ele>
        <time>2019-10-08T12:15:02Z</time>
      </trkpt>
      <trkpt lat="45.54372" lon="5.76156">
        <ele>416</ele>
        <time>2019-10-08T12:15:10Z</time>
      </trkpt>
      <trkpt lat="45.54323" lon="5.76105">
        <ele>412.60000610352</ele>
        <time>2019-10-08T12:15:19Z</time>
      </trkpt>
      <trkpt lat="45.543" lon="5.76084">
        <ele>410</ele>
        <time>2019-10-08T12:15:27Z</time>
      </trkpt>
      <trkpt lat="45.54276" lon="5.76026">
        <ele>409.60000610352</ele>
        <time>2019-10-08T12:15:42Z</time>
      </trkpt>
      <trkpt lat="45.54273" lon="5.76012">
        <ele>409.39999389648</ele>
        <time>2019-10-08T12:15:49Z</time>
      </trkpt>
      <trkpt lat="45.54273" lon="5.7601">
        <ele>409.20001220703</ele>
        <time>2019-10-08T12:15:53Z</time>
      </trkpt>
      <trkpt lat="45.54279" lon="5.76038">
        <ele>409.60000610352</ele>
        <time>2019-10-08T12:16:02Z</time>
      </trkpt>
      <trkpt lat="45.54288" lon="5.76067">
        <ele>409.79998779297</ele>
        <time>2019-10-08T12:16:10Z</time>
      </trkpt>
      <trkpt lat="45.54295" lon="5.76093">
        <ele>409.79998779297</ele>
        <time>2019-10-08T12:16:17Z</time>
      </trkpt>
      <trkpt lat="45.54285" lon="5.76109">
        <ele>410</ele>
        <time>2019-10-08T12:16:25Z</time>
      </trkpt>
      <trkpt lat="45.54241" lon="5.76056">
        <ele>410.79998779297</ele>
        <time>2019-10-08T12:16:45Z</time>
      </trkpt>
      <trkpt lat="45.54233" lon="5.76047">
        <ele>410.79998779297</ele>
        <time>2019-10-08T12:16:51Z</time>
      </trkpt>
      <trkpt lat="45.5423" lon="5.76045">
        <ele>410.79998779297</ele>
        <time>2019-10-08T12:16:56Z</time>
      </trkpt>
      <trkpt lat="45.54235" lon="5.76049">
        <ele>410.79998779297</ele>
        <time>2019-10-08T12:17:00Z</time>
      </trkpt>
      <trkpt lat="45.54278" lon="5.76101">
        <ele>411</ele>
        <time>2019-10-08T12:17:16Z</time>
      </trkpt>
      <trkpt lat="45.543" lon="5.76128">
        <ele>410.79998779297</ele>
        <time>2019-10-08T12:17:24Z</time>
      </trkpt>
      <trkpt lat="45.54338" lon="5.76207">
        <ele>410.79998779297</ele>
        <time>2019-10-08T12:17:38Z</time>
      </trkpt>
      <trkpt lat="45.54359" lon="5.76285">
        <ele>411.20001220703</ele>
        <time>2019-10-08T12:17:51Z</time>
      </trkpt>
      <trkpt lat="45.5437" lon="5.76324">
        <ele>411.39999389648</ele>
        <time>2019-10-08T12:17:59Z</time>
      </trkpt>
      <trkpt lat="45.54391" lon="5.7634">
        <ele>411.39999389648</ele>
        <time>2019-10-08T12:18:09Z</time>
      </trkpt>
      <trkpt lat="45.54385" lon="5.76319">
        <ele>411.79998779297</ele>
        <time>2019-10-08T12:18:15Z</time>
      </trkpt>
      <trkpt lat="45.54385" lon="5.76319">
        <ele>412.39999389648</ele>
        <time>2019-10-08T12:18:28Z</time>
      </trkpt>
      <trkpt lat="45.54401" lon="5.76345">
        <ele>412.60000610352</ele>
        <time>2019-10-08T12:18:35Z</time>
      </trkpt>
      <trkpt lat="45.54391" lon="5.7634">
        <ele>412</ele>
        <time>2019-10-08T12:18:48Z</time>
      </trkpt>
      <trkpt lat="45.54388" lon="5.76331">
        <ele>411.79998779297</ele>
        <time>2019-10-08T12:18:55Z</time>
      </trkpt>
      <trkpt lat="45.54364" lon="5.76302">
        <ele>411.39999389648</ele>
        <time>2019-10-08T12:19:06Z</time>
      </trkpt>
      <trkpt lat="45.54357" lon="5.76277">
        <ele>411.39999389648</ele>
        <time>2019-10-08T12:19:11Z</time>
      </trkpt>
      <trkpt lat="45.54333" lon="5.76188">
        <ele>411.20001220703</ele>
        <time>2019-10-08T12:19:25Z</time>
      </trkpt>
      <trkpt lat="45.54317" lon="5.76137">
        <ele>411</ele>
        <time>2019-10-08T12:19:32Z</time>
      </trkpt>
      <trkpt lat="45.54314" lon="5.761">
        <ele>410.60000610352</ele>
        <time>2019-10-08T12:19:38Z</time>
      </trkpt>
      <trkpt lat="45.54279" lon="5.76103">
        <ele>410.60000610352</ele>
        <time>2019-10-08T12:19:45Z</time>
      </trkpt>
      <trkpt lat="45.54264" lon="5.76084">
        <ele>410.60000610352</ele>
        <time>2019-10-08T12:19:50Z</time>
      </trkpt>
      <trkpt lat="45.5423" lon="5.76044">
        <ele>411</ele>
        <time>2019-10-08T12:20:06Z</time>
      </trkpt>
      <trkpt lat="45.54214" lon="5.76102">
        <ele>411.20001220703</ele>
        <time>2019-10-08T12:20:17Z</time>
      </trkpt>
      <trkpt lat="45.54178" lon="5.76175">
        <ele>411</ele>
        <time>2019-10-08T12:20:31Z</time>
      </trkpt>
      <trkpt lat="45.54154" lon="5.76207">
        <ele>410.79998779297</ele>
        <time>2019-10-08T12:20:39Z</time>
      </trkpt>
      <trkpt lat="45.5412" lon="5.76274">
        <ele>410.39999389648</ele>
        <time>2019-10-08T12:20:57Z</time>
      </trkpt>
      <trkpt lat="45.54115" lon="5.76316">
        <ele>410.39999389648</ele>
        <time>2019-10-08T12:21:03Z</time>
      </trkpt>
      <trkpt lat="45.54113" lon="5.7644">
        <ele>411.20001220703</ele>
        <time>2019-10-08T12:21:22Z</time>
      </trkpt>
      <trkpt lat="45.54112" lon="5.76486">
        <ele>411.60000610352</ele>
        <time>2019-10-08T12:21:30Z</time>
      </trkpt>
      <trkpt lat="45.54117" lon="5.76531">
        <ele>412.60000610352</ele>
        <time>2019-10-08T12:21:42Z</time>
      </trkpt>
      <trkpt lat="45.54117" lon="5.7654">
        <ele>413</ele>
        <time>2019-10-08T12:21:47Z</time>
      </trkpt>
      <trkpt lat="45.54119" lon="5.76547">
        <ele>413</ele>
        <time>2019-10-08T12:21:54Z</time>
      </trkpt>
      <trkpt lat="45.5412" lon="5.7655">
        <ele>413.20001220703</ele>
        <time>2019-10-08T12:22:02Z</time>
      </trkpt>
      <trkpt lat="45.54119" lon="5.76547">
        <ele>413.20001220703</ele>
        <time>2019-10-08T12:22:07Z</time>
      </trkpt>
      <trkpt lat="45.54117" lon="5.76531">
        <ele>413.20001220703</ele>
        <time>2019-10-08T12:22:12Z</time>
      </trkpt>
      <trkpt lat="45.54114" lon="5.76505">
        <ele>412.79998779297</ele>
        <time>2019-10-08T12:22:19Z</time>
      </trkpt>
      <trkpt lat="45.54113" lon="5.76433">
        <ele>412.20001220703</ele>
        <time>2019-10-08T12:22:36Z</time>
      </trkpt>
      <trkpt lat="45.54114" lon="5.76389">
        <ele>411.60000610352</ele>
        <time>2019-10-08T12:22:53Z</time>
      </trkpt>
      <trkpt lat="45.54114" lon="5.76367">
        <ele>411.39999389648</ele>
        <time>2019-10-08T12:23:12Z</time>
      </trkpt>
      <trkpt lat="45.54114" lon="5.76373">
        <ele>411.39999389648</ele>
        <time>2019-10-08T12:23:17Z</time>
      </trkpt>
      <trkpt lat="45.54114" lon="5.76386">
        <ele>411.39999389648</ele>
        <time>2019-10-08T12:23:25Z</time>
      </trkpt>
      <trkpt lat="45.54135" lon="5.76359">
        <ele>411.39999389648</ele>
        <time>2019-10-08T12:23:29Z</time>
      </trkpt>
      <trkpt lat="45.54137" lon="5.7636">
        <ele>411.60000610352</ele>
        <time>2019-10-08T12:23:36Z</time>
      </trkpt>
      <trkpt lat="45.54134" lon="5.76359">
        <ele>411.60000610352</ele>
        <time>2019-10-08T12:23:44Z</time>
      </trkpt>
      <trkpt lat="45.54127" lon="5.76392">
        <ele>411.60000610352</ele>
        <time>2019-10-08T12:23:49Z</time>
      </trkpt>
      <trkpt lat="45.54114" lon="5.76365">
        <ele>411.79998779297</ele>
        <time>2019-10-08T12:23:56Z</time>
      </trkpt>
      <trkpt lat="45.54118" lon="5.76282">
        <ele>410.60000610352</ele>
        <time>2019-10-08T12:24:13Z</time>
      </trkpt>
      <trkpt lat="45.54137" lon="5.76231">
        <ele>410.20001220703</ele>
        <time>2019-10-08T12:24:28Z</time>
      </trkpt>
      <trkpt lat="45.54176" lon="5.76178">
        <ele>410.60000610352</ele>
        <time>2019-10-08T12:24:42Z</time>
      </trkpt>
      <trkpt lat="45.54202" lon="5.76136">
        <ele>410.60000610352</ele>
        <time>2019-10-08T12:24:51Z</time>
      </trkpt>
      <trkpt lat="45.54215" lon="5.76097">
        <ele>410.79998779297</ele>
        <time>2019-10-08T12:24:58Z</time>
      </trkpt>
      <trkpt lat="45.54229" lon="5.76039">
        <ele>411.39999389648</ele>
        <time>2019-10-08T12:25:08Z</time>
      </trkpt>
      <trkpt lat="45.54225" lon="5.76014">
        <ele>411.39999389648</ele>
        <time>2019-10-08T12:25:12Z</time>
      </trkpt>
      <trkpt lat="45.54222" lon="5.7597">
        <ele>412.39999389648</ele>
        <time>2019-10-08T12:25:21Z</time>
      </trkpt>
      <trkpt lat="45.5422" lon="5.75937">
        <ele>414.20001220703</ele>
        <time>2019-10-08T12:25:30Z</time>
      </trkpt>
      <trkpt lat="45.54216" lon="5.75898">
        <ele>415.39999389648</ele>
        <time>2019-10-08T12:25:40Z</time>
      </trkpt>
      <trkpt lat="45.54209" lon="5.75865">
        <ele>416.79998779297</ele>
        <time>2019-10-08T12:25:50Z</time>
      </trkpt>
      <trkpt lat="45.542" lon="5.75831">
        <ele>417.79998779297</ele>
        <time>2019-10-08T12:26:00Z</time>
      </trkpt>
      <trkpt lat="45.54186" lon="5.75789">
        <ele>419.39999389648</ele>
        <time>2019-10-08T12:26:12Z</time>
      </trkpt>
      <trkpt lat="45.54182" lon="5.75706">
        <ele>420.60000610352</ele>
        <time>2019-10-08T12:26:29Z</time>
      </trkpt>
      <trkpt lat="45.54184" lon="5.75689">
        <ele>421</ele>
        <time>2019-10-08T12:26:34Z</time>
      </trkpt>
      <trkpt lat="45.54182" lon="5.75668">
        <ele>421.79998779297</ele>
        <time>2019-10-08T12:28:20Z</time>
      </trkpt>
      <trkpt lat="45.54172" lon="5.75651">
        <ele>422</ele>
        <time>2019-10-08T12:28:28Z</time>
      </trkpt>
      <trkpt lat="45.54164" lon="5.75651">
        <ele>422.20001220703</ele>
        <time>2019-10-08T12:28:32Z</time>
      </trkpt>
      <trkpt lat="45.54144" lon="5.75673">
        <ele>422.79998779297</ele>
        <time>2019-10-08T12:28:42Z</time>
      </trkpt>
      <trkpt lat="45.54136" lon="5.75709">
        <ele>424.20001220703</ele>
        <time>2019-10-08T12:28:50Z</time>
      </trkpt>
      <trkpt lat="45.54142" lon="5.75753">
        <ele>424.60000610352</ele>
        <time>2019-10-08T12:29:01Z</time>
      </trkpt>
      <trkpt lat="45.54146" lon="5.75765">
        <ele>425.39999389648</ele>
        <time>2019-10-08T12:29:09Z</time>
      </trkpt>
      <trkpt lat="45.54136" lon="5.75718">
        <ele>425.39999389648</ele>
        <time>2019-10-08T12:29:19Z</time>
      </trkpt>
      <trkpt lat="45.54141" lon="5.75682">
        <ele>425.39999389648</ele>
        <time>2019-10-08T12:29:24Z</time>
      </trkpt>
      <trkpt lat="45.54157" lon="5.75655">
        <ele>424.79998779297</ele>
        <time>2019-10-08T12:29:29Z</time>
      </trkpt>
      <trkpt lat="45.5417" lon="5.75651">
        <ele>424.79998779297</ele>
        <time>2019-10-08T12:29:32Z</time>
      </trkpt>
      <trkpt lat="45.5419" lon="5.75617">
        <ele>423.39999389648</ele>
        <time>2019-10-08T12:29:39Z</time>
      </trkpt>
      <trkpt lat="45.54197" lon="5.75595">
        <ele>422.60000610352</ele>
        <time>2019-10-08T12:29:43Z</time>
      </trkpt>
      <trkpt lat="45.54198" lon="5.75577">
        <ele>422.39999389648</ele>
        <time>2019-10-08T12:29:46Z</time>
      </trkpt>
      <trkpt lat="45.5419" lon="5.75548">
        <ele>421.79998779297</ele>
        <time>2019-10-08T12:29:51Z</time>
      </trkpt>
      <trkpt lat="45.54161" lon="5.75509">
        <ele>421.39999389648</ele>
        <time>2019-10-08T12:29:57Z</time>
      </trkpt>
      <trkpt lat="45.54121" lon="5.75452">
        <ele>419.79998779297</ele>
        <time>2019-10-08T12:30:05Z</time>
      </trkpt>
      <trkpt lat="45.54098" lon="5.75401">
        <ele>419</ele>
        <time>2019-10-08T12:30:11Z</time>
      </trkpt>
      <trkpt lat="45.54042" lon="5.75332">
        <ele>417.20001220703</ele>
        <time>2019-10-08T12:30:21Z</time>
      </trkpt>
      <trkpt lat="45.54011" lon="5.75317">
        <ele>415.79998779297</ele>
        <time>2019-10-08T12:30:25Z</time>
      </trkpt>
      <trkpt lat="45.53949" lon="5.75321">
        <ele>414</ele>
        <time>2019-10-08T12:30:32Z</time>
      </trkpt>
      <trkpt lat="45.53898" lon="5.75316">
        <ele>412.20001220703</ele>
        <time>2019-10-08T12:30:38Z</time>
      </trkpt>
      <trkpt lat="45.53855" lon="5.75318">
        <ele>410</ele>
        <time>2019-10-08T12:30:44Z</time>
      </trkpt>
      <trkpt lat="45.5384" lon="5.75302">
        <ele>409</ele>
        <time>2019-10-08T12:30:48Z</time>
      </trkpt>
      <trkpt lat="45.53829" lon="5.75287">
        <ele>407.60000610352</ele>
        <time>2019-10-08T12:30:55Z</time>
      </trkpt>
      <trkpt lat="45.53836" lon="5.75277">
        <ele>407.39999389648</ele>
        <time>2019-10-08T12:30:58Z</time>
      </trkpt>
      <trkpt lat="45.53873" lon="5.75277">
        <ele>407</ele>
        <time>2019-10-08T12:31:05Z</time>
      </trkpt>
      <trkpt lat="45.53946" lon="5.75273">
        <ele>406</ele>
        <time>2019-10-08T12:31:17Z</time>
      </trkpt>
      <trkpt lat="45.54011" lon="5.75274">
        <ele>405.60000610352</ele>
        <time>2019-10-08T12:31:28Z</time>
      </trkpt>
      <trkpt lat="45.54112" lon="5.75317">
        <ele>404.39999389648</ele>
        <time>2019-10-08T12:31:46Z</time>
      </trkpt>
      <trkpt lat="45.5416" lon="5.75346">
        <ele>404.20001220703</ele>
        <time>2019-10-08T12:31:57Z</time>
      </trkpt>
      <trkpt lat="45.54187" lon="5.75313">
        <ele>404.20001220703</ele>
        <time>2019-10-08T12:32:05Z</time>
      </trkpt>
      <trkpt lat="45.54192" lon="5.75303">
        <ele>404.20001220703</ele>
        <time>2019-10-08T12:32:07Z</time>
      </trkpt>
      <trkpt lat="45.54203" lon="5.75258">
        <ele>404.60000610352</ele>
        <time>2019-10-08T12:32:16Z</time>
      </trkpt>
      <trkpt lat="45.54202" lon="5.75244">
        <ele>405</ele>
        <time>2019-10-08T12:32:20Z</time>
      </trkpt>
      <trkpt lat="45.54183" lon="5.75185">
        <ele>407.20001220703</ele>
        <time>2019-10-08T12:32:34Z</time>
      </trkpt>
      <trkpt lat="45.54185" lon="5.75158">
        <ele>408.20001220703</ele>
        <time>2019-10-08T12:32:41Z</time>
      </trkpt>
      <trkpt lat="45.54195" lon="5.75105">
        <ele>409.60000610352</ele>
        <time>2019-10-08T12:32:54Z</time>
      </trkpt>
      <trkpt lat="45.54192" lon="5.75073">
        <ele>411</ele>
        <time>2019-10-08T12:33:04Z</time>
      </trkpt>
      <trkpt lat="45.54169" lon="5.75044">
        <ele>412.79998779297</ele>
        <time>2019-10-08T12:33:19Z</time>
      </trkpt>
      <trkpt lat="45.54147" lon="5.75022">
        <ele>414.20001220703</ele>
        <time>2019-10-08T12:33:29Z</time>
      </trkpt>
      <trkpt lat="45.54126" lon="5.74996">
        <ele>415.39999389648</ele>
        <time>2019-10-08T12:33:40Z</time>
      </trkpt>
      <trkpt lat="45.54112" lon="5.74962">
        <ele>417.20001220703</ele>
        <time>2019-10-08T12:33:53Z</time>
      </trkpt>
      <trkpt lat="45.54111" lon="5.74928">
        <ele>418.39999389648</ele>
        <time>2019-10-08T12:34:02Z</time>
      </trkpt>
      <trkpt lat="45.54129" lon="5.7487">
        <ele>421.20001220703</ele>
        <time>2019-10-08T12:34:19Z</time>
      </trkpt>
      <trkpt lat="45.54141" lon="5.74835">
        <ele>422</ele>
        <time>2019-10-08T12:34:28Z</time>
      </trkpt>
      <trkpt lat="45.54146" lon="5.74792">
        <ele>422.39999389648</ele>
        <time>2019-10-08T12:34:37Z</time>
      </trkpt>
      <trkpt lat="45.54151" lon="5.74765">
        <ele>422.79998779297</ele>
        <time>2019-10-08T12:34:44Z</time>
      </trkpt>
      <trkpt lat="45.54163" lon="5.74765">
        <ele>423.60000610352</ele>
        <time>2019-10-08T12:34:50Z</time>
      </trkpt>
      <trkpt lat="45.54179" lon="5.74769">
        <ele>424.60000610352</ele>
        <time>2019-10-08T12:34:58Z</time>
      </trkpt>
      <trkpt lat="45.54204" lon="5.74781">
        <ele>426.79998779297</ele>
        <time>2019-10-08T12:35:09Z</time>
      </trkpt>
      <trkpt lat="45.54224" lon="5.7479">
        <ele>428.39999389648</ele>
        <time>2019-10-08T12:35:19Z</time>
      </trkpt>
      <trkpt lat="45.54247" lon="5.74802">
        <ele>430.20001220703</ele>
        <time>2019-10-08T12:35:31Z</time>
      </trkpt>
      <trkpt lat="45.54269" lon="5.74813">
        <ele>431.79998779297</ele>
        <time>2019-10-08T12:35:42Z</time>
      </trkpt>
      <trkpt lat="45.54293" lon="5.74825">
        <ele>433.20001220703</ele>
        <time>2019-10-08T12:35:51Z</time>
      </trkpt>
      <trkpt lat="45.54318" lon="5.74832">
        <ele>435</ele>
        <time>2019-10-08T12:36:02Z</time>
      </trkpt>
      <trkpt lat="45.54328" lon="5.74835">
        <ele>435.60000610352</ele>
        <time>2019-10-08T12:36:06Z</time>
      </trkpt>
      <trkpt lat="45.54361" lon="5.74834">
        <ele>437.39999389648</ele>
        <time>2019-10-08T12:36:20Z</time>
      </trkpt>
      <trkpt lat="45.54372" lon="5.74833">
        <ele>438.39999389648</ele>
        <time>2019-10-08T12:36:26Z</time>
      </trkpt>
      <trkpt lat="45.54399" lon="5.7483">
        <ele>441.20001220703</ele>
        <time>2019-10-08T12:36:42Z</time>
      </trkpt>
      <trkpt lat="45.5442" lon="5.74832">
        <ele>442.39999389648</ele>
        <time>2019-10-08T12:36:51Z</time>
      </trkpt>
      <trkpt lat="45.54449" lon="5.74838">
        <ele>444</ele>
        <time>2019-10-08T12:37:03Z</time>
      </trkpt>
      <trkpt lat="45.54466" lon="5.74842">
        <ele>445.20001220703</ele>
        <time>2019-10-08T12:37:10Z</time>
      </trkpt>
      <trkpt lat="45.54496" lon="5.74857">
        <ele>447.20001220703</ele>
        <time>2019-10-08T12:37:23Z</time>
      </trkpt>
      <trkpt lat="45.54511" lon="5.74866">
        <ele>448.39999389648</ele>
        <time>2019-10-08T12:37:31Z</time>
      </trkpt>
      <trkpt lat="45.54542" lon="5.74883">
        <ele>450.39999389648</ele>
        <time>2019-10-08T12:37:45Z</time>
      </trkpt>
      <trkpt lat="45.54556" lon="5.74892">
        <ele>451.20001220703</ele>
        <time>2019-10-08T12:37:51Z</time>
      </trkpt>
      <trkpt lat="45.54576" lon="5.74911">
        <ele>452.60000610352</ele>
        <time>2019-10-08T12:38:01Z</time>
      </trkpt>
      <trkpt lat="45.54597" lon="5.74927">
        <ele>454.60000610352</ele>
        <time>2019-10-08T12:38:12Z</time>
      </trkpt>
      <trkpt lat="45.54616" lon="5.74937">
        <ele>456</ele>
        <time>2019-10-08T12:38:22Z</time>
      </trkpt>
      <trkpt lat="45.54644" lon="5.74938">
        <ele>458.20001220703</ele>
        <time>2019-10-08T12:38:34Z</time>
      </trkpt>
      <trkpt lat="45.54668" lon="5.74938">
        <ele>459.60000610352</ele>
        <time>2019-10-08T12:38:44Z</time>
      </trkpt>
      <trkpt lat="45.54692" lon="5.74939">
        <ele>461.39999389648</ele>
        <time>2019-10-08T12:38:55Z</time>
      </trkpt>
      <trkpt lat="45.54707" lon="5.7494">
        <ele>462.79998779297</ele>
        <time>2019-10-08T12:39:02Z</time>
      </trkpt>
      <trkpt lat="45.5472" lon="5.74942">
        <ele>463.79998779297</ele>
        <time>2019-10-08T12:39:08Z</time>
      </trkpt>
      <trkpt lat="45.54748" lon="5.74948">
        <ele>466.20001220703</ele>
        <time>2019-10-08T12:39:20Z</time>
      </trkpt>
      <trkpt lat="45.54773" lon="5.7496">
        <ele>468</ele>
        <time>2019-10-08T12:39:31Z</time>
      </trkpt>
      <trkpt lat="45.54791" lon="5.74972">
        <ele>469.39999389648</ele>
        <time>2019-10-08T12:39:40Z</time>
      </trkpt>
      <trkpt lat="45.54813" lon="5.74987">
        <ele>471.79998779297</ele>
        <time>2019-10-08T12:39:51Z</time>
      </trkpt>
      <trkpt lat="45.54833" lon="5.74996">
        <ele>473.20001220703</ele>
        <time>2019-10-08T12:40:00Z</time>
      </trkpt>
      <trkpt lat="45.54854" lon="5.75009">
        <ele>474.60000610352</ele>
        <time>2019-10-08T12:40:11Z</time>
      </trkpt>
      <trkpt lat="45.54859" lon="5.75024">
        <ele>475.60000610352</ele>
        <time>2019-10-08T12:40:16Z</time>
      </trkpt>
      <trkpt lat="45.54865" lon="5.75059">
        <ele>477.79998779297</ele>
        <time>2019-10-08T12:40:28Z</time>
      </trkpt>
      <trkpt lat="45.54883" lon="5.75092">
        <ele>480.60000610352</ele>
        <time>2019-10-08T12:40:41Z</time>
      </trkpt>
      <trkpt lat="45.54895" lon="5.75112">
        <ele>481.79998779297</ele>
        <time>2019-10-08T12:40:50Z</time>
      </trkpt>
      <trkpt lat="45.54908" lon="5.75148">
        <ele>483.39999389648</ele>
        <time>2019-10-08T12:41:01Z</time>
      </trkpt>
      <trkpt lat="45.54917" lon="5.7516">
        <ele>484.79998779297</ele>
        <time>2019-10-08T12:41:07Z</time>
      </trkpt>
      <trkpt lat="45.54949" lon="5.7515">
        <ele>488.20001220703</ele>
        <time>2019-10-08T12:41:26Z</time>
      </trkpt>
      <trkpt lat="45.54956" lon="5.7514">
        <ele>489.60000610352</ele>
        <time>2019-10-08T12:41:31Z</time>
      </trkpt>
      <trkpt lat="45.54977" lon="5.75118">
        <ele>492</ele>
        <time>2019-10-08T12:41:45Z</time>
      </trkpt>
      <trkpt lat="45.54993" lon="5.75106">
        <ele>493.39999389648</ele>
        <time>2019-10-08T12:41:52Z</time>
      </trkpt>
      <trkpt lat="45.55011" lon="5.7508">
        <ele>495.60000610352</ele>
        <time>2019-10-08T12:42:03Z</time>
      </trkpt>
      <trkpt lat="45.55005" lon="5.75063">
        <ele>496.60000610352</ele>
        <time>2019-10-08T12:42:10Z</time>
      </trkpt>
      <trkpt lat="45.54981" lon="5.75056">
        <ele>498.79998779297</ele>
        <time>2019-10-08T12:42:22Z</time>
      </trkpt>
      <trkpt lat="45.54959" lon="5.75061">
        <ele>500</ele>
        <time>2019-10-08T12:42:32Z</time>
      </trkpt>
      <trkpt lat="45.54939" lon="5.75065">
        <ele>501</ele>
        <time>2019-10-08T12:42:40Z</time>
      </trkpt>
      <trkpt lat="45.54912" lon="5.75051">
        <ele>503.20001220703</ele>
        <time>2019-10-08T12:42:53Z</time>
      </trkpt>
      <trkpt lat="45.54903" lon="5.75036">
        <ele>503.79998779297</ele>
        <time>2019-10-08T12:42:59Z</time>
      </trkpt>
      <trkpt lat="45.54911" lon="5.74989">
        <ele>505.60000610352</ele>
        <time>2019-10-08T12:43:11Z</time>
      </trkpt>
      <trkpt lat="45.54915" lon="5.74971">
        <ele>506.39999389648</ele>
        <time>2019-10-08T12:43:16Z</time>
      </trkpt>
      <trkpt lat="45.54941" lon="5.74907">
        <ele>507.79998779297</ele>
        <time>2019-10-08T12:43:32Z</time>
      </trkpt>
      <trkpt lat="45.54966" lon="5.74892">
        <ele>509.20001220703</ele>
        <time>2019-10-08T12:43:41Z</time>
      </trkpt>
      <trkpt lat="45.55003" lon="5.74872">
        <ele>511.60000610352</ele>
        <time>2019-10-08T12:43:55Z</time>
      </trkpt>
      <trkpt lat="45.55027" lon="5.7486">
        <ele>512.79998779297</ele>
        <time>2019-10-08T12:44:04Z</time>
      </trkpt>
      <trkpt lat="45.55057" lon="5.74843">
        <ele>514.20001220703</ele>
        <time>2019-10-08T12:44:15Z</time>
      </trkpt>
      <trkpt lat="45.55094" lon="5.74821">
        <ele>515.79998779297</ele>
        <time>2019-10-08T12:44:29Z</time>
      </trkpt>
      <trkpt lat="45.55126" lon="5.74804">
        <ele>517.40002441406</ele>
        <time>2019-10-08T12:44:41Z</time>
      </trkpt>
      <trkpt lat="45.55156" lon="5.74796">
        <ele>519</ele>
        <time>2019-10-08T12:44:52Z</time>
      </trkpt>
      <trkpt lat="45.55166" lon="5.74797">
        <ele>519.79998779297</ele>
        <time>2019-10-08T12:45:01Z</time>
      </trkpt>
      <trkpt lat="45.55167" lon="5.74797">
        <ele>521.40002441406</ele>
        <time>2019-10-08T12:48:02Z</time>
      </trkpt>
      <trkpt lat="45.55166" lon="5.74797">
        <ele>521.20001220703</ele>
        <time>2019-10-08T12:48:04Z</time>
      </trkpt>
      <trkpt lat="45.55155" lon="5.74796">
        <ele>521.40002441406</ele>
        <time>2019-10-08T12:48:09Z</time>
      </trkpt>
      <trkpt lat="45.55132" lon="5.74802">
        <ele>521.20001220703</ele>
        <time>2019-10-08T12:48:14Z</time>
      </trkpt>
      <trkpt lat="45.55084" lon="5.74827">
        <ele>519.59997558594</ele>
        <time>2019-10-08T12:48:22Z</time>
      </trkpt>
      <trkpt lat="45.55055" lon="5.74844">
        <ele>519</ele>
        <time>2019-10-08T12:48:26Z</time>
      </trkpt>
      <trkpt lat="45.55008" lon="5.7487">
        <ele>517.20001220703</ele>
        <time>2019-10-08T12:48:32Z</time>
      </trkpt>
      <trkpt lat="45.54983" lon="5.74883">
        <ele>516.20001220703</ele>
        <time>2019-10-08T12:48:36Z</time>
      </trkpt>
      <trkpt lat="45.54926" lon="5.7493">
        <ele>513.20001220703</ele>
        <time>2019-10-08T12:48:43Z</time>
      </trkpt>
      <trkpt lat="45.54918" lon="5.7496">
        <ele>512</ele>
        <time>2019-10-08T12:48:46Z</time>
      </trkpt>
      <trkpt lat="45.54903" lon="5.75036">
        <ele>509.60000610352</ele>
        <time>2019-10-08T12:48:53Z</time>
      </trkpt>
      <trkpt lat="45.54904" lon="5.75042">
        <ele>509</ele>
        <time>2019-10-08T12:48:55Z</time>
      </trkpt>
      <trkpt lat="45.54923" lon="5.7506">
        <ele>508.20001220703</ele>
        <time>2019-10-08T12:48:58Z</time>
      </trkpt>
      <trkpt lat="45.54959" lon="5.75061">
        <ele>507</ele>
        <time>2019-10-08T12:49:02Z</time>
      </trkpt>
      <trkpt lat="45.5498" lon="5.75056">
        <ele>506.39999389648</ele>
        <time>2019-10-08T12:49:04Z</time>
      </trkpt>
      <trkpt lat="45.55003" lon="5.75059">
        <ele>505.60000610352</ele>
        <time>2019-10-08T12:49:07Z</time>
      </trkpt>
      <trkpt lat="45.55009" lon="5.7507">
        <ele>504.60000610352</ele>
        <time>2019-10-08T12:49:09Z</time>
      </trkpt>
      <trkpt lat="45.54996" lon="5.75104">
        <ele>501</ele>
        <time>2019-10-08T12:49:14Z</time>
      </trkpt>
      <trkpt lat="45.54974" lon="5.7512">
        <ele>499.60000610352</ele>
        <time>2019-10-08T12:49:17Z</time>
      </trkpt>
      <trkpt lat="45.54946" lon="5.75154">
        <ele>497.60000610352</ele>
        <time>2019-10-08T12:49:21Z</time>
      </trkpt>
      <trkpt lat="45.5492" lon="5.75162">
        <ele>496</ele>
        <time>2019-10-08T12:49:24Z</time>
      </trkpt>
      <trkpt lat="45.54902" lon="5.75131">
        <ele>493.79998779297</ele>
        <time>2019-10-08T12:49:27Z</time>
      </trkpt>
      <trkpt lat="45.54886" lon="5.75096">
        <ele>490.39999389648</ele>
        <time>2019-10-08T12:49:30Z</time>
      </trkpt>
      <trkpt lat="45.54866" lon="5.75061">
        <ele>489</ele>
        <time>2019-10-08T12:49:33Z</time>
      </trkpt>
      <trkpt lat="45.5486" lon="5.75033">
        <ele>487.79998779297</ele>
        <time>2019-10-08T12:49:35Z</time>
      </trkpt>
      <trkpt lat="45.54852" lon="5.75006">
        <ele>485.60000610352</ele>
        <time>2019-10-08T12:49:38Z</time>
      </trkpt>
      <trkpt lat="45.5483" lon="5.74995">
        <ele>483.79998779297</ele>
        <time>2019-10-08T12:49:40Z</time>
      </trkpt>
      <trkpt lat="45.54788" lon="5.7497">
        <ele>481.60000610352</ele>
        <time>2019-10-08T12:49:44Z</time>
      </trkpt>
      <trkpt lat="45.54753" lon="5.74949">
        <ele>478.60000610352</ele>
        <time>2019-10-08T12:49:48Z</time>
      </trkpt>
      <trkpt lat="45.54723" lon="5.74943">
        <ele>477.20001220703</ele>
        <time>2019-10-08T12:49:50Z</time>
      </trkpt>
      <trkpt lat="45.54688" lon="5.74939">
        <ele>475</ele>
        <time>2019-10-08T12:49:53Z</time>
      </trkpt>
      <trkpt lat="45.5466" lon="5.74938">
        <ele>473.39999389648</ele>
        <time>2019-10-08T12:49:55Z</time>
      </trkpt>
      <trkpt lat="45.54627" lon="5.74937">
        <ele>470.79998779297</ele>
        <time>2019-10-08T12:49:58Z</time>
      </trkpt>
      <trkpt lat="45.54581" lon="5.74917">
        <ele>467.20001220703</ele>
        <time>2019-10-08T12:50:02Z</time>
      </trkpt>
      <trkpt lat="45.54518" lon="5.74869">
        <ele>461.60000610352</ele>
        <time>2019-10-08T12:50:08Z</time>
      </trkpt>
      <trkpt lat="45.54474" lon="5.74846">
        <ele>458.20001220703</ele>
        <time>2019-10-08T12:50:12Z</time>
      </trkpt>
      <trkpt lat="45.54417" lon="5.74831">
        <ele>454</ele>
        <time>2019-10-08T12:50:17Z</time>
      </trkpt>
      <trkpt lat="45.54396" lon="5.74831">
        <ele>452.60000610352</ele>
        <time>2019-10-08T12:50:19Z</time>
      </trkpt>
      <trkpt lat="45.54335" lon="5.74836">
        <ele>448.60000610352</ele>
        <time>2019-10-08T12:50:24Z</time>
      </trkpt>
      <trkpt lat="45.5429" lon="5.74823">
        <ele>445.39999389648</ele>
        <time>2019-10-08T12:50:28Z</time>
      </trkpt>
      <trkpt lat="45.54243" lon="5.748">
        <ele>443</ele>
        <time>2019-10-08T12:50:32Z</time>
      </trkpt>
      <trkpt lat="45.54197" lon="5.74778">
        <ele>439.79998779297</ele>
        <time>2019-10-08T12:50:36Z</time>
      </trkpt>
      <trkpt lat="45.54176" lon="5.74767">
        <ele>438.20001220703</ele>
        <time>2019-10-08T12:50:38Z</time>
      </trkpt>
      <trkpt lat="45.54151" lon="5.74765">
        <ele>434.79998779297</ele>
        <time>2019-10-08T12:50:42Z</time>
      </trkpt>
      <trkpt lat="45.54146" lon="5.74778">
        <ele>432.79998779297</ele>
        <time>2019-10-08T12:50:44Z</time>
      </trkpt>
      <trkpt lat="45.54135" lon="5.74852">
        <ele>426.79998779297</ele>
        <time>2019-10-08T12:50:51Z</time>
      </trkpt>
      <trkpt lat="45.54113" lon="5.74916">
        <ele>425</ele>
        <time>2019-10-08T12:50:58Z</time>
      </trkpt>
      <trkpt lat="45.54118" lon="5.74981">
        <ele>424.20001220703</ele>
        <time>2019-10-08T12:51:04Z</time>
      </trkpt>
      <trkpt lat="45.54135" lon="5.75008">
        <ele>423.60000610352</ele>
        <time>2019-10-08T12:51:07Z</time>
      </trkpt>
      <trkpt lat="45.54165" lon="5.75041">
        <ele>422.20001220703</ele>
        <time>2019-10-08T12:51:11Z</time>
      </trkpt>
      <trkpt lat="45.54191" lon="5.75072">
        <ele>420</ele>
        <time>2019-10-08T12:51:15Z</time>
      </trkpt>
      <trkpt lat="45.54193" lon="5.75125">
        <ele>417.79998779297</ele>
        <time>2019-10-08T12:51:19Z</time>
      </trkpt>
      <trkpt lat="45.54184" lon="5.75177">
        <ele>416</ele>
        <time>2019-10-08T12:51:23Z</time>
      </trkpt>
      <trkpt lat="45.54188" lon="5.75201">
        <ele>414.79998779297</ele>
        <time>2019-10-08T12:51:25Z</time>
      </trkpt>
      <trkpt lat="45.542" lon="5.75236">
        <ele>413.20001220703</ele>
        <time>2019-10-08T12:51:28Z</time>
      </trkpt>
      <trkpt lat="45.54201" lon="5.7527">
        <ele>411.79998779297</ele>
        <time>2019-10-08T12:51:31Z</time>
      </trkpt>
      <trkpt lat="45.54193" lon="5.753">
        <ele>411.20001220703</ele>
        <time>2019-10-08T12:51:34Z</time>
      </trkpt>
      <trkpt lat="45.54178" lon="5.75323">
        <ele>409.60000610352</ele>
        <time>2019-10-08T12:51:37Z</time>
      </trkpt>
      <trkpt lat="45.54151" lon="5.75327">
        <ele>407.60000610352</ele>
        <time>2019-10-08T12:51:42Z</time>
      </trkpt>
      <trkpt lat="45.54145" lon="5.75331">
        <ele>405</ele>
        <time>2019-10-08T12:52:29Z</time>
      </trkpt>
      <trkpt lat="45.54147" lon="5.75341">
        <ele>405</ele>
        <time>2019-10-08T12:52:33Z</time>
      </trkpt>
      <trkpt lat="45.54156" lon="5.7536">
        <ele>405</ele>
        <time>2019-10-08T12:52:39Z</time>
      </trkpt>
      <trkpt lat="45.5419" lon="5.75415">
        <ele>405.20001220703</ele>
        <time>2019-10-08T12:52:53Z</time>
      </trkpt>
      <trkpt lat="45.542" lon="5.75434">
        <ele>406</ele>
        <time>2019-10-08T12:52:57Z</time>
      </trkpt>
      <trkpt lat="45.54215" lon="5.75469">
        <ele>407</ele>
        <time>2019-10-08T12:53:04Z</time>
      </trkpt>
      <trkpt lat="45.54225" lon="5.75497">
        <ele>408</ele>
        <time>2019-10-08T12:53:10Z</time>
      </trkpt>
      <trkpt lat="45.54243" lon="5.75553">
        <ele>409.39999389648</ele>
        <time>2019-10-08T12:53:22Z</time>
      </trkpt>
      <trkpt lat="45.54256" lon="5.75598">
        <ele>410.60000610352</ele>
        <time>2019-10-08T12:53:31Z</time>
      </trkpt>
      <trkpt lat="45.54266" lon="5.75651">
        <ele>412.20001220703</ele>
        <time>2019-10-08T12:53:41Z</time>
      </trkpt>
      <trkpt lat="45.54275" lon="5.75713">
        <ele>413</ele>
        <time>2019-10-08T12:53:51Z</time>
      </trkpt>
      <trkpt lat="45.54279" lon="5.75769">
        <ele>413.20001220703</ele>
        <time>2019-10-08T12:53:59Z</time>
      </trkpt>
      <trkpt lat="45.54279" lon="5.75845">
        <ele>412.60000610352</ele>
        <time>2019-10-08T12:54:10Z</time>
      </trkpt>
      <trkpt lat="45.54271" lon="5.75983">
        <ele>413.79998779297</ele>
        <time>2019-10-08T12:54:31Z</time>
      </trkpt>
      <trkpt lat="45.54285" lon="5.7606">
        <ele>413.39999389648</ele>
        <time>2019-10-08T12:54:43Z</time>
      </trkpt>
      <trkpt lat="45.54297" lon="5.76098">
        <ele>413.20001220703</ele>
        <time>2019-10-08T12:54:50Z</time>
      </trkpt>
      <trkpt lat="45.54286" lon="5.76111">
        <ele>413</ele>
        <time>2019-10-08T12:54:54Z</time>
      </trkpt>
      <trkpt lat="45.54254" lon="5.76073">
        <ele>413.79998779297</ele>
        <time>2019-10-08T12:55:04Z</time>
      </trkpt>
      <trkpt lat="45.54228" lon="5.7605">
        <ele>414</ele>
        <time>2019-10-08T12:55:14Z</time>
      </trkpt>
      <trkpt lat="45.54216" lon="5.76094">
        <ele>414.20001220703</ele>
        <time>2019-10-08T12:55:22Z</time>
      </trkpt>
      <trkpt lat="45.54188" lon="5.76161">
        <ele>414</ele>
        <time>2019-10-08T12:55:37Z</time>
      </trkpt>
      <trkpt lat="45.54173" lon="5.76181">
        <ele>413.79998779297</ele>
        <time>2019-10-08T12:55:42Z</time>
      </trkpt>
      <trkpt lat="45.54129" lon="5.76246">
        <ele>413.60000610352</ele>
        <time>2019-10-08T12:55:56Z</time>
      </trkpt>
      <trkpt lat="45.54116" lon="5.76303">
        <ele>413.60000610352</ele>
        <time>2019-10-08T12:56:06Z</time>
      </trkpt>
      <trkpt lat="45.54111" lon="5.7636">
        <ele>413.79998779297</ele>
        <time>2019-10-08T12:56:15Z</time>
      </trkpt>
      <trkpt lat="45.54112" lon="5.76346">
        <ele>413.79998779297</ele>
        <time>2019-10-08T12:56:21Z</time>
      </trkpt>
      <trkpt lat="45.54112" lon="5.76347">
        <ele>413.60000610352</ele>
        <time>2019-10-08T12:56:58Z</time>
      </trkpt>
      <trkpt lat="45.54109" lon="5.76389">
        <ele>413.60000610352</ele>
        <time>2019-10-08T12:57:10Z</time>
      </trkpt>
      <trkpt lat="45.54108" lon="5.76465">
        <ele>414.20001220703</ele>
        <time>2019-10-08T12:57:22Z</time>
      </trkpt>
      <trkpt lat="45.5411" lon="5.76508">
        <ele>414.60000610352</ele>
        <time>2019-10-08T12:57:30Z</time>
      </trkpt>
      <trkpt lat="45.54115" lon="5.76531">
        <ele>415.20001220703</ele>
        <time>2019-10-08T12:57:39Z</time>
      </trkpt>
      <trkpt lat="45.54119" lon="5.76546">
        <ele>414.39999389648</ele>
        <time>2019-10-08T13:13:11Z</time>
      </trkpt>
      <trkpt lat="45.5412" lon="5.76552">
        <ele>414.79998779297</ele>
        <time>2019-10-08T13:13:13Z</time>
      </trkpt>
      <trkpt lat="45.5413" lon="5.7659">
        <ele>415.79998779297</ele>
        <time>2019-10-08T13:13:24Z</time>
      </trkpt>
      <trkpt lat="45.54135" lon="5.7661">
        <ele>415.39999389648</ele>
        <time>2019-10-08T13:13:29Z</time>
      </trkpt>
      <trkpt lat="45.54144" lon="5.76643">
        <ele>416</ele>
        <time>2019-10-08T13:13:38Z</time>
      </trkpt>
      <trkpt lat="45.54153" lon="5.76674">
        <ele>416.60000610352</ele>
        <time>2019-10-08T13:13:45Z</time>
      </trkpt>
      <trkpt lat="45.54169" lon="5.76761">
        <ele>417.60000610352</ele>
        <time>2019-10-08T13:14:01Z</time>
      </trkpt>
      <trkpt lat="45.54182" lon="5.76873">
        <ele>418.60000610352</ele>
        <time>2019-10-08T13:14:18Z</time>
      </trkpt>
      <trkpt lat="45.5419" lon="5.76934">
        <ele>419.20001220703</ele>
        <time>2019-10-08T13:14:27Z</time>
      </trkpt>
      <trkpt lat="45.54196" lon="5.77133">
        <ele>420.20001220703</ele>
        <time>2019-10-08T13:14:57Z</time>
      </trkpt>
      <trkpt lat="45.54185" lon="5.77204">
        <ele>420.79998779297</ele>
        <time>2019-10-08T13:15:08Z</time>
      </trkpt>
      <trkpt lat="45.54162" lon="5.77226">
        <ele>421</ele>
        <time>2019-10-08T13:15:14Z</time>
      </trkpt>
      <trkpt lat="45.54115" lon="5.77228">
        <ele>421.39999389648</ele>
        <time>2019-10-08T13:15:23Z</time>
      </trkpt>
      <trkpt lat="45.54083" lon="5.77242">
        <ele>422</ele>
        <time>2019-10-08T13:15:30Z</time>
      </trkpt>
      <trkpt lat="45.54057" lon="5.77278">
        <ele>422.20001220703</ele>
        <time>2019-10-08T13:15:38Z</time>
      </trkpt>
      <trkpt lat="45.54046" lon="5.77327">
        <ele>422.20001220703</ele>
        <time>2019-10-08T13:15:45Z</time>
      </trkpt>
      <trkpt lat="45.54043" lon="5.77385">
        <ele>421.79998779297</ele>
        <time>2019-10-08T13:15:52Z</time>
      </trkpt>
      <trkpt lat="45.5403" lon="5.77501">
        <ele>421.20001220703</ele>
        <time>2019-10-08T13:16:06Z</time>
      </trkpt>
      <trkpt lat="45.54014" lon="5.77573">
        <ele>420.60000610352</ele>
        <time>2019-10-08T13:16:15Z</time>
      </trkpt>
      <trkpt lat="45.53998" lon="5.77645">
        <ele>419.39999389648</ele>
        <time>2019-10-08T13:16:23Z</time>
      </trkpt>
      <trkpt lat="45.53973" lon="5.77768">
        <ele>418.20001220703</ele>
        <time>2019-10-08T13:16:36Z</time>
      </trkpt>
      <trkpt lat="45.53954" lon="5.77849">
        <ele>417.60000610352</ele>
        <time>2019-10-08T13:16:45Z</time>
      </trkpt>
      <trkpt lat="45.5393" lon="5.77965">
        <ele>417.20001220703</ele>
        <time>2019-10-08T13:17:00Z</time>
      </trkpt>
      <trkpt lat="45.5393" lon="5.78">
        <ele>417.60000610352</ele>
        <time>2019-10-08T13:17:05Z</time>
      </trkpt>
      <trkpt lat="45.5393" lon="5.7808">
        <ele>418.60000610352</ele>
        <time>2019-10-08T13:17:18Z</time>
      </trkpt>
      <trkpt lat="45.5393" lon="5.78152">
        <ele>420</ele>
        <time>2019-10-08T13:17:30Z</time>
      </trkpt>
      <trkpt lat="45.53926" lon="5.78224">
        <ele>421</ele>
        <time>2019-10-08T13:17:42Z</time>
      </trkpt>
      <trkpt lat="45.53921" lon="5.78291">
        <ele>421.79998779297</ele>
        <time>2019-10-08T13:17:53Z</time>
      </trkpt>
      <trkpt lat="45.53917" lon="5.7841">
        <ele>422.79998779297</ele>
        <time>2019-10-08T13:18:12Z</time>
      </trkpt>
      <trkpt lat="45.53929" lon="5.78429">
        <ele>423</ele>
        <time>2019-10-08T13:18:16Z</time>
      </trkpt>
      <trkpt lat="45.53936" lon="5.78452">
        <ele>423.20001220703</ele>
        <time>2019-10-08T13:18:20Z</time>
      </trkpt>
      <trkpt lat="45.53936" lon="5.78508">
        <ele>423</ele>
        <time>2019-10-08T13:18:28Z</time>
      </trkpt>
      <trkpt lat="45.53936" lon="5.78601">
        <ele>423.20001220703</ele>
        <time>2019-10-08T13:18:41Z</time>
      </trkpt>
      <trkpt lat="45.53916" lon="5.78752">
        <ele>423.20001220703</ele>
        <time>2019-10-08T13:19:01Z</time>
      </trkpt>
      <trkpt lat="45.53913" lon="5.78801">
        <ele>423</ele>
        <time>2019-10-08T13:19:07Z</time>
      </trkpt>
      <trkpt lat="45.53898" lon="5.78923">
        <ele>422.39999389648</ele>
        <time>2019-10-08T13:19:22Z</time>
      </trkpt>
      <trkpt lat="45.53869" lon="5.78967">
        <ele>422.20001220703</ele>
        <time>2019-10-08T13:19:29Z</time>
      </trkpt>
      <trkpt lat="45.53842" lon="5.79056">
        <ele>422</ele>
        <time>2019-10-08T13:19:40Z</time>
      </trkpt>
      <trkpt lat="45.5383" lon="5.79158">
        <ele>421.20001220703</ele>
        <time>2019-10-08T13:19:51Z</time>
      </trkpt>
      <trkpt lat="45.53823" lon="5.79222">
        <ele>420.60000610352</ele>
        <time>2019-10-08T13:19:58Z</time>
      </trkpt>
      <trkpt lat="45.53822" lon="5.79234">
        <ele>420.39999389648</ele>
        <time>2019-10-08T13:20:01Z</time>
      </trkpt>
      <trkpt lat="45.53813" lon="5.79239">
        <ele>420</ele>
        <time>2019-10-08T13:20:08Z</time>
      </trkpt>
      <trkpt lat="45.53813" lon="5.7924">
        <ele>420</ele>
        <time>2019-10-08T13:21:32Z</time>
      </trkpt>
      <trkpt lat="45.53793" lon="5.79264">
        <ele>420.39999389648</ele>
        <time>2019-10-08T13:21:41Z</time>
      </trkpt>
      <trkpt lat="45.53784" lon="5.79279">
        <ele>421.60000610352</ele>
        <time>2019-10-08T13:21:46Z</time>
      </trkpt>
      <trkpt lat="45.53772" lon="5.79299">
        <ele>423.20001220703</ele>
        <time>2019-10-08T13:21:53Z</time>
      </trkpt>
      <trkpt lat="45.53764" lon="5.79312">
        <ele>424.20001220703</ele>
        <time>2019-10-08T13:21:59Z</time>
      </trkpt>
      <trkpt lat="45.53757" lon="5.79323">
        <ele>425.39999389648</ele>
        <time>2019-10-08T13:22:04Z</time>
      </trkpt>
      <trkpt lat="45.5374" lon="5.79352">
        <ele>428</ele>
        <time>2019-10-08T13:22:18Z</time>
      </trkpt>
      <trkpt lat="45.53731" lon="5.79369">
        <ele>429.20001220703</ele>
        <time>2019-10-08T13:22:25Z</time>
      </trkpt>
      <trkpt lat="45.53717" lon="5.79373">
        <ele>430.79998779297</ele>
        <time>2019-10-08T13:22:34Z</time>
      </trkpt>
      <trkpt lat="45.53702" lon="5.79377">
        <ele>432.39999389648</ele>
        <time>2019-10-08T13:22:42Z</time>
      </trkpt>
      <trkpt lat="45.53688" lon="5.7938">
        <ele>434.60000610352</ele>
        <time>2019-10-08T13:22:51Z</time>
      </trkpt>
      <trkpt lat="45.53673" lon="5.79386">
        <ele>437.20001220703</ele>
        <time>2019-10-08T13:23:03Z</time>
      </trkpt>
      <trkpt lat="45.53652" lon="5.79391">
        <ele>439.60000610352</ele>
        <time>2019-10-08T13:23:18Z</time>
      </trkpt>
      <trkpt lat="45.5364" lon="5.7939">
        <ele>441</ele>
        <time>2019-10-08T13:23:24Z</time>
      </trkpt>
      <trkpt lat="45.53615" lon="5.79396">
        <ele>442.39999389648</ele>
        <time>2019-10-08T13:23:36Z</time>
      </trkpt>
      <trkpt lat="45.53603" lon="5.79407">
        <ele>442.79998779297</ele>
        <time>2019-10-08T13:23:43Z</time>
      </trkpt>
      <trkpt lat="45.53583" lon="5.7942">
        <ele>444.60000610352</ele>
        <time>2019-10-08T13:23:54Z</time>
      </trkpt>
      <trkpt lat="45.53553" lon="5.79445">
        <ele>445.20001220703</ele>
        <time>2019-10-08T13:24:04Z</time>
      </trkpt>
      <trkpt lat="45.53538" lon="5.79455">
        <ele>445</ele>
        <time>2019-10-08T13:24:08Z</time>
      </trkpt>
      <trkpt lat="45.53509" lon="5.79474">
        <ele>444.20001220703</ele>
        <time>2019-10-08T13:24:16Z</time>
      </trkpt>
      <trkpt lat="45.53493" lon="5.79486">
        <ele>444</ele>
        <time>2019-10-08T13:24:20Z</time>
      </trkpt>
      <trkpt lat="45.53479" lon="5.79507">
        <ele>444</ele>
        <time>2019-10-08T13:24:24Z</time>
      </trkpt>
      <trkpt lat="45.5347" lon="5.79511">
        <ele>443.79998779297</ele>
        <time>2019-10-08T13:24:26Z</time>
      </trkpt>
      <trkpt lat="45.53443" lon="5.79488">
        <ele>442.60000610352</ele>
        <time>2019-10-08T13:24:33Z</time>
      </trkpt>
      <trkpt lat="45.5343" lon="5.79479">
        <ele>442.20001220703</ele>
        <time>2019-10-08T13:24:36Z</time>
      </trkpt>
      <trkpt lat="45.53371" lon="5.79462">
        <ele>442.20001220703</ele>
        <time>2019-10-08T13:24:48Z</time>
      </trkpt>
      <trkpt lat="45.53359" lon="5.79462">
        <ele>442.20001220703</ele>
        <time>2019-10-08T13:24:50Z</time>
      </trkpt>
      <trkpt lat="45.53346" lon="5.79486">
        <ele>442.20001220703</ele>
        <time>2019-10-08T13:24:54Z</time>
      </trkpt>
      <trkpt lat="45.53343" lon="5.79502">
        <ele>442.20001220703</ele>
        <time>2019-10-08T13:24:57Z</time>
      </trkpt>
      <trkpt lat="45.53349" lon="5.79518">
        <ele>442</ele>
        <time>2019-10-08T13:25:00Z</time>
      </trkpt>
      <trkpt lat="45.53365" lon="5.79546">
        <ele>441.79998779297</ele>
        <time>2019-10-08T13:25:04Z</time>
      </trkpt>
      <trkpt lat="45.5338" lon="5.79604">
        <ele>440.20001220703</ele>
        <time>2019-10-08T13:25:11Z</time>
      </trkpt>
      <trkpt lat="45.53369" lon="5.79656">
        <ele>440.20001220703</ele>
        <time>2019-10-08T13:25:21Z</time>
      </trkpt>
      <trkpt lat="45.53358" lon="5.79662">
        <ele>440.79998779297</ele>
        <time>2019-10-08T13:25:26Z</time>
      </trkpt>
      <trkpt lat="45.53352" lon="5.79666">
        <ele>442.79998779297</ele>
        <time>2019-10-08T13:25:44Z</time>
      </trkpt>
      <trkpt lat="45.53347" lon="5.79669">
        <ele>443</ele>
        <time>2019-10-08T13:25:48Z</time>
      </trkpt>
      <trkpt lat="45.53327" lon="5.7968">
        <ele>445</ele>
        <time>2019-10-08T13:25:58Z</time>
      </trkpt>
      <trkpt lat="45.53315" lon="5.79687">
        <ele>446.20001220703</ele>
        <time>2019-10-08T13:26:04Z</time>
      </trkpt>
      <trkpt lat="45.53304" lon="5.79693">
        <ele>447.20001220703</ele>
        <time>2019-10-08T13:26:10Z</time>
      </trkpt>
      <trkpt lat="45.53296" lon="5.79698">
        <ele>448.60000610352</ele>
        <time>2019-10-08T13:26:16Z</time>
      </trkpt>
      <trkpt lat="45.53288" lon="5.79705">
        <ele>450.20001220703</ele>
        <time>2019-10-08T13:26:23Z</time>
      </trkpt>
      <trkpt lat="45.53277" lon="5.79721">
        <ele>452</ele>
        <time>2019-10-08T13:26:32Z</time>
      </trkpt>
      <trkpt lat="45.53263" lon="5.79752">
        <ele>454</ele>
        <time>2019-10-08T13:26:47Z</time>
      </trkpt>
      <trkpt lat="45.5326" lon="5.79761">
        <ele>454.60000610352</ele>
        <time>2019-10-08T13:26:51Z</time>
      </trkpt>
      <trkpt lat="45.53251" lon="5.79779">
        <ele>456.39999389648</ele>
        <time>2019-10-08T13:27:00Z</time>
      </trkpt>
      <trkpt lat="45.53245" lon="5.79797">
        <ele>458.20001220703</ele>
        <time>2019-10-08T13:27:08Z</time>
      </trkpt>
      <trkpt lat="45.53251" lon="5.79835">
        <ele>460.60000610352</ele>
        <time>2019-10-08T13:27:24Z</time>
      </trkpt>
      <trkpt lat="45.53272" lon="5.79862">
        <ele>463.60000610352</ele>
        <time>2019-10-08T13:27:39Z</time>
      </trkpt>
      <trkpt lat="45.53278" lon="5.79873">
        <ele>464.20001220703</ele>
        <time>2019-10-08T13:27:44Z</time>
      </trkpt>
      <trkpt lat="45.53279" lon="5.79895">
        <ele>466</ele>
        <time>2019-10-08T13:27:54Z</time>
      </trkpt>
      <trkpt lat="45.53278" lon="5.79906">
        <ele>467.20001220703</ele>
        <time>2019-10-08T13:28:00Z</time>
      </trkpt>
      <trkpt lat="45.53277" lon="5.79929">
        <ele>469.79998779297</ele>
        <time>2019-10-08T13:28:11Z</time>
      </trkpt>
      <trkpt lat="45.53276" lon="5.79942">
        <ele>471.39999389648</ele>
        <time>2019-10-08T13:28:18Z</time>
      </trkpt>
      <trkpt lat="45.53273" lon="5.79974">
        <ele>474.60000610352</ele>
        <time>2019-10-08T13:28:31Z</time>
      </trkpt>
      <trkpt lat="45.53264" lon="5.79996">
        <ele>475.60000610352</ele>
        <time>2019-10-08T13:28:40Z</time>
      </trkpt>
      <trkpt lat="45.53251" lon="5.80027">
        <ele>477.39999389648</ele>
        <time>2019-10-08T13:28:53Z</time>
      </trkpt>
      <trkpt lat="45.53248" lon="5.80037">
        <ele>479</ele>
        <time>2019-10-08T13:28:58Z</time>
      </trkpt>
      <trkpt lat="45.53231" lon="5.80057">
        <ele>481.79998779297</ele>
        <time>2019-10-08T13:29:09Z</time>
      </trkpt>
      <trkpt lat="45.53191" lon="5.801">
        <ele>482.79998779297</ele>
        <time>2019-10-08T13:29:25Z</time>
      </trkpt>
      <trkpt lat="45.53169" lon="5.80128">
        <ele>483.20001220703</ele>
        <time>2019-10-08T13:29:34Z</time>
      </trkpt>
      <trkpt lat="45.53146" lon="5.8015">
        <ele>484.20001220703</ele>
        <time>2019-10-08T13:29:43Z</time>
      </trkpt>
      <trkpt lat="45.53137" lon="5.80153">
        <ele>485</ele>
        <time>2019-10-08T13:29:48Z</time>
      </trkpt>
      <trkpt lat="45.53108" lon="5.8013">
        <ele>487.20001220703</ele>
        <time>2019-10-08T13:30:00Z</time>
      </trkpt>
      <trkpt lat="45.53091" lon="5.80106">
        <ele>488.39999389648</ele>
        <time>2019-10-08T13:30:08Z</time>
      </trkpt>
      <trkpt lat="45.53064" lon="5.80077">
        <ele>490.39999389648</ele>
        <time>2019-10-08T13:30:24Z</time>
      </trkpt>
      <trkpt lat="45.53062" lon="5.80075">
        <ele>490.60000610352</ele>
        <time>2019-10-08T13:30:26Z</time>
      </trkpt>
      <trkpt lat="45.53048" lon="5.80063">
        <ele>491.60000610352</ele>
        <time>2019-10-08T13:34:57Z</time>
      </trkpt>
      <trkpt lat="45.53041" lon="5.8006">
        <ele>491.60000610352</ele>
        <time>2019-10-08T13:35:02Z</time>
      </trkpt>
      <trkpt lat="45.53028" lon="5.80052">
        <ele>492.60000610352</ele>
        <time>2019-10-08T13:35:12Z</time>
      </trkpt>
      <trkpt lat="45.53019" lon="5.80048">
        <ele>493.39999389648</ele>
        <time>2019-10-08T13:35:17Z</time>
      </trkpt>
      <trkpt lat="45.53013" lon="5.80044">
        <ele>493.60000610352</ele>
        <time>2019-10-08T13:35:21Z</time>
      </trkpt>
      <trkpt lat="45.53001" lon="5.80038">
        <ele>494.60000610352</ele>
        <time>2019-10-08T13:35:29Z</time>
      </trkpt>
      <trkpt lat="45.52984" lon="5.8003">
        <ele>495.79998779297</ele>
        <time>2019-10-08T13:35:37Z</time>
      </trkpt>
      <trkpt lat="45.52957" lon="5.80011">
        <ele>497.20001220703</ele>
        <time>2019-10-08T13:35:47Z</time>
      </trkpt>
      <trkpt lat="45.52935" lon="5.79994">
        <ele>498.20001220703</ele>
        <time>2019-10-08T13:35:56Z</time>
      </trkpt>
      <trkpt lat="45.52907" lon="5.79976">
        <ele>500.39999389648</ele>
        <time>2019-10-08T13:36:09Z</time>
      </trkpt>
      <trkpt lat="45.52891" lon="5.79966">
        <ele>501.39999389648</ele>
        <time>2019-10-08T13:36:18Z</time>
      </trkpt>
      <trkpt lat="45.52869" lon="5.79956">
        <ele>503</ele>
        <time>2019-10-08T13:36:30Z</time>
      </trkpt>
      <trkpt lat="45.52853" lon="5.79951">
        <ele>503.60000610352</ele>
        <time>2019-10-08T13:36:38Z</time>
      </trkpt>
      <trkpt lat="45.52831" lon="5.79949">
        <ele>505.20001220703</ele>
        <time>2019-10-08T13:36:49Z</time>
      </trkpt>
      <trkpt lat="45.52811" lon="5.7995">
        <ele>506.20001220703</ele>
        <time>2019-10-08T13:36:58Z</time>
      </trkpt>
      <trkpt lat="45.52782" lon="5.79953">
        <ele>508</ele>
        <time>2019-10-08T13:37:13Z</time>
      </trkpt>
      <trkpt lat="45.52754" lon="5.79949">
        <ele>509.60000610352</ele>
        <time>2019-10-08T13:37:26Z</time>
      </trkpt>
      <trkpt lat="45.52734" lon="5.79943">
        <ele>511.60000610352</ele>
        <time>2019-10-08T13:37:37Z</time>
      </trkpt>
      <trkpt lat="45.52721" lon="5.79938">
        <ele>512.79998779297</ele>
        <time>2019-10-08T13:37:45Z</time>
      </trkpt>
      <trkpt lat="45.52706" lon="5.79929">
        <ele>514.40002441406</ele>
        <time>2019-10-08T13:37:53Z</time>
      </trkpt>
      <trkpt lat="45.52682" lon="5.79902">
        <ele>516.59997558594</ele>
        <time>2019-10-08T13:38:07Z</time>
      </trkpt>
      <trkpt lat="45.52664" lon="5.79889">
        <ele>518.20001220703</ele>
        <time>2019-10-08T13:38:16Z</time>
      </trkpt>
      <trkpt lat="45.52651" lon="5.79895">
        <ele>520.40002441406</ele>
        <time>2019-10-08T13:38:28Z</time>
      </trkpt>
      <trkpt lat="45.52648" lon="5.7991">
        <ele>521.20001220703</ele>
        <time>2019-10-08T13:38:36Z</time>
      </trkpt>
      <trkpt lat="45.52655" lon="5.7994">
        <ele>522.59997558594</ele>
        <time>2019-10-08T13:38:47Z</time>
      </trkpt>
      <trkpt lat="45.52663" lon="5.79958">
        <ele>523.59997558594</ele>
        <time>2019-10-08T13:38:56Z</time>
      </trkpt>
      <trkpt lat="45.52675" lon="5.79993">
        <ele>525.40002441406</ele>
        <time>2019-10-08T13:39:10Z</time>
      </trkpt>
      <trkpt lat="45.52681" lon="5.80012">
        <ele>526.40002441406</ele>
        <time>2019-10-08T13:39:18Z</time>
      </trkpt>
      <trkpt lat="45.52694" lon="5.80031">
        <ele>528</ele>
        <time>2019-10-08T13:39:28Z</time>
      </trkpt>
      <trkpt lat="45.52707" lon="5.80048">
        <ele>529</ele>
        <time>2019-10-08T13:39:35Z</time>
      </trkpt>
      <trkpt lat="45.52702" lon="5.80086">
        <ele>531</ele>
        <time>2019-10-08T13:39:48Z</time>
      </trkpt>
      <trkpt lat="45.52675" lon="5.80065">
        <ele>533.20001220703</ele>
        <time>2019-10-08T13:40:00Z</time>
      </trkpt>
      <trkpt lat="45.52657" lon="5.80043">
        <ele>534.79998779297</ele>
        <time>2019-10-08T13:40:10Z</time>
      </trkpt>
      <trkpt lat="45.52636" lon="5.80027">
        <ele>536.59997558594</ele>
        <time>2019-10-08T13:40:26Z</time>
      </trkpt>
      <trkpt lat="45.52623" lon="5.80019">
        <ele>538.20001220703</ele>
        <time>2019-10-08T13:40:36Z</time>
      </trkpt>
      <trkpt lat="45.52601" lon="5.80006">
        <ele>540</ele>
        <time>2019-10-08T13:40:50Z</time>
      </trkpt>
      <trkpt lat="45.52581" lon="5.7999">
        <ele>541</ele>
        <time>2019-10-08T13:40:58Z</time>
      </trkpt>
      <trkpt lat="45.52569" lon="5.79968">
        <ele>542.59997558594</ele>
        <time>2019-10-08T13:41:08Z</time>
      </trkpt>
      <trkpt lat="45.52559" lon="5.79956">
        <ele>544.20001220703</ele>
        <time>2019-10-08T13:41:15Z</time>
      </trkpt>
      <trkpt lat="45.52542" lon="5.79947">
        <ele>545.79998779297</ele>
        <time>2019-10-08T13:41:27Z</time>
      </trkpt>
      <trkpt lat="45.52532" lon="5.79946">
        <ele>547</ele>
        <time>2019-10-08T13:41:35Z</time>
      </trkpt>
      <trkpt lat="45.52512" lon="5.79947">
        <ele>549.40002441406</ele>
        <time>2019-10-08T13:41:52Z</time>
      </trkpt>
      <trkpt lat="45.52497" lon="5.7995">
        <ele>550.59997558594</ele>
        <time>2019-10-08T13:42:00Z</time>
      </trkpt>
      <trkpt lat="45.52478" lon="5.79957">
        <ele>552.40002441406</ele>
        <time>2019-10-08T13:42:09Z</time>
      </trkpt>
      <trkpt lat="45.52454" lon="5.79972">
        <ele>554.40002441406</ele>
        <time>2019-10-08T13:42:24Z</time>
      </trkpt>
      <trkpt lat="45.52444" lon="5.79978">
        <ele>555.59997558594</ele>
        <time>2019-10-08T13:42:32Z</time>
      </trkpt>
      <trkpt lat="45.52428" lon="5.79981">
        <ele>556.20001220703</ele>
        <time>2019-10-08T13:42:39Z</time>
      </trkpt>
      <trkpt lat="45.5242" lon="5.79948">
        <ele>557.79998779297</ele>
        <time>2019-10-08T13:42:46Z</time>
      </trkpt>
      <trkpt lat="45.52421" lon="5.79922">
        <ele>559.59997558594</ele>
        <time>2019-10-08T13:42:56Z</time>
      </trkpt>
      <trkpt lat="45.52418" lon="5.79901">
        <ele>561.20001220703</ele>
        <time>2019-10-08T13:43:06Z</time>
      </trkpt>
      <trkpt lat="45.52413" lon="5.79876">
        <ele>562.79998779297</ele>
        <time>2019-10-08T13:43:19Z</time>
      </trkpt>
      <trkpt lat="45.52409" lon="5.7986">
        <ele>564</ele>
        <time>2019-10-08T13:43:27Z</time>
      </trkpt>
      <trkpt lat="45.52404" lon="5.79838">
        <ele>565.40002441406</ele>
        <time>2019-10-08T13:43:37Z</time>
      </trkpt>
      <trkpt lat="45.52394" lon="5.79823">
        <ele>566.79998779297</ele>
        <time>2019-10-08T13:43:46Z</time>
      </trkpt>
      <trkpt lat="45.52374" lon="5.798">
        <ele>568.59997558594</ele>
        <time>2019-10-08T13:44:00Z</time>
      </trkpt>
      <trkpt lat="45.52363" lon="5.7978">
        <ele>569.40002441406</ele>
        <time>2019-10-08T13:44:07Z</time>
      </trkpt>
      <trkpt lat="45.52351" lon="5.79754">
        <ele>571</ele>
        <time>2019-10-08T13:44:17Z</time>
      </trkpt>
      <trkpt lat="45.52342" lon="5.79771">
        <ele>572</ele>
        <time>2019-10-08T13:44:24Z</time>
      </trkpt>
      <trkpt lat="45.52348" lon="5.79786">
        <ele>573.59997558594</ele>
        <time>2019-10-08T13:44:31Z</time>
      </trkpt>
      <trkpt lat="45.52355" lon="5.79814">
        <ele>575.20001220703</ele>
        <time>2019-10-08T13:44:42Z</time>
      </trkpt>
      <trkpt lat="45.52359" lon="5.79831">
        <ele>576.59997558594</ele>
        <time>2019-10-08T13:44:49Z</time>
      </trkpt>
      <trkpt lat="45.52365" lon="5.79875">
        <ele>579.59997558594</ele>
        <time>2019-10-08T13:45:06Z</time>
      </trkpt>
      <trkpt lat="45.52357" lon="5.79886">
        <ele>580</ele>
        <time>2019-10-08T13:45:11Z</time>
      </trkpt>
      <trkpt lat="45.52345" lon="5.79879">
        <ele>581</ele>
        <time>2019-10-08T13:45:18Z</time>
      </trkpt>
      <trkpt lat="45.5234" lon="5.7986">
        <ele>582.59997558594</ele>
        <time>2019-10-08T13:45:25Z</time>
      </trkpt>
      <trkpt lat="45.5232" lon="5.79829">
        <ele>584.79998779297</ele>
        <time>2019-10-08T13:45:39Z</time>
      </trkpt>
      <trkpt lat="45.52311" lon="5.79819">
        <ele>585.79998779297</ele>
        <time>2019-10-08T13:45:45Z</time>
      </trkpt>
      <trkpt lat="45.52289" lon="5.79799">
        <ele>588.20001220703</ele>
        <time>2019-10-08T13:45:58Z</time>
      </trkpt>
      <trkpt lat="45.52274" lon="5.79777">
        <ele>589.59997558594</ele>
        <time>2019-10-08T13:46:07Z</time>
      </trkpt>
      <trkpt lat="45.52259" lon="5.79753">
        <ele>591.40002441406</ele>
        <time>2019-10-08T13:46:19Z</time>
      </trkpt>
      <trkpt lat="45.52245" lon="5.79738">
        <ele>592.79998779297</ele>
        <time>2019-10-08T13:46:28Z</time>
      </trkpt>
      <trkpt lat="45.52225" lon="5.79712">
        <ele>594.59997558594</ele>
        <time>2019-10-08T13:46:40Z</time>
      </trkpt>
      <trkpt lat="45.52214" lon="5.79695">
        <ele>595.79998779297</ele>
        <time>2019-10-08T13:46:47Z</time>
      </trkpt>
      <trkpt lat="45.52203" lon="5.79673">
        <ele>597.40002441406</ele>
        <time>2019-10-08T13:46:56Z</time>
      </trkpt>
      <trkpt lat="45.52192" lon="5.79648">
        <ele>598.59997558594</ele>
        <time>2019-10-08T13:47:06Z</time>
      </trkpt>
      <trkpt lat="45.52178" lon="5.79619">
        <ele>600.40002441406</ele>
        <time>2019-10-08T13:47:16Z</time>
      </trkpt>
      <trkpt lat="45.52166" lon="5.79591">
        <ele>602.40002441406</ele>
        <time>2019-10-08T13:48:02Z</time>
      </trkpt>
      <trkpt lat="45.52163" lon="5.79585">
        <ele>602.40002441406</ele>
        <time>2019-10-08T13:48:04Z</time>
      </trkpt>
      <trkpt lat="45.52146" lon="5.79548">
        <ele>602.79998779297</ele>
        <time>2019-10-08T13:48:15Z</time>
      </trkpt>
      <trkpt lat="45.52132" lon="5.795">
        <ele>603.20001220703</ele>
        <time>2019-10-08T13:48:25Z</time>
      </trkpt>
      <trkpt lat="45.5216" lon="5.79446">
        <ele>603.59997558594</ele>
        <time>2019-10-08T13:48:41Z</time>
      </trkpt>
      <trkpt lat="45.5218" lon="5.79426">
        <ele>603.79998779297</ele>
        <time>2019-10-08T13:48:48Z</time>
      </trkpt>
      <trkpt lat="45.52203" lon="5.79411">
        <ele>603.59997558594</ele>
        <time>2019-10-08T13:48:54Z</time>
      </trkpt>
      <trkpt lat="45.5223" lon="5.79398">
        <ele>602.40002441406</ele>
        <time>2019-10-08T13:49:00Z</time>
      </trkpt>
      <trkpt lat="45.52251" lon="5.7938">
        <ele>601.40002441406</ele>
        <time>2019-10-08T13:49:04Z</time>
      </trkpt>
      <trkpt lat="45.52275" lon="5.79355">
        <ele>599.79998779297</ele>
        <time>2019-10-08T13:49:08Z</time>
      </trkpt>
      <trkpt lat="45.5229" lon="5.79329">
        <ele>598.59997558594</ele>
        <time>2019-10-08T13:49:12Z</time>
      </trkpt>
      <trkpt lat="45.52288" lon="5.79316">
        <ele>595.79998779297</ele>
        <time>2019-10-08T13:49:16Z</time>
      </trkpt>
      <trkpt lat="45.52272" lon="5.79304">
        <ele>594.20001220703</ele>
        <time>2019-10-08T13:49:19Z</time>
      </trkpt>
      <trkpt lat="45.52249" lon="5.7926">
        <ele>592.79998779297</ele>
        <time>2019-10-08T13:49:23Z</time>
      </trkpt>
      <trkpt lat="45.52244" lon="5.79226">
        <ele>591.59997558594</ele>
        <time>2019-10-08T13:49:26Z</time>
      </trkpt>
      <trkpt lat="45.52255" lon="5.79201">
        <ele>589.20001220703</ele>
        <time>2019-10-08T13:49:31Z</time>
      </trkpt>
      <trkpt lat="45.52267" lon="5.792">
        <ele>587.79998779297</ele>
        <time>2019-10-08T13:49:33Z</time>
      </trkpt>
      <trkpt lat="45.52302" lon="5.79197">
        <ele>583.79998779297</ele>
        <time>2019-10-08T13:49:38Z</time>
      </trkpt>
      <trkpt lat="45.52315" lon="5.79183">
        <ele>583.20001220703</ele>
        <time>2019-10-08T13:49:40Z</time>
      </trkpt>
      <trkpt lat="45.52331" lon="5.79139">
        <ele>581.20001220703</ele>
        <time>2019-10-08T13:49:46Z</time>
      </trkpt>
      <trkpt lat="45.52325" lon="5.79118">
        <ele>579.59997558594</ele>
        <time>2019-10-08T13:49:50Z</time>
      </trkpt>
      <trkpt lat="45.52302" lon="5.79104">
        <ele>578.40002441406</ele>
        <time>2019-10-08T13:49:55Z</time>
      </trkpt>
      <trkpt lat="45.5229" lon="5.79096">
        <ele>577.79998779297</ele>
        <time>2019-10-08T13:49:58Z</time>
      </trkpt>
      <trkpt lat="45.52261" lon="5.79079">
        <ele>576.59997558594</ele>
        <time>2019-10-08T13:50:04Z</time>
      </trkpt>
      <trkpt lat="45.52224" lon="5.79066">
        <ele>574.79998779297</ele>
        <time>2019-10-08T13:50:09Z</time>
      </trkpt>
      <trkpt lat="45.52189" lon="5.79053">
        <ele>573</ele>
        <time>2019-10-08T13:50:13Z</time>
      </trkpt>
      <trkpt lat="45.52126" lon="5.79023">
        <ele>569.20001220703</ele>
        <time>2019-10-08T13:50:19Z</time>
      </trkpt>
      <trkpt lat="45.52095" lon="5.78998">
        <ele>566.59997558594</ele>
        <time>2019-10-08T13:50:22Z</time>
      </trkpt>
      <trkpt lat="45.52008" lon="5.7896">
        <ele>562.20001220703</ele>
        <time>2019-10-08T13:50:33Z</time>
      </trkpt>
      <trkpt lat="45.51984" lon="5.78956">
        <ele>562</ele>
        <time>2019-10-08T13:50:38Z</time>
      </trkpt>
      <trkpt lat="45.51961" lon="5.78955">
        <ele>563.40002441406</ele>
        <time>2019-10-08T13:50:46Z</time>
      </trkpt>
      <trkpt lat="45.5195" lon="5.78957">
        <ele>564.20001220703</ele>
        <time>2019-10-08T13:50:50Z</time>
      </trkpt>
      <trkpt lat="45.51928" lon="5.78966">
        <ele>565.59997558594</ele>
        <time>2019-10-08T13:50:59Z</time>
      </trkpt>
      <trkpt lat="45.51914" lon="5.7897">
        <ele>566.40002441406</ele>
        <time>2019-10-08T13:51:06Z</time>
      </trkpt>
      <trkpt lat="45.51887" lon="5.78955">
        <ele>569</ele>
        <time>2019-10-08T13:51:20Z</time>
      </trkpt>
      <trkpt lat="45.51876" lon="5.78942">
        <ele>570</ele>
        <time>2019-10-08T13:51:27Z</time>
      </trkpt>
      <trkpt lat="45.51859" lon="5.7891">
        <ele>572</ele>
        <time>2019-10-08T13:51:40Z</time>
      </trkpt>
      <trkpt lat="45.51855" lon="5.78888">
        <ele>573.20001220703</ele>
        <time>2019-10-08T13:51:49Z</time>
      </trkpt>
      <trkpt lat="45.51859" lon="5.78852">
        <ele>574.59997558594</ele>
        <time>2019-10-08T13:51:58Z</time>
      </trkpt>
      <trkpt lat="45.51858" lon="5.78782">
        <ele>576.59997558594</ele>
        <time>2019-10-08T13:52:17Z</time>
      </trkpt>
      <trkpt lat="45.51855" lon="5.78756">
        <ele>577.40002441406</ele>
        <time>2019-10-08T13:52:25Z</time>
      </trkpt>
      <trkpt lat="45.51841" lon="5.78712">
        <ele>579.20001220703</ele>
        <time>2019-10-08T13:52:39Z</time>
      </trkpt>
      <trkpt lat="45.51831" lon="5.78681">
        <ele>580</ele>
        <time>2019-10-08T13:52:48Z</time>
      </trkpt>
      <trkpt lat="45.51824" lon="5.78652">
        <ele>581.79998779297</ele>
        <time>2019-10-08T13:52:58Z</time>
      </trkpt>
      <trkpt lat="45.51819" lon="5.78633">
        <ele>583.20001220703</ele>
        <time>2019-10-08T13:53:06Z</time>
      </trkpt>
      <trkpt lat="45.51804" lon="5.78598">
        <ele>585.79998779297</ele>
        <time>2019-10-08T13:53:21Z</time>
      </trkpt>
      <trkpt lat="45.51795" lon="5.78588">
        <ele>587.20001220703</ele>
        <time>2019-10-08T13:53:28Z</time>
      </trkpt>
      <trkpt lat="45.51782" lon="5.78565">
        <ele>589</ele>
        <time>2019-10-08T13:53:39Z</time>
      </trkpt>
      <trkpt lat="45.51776" lon="5.78552">
        <ele>590.59997558594</ele>
        <time>2019-10-08T13:53:46Z</time>
      </trkpt>
      <trkpt lat="45.51766" lon="5.78528">
        <ele>592.59997558594</ele>
        <time>2019-10-08T13:53:57Z</time>
      </trkpt>
      <trkpt lat="45.51753" lon="5.78496">
        <ele>595.20001220703</ele>
        <time>2019-10-08T13:54:12Z</time>
      </trkpt>
      <trkpt lat="45.51747" lon="5.78484">
        <ele>596.20001220703</ele>
        <time>2019-10-08T13:54:17Z</time>
      </trkpt>
      <trkpt lat="45.51734" lon="5.78457">
        <ele>598.40002441406</ele>
        <time>2019-10-08T13:54:31Z</time>
      </trkpt>
      <trkpt lat="45.51719" lon="5.78439">
        <ele>600.59997558594</ele>
        <time>2019-10-08T13:54:43Z</time>
      </trkpt>
      <trkpt lat="45.51706" lon="5.78431">
        <ele>602.40002441406</ele>
        <time>2019-10-08T13:54:52Z</time>
      </trkpt>
      <trkpt lat="45.51687" lon="5.7842">
        <ele>605.20001220703</ele>
        <time>2019-10-08T13:55:06Z</time>
      </trkpt>
      <trkpt lat="45.51673" lon="5.78411">
        <ele>607.20001220703</ele>
        <time>2019-10-08T13:55:18Z</time>
      </trkpt>
      <trkpt lat="45.51663" lon="5.78406">
        <ele>608.20001220703</ele>
        <time>2019-10-08T13:55:25Z</time>
      </trkpt>
      <trkpt lat="45.51642" lon="5.78395">
        <ele>610.40002441406</ele>
        <time>2019-10-08T13:55:37Z</time>
      </trkpt>
      <trkpt lat="45.51629" lon="5.78387">
        <ele>611.40002441406</ele>
        <time>2019-10-08T13:55:43Z</time>
      </trkpt>
      <trkpt lat="45.51603" lon="5.7837">
        <ele>613.40002441406</ele>
        <time>2019-10-08T13:55:56Z</time>
      </trkpt>
      <trkpt lat="45.51593" lon="5.78364">
        <ele>615</ele>
        <time>2019-10-08T13:56:02Z</time>
      </trkpt>
      <trkpt lat="45.51569" lon="5.78348">
        <ele>617.40002441406</ele>
        <time>2019-10-08T13:56:16Z</time>
      </trkpt>
      <trkpt lat="45.51556" lon="5.78339">
        <ele>618.40002441406</ele>
        <time>2019-10-08T13:56:23Z</time>
      </trkpt>
      <trkpt lat="45.51545" lon="5.78332">
        <ele>620.40002441406</ele>
        <time>2019-10-08T13:56:33Z</time>
      </trkpt>
      <trkpt lat="45.51532" lon="5.78323">
        <ele>622</ele>
        <time>2019-10-08T13:56:43Z</time>
      </trkpt>
      <trkpt lat="45.51517" lon="5.7831">
        <ele>623.79998779297</ele>
        <time>2019-10-08T13:56:52Z</time>
      </trkpt>
      <trkpt lat="45.51506" lon="5.78292">
        <ele>625.20001220703</ele>
        <time>2019-10-08T13:57:00Z</time>
      </trkpt>
      <trkpt lat="45.51498" lon="5.78269">
        <ele>627.20001220703</ele>
        <time>2019-10-08T13:57:09Z</time>
      </trkpt>
      <trkpt lat="45.51488" lon="5.78243">
        <ele>629.40002441406</ele>
        <time>2019-10-08T13:57:21Z</time>
      </trkpt>
      <trkpt lat="45.51479" lon="5.78227">
        <ele>630.59997558594</ele>
        <time>2019-10-08T13:57:29Z</time>
      </trkpt>
      <trkpt lat="45.51462" lon="5.78209">
        <ele>632.79998779297</ele>
        <time>2019-10-08T13:57:41Z</time>
      </trkpt>
      <trkpt lat="45.5145" lon="5.78199">
        <ele>634</ele>
        <time>2019-10-08T13:57:50Z</time>
      </trkpt>
      <trkpt lat="45.51425" lon="5.78178">
        <ele>636.59997558594</ele>
        <time>2019-10-08T13:58:05Z</time>
      </trkpt>
      <trkpt lat="45.51414" lon="5.7817">
        <ele>637.20001220703</ele>
        <time>2019-10-08T13:58:11Z</time>
      </trkpt>
      <trkpt lat="45.51401" lon="5.7816">
        <ele>637.20001220703</ele>
        <time>2019-10-08T13:58:17Z</time>
      </trkpt>
      <trkpt lat="45.51393" lon="5.78154">
        <ele>637.40002441406</ele>
        <time>2019-10-08T13:58:21Z</time>
      </trkpt>
      <trkpt lat="45.51388" lon="5.7815">
        <ele>636.40002441406</ele>
        <time>2019-10-08T13:58:54Z</time>
      </trkpt>
      <trkpt lat="45.51384" lon="5.78147">
        <ele>636.59997558594</ele>
        <time>2019-10-08T13:58:57Z</time>
      </trkpt>
      <trkpt lat="45.51377" lon="5.78142">
        <ele>636.40002441406</ele>
        <time>2019-10-08T13:59:00Z</time>
      </trkpt>
      <trkpt lat="45.51349" lon="5.78125">
        <ele>636.20001220703</ele>
        <time>2019-10-08T13:59:08Z</time>
      </trkpt>
      <trkpt lat="45.51306" lon="5.78107">
        <ele>635.79998779297</ele>
        <time>2019-10-08T13:59:17Z</time>
      </trkpt>
      <trkpt lat="45.51238" lon="5.7805">
        <ele>634.20001220703</ele>
        <time>2019-10-08T13:59:34Z</time>
      </trkpt>
      <trkpt lat="45.5119" lon="5.78011">
        <ele>633.40002441406</ele>
        <time>2019-10-08T13:59:45Z</time>
      </trkpt>
      <trkpt lat="45.51127" lon="5.77966">
        <ele>633</ele>
        <time>2019-10-08T14:00:00Z</time>
      </trkpt>
      <trkpt lat="45.51108" lon="5.77951">
        <ele>633</ele>
        <time>2019-10-08T14:00:05Z</time>
      </trkpt>
      <trkpt lat="45.51038" lon="5.77902">
        <ele>631.40002441406</ele>
        <time>2019-10-08T14:00:21Z</time>
      </trkpt>
      <trkpt lat="45.50992" lon="5.77882">
        <ele>631.40002441406</ele>
        <time>2019-10-08T14:00:32Z</time>
      </trkpt>
      <trkpt lat="45.50964" lon="5.77869">
        <ele>631.59997558594</ele>
        <time>2019-10-08T14:00:40Z</time>
      </trkpt>
      <trkpt lat="45.50945" lon="5.77862">
        <ele>632.20001220703</ele>
        <time>2019-10-08T14:00:46Z</time>
      </trkpt>
      <trkpt lat="45.50913" lon="5.77847">
        <ele>634</ele>
        <time>2019-10-08T14:00:58Z</time>
      </trkpt>
      <trkpt lat="45.50902" lon="5.77842">
        <ele>634.59997558594</ele>
        <time>2019-10-08T14:01:02Z</time>
      </trkpt>
      <trkpt lat="45.50883" lon="5.77832">
        <ele>635.59997558594</ele>
        <time>2019-10-08T14:01:09Z</time>
      </trkpt>
      <trkpt lat="45.50848" lon="5.77814">
        <ele>637.59997558594</ele>
        <time>2019-10-08T14:01:22Z</time>
      </trkpt>
      <trkpt lat="45.50828" lon="5.77803">
        <ele>638.40002441406</ele>
        <time>2019-10-08T14:01:29Z</time>
      </trkpt>
      <trkpt lat="45.50804" lon="5.7778">
        <ele>638.20001220703</ele>
        <time>2019-10-08T14:01:37Z</time>
      </trkpt>
      <trkpt lat="45.50786" lon="5.77777">
        <ele>638.20001220703</ele>
        <time>2019-10-08T14:01:42Z</time>
      </trkpt>
      <trkpt lat="45.50771" lon="5.77785">
        <ele>638.59997558594</ele>
        <time>2019-10-08T14:01:51Z</time>
      </trkpt>
      <trkpt lat="45.50762" lon="5.7779">
        <ele>639.40002441406</ele>
        <time>2019-10-08T14:01:56Z</time>
      </trkpt>
      <trkpt lat="45.50743" lon="5.7779">
        <ele>641.79998779297</ele>
        <time>2019-10-08T14:02:06Z</time>
      </trkpt>
      <trkpt lat="45.50716" lon="5.77774">
        <ele>642.40002441406</ele>
        <time>2019-10-08T14:02:15Z</time>
      </trkpt>
      <trkpt lat="45.50683" lon="5.77764">
        <ele>642.40002441406</ele>
        <time>2019-10-08T14:02:22Z</time>
      </trkpt>
      <trkpt lat="45.50669" lon="5.77759">
        <ele>642.20001220703</ele>
        <time>2019-10-08T14:02:26Z</time>
      </trkpt>
      <trkpt lat="45.50644" lon="5.7774">
        <ele>643</ele>
        <time>2019-10-08T14:02:36Z</time>
      </trkpt>
      <trkpt lat="45.50617" lon="5.77701">
        <ele>645.20001220703</ele>
        <time>2019-10-08T14:02:48Z</time>
      </trkpt>
      <trkpt lat="45.50606" lon="5.77665">
        <ele>645.40002441406</ele>
        <time>2019-10-08T14:02:55Z</time>
      </trkpt>
      <trkpt lat="45.50589" lon="5.77606">
        <ele>644.79998779297</ele>
        <time>2019-10-08T14:03:03Z</time>
      </trkpt>
      <trkpt lat="45.50573" lon="5.7755">
        <ele>643.79998779297</ele>
        <time>2019-10-08T14:03:10Z</time>
      </trkpt>
      <trkpt lat="45.50553" lon="5.77484">
        <ele>643.79998779297</ele>
        <time>2019-10-08T14:03:19Z</time>
      </trkpt>
      <trkpt lat="45.50539" lon="5.77451">
        <ele>643.59997558594</ele>
        <time>2019-10-08T14:03:24Z</time>
      </trkpt>
      <trkpt lat="45.50513" lon="5.77429">
        <ele>643.79998779297</ele>
        <time>2019-10-08T14:03:32Z</time>
      </trkpt>
      <trkpt lat="45.50487" lon="5.77425">
        <ele>645.40002441406</ele>
        <time>2019-10-08T14:03:40Z</time>
      </trkpt>
      <trkpt lat="45.50438" lon="5.77417">
        <ele>645.79998779297</ele>
        <time>2019-10-08T14:03:51Z</time>
      </trkpt>
      <trkpt lat="45.50411" lon="5.77419">
        <ele>645</ele>
        <time>2019-10-08T14:03:56Z</time>
      </trkpt>
      <trkpt lat="45.50379" lon="5.77429">
        <ele>643.79998779297</ele>
        <time>2019-10-08T14:04:01Z</time>
      </trkpt>
      <trkpt lat="45.50343" lon="5.7744">
        <ele>642.40002441406</ele>
        <time>2019-10-08T14:04:06Z</time>
      </trkpt>
      <trkpt lat="45.5028" lon="5.77469">
        <ele>639.40002441406</ele>
        <time>2019-10-08T14:04:15Z</time>
      </trkpt>
      <trkpt lat="45.50266" lon="5.77484">
        <ele>638.40002441406</ele>
        <time>2019-10-08T14:04:19Z</time>
      </trkpt>
      <trkpt lat="45.50259" lon="5.77491">
        <ele>637</ele>
        <time>2019-10-08T14:04:22Z</time>
      </trkpt>
      <trkpt lat="45.5024" lon="5.77493">
        <ele>635.20001220703</ele>
        <time>2019-10-08T14:04:52Z</time>
      </trkpt>
      <trkpt lat="45.50206" lon="5.77481">
        <ele>635</ele>
        <time>2019-10-08T14:05:00Z</time>
      </trkpt>
      <trkpt lat="45.50154" lon="5.77447">
        <ele>634.79998779297</ele>
        <time>2019-10-08T14:05:12Z</time>
      </trkpt>
      <trkpt lat="45.50131" lon="5.77413">
        <ele>634.59997558594</ele>
        <time>2019-10-08T14:05:18Z</time>
      </trkpt>
      <trkpt lat="45.50095" lon="5.7735">
        <ele>633.40002441406</ele>
        <time>2019-10-08T14:05:26Z</time>
      </trkpt>
      <trkpt lat="45.50076" lon="5.77309">
        <ele>632.59997558594</ele>
        <time>2019-10-08T14:05:30Z</time>
      </trkpt>
      <trkpt lat="45.50036" lon="5.77283">
        <ele>630.59997558594</ele>
        <time>2019-10-08T14:05:35Z</time>
      </trkpt>
      <trkpt lat="45.50002" lon="5.77266">
        <ele>628.40002441406</ele>
        <time>2019-10-08T14:05:39Z</time>
      </trkpt>
      <trkpt lat="45.49944" lon="5.7723">
        <ele>625.59997558594</ele>
        <time>2019-10-08T14:05:47Z</time>
      </trkpt>
      <trkpt lat="45.49916" lon="5.772">
        <ele>624.79998779297</ele>
        <time>2019-10-08T14:05:51Z</time>
      </trkpt>
      <trkpt lat="45.49878" lon="5.77161">
        <ele>623</ele>
        <time>2019-10-08T14:05:56Z</time>
      </trkpt>
      <trkpt lat="45.49856" lon="5.77139">
        <ele>621.59997558594</ele>
        <time>2019-10-08T14:05:59Z</time>
      </trkpt>
      <trkpt lat="45.49828" lon="5.77103">
        <ele>619.40002441406</ele>
        <time>2019-10-08T14:06:03Z</time>
      </trkpt>
      <trkpt lat="45.49795" lon="5.77087">
        <ele>617.20001220703</ele>
        <time>2019-10-08T14:06:07Z</time>
      </trkpt>
      <trkpt lat="45.49751" lon="5.77067">
        <ele>614</ele>
        <time>2019-10-08T14:06:12Z</time>
      </trkpt>
      <trkpt lat="45.49687" lon="5.76995">
        <ele>609.40002441406</ele>
        <time>2019-10-08T14:06:22Z</time>
      </trkpt>
      <trkpt lat="45.49651" lon="5.76977">
        <ele>607.79998779297</ele>
        <time>2019-10-08T14:06:27Z</time>
      </trkpt>
      <trkpt lat="45.49602" lon="5.76969">
        <ele>606.79998779297</ele>
        <time>2019-10-08T14:06:37Z</time>
      </trkpt>
      <trkpt lat="45.49594" lon="5.7697">
        <ele>606.59997558594</ele>
        <time>2019-10-08T14:06:39Z</time>
      </trkpt>
      <trkpt lat="45.49566" lon="5.76976">
        <ele>607.20001220703</ele>
        <time>2019-10-08T14:06:46Z</time>
      </trkpt>
      <trkpt lat="45.49539" lon="5.76984">
        <ele>607.79998779297</ele>
        <time>2019-10-08T14:06:53Z</time>
      </trkpt>
      <trkpt lat="45.49514" lon="5.76992">
        <ele>608.59997558594</ele>
        <time>2019-10-08T14:07:00Z</time>
      </trkpt>
      <trkpt lat="45.49459" lon="5.7701">
        <ele>609.59997558594</ele>
        <time>2019-10-08T14:07:15Z</time>
      </trkpt>
      <trkpt lat="45.49436" lon="5.77017">
        <ele>609.59997558594</ele>
        <time>2019-10-08T14:07:19Z</time>
      </trkpt>
      <trkpt lat="45.4941" lon="5.77025">
        <ele>609</ele>
        <time>2019-10-08T14:07:23Z</time>
      </trkpt>
      <trkpt lat="45.49364" lon="5.77041">
        <ele>607.40002441406</ele>
        <time>2019-10-08T14:07:29Z</time>
      </trkpt>
      <trkpt lat="45.4934" lon="5.77049">
        <ele>606.59997558594</ele>
        <time>2019-10-08T14:07:32Z</time>
      </trkpt>
      <trkpt lat="45.49297" lon="5.77064">
        <ele>605.40002441406</ele>
        <time>2019-10-08T14:07:37Z</time>
      </trkpt>
      <trkpt lat="45.49248" lon="5.77066">
        <ele>602.79998779297</ele>
        <time>2019-10-08T14:07:43Z</time>
      </trkpt>
      <trkpt lat="45.49214" lon="5.77049">
        <ele>601.20001220703</ele>
        <time>2019-10-08T14:07:47Z</time>
      </trkpt>
      <trkpt lat="45.49126" lon="5.77002">
        <ele>596.79998779297</ele>
        <time>2019-10-08T14:07:59Z</time>
      </trkpt>
      <trkpt lat="45.49079" lon="5.76991">
        <ele>596</ele>
        <time>2019-10-08T14:08:06Z</time>
      </trkpt>
      <trkpt lat="45.49032" lon="5.76989">
        <ele>595</ele>
        <time>2019-10-08T14:08:14Z</time>
      </trkpt>
      <trkpt lat="45.48988" lon="5.76993">
        <ele>593.79998779297</ele>
        <time>2019-10-08T14:08:21Z</time>
      </trkpt>
      <trkpt lat="45.48916" lon="5.76999">
        <ele>592.20001220703</ele>
        <time>2019-10-08T14:08:32Z</time>
      </trkpt>
      <trkpt lat="45.48882" lon="5.77007">
        <ele>591.40002441406</ele>
        <time>2019-10-08T14:08:37Z</time>
      </trkpt>
      <trkpt lat="45.48855" lon="5.76993">
        <ele>590.40002441406</ele>
        <time>2019-10-08T14:08:41Z</time>
      </trkpt>
      <trkpt lat="45.48842" lon="5.76983">
        <ele>589.79998779297</ele>
        <time>2019-10-08T14:08:43Z</time>
      </trkpt>
      <trkpt lat="45.48756" lon="5.76932">
        <ele>587.59997558594</ele>
        <time>2019-10-08T14:08:55Z</time>
      </trkpt>
      <trkpt lat="45.48724" lon="5.76903">
        <ele>585.79998779297</ele>
        <time>2019-10-08T14:09:03Z</time>
      </trkpt>
      <trkpt lat="45.48717" lon="5.76912">
        <ele>585.20001220703</ele>
        <time>2019-10-08T14:09:05Z</time>
      </trkpt>
      <trkpt lat="45.48741" lon="5.76924">
        <ele>584.20001220703</ele>
        <time>2019-10-08T14:09:20Z</time>
      </trkpt>
      <trkpt lat="45.48742" lon="5.76923">
        <ele>584.40002441406</ele>
        <time>2019-10-08T14:09:23Z</time>
      </trkpt>
      <trkpt lat="45.48742" lon="5.76919">
        <ele>584.20001220703</ele>
        <time>2019-10-08T14:11:02Z</time>
      </trkpt>
      <trkpt lat="45.48731" lon="5.76914">
        <ele>584.20001220703</ele>
        <time>2019-10-08T14:11:06Z</time>
      </trkpt>
      <trkpt lat="45.48682" lon="5.76844">
        <ele>583.79998779297</ele>
        <time>2019-10-08T14:11:20Z</time>
      </trkpt>
      <trkpt lat="45.48645" lon="5.76803">
        <ele>583.40002441406</ele>
        <time>2019-10-08T14:11:28Z</time>
      </trkpt>
      <trkpt lat="45.48584" lon="5.76743">
        <ele>582.40002441406</ele>
        <time>2019-10-08T14:11:43Z</time>
      </trkpt>
      <trkpt lat="45.48519" lon="5.76714">
        <ele>581.59997558594</ele>
        <time>2019-10-08T14:11:56Z</time>
      </trkpt>
      <trkpt lat="45.4847" lon="5.76702">
        <ele>580.79998779297</ele>
        <time>2019-10-08T14:12:05Z</time>
      </trkpt>
      <trkpt lat="45.48453" lon="5.76706">
        <ele>580.59997558594</ele>
        <time>2019-10-08T14:12:08Z</time>
      </trkpt>
      <trkpt lat="45.48398" lon="5.76714">
        <ele>579</ele>
        <time>2019-10-08T14:12:17Z</time>
      </trkpt>
      <trkpt lat="45.48373" lon="5.76699">
        <ele>578.20001220703</ele>
        <time>2019-10-08T14:12:21Z</time>
      </trkpt>
      <trkpt lat="45.48341" lon="5.76669">
        <ele>577</ele>
        <time>2019-10-08T14:12:27Z</time>
      </trkpt>
      <trkpt lat="45.48281" lon="5.76611">
        <ele>576.40002441406</ele>
        <time>2019-10-08T14:12:39Z</time>
      </trkpt>
      <trkpt lat="45.48231" lon="5.76575">
        <ele>576.40002441406</ele>
        <time>2019-10-08T14:12:49Z</time>
      </trkpt>
      <trkpt lat="45.48116" lon="5.76527">
        <ele>576</ele>
        <time>2019-10-08T14:13:11Z</time>
      </trkpt>
      <trkpt lat="45.4809" lon="5.76501">
        <ele>575.79998779297</ele>
        <time>2019-10-08T14:13:17Z</time>
      </trkpt>
      <trkpt lat="45.48061" lon="5.76428">
        <ele>575.59997558594</ele>
        <time>2019-10-08T14:13:28Z</time>
      </trkpt>
      <trkpt lat="45.48039" lon="5.76364">
        <ele>576.79998779297</ele>
        <time>2019-10-08T14:13:40Z</time>
      </trkpt>
      <trkpt lat="45.48022" lon="5.76317">
        <ele>577.79998779297</ele>
        <time>2019-10-08T14:13:49Z</time>
      </trkpt>
      <trkpt lat="45.48003" lon="5.76272">
        <ele>578.59997558594</ele>
        <time>2019-10-08T14:13:58Z</time>
      </trkpt>
      <trkpt lat="45.47944" lon="5.76244">
        <ele>580.59997558594</ele>
        <time>2019-10-08T14:14:15Z</time>
      </trkpt>
      <trkpt lat="45.47903" lon="5.76249">
        <ele>580.59997558594</ele>
        <time>2019-10-08T14:14:24Z</time>
      </trkpt>
      <trkpt lat="45.47885" lon="5.76251">
        <ele>579.20001220703</ele>
        <time>2019-10-08T14:15:14Z</time>
      </trkpt>
      <trkpt lat="45.47879" lon="5.76252">
        <ele>579.20001220703</ele>
        <time>2019-10-08T14:15:17Z</time>
      </trkpt>
      <trkpt lat="45.4786" lon="5.76254">
        <ele>579.20001220703</ele>
        <time>2019-10-08T14:15:22Z</time>
      </trkpt>
      <trkpt lat="45.47831" lon="5.76258">
        <ele>578.79998779297</ele>
        <time>2019-10-08T14:15:27Z</time>
      </trkpt>
      <trkpt lat="45.47779" lon="5.76264">
        <ele>578.40002441406</ele>
        <time>2019-10-08T14:15:35Z</time>
      </trkpt>
      <trkpt lat="45.47702" lon="5.76266">
        <ele>577</ele>
        <time>2019-10-08T14:15:48Z</time>
      </trkpt>
      <trkpt lat="45.47652" lon="5.76263">
        <ele>576</ele>
        <time>2019-10-08T14:15:56Z</time>
      </trkpt>
      <trkpt lat="45.47573" lon="5.76254">
        <ele>573.59997558594</ele>
        <time>2019-10-08T14:16:08Z</time>
      </trkpt>
      <trkpt lat="45.4751" lon="5.76246">
        <ele>572.20001220703</ele>
        <time>2019-10-08T14:16:17Z</time>
      </trkpt>
      <trkpt lat="45.47465" lon="5.76239">
        <ele>570.79998779297</ele>
        <time>2019-10-08T14:16:23Z</time>
      </trkpt>
      <trkpt lat="45.47425" lon="5.76229">
        <ele>569.59997558594</ele>
        <time>2019-10-08T14:16:28Z</time>
      </trkpt>
      <trkpt lat="45.47368" lon="5.76189">
        <ele>567.40002441406</ele>
        <time>2019-10-08T14:16:36Z</time>
      </trkpt>
      <trkpt lat="45.47316" lon="5.76148">
        <ele>565.20001220703</ele>
        <time>2019-10-08T14:16:44Z</time>
      </trkpt>
      <trkpt lat="45.47218" lon="5.76074">
        <ele>563.40002441406</ele>
        <time>2019-10-08T14:17:00Z</time>
      </trkpt>
      <trkpt lat="45.47164" lon="5.76043">
        <ele>562.79998779297</ele>
        <time>2019-10-08T14:17:09Z</time>
      </trkpt>
      <trkpt lat="45.47119" lon="5.76018">
        <ele>562.20001220703</ele>
        <time>2019-10-08T14:17:17Z</time>
      </trkpt>
      <trkpt lat="45.4708" lon="5.75974">
        <ele>561.40002441406</ele>
        <time>2019-10-08T14:17:26Z</time>
      </trkpt>
      <trkpt lat="45.4702" lon="5.75908">
        <ele>560.40002441406</ele>
        <time>2019-10-08T14:17:37Z</time>
      </trkpt>
      <trkpt lat="45.46944" lon="5.75813">
        <ele>559.20001220703</ele>
        <time>2019-10-08T14:17:52Z</time>
      </trkpt>
      <trkpt lat="45.4692" lon="5.75742">
        <ele>559</ele>
        <time>2019-10-08T14:18:02Z</time>
      </trkpt>
      <trkpt lat="45.46893" lon="5.75706">
        <ele>560.20001220703</ele>
        <time>2019-10-08T14:18:12Z</time>
      </trkpt>
      <trkpt lat="45.4687" lon="5.75692">
        <ele>561.40002441406</ele>
        <time>2019-10-08T14:18:20Z</time>
      </trkpt>
      <trkpt lat="45.46847" lon="5.75681">
        <ele>562.40002441406</ele>
        <time>2019-10-08T14:18:28Z</time>
      </trkpt>
      <trkpt lat="45.46819" lon="5.75668">
        <ele>563.79998779297</ele>
        <time>2019-10-08T14:18:38Z</time>
      </trkpt>
      <trkpt lat="45.46749" lon="5.75635">
        <ele>566.20001220703</ele>
        <time>2019-10-08T14:19:02Z</time>
      </trkpt>
      <trkpt lat="45.46728" lon="5.75625">
        <ele>567.20001220703</ele>
        <time>2019-10-08T14:19:10Z</time>
      </trkpt>
      <trkpt lat="45.46683" lon="5.75604">
        <ele>569.20001220703</ele>
        <time>2019-10-08T14:19:28Z</time>
      </trkpt>
      <trkpt lat="45.46656" lon="5.75591">
        <ele>570.40002441406</ele>
        <time>2019-10-08T14:19:38Z</time>
      </trkpt>
      <trkpt lat="45.46627" lon="5.75573">
        <ele>571.79998779297</ele>
        <time>2019-10-08T14:19:49Z</time>
      </trkpt>
      <trkpt lat="45.46614" lon="5.75562">
        <ele>572.59997558594</ele>
        <time>2019-10-08T14:19:56Z</time>
      </trkpt>
      <trkpt lat="45.46607" lon="5.75556">
        <ele>573.20001220703</ele>
        <time>2019-10-08T14:21:46Z</time>
      </trkpt>
      <trkpt lat="45.4659" lon="5.7554">
        <ele>573.20001220703</ele>
        <time>2019-10-08T14:21:53Z</time>
      </trkpt>
      <trkpt lat="45.46566" lon="5.75518">
        <ele>573.59997558594</ele>
        <time>2019-10-08T14:22:01Z</time>
      </trkpt>
      <trkpt lat="45.46526" lon="5.75481">
        <ele>575</ele>
        <time>2019-10-08T14:22:14Z</time>
      </trkpt>
      <trkpt lat="45.46517" lon="5.75472">
        <ele>575.20001220703</ele>
        <time>2019-10-08T14:22:17Z</time>
      </trkpt>
      <trkpt lat="45.46476" lon="5.75434">
        <ele>576.40002441406</ele>
        <time>2019-10-08T14:22:30Z</time>
      </trkpt>
      <trkpt lat="45.46419" lon="5.75379">
        <ele>578.20001220703</ele>
        <time>2019-10-08T14:22:47Z</time>
      </trkpt>
      <trkpt lat="45.46386" lon="5.75312">
        <ele>578</ele>
        <time>2019-10-08T14:22:59Z</time>
      </trkpt>
      <trkpt lat="45.46381" lon="5.75292">
        <ele>577.79998779297</ele>
        <time>2019-10-08T14:23:02Z</time>
      </trkpt>
      <trkpt lat="45.46372" lon="5.75223">
        <ele>577.59997558594</ele>
        <time>2019-10-08T14:23:11Z</time>
      </trkpt>
      <trkpt lat="45.4636" lon="5.75172">
        <ele>576.40002441406</ele>
        <time>2019-10-08T14:23:17Z</time>
      </trkpt>
      <trkpt lat="45.46342" lon="5.75126">
        <ele>575.40002441406</ele>
        <time>2019-10-08T14:23:22Z</time>
      </trkpt>
      <trkpt lat="45.46329" lon="5.75095">
        <ele>574.59997558594</ele>
        <time>2019-10-08T14:23:25Z</time>
      </trkpt>
      <trkpt lat="45.46305" lon="5.75039">
        <ele>573.20001220703</ele>
        <time>2019-10-08T14:23:30Z</time>
      </trkpt>
      <trkpt lat="45.46288" lon="5.74979">
        <ele>571.40002441406</ele>
        <time>2019-10-08T14:23:35Z</time>
      </trkpt>
      <trkpt lat="45.46277" lon="5.74914">
        <ele>569.59997558594</ele>
        <time>2019-10-08T14:23:40Z</time>
      </trkpt>
      <trkpt lat="45.46239" lon="5.74834">
        <ele>566.79998779297</ele>
        <time>2019-10-08T14:23:47Z</time>
      </trkpt>
      <trkpt lat="45.46201" lon="5.74786">
        <ele>564.59997558594</ele>
        <time>2019-10-08T14:23:52Z</time>
      </trkpt>
      <trkpt lat="45.4615" lon="5.74742">
        <ele>561.20001220703</ele>
        <time>2019-10-08T14:23:58Z</time>
      </trkpt>
      <trkpt lat="45.46113" lon="5.74725">
        <ele>559</ele>
        <time>2019-10-08T14:24:02Z</time>
      </trkpt>
      <trkpt lat="45.46066" lon="5.74714">
        <ele>556.79998779297</ele>
        <time>2019-10-08T14:24:07Z</time>
      </trkpt>
      <trkpt lat="45.46036" lon="5.74717">
        <ele>555.20001220703</ele>
        <time>2019-10-08T14:24:10Z</time>
      </trkpt>
      <trkpt lat="45.45987" lon="5.74725">
        <ele>552.40002441406</ele>
        <time>2019-10-08T14:24:15Z</time>
      </trkpt>
      <trkpt lat="45.45957" lon="5.74728">
        <ele>550.40002441406</ele>
        <time>2019-10-08T14:24:18Z</time>
      </trkpt>
      <trkpt lat="45.45922" lon="5.74713">
        <ele>548</ele>
        <time>2019-10-08T14:24:22Z</time>
      </trkpt>
      <trkpt lat="45.45903" lon="5.74698">
        <ele>547</ele>
        <time>2019-10-08T14:24:24Z</time>
      </trkpt>
      <trkpt lat="45.45869" lon="5.74643">
        <ele>542.79998779297</ele>
        <time>2019-10-08T14:24:29Z</time>
      </trkpt>
      <trkpt lat="45.45845" lon="5.7459">
        <ele>540.40002441406</ele>
        <time>2019-10-08T14:24:33Z</time>
      </trkpt>
      <trkpt lat="45.4581" lon="5.74535">
        <ele>537.59997558594</ele>
        <time>2019-10-08T14:24:38Z</time>
      </trkpt>
      <trkpt lat="45.45765" lon="5.74507">
        <ele>535.40002441406</ele>
        <time>2019-10-08T14:24:43Z</time>
      </trkpt>
      <trkpt lat="45.45731" lon="5.74484">
        <ele>533.79998779297</ele>
        <time>2019-10-08T14:24:47Z</time>
      </trkpt>
      <trkpt lat="45.45671" lon="5.74444">
        <ele>531.40002441406</ele>
        <time>2019-10-08T14:24:54Z</time>
      </trkpt>
      <trkpt lat="45.45634" lon="5.74424">
        <ele>530.20001220703</ele>
        <time>2019-10-08T14:24:58Z</time>
      </trkpt>
      <trkpt lat="45.45568" lon="5.74427">
        <ele>527</ele>
        <time>2019-10-08T14:25:05Z</time>
      </trkpt>
      <trkpt lat="45.45532" lon="5.74445">
        <ele>525</ele>
        <time>2019-10-08T14:25:09Z</time>
      </trkpt>
      <trkpt lat="45.45477" lon="5.7448">
        <ele>521.40002441406</ele>
        <time>2019-10-08T14:25:15Z</time>
      </trkpt>
      <trkpt lat="45.4543" lon="5.7451">
        <ele>518.20001220703</ele>
        <time>2019-10-08T14:25:20Z</time>
      </trkpt>
      <trkpt lat="45.45368" lon="5.74557">
        <ele>515</ele>
        <time>2019-10-08T14:25:27Z</time>
      </trkpt>
      <trkpt lat="45.45356" lon="5.74578">
        <ele>513.79998779297</ele>
        <time>2019-10-08T14:25:29Z</time>
      </trkpt>
      <trkpt lat="45.4534" lon="5.74611">
        <ele>512.40002441406</ele>
        <time>2019-10-08T14:25:32Z</time>
      </trkpt>
      <trkpt lat="45.45326" lon="5.74652">
        <ele>510.39999389648</ele>
        <time>2019-10-08T14:25:35Z</time>
      </trkpt>
      <trkpt lat="45.45305" lon="5.74677">
        <ele>508.39999389648</ele>
        <time>2019-10-08T14:25:38Z</time>
      </trkpt>
      <trkpt lat="45.45276" lon="5.74682">
        <ele>506.20001220703</ele>
        <time>2019-10-08T14:25:42Z</time>
      </trkpt>
      <trkpt lat="45.45248" lon="5.74672">
        <ele>504.39999389648</ele>
        <time>2019-10-08T14:25:45Z</time>
      </trkpt>
      <trkpt lat="45.45189" lon="5.74645">
        <ele>501</ele>
        <time>2019-10-08T14:25:51Z</time>
      </trkpt>
      <trkpt lat="45.45159" lon="5.74637">
        <ele>499</ele>
        <time>2019-10-08T14:25:54Z</time>
      </trkpt>
      <trkpt lat="45.45113" lon="5.74655">
        <ele>496.20001220703</ele>
        <time>2019-10-08T14:25:59Z</time>
      </trkpt>
      <trkpt lat="45.45098" lon="5.74669">
        <ele>495.20001220703</ele>
        <time>2019-10-08T14:26:01Z</time>
      </trkpt>
      <trkpt lat="45.45074" lon="5.74704">
        <ele>493</ele>
        <time>2019-10-08T14:26:05Z</time>
      </trkpt>
      <trkpt lat="45.45063" lon="5.74737">
        <ele>491.79998779297</ele>
        <time>2019-10-08T14:26:08Z</time>
      </trkpt>
      <trkpt lat="45.45056" lon="5.74801">
        <ele>489.60000610352</ele>
        <time>2019-10-08T14:26:13Z</time>
      </trkpt>
      <trkpt lat="45.45054" lon="5.7484">
        <ele>488</ele>
        <time>2019-10-08T14:26:16Z</time>
      </trkpt>
      <trkpt lat="45.45044" lon="5.74946">
        <ele>484</ele>
        <time>2019-10-08T14:26:24Z</time>
      </trkpt>
      <trkpt lat="45.45037" lon="5.7497">
        <ele>482.79998779297</ele>
        <time>2019-10-08T14:26:26Z</time>
      </trkpt>
      <trkpt lat="45.45022" lon="5.75019">
        <ele>480.79998779297</ele>
        <time>2019-10-08T14:26:30Z</time>
      </trkpt>
      <trkpt lat="45.45003" lon="5.75048">
        <ele>478.60000610352</ele>
        <time>2019-10-08T14:26:34Z</time>
      </trkpt>
      <trkpt lat="45.4498" lon="5.75055">
        <ele>477</ele>
        <time>2019-10-08T14:26:37Z</time>
      </trkpt>
      <trkpt lat="45.44926" lon="5.75046">
        <ele>473.60000610352</ele>
        <time>2019-10-08T14:26:43Z</time>
      </trkpt>
      <trkpt lat="45.44875" lon="5.75036">
        <ele>471.60000610352</ele>
        <time>2019-10-08T14:26:48Z</time>
      </trkpt>
      <trkpt lat="45.44809" lon="5.75031">
        <ele>468.60000610352</ele>
        <time>2019-10-08T14:26:55Z</time>
      </trkpt>
      <trkpt lat="45.44795" lon="5.75038">
        <ele>466.79998779297</ele>
        <time>2019-10-08T14:26:58Z</time>
      </trkpt>
      <trkpt lat="45.44781" lon="5.75059">
        <ele>463.20001220703</ele>
        <time>2019-10-08T14:27:08Z</time>
      </trkpt>
      <trkpt lat="45.44778" lon="5.75069">
        <ele>462.60000610352</ele>
        <time>2019-10-08T14:27:14Z</time>
      </trkpt>
      <trkpt lat="45.44776" lon="5.75078">
        <ele>461.20001220703</ele>
        <time>2019-10-08T14:27:24Z</time>
      </trkpt>
      <trkpt lat="45.44776" lon="5.75078">
        <ele>461.39999389648</ele>
        <time>2019-10-08T14:28:21Z</time>
      </trkpt>
      <trkpt lat="45.44775" lon="5.75087">
        <ele>461.39999389648</ele>
        <time>2019-10-08T14:28:26Z</time>
      </trkpt>
      <trkpt lat="45.44771" lon="5.75107">
        <ele>461.39999389648</ele>
        <time>2019-10-08T14:28:30Z</time>
      </trkpt>
      <trkpt lat="45.44764" lon="5.75143">
        <ele>461</ele>
        <time>2019-10-08T14:28:34Z</time>
      </trkpt>
      <trkpt lat="45.44752" lon="5.75203">
        <ele>459.60000610352</ele>
        <time>2019-10-08T14:28:40Z</time>
      </trkpt>
      <trkpt lat="45.44742" lon="5.75257">
        <ele>458.60000610352</ele>
        <time>2019-10-08T14:28:45Z</time>
      </trkpt>
      <trkpt lat="45.44729" lon="5.75313">
        <ele>457</ele>
        <time>2019-10-08T14:28:50Z</time>
      </trkpt>
      <trkpt lat="45.4472" lon="5.75332">
        <ele>456.20001220703</ele>
        <time>2019-10-08T14:28:52Z</time>
      </trkpt>
      <trkpt lat="45.44698" lon="5.75347">
        <ele>455</ele>
        <time>2019-10-08T14:28:55Z</time>
      </trkpt>
      <trkpt lat="45.44664" lon="5.75349">
        <ele>453.39999389648</ele>
        <time>2019-10-08T14:28:59Z</time>
      </trkpt>
      <trkpt lat="45.44588" lon="5.75339">
        <ele>449.39999389648</ele>
        <time>2019-10-08T14:29:07Z</time>
      </trkpt>
      <trkpt lat="45.4452" lon="5.7533">
        <ele>446.60000610352</ele>
        <time>2019-10-08T14:29:13Z</time>
      </trkpt>
      <trkpt lat="45.44442" lon="5.75319">
        <ele>443</ele>
        <time>2019-10-08T14:29:20Z</time>
      </trkpt>
      <trkpt lat="45.44408" lon="5.75315">
        <ele>441.60000610352</ele>
        <time>2019-10-08T14:29:23Z</time>
      </trkpt>
      <trkpt lat="45.44334" lon="5.75305">
        <ele>438</ele>
        <time>2019-10-08T14:29:30Z</time>
      </trkpt>
      <trkpt lat="45.44279" lon="5.75298">
        <ele>436</ele>
        <time>2019-10-08T14:29:36Z</time>
      </trkpt>
      <trkpt lat="45.44208" lon="5.75289">
        <ele>433.79998779297</ele>
        <time>2019-10-08T14:29:44Z</time>
      </trkpt>
      <trkpt lat="45.44165" lon="5.75283">
        <ele>432.60000610352</ele>
        <time>2019-10-08T14:29:49Z</time>
      </trkpt>
      <trkpt lat="45.44139" lon="5.7528">
        <ele>431.39999389648</ele>
        <time>2019-10-08T14:29:52Z</time>
      </trkpt>
      <trkpt lat="45.44054" lon="5.75267">
        <ele>428.79998779297</ele>
        <time>2019-10-08T14:30:03Z</time>
      </trkpt>
      <trkpt lat="45.44025" lon="5.75264">
        <ele>428</ele>
        <time>2019-10-08T14:30:07Z</time>
      </trkpt>
      <trkpt lat="45.43957" lon="5.75255">
        <ele>426.79998779297</ele>
        <time>2019-10-08T14:30:19Z</time>
      </trkpt>
      <trkpt lat="45.43919" lon="5.7525">
        <ele>426.79998779297</ele>
        <time>2019-10-08T14:30:27Z</time>
      </trkpt>
      <trkpt lat="45.43849" lon="5.75241">
        <ele>426.79998779297</ele>
        <time>2019-10-08T14:30:43Z</time>
      </trkpt>
      <trkpt lat="45.43821" lon="5.75237">
        <ele>426.79998779297</ele>
        <time>2019-10-08T14:30:49Z</time>
      </trkpt>
      <trkpt lat="45.43772" lon="5.75227">
        <ele>426.60000610352</ele>
        <time>2019-10-08T14:31:02Z</time>
      </trkpt>
      <trkpt lat="45.43757" lon="5.75235">
        <ele>426.60000610352</ele>
        <time>2019-10-08T14:31:10Z</time>
      </trkpt>
      <trkpt lat="45.43735" lon="5.7531">
        <ele>426.79998779297</ele>
        <time>2019-10-08T14:31:28Z</time>
      </trkpt>
      <trkpt lat="45.43727" lon="5.75346">
        <ele>427.20001220703</ele>
        <time>2019-10-08T14:31:37Z</time>
      </trkpt>
      <trkpt lat="45.43699" lon="5.75345">
        <ele>427.60000610352</ele>
        <time>2019-10-08T14:31:47Z</time>
      </trkpt>
      <trkpt lat="45.43668" lon="5.75352">
        <ele>427.79998779297</ele>
        <time>2019-10-08T14:31:55Z</time>
      </trkpt>
      <trkpt lat="45.43639" lon="5.75361">
        <ele>428.79998779297</ele>
        <time>2019-10-08T14:32:04Z</time>
      </trkpt>
      <trkpt lat="45.43621" lon="5.75383">
        <ele>429.20001220703</ele>
        <time>2019-10-08T14:32:11Z</time>
      </trkpt>
      <trkpt lat="45.43621" lon="5.75403">
        <ele>430.39999389648</ele>
        <time>2019-10-08T14:32:19Z</time>
      </trkpt>
      <trkpt lat="45.43623" lon="5.75436">
        <ele>432</ele>
        <time>2019-10-08T14:32:29Z</time>
      </trkpt>
      <trkpt lat="45.43623" lon="5.75469">
        <ele>432.79998779297</ele>
        <time>2019-10-08T14:32:38Z</time>
      </trkpt>
      <trkpt lat="45.43643" lon="5.75522">
        <ele>434.39999389648</ele>
        <time>2019-10-08T14:32:51Z</time>
      </trkpt>
      <trkpt lat="45.43647" lon="5.75528">
        <ele>434.39999389648</ele>
        <time>2019-10-08T14:32:53Z</time>
      </trkpt>
      <trkpt lat="45.43671" lon="5.75574">
        <ele>434.20001220703</ele>
        <time>2019-10-08T14:33:03Z</time>
      </trkpt>
      <trkpt lat="45.43694" lon="5.75595">
        <ele>434.20001220703</ele>
        <time>2019-10-08T14:33:12Z</time>
      </trkpt>
      <trkpt lat="45.43719" lon="5.75611">
        <ele>434.39999389648</ele>
        <time>2019-10-08T14:33:18Z</time>
      </trkpt>
      <trkpt lat="45.43727" lon="5.75618">
        <ele>434.79998779297</ele>
        <time>2019-10-08T14:33:20Z</time>
      </trkpt>
      <trkpt lat="45.4379" lon="5.75667">
        <ele>435.20001220703</ele>
        <time>2019-10-08T14:33:34Z</time>
      </trkpt>
      <trkpt lat="45.43823" lon="5.75684">
        <ele>434.39999389648</ele>
        <time>2019-10-08T14:33:40Z</time>
      </trkpt>
      <trkpt lat="45.43852" lon="5.75697">
        <ele>434</ele>
        <time>2019-10-08T14:33:45Z</time>
      </trkpt>
      <trkpt lat="45.43896" lon="5.75729">
        <ele>433.60000610352</ele>
        <time>2019-10-08T14:33:54Z</time>
      </trkpt>
      <trkpt lat="45.43924" lon="5.75758">
        <ele>433.60000610352</ele>
        <time>2019-10-08T14:34:01Z</time>
      </trkpt>
      <trkpt lat="45.43993" lon="5.75829">
        <ele>433.60000610352</ele>
        <time>2019-10-08T14:34:16Z</time>
      </trkpt>
      <trkpt lat="45.44021" lon="5.75859">
        <ele>433.79998779297</ele>
        <time>2019-10-08T14:34:23Z</time>
      </trkpt>
      <trkpt lat="45.4407" lon="5.75911">
        <ele>434</ele>
        <time>2019-10-08T14:34:35Z</time>
      </trkpt>
      <trkpt lat="45.44112" lon="5.75954">
        <ele>434.60000610352</ele>
        <time>2019-10-08T14:34:46Z</time>
      </trkpt>
      <trkpt lat="45.44167" lon="5.7601">
        <ele>435.79998779297</ele>
        <time>2019-10-08T14:35:04Z</time>
      </trkpt>
      <trkpt lat="45.44172" lon="5.76015">
        <ele>436.39999389648</ele>
        <time>2019-10-08T14:35:36Z</time>
      </trkpt>
      <trkpt lat="45.44217" lon="5.76061">
        <ele>436.79998779297</ele>
        <time>2019-10-08T14:35:51Z</time>
      </trkpt>
      <trkpt lat="45.44247" lon="5.7609">
        <ele>437.60000610352</ele>
        <time>2019-10-08T14:36:00Z</time>
      </trkpt>
      <trkpt lat="45.44277" lon="5.76118">
        <ele>438.39999389648</ele>
        <time>2019-10-08T14:36:09Z</time>
      </trkpt>
      <trkpt lat="45.44305" lon="5.76142">
        <ele>439</ele>
        <time>2019-10-08T14:36:17Z</time>
      </trkpt>
      <trkpt lat="45.44372" lon="5.76196">
        <ele>440.79998779297</ele>
        <time>2019-10-08T14:36:36Z</time>
      </trkpt>
      <trkpt lat="45.44415" lon="5.76228">
        <ele>442</ele>
        <time>2019-10-08T14:36:47Z</time>
      </trkpt>
      <trkpt lat="45.44463" lon="5.76262">
        <ele>442.79998779297</ele>
        <time>2019-10-08T14:36:59Z</time>
      </trkpt>
      <trkpt lat="45.44517" lon="5.76302">
        <ele>444</ele>
        <time>2019-10-08T14:37:13Z</time>
      </trkpt>
      <trkpt lat="45.44581" lon="5.76357">
        <ele>445.79998779297</ele>
        <time>2019-10-08T14:37:31Z</time>
      </trkpt>
      <trkpt lat="45.4458" lon="5.76386">
        <ele>446.20001220703</ele>
        <time>2019-10-08T14:37:37Z</time>
      </trkpt>
      <trkpt lat="45.44598" lon="5.76396">
        <ele>446.20001220703</ele>
        <time>2019-10-08T14:37:43Z</time>
      </trkpt>
      <trkpt lat="45.44648" lon="5.764">
        <ele>447.60000610352</ele>
        <time>2019-10-08T14:37:55Z</time>
      </trkpt>
      <trkpt lat="45.44677" lon="5.76416">
        <ele>448.60000610352</ele>
        <time>2019-10-08T14:38:04Z</time>
      </trkpt>
      <trkpt lat="45.44709" lon="5.7644">
        <ele>449.79998779297</ele>
        <time>2019-10-08T14:38:15Z</time>
      </trkpt>
      <trkpt lat="45.44759" lon="5.76477">
        <ele>451.60000610352</ele>
        <time>2019-10-08T14:38:31Z</time>
      </trkpt>
      <trkpt lat="45.44812" lon="5.76516">
        <ele>453.79998779297</ele>
        <time>2019-10-08T14:38:48Z</time>
      </trkpt>
      <trkpt lat="45.44857" lon="5.76548">
        <ele>455.20001220703</ele>
        <time>2019-10-08T14:39:02Z</time>
      </trkpt>
      <trkpt lat="45.44909" lon="5.76584">
        <ele>456.79998779297</ele>
        <time>2019-10-08T14:39:18Z</time>
      </trkpt>
      <trkpt lat="45.44931" lon="5.766">
        <ele>457.60000610352</ele>
        <time>2019-10-08T14:39:25Z</time>
      </trkpt>
      <trkpt lat="45.44964" lon="5.76627">
        <ele>459.60000610352</ele>
        <time>2019-10-08T14:39:37Z</time>
      </trkpt>
      <trkpt lat="45.45001" lon="5.76655">
        <ele>461.60000610352</ele>
        <time>2019-10-08T14:39:50Z</time>
      </trkpt>
      <trkpt lat="45.45031" lon="5.76683">
        <ele>463</ele>
        <time>2019-10-08T14:40:01Z</time>
      </trkpt>
      <trkpt lat="45.45093" lon="5.76743">
        <ele>464.39999389648</ele>
        <time>2019-10-08T14:40:19Z</time>
      </trkpt>
      <trkpt lat="45.45136" lon="5.76788">
        <ele>464.79998779297</ele>
        <time>2019-10-08T14:40:31Z</time>
      </trkpt>
      <trkpt lat="45.45212" lon="5.76866">
        <ele>466.20001220703</ele>
        <time>2019-10-08T14:40:52Z</time>
      </trkpt>
      <trkpt lat="45.45244" lon="5.76898">
        <ele>467.20001220703</ele>
        <time>2019-10-08T14:41:02Z</time>
      </trkpt>
      <trkpt lat="45.45286" lon="5.76942">
        <ele>469.20001220703</ele>
        <time>2019-10-08T14:41:19Z</time>
      </trkpt>
      <trkpt lat="45.45305" lon="5.76962">
        <ele>470.20001220703</ele>
        <time>2019-10-08T14:41:27Z</time>
      </trkpt>
      <trkpt lat="45.45345" lon="5.77003">
        <ele>473</ele>
        <time>2019-10-08T14:41:43Z</time>
      </trkpt>
      <trkpt lat="45.45364" lon="5.77023">
        <ele>473.79998779297</ele>
        <time>2019-10-08T14:41:51Z</time>
      </trkpt>
      <trkpt lat="45.45399" lon="5.77063">
        <ele>475.79998779297</ele>
        <time>2019-10-08T14:42:06Z</time>
      </trkpt>
      <trkpt lat="45.45414" lon="5.7708">
        <ele>476.79998779297</ele>
        <time>2019-10-08T14:42:12Z</time>
      </trkpt>
      <trkpt lat="45.45445" lon="5.77125">
        <ele>479.20001220703</ele>
        <time>2019-10-08T14:42:26Z</time>
      </trkpt>
      <trkpt lat="45.45462" lon="5.77172">
        <ele>481</ele>
        <time>2019-10-08T14:42:38Z</time>
      </trkpt>
      <trkpt lat="45.45472" lon="5.77198">
        <ele>482.20001220703</ele>
        <time>2019-10-08T14:42:46Z</time>
      </trkpt>
      <trkpt lat="45.45489" lon="5.77245">
        <ele>484.39999389648</ele>
        <time>2019-10-08T14:43:01Z</time>
      </trkpt>
      <trkpt lat="45.45508" lon="5.77297">
        <ele>486.79998779297</ele>
        <time>2019-10-08T14:43:17Z</time>
      </trkpt>
      <trkpt lat="45.45528" lon="5.77352">
        <ele>488.79998779297</ele>
        <time>2019-10-08T14:43:33Z</time>
      </trkpt>
      <trkpt lat="45.45535" lon="5.77377">
        <ele>489.79998779297</ele>
        <time>2019-10-08T14:43:40Z</time>
      </trkpt>
      <trkpt lat="45.4554" lon="5.77434">
        <ele>492</ele>
        <time>2019-10-08T14:43:55Z</time>
      </trkpt>
      <trkpt lat="45.45535" lon="5.7746">
        <ele>492.79998779297</ele>
        <time>2019-10-08T14:44:02Z</time>
      </trkpt>
      <trkpt lat="45.45521" lon="5.77517">
        <ele>495.79998779297</ele>
        <time>2019-10-08T14:44:18Z</time>
      </trkpt>
      <trkpt lat="45.45514" lon="5.77546">
        <ele>496.60000610352</ele>
        <time>2019-10-08T14:44:26Z</time>
      </trkpt>
      <trkpt lat="45.45503" lon="5.77596">
        <ele>498.79998779297</ele>
        <time>2019-10-08T14:44:40Z</time>
      </trkpt>
      <trkpt lat="45.45495" lon="5.77631">
        <ele>500.39999389648</ele>
        <time>2019-10-08T14:44:50Z</time>
      </trkpt>
      <trkpt lat="45.45498" lon="5.77668">
        <ele>501.60000610352</ele>
        <time>2019-10-08T14:44:59Z</time>
      </trkpt>
      <trkpt lat="45.45514" lon="5.77723">
        <ele>503.79998779297</ele>
        <time>2019-10-08T14:45:15Z</time>
      </trkpt>
      <trkpt lat="45.45525" lon="5.77758">
        <ele>505</ele>
        <time>2019-10-08T14:45:24Z</time>
      </trkpt>
      <trkpt lat="45.45531" lon="5.77806">
        <ele>506.39999389648</ele>
        <time>2019-10-08T14:45:34Z</time>
      </trkpt>
      <trkpt lat="45.45532" lon="5.77842">
        <ele>507.39999389648</ele>
        <time>2019-10-08T14:45:41Z</time>
      </trkpt>
      <trkpt lat="45.45533" lon="5.7788">
        <ele>509.20001220703</ele>
        <time>2019-10-08T14:45:49Z</time>
      </trkpt>
      <trkpt lat="45.45534" lon="5.7791">
        <ele>510.39999389648</ele>
        <time>2019-10-08T14:45:55Z</time>
      </trkpt>
      <trkpt lat="45.45535" lon="5.77934">
        <ele>513.20001220703</ele>
        <time>2019-10-08T14:47:16Z</time>
      </trkpt>
      <trkpt lat="45.45535" lon="5.77944">
        <ele>513.20001220703</ele>
        <time>2019-10-08T14:47:20Z</time>
      </trkpt>
      <trkpt lat="45.45542" lon="5.77996">
        <ele>513.79998779297</ele>
        <time>2019-10-08T14:47:31Z</time>
      </trkpt>
      <trkpt lat="45.45547" lon="5.78022">
        <ele>515</ele>
        <time>2019-10-08T14:47:37Z</time>
      </trkpt>
      <trkpt lat="45.45553" lon="5.78053">
        <ele>516.40002441406</ele>
        <time>2019-10-08T14:47:45Z</time>
      </trkpt>
      <trkpt lat="45.45557" lon="5.78073">
        <ele>517.20001220703</ele>
        <time>2019-10-08T14:47:50Z</time>
      </trkpt>
      <trkpt lat="45.45571" lon="5.78134">
        <ele>519.20001220703</ele>
        <time>2019-10-08T14:48:06Z</time>
      </trkpt>
      <trkpt lat="45.4558" lon="5.78173">
        <ele>521</ele>
        <time>2019-10-08T14:48:17Z</time>
      </trkpt>
      <trkpt lat="45.45586" lon="5.78199">
        <ele>521.79998779297</ele>
        <time>2019-10-08T14:48:24Z</time>
      </trkpt>
      <trkpt lat="45.45599" lon="5.78255">
        <ele>524.40002441406</ele>
        <time>2019-10-08T14:48:39Z</time>
      </trkpt>
      <trkpt lat="45.45606" lon="5.78289">
        <ele>525.79998779297</ele>
        <time>2019-10-08T14:48:48Z</time>
      </trkpt>
      <trkpt lat="45.45617" lon="5.78334">
        <ele>527.40002441406</ele>
        <time>2019-10-08T14:49:00Z</time>
      </trkpt>
      <trkpt lat="45.45624" lon="5.78364">
        <ele>528.79998779297</ele>
        <time>2019-10-08T14:49:08Z</time>
      </trkpt>
      <trkpt lat="45.45639" lon="5.78419">
        <ele>531.59997558594</ele>
        <time>2019-10-08T14:49:25Z</time>
      </trkpt>
      <trkpt lat="45.45648" lon="5.78444">
        <ele>532.59997558594</ele>
        <time>2019-10-08T14:49:33Z</time>
      </trkpt>
      <trkpt lat="45.45666" lon="5.78495">
        <ele>534.59997558594</ele>
        <time>2019-10-08T14:49:48Z</time>
      </trkpt>
      <trkpt lat="45.45684" lon="5.78541">
        <ele>536.20001220703</ele>
        <time>2019-10-08T14:50:02Z</time>
      </trkpt>
      <trkpt lat="45.45691" lon="5.78599">
        <ele>538.20001220703</ele>
        <time>2019-10-08T14:50:19Z</time>
      </trkpt>
      <trkpt lat="45.45686" lon="5.78633">
        <ele>539.40002441406</ele>
        <time>2019-10-08T14:50:28Z</time>
      </trkpt>
      <trkpt lat="45.45662" lon="5.78677">
        <ele>541.40002441406</ele>
        <time>2019-10-08T14:50:43Z</time>
      </trkpt>
      <trkpt lat="45.45646" lon="5.78692">
        <ele>542.40002441406</ele>
        <time>2019-10-08T14:50:50Z</time>
      </trkpt>
      <trkpt lat="45.45632" lon="5.787">
        <ele>543.20001220703</ele>
        <time>2019-10-08T14:50:56Z</time>
      </trkpt>
      <trkpt lat="45.45597" lon="5.78713">
        <ele>545.59997558594</ele>
        <time>2019-10-08T14:51:10Z</time>
      </trkpt>
      <trkpt lat="45.45583" lon="5.78719">
        <ele>546.79998779297</ele>
        <time>2019-10-08T14:51:16Z</time>
      </trkpt>
      <trkpt lat="45.45551" lon="5.78735">
        <ele>549.40002441406</ele>
        <time>2019-10-08T14:51:29Z</time>
      </trkpt>
      <trkpt lat="45.45518" lon="5.78755">
        <ele>551.40002441406</ele>
        <time>2019-10-08T14:51:44Z</time>
      </trkpt>
      <trkpt lat="45.45493" lon="5.78769">
        <ele>553</ele>
        <time>2019-10-08T14:51:55Z</time>
      </trkpt>
      <trkpt lat="45.45465" lon="5.78785">
        <ele>554.20001220703</ele>
        <time>2019-10-08T14:52:04Z</time>
      </trkpt>
      <trkpt lat="45.45437" lon="5.78795">
        <ele>556</ele>
        <time>2019-10-08T14:52:13Z</time>
      </trkpt>
      <trkpt lat="45.45407" lon="5.78798">
        <ele>557.59997558594</ele>
        <time>2019-10-08T14:52:26Z</time>
      </trkpt>
      <trkpt lat="45.45396" lon="5.788">
        <ele>558.79998779297</ele>
        <time>2019-10-08T14:52:34Z</time>
      </trkpt>
      <trkpt lat="45.45393" lon="5.78801">
        <ele>560.59997558594</ele>
        <time>2019-10-08T14:52:44Z</time>
      </trkpt>
      <trkpt lat="45.45393" lon="5.78801">
        <ele>560.59997558594</ele>
        <time>2019-10-08T14:52:48Z</time>
      </trkpt>
      <trkpt lat="45.45389" lon="5.78804">
        <ele>560.79998779297</ele>
        <time>2019-10-08T14:52:53Z</time>
      </trkpt>
      <trkpt lat="45.45389" lon="5.78804">
        <ele>561</ele>
        <time>2019-10-08T14:53:00Z</time>
      </trkpt>
      <trkpt lat="45.45359" lon="5.79261">
        <ele>574.20001220703</ele>
        <time>2019-10-08T14:54:30Z</time>
      </trkpt>
      <trkpt lat="45.45359" lon="5.79263">
        <ele>574.40002441406</ele>
        <time>2019-10-08T14:54:33Z</time>
      </trkpt>
      <trkpt lat="45.45394" lon="5.79219">
        <ele>575.59997558594</ele>
        <time>2019-10-08T14:55:03Z</time>
      </trkpt>
      <trkpt lat="45.45403" lon="5.79239">
        <ele>576.59997558594</ele>
        <time>2019-10-08T14:55:11Z</time>
      </trkpt>
      <trkpt lat="45.45415" lon="5.79264">
        <ele>577.59997558594</ele>
        <time>2019-10-08T14:55:20Z</time>
      </trkpt>
      <trkpt lat="45.45402" lon="5.79313">
        <ele>578.59997558594</ele>
        <time>2019-10-08T14:55:27Z</time>
      </trkpt>
      <trkpt lat="45.45401" lon="5.7936">
        <ele>580.20001220703</ele>
        <time>2019-10-08T14:55:37Z</time>
      </trkpt>
      <trkpt lat="45.45389" lon="5.7941">
        <ele>581.20001220703</ele>
        <time>2019-10-08T14:55:46Z</time>
      </trkpt>
      <trkpt lat="45.45403" lon="5.79442">
        <ele>582.20001220703</ele>
        <time>2019-10-08T14:55:55Z</time>
      </trkpt>
      <trkpt lat="45.45416" lon="5.79476">
        <ele>583</ele>
        <time>2019-10-08T14:56:04Z</time>
      </trkpt>
      <trkpt lat="45.45434" lon="5.79546">
        <ele>584.59997558594</ele>
        <time>2019-10-08T14:56:20Z</time>
      </trkpt>
      <trkpt lat="45.45435" lon="5.7958">
        <ele>585.40002441406</ele>
        <time>2019-10-08T14:56:27Z</time>
      </trkpt>
      <trkpt lat="45.45428" lon="5.79634">
        <ele>586.59997558594</ele>
        <time>2019-10-08T14:56:38Z</time>
      </trkpt>
      <trkpt lat="45.45416" lon="5.79679">
        <ele>587.79998779297</ele>
        <time>2019-10-08T14:56:48Z</time>
      </trkpt>
      <trkpt lat="45.454" lon="5.79712">
        <ele>588.79998779297</ele>
        <time>2019-10-08T14:56:57Z</time>
      </trkpt>
      <trkpt lat="45.45378" lon="5.79745">
        <ele>590</ele>
        <time>2019-10-08T14:57:09Z</time>
      </trkpt>
      <trkpt lat="45.45359" lon="5.79772">
        <ele>590.59997558594</ele>
        <time>2019-10-08T14:57:17Z</time>
      </trkpt>
      <trkpt lat="45.45321" lon="5.79837">
        <ele>592.59997558594</ele>
        <time>2019-10-08T14:57:32Z</time>
      </trkpt>
      <trkpt lat="45.45309" lon="5.79868">
        <ele>593.40002441406</ele>
        <time>2019-10-08T14:57:39Z</time>
      </trkpt>
      <trkpt lat="45.45299" lon="5.79913">
        <ele>595</ele>
        <time>2019-10-08T14:57:50Z</time>
      </trkpt>
      <trkpt lat="45.45295" lon="5.79988">
        <ele>596.20001220703</ele>
        <time>2019-10-08T14:58:04Z</time>
      </trkpt>
      <trkpt lat="45.4532" lon="5.801">
        <ele>598.20001220703</ele>
        <time>2019-10-08T14:58:25Z</time>
      </trkpt>
      <trkpt lat="45.45345" lon="5.80145">
        <ele>599.20001220703</ele>
        <time>2019-10-08T14:58:36Z</time>
      </trkpt>
      <trkpt lat="45.45385" lon="5.80189">
        <ele>601</ele>
        <time>2019-10-08T14:58:51Z</time>
      </trkpt>
      <trkpt lat="45.45402" lon="5.80203">
        <ele>601.79998779297</ele>
        <time>2019-10-08T14:58:58Z</time>
      </trkpt>
      <trkpt lat="45.45443" lon="5.8022">
        <ele>603.79998779297</ele>
        <time>2019-10-08T14:59:12Z</time>
      </trkpt>
      <trkpt lat="45.45475" lon="5.80224">
        <ele>605.79998779297</ele>
        <time>2019-10-08T14:59:23Z</time>
      </trkpt>
      <trkpt lat="45.45496" lon="5.80224">
        <ele>607.20001220703</ele>
        <time>2019-10-08T14:59:30Z</time>
      </trkpt>
      <trkpt lat="45.45515" lon="5.80222">
        <ele>608.40002441406</ele>
        <time>2019-10-08T14:59:37Z</time>
      </trkpt>
      <trkpt lat="45.45561" lon="5.80216">
        <ele>610.59997558594</ele>
        <time>2019-10-08T14:59:51Z</time>
      </trkpt>
      <trkpt lat="45.45596" lon="5.80213">
        <ele>612</ele>
        <time>2019-10-08T15:00:01Z</time>
      </trkpt>
      <trkpt lat="45.45623" lon="5.80211">
        <ele>613</ele>
        <time>2019-10-08T15:00:09Z</time>
      </trkpt>
      <trkpt lat="45.45649" lon="5.80217">
        <ele>614.59997558594</ele>
        <time>2019-10-08T15:00:17Z</time>
      </trkpt>
      <trkpt lat="45.45668" lon="5.80229">
        <ele>615.59997558594</ele>
        <time>2019-10-08T15:00:23Z</time>
      </trkpt>
      <trkpt lat="45.45692" lon="5.80259">
        <ele>617.20001220703</ele>
        <time>2019-10-08T15:00:31Z</time>
      </trkpt>
      <trkpt lat="45.45707" lon="5.80282">
        <ele>618.20001220703</ele>
        <time>2019-10-08T15:00:36Z</time>
      </trkpt>
      <trkpt lat="45.45721" lon="5.80308">
        <ele>619.40002441406</ele>
        <time>2019-10-08T15:00:41Z</time>
      </trkpt>
      <trkpt lat="45.45739" lon="5.80338">
        <ele>620.20001220703</ele>
        <time>2019-10-08T15:00:47Z</time>
      </trkpt>
      <trkpt lat="45.45783" lon="5.80411">
        <ele>621.79998779297</ele>
        <time>2019-10-08T15:01:02Z</time>
      </trkpt>
      <trkpt lat="45.45801" lon="5.80442">
        <ele>622.40002441406</ele>
        <time>2019-10-08T15:01:09Z</time>
      </trkpt>
      <trkpt lat="45.45823" lon="5.80486">
        <ele>623.20001220703</ele>
        <time>2019-10-08T15:01:18Z</time>
      </trkpt>
      <trkpt lat="45.45859" lon="5.80559">
        <ele>625.20001220703</ele>
        <time>2019-10-08T15:01:34Z</time>
      </trkpt>
      <trkpt lat="45.45871" lon="5.80583">
        <ele>625.79998779297</ele>
        <time>2019-10-08T15:01:40Z</time>
      </trkpt>
      <trkpt lat="45.45887" lon="5.80636">
        <ele>627.79998779297</ele>
        <time>2019-10-08T15:01:52Z</time>
      </trkpt>
      <trkpt lat="45.45889" lon="5.80675">
        <ele>629</ele>
        <time>2019-10-08T15:02:00Z</time>
      </trkpt>
      <trkpt lat="45.4588" lon="5.80727">
        <ele>630</ele>
        <time>2019-10-08T15:02:12Z</time>
      </trkpt>
      <trkpt lat="45.45874" lon="5.80751">
        <ele>631</ele>
        <time>2019-10-08T15:02:18Z</time>
      </trkpt>
      <trkpt lat="45.45868" lon="5.80786">
        <ele>632.40002441406</ele>
        <time>2019-10-08T15:02:26Z</time>
      </trkpt>
      <trkpt lat="45.45876" lon="5.80831">
        <ele>633.79998779297</ele>
        <time>2019-10-08T15:02:35Z</time>
      </trkpt>
      <trkpt lat="45.4592" lon="5.80915">
        <ele>636</ele>
        <time>2019-10-08T15:02:56Z</time>
      </trkpt>
      <trkpt lat="45.45931" lon="5.80937">
        <ele>636.20001220703</ele>
        <time>2019-10-08T15:03:01Z</time>
      </trkpt>
      <trkpt lat="45.45955" lon="5.80982">
        <ele>637</ele>
        <time>2019-10-08T15:03:11Z</time>
      </trkpt>
      <trkpt lat="45.45974" lon="5.81016">
        <ele>637.79998779297</ele>
        <time>2019-10-08T15:03:19Z</time>
      </trkpt>
      <trkpt lat="45.46011" lon="5.81064">
        <ele>639.20001220703</ele>
        <time>2019-10-08T15:03:32Z</time>
      </trkpt>
      <trkpt lat="45.46051" lon="5.81097">
        <ele>640.40002441406</ele>
        <time>2019-10-08T15:03:44Z</time>
      </trkpt>
      <trkpt lat="45.46091" lon="5.81126">
        <ele>641.40002441406</ele>
        <time>2019-10-08T15:03:57Z</time>
      </trkpt>
      <trkpt lat="45.46145" lon="5.81162">
        <ele>642.59997558594</ele>
        <time>2019-10-08T15:04:13Z</time>
      </trkpt>
      <trkpt lat="45.46173" lon="5.81181">
        <ele>643.40002441406</ele>
        <time>2019-10-08T15:04:21Z</time>
      </trkpt>
      <trkpt lat="45.462" lon="5.81199">
        <ele>644</ele>
        <time>2019-10-08T15:04:28Z</time>
      </trkpt>
      <trkpt lat="45.46237" lon="5.81227">
        <ele>645</ele>
        <time>2019-10-08T15:04:39Z</time>
      </trkpt>
      <trkpt lat="45.46282" lon="5.81262">
        <ele>646</ele>
        <time>2019-10-08T15:04:51Z</time>
      </trkpt>
      <trkpt lat="45.46308" lon="5.81284">
        <ele>646.79998779297</ele>
        <time>2019-10-08T15:04:58Z</time>
      </trkpt>
      <trkpt lat="45.46365" lon="5.8133">
        <ele>648.59997558594</ele>
        <time>2019-10-08T15:05:14Z</time>
      </trkpt>
      <trkpt lat="45.46395" lon="5.81354">
        <ele>648.79998779297</ele>
        <time>2019-10-08T15:05:21Z</time>
      </trkpt>
      <trkpt lat="45.46461" lon="5.81401">
        <ele>651</ele>
        <time>2019-10-08T15:05:38Z</time>
      </trkpt>
      <trkpt lat="45.4649" lon="5.81415">
        <ele>652</ele>
        <time>2019-10-08T15:05:45Z</time>
      </trkpt>
      <trkpt lat="45.46544" lon="5.81442">
        <ele>653.40002441406</ele>
        <time>2019-10-08T15:06:00Z</time>
      </trkpt>
      <trkpt lat="45.46579" lon="5.8146">
        <ele>654.59997558594</ele>
        <time>2019-10-08T15:06:10Z</time>
      </trkpt>
      <trkpt lat="45.46619" lon="5.8148">
        <ele>655.59997558594</ele>
        <time>2019-10-08T15:06:20Z</time>
      </trkpt>
      <trkpt lat="45.46673" lon="5.81507">
        <ele>657.20001220703</ele>
        <time>2019-10-08T15:06:34Z</time>
      </trkpt>
      <trkpt lat="45.46701" lon="5.81521">
        <ele>658</ele>
        <time>2019-10-08T15:06:41Z</time>
      </trkpt>
      <trkpt lat="45.46736" lon="5.81539">
        <ele>659.79998779297</ele>
        <time>2019-10-08T15:06:52Z</time>
      </trkpt>
      <trkpt lat="45.46767" lon="5.81555">
        <ele>660.79998779297</ele>
        <time>2019-10-08T15:07:00Z</time>
      </trkpt>
      <trkpt lat="45.46801" lon="5.81576">
        <ele>661.59997558594</ele>
        <time>2019-10-08T15:07:08Z</time>
      </trkpt>
      <trkpt lat="45.46841" lon="5.81608">
        <ele>661.59997558594</ele>
        <time>2019-10-08T15:07:18Z</time>
      </trkpt>
      <trkpt lat="45.46873" lon="5.81639">
        <ele>661.59997558594</ele>
        <time>2019-10-08T15:07:28Z</time>
      </trkpt>
      <trkpt lat="45.46926" lon="5.81703">
        <ele>662.20001220703</ele>
        <time>2019-10-08T15:07:43Z</time>
      </trkpt>
      <trkpt lat="45.46925" lon="5.81738">
        <ele>662.20001220703</ele>
        <time>2019-10-08T15:07:49Z</time>
      </trkpt>
      <trkpt lat="45.46918" lon="5.81748">
        <ele>662.59997558594</ele>
        <time>2019-10-08T15:07:53Z</time>
      </trkpt>
      <trkpt lat="45.46891" lon="5.81781">
        <ele>663.40002441406</ele>
        <time>2019-10-08T15:08:04Z</time>
      </trkpt>
      <trkpt lat="45.46878" lon="5.81793">
        <ele>664.59997558594</ele>
        <time>2019-10-08T15:08:09Z</time>
      </trkpt>
      <trkpt lat="45.46859" lon="5.81805">
        <ele>666</ele>
        <time>2019-10-08T15:08:17Z</time>
      </trkpt>
      <trkpt lat="45.46837" lon="5.81816">
        <ele>667.40002441406</ele>
        <time>2019-10-08T15:08:25Z</time>
      </trkpt>
      <trkpt lat="45.46828" lon="5.81821">
        <ele>667.79998779297</ele>
        <time>2019-10-08T15:08:28Z</time>
      </trkpt>
      <trkpt lat="45.46777" lon="5.81845">
        <ele>670</ele>
        <time>2019-10-08T15:08:46Z</time>
      </trkpt>
      <trkpt lat="45.46751" lon="5.81856">
        <ele>671.20001220703</ele>
        <time>2019-10-08T15:08:55Z</time>
      </trkpt>
      <trkpt lat="45.46704" lon="5.81893">
        <ele>672.79998779297</ele>
        <time>2019-10-08T15:09:11Z</time>
      </trkpt>
      <trkpt lat="45.46686" lon="5.81937">
        <ele>673.59997558594</ele>
        <time>2019-10-08T15:09:21Z</time>
      </trkpt>
      <trkpt lat="45.46663" lon="5.8198">
        <ele>675.40002441406</ele>
        <time>2019-10-08T15:09:33Z</time>
      </trkpt>
      <trkpt lat="45.46649" lon="5.82001">
        <ele>676.59997558594</ele>
        <time>2019-10-08T15:09:40Z</time>
      </trkpt>
      <trkpt lat="45.4663" lon="5.82032">
        <ele>677.59997558594</ele>
        <time>2019-10-08T15:09:50Z</time>
      </trkpt>
      <trkpt lat="45.4662" lon="5.82048">
        <ele>678.59997558594</ele>
        <time>2019-10-08T15:09:56Z</time>
      </trkpt>
      <trkpt lat="45.46606" lon="5.8208">
        <ele>680.20001220703</ele>
        <time>2019-10-08T15:10:06Z</time>
      </trkpt>
      <trkpt lat="45.46602" lon="5.82071">
        <ele>681.20001220703</ele>
        <time>2019-10-08T15:10:12Z</time>
      </trkpt>
      <trkpt lat="45.466" lon="5.8207">
        <ele>682.20001220703</ele>
        <time>2019-10-08T15:10:17Z</time>
      </trkpt>
      <trkpt lat="45.46593" lon="5.82067">
        <ele>683</ele>
        <time>2019-10-08T15:10:25Z</time>
      </trkpt>
      <trkpt lat="45.46598" lon="5.82069">
        <ele>684</ele>
        <time>2019-10-08T15:16:44Z</time>
      </trkpt>
      <trkpt lat="45.46592" lon="5.82116">
        <ele>684.40002441406</ele>
        <time>2019-10-08T15:16:54Z</time>
      </trkpt>
      <trkpt lat="45.46587" lon="5.82131">
        <ele>685</ele>
        <time>2019-10-08T15:17:00Z</time>
      </trkpt>
      <trkpt lat="45.46582" lon="5.82144">
        <ele>685.79998779297</ele>
        <time>2019-10-08T15:17:06Z</time>
      </trkpt>
      <trkpt lat="45.46577" lon="5.82157">
        <ele>686.40002441406</ele>
        <time>2019-10-08T15:17:12Z</time>
      </trkpt>
      <trkpt lat="45.46572" lon="5.82165">
        <ele>687.59997558594</ele>
        <time>2019-10-08T15:17:19Z</time>
      </trkpt>
      <trkpt lat="45.46549" lon="5.8216">
        <ele>688.59997558594</ele>
        <time>2019-10-08T15:17:26Z</time>
      </trkpt>
      <trkpt lat="45.46531" lon="5.82144">
        <ele>690.40002441406</ele>
        <time>2019-10-08T15:17:38Z</time>
      </trkpt>
      <trkpt lat="45.46522" lon="5.82135">
        <ele>691.20001220703</ele>
        <time>2019-10-08T15:17:44Z</time>
      </trkpt>
      <trkpt lat="45.465" lon="5.82115">
        <ele>693</ele>
        <time>2019-10-08T15:17:56Z</time>
      </trkpt>
      <trkpt lat="45.46481" lon="5.82102">
        <ele>694.20001220703</ele>
        <time>2019-10-08T15:18:06Z</time>
      </trkpt>
      <trkpt lat="45.46467" lon="5.82092">
        <ele>695</ele>
        <time>2019-10-08T15:18:13Z</time>
      </trkpt>
      <trkpt lat="45.46448" lon="5.82078">
        <ele>696</ele>
        <time>2019-10-08T15:18:23Z</time>
      </trkpt>
      <trkpt lat="45.46435" lon="5.82067">
        <ele>697.20001220703</ele>
        <time>2019-10-08T15:18:31Z</time>
      </trkpt>
      <trkpt lat="45.46408" lon="5.82044">
        <ele>699</ele>
        <time>2019-10-08T15:18:45Z</time>
      </trkpt>
      <trkpt lat="45.46396" lon="5.82039">
        <ele>699.79998779297</ele>
        <time>2019-10-08T15:18:52Z</time>
      </trkpt>
      <trkpt lat="45.46347" lon="5.82034">
        <ele>702.40002441406</ele>
        <time>2019-10-08T15:19:15Z</time>
      </trkpt>
      <trkpt lat="45.46333" lon="5.82032">
        <ele>703.79998779297</ele>
        <time>2019-10-08T15:19:23Z</time>
      </trkpt>
      <trkpt lat="45.4631" lon="5.82026">
        <ele>705.59997558594</ele>
        <time>2019-10-08T15:19:35Z</time>
      </trkpt>
      <trkpt lat="45.46294" lon="5.82021">
        <ele>706.79998779297</ele>
        <time>2019-10-08T15:19:43Z</time>
      </trkpt>
      <trkpt lat="45.46263" lon="5.82012">
        <ele>709</ele>
        <time>2019-10-08T15:19:58Z</time>
      </trkpt>
      <trkpt lat="45.46244" lon="5.82009">
        <ele>710</ele>
        <time>2019-10-08T15:20:08Z</time>
      </trkpt>
      <trkpt lat="45.46222" lon="5.82012">
        <ele>711.20001220703</ele>
        <time>2019-10-08T15:20:18Z</time>
      </trkpt>
      <trkpt lat="45.462" lon="5.82018">
        <ele>713.59997558594</ele>
        <time>2019-10-08T15:20:32Z</time>
      </trkpt>
      <trkpt lat="45.46186" lon="5.82021">
        <ele>714.40002441406</ele>
        <time>2019-10-08T15:20:40Z</time>
      </trkpt>
      <trkpt lat="45.46167" lon="5.82022">
        <ele>716</ele>
        <time>2019-10-08T15:20:48Z</time>
      </trkpt>
      <trkpt lat="45.46156" lon="5.82019">
        <ele>717</ele>
        <time>2019-10-08T15:20:54Z</time>
      </trkpt>
      <trkpt lat="45.46137" lon="5.82013">
        <ele>718.79998779297</ele>
        <time>2019-10-08T15:21:03Z</time>
      </trkpt>
      <trkpt lat="45.46123" lon="5.82009">
        <ele>720</ele>
        <time>2019-10-08T15:21:11Z</time>
      </trkpt>
      <trkpt lat="45.46108" lon="5.82003">
        <ele>721.59997558594</ele>
        <time>2019-10-08T15:21:20Z</time>
      </trkpt>
      <trkpt lat="45.46098" lon="5.81999">
        <ele>722.79998779297</ele>
        <time>2019-10-08T15:21:26Z</time>
      </trkpt>
      <trkpt lat="45.46075" lon="5.81984">
        <ele>724.59997558594</ele>
        <time>2019-10-08T15:21:38Z</time>
      </trkpt>
      <trkpt lat="45.46059" lon="5.81972">
        <ele>726.20001220703</ele>
        <time>2019-10-08T15:21:47Z</time>
      </trkpt>
      <trkpt lat="45.46031" lon="5.81951">
        <ele>728.20001220703</ele>
        <time>2019-10-08T15:22:02Z</time>
      </trkpt>
      <trkpt lat="45.46014" lon="5.81936">
        <ele>729</ele>
        <time>2019-10-08T15:22:09Z</time>
      </trkpt>
      <trkpt lat="45.45999" lon="5.81922">
        <ele>730.40002441406</ele>
        <time>2019-10-08T15:22:17Z</time>
      </trkpt>
      <trkpt lat="45.45983" lon="5.81906">
        <ele>731.59997558594</ele>
        <time>2019-10-08T15:22:26Z</time>
      </trkpt>
      <trkpt lat="45.45961" lon="5.8188">
        <ele>733</ele>
        <time>2019-10-08T15:22:38Z</time>
      </trkpt>
      <trkpt lat="45.45944" lon="5.81865">
        <ele>734.40002441406</ele>
        <time>2019-10-08T15:22:46Z</time>
      </trkpt>
      <trkpt lat="45.45928" lon="5.81857">
        <ele>735.20001220703</ele>
        <time>2019-10-08T15:22:54Z</time>
      </trkpt>
      <trkpt lat="45.459" lon="5.81876">
        <ele>736.59997558594</ele>
        <time>2019-10-08T15:23:07Z</time>
      </trkpt>
      <trkpt lat="45.459" lon="5.81876">
        <ele>737.40002441406</ele>
        <time>2019-10-08T15:23:14Z</time>
      </trkpt>
      <trkpt lat="45.459" lon="5.81898">
        <ele>738.40002441406</ele>
        <time>2019-10-08T15:23:19Z</time>
      </trkpt>
      <trkpt lat="45.45902" lon="5.81907">
        <ele>739</ele>
        <time>2019-10-08T15:23:24Z</time>
      </trkpt>
      <trkpt lat="45.45933" lon="5.81941">
        <ele>741.79998779297</ele>
        <time>2019-10-08T15:25:35Z</time>
      </trkpt>
      <trkpt lat="45.45936" lon="5.81945">
        <ele>741.79998779297</ele>
        <time>2019-10-08T15:25:39Z</time>
      </trkpt>
      <trkpt lat="45.45941" lon="5.81949">
        <ele>742.40002441406</ele>
        <time>2019-10-08T15:25:45Z</time>
      </trkpt>
      <trkpt lat="45.45944" lon="5.81953">
        <ele>743.20001220703</ele>
        <time>2019-10-08T15:25:52Z</time>
      </trkpt>
      <trkpt lat="45.45948" lon="5.81956">
        <ele>744.20001220703</ele>
        <time>2019-10-08T15:25:58Z</time>
      </trkpt>
      <trkpt lat="45.45951" lon="5.8196">
        <ele>745.20001220703</ele>
        <time>2019-10-08T15:26:04Z</time>
      </trkpt>
      <trkpt lat="45.45953" lon="5.81961">
        <ele>747</ele>
        <time>2019-10-08T15:26:33Z</time>
      </trkpt>
      <trkpt lat="45.45974" lon="5.81982">
        <ele>746.79998779297</ele>
        <time>2019-10-08T15:26:35Z</time>
      </trkpt>
      <trkpt lat="45.45976" lon="5.81985">
        <ele>747</ele>
        <time>2019-10-08T15:26:41Z</time>
      </trkpt>
      <trkpt lat="45.4599" lon="5.81999">
        <ele>748.40002441406</ele>
        <time>2019-10-08T15:26:50Z</time>
      </trkpt>
      <trkpt lat="45.46" lon="5.82007">
        <ele>749.40002441406</ele>
        <time>2019-10-08T15:26:58Z</time>
      </trkpt>
      <trkpt lat="45.46017" lon="5.82022">
        <ele>751.40002441406</ele>
        <time>2019-10-08T15:27:10Z</time>
      </trkpt>
      <trkpt lat="45.4603" lon="5.82034">
        <ele>752.59997558594</ele>
        <time>2019-10-08T15:27:19Z</time>
      </trkpt>
      <trkpt lat="45.46059" lon="5.82049">
        <ele>754.59997558594</ele>
        <time>2019-10-08T15:27:33Z</time>
      </trkpt>
      <trkpt lat="45.46071" lon="5.82055">
        <ele>756</ele>
        <time>2019-10-08T15:27:40Z</time>
      </trkpt>
      <trkpt lat="45.46098" lon="5.82068">
        <ele>758</ele>
        <time>2019-10-08T15:27:55Z</time>
      </trkpt>
      <trkpt lat="45.4611" lon="5.82075">
        <ele>759.20001220703</ele>
        <time>2019-10-08T15:28:03Z</time>
      </trkpt>
      <trkpt lat="45.46125" lon="5.82083">
        <ele>760.79998779297</ele>
        <time>2019-10-08T15:28:13Z</time>
      </trkpt>
      <trkpt lat="45.46142" lon="5.82092">
        <ele>762.40002441406</ele>
        <time>2019-10-08T15:28:23Z</time>
      </trkpt>
      <trkpt lat="45.46154" lon="5.82101">
        <ele>764.59997558594</ele>
        <time>2019-10-08T15:28:36Z</time>
      </trkpt>
      <trkpt lat="45.4617" lon="5.82112">
        <ele>766.20001220703</ele>
        <time>2019-10-08T15:28:45Z</time>
      </trkpt>
      <trkpt lat="45.46181" lon="5.82122">
        <ele>767.40002441406</ele>
        <time>2019-10-08T15:28:54Z</time>
      </trkpt>
      <trkpt lat="45.46187" lon="5.82127">
        <ele>768.59997558594</ele>
        <time>2019-10-08T15:29:02Z</time>
      </trkpt>
      <trkpt lat="45.46197" lon="5.82135">
        <ele>769.59997558594</ele>
        <time>2019-10-08T15:29:08Z</time>
      </trkpt>
      <trkpt lat="45.46209" lon="5.82146">
        <ele>770.20001220703</ele>
        <time>2019-10-08T15:29:17Z</time>
      </trkpt>
      <trkpt lat="45.46214" lon="5.82151">
        <ele>771</ele>
        <time>2019-10-08T15:29:21Z</time>
      </trkpt>
      <trkpt lat="45.46221" lon="5.82158">
        <ele>772.20001220703</ele>
        <time>2019-10-08T15:29:28Z</time>
      </trkpt>
      <trkpt lat="45.46228" lon="5.82165">
        <ele>773.20001220703</ele>
        <time>2019-10-08T15:29:33Z</time>
      </trkpt>
      <trkpt lat="45.4622" lon="5.8219">
        <ele>774</ele>
        <time>2019-10-08T15:29:38Z</time>
      </trkpt>
      <trkpt lat="45.46232" lon="5.82204">
        <ele>774.79998779297</ele>
        <time>2019-10-08T15:29:44Z</time>
      </trkpt>
      <trkpt lat="45.46238" lon="5.82215">
        <ele>775.79998779297</ele>
        <time>2019-10-08T15:29:51Z</time>
      </trkpt>
      <trkpt lat="45.46243" lon="5.82219">
        <ele>776.20001220703</ele>
        <time>2019-10-08T15:29:54Z</time>
      </trkpt>
      <trkpt lat="45.46258" lon="5.82201">
        <ele>777.40002441406</ele>
        <time>2019-10-08T15:30:00Z</time>
      </trkpt>
      <trkpt lat="45.46256" lon="5.82228">
        <ele>777.79998779297</ele>
        <time>2019-10-08T15:30:03Z</time>
      </trkpt>
      <trkpt lat="45.46282" lon="5.82228">
        <ele>779.59997558594</ele>
        <time>2019-10-08T15:30:15Z</time>
      </trkpt>
      <trkpt lat="45.46293" lon="5.82241">
        <ele>781</ele>
        <time>2019-10-08T15:30:23Z</time>
      </trkpt>
      <trkpt lat="45.46306" lon="5.82255">
        <ele>782.20001220703</ele>
        <time>2019-10-08T15:30:32Z</time>
      </trkpt>
      <trkpt lat="45.46313" lon="5.82264">
        <ele>783.20001220703</ele>
        <time>2019-10-08T15:30:39Z</time>
      </trkpt>
      <trkpt lat="45.46319" lon="5.82271">
        <ele>784</ele>
        <time>2019-10-08T15:30:45Z</time>
      </trkpt>
      <trkpt lat="45.46334" lon="5.8229">
        <ele>786.20001220703</ele>
        <time>2019-10-08T15:30:57Z</time>
      </trkpt>
      <trkpt lat="45.46344" lon="5.82302">
        <ele>787.40002441406</ele>
        <time>2019-10-08T15:31:04Z</time>
      </trkpt>
      <trkpt lat="45.46343" lon="5.82336">
        <ele>789.20001220703</ele>
        <time>2019-10-08T15:31:15Z</time>
      </trkpt>
      <trkpt lat="45.46352" lon="5.82345">
        <ele>789.59997558594</ele>
        <time>2019-10-08T15:31:19Z</time>
      </trkpt>
      <trkpt lat="45.46381" lon="5.82357">
        <ele>791.59997558594</ele>
        <time>2019-10-08T15:31:31Z</time>
      </trkpt>
      <trkpt lat="45.4639" lon="5.82375">
        <ele>792.59997558594</ele>
        <time>2019-10-08T15:31:37Z</time>
      </trkpt>
      <trkpt lat="45.46403" lon="5.82408">
        <ele>795</ele>
        <time>2019-10-08T15:31:50Z</time>
      </trkpt>
      <trkpt lat="45.46408" lon="5.82424">
        <ele>796.40002441406</ele>
        <time>2019-10-08T15:31:57Z</time>
      </trkpt>
      <trkpt lat="45.46414" lon="5.82453">
        <ele>798.59997558594</ele>
        <time>2019-10-08T15:32:07Z</time>
      </trkpt>
      <trkpt lat="45.46414" lon="5.82469">
        <ele>799.40002441406</ele>
        <time>2019-10-08T15:32:14Z</time>
      </trkpt>
      <trkpt lat="45.46412" lon="5.82481">
        <ele>800.59997558594</ele>
        <time>2019-10-08T15:32:20Z</time>
      </trkpt>
      <trkpt lat="45.46407" lon="5.82501">
        <ele>802.79998779297</ele>
        <time>2019-10-08T15:32:29Z</time>
      </trkpt>
      <trkpt lat="45.46409" lon="5.8255">
        <ele>805</ele>
        <time>2019-10-08T15:32:44Z</time>
      </trkpt>
      <trkpt lat="45.46414" lon="5.82596">
        <ele>807.20001220703</ele>
        <time>2019-10-08T15:32:59Z</time>
      </trkpt>
      <trkpt lat="45.46418" lon="5.82618">
        <ele>808.40002441406</ele>
        <time>2019-10-08T15:33:06Z</time>
      </trkpt>
      <trkpt lat="45.46422" lon="5.82642">
        <ele>810.20001220703</ele>
        <time>2019-10-08T15:33:15Z</time>
      </trkpt>
      <trkpt lat="45.46428" lon="5.82658">
        <ele>811</ele>
        <time>2019-10-08T15:33:21Z</time>
      </trkpt>
      <trkpt lat="45.46444" lon="5.82687">
        <ele>812.40002441406</ele>
        <time>2019-10-08T15:33:32Z</time>
      </trkpt>
      <trkpt lat="45.46453" lon="5.82718">
        <ele>814</ele>
        <time>2019-10-08T15:33:42Z</time>
      </trkpt>
      <trkpt lat="45.46438" lon="5.8272">
        <ele>815.59997558594</ele>
        <time>2019-10-08T15:33:49Z</time>
      </trkpt>
      <trkpt lat="45.46423" lon="5.8271">
        <ele>817.20001220703</ele>
        <time>2019-10-08T15:33:57Z</time>
      </trkpt>
      <trkpt lat="45.46403" lon="5.82697">
        <ele>819.20001220703</ele>
        <time>2019-10-08T15:34:09Z</time>
      </trkpt>
      <trkpt lat="45.46399" lon="5.82694">
        <ele>819.79998779297</ele>
        <time>2019-10-08T15:34:12Z</time>
      </trkpt>
      <trkpt lat="45.46396" lon="5.82692">
        <ele>821.20001220703</ele>
        <time>2019-10-08T15:36:04Z</time>
      </trkpt>
      <trkpt lat="45.46385" lon="5.82685">
        <ele>821.20001220703</ele>
        <time>2019-10-08T15:36:12Z</time>
      </trkpt>
      <trkpt lat="45.46376" lon="5.8268">
        <ele>822</ele>
        <time>2019-10-08T15:36:18Z</time>
      </trkpt>
      <trkpt lat="45.46361" lon="5.8267">
        <ele>823.40002441406</ele>
        <time>2019-10-08T15:36:27Z</time>
      </trkpt>
      <trkpt lat="45.46351" lon="5.82663">
        <ele>824.40002441406</ele>
        <time>2019-10-08T15:36:34Z</time>
      </trkpt>
      <trkpt lat="45.46337" lon="5.82658">
        <ele>826.20001220703</ele>
        <time>2019-10-08T15:36:45Z</time>
      </trkpt>
      <trkpt lat="45.46327" lon="5.82654">
        <ele>827.20001220703</ele>
        <time>2019-10-08T15:36:53Z</time>
      </trkpt>
      <trkpt lat="45.46307" lon="5.82647">
        <ele>829</ele>
        <time>2019-10-08T15:37:07Z</time>
      </trkpt>
      <trkpt lat="45.46292" lon="5.8264">
        <ele>830.20001220703</ele>
        <time>2019-10-08T15:37:16Z</time>
      </trkpt>
      <trkpt lat="45.46276" lon="5.82631">
        <ele>831.59997558594</ele>
        <time>2019-10-08T15:37:26Z</time>
      </trkpt>
      <trkpt lat="45.46261" lon="5.82622">
        <ele>833</ele>
        <time>2019-10-08T15:37:37Z</time>
      </trkpt>
      <trkpt lat="45.46244" lon="5.82612">
        <ele>835</ele>
        <time>2019-10-08T15:37:49Z</time>
      </trkpt>
      <trkpt lat="45.46232" lon="5.82606">
        <ele>836.40002441406</ele>
        <time>2019-10-08T15:37:58Z</time>
      </trkpt>
      <trkpt lat="45.46209" lon="5.82596">
        <ele>839</ele>
        <time>2019-10-08T15:38:13Z</time>
      </trkpt>
      <trkpt lat="45.46199" lon="5.82595">
        <ele>840</ele>
        <time>2019-10-08T15:38:20Z</time>
      </trkpt>
      <trkpt lat="45.46182" lon="5.82594">
        <ele>841.40002441406</ele>
        <time>2019-10-08T15:38:32Z</time>
      </trkpt>
      <trkpt lat="45.46166" lon="5.82591">
        <ele>842.59997558594</ele>
        <time>2019-10-08T15:38:43Z</time>
      </trkpt>
      <trkpt lat="45.4615" lon="5.82589">
        <ele>845</ele>
        <time>2019-10-08T15:38:55Z</time>
      </trkpt>
      <trkpt lat="45.46137" lon="5.82587">
        <ele>846.40002441406</ele>
        <time>2019-10-08T15:39:05Z</time>
      </trkpt>
      <trkpt lat="45.46125" lon="5.82584">
        <ele>847.40002441406</ele>
        <time>2019-10-08T15:39:13Z</time>
      </trkpt>
      <trkpt lat="45.461" lon="5.82568">
        <ele>849</ele>
        <time>2019-10-08T15:39:27Z</time>
      </trkpt>
      <trkpt lat="45.46087" lon="5.82558">
        <ele>850.59997558594</ele>
        <time>2019-10-08T15:39:35Z</time>
      </trkpt>
      <trkpt lat="45.46079" lon="5.82549">
        <ele>852.20001220703</ele>
        <time>2019-10-08T15:39:43Z</time>
      </trkpt>
      <trkpt lat="45.46066" lon="5.82532">
        <ele>853.79998779297</ele>
        <time>2019-10-08T15:39:54Z</time>
      </trkpt>
      <trkpt lat="45.46049" lon="5.82512">
        <ele>855.59997558594</ele>
        <time>2019-10-08T15:40:08Z</time>
      </trkpt>
      <trkpt lat="45.46042" lon="5.82502">
        <ele>856.40002441406</ele>
        <time>2019-10-08T15:40:15Z</time>
      </trkpt>
      <trkpt lat="45.46029" lon="5.82488">
        <ele>858</ele>
        <time>2019-10-08T15:40:26Z</time>
      </trkpt>
      <trkpt lat="45.46015" lon="5.82476">
        <ele>860</ele>
        <time>2019-10-08T15:40:37Z</time>
      </trkpt>
      <trkpt lat="45.46005" lon="5.82474">
        <ele>861</ele>
        <time>2019-10-08T15:40:45Z</time>
      </trkpt>
      <trkpt lat="45.4599" lon="5.82471">
        <ele>862.40002441406</ele>
        <time>2019-10-08T15:40:56Z</time>
      </trkpt>
      <trkpt lat="45.45974" lon="5.82469">
        <ele>863.59997558594</ele>
        <time>2019-10-08T15:41:06Z</time>
      </trkpt>
      <trkpt lat="45.45961" lon="5.82466">
        <ele>866</ele>
        <time>2019-10-08T15:48:10Z</time>
      </trkpt>
      <trkpt lat="45.45951" lon="5.82462">
        <ele>866.59997558594</ele>
        <time>2019-10-08T15:48:20Z</time>
      </trkpt>
      <trkpt lat="45.45933" lon="5.8245">
        <ele>868.40002441406</ele>
        <time>2019-10-08T15:48:35Z</time>
      </trkpt>
      <trkpt lat="45.45925" lon="5.82444">
        <ele>869</ele>
        <time>2019-10-08T15:48:42Z</time>
      </trkpt>
      <trkpt lat="45.45913" lon="5.82433">
        <ele>870.40002441406</ele>
        <time>2019-10-08T15:48:51Z</time>
      </trkpt>
      <trkpt lat="45.45908" lon="5.82428">
        <ele>871.40002441406</ele>
        <time>2019-10-08T15:48:58Z</time>
      </trkpt>
      <trkpt lat="45.45893" lon="5.82415">
        <ele>873.20001220703</ele>
        <time>2019-10-08T15:49:10Z</time>
      </trkpt>
      <trkpt lat="45.45884" lon="5.82409">
        <ele>874.40002441406</ele>
        <time>2019-10-08T15:49:18Z</time>
      </trkpt>
      <trkpt lat="45.45871" lon="5.824">
        <ele>875.79998779297</ele>
        <time>2019-10-08T15:49:28Z</time>
      </trkpt>
      <trkpt lat="45.45861" lon="5.82394">
        <ele>876.79998779297</ele>
        <time>2019-10-08T15:49:36Z</time>
      </trkpt>
      <trkpt lat="45.4585" lon="5.82387">
        <ele>878.40002441406</ele>
        <time>2019-10-08T15:49:45Z</time>
      </trkpt>
      <trkpt lat="45.45827" lon="5.82371">
        <ele>880.59997558594</ele>
        <time>2019-10-08T15:50:03Z</time>
      </trkpt>
      <trkpt lat="45.45818" lon="5.82365">
        <ele>881.40002441406</ele>
        <time>2019-10-08T15:50:09Z</time>
      </trkpt>
      <trkpt lat="45.45804" lon="5.82354">
        <ele>883.59997558594</ele>
        <time>2019-10-08T15:50:23Z</time>
      </trkpt>
      <trkpt lat="45.45797" lon="5.82349">
        <ele>884.40002441406</ele>
        <time>2019-10-08T15:50:30Z</time>
      </trkpt>
      <trkpt lat="45.45776" lon="5.82339">
        <ele>887</ele>
        <time>2019-10-08T15:50:45Z</time>
      </trkpt>
      <trkpt lat="45.45768" lon="5.82335">
        <ele>887.79998779297</ele>
        <time>2019-10-08T15:50:53Z</time>
      </trkpt>
      <trkpt lat="45.45747" lon="5.82321">
        <ele>889.59997558594</ele>
        <time>2019-10-08T15:51:06Z</time>
      </trkpt>
      <trkpt lat="45.45739" lon="5.82313">
        <ele>890.40002441406</ele>
        <time>2019-10-08T15:51:12Z</time>
      </trkpt>
      <trkpt lat="45.45725" lon="5.82299">
        <ele>892</ele>
        <time>2019-10-08T15:51:23Z</time>
      </trkpt>
      <trkpt lat="45.45714" lon="5.82287">
        <ele>893.40002441406</ele>
        <time>2019-10-08T15:51:31Z</time>
      </trkpt>
      <trkpt lat="45.45697" lon="5.82265">
        <ele>896.20001220703</ele>
        <time>2019-10-08T15:51:48Z</time>
      </trkpt>
      <trkpt lat="45.45691" lon="5.82253">
        <ele>897.20001220703</ele>
        <time>2019-10-08T15:51:56Z</time>
      </trkpt>
      <trkpt lat="45.45686" lon="5.82243">
        <ele>898.20001220703</ele>
        <time>2019-10-08T15:52:03Z</time>
      </trkpt>
      <trkpt lat="45.45659" lon="5.82217">
        <ele>900.79998779297</ele>
        <time>2019-10-08T15:52:21Z</time>
      </trkpt>
      <trkpt lat="45.45648" lon="5.82209">
        <ele>901.79998779297</ele>
        <time>2019-10-08T15:52:29Z</time>
      </trkpt>
      <trkpt lat="45.45632" lon="5.822">
        <ele>903.20001220703</ele>
        <time>2019-10-08T15:52:41Z</time>
      </trkpt>
      <trkpt lat="45.45621" lon="5.82194">
        <ele>904.79998779297</ele>
        <time>2019-10-08T15:52:50Z</time>
      </trkpt>
      <trkpt lat="45.45604" lon="5.82182">
        <ele>906.59997558594</ele>
        <time>2019-10-08T15:53:02Z</time>
      </trkpt>
      <trkpt lat="45.45592" lon="5.82171">
        <ele>908</ele>
        <time>2019-10-08T15:53:10Z</time>
      </trkpt>
      <trkpt lat="45.4557" lon="5.82146">
        <ele>910.20001220703</ele>
        <time>2019-10-08T15:53:26Z</time>
      </trkpt>
      <trkpt lat="45.45559" lon="5.82132">
        <ele>911.59997558594</ele>
        <time>2019-10-08T15:53:37Z</time>
      </trkpt>
      <trkpt lat="45.45543" lon="5.82114">
        <ele>913.40002441406</ele>
        <time>2019-10-08T15:53:49Z</time>
      </trkpt>
      <trkpt lat="45.45534" lon="5.82102">
        <ele>914.79998779297</ele>
        <time>2019-10-08T15:53:58Z</time>
      </trkpt>
      <trkpt lat="45.45515" lon="5.82086">
        <ele>916.79998779297</ele>
        <time>2019-10-08T15:54:11Z</time>
      </trkpt>
      <trkpt lat="45.45494" lon="5.82068">
        <ele>918.79998779297</ele>
        <time>2019-10-08T15:54:26Z</time>
      </trkpt>
      <trkpt lat="45.45482" lon="5.82057">
        <ele>921.40002441406</ele>
        <time>2019-10-08T15:55:13Z</time>
      </trkpt>
      <trkpt lat="45.45479" lon="5.82055">
        <ele>921.59997558594</ele>
        <time>2019-10-08T15:55:16Z</time>
      </trkpt>
      <trkpt lat="45.45465" lon="5.82045">
        <ele>922.40002441406</ele>
        <time>2019-10-08T15:55:27Z</time>
      </trkpt>
      <trkpt lat="45.45442" lon="5.82029">
        <ele>924.40002441406</ele>
        <time>2019-10-08T15:55:42Z</time>
      </trkpt>
      <trkpt lat="45.45439" lon="5.82027">
        <ele>924.79998779297</ele>
        <time>2019-10-08T15:55:45Z</time>
      </trkpt>
      <trkpt lat="45.45412" lon="5.82016">
        <ele>927.20001220703</ele>
        <time>2019-10-08T15:56:01Z</time>
      </trkpt>
      <trkpt lat="45.45393" lon="5.82005">
        <ele>928.59997558594</ele>
        <time>2019-10-08T15:56:14Z</time>
      </trkpt>
      <trkpt lat="45.45375" lon="5.8199">
        <ele>930.59997558594</ele>
        <time>2019-10-08T15:56:27Z</time>
      </trkpt>
      <trkpt lat="45.45366" lon="5.81977">
        <ele>932.20001220703</ele>
        <time>2019-10-08T15:56:36Z</time>
      </trkpt>
      <trkpt lat="45.45347" lon="5.81947">
        <ele>934.40002441406</ele>
        <time>2019-10-08T15:56:51Z</time>
      </trkpt>
      <trkpt lat="45.45339" lon="5.81935">
        <ele>935.40002441406</ele>
        <time>2019-10-08T15:56:58Z</time>
      </trkpt>
      <trkpt lat="45.45324" lon="5.81917">
        <ele>937</ele>
        <time>2019-10-08T15:57:11Z</time>
      </trkpt>
      <trkpt lat="45.45315" lon="5.81907">
        <ele>937.79998779297</ele>
        <time>2019-10-08T15:57:17Z</time>
      </trkpt>
      <trkpt lat="45.45288" lon="5.81887">
        <ele>939.79998779297</ele>
        <time>2019-10-08T15:57:32Z</time>
      </trkpt>
      <trkpt lat="45.45274" lon="5.81877">
        <ele>940.59997558594</ele>
        <time>2019-10-08T15:57:40Z</time>
      </trkpt>
      <trkpt lat="45.45259" lon="5.81867">
        <ele>942</ele>
        <time>2019-10-08T15:57:48Z</time>
      </trkpt>
      <trkpt lat="45.45237" lon="5.81848">
        <ele>944</ele>
        <time>2019-10-08T15:58:03Z</time>
      </trkpt>
      <trkpt lat="45.45221" lon="5.81832">
        <ele>945.59997558594</ele>
        <time>2019-10-08T15:58:13Z</time>
      </trkpt>
      <trkpt lat="45.45191" lon="5.818">
        <ele>947.79998779297</ele>
        <time>2019-10-08T15:58:31Z</time>
      </trkpt>
      <trkpt lat="45.4518" lon="5.81787">
        <ele>948.59997558594</ele>
        <time>2019-10-08T15:58:39Z</time>
      </trkpt>
      <trkpt lat="45.45166" lon="5.8177">
        <ele>950</ele>
        <time>2019-10-08T15:58:49Z</time>
      </trkpt>
      <trkpt lat="45.45151" lon="5.81751">
        <ele>951</ele>
        <time>2019-10-08T15:58:59Z</time>
      </trkpt>
      <trkpt lat="45.45132" lon="5.81729">
        <ele>953</ele>
        <time>2019-10-08T15:59:13Z</time>
      </trkpt>
      <trkpt lat="45.45119" lon="5.81714">
        <ele>954</ele>
        <time>2019-10-08T15:59:21Z</time>
      </trkpt>
      <trkpt lat="45.45101" lon="5.81697">
        <ele>955.20001220703</ele>
        <time>2019-10-08T15:59:31Z</time>
      </trkpt>
      <trkpt lat="45.45086" lon="5.81686">
        <ele>956.40002441406</ele>
        <time>2019-10-08T15:59:40Z</time>
      </trkpt>
      <trkpt lat="45.45067" lon="5.81676">
        <ele>958.59997558594</ele>
        <time>2019-10-08T15:59:54Z</time>
      </trkpt>
      <trkpt lat="45.45053" lon="5.81669">
        <ele>960</ele>
        <time>2019-10-08T16:00:04Z</time>
      </trkpt>
      <trkpt lat="45.45038" lon="5.81662">
        <ele>961</ele>
        <time>2019-10-08T16:00:14Z</time>
      </trkpt>
      <trkpt lat="45.45018" lon="5.81652">
        <ele>963</ele>
        <time>2019-10-08T16:00:27Z</time>
      </trkpt>
      <trkpt lat="45.44993" lon="5.81639">
        <ele>965.59997558594</ele>
        <time>2019-10-08T16:00:45Z</time>
      </trkpt>
      <trkpt lat="45.44978" lon="5.8163">
        <ele>966.79998779297</ele>
        <time>2019-10-08T16:00:54Z</time>
      </trkpt>
      <trkpt lat="45.44966" lon="5.81623">
        <ele>967.79998779297</ele>
        <time>2019-10-08T16:01:02Z</time>
      </trkpt>
      <trkpt lat="45.4495" lon="5.81614">
        <ele>969.40002441406</ele>
        <time>2019-10-08T16:01:11Z</time>
      </trkpt>
      <trkpt lat="45.44939" lon="5.81608">
        <ele>970.59997558594</ele>
        <time>2019-10-08T16:01:18Z</time>
      </trkpt>
      <trkpt lat="45.44903" lon="5.81588">
        <ele>973.59997558594</ele>
        <time>2019-10-08T16:01:36Z</time>
      </trkpt>
      <trkpt lat="45.44887" lon="5.81579">
        <ele>974.59997558594</ele>
        <time>2019-10-08T16:01:44Z</time>
      </trkpt>
      <trkpt lat="45.44856" lon="5.81565">
        <ele>976.59997558594</ele>
        <time>2019-10-08T16:01:57Z</time>
      </trkpt>
      <trkpt lat="45.44838" lon="5.81558">
        <ele>977.59997558594</ele>
        <time>2019-10-08T16:02:05Z</time>
      </trkpt>
      <trkpt lat="45.44808" lon="5.81547">
        <ele>979</ele>
        <time>2019-10-08T16:02:18Z</time>
      </trkpt>
      <trkpt lat="45.44784" lon="5.81534">
        <ele>980</ele>
        <time>2019-10-08T16:02:27Z</time>
      </trkpt>
      <trkpt lat="45.44742" lon="5.81491">
        <ele>981.40002441406</ele>
        <time>2019-10-08T16:02:44Z</time>
      </trkpt>
      <trkpt lat="45.4473" lon="5.81476">
        <ele>981.59997558594</ele>
        <time>2019-10-08T16:02:49Z</time>
      </trkpt>
      <trkpt lat="45.44705" lon="5.81443">
        <ele>981.79998779297</ele>
        <time>2019-10-08T16:02:58Z</time>
      </trkpt>
      <trkpt lat="45.44674" lon="5.81402">
        <ele>982</ele>
        <time>2019-10-08T16:03:09Z</time>
      </trkpt>
      <trkpt lat="45.44651" lon="5.81374">
        <ele>982.59997558594</ele>
        <time>2019-10-08T16:03:18Z</time>
      </trkpt>
      <trkpt lat="45.44622" lon="5.81341">
        <ele>983.59997558594</ele>
        <time>2019-10-08T16:03:28Z</time>
      </trkpt>
      <trkpt lat="45.44577" lon="5.81299">
        <ele>984.59997558594</ele>
        <time>2019-10-08T16:03:44Z</time>
      </trkpt>
      <trkpt lat="45.44508" lon="5.81248">
        <ele>985.59997558594</ele>
        <time>2019-10-08T16:04:06Z</time>
      </trkpt>
      <trkpt lat="45.44486" lon="5.81231">
        <ele>986.20001220703</ele>
        <time>2019-10-08T16:04:13Z</time>
      </trkpt>
      <trkpt lat="45.44432" lon="5.81191">
        <ele>987</ele>
        <time>2019-10-08T16:04:30Z</time>
      </trkpt>
      <trkpt lat="45.4442" lon="5.81182">
        <ele>987.40002441406</ele>
        <time>2019-10-08T16:04:37Z</time>
      </trkpt>
      <trkpt lat="45.44413" lon="5.81177">
        <ele>987.79998779297</ele>
        <time>2019-10-08T16:05:19Z</time>
      </trkpt>
      <trkpt lat="45.44402" lon="5.81169">
        <ele>988</ele>
        <time>2019-10-08T16:05:25Z</time>
      </trkpt>
      <trkpt lat="45.44367" lon="5.81135">
        <ele>988.20001220703</ele>
        <time>2019-10-08T16:05:37Z</time>
      </trkpt>
      <trkpt lat="45.44333" lon="5.81108">
        <ele>987.79998779297</ele>
        <time>2019-10-08T16:05:47Z</time>
      </trkpt>
      <trkpt lat="45.44294" lon="5.81089">
        <ele>986.79998779297</ele>
        <time>2019-10-08T16:05:55Z</time>
      </trkpt>
      <trkpt lat="45.4425" lon="5.81068">
        <ele>985.40002441406</ele>
        <time>2019-10-08T16:06:02Z</time>
      </trkpt>
      <trkpt lat="45.44214" lon="5.81052">
        <ele>983.40002441406</ele>
        <time>2019-10-08T16:06:08Z</time>
      </trkpt>
      <trkpt lat="45.44182" lon="5.81042">
        <ele>981.20001220703</ele>
        <time>2019-10-08T16:06:13Z</time>
      </trkpt>
      <trkpt lat="45.44152" lon="5.81032">
        <ele>978.79998779297</ele>
        <time>2019-10-08T16:06:17Z</time>
      </trkpt>
      <trkpt lat="45.44116" lon="5.81024">
        <ele>976.20001220703</ele>
        <time>2019-10-08T16:06:22Z</time>
      </trkpt>
      <trkpt lat="45.44093" lon="5.8102">
        <ele>974.59997558594</ele>
        <time>2019-10-08T16:06:25Z</time>
      </trkpt>
      <trkpt lat="45.4405" lon="5.81012">
        <ele>971</ele>
        <time>2019-10-08T16:06:32Z</time>
      </trkpt>
      <trkpt lat="45.44038" lon="5.81009">
        <ele>969.20001220703</ele>
        <time>2019-10-08T16:06:35Z</time>
      </trkpt>
      <trkpt lat="45.44025" lon="5.81004">
        <ele>964.40002441406</ele>
        <time>2019-10-08T16:06:43Z</time>
      </trkpt>
      <trkpt lat="45.44024" lon="5.81003">
        <ele>962</ele>
        <time>2019-10-08T16:07:20Z</time>
      </trkpt>
      <trkpt lat="45.44014" lon="5.81">
        <ele>962</ele>
        <time>2019-10-08T16:07:24Z</time>
      </trkpt>
      <trkpt lat="45.43996" lon="5.80991">
        <ele>961.79998779297</ele>
        <time>2019-10-08T16:07:28Z</time>
      </trkpt>
      <trkpt lat="45.43969" lon="5.80978">
        <ele>961.20001220703</ele>
        <time>2019-10-08T16:07:32Z</time>
      </trkpt>
      <trkpt lat="45.43934" lon="5.80966">
        <ele>959.59997558594</ele>
        <time>2019-10-08T16:07:36Z</time>
      </trkpt>
      <trkpt lat="45.43909" lon="5.80961">
        <ele>958.20001220703</ele>
        <time>2019-10-08T16:07:39Z</time>
      </trkpt>
      <trkpt lat="45.43874" lon="5.80959">
        <ele>955</ele>
        <time>2019-10-08T16:07:43Z</time>
      </trkpt>
      <trkpt lat="45.43849" lon="5.80961">
        <ele>953.40002441406</ele>
        <time>2019-10-08T16:07:46Z</time>
      </trkpt>
      <trkpt lat="45.438" lon="5.80965">
        <ele>949</ele>
        <time>2019-10-08T16:07:52Z</time>
      </trkpt>
      <trkpt lat="45.43773" lon="5.80967">
        <ele>947.20001220703</ele>
        <time>2019-10-08T16:07:55Z</time>
      </trkpt>
      <trkpt lat="45.43741" lon="5.80949">
        <ele>944.59997558594</ele>
        <time>2019-10-08T16:07:59Z</time>
      </trkpt>
      <trkpt lat="45.43711" lon="5.80936">
        <ele>941.79998779297</ele>
        <time>2019-10-08T16:08:03Z</time>
      </trkpt>
      <trkpt lat="45.43683" lon="5.80942">
        <ele>939</ele>
        <time>2019-10-08T16:08:07Z</time>
      </trkpt>
      <trkpt lat="45.43667" lon="5.80946">
        <ele>938</ele>
        <time>2019-10-08T16:08:09Z</time>
      </trkpt>
      <trkpt lat="45.43602" lon="5.8094">
        <ele>934.20001220703</ele>
        <time>2019-10-08T16:08:17Z</time>
      </trkpt>
      <trkpt lat="45.43572" lon="5.80932">
        <ele>931.79998779297</ele>
        <time>2019-10-08T16:08:21Z</time>
      </trkpt>
      <trkpt lat="45.43544" lon="5.80924">
        <ele>929.20001220703</ele>
        <time>2019-10-08T16:08:25Z</time>
      </trkpt>
      <trkpt lat="45.43524" lon="5.80942">
        <ele>926.79998779297</ele>
        <time>2019-10-08T16:08:29Z</time>
      </trkpt>
      <trkpt lat="45.43503" lon="5.80975">
        <ele>925</ele>
        <time>2019-10-08T16:08:33Z</time>
      </trkpt>
      <trkpt lat="45.43486" lon="5.81018">
        <ele>922.40002441406</ele>
        <time>2019-10-08T16:08:38Z</time>
      </trkpt>
      <trkpt lat="45.43486" lon="5.81041">
        <ele>921.40002441406</ele>
        <time>2019-10-08T16:08:40Z</time>
      </trkpt>
      <trkpt lat="45.43494" lon="5.8108">
        <ele>919</ele>
        <time>2019-10-08T16:08:44Z</time>
      </trkpt>
      <trkpt lat="45.43513" lon="5.81099">
        <ele>917.40002441406</ele>
        <time>2019-10-08T16:08:47Z</time>
      </trkpt>
      <trkpt lat="45.43541" lon="5.81121">
        <ele>916</ele>
        <time>2019-10-08T16:08:50Z</time>
      </trkpt>
      <trkpt lat="45.43554" lon="5.81158">
        <ele>914</ele>
        <time>2019-10-08T16:08:53Z</time>
      </trkpt>
      <trkpt lat="45.43559" lon="5.81179">
        <ele>907.59997558594</ele>
        <time>2019-10-08T16:09:27Z</time>
      </trkpt>
      <trkpt lat="45.43561" lon="5.81194">
        <ele>907.59997558594</ele>
        <time>2019-10-08T16:09:31Z</time>
      </trkpt>
      <trkpt lat="45.43552" lon="5.81218">
        <ele>907.59997558594</ele>
        <time>2019-10-08T16:09:35Z</time>
      </trkpt>
      <trkpt lat="45.43528" lon="5.81228">
        <ele>907.20001220703</ele>
        <time>2019-10-08T16:09:39Z</time>
      </trkpt>
      <trkpt lat="45.43511" lon="5.81227">
        <ele>906.79998779297</ele>
        <time>2019-10-08T16:09:42Z</time>
      </trkpt>
      <trkpt lat="45.43501" lon="5.81232">
        <ele>906.40002441406</ele>
        <time>2019-10-08T16:09:44Z</time>
      </trkpt>
      <trkpt lat="45.43501" lon="5.81247">
        <ele>905.79998779297</ele>
        <time>2019-10-08T16:09:46Z</time>
      </trkpt>
      <trkpt lat="45.43499" lon="5.81291">
        <ele>903.20001220703</ele>
        <time>2019-10-08T16:09:52Z</time>
      </trkpt>
      <trkpt lat="45.43503" lon="5.81313">
        <ele>902</ele>
        <time>2019-10-08T16:09:55Z</time>
      </trkpt>
      <trkpt lat="45.43522" lon="5.81338">
        <ele>899.59997558594</ele>
        <time>2019-10-08T16:09:59Z</time>
      </trkpt>
      <trkpt lat="45.43543" lon="5.81373">
        <ele>898</ele>
        <time>2019-10-08T16:10:04Z</time>
      </trkpt>
      <trkpt lat="45.43559" lon="5.81415">
        <ele>896.59997558594</ele>
        <time>2019-10-08T16:10:10Z</time>
      </trkpt>
      <trkpt lat="45.43559" lon="5.81423">
        <ele>896.20001220703</ele>
        <time>2019-10-08T16:10:12Z</time>
      </trkpt>
      <trkpt lat="45.43554" lon="5.81459">
        <ele>894.79998779297</ele>
        <time>2019-10-08T16:10:20Z</time>
      </trkpt>
      <trkpt lat="45.43549" lon="5.81474">
        <ele>894.79998779297</ele>
        <time>2019-10-08T16:10:55Z</time>
      </trkpt>
      <trkpt lat="45.43534" lon="5.81494">
        <ele>895</ele>
        <time>2019-10-08T16:11:02Z</time>
      </trkpt>
      <trkpt lat="45.43518" lon="5.81511">
        <ele>896</ele>
        <time>2019-10-08T16:11:07Z</time>
      </trkpt>
      <trkpt lat="45.43494" lon="5.81563">
        <ele>897.40002441406</ele>
        <time>2019-10-08T16:11:16Z</time>
      </trkpt>
      <trkpt lat="45.4351" lon="5.81597">
        <ele>898</ele>
        <time>2019-10-08T16:11:26Z</time>
      </trkpt>
      <trkpt lat="45.43512" lon="5.81629">
        <ele>898.40002441406</ele>
        <time>2019-10-08T16:11:33Z</time>
      </trkpt>
      <trkpt lat="45.43489" lon="5.8164">
        <ele>898.79998779297</ele>
        <time>2019-10-08T16:11:40Z</time>
      </trkpt>
      <trkpt lat="45.43476" lon="5.81638">
        <ele>899</ele>
        <time>2019-10-08T16:11:44Z</time>
      </trkpt>
      <trkpt lat="45.43439" lon="5.81628">
        <ele>898.79998779297</ele>
        <time>2019-10-08T16:11:52Z</time>
      </trkpt>
      <trkpt lat="45.43424" lon="5.8162">
        <ele>898.59997558594</ele>
        <time>2019-10-08T16:11:55Z</time>
      </trkpt>
      <trkpt lat="45.43396" lon="5.81615">
        <ele>898.40002441406</ele>
        <time>2019-10-08T16:12:02Z</time>
      </trkpt>
      <trkpt lat="45.43381" lon="5.81625">
        <ele>898</ele>
        <time>2019-10-08T16:12:06Z</time>
      </trkpt>
      <trkpt lat="45.43361" lon="5.81647">
        <ele>898</ele>
        <time>2019-10-08T16:12:11Z</time>
      </trkpt>
      <trkpt lat="45.4333" lon="5.8162">
        <ele>897.20001220703</ele>
        <time>2019-10-08T16:12:17Z</time>
      </trkpt>
      <trkpt lat="45.43305" lon="5.81625">
        <ele>897</ele>
        <time>2019-10-08T16:12:21Z</time>
      </trkpt>
      <trkpt lat="45.43297" lon="5.81637">
        <ele>897</ele>
        <time>2019-10-08T16:12:23Z</time>
      </trkpt>
      <trkpt lat="45.43263" lon="5.81667">
        <ele>896.79998779297</ele>
        <time>2019-10-08T16:12:32Z</time>
      </trkpt>
      <trkpt lat="45.4325" lon="5.81666">
        <ele>896.59997558594</ele>
        <time>2019-10-08T16:12:35Z</time>
      </trkpt>
      <trkpt lat="45.43226" lon="5.81628">
        <ele>896</ele>
        <time>2019-10-08T16:12:41Z</time>
      </trkpt>
      <trkpt lat="45.43208" lon="5.81636">
        <ele>896</ele>
        <time>2019-10-08T16:12:45Z</time>
      </trkpt>
      <trkpt lat="45.43196" lon="5.81649">
        <ele>895.59997558594</ele>
        <time>2019-10-08T16:12:48Z</time>
      </trkpt>
      <trkpt lat="45.43143" lon="5.81737">
        <ele>895</ele>
        <time>2019-10-08T16:13:03Z</time>
      </trkpt>
      <trkpt lat="45.43108" lon="5.81798">
        <ele>894.40002441406</ele>
        <time>2019-10-08T16:13:12Z</time>
      </trkpt>
      <trkpt lat="45.43049" lon="5.81898">
        <ele>893.40002441406</ele>
        <time>2019-10-08T16:13:29Z</time>
      </trkpt>
      <trkpt lat="45.43023" lon="5.81915">
        <ele>893</ele>
        <time>2019-10-08T16:13:33Z</time>
      </trkpt>
      <trkpt lat="45.43004" lon="5.81943">
        <ele>892.40002441406</ele>
        <time>2019-10-08T16:13:39Z</time>
      </trkpt>
      <trkpt lat="45.42984" lon="5.82015">
        <ele>892</ele>
        <time>2019-10-08T16:13:48Z</time>
      </trkpt>
      <trkpt lat="45.42966" lon="5.82052">
        <ele>892</ele>
        <time>2019-10-08T16:13:54Z</time>
      </trkpt>
      <trkpt lat="45.42952" lon="5.82067">
        <ele>891.40002441406</ele>
        <time>2019-10-08T16:13:57Z</time>
      </trkpt>
      <trkpt lat="45.42925" lon="5.82092">
        <ele>890.40002441406</ele>
        <time>2019-10-08T16:14:03Z</time>
      </trkpt>
      <trkpt lat="45.42915" lon="5.82108">
        <ele>890.20001220703</ele>
        <time>2019-10-08T16:14:06Z</time>
      </trkpt>
      <trkpt lat="45.4289" lon="5.82157">
        <ele>890.20001220703</ele>
        <time>2019-10-08T16:14:13Z</time>
      </trkpt>
      <trkpt lat="45.4289" lon="5.82192">
        <ele>887.79998779297</ele>
        <time>2019-10-08T16:14:18Z</time>
      </trkpt>
      <trkpt lat="45.42906" lon="5.82228">
        <ele>886.40002441406</ele>
        <time>2019-10-08T16:14:22Z</time>
      </trkpt>
      <trkpt lat="45.42907" lon="5.82255">
        <ele>884.59997558594</ele>
        <time>2019-10-08T16:14:26Z</time>
      </trkpt>
      <trkpt lat="45.42907" lon="5.8228">
        <ele>881.59997558594</ele>
        <time>2019-10-08T16:14:31Z</time>
      </trkpt>
      <trkpt lat="45.42907" lon="5.823">
        <ele>879.40002441406</ele>
        <time>2019-10-08T16:14:39Z</time>
      </trkpt>
      <trkpt lat="45.42907" lon="5.823">
        <ele>877.40002441406</ele>
        <time>2019-10-08T16:15:09Z</time>
      </trkpt>
      <trkpt lat="45.42909" lon="5.82327">
        <ele>877.20001220703</ele>
        <time>2019-10-08T16:15:14Z</time>
      </trkpt>
      <trkpt lat="45.42911" lon="5.82369">
        <ele>876.59997558594</ele>
        <time>2019-10-08T16:15:20Z</time>
      </trkpt>
      <trkpt lat="45.4291" lon="5.82412">
        <ele>875</ele>
        <time>2019-10-08T16:15:26Z</time>
      </trkpt>
      <trkpt lat="45.4291" lon="5.8244">
        <ele>873.20001220703</ele>
        <time>2019-10-08T16:15:31Z</time>
      </trkpt>
      <trkpt lat="45.42924" lon="5.82467">
        <ele>872.20001220703</ele>
        <time>2019-10-08T16:15:35Z</time>
      </trkpt>
      <trkpt lat="45.42965" lon="5.82512">
        <ele>870.59997558594</ele>
        <time>2019-10-08T16:15:46Z</time>
      </trkpt>
      <trkpt lat="45.4298" lon="5.82526">
        <ele>870.59997558594</ele>
        <time>2019-10-08T16:15:51Z</time>
      </trkpt>
      <trkpt lat="45.43001" lon="5.82543">
        <ele>871.40002441406</ele>
        <time>2019-10-08T16:15:58Z</time>
      </trkpt>
      <trkpt lat="45.43032" lon="5.82562">
        <ele>871.40002441406</ele>
        <time>2019-10-08T16:16:05Z</time>
      </trkpt>
      <trkpt lat="45.43046" lon="5.82577">
        <ele>870.59997558594</ele>
        <time>2019-10-08T16:16:12Z</time>
      </trkpt>
      <trkpt lat="45.43053" lon="5.82584">
        <ele>869.40002441406</ele>
        <time>2019-10-08T16:17:07Z</time>
      </trkpt>
      <trkpt lat="45.43062" lon="5.82606">
        <ele>869.20001220703</ele>
        <time>2019-10-08T16:17:12Z</time>
      </trkpt>
      <trkpt lat="45.43067" lon="5.8262">
        <ele>869.20001220703</ele>
        <time>2019-10-08T16:17:14Z</time>
      </trkpt>
      <trkpt lat="45.43081" lon="5.82656">
        <ele>868.59997558594</ele>
        <time>2019-10-08T16:17:19Z</time>
      </trkpt>
      <trkpt lat="45.43098" lon="5.82684">
        <ele>865.79998779297</ele>
        <time>2019-10-08T16:17:23Z</time>
      </trkpt>
      <trkpt lat="45.43123" lon="5.8271">
        <ele>861.79998779297</ele>
        <time>2019-10-08T16:17:28Z</time>
      </trkpt>
      <trkpt lat="45.4314" lon="5.82743">
        <ele>859.79998779297</ele>
        <time>2019-10-08T16:17:33Z</time>
      </trkpt>
      <trkpt lat="45.43179" lon="5.8279">
        <ele>858.20001220703</ele>
        <time>2019-10-08T16:17:40Z</time>
      </trkpt>
      <trkpt lat="45.43198" lon="5.82802">
        <ele>857.20001220703</ele>
        <time>2019-10-08T16:17:44Z</time>
      </trkpt>
      <trkpt lat="45.43221" lon="5.82821">
        <ele>856.79998779297</ele>
        <time>2019-10-08T16:17:48Z</time>
      </trkpt>
      <trkpt lat="45.43243" lon="5.82842">
        <ele>856.59997558594</ele>
        <time>2019-10-08T16:17:51Z</time>
      </trkpt>
      <trkpt lat="45.43269" lon="5.82863">
        <ele>855.40002441406</ele>
        <time>2019-10-08T16:17:54Z</time>
      </trkpt>
      <trkpt lat="45.43311" lon="5.82913">
        <ele>849.79998779297</ele>
        <time>2019-10-08T16:18:01Z</time>
      </trkpt>
      <trkpt lat="45.4332" lon="5.82925">
        <ele>849</ele>
        <time>2019-10-08T16:18:03Z</time>
      </trkpt>
      <trkpt lat="45.43337" lon="5.82944">
        <ele>847</ele>
        <time>2019-10-08T16:18:07Z</time>
      </trkpt>
      <trkpt lat="45.43348" lon="5.82962">
        <ele>845.59997558594</ele>
        <time>2019-10-08T16:18:10Z</time>
      </trkpt>
      <trkpt lat="45.43356" lon="5.82989">
        <ele>844</ele>
        <time>2019-10-08T16:18:14Z</time>
      </trkpt>
      <trkpt lat="45.43356" lon="5.83006">
        <ele>841.59997558594</ele>
        <time>2019-10-08T16:18:17Z</time>
      </trkpt>
      <trkpt lat="45.4332" lon="5.83">
        <ele>838.59997558594</ele>
        <time>2019-10-08T16:18:22Z</time>
      </trkpt>
      <trkpt lat="45.43306" lon="5.82976">
        <ele>835.79998779297</ele>
        <time>2019-10-08T16:18:26Z</time>
      </trkpt>
      <trkpt lat="45.43291" lon="5.82956">
        <ele>833.79998779297</ele>
        <time>2019-10-08T16:18:29Z</time>
      </trkpt>
      <trkpt lat="45.43271" lon="5.82939">
        <ele>832</ele>
        <time>2019-10-08T16:18:32Z</time>
      </trkpt>
      <trkpt lat="45.43223" lon="5.82908">
        <ele>827.59997558594</ele>
        <time>2019-10-08T16:18:38Z</time>
      </trkpt>
      <trkpt lat="45.43204" lon="5.82902">
        <ele>826</ele>
        <time>2019-10-08T16:18:40Z</time>
      </trkpt>
      <trkpt lat="45.43177" lon="5.82894">
        <ele>823.20001220703</ele>
        <time>2019-10-08T16:18:43Z</time>
      </trkpt>
      <trkpt lat="45.43146" lon="5.82885">
        <ele>820.40002441406</ele>
        <time>2019-10-08T16:18:47Z</time>
      </trkpt>
      <trkpt lat="45.43123" lon="5.82879">
        <ele>818.20001220703</ele>
        <time>2019-10-08T16:18:50Z</time>
      </trkpt>
      <trkpt lat="45.43084" lon="5.82882">
        <ele>812.79998779297</ele>
        <time>2019-10-08T16:18:55Z</time>
      </trkpt>
      <trkpt lat="45.43063" lon="5.82883">
        <ele>808.40002441406</ele>
        <time>2019-10-08T16:18:59Z</time>
      </trkpt>
      <trkpt lat="45.43042" lon="5.82868">
        <ele>805.59997558594</ele>
        <time>2019-10-08T16:19:02Z</time>
      </trkpt>
      <trkpt lat="45.4303" lon="5.82855">
        <ele>803.59997558594</ele>
        <time>2019-10-08T16:19:04Z</time>
      </trkpt>
      <trkpt lat="45.43003" lon="5.82832">
        <ele>800.40002441406</ele>
        <time>2019-10-08T16:19:07Z</time>
      </trkpt>
      <trkpt lat="45.42967" lon="5.82805">
        <ele>797.20001220703</ele>
        <time>2019-10-08T16:19:11Z</time>
      </trkpt>
      <trkpt lat="45.42936" lon="5.82785">
        <ele>791.59997558594</ele>
        <time>2019-10-08T16:19:16Z</time>
      </trkpt>
      <trkpt lat="45.42917" lon="5.82775">
        <ele>789.40002441406</ele>
        <time>2019-10-08T16:19:19Z</time>
      </trkpt>
      <trkpt lat="45.42895" lon="5.82765">
        <ele>786.79998779297</ele>
        <time>2019-10-08T16:19:22Z</time>
      </trkpt>
      <trkpt lat="45.4288" lon="5.8276">
        <ele>784.79998779297</ele>
        <time>2019-10-08T16:19:24Z</time>
      </trkpt>
      <trkpt lat="45.42856" lon="5.82754">
        <ele>781.79998779297</ele>
        <time>2019-10-08T16:19:27Z</time>
      </trkpt>
      <trkpt lat="45.42841" lon="5.82749">
        <ele>779.20001220703</ele>
        <time>2019-10-08T16:19:29Z</time>
      </trkpt>
      <trkpt lat="45.42828" lon="5.82746">
        <ele>776</ele>
        <time>2019-10-08T16:19:31Z</time>
      </trkpt>
      <trkpt lat="45.42801" lon="5.8273">
        <ele>770.20001220703</ele>
        <time>2019-10-08T16:19:35Z</time>
      </trkpt>
      <trkpt lat="45.42774" lon="5.82704">
        <ele>765.79998779297</ele>
        <time>2019-10-08T16:19:39Z</time>
      </trkpt>
      <trkpt lat="45.42754" lon="5.82697">
        <ele>761</ele>
        <time>2019-10-08T16:19:43Z</time>
      </trkpt>
      <trkpt lat="45.42732" lon="5.82693">
        <ele>757.20001220703</ele>
        <time>2019-10-08T16:19:47Z</time>
      </trkpt>
      <trkpt lat="45.42709" lon="5.82688">
        <ele>755.20001220703</ele>
        <time>2019-10-08T16:19:50Z</time>
      </trkpt>
      <trkpt lat="45.4269" lon="5.82684">
        <ele>752.59997558594</ele>
        <time>2019-10-08T16:19:53Z</time>
      </trkpt>
      <trkpt lat="45.42668" lon="5.8268">
        <ele>748.79998779297</ele>
        <time>2019-10-08T16:19:57Z</time>
      </trkpt>
      <trkpt lat="45.42649" lon="5.82673">
        <ele>744</ele>
        <time>2019-10-08T16:20:01Z</time>
      </trkpt>
      <trkpt lat="45.42633" lon="5.82686">
        <ele>740.79998779297</ele>
        <time>2019-10-08T16:20:05Z</time>
      </trkpt>
      <trkpt lat="45.42633" lon="5.82699">
        <ele>739.20001220703</ele>
        <time>2019-10-08T16:20:07Z</time>
      </trkpt>
      <trkpt lat="45.42634" lon="5.82739">
        <ele>735.40002441406</ele>
        <time>2019-10-08T16:20:12Z</time>
      </trkpt>
      <trkpt lat="45.42628" lon="5.82752">
        <ele>733.40002441406</ele>
        <time>2019-10-08T16:20:15Z</time>
      </trkpt>
      <trkpt lat="45.42619" lon="5.82755">
        <ele>731.59997558594</ele>
        <time>2019-10-08T16:20:17Z</time>
      </trkpt>
      <trkpt lat="45.42602" lon="5.82765">
        <ele>728.40002441406</ele>
        <time>2019-10-08T16:20:21Z</time>
      </trkpt>
      <trkpt lat="45.42602" lon="5.82773">
        <ele>727.20001220703</ele>
        <time>2019-10-08T16:20:23Z</time>
      </trkpt>
      <trkpt lat="45.42604" lon="5.82775">
        <ele>725.59997558594</ele>
        <time>2019-10-08T16:20:26Z</time>
      </trkpt>
      <trkpt lat="45.42618" lon="5.82775">
        <ele>724</ele>
        <time>2019-10-08T16:20:29Z</time>
      </trkpt>
      <trkpt lat="45.42645" lon="5.82775">
        <ele>721.79998779297</ele>
        <time>2019-10-08T16:20:33Z</time>
      </trkpt>
      <trkpt lat="45.42655" lon="5.82781">
        <ele>720.40002441406</ele>
        <time>2019-10-08T16:20:35Z</time>
      </trkpt>
      <trkpt lat="45.42664" lon="5.828">
        <ele>718.20001220703</ele>
        <time>2019-10-08T16:20:38Z</time>
      </trkpt>
      <trkpt lat="45.42666" lon="5.82822">
        <ele>716</ele>
        <time>2019-10-08T16:20:40Z</time>
      </trkpt>
      <trkpt lat="45.42664" lon="5.82879">
        <ele>712.59997558594</ele>
        <time>2019-10-08T16:20:44Z</time>
      </trkpt>
      <trkpt lat="45.42664" lon="5.82909">
        <ele>710.40002441406</ele>
        <time>2019-10-08T16:20:47Z</time>
      </trkpt>
      <trkpt lat="45.42677" lon="5.82939">
        <ele>704.79998779297</ele>
        <time>2019-10-08T16:20:52Z</time>
      </trkpt>
      <trkpt lat="45.42691" lon="5.82958">
        <ele>704.20001220703</ele>
        <time>2019-10-08T16:20:55Z</time>
      </trkpt>
      <trkpt lat="45.42698" lon="5.82967">
        <ele>704.20001220703</ele>
        <time>2019-10-08T16:20:57Z</time>
      </trkpt>
      <trkpt lat="45.42714" lon="5.82981">
        <ele>703</ele>
        <time>2019-10-08T16:21:00Z</time>
      </trkpt>
      <trkpt lat="45.42723" lon="5.82988">
        <ele>702.20001220703</ele>
        <time>2019-10-08T16:21:02Z</time>
      </trkpt>
      <trkpt lat="45.42737" lon="5.83002">
        <ele>700.40002441406</ele>
        <time>2019-10-08T16:21:05Z</time>
      </trkpt>
      <trkpt lat="45.42744" lon="5.83018">
        <ele>698</ele>
        <time>2019-10-08T16:21:09Z</time>
      </trkpt>
      <trkpt lat="45.42742" lon="5.83032">
        <ele>692.20001220703</ele>
        <time>2019-10-08T16:21:16Z</time>
      </trkpt>
      <trkpt lat="45.42729" lon="5.83041">
        <ele>691.20001220703</ele>
        <time>2019-10-08T16:21:20Z</time>
      </trkpt>
      <trkpt lat="45.4269" lon="5.83055">
        <ele>690.59997558594</ele>
        <time>2019-10-08T16:21:27Z</time>
      </trkpt>
      <trkpt lat="45.42681" lon="5.8306">
        <ele>690.40002441406</ele>
        <time>2019-10-08T16:21:31Z</time>
      </trkpt>
      <trkpt lat="45.42673" lon="5.83065">
        <ele>690.59997558594</ele>
        <time>2019-10-08T16:21:36Z</time>
      </trkpt>
      <trkpt lat="45.42671" lon="5.83068">
        <ele>691.59997558594</ele>
        <time>2019-10-08T16:21:40Z</time>
      </trkpt>
      <trkpt lat="45.42666" lon="5.83084">
        <ele>693.79998779297</ele>
        <time>2019-10-08T16:21:48Z</time>
      </trkpt>
      <trkpt lat="45.42662" lon="5.83096">
        <ele>695</ele>
        <time>2019-10-08T16:21:55Z</time>
      </trkpt>
      <trkpt lat="45.42656" lon="5.83107">
        <ele>695.79998779297</ele>
        <time>2019-10-08T16:22:00Z</time>
      </trkpt>
      <trkpt lat="45.42649" lon="5.83121">
        <ele>697.20001220703</ele>
        <time>2019-10-08T16:22:08Z</time>
      </trkpt>
      <trkpt lat="45.42642" lon="5.83133">
        <ele>699</ele>
        <time>2019-10-08T16:22:17Z</time>
      </trkpt>
      <trkpt lat="45.42628" lon="5.8314">
        <ele>700.40002441406</ele>
        <time>2019-10-08T16:22:27Z</time>
      </trkpt>
      <trkpt lat="45.42621" lon="5.83138">
        <ele>701.40002441406</ele>
        <time>2019-10-08T16:22:33Z</time>
      </trkpt>
      <trkpt lat="45.42617" lon="5.83119">
        <ele>703.79998779297</ele>
        <time>2019-10-08T16:22:44Z</time>
      </trkpt>
      <trkpt lat="45.42616" lon="5.83109">
        <ele>704.40002441406</ele>
        <time>2019-10-08T16:22:50Z</time>
      </trkpt>
      <trkpt lat="45.4261" lon="5.8308">
        <ele>706.59997558594</ele>
        <time>2019-10-08T16:23:05Z</time>
      </trkpt>
      <trkpt lat="45.42604" lon="5.83074">
        <ele>707.59997558594</ele>
        <time>2019-10-08T16:23:12Z</time>
      </trkpt>
      <trkpt lat="45.42586" lon="5.83078">
        <ele>709.79998779297</ele>
        <time>2019-10-08T16:23:25Z</time>
      </trkpt>
      <trkpt lat="45.42579" lon="5.83082">
        <ele>710.79998779297</ele>
        <time>2019-10-08T16:23:31Z</time>
      </trkpt>
      <trkpt lat="45.42569" lon="5.8309">
        <ele>712.79998779297</ele>
        <time>2019-10-08T16:23:42Z</time>
      </trkpt>
      <trkpt lat="45.42563" lon="5.83094">
        <ele>714.20001220703</ele>
        <time>2019-10-08T16:23:49Z</time>
      </trkpt>
      <trkpt lat="45.42524" lon="5.83102">
        <ele>715.59997558594</ele>
        <time>2019-10-08T16:24:01Z</time>
      </trkpt>
      <trkpt lat="45.42506" lon="5.83107">
        <ele>715.59997558594</ele>
        <time>2019-10-08T16:24:05Z</time>
      </trkpt>
      <trkpt lat="45.425" lon="5.83117">
        <ele>714.40002441406</ele>
        <time>2019-10-08T16:24:08Z</time>
      </trkpt>
      <trkpt lat="45.42495" lon="5.83162">
        <ele>712.40002441406</ele>
        <time>2019-10-08T16:24:13Z</time>
      </trkpt>
      <trkpt lat="45.42496" lon="5.83182">
        <ele>712.20001220703</ele>
        <time>2019-10-08T16:24:15Z</time>
      </trkpt>
      <trkpt lat="45.42484" lon="5.83209">
        <ele>711.59997558594</ele>
        <time>2019-10-08T16:24:19Z</time>
      </trkpt>
      <trkpt lat="45.42471" lon="5.83217">
        <ele>710.59997558594</ele>
        <time>2019-10-08T16:24:21Z</time>
      </trkpt>
      <trkpt lat="45.42437" lon="5.83228">
        <ele>707.20001220703</ele>
        <time>2019-10-08T16:24:26Z</time>
      </trkpt>
      <trkpt lat="45.42428" lon="5.83235">
        <ele>705.20001220703</ele>
        <time>2019-10-08T16:24:28Z</time>
      </trkpt>
      <trkpt lat="45.42426" lon="5.8327">
        <ele>702.40002441406</ele>
        <time>2019-10-08T16:24:32Z</time>
      </trkpt>
      <trkpt lat="45.42417" lon="5.83308">
        <ele>699.40002441406</ele>
        <time>2019-10-08T16:24:37Z</time>
      </trkpt>
      <trkpt lat="45.42404" lon="5.83333">
        <ele>697.40002441406</ele>
        <time>2019-10-08T16:24:41Z</time>
      </trkpt>
      <trkpt lat="45.42374" lon="5.8336">
        <ele>695.20001220703</ele>
        <time>2019-10-08T16:24:47Z</time>
      </trkpt>
      <trkpt lat="45.42345" lon="5.8338">
        <ele>694.20001220703</ele>
        <time>2019-10-08T16:24:52Z</time>
      </trkpt>
      <trkpt lat="45.42334" lon="5.83386">
        <ele>694.20001220703</ele>
        <time>2019-10-08T16:24:54Z</time>
      </trkpt>
      <trkpt lat="45.42308" lon="5.8342">
        <ele>692.40002441406</ele>
        <time>2019-10-08T16:24:59Z</time>
      </trkpt>
      <trkpt lat="45.42291" lon="5.83448">
        <ele>691.20001220703</ele>
        <time>2019-10-08T16:25:02Z</time>
      </trkpt>
      <trkpt lat="45.42268" lon="5.83484">
        <ele>690.20001220703</ele>
        <time>2019-10-08T16:25:06Z</time>
      </trkpt>
      <trkpt lat="45.42183" lon="5.83584">
        <ele>682.40002441406</ele>
        <time>2019-10-08T16:25:19Z</time>
      </trkpt>
      <trkpt lat="45.42168" lon="5.83601">
        <ele>682</ele>
        <time>2019-10-08T16:25:22Z</time>
      </trkpt>
      <trkpt lat="45.42144" lon="5.83608">
        <ele>681.79998779297</ele>
        <time>2019-10-08T16:25:28Z</time>
      </trkpt>
      <trkpt lat="45.42131" lon="5.83625">
        <ele>682.59997558594</ele>
        <time>2019-10-08T16:25:34Z</time>
      </trkpt>
      <trkpt lat="45.42123" lon="5.83649">
        <ele>683.79998779297</ele>
        <time>2019-10-08T16:25:41Z</time>
      </trkpt>
      <trkpt lat="45.42116" lon="5.8367">
        <ele>684.20001220703</ele>
        <time>2019-10-08T16:25:46Z</time>
      </trkpt>
      <trkpt lat="45.42104" lon="5.83688">
        <ele>684.40002441406</ele>
        <time>2019-10-08T16:25:49Z</time>
      </trkpt>
      <trkpt lat="45.42098" lon="5.83695">
        <ele>684.40002441406</ele>
        <time>2019-10-08T16:25:51Z</time>
      </trkpt>
      <trkpt lat="45.42086" lon="5.83712">
        <ele>684.20001220703</ele>
        <time>2019-10-08T16:25:54Z</time>
      </trkpt>
      <trkpt lat="45.42077" lon="5.83725">
        <ele>684.20001220703</ele>
        <time>2019-10-08T16:25:56Z</time>
      </trkpt>
      <trkpt lat="45.42052" lon="5.83763">
        <ele>681.20001220703</ele>
        <time>2019-10-08T16:26:01Z</time>
      </trkpt>
      <trkpt lat="45.4204" lon="5.83778">
        <ele>677.40002441406</ele>
        <time>2019-10-08T16:26:04Z</time>
      </trkpt>
      <trkpt lat="45.42028" lon="5.83792">
        <ele>674</ele>
        <time>2019-10-08T16:26:07Z</time>
      </trkpt>
      <trkpt lat="45.42008" lon="5.83814">
        <ele>670.79998779297</ele>
        <time>2019-10-08T16:26:11Z</time>
      </trkpt>
      <trkpt lat="45.41997" lon="5.83821">
        <ele>668</ele>
        <time>2019-10-08T16:26:14Z</time>
      </trkpt>
      <trkpt lat="45.41978" lon="5.83846">
        <ele>663</ele>
        <time>2019-10-08T16:26:18Z</time>
      </trkpt>
      <trkpt lat="45.41969" lon="5.83858">
        <ele>659.40002441406</ele>
        <time>2019-10-08T16:26:21Z</time>
      </trkpt>
      <trkpt lat="45.41951" lon="5.83872">
        <ele>656.79998779297</ele>
        <time>2019-10-08T16:26:24Z</time>
      </trkpt>
      <trkpt lat="45.41936" lon="5.83878">
        <ele>653.20001220703</ele>
        <time>2019-10-08T16:26:27Z</time>
      </trkpt>
      <trkpt lat="45.41909" lon="5.83895">
        <ele>646.20001220703</ele>
        <time>2019-10-08T16:26:32Z</time>
      </trkpt>
      <trkpt lat="45.41905" lon="5.83907">
        <ele>641.40002441406</ele>
        <time>2019-10-08T16:26:37Z</time>
      </trkpt>
      <trkpt lat="45.41902" lon="5.83915">
        <ele>640.59997558594</ele>
        <time>2019-10-08T16:26:41Z</time>
      </trkpt>
      <trkpt lat="45.41898" lon="5.83923">
        <ele>640.59997558594</ele>
        <time>2019-10-08T16:26:44Z</time>
      </trkpt>
      <trkpt lat="45.41899" lon="5.83936">
        <ele>641</ele>
        <time>2019-10-08T16:26:50Z</time>
      </trkpt>
      <trkpt lat="45.4189" lon="5.83965">
        <ele>642.79998779297</ele>
        <time>2019-10-08T16:26:57Z</time>
      </trkpt>
      <trkpt lat="45.41895" lon="5.83975">
        <ele>644.20001220703</ele>
        <time>2019-10-08T16:27:02Z</time>
      </trkpt>
      <trkpt lat="45.41902" lon="5.8399">
        <ele>646.20001220703</ele>
        <time>2019-10-08T16:27:11Z</time>
      </trkpt>
      <trkpt lat="45.41907" lon="5.83998">
        <ele>647.20001220703</ele>
        <time>2019-10-08T16:27:17Z</time>
      </trkpt>
      <trkpt lat="45.41915" lon="5.84018">
        <ele>649</ele>
        <time>2019-10-08T16:27:26Z</time>
      </trkpt>
      <trkpt lat="45.41922" lon="5.84028">
        <ele>650.59997558594</ele>
        <time>2019-10-08T16:27:32Z</time>
      </trkpt>
      <trkpt lat="45.41936" lon="5.84045">
        <ele>651.79998779297</ele>
        <time>2019-10-08T16:27:44Z</time>
      </trkpt>
      <trkpt lat="45.41938" lon="5.84049">
        <ele>652.20001220703</ele>
        <time>2019-10-08T16:27:46Z</time>
      </trkpt>
      <trkpt lat="45.41943" lon="5.84061">
        <ele>653.40002441406</ele>
        <time>2019-10-08T16:27:55Z</time>
      </trkpt>
      <trkpt lat="45.41942" lon="5.84072">
        <ele>654</ele>
        <time>2019-10-08T16:28:00Z</time>
      </trkpt>
      <trkpt lat="45.41942" lon="5.84086">
        <ele>655.59997558594</ele>
        <time>2019-10-08T16:28:06Z</time>
      </trkpt>
      <trkpt lat="45.41945" lon="5.84112">
        <ele>658.20001220703</ele>
        <time>2019-10-08T16:28:16Z</time>
      </trkpt>
      <trkpt lat="45.4196" lon="5.84161">
        <ele>658.59997558594</ele>
        <time>2019-10-08T16:28:25Z</time>
      </trkpt>
      <trkpt lat="45.4196" lon="5.84171">
        <ele>658</ele>
        <time>2019-10-08T16:28:27Z</time>
      </trkpt>
      <trkpt lat="45.41957" lon="5.84187">
        <ele>657.20001220703</ele>
        <time>2019-10-08T16:28:30Z</time>
      </trkpt>
      <trkpt lat="45.41944" lon="5.84204">
        <ele>655.40002441406</ele>
        <time>2019-10-08T16:28:34Z</time>
      </trkpt>
      <trkpt lat="45.41924" lon="5.84222">
        <ele>653.79998779297</ele>
        <time>2019-10-08T16:28:37Z</time>
      </trkpt>
      <trkpt lat="45.41905" lon="5.84245">
        <ele>652.59997558594</ele>
        <time>2019-10-08T16:28:41Z</time>
      </trkpt>
      <trkpt lat="45.41886" lon="5.84268">
        <ele>652.40002441406</ele>
        <time>2019-10-08T16:28:46Z</time>
      </trkpt>
      <trkpt lat="45.41877" lon="5.84282">
        <ele>652.79998779297</ele>
        <time>2019-10-08T16:28:53Z</time>
      </trkpt>
      <trkpt lat="45.4187" lon="5.84293">
        <ele>654.20001220703</ele>
        <time>2019-10-08T16:28:59Z</time>
      </trkpt>
      <trkpt lat="45.41863" lon="5.84303">
        <ele>656.59997558594</ele>
        <time>2019-10-08T16:29:07Z</time>
      </trkpt>
      <trkpt lat="45.41856" lon="5.84316">
        <ele>658.20001220703</ele>
        <time>2019-10-08T16:29:15Z</time>
      </trkpt>
      <trkpt lat="45.41842" lon="5.84336">
        <ele>659.59997558594</ele>
        <time>2019-10-08T16:29:26Z</time>
      </trkpt>
      <trkpt lat="45.41832" lon="5.84345">
        <ele>661.20001220703</ele>
        <time>2019-10-08T16:29:34Z</time>
      </trkpt>
      <trkpt lat="45.41825" lon="5.8435">
        <ele>662.20001220703</ele>
        <time>2019-10-08T16:29:40Z</time>
      </trkpt>
      <trkpt lat="45.41818" lon="5.84355">
        <ele>663</ele>
        <time>2019-10-08T16:29:45Z</time>
      </trkpt>
      <trkpt lat="45.41811" lon="5.84361">
        <ele>664.20001220703</ele>
        <time>2019-10-08T16:29:51Z</time>
      </trkpt>
      <trkpt lat="45.41803" lon="5.84374">
        <ele>666.79998779297</ele>
        <time>2019-10-08T16:30:01Z</time>
      </trkpt>
      <trkpt lat="45.41802" lon="5.84376">
        <ele>667</ele>
        <time>2019-10-08T16:30:03Z</time>
      </trkpt>
      <trkpt lat="45.41807" lon="5.84396">
        <ele>669.59997558594</ele>
        <time>2019-10-08T16:30:18Z</time>
      </trkpt>
      <trkpt lat="45.41808" lon="5.84427">
        <ele>671.20001220703</ele>
        <time>2019-10-08T16:30:29Z</time>
      </trkpt>
      <trkpt lat="45.41802" lon="5.84454">
        <ele>672</ele>
        <time>2019-10-08T16:30:37Z</time>
      </trkpt>
      <trkpt lat="45.41795" lon="5.8449">
        <ele>672.40002441406</ele>
        <time>2019-10-08T16:30:45Z</time>
      </trkpt>
      <trkpt lat="45.41789" lon="5.84524">
        <ele>672.40002441406</ele>
        <time>2019-10-08T16:30:52Z</time>
      </trkpt>
      <trkpt lat="45.41785" lon="5.8454">
        <ele>672.40002441406</ele>
        <time>2019-10-08T16:30:55Z</time>
      </trkpt>
      <trkpt lat="45.41774" lon="5.84571">
        <ele>672.40002441406</ele>
        <time>2019-10-08T16:31:00Z</time>
      </trkpt>
      <trkpt lat="45.41769" lon="5.84601">
        <ele>672</ele>
        <time>2019-10-08T16:31:03Z</time>
      </trkpt>
      <trkpt lat="45.41767" lon="5.84659">
        <ele>670.59997558594</ele>
        <time>2019-10-08T16:31:08Z</time>
      </trkpt>
      <trkpt lat="45.41766" lon="5.84678">
        <ele>669.59997558594</ele>
        <time>2019-10-08T16:31:10Z</time>
      </trkpt>
      <trkpt lat="45.41758" lon="5.84705">
        <ele>668</ele>
        <time>2019-10-08T16:31:13Z</time>
      </trkpt>
      <trkpt lat="45.4173" lon="5.84753">
        <ele>666.40002441406</ele>
        <time>2019-10-08T16:31:20Z</time>
      </trkpt>
      <trkpt lat="45.41724" lon="5.84798">
        <ele>666.40002441406</ele>
        <time>2019-10-08T16:31:26Z</time>
      </trkpt>
      <trkpt lat="45.41718" lon="5.84851">
        <ele>666.20001220703</ele>
        <time>2019-10-08T16:31:34Z</time>
      </trkpt>
      <trkpt lat="45.41722" lon="5.84874">
        <ele>666.59997558594</ele>
        <time>2019-10-08T16:31:38Z</time>
      </trkpt>
      <trkpt lat="45.41726" lon="5.8494">
        <ele>667.20001220703</ele>
        <time>2019-10-08T16:31:51Z</time>
      </trkpt>
      <trkpt lat="45.41722" lon="5.84979">
        <ele>667.20001220703</ele>
        <time>2019-10-08T16:31:58Z</time>
      </trkpt>
      <trkpt lat="45.41717" lon="5.8505">
        <ele>667.40002441406</ele>
        <time>2019-10-08T16:32:11Z</time>
      </trkpt>
      <trkpt lat="45.41713" lon="5.85122">
        <ele>667.59997558594</ele>
        <time>2019-10-08T16:32:24Z</time>
      </trkpt>
      <trkpt lat="45.41712" lon="5.85236">
        <ele>668.40002441406</ele>
        <time>2019-10-08T16:32:45Z</time>
      </trkpt>
      <trkpt lat="45.41735" lon="5.85302">
        <ele>669</ele>
        <time>2019-10-08T16:32:59Z</time>
      </trkpt>
      <trkpt lat="45.4177" lon="5.85391">
        <ele>670.20001220703</ele>
        <time>2019-10-08T16:33:18Z</time>
      </trkpt>
      <trkpt lat="45.41784" lon="5.85415">
        <ele>670.59997558594</ele>
        <time>2019-10-08T16:33:25Z</time>
      </trkpt>
      <trkpt lat="45.4181" lon="5.8546">
        <ele>671</ele>
        <time>2019-10-08T16:33:39Z</time>
      </trkpt>
      <trkpt lat="45.41822" lon="5.85493">
        <ele>671.59997558594</ele>
        <time>2019-10-08T16:33:48Z</time>
      </trkpt>
      <trkpt lat="45.41823" lon="5.85497">
        <ele>671.59997558594</ele>
        <time>2019-10-08T16:33:50Z</time>
      </trkpt>
      <trkpt lat="45.41818" lon="5.85501">
        <ele>671.79998779297</ele>
        <time>2019-10-08T16:33:55Z</time>
      </trkpt>
      <trkpt lat="45.41814" lon="5.85504">
        <ele>672</ele>
        <time>2019-10-08T16:33:59Z</time>
      </trkpt>
      <trkpt lat="45.41781" lon="5.85492">
        <ele>671.20001220703</ele>
        <time>2019-10-08T16:38:20Z</time>
      </trkpt>
      <trkpt lat="45.41762" lon="5.85485">
        <ele>670.79998779297</ele>
        <time>2019-10-08T16:38:27Z</time>
      </trkpt>
      <trkpt lat="45.41688" lon="5.85461">
        <ele>671</ele>
        <time>2019-10-08T16:38:50Z</time>
      </trkpt>
      <trkpt lat="45.41669" lon="5.85451">
        <ele>671.40002441406</ele>
        <time>2019-10-08T16:38:58Z</time>
      </trkpt>
      <trkpt lat="45.41654" lon="5.85435">
        <ele>672</ele>
        <time>2019-10-08T16:39:10Z</time>
      </trkpt>
      <trkpt lat="45.41636" lon="5.85435">
        <ele>672.40002441406</ele>
        <time>2019-10-08T16:39:19Z</time>
      </trkpt>
      <trkpt lat="45.41596" lon="5.85452">
        <ele>672.40002441406</ele>
        <time>2019-10-08T16:39:37Z</time>
      </trkpt>
      <trkpt lat="45.41593" lon="5.85453">
        <ele>672.40002441406</ele>
        <time>2019-10-08T16:39:40Z</time>
      </trkpt>
      <trkpt lat="45.41587" lon="5.85455">
        <ele>672.59997558594</ele>
        <time>2019-10-08T16:39:55Z</time>
      </trkpt>
      <trkpt lat="45.41568" lon="5.85462">
        <ele>672.59997558594</ele>
        <time>2019-10-08T16:40:02Z</time>
      </trkpt>
      <trkpt lat="45.41553" lon="5.85467">
        <ele>672.79998779297</ele>
        <time>2019-10-08T16:40:07Z</time>
      </trkpt>
      <trkpt lat="45.41523" lon="5.85461">
        <ele>674.20001220703</ele>
        <time>2019-10-08T16:40:30Z</time>
      </trkpt>
      <trkpt lat="45.41523" lon="5.8546">
        <ele>674.20001220703</ele>
        <time>2019-10-08T16:40:35Z</time>
      </trkpt>
      <trkpt lat="45.41493" lon="5.85465">
        <ele>674.40002441406</ele>
        <time>2019-10-08T16:40:47Z</time>
      </trkpt>
      <trkpt lat="45.41471" lon="5.85464">
        <ele>674.59997558594</ele>
        <time>2019-10-08T16:40:55Z</time>
      </trkpt>
      <trkpt lat="45.41444" lon="5.85464">
        <ele>675.59997558594</ele>
        <time>2019-10-08T16:41:06Z</time>
      </trkpt>
      <trkpt lat="45.41424" lon="5.85462">
        <ele>676</ele>
        <time>2019-10-08T16:41:15Z</time>
      </trkpt>
      <trkpt lat="45.41396" lon="5.85455">
        <ele>676.79998779297</ele>
        <time>2019-10-08T16:41:28Z</time>
      </trkpt>
      <trkpt lat="45.41383" lon="5.85453">
        <ele>677</ele>
        <time>2019-10-08T16:41:35Z</time>
      </trkpt>
      <trkpt lat="45.4137" lon="5.85444">
        <ele>677.40002441406</ele>
        <time>2019-10-08T16:41:48Z</time>
      </trkpt>
      <trkpt lat="45.41368" lon="5.85443">
        <ele>677.40002441406</ele>
        <time>2019-10-08T16:41:55Z</time>
      </trkpt>
      <trkpt lat="45.41368" lon="5.85441">
        <ele>652.20001220703</ele>
        <time>2019-10-09T05:30:42Z</time>
      </trkpt>
      <trkpt lat="45.41354" lon="5.85423">
        <ele>653.20001220703</ele>
        <time>2019-10-09T05:30:53Z</time>
      </trkpt>
      <trkpt lat="45.41345" lon="5.85415">
        <ele>653.59997558594</ele>
        <time>2019-10-09T05:31:01Z</time>
      </trkpt>
      <trkpt lat="45.41321" lon="5.85392">
        <ele>654.79998779297</ele>
        <time>2019-10-09T05:31:15Z</time>
      </trkpt>
      <trkpt lat="45.41312" lon="5.85386">
        <ele>655.59997558594</ele>
        <time>2019-10-09T05:31:20Z</time>
      </trkpt>
      <trkpt lat="45.41289" lon="5.85375">
        <ele>656.79998779297</ele>
        <time>2019-10-09T05:31:33Z</time>
      </trkpt>
      <trkpt lat="45.41277" lon="5.85369">
        <ele>657.40002441406</ele>
        <time>2019-10-09T05:31:39Z</time>
      </trkpt>
      <trkpt lat="45.41249" lon="5.85354">
        <ele>659.40002441406</ele>
        <time>2019-10-09T05:31:56Z</time>
      </trkpt>
      <trkpt lat="45.41234" lon="5.85347">
        <ele>660</ele>
        <time>2019-10-09T05:32:05Z</time>
      </trkpt>
      <trkpt lat="45.41218" lon="5.85339">
        <ele>661</ele>
        <time>2019-10-09T05:32:17Z</time>
      </trkpt>
      <trkpt lat="45.41213" lon="5.85337">
        <ele>661.79998779297</ele>
        <time>2019-10-09T05:32:54Z</time>
      </trkpt>
      <trkpt lat="45.41209" lon="5.85336">
        <ele>662</ele>
        <time>2019-10-09T05:33:01Z</time>
      </trkpt>
      <trkpt lat="45.41202" lon="5.85329">
        <ele>662.40002441406</ele>
        <time>2019-10-09T05:33:07Z</time>
      </trkpt>
      <trkpt lat="45.41197" lon="5.85323">
        <ele>664.20001220703</ele>
        <time>2019-10-09T05:33:21Z</time>
      </trkpt>
      <trkpt lat="45.41196" lon="5.85321">
        <ele>664.20001220703</ele>
        <time>2019-10-09T05:33:23Z</time>
      </trkpt>
      <trkpt lat="45.41189" lon="5.85315">
        <ele>664.40002441406</ele>
        <time>2019-10-09T05:33:28Z</time>
      </trkpt>
      <trkpt lat="45.41173" lon="5.853">
        <ele>666.20001220703</ele>
        <time>2019-10-09T05:33:38Z</time>
      </trkpt>
      <trkpt lat="45.41163" lon="5.85292">
        <ele>667.40002441406</ele>
        <time>2019-10-09T05:33:44Z</time>
      </trkpt>
      <trkpt lat="45.41151" lon="5.85292">
        <ele>668.79998779297</ele>
        <time>2019-10-09T05:33:53Z</time>
      </trkpt>
      <trkpt lat="45.41141" lon="5.85293">
        <ele>670.20001220703</ele>
        <time>2019-10-09T05:34:01Z</time>
      </trkpt>
      <trkpt lat="45.4112" lon="5.85289">
        <ele>672.59997558594</ele>
        <time>2019-10-09T05:34:16Z</time>
      </trkpt>
      <trkpt lat="45.41115" lon="5.85284">
        <ele>673.40002441406</ele>
        <time>2019-10-09T05:34:20Z</time>
      </trkpt>
      <trkpt lat="45.41104" lon="5.85268">
        <ele>675.20001220703</ele>
        <time>2019-10-09T05:34:31Z</time>
      </trkpt>
      <trkpt lat="45.41102" lon="5.85253">
        <ele>676.20001220703</ele>
        <time>2019-10-09T05:34:39Z</time>
      </trkpt>
      <trkpt lat="45.41104" lon="5.85216">
        <ele>678.20001220703</ele>
        <time>2019-10-09T05:34:53Z</time>
      </trkpt>
      <trkpt lat="45.41111" lon="5.85213">
        <ele>679.20001220703</ele>
        <time>2019-10-09T05:34:59Z</time>
      </trkpt>
      <trkpt lat="45.41127" lon="5.8521">
        <ele>681.59997558594</ele>
        <time>2019-10-09T05:35:11Z</time>
      </trkpt>
      <trkpt lat="45.41133" lon="5.85209">
        <ele>682.40002441406</ele>
        <time>2019-10-09T05:35:15Z</time>
      </trkpt>
      <trkpt lat="45.41148" lon="5.85211">
        <ele>684.20001220703</ele>
        <time>2019-10-09T05:35:26Z</time>
      </trkpt>
      <trkpt lat="45.41149" lon="5.85211">
        <ele>686</ele>
        <time>2019-10-09T05:35:42Z</time>
      </trkpt>
      <trkpt lat="45.4115" lon="5.85212">
        <ele>686.20001220703</ele>
        <time>2019-10-09T05:35:44Z</time>
      </trkpt>
      <trkpt lat="45.41166" lon="5.85216">
        <ele>687.20001220703</ele>
        <time>2019-10-09T05:35:57Z</time>
      </trkpt>
      <trkpt lat="45.41174" lon="5.85218">
        <ele>688.79998779297</ele>
        <time>2019-10-09T05:36:08Z</time>
      </trkpt>
      <trkpt lat="45.41202" lon="5.85224">
        <ele>690.79998779297</ele>
        <time>2019-10-09T05:36:24Z</time>
      </trkpt>
      <trkpt lat="45.4122" lon="5.85227">
        <ele>692.59997558594</ele>
        <time>2019-10-09T05:36:37Z</time>
      </trkpt>
      <trkpt lat="45.41237" lon="5.85228">
        <ele>695</ele>
        <time>2019-10-09T05:36:51Z</time>
      </trkpt>
      <trkpt lat="45.41253" lon="5.85228">
        <ele>696.79998779297</ele>
        <time>2019-10-09T05:37:02Z</time>
      </trkpt>
      <trkpt lat="45.41278" lon="5.85229">
        <ele>699.40002441406</ele>
        <time>2019-10-09T05:37:18Z</time>
      </trkpt>
      <trkpt lat="45.41287" lon="5.8523">
        <ele>701</ele>
        <time>2019-10-09T05:37:27Z</time>
      </trkpt>
      <trkpt lat="45.41302" lon="5.85232">
        <ele>702.59997558594</ele>
        <time>2019-10-09T05:37:38Z</time>
      </trkpt>
      <trkpt lat="45.41309" lon="5.85232">
        <ele>703.59997558594</ele>
        <time>2019-10-09T05:37:43Z</time>
      </trkpt>
      <trkpt lat="45.41311" lon="5.85231">
        <ele>705.59997558594</ele>
        <time>2019-10-09T05:38:41Z</time>
      </trkpt>
      <trkpt lat="45.41318" lon="5.85229">
        <ele>705.79998779297</ele>
        <time>2019-10-09T05:38:46Z</time>
      </trkpt>
      <trkpt lat="45.4133" lon="5.85224">
        <ele>706.79998779297</ele>
        <time>2019-10-09T05:38:54Z</time>
      </trkpt>
      <trkpt lat="45.41341" lon="5.85216">
        <ele>708.40002441406</ele>
        <time>2019-10-09T05:39:03Z</time>
      </trkpt>
      <trkpt lat="45.41343" lon="5.85204">
        <ele>709.40002441406</ele>
        <time>2019-10-09T05:39:10Z</time>
      </trkpt>
      <trkpt lat="45.41336" lon="5.85191">
        <ele>711.40002441406</ele>
        <time>2019-10-09T05:39:20Z</time>
      </trkpt>
      <trkpt lat="45.41327" lon="5.8518">
        <ele>712.59997558594</ele>
        <time>2019-10-09T05:39:28Z</time>
      </trkpt>
      <trkpt lat="45.41315" lon="5.85163">
        <ele>714.40002441406</ele>
        <time>2019-10-09T05:39:40Z</time>
      </trkpt>
      <trkpt lat="45.41305" lon="5.8515">
        <ele>716</ele>
        <time>2019-10-09T05:39:50Z</time>
      </trkpt>
      <trkpt lat="45.41297" lon="5.85136">
        <ele>717.40002441406</ele>
        <time>2019-10-09T05:39:59Z</time>
      </trkpt>
      <trkpt lat="45.41287" lon="5.85125">
        <ele>719</ele>
        <time>2019-10-09T05:40:09Z</time>
      </trkpt>
      <trkpt lat="45.41265" lon="5.85121">
        <ele>722</ele>
        <time>2019-10-09T05:40:25Z</time>
      </trkpt>
      <trkpt lat="45.41256" lon="5.85122">
        <ele>723</ele>
        <time>2019-10-09T05:40:31Z</time>
      </trkpt>
      <trkpt lat="45.4124" lon="5.85117">
        <ele>724.79998779297</ele>
        <time>2019-10-09T05:40:43Z</time>
      </trkpt>
      <trkpt lat="45.4123" lon="5.85113">
        <ele>726.20001220703</ele>
        <time>2019-10-09T05:40:50Z</time>
      </trkpt>
      <trkpt lat="45.41216" lon="5.85106">
        <ele>727.79998779297</ele>
        <time>2019-10-09T05:40:59Z</time>
      </trkpt>
      <trkpt lat="45.41201" lon="5.85097">
        <ele>729.40002441406</ele>
        <time>2019-10-09T05:41:11Z</time>
      </trkpt>
      <trkpt lat="45.41191" lon="5.85086">
        <ele>731.40002441406</ele>
        <time>2019-10-09T05:41:21Z</time>
      </trkpt>
      <trkpt lat="45.41183" lon="5.85068">
        <ele>732.79998779297</ele>
        <time>2019-10-09T05:41:31Z</time>
      </trkpt>
      <trkpt lat="45.41176" lon="5.85051">
        <ele>734.79998779297</ele>
        <time>2019-10-09T05:41:43Z</time>
      </trkpt>
      <trkpt lat="45.41172" lon="5.85036">
        <ele>736.79998779297</ele>
        <time>2019-10-09T05:41:52Z</time>
      </trkpt>
      <trkpt lat="45.41167" lon="5.85022">
        <ele>737.59997558594</ele>
        <time>2019-10-09T05:41:59Z</time>
      </trkpt>
      <trkpt lat="45.41157" lon="5.85011">
        <ele>739.20001220703</ele>
        <time>2019-10-09T05:42:08Z</time>
      </trkpt>
      <trkpt lat="45.41148" lon="5.85001">
        <ele>740.79998779297</ele>
        <time>2019-10-09T05:42:16Z</time>
      </trkpt>
      <trkpt lat="45.41144" lon="5.84998">
        <ele>741.20001220703</ele>
        <time>2019-10-09T05:42:20Z</time>
      </trkpt>
      <trkpt lat="45.4114" lon="5.84993">
        <ele>741.79998779297</ele>
        <time>2019-10-09T05:42:24Z</time>
      </trkpt>
      <trkpt lat="45.41122" lon="5.84974">
        <ele>744.40002441406</ele>
        <time>2019-10-09T05:42:38Z</time>
      </trkpt>
      <trkpt lat="45.41112" lon="5.84963">
        <ele>746</ele>
        <time>2019-10-09T05:42:48Z</time>
      </trkpt>
      <trkpt lat="45.41098" lon="5.84949">
        <ele>747.59997558594</ele>
        <time>2019-10-09T05:43:00Z</time>
      </trkpt>
      <trkpt lat="45.4109" lon="5.8494">
        <ele>748.79998779297</ele>
        <time>2019-10-09T05:43:07Z</time>
      </trkpt>
      <trkpt lat="45.41085" lon="5.84935">
        <ele>749.20001220703</ele>
        <time>2019-10-09T05:43:11Z</time>
      </trkpt>
      <trkpt lat="45.41067" lon="5.8492">
        <ele>751.79998779297</ele>
        <time>2019-10-09T05:43:25Z</time>
      </trkpt>
      <trkpt lat="45.41059" lon="5.84915">
        <ele>752.79998779297</ele>
        <time>2019-10-09T05:43:31Z</time>
      </trkpt>
      <trkpt lat="45.41041" lon="5.84904">
        <ele>755.20001220703</ele>
        <time>2019-10-09T05:43:44Z</time>
      </trkpt>
      <trkpt lat="45.41031" lon="5.84898">
        <ele>756.20001220703</ele>
        <time>2019-10-09T05:43:50Z</time>
      </trkpt>
      <trkpt lat="45.41014" lon="5.84887">
        <ele>758</ele>
        <time>2019-10-09T05:44:01Z</time>
      </trkpt>
      <trkpt lat="45.41003" lon="5.84877">
        <ele>759.40002441406</ele>
        <time>2019-10-09T05:44:10Z</time>
      </trkpt>
      <trkpt lat="45.40996" lon="5.84871">
        <ele>760.59997558594</ele>
        <time>2019-10-09T05:44:17Z</time>
      </trkpt>
      <trkpt lat="45.40985" lon="5.84861">
        <ele>762</ele>
        <time>2019-10-09T05:44:26Z</time>
      </trkpt>
      <trkpt lat="45.40969" lon="5.84847">
        <ele>764</ele>
        <time>2019-10-09T05:44:37Z</time>
      </trkpt>
      <trkpt lat="45.40959" lon="5.84838">
        <ele>765.40002441406</ele>
        <time>2019-10-09T05:44:45Z</time>
      </trkpt>
      <trkpt lat="45.40943" lon="5.84816">
        <ele>768.20001220703</ele>
        <time>2019-10-09T05:45:01Z</time>
      </trkpt>
      <trkpt lat="45.40934" lon="5.84802">
        <ele>769.40002441406</ele>
        <time>2019-10-09T05:45:10Z</time>
      </trkpt>
      <trkpt lat="45.40925" lon="5.84788">
        <ele>771</ele>
        <time>2019-10-09T05:45:19Z</time>
      </trkpt>
      <trkpt lat="45.40912" lon="5.84769">
        <ele>773</ele>
        <time>2019-10-09T05:45:30Z</time>
      </trkpt>
      <trkpt lat="45.409" lon="5.84753">
        <ele>775.40002441406</ele>
        <time>2019-10-09T05:45:43Z</time>
      </trkpt>
      <trkpt lat="45.40889" lon="5.84741">
        <ele>777.20001220703</ele>
        <time>2019-10-09T05:45:53Z</time>
      </trkpt>
      <trkpt lat="45.40884" lon="5.84736">
        <ele>778.59997558594</ele>
        <time>2019-10-09T05:45:59Z</time>
      </trkpt>
      <trkpt lat="45.40875" lon="5.84727">
        <ele>780.79998779297</ele>
        <time>2019-10-09T05:46:09Z</time>
      </trkpt>
      <trkpt lat="45.40874" lon="5.84726">
        <ele>781.79998779297</ele>
        <time>2019-10-09T05:46:14Z</time>
      </trkpt>
      <trkpt lat="45.40858" lon="5.84731">
        <ele>782.79998779297</ele>
        <time>2019-10-09T05:48:05Z</time>
      </trkpt>
      <trkpt lat="45.40854" lon="5.84723">
        <ele>783</ele>
        <time>2019-10-09T05:48:09Z</time>
      </trkpt>
      <trkpt lat="45.40849" lon="5.84702">
        <ele>784.20001220703</ele>
        <time>2019-10-09T05:48:19Z</time>
      </trkpt>
      <trkpt lat="45.40841" lon="5.84694">
        <ele>785.59997558594</ele>
        <time>2019-10-09T05:48:26Z</time>
      </trkpt>
      <trkpt lat="45.40833" lon="5.84685">
        <ele>787.20001220703</ele>
        <time>2019-10-09T05:48:35Z</time>
      </trkpt>
      <trkpt lat="45.40822" lon="5.84674">
        <ele>788.40002441406</ele>
        <time>2019-10-09T05:48:43Z</time>
      </trkpt>
      <trkpt lat="45.40814" lon="5.84666">
        <ele>789.59997558594</ele>
        <time>2019-10-09T05:48:51Z</time>
      </trkpt>
      <trkpt lat="45.40799" lon="5.8465">
        <ele>791.20001220703</ele>
        <time>2019-10-09T05:49:04Z</time>
      </trkpt>
      <trkpt lat="45.40789" lon="5.84644">
        <ele>792.79998779297</ele>
        <time>2019-10-09T05:49:11Z</time>
      </trkpt>
      <trkpt lat="45.40776" lon="5.84636">
        <ele>794.59997558594</ele>
        <time>2019-10-09T05:49:23Z</time>
      </trkpt>
      <trkpt lat="45.40765" lon="5.8463">
        <ele>795</ele>
        <time>2019-10-09T05:49:28Z</time>
      </trkpt>
      <trkpt lat="45.40736" lon="5.84615">
        <ele>797.20001220703</ele>
        <time>2019-10-09T05:49:45Z</time>
      </trkpt>
      <trkpt lat="45.40725" lon="5.8461">
        <ele>798</ele>
        <time>2019-10-09T05:49:52Z</time>
      </trkpt>
      <trkpt lat="45.40705" lon="5.846">
        <ele>800.20001220703</ele>
        <time>2019-10-09T05:50:05Z</time>
      </trkpt>
      <trkpt lat="45.40698" lon="5.84595">
        <ele>801.20001220703</ele>
        <time>2019-10-09T05:50:10Z</time>
      </trkpt>
      <trkpt lat="45.40677" lon="5.8458">
        <ele>803.79998779297</ele>
        <time>2019-10-09T05:50:23Z</time>
      </trkpt>
      <trkpt lat="45.40665" lon="5.8457">
        <ele>805.20001220703</ele>
        <time>2019-10-09T05:50:32Z</time>
      </trkpt>
      <trkpt lat="45.40653" lon="5.84557">
        <ele>807.20001220703</ele>
        <time>2019-10-09T05:50:41Z</time>
      </trkpt>
      <trkpt lat="45.40647" lon="5.84552">
        <ele>807.79998779297</ele>
        <time>2019-10-09T05:50:47Z</time>
      </trkpt>
      <trkpt lat="45.40637" lon="5.84541">
        <ele>810</ele>
        <time>2019-10-09T05:50:56Z</time>
      </trkpt>
      <trkpt lat="45.40617" lon="5.84523">
        <ele>813</ele>
        <time>2019-10-09T05:51:10Z</time>
      </trkpt>
      <trkpt lat="45.40598" lon="5.84508">
        <ele>814.40002441406</ele>
        <time>2019-10-09T05:51:21Z</time>
      </trkpt>
      <trkpt lat="45.40581" lon="5.84496">
        <ele>815.79998779297</ele>
        <time>2019-10-09T05:51:32Z</time>
      </trkpt>
      <trkpt lat="45.40564" lon="5.84485">
        <ele>818</ele>
        <time>2019-10-09T05:51:44Z</time>
      </trkpt>
      <trkpt lat="45.40555" lon="5.84469">
        <ele>819.79998779297</ele>
        <time>2019-10-09T05:51:54Z</time>
      </trkpt>
      <trkpt lat="45.4055" lon="5.84458">
        <ele>821.20001220703</ele>
        <time>2019-10-09T05:52:02Z</time>
      </trkpt>
      <trkpt lat="45.40541" lon="5.84437">
        <ele>823.79998779297</ele>
        <time>2019-10-09T05:52:14Z</time>
      </trkpt>
      <trkpt lat="45.40537" lon="5.84426">
        <ele>824.79998779297</ele>
        <time>2019-10-09T05:52:20Z</time>
      </trkpt>
      <trkpt lat="45.40529" lon="5.844">
        <ele>827</ele>
        <time>2019-10-09T05:52:33Z</time>
      </trkpt>
      <trkpt lat="45.40512" lon="5.84405">
        <ele>828.20001220703</ele>
        <time>2019-10-09T05:52:40Z</time>
      </trkpt>
      <trkpt lat="45.40496" lon="5.84408">
        <ele>829.59997558594</ele>
        <time>2019-10-09T05:52:51Z</time>
      </trkpt>
      <trkpt lat="45.40488" lon="5.84415">
        <ele>831</ele>
        <time>2019-10-09T05:53:00Z</time>
      </trkpt>
      <trkpt lat="45.40474" lon="5.84424">
        <ele>832.59997558594</ele>
        <time>2019-10-09T05:53:11Z</time>
      </trkpt>
      <trkpt lat="45.40455" lon="5.84431">
        <ele>834.79998779297</ele>
        <time>2019-10-09T05:53:25Z</time>
      </trkpt>
      <trkpt lat="45.40446" lon="5.84427">
        <ele>836</ele>
        <time>2019-10-09T05:53:32Z</time>
      </trkpt>
      <trkpt lat="45.40427" lon="5.84415">
        <ele>838.40002441406</ele>
        <time>2019-10-09T05:53:47Z</time>
      </trkpt>
      <trkpt lat="45.4042" lon="5.84407">
        <ele>839.79998779297</ele>
        <time>2019-10-09T05:53:55Z</time>
      </trkpt>
      <trkpt lat="45.40408" lon="5.84392">
        <ele>841.20001220703</ele>
        <time>2019-10-09T05:54:06Z</time>
      </trkpt>
      <trkpt lat="45.40395" lon="5.84381">
        <ele>842.79998779297</ele>
        <time>2019-10-09T05:54:14Z</time>
      </trkpt>
      <trkpt lat="45.40368" lon="5.84361">
        <ele>846.20001220703</ele>
        <time>2019-10-09T05:54:34Z</time>
      </trkpt>
      <trkpt lat="45.40358" lon="5.84356">
        <ele>847.20001220703</ele>
        <time>2019-10-09T05:54:40Z</time>
      </trkpt>
      <trkpt lat="45.40322" lon="5.84379">
        <ele>849.59997558594</ele>
        <time>2019-10-09T05:54:59Z</time>
      </trkpt>
      <trkpt lat="45.40312" lon="5.84384">
        <ele>850.40002441406</ele>
        <time>2019-10-09T05:55:05Z</time>
      </trkpt>
      <trkpt lat="45.40292" lon="5.84389">
        <ele>853</ele>
        <time>2019-10-09T05:55:18Z</time>
      </trkpt>
      <trkpt lat="45.40278" lon="5.84393">
        <ele>854</ele>
        <time>2019-10-09T05:55:26Z</time>
      </trkpt>
      <trkpt lat="45.40249" lon="5.84404">
        <ele>856.40002441406</ele>
        <time>2019-10-09T05:55:40Z</time>
      </trkpt>
      <trkpt lat="45.40238" lon="5.84408">
        <ele>857.79998779297</ele>
        <time>2019-10-09T05:55:48Z</time>
      </trkpt>
      <trkpt lat="45.40223" lon="5.84414">
        <ele>859.40002441406</ele>
        <time>2019-10-09T05:55:55Z</time>
      </trkpt>
      <trkpt lat="45.40188" lon="5.84425">
        <ele>862.20001220703</ele>
        <time>2019-10-09T05:56:14Z</time>
      </trkpt>
      <trkpt lat="45.40179" lon="5.84423">
        <ele>863.20001220703</ele>
        <time>2019-10-09T05:56:21Z</time>
      </trkpt>
      <trkpt lat="45.40153" lon="5.84412">
        <ele>865.79998779297</ele>
        <time>2019-10-09T05:56:35Z</time>
      </trkpt>
      <trkpt lat="45.40139" lon="5.84403">
        <ele>866.79998779297</ele>
        <time>2019-10-09T05:56:43Z</time>
      </trkpt>
      <trkpt lat="45.40105" lon="5.84382">
        <ele>869.40002441406</ele>
        <time>2019-10-09T05:57:02Z</time>
      </trkpt>
      <trkpt lat="45.40089" lon="5.84374">
        <ele>870.40002441406</ele>
        <time>2019-10-09T05:57:10Z</time>
      </trkpt>
      <trkpt lat="45.40063" lon="5.84366">
        <ele>872.20001220703</ele>
        <time>2019-10-09T05:57:23Z</time>
      </trkpt>
      <trkpt lat="45.4005" lon="5.84362">
        <ele>872.79998779297</ele>
        <time>2019-10-09T05:57:30Z</time>
      </trkpt>
      <trkpt lat="45.40055" lon="5.84376">
        <ele>874.20001220703</ele>
        <time>2019-10-09T05:58:04Z</time>
      </trkpt>
      <trkpt lat="45.40052" lon="5.84372">
        <ele>874.20001220703</ele>
        <time>2019-10-09T05:58:06Z</time>
      </trkpt>
      <trkpt lat="45.40025" lon="5.84361">
        <ele>874.59997558594</ele>
        <time>2019-10-09T05:58:18Z</time>
      </trkpt>
      <trkpt lat="45.40004" lon="5.84364">
        <ele>875.79998779297</ele>
        <time>2019-10-09T05:58:26Z</time>
      </trkpt>
      <trkpt lat="45.3998" lon="5.84371">
        <ele>877.20001220703</ele>
        <time>2019-10-09T05:58:35Z</time>
      </trkpt>
      <trkpt lat="45.39944" lon="5.8438">
        <ele>879</ele>
        <time>2019-10-09T05:58:49Z</time>
      </trkpt>
      <trkpt lat="45.39922" lon="5.84384">
        <ele>880.20001220703</ele>
        <time>2019-10-09T05:58:58Z</time>
      </trkpt>
      <trkpt lat="45.39884" lon="5.84387">
        <ele>882.20001220703</ele>
        <time>2019-10-09T05:59:13Z</time>
      </trkpt>
      <trkpt lat="45.39862" lon="5.84381">
        <ele>883</ele>
        <time>2019-10-09T05:59:21Z</time>
      </trkpt>
      <trkpt lat="45.39818" lon="5.84365">
        <ele>885</ele>
        <time>2019-10-09T05:59:39Z</time>
      </trkpt>
      <trkpt lat="45.39792" lon="5.84354">
        <ele>885.59997558594</ele>
        <time>2019-10-09T05:59:50Z</time>
      </trkpt>
      <trkpt lat="45.39748" lon="5.84348">
        <ele>887.79998779297</ele>
        <time>2019-10-09T06:00:06Z</time>
      </trkpt>
      <trkpt lat="45.39733" lon="5.84347">
        <ele>888</ele>
        <time>2019-10-09T06:00:12Z</time>
      </trkpt>
      <trkpt lat="45.39706" lon="5.84341">
        <ele>890.20001220703</ele>
        <time>2019-10-09T06:00:26Z</time>
      </trkpt>
      <trkpt lat="45.39676" lon="5.84341">
        <ele>891.79998779297</ele>
        <time>2019-10-09T06:00:37Z</time>
      </trkpt>
      <trkpt lat="45.39658" lon="5.84372">
        <ele>893.20001220703</ele>
        <time>2019-10-09T06:00:48Z</time>
      </trkpt>
      <trkpt lat="45.39636" lon="5.84373">
        <ele>894.20001220703</ele>
        <time>2019-10-09T06:00:58Z</time>
      </trkpt>
      <trkpt lat="45.39627" lon="5.84367">
        <ele>895.20001220703</ele>
        <time>2019-10-09T06:01:05Z</time>
      </trkpt>
      <trkpt lat="45.39619" lon="5.84335">
        <ele>896.79998779297</ele>
        <time>2019-10-09T06:01:16Z</time>
      </trkpt>
      <trkpt lat="45.39603" lon="5.84307">
        <ele>897.79998779297</ele>
        <time>2019-10-09T06:01:26Z</time>
      </trkpt>
      <trkpt lat="45.39556" lon="5.84305">
        <ele>900.20001220703</ele>
        <time>2019-10-09T06:01:46Z</time>
      </trkpt>
      <trkpt lat="45.39539" lon="5.84304">
        <ele>901</ele>
        <time>2019-10-09T06:01:53Z</time>
      </trkpt>
      <trkpt lat="45.39503" lon="5.84301">
        <ele>902.40002441406</ele>
        <time>2019-10-09T06:02:08Z</time>
      </trkpt>
      <trkpt lat="45.39486" lon="5.84317">
        <ele>903.59997558594</ele>
        <time>2019-10-09T06:02:15Z</time>
      </trkpt>
      <trkpt lat="45.39463" lon="5.84356">
        <ele>905.40002441406</ele>
        <time>2019-10-09T06:02:29Z</time>
      </trkpt>
      <trkpt lat="45.39447" lon="5.84363">
        <ele>906.59997558594</ele>
        <time>2019-10-09T06:02:38Z</time>
      </trkpt>
      <trkpt lat="45.39418" lon="5.84362">
        <ele>908.40002441406</ele>
        <time>2019-10-09T06:02:51Z</time>
      </trkpt>
      <trkpt lat="45.39398" lon="5.84359">
        <ele>909.79998779297</ele>
        <time>2019-10-09T06:03:00Z</time>
      </trkpt>
      <trkpt lat="45.39364" lon="5.84391">
        <ele>911.20001220703</ele>
        <time>2019-10-09T06:03:18Z</time>
      </trkpt>
      <trkpt lat="45.39345" lon="5.84399">
        <ele>912.40002441406</ele>
        <time>2019-10-09T06:03:27Z</time>
      </trkpt>
      <trkpt lat="45.39318" lon="5.8441">
        <ele>914</ele>
        <time>2019-10-09T06:03:40Z</time>
      </trkpt>
      <trkpt lat="45.39296" lon="5.84417">
        <ele>915.40002441406</ele>
        <time>2019-10-09T06:03:50Z</time>
      </trkpt>
      <trkpt lat="45.39276" lon="5.84413">
        <ele>916.59997558594</ele>
        <time>2019-10-09T06:03:59Z</time>
      </trkpt>
      <trkpt lat="45.39255" lon="5.8438">
        <ele>918.40002441406</ele>
        <time>2019-10-09T06:04:14Z</time>
      </trkpt>
      <trkpt lat="45.39245" lon="5.84364">
        <ele>919.59997558594</ele>
        <time>2019-10-09T06:04:21Z</time>
      </trkpt>
      <trkpt lat="45.39226" lon="5.84333">
        <ele>921.40002441406</ele>
        <time>2019-10-09T06:04:35Z</time>
      </trkpt>
      <trkpt lat="45.39211" lon="5.84318">
        <ele>922.59997558594</ele>
        <time>2019-10-09T06:04:43Z</time>
      </trkpt>
      <trkpt lat="45.39192" lon="5.84318">
        <ele>922.79998779297</ele>
        <time>2019-10-09T06:04:53Z</time>
      </trkpt>
      <trkpt lat="45.39176" lon="5.84355">
        <ele>923.20001220703</ele>
        <time>2019-10-09T06:05:00Z</time>
      </trkpt>
      <trkpt lat="45.39178" lon="5.84392">
        <ele>925.20001220703</ele>
        <time>2019-10-09T06:05:11Z</time>
      </trkpt>
      <trkpt lat="45.39178" lon="5.84413">
        <ele>926.79998779297</ele>
        <time>2019-10-09T06:05:19Z</time>
      </trkpt>
      <trkpt lat="45.39178" lon="5.84452">
        <ele>927.79998779297</ele>
        <time>2019-10-09T06:05:28Z</time>
      </trkpt>
      <trkpt lat="45.39167" lon="5.84465">
        <ele>928.59997558594</ele>
        <time>2019-10-09T06:05:35Z</time>
      </trkpt>
      <trkpt lat="45.39132" lon="5.84484">
        <ele>931</ele>
        <time>2019-10-09T06:05:51Z</time>
      </trkpt>
      <trkpt lat="45.39112" lon="5.84489">
        <ele>931.79998779297</ele>
        <time>2019-10-09T06:05:59Z</time>
      </trkpt>
      <trkpt lat="45.391" lon="5.84492">
        <ele>932.40002441406</ele>
        <time>2019-10-09T06:06:05Z</time>
      </trkpt>
      <trkpt lat="45.39093" lon="5.84494">
        <ele>933.79998779297</ele>
        <time>2019-10-09T06:06:41Z</time>
      </trkpt>
      <trkpt lat="45.39083" lon="5.84497">
        <ele>933.79998779297</ele>
        <time>2019-10-09T06:06:45Z</time>
      </trkpt>
      <trkpt lat="45.39058" lon="5.84504">
        <ele>934.79998779297</ele>
        <time>2019-10-09T06:06:55Z</time>
      </trkpt>
      <trkpt lat="45.39049" lon="5.84506">
        <ele>935.40002441406</ele>
        <time>2019-10-09T06:06:59Z</time>
      </trkpt>
      <trkpt lat="45.39011" lon="5.84522">
        <ele>937.79998779297</ele>
        <time>2019-10-09T06:07:14Z</time>
      </trkpt>
      <trkpt lat="45.39003" lon="5.84523">
        <ele>938.40002441406</ele>
        <time>2019-10-09T06:07:17Z</time>
      </trkpt>
      <trkpt lat="45.38957" lon="5.84531">
        <ele>940.40002441406</ele>
        <time>2019-10-09T06:07:35Z</time>
      </trkpt>
      <trkpt lat="45.38938" lon="5.84525">
        <ele>941.40002441406</ele>
        <time>2019-10-09T06:07:44Z</time>
      </trkpt>
      <trkpt lat="45.38918" lon="5.84499">
        <ele>942.40002441406</ele>
        <time>2019-10-09T06:07:55Z</time>
      </trkpt>
      <trkpt lat="45.3891" lon="5.84485">
        <ele>943.20001220703</ele>
        <time>2019-10-09T06:08:01Z</time>
      </trkpt>
      <trkpt lat="45.38874" lon="5.84449">
        <ele>946.59997558594</ele>
        <time>2019-10-09T06:08:21Z</time>
      </trkpt>
      <trkpt lat="45.38848" lon="5.84437">
        <ele>948.40002441406</ele>
        <time>2019-10-09T06:08:33Z</time>
      </trkpt>
      <trkpt lat="45.38829" lon="5.84429">
        <ele>949.40002441406</ele>
        <time>2019-10-09T06:08:42Z</time>
      </trkpt>
      <trkpt lat="45.38784" lon="5.84441">
        <ele>951.40002441406</ele>
        <time>2019-10-09T06:09:00Z</time>
      </trkpt>
      <trkpt lat="45.38737" lon="5.84439">
        <ele>952.59997558594</ele>
        <time>2019-10-09T06:09:15Z</time>
      </trkpt>
      <trkpt lat="45.38696" lon="5.84446">
        <ele>953.20001220703</ele>
        <time>2019-10-09T06:09:29Z</time>
      </trkpt>
      <trkpt lat="45.38645" lon="5.84461">
        <ele>954.40002441406</ele>
        <time>2019-10-09T06:09:44Z</time>
      </trkpt>
      <trkpt lat="45.38619" lon="5.84431">
        <ele>955.40002441406</ele>
        <time>2019-10-09T06:09:56Z</time>
      </trkpt>
      <trkpt lat="45.38609" lon="5.84397">
        <ele>956</ele>
        <time>2019-10-09T06:10:04Z</time>
      </trkpt>
      <trkpt lat="45.38586" lon="5.84302">
        <ele>957.59997558594</ele>
        <time>2019-10-09T06:10:24Z</time>
      </trkpt>
      <trkpt lat="45.38574" lon="5.84271">
        <ele>957.79998779297</ele>
        <time>2019-10-09T06:10:31Z</time>
      </trkpt>
      <trkpt lat="45.38552" lon="5.84312">
        <ele>958.20001220703</ele>
        <time>2019-10-09T06:10:41Z</time>
      </trkpt>
      <trkpt lat="45.38548" lon="5.84329">
        <ele>958.40002441406</ele>
        <time>2019-10-09T06:10:47Z</time>
      </trkpt>
      <trkpt lat="45.38541" lon="5.84363">
        <ele>960.79998779297</ele>
        <time>2019-10-09T06:10:58Z</time>
      </trkpt>
      <trkpt lat="45.38535" lon="5.84387">
        <ele>962</ele>
        <time>2019-10-09T06:11:06Z</time>
      </trkpt>
      <trkpt lat="45.38527" lon="5.84416">
        <ele>963.59997558594</ele>
        <time>2019-10-09T06:11:16Z</time>
      </trkpt>
      <trkpt lat="45.38509" lon="5.84435">
        <ele>965</ele>
        <time>2019-10-09T06:11:24Z</time>
      </trkpt>
      <trkpt lat="45.38491" lon="5.84455">
        <ele>966.59997558594</ele>
        <time>2019-10-09T06:11:33Z</time>
      </trkpt>
      <trkpt lat="45.38467" lon="5.8447">
        <ele>967.79998779297</ele>
        <time>2019-10-09T06:11:43Z</time>
      </trkpt>
      <trkpt lat="45.38448" lon="5.84467">
        <ele>969.40002441406</ele>
        <time>2019-10-09T06:11:51Z</time>
      </trkpt>
      <trkpt lat="45.38415" lon="5.84458">
        <ele>971.59997558594</ele>
        <time>2019-10-09T06:12:05Z</time>
      </trkpt>
      <trkpt lat="45.38403" lon="5.84453">
        <ele>972.59997558594</ele>
        <time>2019-10-09T06:12:11Z</time>
      </trkpt>
      <trkpt lat="45.38358" lon="5.84454">
        <ele>975.79998779297</ele>
        <time>2019-10-09T06:12:31Z</time>
      </trkpt>
      <trkpt lat="45.38334" lon="5.84446">
        <ele>977</ele>
        <time>2019-10-09T06:12:42Z</time>
      </trkpt>
      <trkpt lat="45.38306" lon="5.84426">
        <ele>979.59997558594</ele>
        <time>2019-10-09T06:12:57Z</time>
      </trkpt>
      <trkpt lat="45.38276" lon="5.84408">
        <ele>981.59997558594</ele>
        <time>2019-10-09T06:13:11Z</time>
      </trkpt>
      <trkpt lat="45.38247" lon="5.84397">
        <ele>984</ele>
        <time>2019-10-09T06:13:25Z</time>
      </trkpt>
      <trkpt lat="45.38225" lon="5.84393">
        <ele>985.59997558594</ele>
        <time>2019-10-09T06:13:34Z</time>
      </trkpt>
      <trkpt lat="45.38195" lon="5.84399">
        <ele>987</ele>
        <time>2019-10-09T06:13:48Z</time>
      </trkpt>
      <trkpt lat="45.38169" lon="5.84405">
        <ele>988.59997558594</ele>
        <time>2019-10-09T06:13:59Z</time>
      </trkpt>
      <trkpt lat="45.38142" lon="5.8441">
        <ele>989.40002441406</ele>
        <time>2019-10-09T06:14:10Z</time>
      </trkpt>
      <trkpt lat="45.38116" lon="5.84427">
        <ele>990.40002441406</ele>
        <time>2019-10-09T06:14:22Z</time>
      </trkpt>
      <trkpt lat="45.38084" lon="5.84443">
        <ele>992</ele>
        <time>2019-10-09T06:14:36Z</time>
      </trkpt>
      <trkpt lat="45.38043" lon="5.84446">
        <ele>993.40002441406</ele>
        <time>2019-10-09T06:14:50Z</time>
      </trkpt>
      <trkpt lat="45.37993" lon="5.84435">
        <ele>995.20001220703</ele>
        <time>2019-10-09T06:15:08Z</time>
      </trkpt>
      <trkpt lat="45.37959" lon="5.84413">
        <ele>997.40002441406</ele>
        <time>2019-10-09T06:15:24Z</time>
      </trkpt>
      <trkpt lat="45.37939" lon="5.844">
        <ele>998.59997558594</ele>
        <time>2019-10-09T06:15:33Z</time>
      </trkpt>
      <trkpt lat="45.37909" lon="5.84373">
        <ele>1000.799987793</ele>
        <time>2019-10-09T06:15:49Z</time>
      </trkpt>
      <trkpt lat="45.37896" lon="5.84363">
        <ele>1002</ele>
        <time>2019-10-09T06:15:56Z</time>
      </trkpt>
      <trkpt lat="45.37865" lon="5.84345">
        <ele>1003.799987793</ele>
        <time>2019-10-09T06:16:12Z</time>
      </trkpt>
      <trkpt lat="45.37841" lon="5.84331">
        <ele>1005.200012207</ele>
        <time>2019-10-09T06:16:23Z</time>
      </trkpt>
      <trkpt lat="45.3781" lon="5.84312">
        <ele>1006.799987793</ele>
        <time>2019-10-09T06:16:38Z</time>
      </trkpt>
      <trkpt lat="45.37789" lon="5.84296">
        <ele>1008</ele>
        <time>2019-10-09T06:16:48Z</time>
      </trkpt>
      <trkpt lat="45.37766" lon="5.84278">
        <ele>1009.200012207</ele>
        <time>2019-10-09T06:17:00Z</time>
      </trkpt>
      <trkpt lat="45.37732" lon="5.84252">
        <ele>1011</ele>
        <time>2019-10-09T06:17:18Z</time>
      </trkpt>
      <trkpt lat="45.37704" lon="5.8423">
        <ele>1012.4000244141</ele>
        <time>2019-10-09T06:17:32Z</time>
      </trkpt>
      <trkpt lat="45.37674" lon="5.84196">
        <ele>1013.5999755859</ele>
        <time>2019-10-09T06:17:49Z</time>
      </trkpt>
      <trkpt lat="45.37657" lon="5.84177">
        <ele>1014.5999755859</ele>
        <time>2019-10-09T06:17:59Z</time>
      </trkpt>
      <trkpt lat="45.37637" lon="5.84157">
        <ele>1016.799987793</ele>
        <time>2019-10-09T06:18:11Z</time>
      </trkpt>
      <trkpt lat="45.37624" lon="5.84147">
        <ele>1018.200012207</ele>
        <time>2019-10-09T06:18:19Z</time>
      </trkpt>
      <trkpt lat="45.37605" lon="5.8413">
        <ele>1020.4000244141</ele>
        <time>2019-10-09T06:18:31Z</time>
      </trkpt>
      <trkpt lat="45.37595" lon="5.84122">
        <ele>1021.4000244141</ele>
        <time>2019-10-09T06:18:38Z</time>
      </trkpt>
      <trkpt lat="45.37568" lon="5.84104">
        <ele>1023.799987793</ele>
        <time>2019-10-09T06:18:53Z</time>
      </trkpt>
      <trkpt lat="45.37554" lon="5.84096">
        <ele>1025</ele>
        <time>2019-10-09T06:19:00Z</time>
      </trkpt>
      <trkpt lat="45.3753" lon="5.84079">
        <ele>1027</ele>
        <time>2019-10-09T06:19:14Z</time>
      </trkpt>
      <trkpt lat="45.37512" lon="5.84065">
        <ele>1029</ele>
        <time>2019-10-09T06:19:25Z</time>
      </trkpt>
      <trkpt lat="45.375" lon="5.84057">
        <ele>1029.8000488281</ele>
        <time>2019-10-09T06:19:32Z</time>
      </trkpt>
      <trkpt lat="45.37481" lon="5.84049">
        <ele>1031.5999755859</ele>
        <time>2019-10-09T06:19:42Z</time>
      </trkpt>
      <trkpt lat="45.37466" lon="5.84046">
        <ele>1033</ele>
        <time>2019-10-09T06:19:50Z</time>
      </trkpt>
      <trkpt lat="45.37444" lon="5.84042">
        <ele>1034.5999755859</ele>
        <time>2019-10-09T06:20:01Z</time>
      </trkpt>
      <trkpt lat="45.37428" lon="5.84039">
        <ele>1036</ele>
        <time>2019-10-09T06:20:09Z</time>
      </trkpt>
      <trkpt lat="45.37401" lon="5.84032">
        <ele>1038</ele>
        <time>2019-10-09T06:20:22Z</time>
      </trkpt>
      <trkpt lat="45.37393" lon="5.8403">
        <ele>1039.1999511719</ele>
        <time>2019-10-09T06:20:27Z</time>
      </trkpt>
      <trkpt lat="45.3737" lon="5.84024">
        <ele>1041.8000488281</ele>
        <time>2019-10-09T06:20:41Z</time>
      </trkpt>
      <trkpt lat="45.37359" lon="5.8402">
        <ele>1042.4000244141</ele>
        <time>2019-10-09T06:20:47Z</time>
      </trkpt>
      <trkpt lat="45.37333" lon="5.8401">
        <ele>1045</ele>
        <time>2019-10-09T06:21:03Z</time>
      </trkpt>
      <trkpt lat="45.37318" lon="5.84001">
        <ele>1046.8000488281</ele>
        <time>2019-10-09T06:21:14Z</time>
      </trkpt>
      <trkpt lat="45.37298" lon="5.83989">
        <ele>1048.8000488281</ele>
        <time>2019-10-09T06:21:26Z</time>
      </trkpt>
      <trkpt lat="45.37282" lon="5.83977">
        <ele>1050.8000488281</ele>
        <time>2019-10-09T06:21:36Z</time>
      </trkpt>
      <trkpt lat="45.37264" lon="5.83962">
        <ele>1052.5999755859</ele>
        <time>2019-10-09T06:21:46Z</time>
      </trkpt>
      <trkpt lat="45.37247" lon="5.83948">
        <ele>1054.4000244141</ele>
        <time>2019-10-09T06:21:57Z</time>
      </trkpt>
      <trkpt lat="45.37229" lon="5.83931">
        <ele>1056</ele>
        <time>2019-10-09T06:22:07Z</time>
      </trkpt>
      <trkpt lat="45.37207" lon="5.83909">
        <ele>1058.4000244141</ele>
        <time>2019-10-09T06:22:21Z</time>
      </trkpt>
      <trkpt lat="45.37189" lon="5.83892">
        <ele>1060.1999511719</ele>
        <time>2019-10-09T06:22:32Z</time>
      </trkpt>
      <trkpt lat="45.37171" lon="5.83871">
        <ele>1062.1999511719</ele>
        <time>2019-10-09T06:22:44Z</time>
      </trkpt>
      <trkpt lat="45.37159" lon="5.8386">
        <ele>1063.1999511719</ele>
        <time>2019-10-09T06:22:52Z</time>
      </trkpt>
      <trkpt lat="45.37136" lon="5.83843">
        <ele>1065.4000244141</ele>
        <time>2019-10-09T06:23:06Z</time>
      </trkpt>
      <trkpt lat="45.37124" lon="5.8384">
        <ele>1066</ele>
        <time>2019-10-09T06:23:13Z</time>
      </trkpt>
      <trkpt lat="45.3711" lon="5.83848">
        <ele>1067.4000244141</ele>
        <time>2019-10-09T06:23:21Z</time>
      </trkpt>
      <trkpt lat="45.37095" lon="5.83855">
        <ele>1068.8000488281</ele>
        <time>2019-10-09T06:23:28Z</time>
      </trkpt>
      <trkpt lat="45.37079" lon="5.83851">
        <ele>1070.1999511719</ele>
        <time>2019-10-09T06:23:37Z</time>
      </trkpt>
      <trkpt lat="45.37072" lon="5.83841">
        <ele>1071.5999755859</ele>
        <time>2019-10-09T06:23:44Z</time>
      </trkpt>
      <trkpt lat="45.37059" lon="5.8382">
        <ele>1073.4000244141</ele>
        <time>2019-10-09T06:23:54Z</time>
      </trkpt>
      <trkpt lat="45.3705" lon="5.83801">
        <ele>1075.8000488281</ele>
        <time>2019-10-09T06:24:03Z</time>
      </trkpt>
      <trkpt lat="45.3704" lon="5.83782">
        <ele>1077.1999511719</ele>
        <time>2019-10-09T06:24:13Z</time>
      </trkpt>
      <trkpt lat="45.37025" lon="5.83759">
        <ele>1079.1999511719</ele>
        <time>2019-10-09T06:24:25Z</time>
      </trkpt>
      <trkpt lat="45.37011" lon="5.83741">
        <ele>1081.1999511719</ele>
        <time>2019-10-09T06:24:35Z</time>
      </trkpt>
      <trkpt lat="45.36999" lon="5.83724">
        <ele>1083</ele>
        <time>2019-10-09T06:24:46Z</time>
      </trkpt>
      <trkpt lat="45.36984" lon="5.83707">
        <ele>1084.8000488281</ele>
        <time>2019-10-09T06:24:57Z</time>
      </trkpt>
      <trkpt lat="45.36966" lon="5.83692">
        <ele>1087.1999511719</ele>
        <time>2019-10-09T06:25:09Z</time>
      </trkpt>
      <trkpt lat="45.36953" lon="5.83684">
        <ele>1088.8000488281</ele>
        <time>2019-10-09T06:25:17Z</time>
      </trkpt>
      <trkpt lat="45.36932" lon="5.83677">
        <ele>1090.5999755859</ele>
        <time>2019-10-09T06:25:29Z</time>
      </trkpt>
      <trkpt lat="45.36912" lon="5.83671">
        <ele>1093</ele>
        <time>2019-10-09T06:25:41Z</time>
      </trkpt>
      <trkpt lat="45.36886" lon="5.83663">
        <ele>1095.1999511719</ele>
        <time>2019-10-09T06:25:56Z</time>
      </trkpt>
      <trkpt lat="45.36872" lon="5.83656">
        <ele>1096.8000488281</ele>
        <time>2019-10-09T06:26:05Z</time>
      </trkpt>
      <trkpt lat="45.36852" lon="5.83639">
        <ele>1099.1999511719</ele>
        <time>2019-10-09T06:26:19Z</time>
      </trkpt>
      <trkpt lat="45.36837" lon="5.83627">
        <ele>1101.1999511719</ele>
        <time>2019-10-09T06:26:29Z</time>
      </trkpt>
      <trkpt lat="45.36828" lon="5.83619">
        <ele>1102.4000244141</ele>
        <time>2019-10-09T06:26:36Z</time>
      </trkpt>
      <trkpt lat="45.36812" lon="5.836">
        <ele>1104.8000488281</ele>
        <time>2019-10-09T06:26:48Z</time>
      </trkpt>
      <trkpt lat="45.36807" lon="5.83592">
        <ele>1105.8000488281</ele>
        <time>2019-10-09T06:26:53Z</time>
      </trkpt>
      <trkpt lat="45.36799" lon="5.83563">
        <ele>1108</ele>
        <time>2019-10-09T06:27:05Z</time>
      </trkpt>
      <trkpt lat="45.36794" lon="5.83543">
        <ele>1109.1999511719</ele>
        <time>2019-10-09T06:27:11Z</time>
      </trkpt>
      <trkpt lat="45.36779" lon="5.83512">
        <ele>1111.5999755859</ele>
        <time>2019-10-09T06:27:26Z</time>
      </trkpt>
      <trkpt lat="45.36771" lon="5.83504">
        <ele>1112.5999755859</ele>
        <time>2019-10-09T06:27:31Z</time>
      </trkpt>
      <trkpt lat="45.36753" lon="5.83486">
        <ele>1115</ele>
        <time>2019-10-09T06:27:43Z</time>
      </trkpt>
      <trkpt lat="45.3673" lon="5.83472">
        <ele>1117</ele>
        <time>2019-10-09T06:27:57Z</time>
      </trkpt>
      <trkpt lat="45.36712" lon="5.83466">
        <ele>1119</ele>
        <time>2019-10-09T06:28:08Z</time>
      </trkpt>
      <trkpt lat="45.36696" lon="5.83461">
        <ele>1120.4000244141</ele>
        <time>2019-10-09T06:28:16Z</time>
      </trkpt>
      <trkpt lat="45.36675" lon="5.83456">
        <ele>1122.1999511719</ele>
        <time>2019-10-09T06:28:28Z</time>
      </trkpt>
      <trkpt lat="45.36666" lon="5.83454">
        <ele>1123.1999511719</ele>
        <time>2019-10-09T06:28:33Z</time>
      </trkpt>
      <trkpt lat="45.3665" lon="5.8345">
        <ele>1124.8000488281</ele>
        <time>2019-10-09T06:28:42Z</time>
      </trkpt>
      <trkpt lat="45.3663" lon="5.83446">
        <ele>1126.5999755859</ele>
        <time>2019-10-09T06:28:53Z</time>
      </trkpt>
      <trkpt lat="45.36615" lon="5.83443">
        <ele>1128</ele>
        <time>2019-10-09T06:29:01Z</time>
      </trkpt>
      <trkpt lat="45.36595" lon="5.83439">
        <ele>1129.8000488281</ele>
        <time>2019-10-09T06:29:13Z</time>
      </trkpt>
      <trkpt lat="45.3658" lon="5.83433">
        <ele>1131.5999755859</ele>
        <time>2019-10-09T06:29:21Z</time>
      </trkpt>
      <trkpt lat="45.36559" lon="5.83421">
        <ele>1134</ele>
        <time>2019-10-09T06:29:34Z</time>
      </trkpt>
      <trkpt lat="45.36553" lon="5.83417">
        <ele>1135.4000244141</ele>
        <time>2019-10-09T06:30:03Z</time>
      </trkpt>
      <trkpt lat="45.36547" lon="5.83413">
        <ele>1135.8000488281</ele>
        <time>2019-10-09T06:30:11Z</time>
      </trkpt>
      <trkpt lat="45.36542" lon="5.8341">
        <ele>1136.5999755859</ele>
        <time>2019-10-09T06:30:51Z</time>
      </trkpt>
      <trkpt lat="45.36534" lon="5.83404">
        <ele>1136.5999755859</ele>
        <time>2019-10-09T06:30:56Z</time>
      </trkpt>
      <trkpt lat="45.36517" lon="5.83392">
        <ele>1136.5999755859</ele>
        <time>2019-10-09T06:31:01Z</time>
      </trkpt>
      <trkpt lat="45.36489" lon="5.83369">
        <ele>1135.8000488281</ele>
        <time>2019-10-09T06:31:06Z</time>
      </trkpt>
      <trkpt lat="45.36479" lon="5.8336">
        <ele>1135.4000244141</ele>
        <time>2019-10-09T06:31:08Z</time>
      </trkpt>
      <trkpt lat="45.36434" lon="5.8332">
        <ele>1132.5999755859</ele>
        <time>2019-10-09T06:31:15Z</time>
      </trkpt>
      <trkpt lat="45.36407" lon="5.83289">
        <ele>1129.8000488281</ele>
        <time>2019-10-09T06:31:19Z</time>
      </trkpt>
      <trkpt lat="45.36386" lon="5.83254">
        <ele>1128</ele>
        <time>2019-10-09T06:31:22Z</time>
      </trkpt>
      <trkpt lat="45.3636" lon="5.83202">
        <ele>1125.5999755859</ele>
        <time>2019-10-09T06:31:26Z</time>
      </trkpt>
      <trkpt lat="45.36345" lon="5.83179">
        <ele>1123.8000488281</ele>
        <time>2019-10-09T06:31:28Z</time>
      </trkpt>
      <trkpt lat="45.3631" lon="5.83139">
        <ele>1120</ele>
        <time>2019-10-09T06:31:32Z</time>
      </trkpt>
      <trkpt lat="45.36263" lon="5.83086">
        <ele>1116.1999511719</ele>
        <time>2019-10-09T06:31:37Z</time>
      </trkpt>
      <trkpt lat="45.36222" lon="5.8304">
        <ele>1112.5999755859</ele>
        <time>2019-10-09T06:31:41Z</time>
      </trkpt>
      <trkpt lat="45.36193" lon="5.83016">
        <ele>1110.1999511719</ele>
        <time>2019-10-09T06:31:44Z</time>
      </trkpt>
      <trkpt lat="45.36144" lon="5.82998">
        <ele>1105.4000244141</ele>
        <time>2019-10-09T06:31:49Z</time>
      </trkpt>
      <trkpt lat="45.36125" lon="5.82994">
        <ele>1102.8000488281</ele>
        <time>2019-10-09T06:31:51Z</time>
      </trkpt>
      <trkpt lat="45.36093" lon="5.82989">
        <ele>1099.5999755859</ele>
        <time>2019-10-09T06:31:54Z</time>
      </trkpt>
      <trkpt lat="45.36068" lon="5.82987">
        <ele>1098.1999511719</ele>
        <time>2019-10-09T06:31:56Z</time>
      </trkpt>
      <trkpt lat="45.36018" lon="5.82983">
        <ele>1095.8000488281</ele>
        <time>2019-10-09T06:32:00Z</time>
      </trkpt>
      <trkpt lat="45.35998" lon="5.8298">
        <ele>1094</ele>
        <time>2019-10-09T06:32:02Z</time>
      </trkpt>
      <trkpt lat="45.35978" lon="5.82979">
        <ele>1091.1999511719</ele>
        <time>2019-10-09T06:32:04Z</time>
      </trkpt>
      <trkpt lat="45.35951" lon="5.82981">
        <ele>1087.1999511719</ele>
        <time>2019-10-09T06:32:07Z</time>
      </trkpt>
      <trkpt lat="45.35934" lon="5.82983">
        <ele>1084.4000244141</ele>
        <time>2019-10-09T06:32:09Z</time>
      </trkpt>
      <trkpt lat="45.35909" lon="5.82989">
        <ele>1080.1999511719</ele>
        <time>2019-10-09T06:32:12Z</time>
      </trkpt>
      <trkpt lat="45.35891" lon="5.83">
        <ele>1078</ele>
        <time>2019-10-09T06:32:14Z</time>
      </trkpt>
      <trkpt lat="45.35871" lon="5.82999">
        <ele>1074.5999755859</ele>
        <time>2019-10-09T06:32:17Z</time>
      </trkpt>
      <trkpt lat="45.35858" lon="5.82992">
        <ele>1072</ele>
        <time>2019-10-09T06:32:19Z</time>
      </trkpt>
      <trkpt lat="45.35835" lon="5.82957">
        <ele>1067.5999755859</ele>
        <time>2019-10-09T06:32:23Z</time>
      </trkpt>
      <trkpt lat="45.35814" lon="5.82923">
        <ele>1065.1999511719</ele>
        <time>2019-10-09T06:32:26Z</time>
      </trkpt>
      <trkpt lat="45.35795" lon="5.8289">
        <ele>1062.4000244141</ele>
        <time>2019-10-09T06:32:29Z</time>
      </trkpt>
      <trkpt lat="45.35787" lon="5.82859">
        <ele>1060.5999755859</ele>
        <time>2019-10-09T06:32:31Z</time>
      </trkpt>
      <trkpt lat="45.3578" lon="5.828">
        <ele>1056</ele>
        <time>2019-10-09T06:32:35Z</time>
      </trkpt>
      <trkpt lat="45.35774" lon="5.82772">
        <ele>1053.5999755859</ele>
        <time>2019-10-09T06:32:37Z</time>
      </trkpt>
      <trkpt lat="45.35767" lon="5.82745">
        <ele>1050.8000488281</ele>
        <time>2019-10-09T06:32:39Z</time>
      </trkpt>
      <trkpt lat="45.35743" lon="5.82696">
        <ele>1046</ele>
        <time>2019-10-09T06:32:43Z</time>
      </trkpt>
      <trkpt lat="45.35727" lon="5.82679">
        <ele>1043.8000488281</ele>
        <time>2019-10-09T06:32:45Z</time>
      </trkpt>
      <trkpt lat="45.35701" lon="5.82651">
        <ele>1038.8000488281</ele>
        <time>2019-10-09T06:32:49Z</time>
      </trkpt>
      <trkpt lat="45.35695" lon="5.82604">
        <ele>1035.1999511719</ele>
        <time>2019-10-09T06:32:53Z</time>
      </trkpt>
      <trkpt lat="45.35694" lon="5.82572">
        <ele>1030.5999755859</ele>
        <time>2019-10-09T06:32:57Z</time>
      </trkpt>
      <trkpt lat="45.35683" lon="5.82564">
        <ele>1028.4000244141</ele>
        <time>2019-10-09T06:32:59Z</time>
      </trkpt>
      <trkpt lat="45.35647" lon="5.82555">
        <ele>1024.1999511719</ele>
        <time>2019-10-09T06:33:03Z</time>
      </trkpt>
      <trkpt lat="45.35627" lon="5.82543">
        <ele>1022.4000244141</ele>
        <time>2019-10-09T06:33:05Z</time>
      </trkpt>
      <trkpt lat="45.3559" lon="5.82515">
        <ele>1018.4000244141</ele>
        <time>2019-10-09T06:33:09Z</time>
      </trkpt>
      <trkpt lat="45.35573" lon="5.82501">
        <ele>1016.5999755859</ele>
        <time>2019-10-09T06:33:11Z</time>
      </trkpt>
      <trkpt lat="45.35529" lon="5.82464">
        <ele>1012</ele>
        <time>2019-10-09T06:33:16Z</time>
      </trkpt>
      <trkpt lat="45.35503" lon="5.82441">
        <ele>1008.5999755859</ele>
        <time>2019-10-09T06:33:19Z</time>
      </trkpt>
      <trkpt lat="45.35468" lon="5.82407">
        <ele>1004.4000244141</ele>
        <time>2019-10-09T06:33:23Z</time>
      </trkpt>
      <trkpt lat="45.35449" lon="5.82389">
        <ele>1002.200012207</ele>
        <time>2019-10-09T06:33:25Z</time>
      </trkpt>
      <trkpt lat="45.35431" lon="5.82369">
        <ele>1000.200012207</ele>
        <time>2019-10-09T06:33:27Z</time>
      </trkpt>
      <trkpt lat="45.35403" lon="5.82326">
        <ele>995.40002441406</ele>
        <time>2019-10-09T06:33:31Z</time>
      </trkpt>
      <trkpt lat="45.35383" lon="5.82297">
        <ele>991.79998779297</ele>
        <time>2019-10-09T06:33:34Z</time>
      </trkpt>
      <trkpt lat="45.35358" lon="5.82271">
        <ele>988</ele>
        <time>2019-10-09T06:33:37Z</time>
      </trkpt>
      <trkpt lat="45.35326" lon="5.82252">
        <ele>986</ele>
        <time>2019-10-09T06:33:40Z</time>
      </trkpt>
      <trkpt lat="45.35294" lon="5.82245">
        <ele>983</ele>
        <time>2019-10-09T06:33:43Z</time>
      </trkpt>
      <trkpt lat="45.35274" lon="5.82226">
        <ele>979.59997558594</ele>
        <time>2019-10-09T06:33:46Z</time>
      </trkpt>
      <trkpt lat="45.35258" lon="5.82206">
        <ele>976</ele>
        <time>2019-10-09T06:33:49Z</time>
      </trkpt>
      <trkpt lat="45.35234" lon="5.82192">
        <ele>972.79998779297</ele>
        <time>2019-10-09T06:33:52Z</time>
      </trkpt>
      <trkpt lat="45.3521" lon="5.82168">
        <ele>969.79998779297</ele>
        <time>2019-10-09T06:33:55Z</time>
      </trkpt>
      <trkpt lat="45.35186" lon="5.82141">
        <ele>967.40002441406</ele>
        <time>2019-10-09T06:33:58Z</time>
      </trkpt>
      <trkpt lat="45.35156" lon="5.82103">
        <ele>963.79998779297</ele>
        <time>2019-10-09T06:34:02Z</time>
      </trkpt>
      <trkpt lat="45.35144" lon="5.82086">
        <ele>961.79998779297</ele>
        <time>2019-10-09T06:34:04Z</time>
      </trkpt>
      <trkpt lat="45.35132" lon="5.82062">
        <ele>961</ele>
        <time>2019-10-09T06:34:06Z</time>
      </trkpt>
      <trkpt lat="45.35111" lon="5.82012">
        <ele>956.79998779297</ele>
        <time>2019-10-09T06:34:10Z</time>
      </trkpt>
      <trkpt lat="45.35098" lon="5.81977">
        <ele>953.20001220703</ele>
        <time>2019-10-09T06:34:13Z</time>
      </trkpt>
      <trkpt lat="45.35073" lon="5.81955">
        <ele>948.79998779297</ele>
        <time>2019-10-09T06:34:17Z</time>
      </trkpt>
      <trkpt lat="45.35046" lon="5.81957">
        <ele>945.79998779297</ele>
        <time>2019-10-09T06:34:20Z</time>
      </trkpt>
      <trkpt lat="45.34997" lon="5.81954">
        <ele>941.79998779297</ele>
        <time>2019-10-09T06:34:25Z</time>
      </trkpt>
      <trkpt lat="45.3495" lon="5.81931">
        <ele>939.59997558594</ele>
        <time>2019-10-09T06:34:30Z</time>
      </trkpt>
      <trkpt lat="45.34893" lon="5.8191">
        <ele>936.59997558594</ele>
        <time>2019-10-09T06:34:36Z</time>
      </trkpt>
      <trkpt lat="45.34868" lon="5.81894">
        <ele>934.79998779297</ele>
        <time>2019-10-09T06:34:39Z</time>
      </trkpt>
      <trkpt lat="45.34851" lon="5.81863">
        <ele>933.20001220703</ele>
        <time>2019-10-09T06:34:42Z</time>
      </trkpt>
      <trkpt lat="45.34834" lon="5.81828">
        <ele>931.40002441406</ele>
        <time>2019-10-09T06:34:45Z</time>
      </trkpt>
      <trkpt lat="45.34808" lon="5.81782">
        <ele>929.59997558594</ele>
        <time>2019-10-09T06:34:49Z</time>
      </trkpt>
      <trkpt lat="45.34789" lon="5.81751">
        <ele>927.59997558594</ele>
        <time>2019-10-09T06:34:52Z</time>
      </trkpt>
      <trkpt lat="45.3476" lon="5.81717">
        <ele>925.20001220703</ele>
        <time>2019-10-09T06:34:56Z</time>
      </trkpt>
      <trkpt lat="45.34738" lon="5.81704">
        <ele>922.40002441406</ele>
        <time>2019-10-09T06:34:59Z</time>
      </trkpt>
      <trkpt lat="45.34723" lon="5.817">
        <ele>920.79998779297</ele>
        <time>2019-10-09T06:35:01Z</time>
      </trkpt>
      <trkpt lat="45.34653" lon="5.81681">
        <ele>914.59997558594</ele>
        <time>2019-10-09T06:35:09Z</time>
      </trkpt>
      <trkpt lat="45.34619" lon="5.81686">
        <ele>911.40002441406</ele>
        <time>2019-10-09T06:35:14Z</time>
      </trkpt>
      <trkpt lat="45.34586" lon="5.8169">
        <ele>909.20001220703</ele>
        <time>2019-10-09T06:35:20Z</time>
      </trkpt>
      <trkpt lat="45.34581" lon="5.81687">
        <ele>907.79998779297</ele>
        <time>2019-10-09T06:35:25Z</time>
      </trkpt>
      <trkpt lat="45.34582" lon="5.81675">
        <ele>906.79998779297</ele>
        <time>2019-10-09T06:35:31Z</time>
      </trkpt>
      <trkpt lat="45.34584" lon="5.81658">
        <ele>906.20001220703</ele>
        <time>2019-10-09T06:35:34Z</time>
      </trkpt>
      <trkpt lat="45.34583" lon="5.81633">
        <ele>905.79998779297</ele>
        <time>2019-10-09T06:35:38Z</time>
      </trkpt>
      <trkpt lat="45.34558" lon="5.8162">
        <ele>902</ele>
        <time>2019-10-09T06:35:48Z</time>
      </trkpt>
      <trkpt lat="45.3453" lon="5.81614">
        <ele>900.79998779297</ele>
        <time>2019-10-09T06:35:58Z</time>
      </trkpt>
      <trkpt lat="45.34494" lon="5.81606">
        <ele>900.40002441406</ele>
        <time>2019-10-09T06:36:04Z</time>
      </trkpt>
      <trkpt lat="45.34451" lon="5.81595">
        <ele>899.40002441406</ele>
        <time>2019-10-09T06:36:10Z</time>
      </trkpt>
      <trkpt lat="45.34416" lon="5.81572">
        <ele>897.59997558594</ele>
        <time>2019-10-09T06:36:15Z</time>
      </trkpt>
      <trkpt lat="45.34406" lon="5.81562">
        <ele>896.79998779297</ele>
        <time>2019-10-09T06:36:17Z</time>
      </trkpt>
      <trkpt lat="45.34374" lon="5.81529">
        <ele>894.79998779297</ele>
        <time>2019-10-09T06:36:24Z</time>
      </trkpt>
      <trkpt lat="45.34356" lon="5.81512">
        <ele>893</ele>
        <time>2019-10-09T06:36:29Z</time>
      </trkpt>
      <trkpt lat="45.34341" lon="5.81489">
        <ele>891.20001220703</ele>
        <time>2019-10-09T06:36:35Z</time>
      </trkpt>
      <trkpt lat="45.34328" lon="5.81473">
        <ele>889.79998779297</ele>
        <time>2019-10-09T06:36:40Z</time>
      </trkpt>
      <trkpt lat="45.34302" lon="5.81462">
        <ele>888.40002441406</ele>
        <time>2019-10-09T06:36:46Z</time>
      </trkpt>
      <trkpt lat="45.34279" lon="5.81442">
        <ele>886.20001220703</ele>
        <time>2019-10-09T06:36:56Z</time>
      </trkpt>
      <trkpt lat="45.34278" lon="5.81445">
        <ele>885.79998779297</ele>
        <time>2019-10-09T06:37:02Z</time>
      </trkpt>
      <trkpt lat="45.34269" lon="5.81433">
        <ele>884</ele>
        <time>2019-10-09T06:43:53Z</time>
      </trkpt>
      <trkpt lat="45.34261" lon="5.81427">
        <ele>884.40002441406</ele>
        <time>2019-10-09T06:44:00Z</time>
      </trkpt>
      <trkpt lat="45.34244" lon="5.81411">
        <ele>884.40002441406</ele>
        <time>2019-10-09T06:44:06Z</time>
      </trkpt>
      <trkpt lat="45.34225" lon="5.814">
        <ele>883.59997558594</ele>
        <time>2019-10-09T06:44:14Z</time>
      </trkpt>
      <trkpt lat="45.34212" lon="5.81407">
        <ele>883.20001220703</ele>
        <time>2019-10-09T06:44:20Z</time>
      </trkpt>
      <trkpt lat="45.3421" lon="5.81423">
        <ele>882.59997558594</ele>
        <time>2019-10-09T06:44:30Z</time>
      </trkpt>
      <trkpt lat="45.34208" lon="5.81451">
        <ele>883</ele>
        <time>2019-10-09T06:44:46Z</time>
      </trkpt>
      <trkpt lat="45.34197" lon="5.81477">
        <ele>883.40002441406</ele>
        <time>2019-10-09T06:44:55Z</time>
      </trkpt>
      <trkpt lat="45.34188" lon="5.81494">
        <ele>884</ele>
        <time>2019-10-09T06:45:02Z</time>
      </trkpt>
      <trkpt lat="45.3418" lon="5.81507">
        <ele>884.40002441406</ele>
        <time>2019-10-09T06:45:10Z</time>
      </trkpt>
      <trkpt lat="45.34151" lon="5.81523">
        <ele>885.40002441406</ele>
        <time>2019-10-09T06:45:22Z</time>
      </trkpt>
      <trkpt lat="45.34154" lon="5.81543">
        <ele>886</ele>
        <time>2019-10-09T06:45:28Z</time>
      </trkpt>
      <trkpt lat="45.34169" lon="5.81578">
        <ele>887.40002441406</ele>
        <time>2019-10-09T06:45:41Z</time>
      </trkpt>
      <trkpt lat="45.3417" lon="5.81591">
        <ele>888.40002441406</ele>
        <time>2019-10-09T06:45:47Z</time>
      </trkpt>
      <trkpt lat="45.34145" lon="5.81671">
        <ele>889.20001220703</ele>
        <time>2019-10-09T06:46:06Z</time>
      </trkpt>
      <trkpt lat="45.34128" lon="5.81723">
        <ele>889.20001220703</ele>
        <time>2019-10-09T06:46:16Z</time>
      </trkpt>
      <trkpt lat="45.34111" lon="5.81771">
        <ele>889.40002441406</ele>
        <time>2019-10-09T06:46:27Z</time>
      </trkpt>
      <trkpt lat="45.341" lon="5.81814">
        <ele>890</ele>
        <time>2019-10-09T06:46:37Z</time>
      </trkpt>
      <trkpt lat="45.34095" lon="5.81853">
        <ele>890.20001220703</ele>
        <time>2019-10-09T06:46:44Z</time>
      </trkpt>
      <trkpt lat="45.34087" lon="5.81927">
        <ele>888.79998779297</ele>
        <time>2019-10-09T06:46:53Z</time>
      </trkpt>
      <trkpt lat="45.34064" lon="5.81986">
        <ele>887</ele>
        <time>2019-10-09T06:47:01Z</time>
      </trkpt>
      <trkpt lat="45.34024" lon="5.82043">
        <ele>886</ele>
        <time>2019-10-09T06:47:11Z</time>
      </trkpt>
      <trkpt lat="45.34003" lon="5.82074">
        <ele>885.59997558594</ele>
        <time>2019-10-09T06:47:17Z</time>
      </trkpt>
      <trkpt lat="45.33981" lon="5.82127">
        <ele>885.40002441406</ele>
        <time>2019-10-09T06:47:26Z</time>
      </trkpt>
      <trkpt lat="45.33973" lon="5.82145">
        <ele>885.40002441406</ele>
        <time>2019-10-09T06:47:29Z</time>
      </trkpt>
      <trkpt lat="45.33962" lon="5.82172">
        <ele>885.59997558594</ele>
        <time>2019-10-09T06:47:34Z</time>
      </trkpt>
      <trkpt lat="45.33938" lon="5.82206">
        <ele>885.59997558594</ele>
        <time>2019-10-09T06:47:40Z</time>
      </trkpt>
      <trkpt lat="45.33895" lon="5.82258">
        <ele>884.20001220703</ele>
        <time>2019-10-09T06:47:50Z</time>
      </trkpt>
      <trkpt lat="45.3388" lon="5.82276">
        <ele>884.40002441406</ele>
        <time>2019-10-09T06:47:55Z</time>
      </trkpt>
      <trkpt lat="45.33861" lon="5.82315">
        <ele>886</ele>
        <time>2019-10-09T06:48:05Z</time>
      </trkpt>
      <trkpt lat="45.33851" lon="5.82345">
        <ele>886.40002441406</ele>
        <time>2019-10-09T06:48:12Z</time>
      </trkpt>
      <trkpt lat="45.33846" lon="5.82364">
        <ele>887</ele>
        <time>2019-10-09T06:48:17Z</time>
      </trkpt>
      <trkpt lat="45.33841" lon="5.82399">
        <ele>888.79998779297</ele>
        <time>2019-10-09T06:48:29Z</time>
      </trkpt>
      <trkpt lat="45.33838" lon="5.82416">
        <ele>890</ele>
        <time>2019-10-09T06:48:38Z</time>
      </trkpt>
      <trkpt lat="45.33835" lon="5.82449">
        <ele>892.59997558594</ele>
        <time>2019-10-09T06:48:49Z</time>
      </trkpt>
      <trkpt lat="45.33835" lon="5.82452">
        <ele>894.40002441406</ele>
        <time>2019-10-09T06:49:00Z</time>
      </trkpt>
      <trkpt lat="45.33836" lon="5.82447">
        <ele>894.59997558594</ele>
        <time>2019-10-09T06:49:06Z</time>
      </trkpt>
      <trkpt lat="45.33834" lon="5.82445">
        <ele>893.79998779297</ele>
        <time>2019-10-09T06:49:54Z</time>
      </trkpt>
      <trkpt lat="45.33835" lon="5.82453">
        <ele>893.79998779297</ele>
        <time>2019-10-09T06:49:59Z</time>
      </trkpt>
      <trkpt lat="45.33832" lon="5.82465">
        <ele>894.59997558594</ele>
        <time>2019-10-09T06:50:05Z</time>
      </trkpt>
      <trkpt lat="45.33828" lon="5.82477">
        <ele>896.20001220703</ele>
        <time>2019-10-09T06:50:13Z</time>
      </trkpt>
      <trkpt lat="45.33824" lon="5.82488">
        <ele>897.20001220703</ele>
        <time>2019-10-09T06:50:19Z</time>
      </trkpt>
      <trkpt lat="45.33822" lon="5.82493">
        <ele>897.79998779297</ele>
        <time>2019-10-09T06:50:22Z</time>
      </trkpt>
      <trkpt lat="45.33818" lon="5.82504">
        <ele>899</ele>
        <time>2019-10-09T06:50:28Z</time>
      </trkpt>
      <trkpt lat="45.33812" lon="5.82522">
        <ele>900.79998779297</ele>
        <time>2019-10-09T06:50:38Z</time>
      </trkpt>
      <trkpt lat="45.33806" lon="5.82539">
        <ele>902.40002441406</ele>
        <time>2019-10-09T06:50:46Z</time>
      </trkpt>
      <trkpt lat="45.33805" lon="5.82556">
        <ele>904</ele>
        <time>2019-10-09T06:50:54Z</time>
      </trkpt>
      <trkpt lat="45.33803" lon="5.82572">
        <ele>905</ele>
        <time>2019-10-09T06:51:02Z</time>
      </trkpt>
      <trkpt lat="45.33801" lon="5.82587">
        <ele>906.79998779297</ele>
        <time>2019-10-09T06:51:10Z</time>
      </trkpt>
      <trkpt lat="45.33799" lon="5.82606">
        <ele>908.40002441406</ele>
        <time>2019-10-09T06:51:21Z</time>
      </trkpt>
      <trkpt lat="45.33798" lon="5.82617">
        <ele>909.59997558594</ele>
        <time>2019-10-09T06:51:28Z</time>
      </trkpt>
      <trkpt lat="45.33796" lon="5.82639">
        <ele>911.20001220703</ele>
        <time>2019-10-09T06:51:39Z</time>
      </trkpt>
      <trkpt lat="45.33797" lon="5.82654">
        <ele>912</ele>
        <time>2019-10-09T06:51:46Z</time>
      </trkpt>
      <trkpt lat="45.33798" lon="5.82672">
        <ele>913.59997558594</ele>
        <time>2019-10-09T06:51:56Z</time>
      </trkpt>
      <trkpt lat="45.33799" lon="5.82689">
        <ele>914.40002441406</ele>
        <time>2019-10-09T06:52:04Z</time>
      </trkpt>
      <trkpt lat="45.33798" lon="5.82735">
        <ele>916</ele>
        <time>2019-10-09T06:52:19Z</time>
      </trkpt>
      <trkpt lat="45.33796" lon="5.82756">
        <ele>916.59997558594</ele>
        <time>2019-10-09T06:52:25Z</time>
      </trkpt>
      <trkpt lat="45.33788" lon="5.82792">
        <ele>916.79998779297</ele>
        <time>2019-10-09T06:52:33Z</time>
      </trkpt>
      <trkpt lat="45.33769" lon="5.82831">
        <ele>917.79998779297</ele>
        <time>2019-10-09T06:52:45Z</time>
      </trkpt>
      <trkpt lat="45.3376" lon="5.82842">
        <ele>918</ele>
        <time>2019-10-09T06:52:50Z</time>
      </trkpt>
      <trkpt lat="45.33738" lon="5.8282">
        <ele>919</ele>
        <time>2019-10-09T06:53:01Z</time>
      </trkpt>
      <trkpt lat="45.33745" lon="5.82788">
        <ele>919.20001220703</ele>
        <time>2019-10-09T06:53:09Z</time>
      </trkpt>
      <trkpt lat="45.33748" lon="5.82758">
        <ele>920.79998779297</ele>
        <time>2019-10-09T06:53:20Z</time>
      </trkpt>
      <trkpt lat="45.33749" lon="5.82743">
        <ele>922.40002441406</ele>
        <time>2019-10-09T06:53:27Z</time>
      </trkpt>
      <trkpt lat="45.33749" lon="5.82739">
        <ele>923.20001220703</ele>
        <time>2019-10-09T06:53:30Z</time>
      </trkpt>
      <trkpt lat="45.33747" lon="5.82718">
        <ele>924.59997558594</ele>
        <time>2019-10-09T06:53:38Z</time>
      </trkpt>
      <trkpt lat="45.33741" lon="5.82697">
        <ele>925.79998779297</ele>
        <time>2019-10-09T06:53:47Z</time>
      </trkpt>
      <trkpt lat="45.33737" lon="5.8268">
        <ele>926.79998779297</ele>
        <time>2019-10-09T06:53:55Z</time>
      </trkpt>
      <trkpt lat="45.33736" lon="5.82664">
        <ele>928</ele>
        <time>2019-10-09T06:54:04Z</time>
      </trkpt>
      <trkpt lat="45.33736" lon="5.82639">
        <ele>928.79998779297</ele>
        <time>2019-10-09T06:54:11Z</time>
      </trkpt>
      <trkpt lat="45.33737" lon="5.82611">
        <ele>929.79998779297</ele>
        <time>2019-10-09T06:54:20Z</time>
      </trkpt>
      <trkpt lat="45.33738" lon="5.82582">
        <ele>931.59997558594</ele>
        <time>2019-10-09T06:54:30Z</time>
      </trkpt>
      <trkpt lat="45.33739" lon="5.82541">
        <ele>932.40002441406</ele>
        <time>2019-10-09T06:54:42Z</time>
      </trkpt>
      <trkpt lat="45.33741" lon="5.82475">
        <ele>933</ele>
        <time>2019-10-09T06:54:57Z</time>
      </trkpt>
      <trkpt lat="45.33741" lon="5.82455">
        <ele>932.79998779297</ele>
        <time>2019-10-09T06:55:02Z</time>
      </trkpt>
      <trkpt lat="45.33742" lon="5.82382">
        <ele>932.40002441406</ele>
        <time>2019-10-09T06:55:16Z</time>
      </trkpt>
      <trkpt lat="45.33743" lon="5.82345">
        <ele>933.20001220703</ele>
        <time>2019-10-09T06:55:26Z</time>
      </trkpt>
      <trkpt lat="45.33744" lon="5.8231">
        <ele>935</ele>
        <time>2019-10-09T06:55:37Z</time>
      </trkpt>
      <trkpt lat="45.33744" lon="5.82285">
        <ele>935.79998779297</ele>
        <time>2019-10-09T06:55:44Z</time>
      </trkpt>
      <trkpt lat="45.33747" lon="5.82247">
        <ele>937.40002441406</ele>
        <time>2019-10-09T06:55:54Z</time>
      </trkpt>
      <trkpt lat="45.33749" lon="5.82228">
        <ele>938.79998779297</ele>
        <time>2019-10-09T06:56:00Z</time>
      </trkpt>
      <trkpt lat="45.33753" lon="5.82196">
        <ele>940.59997558594</ele>
        <time>2019-10-09T06:56:12Z</time>
      </trkpt>
      <trkpt lat="45.33757" lon="5.8217">
        <ele>942</ele>
        <time>2019-10-09T06:56:20Z</time>
      </trkpt>
      <trkpt lat="45.33763" lon="5.82097">
        <ele>943.59997558594</ele>
        <time>2019-10-09T06:56:42Z</time>
      </trkpt>
      <trkpt lat="45.33761" lon="5.82073">
        <ele>944.20001220703</ele>
        <time>2019-10-09T06:56:48Z</time>
      </trkpt>
      <trkpt lat="45.33758" lon="5.82018">
        <ele>945.20001220703</ele>
        <time>2019-10-09T06:57:00Z</time>
      </trkpt>
      <trkpt lat="45.33751" lon="5.81993">
        <ele>945.40002441406</ele>
        <time>2019-10-09T06:57:05Z</time>
      </trkpt>
      <trkpt lat="45.33738" lon="5.81988">
        <ele>945.40002441406</ele>
        <time>2019-10-09T06:57:08Z</time>
      </trkpt>
      <trkpt lat="45.33707" lon="5.81982">
        <ele>945.20001220703</ele>
        <time>2019-10-09T06:57:13Z</time>
      </trkpt>
      <trkpt lat="45.33695" lon="5.81957">
        <ele>944</ele>
        <time>2019-10-09T06:57:17Z</time>
      </trkpt>
      <trkpt lat="45.33692" lon="5.81907">
        <ele>941.40002441406</ele>
        <time>2019-10-09T06:57:24Z</time>
      </trkpt>
      <trkpt lat="45.33695" lon="5.81856">
        <ele>940.59997558594</ele>
        <time>2019-10-09T06:57:30Z</time>
      </trkpt>
      <trkpt lat="45.33708" lon="5.81793">
        <ele>940.20001220703</ele>
        <time>2019-10-09T06:57:40Z</time>
      </trkpt>
      <trkpt lat="45.33708" lon="5.81744">
        <ele>939.79998779297</ele>
        <time>2019-10-09T06:57:46Z</time>
      </trkpt>
      <trkpt lat="45.3371" lon="5.81681">
        <ele>939</ele>
        <time>2019-10-09T06:57:52Z</time>
      </trkpt>
      <trkpt lat="45.33714" lon="5.81626">
        <ele>936.79998779297</ele>
        <time>2019-10-09T06:58:00Z</time>
      </trkpt>
      <trkpt lat="45.33721" lon="5.81525">
        <ele>936</ele>
        <time>2019-10-09T06:58:16Z</time>
      </trkpt>
      <trkpt lat="45.33719" lon="5.81485">
        <ele>935.20001220703</ele>
        <time>2019-10-09T06:58:20Z</time>
      </trkpt>
      <trkpt lat="45.33715" lon="5.81408">
        <ele>932.79998779297</ele>
        <time>2019-10-09T06:58:28Z</time>
      </trkpt>
      <trkpt lat="45.33712" lon="5.8137">
        <ele>931</ele>
        <time>2019-10-09T06:58:33Z</time>
      </trkpt>
      <trkpt lat="45.33706" lon="5.81349">
        <ele>929.20001220703</ele>
        <time>2019-10-09T06:58:36Z</time>
      </trkpt>
      <trkpt lat="45.33692" lon="5.81326">
        <ele>928.20001220703</ele>
        <time>2019-10-09T06:58:40Z</time>
      </trkpt>
      <trkpt lat="45.33677" lon="5.81311">
        <ele>926.79998779297</ele>
        <time>2019-10-09T06:58:43Z</time>
      </trkpt>
      <trkpt lat="45.33643" lon="5.81287">
        <ele>924</ele>
        <time>2019-10-09T06:58:50Z</time>
      </trkpt>
      <trkpt lat="45.33629" lon="5.81291">
        <ele>922.79998779297</ele>
        <time>2019-10-09T06:58:53Z</time>
      </trkpt>
      <trkpt lat="45.33619" lon="5.81312">
        <ele>921.79998779297</ele>
        <time>2019-10-09T06:58:57Z</time>
      </trkpt>
      <trkpt lat="45.33614" lon="5.81333">
        <ele>920.40002441406</ele>
        <time>2019-10-09T06:59:00Z</time>
      </trkpt>
      <trkpt lat="45.33605" lon="5.81363">
        <ele>918.79998779297</ele>
        <time>2019-10-09T06:59:04Z</time>
      </trkpt>
      <trkpt lat="45.33598" lon="5.81368">
        <ele>918.20001220703</ele>
        <time>2019-10-09T06:59:06Z</time>
      </trkpt>
      <trkpt lat="45.33587" lon="5.81372">
        <ele>917</ele>
        <time>2019-10-09T06:59:09Z</time>
      </trkpt>
      <trkpt lat="45.33568" lon="5.81355">
        <ele>915.59997558594</ele>
        <time>2019-10-09T06:59:13Z</time>
      </trkpt>
      <trkpt lat="45.33502" lon="5.81286">
        <ele>912.40002441406</ele>
        <time>2019-10-09T06:59:26Z</time>
      </trkpt>
      <trkpt lat="45.33488" lon="5.81269">
        <ele>912.20001220703</ele>
        <time>2019-10-09T06:59:30Z</time>
      </trkpt>
      <trkpt lat="45.33466" lon="5.81245">
        <ele>912.59997558594</ele>
        <time>2019-10-09T06:59:36Z</time>
      </trkpt>
      <trkpt lat="45.33446" lon="5.81226">
        <ele>913.59997558594</ele>
        <time>2019-10-09T06:59:43Z</time>
      </trkpt>
      <trkpt lat="45.33432" lon="5.81218">
        <ele>914.20001220703</ele>
        <time>2019-10-09T06:59:47Z</time>
      </trkpt>
      <trkpt lat="45.33408" lon="5.81205">
        <ele>915.79998779297</ele>
        <time>2019-10-09T06:59:55Z</time>
      </trkpt>
      <trkpt lat="45.33389" lon="5.81194">
        <ele>917</ele>
        <time>2019-10-09T07:00:02Z</time>
      </trkpt>
      <trkpt lat="45.33353" lon="5.81182">
        <ele>918.40002441406</ele>
        <time>2019-10-09T07:00:14Z</time>
      </trkpt>
      <trkpt lat="45.3333" lon="5.81177">
        <ele>918.20001220703</ele>
        <time>2019-10-09T07:00:19Z</time>
      </trkpt>
      <trkpt lat="45.33278" lon="5.81156">
        <ele>916.79998779297</ele>
        <time>2019-10-09T07:00:28Z</time>
      </trkpt>
      <trkpt lat="45.33253" lon="5.81148">
        <ele>915</ele>
        <time>2019-10-09T07:00:32Z</time>
      </trkpt>
      <trkpt lat="45.33218" lon="5.81119">
        <ele>914.20001220703</ele>
        <time>2019-10-09T07:00:38Z</time>
      </trkpt>
      <trkpt lat="45.33196" lon="5.81107">
        <ele>913.40002441406</ele>
        <time>2019-10-09T07:00:41Z</time>
      </trkpt>
      <trkpt lat="45.33154" lon="5.81092">
        <ele>911.59997558594</ele>
        <time>2019-10-09T07:00:48Z</time>
      </trkpt>
      <trkpt lat="45.33136" lon="5.81087">
        <ele>911.20001220703</ele>
        <time>2019-10-09T07:00:51Z</time>
      </trkpt>
      <trkpt lat="45.33107" lon="5.81088">
        <ele>911</ele>
        <time>2019-10-09T07:00:55Z</time>
      </trkpt>
      <trkpt lat="45.33021" lon="5.81112">
        <ele>906.79998779297</ele>
        <time>2019-10-09T07:01:06Z</time>
      </trkpt>
      <trkpt lat="45.32971" lon="5.81112">
        <ele>904.79998779297</ele>
        <time>2019-10-09T07:01:13Z</time>
      </trkpt>
      <trkpt lat="45.32931" lon="5.81093">
        <ele>904</ele>
        <time>2019-10-09T07:01:22Z</time>
      </trkpt>
      <trkpt lat="45.32901" lon="5.81077">
        <ele>903.59997558594</ele>
        <time>2019-10-09T07:01:28Z</time>
      </trkpt>
      <trkpt lat="45.3286" lon="5.81055">
        <ele>903.20001220703</ele>
        <time>2019-10-09T07:01:35Z</time>
      </trkpt>
      <trkpt lat="45.32818" lon="5.81033">
        <ele>901.79998779297</ele>
        <time>2019-10-09T07:01:41Z</time>
      </trkpt>
      <trkpt lat="45.32754" lon="5.81028">
        <ele>899.20001220703</ele>
        <time>2019-10-09T07:01:49Z</time>
      </trkpt>
      <trkpt lat="45.32728" lon="5.81027">
        <ele>898.59997558594</ele>
        <time>2019-10-09T07:01:53Z</time>
      </trkpt>
      <trkpt lat="45.32673" lon="5.81026">
        <ele>897</ele>
        <time>2019-10-09T07:02:03Z</time>
      </trkpt>
      <trkpt lat="45.32628" lon="5.81025">
        <ele>896.59997558594</ele>
        <time>2019-10-09T07:02:11Z</time>
      </trkpt>
      <trkpt lat="45.32574" lon="5.81021">
        <ele>896</ele>
        <time>2019-10-09T07:02:18Z</time>
      </trkpt>
      <trkpt lat="45.32518" lon="5.81016">
        <ele>892.59997558594</ele>
        <time>2019-10-09T07:02:26Z</time>
      </trkpt>
      <trkpt lat="45.32481" lon="5.81008">
        <ele>891.79998779297</ele>
        <time>2019-10-09T07:02:32Z</time>
      </trkpt>
      <trkpt lat="45.32436" lon="5.80994">
        <ele>892</ele>
        <time>2019-10-09T07:02:42Z</time>
      </trkpt>
      <trkpt lat="45.3241" lon="5.80986">
        <ele>892.20001220703</ele>
        <time>2019-10-09T07:02:47Z</time>
      </trkpt>
      <trkpt lat="45.32391" lon="5.80979">
        <ele>892.79998779297</ele>
        <time>2019-10-09T07:02:53Z</time>
      </trkpt>
      <trkpt lat="45.3237" lon="5.80973">
        <ele>894</ele>
        <time>2019-10-09T07:03:00Z</time>
      </trkpt>
      <trkpt lat="45.32349" lon="5.80966">
        <ele>895.59997558594</ele>
        <time>2019-10-09T07:03:10Z</time>
      </trkpt>
      <trkpt lat="45.32317" lon="5.80956">
        <ele>896.79998779297</ele>
        <time>2019-10-09T07:03:20Z</time>
      </trkpt>
      <trkpt lat="45.32294" lon="5.8095">
        <ele>897.59997558594</ele>
        <time>2019-10-09T07:03:27Z</time>
      </trkpt>
      <trkpt lat="45.32241" lon="5.80939">
        <ele>898.40002441406</ele>
        <time>2019-10-09T07:03:40Z</time>
      </trkpt>
      <trkpt lat="45.32209" lon="5.80937">
        <ele>898.40002441406</ele>
        <time>2019-10-09T07:03:47Z</time>
      </trkpt>
      <trkpt lat="45.32177" lon="5.80934">
        <ele>898.40002441406</ele>
        <time>2019-10-09T07:03:52Z</time>
      </trkpt>
      <trkpt lat="45.32126" lon="5.8093">
        <ele>897.59997558594</ele>
        <time>2019-10-09T07:04:01Z</time>
      </trkpt>
      <trkpt lat="45.32098" lon="5.80926">
        <ele>897.40002441406</ele>
        <time>2019-10-09T07:04:08Z</time>
      </trkpt>
      <trkpt lat="45.32043" lon="5.80912">
        <ele>898</ele>
        <time>2019-10-09T07:04:20Z</time>
      </trkpt>
      <trkpt lat="45.32001" lon="5.80917">
        <ele>897.59997558594</ele>
        <time>2019-10-09T07:04:30Z</time>
      </trkpt>
      <trkpt lat="45.31981" lon="5.80915">
        <ele>897.40002441406</ele>
        <time>2019-10-09T07:04:35Z</time>
      </trkpt>
      <trkpt lat="45.31956" lon="5.80912">
        <ele>897.79998779297</ele>
        <time>2019-10-09T07:04:45Z</time>
      </trkpt>
      <trkpt lat="45.3195" lon="5.80908">
        <ele>897.79998779297</ele>
        <time>2019-10-09T07:04:49Z</time>
      </trkpt>
      <trkpt lat="45.31927" lon="5.80936">
        <ele>898.20001220703</ele>
        <time>2019-10-09T07:05:01Z</time>
      </trkpt>
      <trkpt lat="45.31919" lon="5.80938">
        <ele>898.40002441406</ele>
        <time>2019-10-09T07:05:05Z</time>
      </trkpt>
      <trkpt lat="45.31927" lon="5.80936">
        <ele>898.79998779297</ele>
        <time>2019-10-09T07:05:12Z</time>
      </trkpt>
      <trkpt lat="45.3194" lon="5.8092">
        <ele>899</ele>
        <time>2019-10-09T07:05:19Z</time>
      </trkpt>
      <trkpt lat="45.31939" lon="5.80889">
        <ele>898.59997558594</ele>
        <time>2019-10-09T07:05:27Z</time>
      </trkpt>
      <trkpt lat="45.31919" lon="5.80878">
        <ele>898.40002441406</ele>
        <time>2019-10-09T07:05:32Z</time>
      </trkpt>
      <trkpt lat="45.31882" lon="5.80872">
        <ele>898</ele>
        <time>2019-10-09T07:05:40Z</time>
      </trkpt>
      <trkpt lat="45.31854" lon="5.80861">
        <ele>897.79998779297</ele>
        <time>2019-10-09T07:05:47Z</time>
      </trkpt>
      <trkpt lat="45.31826" lon="5.80837">
        <ele>897.20001220703</ele>
        <time>2019-10-09T07:05:56Z</time>
      </trkpt>
      <trkpt lat="45.31816" lon="5.80816">
        <ele>897</ele>
        <time>2019-10-09T07:06:01Z</time>
      </trkpt>
      <trkpt lat="45.31817" lon="5.80782">
        <ele>896.79998779297</ele>
        <time>2019-10-09T07:06:07Z</time>
      </trkpt>
      <trkpt lat="45.31822" lon="5.80714">
        <ele>896.40002441406</ele>
        <time>2019-10-09T07:06:19Z</time>
      </trkpt>
      <trkpt lat="45.3183" lon="5.80695">
        <ele>896.59997558594</ele>
        <time>2019-10-09T07:06:22Z</time>
      </trkpt>
      <trkpt lat="45.31849" lon="5.8068">
        <ele>896.59997558594</ele>
        <time>2019-10-09T07:06:27Z</time>
      </trkpt>
      <trkpt lat="45.3187" lon="5.80676">
        <ele>897</ele>
        <time>2019-10-09T07:06:32Z</time>
      </trkpt>
      <trkpt lat="45.31928" lon="5.80668">
        <ele>897.20001220703</ele>
        <time>2019-10-09T07:06:47Z</time>
      </trkpt>
      <trkpt lat="45.31962" lon="5.80656">
        <ele>897.40002441406</ele>
        <time>2019-10-09T07:06:56Z</time>
      </trkpt>
      <trkpt lat="45.31996" lon="5.80652">
        <ele>897.40002441406</ele>
        <time>2019-10-09T07:07:03Z</time>
      </trkpt>
      <trkpt lat="45.32036" lon="5.80651">
        <ele>896.40002441406</ele>
        <time>2019-10-09T07:07:10Z</time>
      </trkpt>
      <trkpt lat="45.32131" lon="5.80652">
        <ele>894</ele>
        <time>2019-10-09T07:07:25Z</time>
      </trkpt>
      <trkpt lat="45.32166" lon="5.80653">
        <ele>893</ele>
        <time>2019-10-09T07:07:31Z</time>
      </trkpt>
      <trkpt lat="45.3223" lon="5.80653">
        <ele>891</ele>
        <time>2019-10-09T07:07:43Z</time>
      </trkpt>
      <trkpt lat="45.32272" lon="5.80652">
        <ele>890.20001220703</ele>
        <time>2019-10-09T07:07:53Z</time>
      </trkpt>
      <trkpt lat="45.32304" lon="5.80647">
        <ele>889.40002441406</ele>
        <time>2019-10-09T07:08:00Z</time>
      </trkpt>
      <trkpt lat="45.32324" lon="5.80643">
        <ele>888.59997558594</ele>
        <time>2019-10-09T07:08:14Z</time>
      </trkpt>
      <trkpt lat="45.32339" lon="5.80618">
        <ele>888.59997558594</ele>
        <time>2019-10-09T07:08:18Z</time>
      </trkpt>
      <trkpt lat="45.32329" lon="5.80643">
        <ele>888.59997558594</ele>
        <time>2019-10-09T07:09:15Z</time>
      </trkpt>
      <trkpt lat="45.32326" lon="5.80626">
        <ele>888.59997558594</ele>
        <time>2019-10-09T07:09:19Z</time>
      </trkpt>
      <trkpt lat="45.32308" lon="5.80646">
        <ele>888.40002441406</ele>
        <time>2019-10-09T07:09:30Z</time>
      </trkpt>
      <trkpt lat="45.3228" lon="5.80651">
        <ele>888.59997558594</ele>
        <time>2019-10-09T07:09:40Z</time>
      </trkpt>
      <trkpt lat="45.3226" lon="5.80652">
        <ele>888.79998779297</ele>
        <time>2019-10-09T07:09:47Z</time>
      </trkpt>
      <trkpt lat="45.32248" lon="5.80652">
        <ele>889.20001220703</ele>
        <time>2019-10-09T07:09:51Z</time>
      </trkpt>
      <trkpt lat="45.32227" lon="5.80643">
        <ele>889.79998779297</ele>
        <time>2019-10-09T07:10:00Z</time>
      </trkpt>
      <trkpt lat="45.32227" lon="5.80601">
        <ele>890.59997558594</ele>
        <time>2019-10-09T07:10:10Z</time>
      </trkpt>
      <trkpt lat="45.32226" lon="5.80513">
        <ele>891</ele>
        <time>2019-10-09T07:10:26Z</time>
      </trkpt>
      <trkpt lat="45.32225" lon="5.80436">
        <ele>892.59997558594</ele>
        <time>2019-10-09T07:10:42Z</time>
      </trkpt>
      <trkpt lat="45.32225" lon="5.80412">
        <ele>893.40002441406</ele>
        <time>2019-10-09T07:10:50Z</time>
      </trkpt>
      <trkpt lat="45.32224" lon="5.80402">
        <ele>894.20001220703</ele>
        <time>2019-10-09T07:10:54Z</time>
      </trkpt>
      <trkpt lat="45.32222" lon="5.80392">
        <ele>895.20001220703</ele>
        <time>2019-10-09T07:10:59Z</time>
      </trkpt>
      <trkpt lat="45.32212" lon="5.80372">
        <ele>897.79998779297</ele>
        <time>2019-10-09T07:11:09Z</time>
      </trkpt>
      <trkpt lat="45.322" lon="5.80367">
        <ele>899</ele>
        <time>2019-10-09T07:11:16Z</time>
      </trkpt>
      <trkpt lat="45.32182" lon="5.80362">
        <ele>901</ele>
        <time>2019-10-09T07:11:26Z</time>
      </trkpt>
      <trkpt lat="45.32167" lon="5.80359">
        <ele>902.20001220703</ele>
        <time>2019-10-09T07:11:34Z</time>
      </trkpt>
      <trkpt lat="45.32138" lon="5.80357">
        <ele>904.79998779297</ele>
        <time>2019-10-09T07:11:49Z</time>
      </trkpt>
      <trkpt lat="45.32128" lon="5.80356">
        <ele>905.79998779297</ele>
        <time>2019-10-09T07:11:56Z</time>
      </trkpt>
      <trkpt lat="45.32103" lon="5.80354">
        <ele>908.20001220703</ele>
        <time>2019-10-09T07:12:11Z</time>
      </trkpt>
      <trkpt lat="45.3209" lon="5.80353">
        <ele>909.40002441406</ele>
        <time>2019-10-09T07:12:18Z</time>
      </trkpt>
      <trkpt lat="45.32064" lon="5.80356">
        <ele>912</ele>
        <time>2019-10-09T07:12:34Z</time>
      </trkpt>
      <trkpt lat="45.32045" lon="5.80364">
        <ele>914</ele>
        <time>2019-10-09T07:12:46Z</time>
      </trkpt>
      <trkpt lat="45.32029" lon="5.8038">
        <ele>916</ele>
        <time>2019-10-09T07:13:00Z</time>
      </trkpt>
      <trkpt lat="45.32018" lon="5.80396">
        <ele>917.40002441406</ele>
        <time>2019-10-09T07:13:09Z</time>
      </trkpt>
      <trkpt lat="45.32009" lon="5.8041">
        <ele>918.20001220703</ele>
        <time>2019-10-09T07:13:15Z</time>
      </trkpt>
      <trkpt lat="45.3199" lon="5.80436">
        <ele>920.40002441406</ele>
        <time>2019-10-09T07:13:29Z</time>
      </trkpt>
      <trkpt lat="45.31977" lon="5.80444">
        <ele>921.79998779297</ele>
        <time>2019-10-09T07:13:37Z</time>
      </trkpt>
      <trkpt lat="45.31956" lon="5.80447">
        <ele>924.20001220703</ele>
        <time>2019-10-09T07:13:51Z</time>
      </trkpt>
      <trkpt lat="45.31936" lon="5.80438">
        <ele>926.40002441406</ele>
        <time>2019-10-09T07:14:04Z</time>
      </trkpt>
      <trkpt lat="45.31913" lon="5.80426">
        <ele>928.79998779297</ele>
        <time>2019-10-09T07:14:19Z</time>
      </trkpt>
      <trkpt lat="45.31906" lon="5.80421">
        <ele>929.59997558594</ele>
        <time>2019-10-09T07:14:24Z</time>
      </trkpt>
      <trkpt lat="45.31888" lon="5.80411">
        <ele>931.40002441406</ele>
        <time>2019-10-09T07:14:36Z</time>
      </trkpt>
      <trkpt lat="45.31868" lon="5.80394">
        <ele>934.20001220703</ele>
        <time>2019-10-09T07:14:49Z</time>
      </trkpt>
      <trkpt lat="45.31849" lon="5.80376">
        <ele>936.40002441406</ele>
        <time>2019-10-09T07:15:03Z</time>
      </trkpt>
      <trkpt lat="45.31829" lon="5.80355">
        <ele>939</ele>
        <time>2019-10-09T07:15:18Z</time>
      </trkpt>
      <trkpt lat="45.31809" lon="5.80336">
        <ele>941.20001220703</ele>
        <time>2019-10-09T07:15:32Z</time>
      </trkpt>
      <trkpt lat="45.31794" lon="5.80321">
        <ele>942.59997558594</ele>
        <time>2019-10-09T07:15:41Z</time>
      </trkpt>
      <trkpt lat="45.31779" lon="5.80305">
        <ele>944.40002441406</ele>
        <time>2019-10-09T07:15:51Z</time>
      </trkpt>
      <trkpt lat="45.31747" lon="5.80282">
        <ele>946.59997558594</ele>
        <time>2019-10-09T07:16:07Z</time>
      </trkpt>
      <trkpt lat="45.31732" lon="5.80275">
        <ele>947</ele>
        <time>2019-10-09T07:16:13Z</time>
      </trkpt>
      <trkpt lat="45.31698" lon="5.80273">
        <ele>947.59997558594</ele>
        <time>2019-10-09T07:16:25Z</time>
      </trkpt>
      <trkpt lat="45.31682" lon="5.80273">
        <ele>948.20001220703</ele>
        <time>2019-10-09T07:16:31Z</time>
      </trkpt>
      <trkpt lat="45.31692" lon="5.80283">
        <ele>948.79998779297</ele>
        <time>2019-10-09T07:16:39Z</time>
      </trkpt>
      <trkpt lat="45.31692" lon="5.80283">
        <ele>944.20001220703</ele>
        <time>2019-10-09T07:26:10Z</time>
      </trkpt>
      <trkpt lat="45.31674" lon="5.80272">
        <ele>944</ele>
        <time>2019-10-09T07:26:18Z</time>
      </trkpt>
      <trkpt lat="45.31658" lon="5.80255">
        <ele>944.20001220703</ele>
        <time>2019-10-09T07:26:26Z</time>
      </trkpt>
      <trkpt lat="45.31653" lon="5.80222">
        <ele>944.59997558594</ele>
        <time>2019-10-09T07:26:35Z</time>
      </trkpt>
      <trkpt lat="45.31652" lon="5.80212">
        <ele>945</ele>
        <time>2019-10-09T07:26:38Z</time>
      </trkpt>
      <trkpt lat="45.31654" lon="5.80158">
        <ele>947.40002441406</ele>
        <time>2019-10-09T07:26:55Z</time>
      </trkpt>
      <trkpt lat="45.31655" lon="5.80125">
        <ele>948.79998779297</ele>
        <time>2019-10-09T07:27:07Z</time>
      </trkpt>
      <trkpt lat="45.31657" lon="5.80081">
        <ele>950.20001220703</ele>
        <time>2019-10-09T07:27:21Z</time>
      </trkpt>
      <trkpt lat="45.31661" lon="5.80042">
        <ele>950.59997558594</ele>
        <time>2019-10-09T07:27:32Z</time>
      </trkpt>
      <trkpt lat="45.31662" lon="5.80001">
        <ele>950.79998779297</ele>
        <time>2019-10-09T07:27:42Z</time>
      </trkpt>
      <trkpt lat="45.31653" lon="5.79956">
        <ele>951</ele>
        <time>2019-10-09T07:27:53Z</time>
      </trkpt>
      <trkpt lat="45.31656" lon="5.79892">
        <ele>951.59997558594</ele>
        <time>2019-10-09T07:28:08Z</time>
      </trkpt>
      <trkpt lat="45.31686" lon="5.79882">
        <ele>952</ele>
        <time>2019-10-09T07:28:19Z</time>
      </trkpt>
      <trkpt lat="45.31704" lon="5.79898">
        <ele>952.59997558594</ele>
        <time>2019-10-09T07:28:26Z</time>
      </trkpt>
      <trkpt lat="45.31725" lon="5.7992">
        <ele>953.59997558594</ele>
        <time>2019-10-09T07:28:36Z</time>
      </trkpt>
      <trkpt lat="45.31735" lon="5.79923">
        <ele>954.40002441406</ele>
        <time>2019-10-09T07:28:41Z</time>
      </trkpt>
      <trkpt lat="45.31748" lon="5.7989">
        <ele>954.79998779297</ele>
        <time>2019-10-09T07:28:51Z</time>
      </trkpt>
      <trkpt lat="45.31744" lon="5.79869">
        <ele>954.59997558594</ele>
        <time>2019-10-09T07:28:54Z</time>
      </trkpt>
      <trkpt lat="45.31733" lon="5.79806">
        <ele>953.59997558594</ele>
        <time>2019-10-09T07:29:01Z</time>
      </trkpt>
      <trkpt lat="45.31732" lon="5.79762">
        <ele>952.40002441406</ele>
        <time>2019-10-09T07:29:05Z</time>
      </trkpt>
      <trkpt lat="45.31741" lon="5.79667">
        <ele>948.40002441406</ele>
        <time>2019-10-09T07:29:13Z</time>
      </trkpt>
      <trkpt lat="45.31736" lon="5.79619">
        <ele>947.40002441406</ele>
        <time>2019-10-09T07:29:19Z</time>
      </trkpt>
      <trkpt lat="45.31715" lon="5.79568">
        <ele>947</ele>
        <time>2019-10-09T07:29:27Z</time>
      </trkpt>
      <trkpt lat="45.31686" lon="5.79524">
        <ele>946.79998779297</ele>
        <time>2019-10-09T07:29:34Z</time>
      </trkpt>
      <trkpt lat="45.31646" lon="5.79472">
        <ele>945.20001220703</ele>
        <time>2019-10-09T07:29:42Z</time>
      </trkpt>
      <trkpt lat="45.31602" lon="5.79414">
        <ele>943.20001220703</ele>
        <time>2019-10-09T07:29:51Z</time>
      </trkpt>
      <trkpt lat="45.31595" lon="5.79398">
        <ele>942.40002441406</ele>
        <time>2019-10-09T07:29:53Z</time>
      </trkpt>
      <trkpt lat="45.31588" lon="5.79367">
        <ele>941.79998779297</ele>
        <time>2019-10-09T07:29:57Z</time>
      </trkpt>
      <trkpt lat="45.31594" lon="5.79306">
        <ele>940.20001220703</ele>
        <time>2019-10-09T07:30:04Z</time>
      </trkpt>
      <trkpt lat="45.31591" lon="5.79273">
        <ele>940.40002441406</ele>
        <time>2019-10-09T07:30:09Z</time>
      </trkpt>
      <trkpt lat="45.31584" lon="5.79259">
        <ele>940.40002441406</ele>
        <time>2019-10-09T07:30:12Z</time>
      </trkpt>
      <trkpt lat="45.3157" lon="5.79237">
        <ele>940.79998779297</ele>
        <time>2019-10-09T07:30:17Z</time>
      </trkpt>
      <trkpt lat="45.31542" lon="5.79215">
        <ele>940.59997558594</ele>
        <time>2019-10-09T07:30:23Z</time>
      </trkpt>
      <trkpt lat="45.31506" lon="5.79173">
        <ele>940.20001220703</ele>
        <time>2019-10-09T07:30:32Z</time>
      </trkpt>
      <trkpt lat="45.315" lon="5.79162">
        <ele>940.20001220703</ele>
        <time>2019-10-09T07:30:34Z</time>
      </trkpt>
      <trkpt lat="45.31496" lon="5.79151">
        <ele>939.79998779297</ele>
        <time>2019-10-09T07:30:36Z</time>
      </trkpt>
      <trkpt lat="45.31495" lon="5.79117">
        <ele>939.40002441406</ele>
        <time>2019-10-09T07:30:40Z</time>
      </trkpt>
      <trkpt lat="45.31492" lon="5.79085">
        <ele>939</ele>
        <time>2019-10-09T07:30:43Z</time>
      </trkpt>
      <trkpt lat="45.31468" lon="5.79012">
        <ele>937</ele>
        <time>2019-10-09T07:30:54Z</time>
      </trkpt>
      <trkpt lat="45.31468" lon="5.78976">
        <ele>937</ele>
        <time>2019-10-09T07:31:00Z</time>
      </trkpt>
      <trkpt lat="45.3147" lon="5.78944">
        <ele>937.59997558594</ele>
        <time>2019-10-09T07:31:06Z</time>
      </trkpt>
      <trkpt lat="45.31469" lon="5.78902">
        <ele>938.40002441406</ele>
        <time>2019-10-09T07:31:14Z</time>
      </trkpt>
      <trkpt lat="45.31455" lon="5.78837">
        <ele>939</ele>
        <time>2019-10-09T07:31:27Z</time>
      </trkpt>
      <trkpt lat="45.31447" lon="5.78817">
        <ele>940</ele>
        <time>2019-10-09T07:31:32Z</time>
      </trkpt>
      <trkpt lat="45.31421" lon="5.78752">
        <ele>941.79998779297</ele>
        <time>2019-10-09T07:31:47Z</time>
      </trkpt>
      <trkpt lat="45.31391" lon="5.78715">
        <ele>943.59997558594</ele>
        <time>2019-10-09T07:31:59Z</time>
      </trkpt>
      <trkpt lat="45.31343" lon="5.78676">
        <ele>945.20001220703</ele>
        <time>2019-10-09T07:32:17Z</time>
      </trkpt>
      <trkpt lat="45.313" lon="5.7864">
        <ele>946.20001220703</ele>
        <time>2019-10-09T07:32:33Z</time>
      </trkpt>
      <trkpt lat="45.3129" lon="5.78623">
        <ele>946.40002441406</ele>
        <time>2019-10-09T07:32:38Z</time>
      </trkpt>
      <trkpt lat="45.31286" lon="5.78556">
        <ele>947.40002441406</ele>
        <time>2019-10-09T07:32:52Z</time>
      </trkpt>
      <trkpt lat="45.31307" lon="5.78531">
        <ele>947.40002441406</ele>
        <time>2019-10-09T07:32:58Z</time>
      </trkpt>
      <trkpt lat="45.3135" lon="5.78421">
        <ele>948.59997558594</ele>
        <time>2019-10-09T07:33:22Z</time>
      </trkpt>
      <trkpt lat="45.31348" lon="5.78385">
        <ele>948.59997558594</ele>
        <time>2019-10-09T07:33:29Z</time>
      </trkpt>
      <trkpt lat="45.31342" lon="5.78349">
        <ele>948.40002441406</ele>
        <time>2019-10-09T07:33:36Z</time>
      </trkpt>
      <trkpt lat="45.31347" lon="5.78305">
        <ele>947.20001220703</ele>
        <time>2019-10-09T07:33:42Z</time>
      </trkpt>
      <trkpt lat="45.31366" lon="5.78297">
        <ele>946.59997558594</ele>
        <time>2019-10-09T07:33:46Z</time>
      </trkpt>
      <trkpt lat="45.31399" lon="5.78333">
        <ele>946.20001220703</ele>
        <time>2019-10-09T07:33:55Z</time>
      </trkpt>
      <trkpt lat="45.31416" lon="5.78381">
        <ele>946.40002441406</ele>
        <time>2019-10-09T07:34:09Z</time>
      </trkpt>
      <trkpt lat="45.31422" lon="5.78399">
        <ele>946.79998779297</ele>
        <time>2019-10-09T07:34:14Z</time>
      </trkpt>
      <trkpt lat="45.3144" lon="5.78432">
        <ele>947.40002441406</ele>
        <time>2019-10-09T07:34:27Z</time>
      </trkpt>
      <trkpt lat="45.31457" lon="5.78454">
        <ele>948</ele>
        <time>2019-10-09T07:34:41Z</time>
      </trkpt>
      <trkpt lat="45.31466" lon="5.78461">
        <ele>948</ele>
        <time>2019-10-09T07:34:47Z</time>
      </trkpt>
      <trkpt lat="45.31502" lon="5.78478">
        <ele>948.79998779297</ele>
        <time>2019-10-09T07:35:08Z</time>
      </trkpt>
      <trkpt lat="45.31542" lon="5.78494">
        <ele>950</ele>
        <time>2019-10-09T07:35:30Z</time>
      </trkpt>
      <trkpt lat="45.31578" lon="5.78499">
        <ele>951</ele>
        <time>2019-10-09T07:35:49Z</time>
      </trkpt>
      <trkpt lat="45.31593" lon="5.78485">
        <ele>951.59997558594</ele>
        <time>2019-10-09T07:35:59Z</time>
      </trkpt>
      <trkpt lat="45.31626" lon="5.78457">
        <ele>952.59997558594</ele>
        <time>2019-10-09T07:36:19Z</time>
      </trkpt>
      <trkpt lat="45.31633" lon="5.78439">
        <ele>953.40002441406</ele>
        <time>2019-10-09T07:36:32Z</time>
      </trkpt>
      <trkpt lat="45.3161" lon="5.78439">
        <ele>954</ele>
        <time>2019-10-09T07:36:48Z</time>
      </trkpt>
      <trkpt lat="45.31598" lon="5.7845">
        <ele>954.40002441406</ele>
        <time>2019-10-09T07:36:54Z</time>
      </trkpt>
      <trkpt lat="45.31562" lon="5.78459">
        <ele>960.40002441406</ele>
        <time>2019-10-09T07:37:12Z</time>
      </trkpt>
      <trkpt lat="45.31532" lon="5.78437">
        <ele>961.59997558594</ele>
        <time>2019-10-09T07:37:29Z</time>
      </trkpt>
      <trkpt lat="45.31498" lon="5.78399">
        <ele>962.20001220703</ele>
        <time>2019-10-09T07:37:50Z</time>
      </trkpt>
      <trkpt lat="45.31495" lon="5.78395">
        <ele>962.40002441406</ele>
        <time>2019-10-09T07:37:52Z</time>
      </trkpt>
      <trkpt lat="45.31487" lon="5.78382">
        <ele>962.59997558594</ele>
        <time>2019-10-09T07:37:58Z</time>
      </trkpt>
      <trkpt lat="45.31476" lon="5.78337">
        <ele>978</ele>
        <time>2019-10-09T07:38:14Z</time>
      </trkpt>
      <trkpt lat="45.31473" lon="5.78318">
        <ele>978</ele>
        <time>2019-10-09T07:38:21Z</time>
      </trkpt>
      <trkpt lat="45.31461" lon="5.78252">
        <ele>978.79998779297</ele>
        <time>2019-10-09T07:38:44Z</time>
      </trkpt>
      <trkpt lat="45.31458" lon="5.78234">
        <ele>978.79998779297</ele>
        <time>2019-10-09T07:38:50Z</time>
      </trkpt>
      <trkpt lat="45.31451" lon="5.78192">
        <ele>979.20001220703</ele>
        <time>2019-10-09T07:39:03Z</time>
      </trkpt>
      <trkpt lat="45.31433" lon="5.78139">
        <ele>979.79998779297</ele>
        <time>2019-10-09T07:39:20Z</time>
      </trkpt>
      <trkpt lat="45.31419" lon="5.78104">
        <ele>980</ele>
        <time>2019-10-09T07:39:33Z</time>
      </trkpt>
      <trkpt lat="45.31404" lon="5.78066">
        <ele>980</ele>
        <time>2019-10-09T07:39:48Z</time>
      </trkpt>
      <trkpt lat="45.31384" lon="5.78016">
        <ele>980.40002441406</ele>
        <time>2019-10-09T07:40:05Z</time>
      </trkpt>
      <trkpt lat="45.31382" lon="5.7801">
        <ele>980.40002441406</ele>
        <time>2019-10-09T07:40:08Z</time>
      </trkpt>
      <trkpt lat="45.31354" lon="5.77947">
        <ele>1002.5999755859</ele>
        <time>2019-10-09T07:40:33Z</time>
      </trkpt>
      <trkpt lat="45.31324" lon="5.77896">
        <ele>1002.799987793</ele>
        <time>2019-10-09T07:40:55Z</time>
      </trkpt>
      <trkpt lat="45.31287" lon="5.77858">
        <ele>1003.5999755859</ele>
        <time>2019-10-09T07:41:20Z</time>
      </trkpt>
      <trkpt lat="45.31258" lon="5.77833">
        <ele>1003.799987793</ele>
        <time>2019-10-09T07:41:38Z</time>
      </trkpt>
      <trkpt lat="45.31232" lon="5.77805">
        <ele>1004.200012207</ele>
        <time>2019-10-09T07:41:55Z</time>
      </trkpt>
      <trkpt lat="45.31194" lon="5.77758">
        <ele>1004.5999755859</ele>
        <time>2019-10-09T07:42:22Z</time>
      </trkpt>
      <trkpt lat="45.3118" lon="5.77736">
        <ele>1005.200012207</ele>
        <time>2019-10-09T07:42:32Z</time>
      </trkpt>
      <trkpt lat="45.31166" lon="5.77698">
        <ele>1005.5999755859</ele>
        <time>2019-10-09T07:42:47Z</time>
      </trkpt>
      <trkpt lat="45.31165" lon="5.77691">
        <ele>1005.5999755859</ele>
        <time>2019-10-09T07:42:50Z</time>
      </trkpt>
      <trkpt lat="45.31165" lon="5.77655">
        <ele>1031.4000244141</ele>
        <time>2019-10-09T07:43:08Z</time>
      </trkpt>
      <trkpt lat="45.31167" lon="5.77632">
        <ele>1031.5999755859</ele>
        <time>2019-10-09T07:43:20Z</time>
      </trkpt>
      <trkpt lat="45.31168" lon="5.77609">
        <ele>1032</ele>
        <time>2019-10-09T07:43:32Z</time>
      </trkpt>
      <trkpt lat="45.31192" lon="5.77557">
        <ele>1033.1999511719</ele>
        <time>2019-10-09T07:43:49Z</time>
      </trkpt>
      <trkpt lat="45.31221" lon="5.77522">
        <ele>1033.8000488281</ele>
        <time>2019-10-09T07:44:07Z</time>
      </trkpt>
      <trkpt lat="45.31236" lon="5.77504">
        <ele>1034.1999511719</ele>
        <time>2019-10-09T07:44:17Z</time>
      </trkpt>
      <trkpt lat="45.3126" lon="5.77447">
        <ele>1034.8000488281</ele>
        <time>2019-10-09T07:44:39Z</time>
      </trkpt>
      <trkpt lat="45.31254" lon="5.77413">
        <ele>1035.4000244141</ele>
        <time>2019-10-09T07:44:52Z</time>
      </trkpt>
      <trkpt lat="45.31241" lon="5.77379">
        <ele>1036.1999511719</ele>
        <time>2019-10-09T07:45:05Z</time>
      </trkpt>
      <trkpt lat="45.31229" lon="5.77346">
        <ele>1037.1999511719</ele>
        <time>2019-10-09T07:45:18Z</time>
      </trkpt>
      <trkpt lat="45.31226" lon="5.77336">
        <ele>1035.5999755859</ele>
        <time>2019-10-09T07:45:55Z</time>
      </trkpt>
      <trkpt lat="45.31217" lon="5.77312">
        <ele>1035</ele>
        <time>2019-10-09T07:46:02Z</time>
      </trkpt>
      <trkpt lat="45.31215" lon="5.77308">
        <ele>1035</ele>
        <time>2019-10-09T07:46:05Z</time>
      </trkpt>
      <trkpt lat="45.31202" lon="5.77271">
        <ele>1052.5999755859</ele>
        <time>2019-10-09T07:46:22Z</time>
      </trkpt>
      <trkpt lat="45.31189" lon="5.77234">
        <ele>1053.1999511719</ele>
        <time>2019-10-09T07:46:37Z</time>
      </trkpt>
      <trkpt lat="45.31181" lon="5.77213">
        <ele>1054.4000244141</ele>
        <time>2019-10-09T07:46:46Z</time>
      </trkpt>
      <trkpt lat="45.31177" lon="5.772">
        <ele>1055</ele>
        <time>2019-10-09T07:46:52Z</time>
      </trkpt>
      <trkpt lat="45.31168" lon="5.77176">
        <ele>1056</ele>
        <time>2019-10-09T07:47:05Z</time>
      </trkpt>
      <trkpt lat="45.31161" lon="5.77159">
        <ele>1057</ele>
        <time>2019-10-09T07:47:12Z</time>
      </trkpt>
      <trkpt lat="45.31149" lon="5.77137">
        <ele>1057.5999755859</ele>
        <time>2019-10-09T07:47:26Z</time>
      </trkpt>
      <trkpt lat="45.31142" lon="5.77124">
        <ele>1058.8000488281</ele>
        <time>2019-10-09T07:47:34Z</time>
      </trkpt>
      <trkpt lat="45.31135" lon="5.77112">
        <ele>1059.5999755859</ele>
        <time>2019-10-09T07:47:42Z</time>
      </trkpt>
      <trkpt lat="45.31126" lon="5.77098">
        <ele>1060.8000488281</ele>
        <time>2019-10-09T07:47:51Z</time>
      </trkpt>
      <trkpt lat="45.31115" lon="5.77089">
        <ele>1062</ele>
        <time>2019-10-09T07:47:59Z</time>
      </trkpt>
      <trkpt lat="45.31104" lon="5.7708">
        <ele>1062.5999755859</ele>
        <time>2019-10-09T07:48:12Z</time>
      </trkpt>
      <trkpt lat="45.3109" lon="5.77069">
        <ele>1063.4000244141</ele>
        <time>2019-10-09T07:48:20Z</time>
      </trkpt>
      <trkpt lat="45.31075" lon="5.77057">
        <ele>1064.4000244141</ele>
        <time>2019-10-09T07:48:29Z</time>
      </trkpt>
      <trkpt lat="45.31064" lon="5.77048">
        <ele>1068.4000244141</ele>
        <time>2019-10-09T07:48:37Z</time>
      </trkpt>
      <trkpt lat="45.31038" lon="5.77025">
        <ele>1070</ele>
        <time>2019-10-09T07:48:55Z</time>
      </trkpt>
      <trkpt lat="45.31027" lon="5.77012">
        <ele>1070.8000488281</ele>
        <time>2019-10-09T07:49:03Z</time>
      </trkpt>
      <trkpt lat="45.3101" lon="5.76986">
        <ele>1072.4000244141</ele>
        <time>2019-10-09T07:49:18Z</time>
      </trkpt>
      <trkpt lat="45.31001" lon="5.76969">
        <ele>1073</ele>
        <time>2019-10-09T07:49:26Z</time>
      </trkpt>
      <trkpt lat="45.30989" lon="5.76946">
        <ele>1074.1999511719</ele>
        <time>2019-10-09T07:49:37Z</time>
      </trkpt>
      <trkpt lat="45.30979" lon="5.76937">
        <ele>1075</ele>
        <time>2019-10-09T07:49:45Z</time>
      </trkpt>
      <trkpt lat="45.30955" lon="5.76938">
        <ele>1076.4000244141</ele>
        <time>2019-10-09T07:49:59Z</time>
      </trkpt>
      <trkpt lat="45.30945" lon="5.76972">
        <ele>1080.4000244141</ele>
        <time>2019-10-09T07:50:09Z</time>
      </trkpt>
      <trkpt lat="45.30947" lon="5.77004">
        <ele>1081</ele>
        <time>2019-10-09T07:50:17Z</time>
      </trkpt>
      <trkpt lat="45.3095" lon="5.77045">
        <ele>1081.8000488281</ele>
        <time>2019-10-09T07:50:30Z</time>
      </trkpt>
      <trkpt lat="45.30952" lon="5.77065">
        <ele>1082.5999755859</ele>
        <time>2019-10-09T07:50:38Z</time>
      </trkpt>
      <trkpt lat="45.30955" lon="5.77099">
        <ele>1083.1999511719</ele>
        <time>2019-10-09T07:50:49Z</time>
      </trkpt>
      <trkpt lat="45.30957" lon="5.77117">
        <ele>1083.8000488281</ele>
        <time>2019-10-09T07:50:57Z</time>
      </trkpt>
      <trkpt lat="45.30958" lon="5.77121">
        <ele>1084</ele>
        <time>2019-10-09T07:51:00Z</time>
      </trkpt>
      <trkpt lat="45.3096" lon="5.77127">
        <ele>1084.4000244141</ele>
        <time>2019-10-09T07:51:04Z</time>
      </trkpt>
      <trkpt lat="45.30966" lon="5.77143">
        <ele>1109.1999511719</ele>
        <time>2019-10-09T07:51:17Z</time>
      </trkpt>
      <trkpt lat="45.30968" lon="5.77148">
        <ele>1110</ele>
        <time>2019-10-09T07:51:23Z</time>
      </trkpt>
      <trkpt lat="45.30977" lon="5.77166">
        <ele>1112.1999511719</ele>
        <time>2019-10-09T07:51:38Z</time>
      </trkpt>
      <trkpt lat="45.30997" lon="5.77202">
        <ele>1113.8000488281</ele>
        <time>2019-10-09T07:51:49Z</time>
      </trkpt>
      <trkpt lat="45.30983" lon="5.77232">
        <ele>1115.1999511719</ele>
        <time>2019-10-09T07:52:00Z</time>
      </trkpt>
      <trkpt lat="45.30972" lon="5.77246">
        <ele>1115.5999755859</ele>
        <time>2019-10-09T07:52:08Z</time>
      </trkpt>
      <trkpt lat="45.30965" lon="5.77256">
        <ele>1116.8000488281</ele>
        <time>2019-10-09T07:52:15Z</time>
      </trkpt>
      <trkpt lat="45.30951" lon="5.77274">
        <ele>1118.8000488281</ele>
        <time>2019-10-09T07:52:27Z</time>
      </trkpt>
      <trkpt lat="45.30945" lon="5.77281">
        <ele>1119.4000244141</ele>
        <time>2019-10-09T07:52:32Z</time>
      </trkpt>
      <trkpt lat="45.30927" lon="5.77301">
        <ele>1121.8000488281</ele>
        <time>2019-10-09T07:52:46Z</time>
      </trkpt>
      <trkpt lat="45.30918" lon="5.77308">
        <ele>1123</ele>
        <time>2019-10-09T07:52:54Z</time>
      </trkpt>
      <trkpt lat="45.30903" lon="5.77317">
        <ele>1124.4000244141</ele>
        <time>2019-10-09T07:53:04Z</time>
      </trkpt>
      <trkpt lat="45.30884" lon="5.77325">
        <ele>1126.8000488281</ele>
        <time>2019-10-09T07:53:17Z</time>
      </trkpt>
      <trkpt lat="45.30869" lon="5.77327">
        <ele>1129</ele>
        <time>2019-10-09T07:53:31Z</time>
      </trkpt>
      <trkpt lat="45.30862" lon="5.77327">
        <ele>1129.5999755859</ele>
        <time>2019-10-09T07:53:35Z</time>
      </trkpt>
      <trkpt lat="45.30844" lon="5.7732">
        <ele>1132.4000244141</ele>
        <time>2019-10-09T07:53:49Z</time>
      </trkpt>
      <trkpt lat="45.30836" lon="5.77315">
        <ele>1133.8000488281</ele>
        <time>2019-10-09T07:53:58Z</time>
      </trkpt>
      <trkpt lat="45.30822" lon="5.77305">
        <ele>1135.5999755859</ele>
        <time>2019-10-09T07:54:10Z</time>
      </trkpt>
      <trkpt lat="45.30818" lon="5.77302">
        <ele>1136</ele>
        <time>2019-10-09T07:54:13Z</time>
      </trkpt>
      <trkpt lat="45.308" lon="5.77284">
        <ele>1137.4000244141</ele>
        <time>2019-10-09T07:54:21Z</time>
      </trkpt>
      <trkpt lat="45.30783" lon="5.77267">
        <ele>1139.1999511719</ele>
        <time>2019-10-09T07:54:29Z</time>
      </trkpt>
      <trkpt lat="45.30752" lon="5.77266">
        <ele>1141</ele>
        <time>2019-10-09T07:54:41Z</time>
      </trkpt>
      <trkpt lat="45.30735" lon="5.77269">
        <ele>1143</ele>
        <time>2019-10-09T07:54:52Z</time>
      </trkpt>
      <trkpt lat="45.30724" lon="5.77271">
        <ele>1144</ele>
        <time>2019-10-09T07:55:00Z</time>
      </trkpt>
      <trkpt lat="45.30708" lon="5.77232">
        <ele>1145.8000488281</ele>
        <time>2019-10-09T07:55:11Z</time>
      </trkpt>
      <trkpt lat="45.30697" lon="5.77229">
        <ele>1147</ele>
        <time>2019-10-09T07:55:18Z</time>
      </trkpt>
      <trkpt lat="45.30683" lon="5.77226">
        <ele>1148.5999755859</ele>
        <time>2019-10-09T07:55:29Z</time>
      </trkpt>
      <trkpt lat="45.30674" lon="5.77224">
        <ele>1149.8000488281</ele>
        <time>2019-10-09T07:55:37Z</time>
      </trkpt>
      <trkpt lat="45.30661" lon="5.77215">
        <ele>1151</ele>
        <time>2019-10-09T07:55:45Z</time>
      </trkpt>
      <trkpt lat="45.30651" lon="5.77202">
        <ele>1152</ele>
        <time>2019-10-09T07:55:51Z</time>
      </trkpt>
      <trkpt lat="45.30637" lon="5.77185">
        <ele>1153.8000488281</ele>
        <time>2019-10-09T07:56:01Z</time>
      </trkpt>
      <trkpt lat="45.3062" lon="5.77164">
        <ele>1156.4000244141</ele>
        <time>2019-10-09T07:56:14Z</time>
      </trkpt>
      <trkpt lat="45.30607" lon="5.77147">
        <ele>1157.8000488281</ele>
        <time>2019-10-09T07:56:24Z</time>
      </trkpt>
      <trkpt lat="45.30598" lon="5.77134">
        <ele>1159</ele>
        <time>2019-10-09T07:56:31Z</time>
      </trkpt>
      <trkpt lat="45.30591" lon="5.77115">
        <ele>1160.5999755859</ele>
        <time>2019-10-09T07:56:40Z</time>
      </trkpt>
      <trkpt lat="45.30586" lon="5.77076">
        <ele>1163.4000244141</ele>
        <time>2019-10-09T07:56:55Z</time>
      </trkpt>
      <trkpt lat="45.30583" lon="5.77055">
        <ele>1164.5999755859</ele>
        <time>2019-10-09T07:57:04Z</time>
      </trkpt>
      <trkpt lat="45.30575" lon="5.77021">
        <ele>1166.1999511719</ele>
        <time>2019-10-09T07:57:19Z</time>
      </trkpt>
      <trkpt lat="45.30571" lon="5.77007">
        <ele>1167.4000244141</ele>
        <time>2019-10-09T07:57:25Z</time>
      </trkpt>
      <trkpt lat="45.30558" lon="5.76981">
        <ele>1169.1999511719</ele>
        <time>2019-10-09T07:57:36Z</time>
      </trkpt>
      <trkpt lat="45.3055" lon="5.76963">
        <ele>1170.1999511719</ele>
        <time>2019-10-09T07:57:43Z</time>
      </trkpt>
      <trkpt lat="45.30543" lon="5.76948">
        <ele>1171.5999755859</ele>
        <time>2019-10-09T07:57:52Z</time>
      </trkpt>
      <trkpt lat="45.30532" lon="5.76924">
        <ele>1173.5999755859</ele>
        <time>2019-10-09T07:58:06Z</time>
      </trkpt>
      <trkpt lat="45.30524" lon="5.76908">
        <ele>1175</ele>
        <time>2019-10-09T07:58:14Z</time>
      </trkpt>
      <trkpt lat="45.30518" lon="5.76893">
        <ele>1176.4000244141</ele>
        <time>2019-10-09T07:58:21Z</time>
      </trkpt>
      <trkpt lat="45.30506" lon="5.76873">
        <ele>1178.5999755859</ele>
        <time>2019-10-09T07:58:32Z</time>
      </trkpt>
      <trkpt lat="45.30498" lon="5.76863">
        <ele>1179.5999755859</ele>
        <time>2019-10-09T07:58:39Z</time>
      </trkpt>
      <trkpt lat="45.3049" lon="5.76855">
        <ele>1180.5999755859</ele>
        <time>2019-10-09T07:58:46Z</time>
      </trkpt>
      <trkpt lat="45.30478" lon="5.76843">
        <ele>1182</ele>
        <time>2019-10-09T07:58:56Z</time>
      </trkpt>
      <trkpt lat="45.30466" lon="5.76831">
        <ele>1183.4000244141</ele>
        <time>2019-10-09T07:59:05Z</time>
      </trkpt>
      <trkpt lat="45.30437" lon="5.7681">
        <ele>1185.1999511719</ele>
        <time>2019-10-09T07:59:16Z</time>
      </trkpt>
      <trkpt lat="45.3041" lon="5.76803">
        <ele>1186.5999755859</ele>
        <time>2019-10-09T07:59:28Z</time>
      </trkpt>
      <trkpt lat="45.30391" lon="5.76803">
        <ele>1187</ele>
        <time>2019-10-09T07:59:35Z</time>
      </trkpt>
      <trkpt lat="45.30379" lon="5.76805">
        <ele>1187.4000244141</ele>
        <time>2019-10-09T07:59:42Z</time>
      </trkpt>
      <trkpt lat="45.30333" lon="5.76814">
        <ele>1188</ele>
        <time>2019-10-09T07:59:54Z</time>
      </trkpt>
      <trkpt lat="45.30301" lon="5.7682">
        <ele>1189.4000244141</ele>
        <time>2019-10-09T08:00:02Z</time>
      </trkpt>
      <trkpt lat="45.30255" lon="5.76843">
        <ele>1191</ele>
        <time>2019-10-09T08:00:18Z</time>
      </trkpt>
      <trkpt lat="45.30237" lon="5.76876">
        <ele>1192</ele>
        <time>2019-10-09T08:00:29Z</time>
      </trkpt>
      <trkpt lat="45.3022" lon="5.76911">
        <ele>1193.8000488281</ele>
        <time>2019-10-09T08:00:43Z</time>
      </trkpt>
      <trkpt lat="45.30215" lon="5.76921">
        <ele>1194.5999755859</ele>
        <time>2019-10-09T08:00:50Z</time>
      </trkpt>
      <trkpt lat="45.30207" lon="5.76936">
        <ele>1196</ele>
        <time>2019-10-09T08:00:57Z</time>
      </trkpt>
      <trkpt lat="45.302" lon="5.76954">
        <ele>1197.5999755859</ele>
        <time>2019-10-09T08:01:05Z</time>
      </trkpt>
      <trkpt lat="45.30197" lon="5.76975">
        <ele>1198.8000488281</ele>
        <time>2019-10-09T08:01:11Z</time>
      </trkpt>
      <trkpt lat="45.30207" lon="5.77018">
        <ele>1201.4000244141</ele>
        <time>2019-10-09T08:01:26Z</time>
      </trkpt>
      <trkpt lat="45.30211" lon="5.77035">
        <ele>1202.4000244141</ele>
        <time>2019-10-09T08:01:33Z</time>
      </trkpt>
      <trkpt lat="45.30212" lon="5.77061">
        <ele>1204.4000244141</ele>
        <time>2019-10-09T08:01:44Z</time>
      </trkpt>
      <trkpt lat="45.30204" lon="5.77084">
        <ele>1205.8000488281</ele>
        <time>2019-10-09T08:01:51Z</time>
      </trkpt>
      <trkpt lat="45.3019" lon="5.77098">
        <ele>1207.1999511719</ele>
        <time>2019-10-09T08:02:00Z</time>
      </trkpt>
      <trkpt lat="45.30182" lon="5.77101">
        <ele>1208.4000244141</ele>
        <time>2019-10-09T08:02:06Z</time>
      </trkpt>
      <trkpt lat="45.30168" lon="5.771">
        <ele>1210.8000488281</ele>
        <time>2019-10-09T08:02:20Z</time>
      </trkpt>
      <trkpt lat="45.30165" lon="5.77099">
        <ele>1212</ele>
        <time>2019-10-09T08:02:27Z</time>
      </trkpt>
      <trkpt lat="45.3015" lon="5.7709">
        <ele>1213.1999511719</ele>
        <time>2019-10-09T08:02:36Z</time>
      </trkpt>
      <trkpt lat="45.30138" lon="5.77083">
        <ele>1214.4000244141</ele>
        <time>2019-10-09T08:02:44Z</time>
      </trkpt>
      <trkpt lat="45.30117" lon="5.77071">
        <ele>1216.4000244141</ele>
        <time>2019-10-09T08:02:59Z</time>
      </trkpt>
      <trkpt lat="45.30106" lon="5.77064">
        <ele>1217.4000244141</ele>
        <time>2019-10-09T08:03:06Z</time>
      </trkpt>
      <trkpt lat="45.30095" lon="5.77059">
        <ele>1218.1999511719</ele>
        <time>2019-10-09T08:03:13Z</time>
      </trkpt>
      <trkpt lat="45.30073" lon="5.77047">
        <ele>1220.1999511719</ele>
        <time>2019-10-09T08:03:25Z</time>
      </trkpt>
      <trkpt lat="45.30064" lon="5.77043">
        <ele>1221.4000244141</ele>
        <time>2019-10-09T08:03:31Z</time>
      </trkpt>
      <trkpt lat="45.30043" lon="5.77035">
        <ele>1223.4000244141</ele>
        <time>2019-10-09T08:03:44Z</time>
      </trkpt>
      <trkpt lat="45.3003" lon="5.77033">
        <ele>1224.5999755859</ele>
        <time>2019-10-09T08:03:52Z</time>
      </trkpt>
      <trkpt lat="45.30012" lon="5.77031">
        <ele>1226</ele>
        <time>2019-10-09T08:04:02Z</time>
      </trkpt>
      <trkpt lat="45.30002" lon="5.7703">
        <ele>1226.8000488281</ele>
        <time>2019-10-09T08:04:08Z</time>
      </trkpt>
      <trkpt lat="45.29991" lon="5.77027">
        <ele>1228.4000244141</ele>
        <time>2019-10-09T08:04:18Z</time>
      </trkpt>
      <trkpt lat="45.29983" lon="5.77021">
        <ele>1229.5999755859</ele>
        <time>2019-10-09T08:04:24Z</time>
      </trkpt>
      <trkpt lat="45.29963" lon="5.77004">
        <ele>1231.5999755859</ele>
        <time>2019-10-09T08:04:35Z</time>
      </trkpt>
      <trkpt lat="45.29944" lon="5.76993">
        <ele>1233.4000244141</ele>
        <time>2019-10-09T08:04:43Z</time>
      </trkpt>
      <trkpt lat="45.29914" lon="5.76981">
        <ele>1235.8000488281</ele>
        <time>2019-10-09T08:04:58Z</time>
      </trkpt>
      <trkpt lat="45.29902" lon="5.76978">
        <ele>1237</ele>
        <time>2019-10-09T08:05:06Z</time>
      </trkpt>
      <trkpt lat="45.29894" lon="5.76978">
        <ele>1237.5999755859</ele>
        <time>2019-10-09T08:05:10Z</time>
      </trkpt>
      <trkpt lat="45.29872" lon="5.76978">
        <ele>1239.5999755859</ele>
        <time>2019-10-09T08:05:21Z</time>
      </trkpt>
      <trkpt lat="45.2986" lon="5.76978">
        <ele>1240.8000488281</ele>
        <time>2019-10-09T08:05:27Z</time>
      </trkpt>
      <trkpt lat="45.2984" lon="5.76978">
        <ele>1242.5999755859</ele>
        <time>2019-10-09T08:05:36Z</time>
      </trkpt>
      <trkpt lat="45.29824" lon="5.76978">
        <ele>1244</ele>
        <time>2019-10-09T08:05:43Z</time>
      </trkpt>
      <trkpt lat="45.29799" lon="5.76978">
        <ele>1246.5999755859</ele>
        <time>2019-10-09T08:05:55Z</time>
      </trkpt>
      <trkpt lat="45.29783" lon="5.76976">
        <ele>1248</ele>
        <time>2019-10-09T08:06:02Z</time>
      </trkpt>
      <trkpt lat="45.29764" lon="5.76972">
        <ele>1249.8000488281</ele>
        <time>2019-10-09T08:06:11Z</time>
      </trkpt>
      <trkpt lat="45.29751" lon="5.7697">
        <ele>1250.8000488281</ele>
        <time>2019-10-09T08:06:16Z</time>
      </trkpt>
      <trkpt lat="45.29728" lon="5.76966">
        <ele>1254.5999755859</ele>
        <time>2019-10-09T08:06:26Z</time>
      </trkpt>
      <trkpt lat="45.29714" lon="5.76963">
        <ele>1255.1999511719</ele>
        <time>2019-10-09T08:06:36Z</time>
      </trkpt>
      <trkpt lat="45.29696" lon="5.7696">
        <ele>1256</ele>
        <time>2019-10-09T08:06:47Z</time>
      </trkpt>
      <trkpt lat="45.29678" lon="5.76956">
        <ele>1257.4000244141</ele>
        <time>2019-10-09T08:06:56Z</time>
      </trkpt>
      <trkpt lat="45.29661" lon="5.76948">
        <ele>1258.8000488281</ele>
        <time>2019-10-09T08:07:05Z</time>
      </trkpt>
      <trkpt lat="45.29635" lon="5.76917">
        <ele>1260.5999755859</ele>
        <time>2019-10-09T08:07:21Z</time>
      </trkpt>
      <trkpt lat="45.29621" lon="5.76897">
        <ele>1261.5999755859</ele>
        <time>2019-10-09T08:07:31Z</time>
      </trkpt>
      <trkpt lat="45.29595" lon="5.76863">
        <ele>1263.4000244141</ele>
        <time>2019-10-09T08:07:44Z</time>
      </trkpt>
      <trkpt lat="45.29578" lon="5.76848">
        <ele>1264</ele>
        <time>2019-10-09T08:07:52Z</time>
      </trkpt>
      <trkpt lat="45.29542" lon="5.76826">
        <ele>1266</ele>
        <time>2019-10-09T08:08:06Z</time>
      </trkpt>
      <trkpt lat="45.29523" lon="5.76821">
        <ele>1266.8000488281</ele>
        <time>2019-10-09T08:08:14Z</time>
      </trkpt>
      <trkpt lat="45.29502" lon="5.76823">
        <ele>1268.1999511719</ele>
        <time>2019-10-09T08:08:24Z</time>
      </trkpt>
      <trkpt lat="45.29488" lon="5.76826">
        <ele>1269.5999755859</ele>
        <time>2019-10-09T08:08:31Z</time>
      </trkpt>
      <trkpt lat="45.29462" lon="5.76825">
        <ele>1271.4000244141</ele>
        <time>2019-10-09T08:08:43Z</time>
      </trkpt>
      <trkpt lat="45.2945" lon="5.76819">
        <ele>1272.4000244141</ele>
        <time>2019-10-09T08:08:50Z</time>
      </trkpt>
      <trkpt lat="45.2943" lon="5.76805">
        <ele>1274.1999511719</ele>
        <time>2019-10-09T08:09:03Z</time>
      </trkpt>
      <trkpt lat="45.29415" lon="5.76794">
        <ele>1275.1999511719</ele>
        <time>2019-10-09T08:09:10Z</time>
      </trkpt>
      <trkpt lat="45.29394" lon="5.76787">
        <ele>1276.8000488281</ele>
        <time>2019-10-09T08:09:18Z</time>
      </trkpt>
      <trkpt lat="45.29372" lon="5.7678">
        <ele>1278</ele>
        <time>2019-10-09T08:09:29Z</time>
      </trkpt>
      <trkpt lat="45.29353" lon="5.76777">
        <ele>1279.4000244141</ele>
        <time>2019-10-09T08:09:38Z</time>
      </trkpt>
      <trkpt lat="45.29323" lon="5.76775">
        <ele>1281.8000488281</ele>
        <time>2019-10-09T08:09:52Z</time>
      </trkpt>
      <trkpt lat="45.29303" lon="5.76772">
        <ele>1283.4000244141</ele>
        <time>2019-10-09T08:10:03Z</time>
      </trkpt>
      <trkpt lat="45.29282" lon="5.76762">
        <ele>1285.4000244141</ele>
        <time>2019-10-09T08:10:15Z</time>
      </trkpt>
      <trkpt lat="45.29273" lon="5.76756">
        <ele>1286.1999511719</ele>
        <time>2019-10-09T08:10:21Z</time>
      </trkpt>
      <trkpt lat="45.29246" lon="5.76737">
        <ele>1288.8000488281</ele>
        <time>2019-10-09T08:10:35Z</time>
      </trkpt>
      <trkpt lat="45.29231" lon="5.76727">
        <ele>1290</ele>
        <time>2019-10-09T08:10:43Z</time>
      </trkpt>
      <trkpt lat="45.29206" lon="5.76714">
        <ele>1291.8000488281</ele>
        <time>2019-10-09T08:10:55Z</time>
      </trkpt>
      <trkpt lat="45.29191" lon="5.76711">
        <ele>1293.1999511719</ele>
        <time>2019-10-09T08:11:03Z</time>
      </trkpt>
      <trkpt lat="45.29159" lon="5.76707">
        <ele>1295.5999755859</ele>
        <time>2019-10-09T08:11:19Z</time>
      </trkpt>
      <trkpt lat="45.29145" lon="5.76706">
        <ele>1296.5999755859</ele>
        <time>2019-10-09T08:11:26Z</time>
      </trkpt>
      <trkpt lat="45.29104" lon="5.76703">
        <ele>1299.1999511719</ele>
        <time>2019-10-09T08:11:45Z</time>
      </trkpt>
      <trkpt lat="45.29085" lon="5.76702">
        <ele>1300.4000244141</ele>
        <time>2019-10-09T08:11:54Z</time>
      </trkpt>
      <trkpt lat="45.29066" lon="5.76701">
        <ele>1301.8000488281</ele>
        <time>2019-10-09T08:12:03Z</time>
      </trkpt>
      <trkpt lat="45.29039" lon="5.76699">
        <ele>1303.8000488281</ele>
        <time>2019-10-09T08:12:19Z</time>
      </trkpt>
      <trkpt lat="45.29036" lon="5.76699">
        <ele>1305.1999511719</ele>
        <time>2019-10-09T08:13:20Z</time>
      </trkpt>
      <trkpt lat="45.29015" lon="5.76699">
        <ele>1305.5999755859</ele>
        <time>2019-10-09T08:13:32Z</time>
      </trkpt>
      <trkpt lat="45.28999" lon="5.76699">
        <ele>1306.4000244141</ele>
        <time>2019-10-09T08:13:39Z</time>
      </trkpt>
      <trkpt lat="45.28971" lon="5.76695">
        <ele>1308.1999511719</ele>
        <time>2019-10-09T08:13:52Z</time>
      </trkpt>
      <trkpt lat="45.28953" lon="5.76685">
        <ele>1309.1999511719</ele>
        <time>2019-10-09T08:14:06Z</time>
      </trkpt>
      <trkpt lat="45.28956" lon="5.76687">
        <ele>1309.4000244141</ele>
        <time>2019-10-09T08:14:14Z</time>
      </trkpt>
      <trkpt lat="45.28956" lon="5.76687">
        <ele>1310.8000488281</ele>
        <time>2019-10-09T08:19:04Z</time>
      </trkpt>
      <trkpt lat="45.28939" lon="5.76678">
        <ele>1310.5999755859</ele>
        <time>2019-10-09T08:19:15Z</time>
      </trkpt>
      <trkpt lat="45.28924" lon="5.7667">
        <ele>1310.5999755859</ele>
        <time>2019-10-09T08:19:22Z</time>
      </trkpt>
      <trkpt lat="45.28893" lon="5.76655">
        <ele>1310</ele>
        <time>2019-10-09T08:19:29Z</time>
      </trkpt>
      <trkpt lat="45.28873" lon="5.76648">
        <ele>1309.1999511719</ele>
        <time>2019-10-09T08:19:32Z</time>
      </trkpt>
      <trkpt lat="45.28838" lon="5.76643">
        <ele>1307.5999755859</ele>
        <time>2019-10-09T08:19:36Z</time>
      </trkpt>
      <trkpt lat="45.288" lon="5.76636">
        <ele>1305.4000244141</ele>
        <time>2019-10-09T08:19:40Z</time>
      </trkpt>
      <trkpt lat="45.28786" lon="5.76632">
        <ele>1304.4000244141</ele>
        <time>2019-10-09T08:19:42Z</time>
      </trkpt>
      <trkpt lat="45.28757" lon="5.76601">
        <ele>1303</ele>
        <time>2019-10-09T08:19:46Z</time>
      </trkpt>
      <trkpt lat="45.28753" lon="5.76561">
        <ele>1300.8000488281</ele>
        <time>2019-10-09T08:19:49Z</time>
      </trkpt>
      <trkpt lat="45.28751" lon="5.76529">
        <ele>1298.8000488281</ele>
        <time>2019-10-09T08:19:52Z</time>
      </trkpt>
      <trkpt lat="45.28745" lon="5.76511">
        <ele>1297.5999755859</ele>
        <time>2019-10-09T08:19:54Z</time>
      </trkpt>
      <trkpt lat="45.28715" lon="5.7647">
        <ele>1294.5999755859</ele>
        <time>2019-10-09T08:19:59Z</time>
      </trkpt>
      <trkpt lat="45.28692" lon="5.76457">
        <ele>1291.5999755859</ele>
        <time>2019-10-09T08:20:03Z</time>
      </trkpt>
      <trkpt lat="45.28659" lon="5.76445">
        <ele>1288.5999755859</ele>
        <time>2019-10-09T08:20:07Z</time>
      </trkpt>
      <trkpt lat="45.28618" lon="5.7643">
        <ele>1286.4000244141</ele>
        <time>2019-10-09T08:20:11Z</time>
      </trkpt>
      <trkpt lat="45.28577" lon="5.76416">
        <ele>1283</ele>
        <time>2019-10-09T08:20:15Z</time>
      </trkpt>
      <trkpt lat="45.28542" lon="5.76403">
        <ele>1280</ele>
        <time>2019-10-09T08:20:19Z</time>
      </trkpt>
      <trkpt lat="45.28523" lon="5.76396">
        <ele>1278.4000244141</ele>
        <time>2019-10-09T08:20:21Z</time>
      </trkpt>
      <trkpt lat="45.28463" lon="5.76378">
        <ele>1273.8000488281</ele>
        <time>2019-10-09T08:20:27Z</time>
      </trkpt>
      <trkpt lat="45.28434" lon="5.76378">
        <ele>1271</ele>
        <time>2019-10-09T08:20:30Z</time>
      </trkpt>
      <trkpt lat="45.28391" lon="5.76393">
        <ele>1267.5999755859</ele>
        <time>2019-10-09T08:20:35Z</time>
      </trkpt>
      <trkpt lat="45.28371" lon="5.76402">
        <ele>1266</ele>
        <time>2019-10-09T08:20:37Z</time>
      </trkpt>
      <trkpt lat="45.28335" lon="5.76417">
        <ele>1262.8000488281</ele>
        <time>2019-10-09T08:20:41Z</time>
      </trkpt>
      <trkpt lat="45.28315" lon="5.76415">
        <ele>1260.5999755859</ele>
        <time>2019-10-09T08:20:44Z</time>
      </trkpt>
      <trkpt lat="45.28277" lon="5.76391">
        <ele>1257.4000244141</ele>
        <time>2019-10-09T08:20:48Z</time>
      </trkpt>
      <trkpt lat="45.28251" lon="5.76374">
        <ele>1255</ele>
        <time>2019-10-09T08:20:51Z</time>
      </trkpt>
      <trkpt lat="45.28213" lon="5.76364">
        <ele>1251.5999755859</ele>
        <time>2019-10-09T08:20:56Z</time>
      </trkpt>
      <trkpt lat="45.2821" lon="5.7637">
        <ele>1250</ele>
        <time>2019-10-09T08:20:58Z</time>
      </trkpt>
      <trkpt lat="45.2821" lon="5.76383">
        <ele>1248.5999755859</ele>
        <time>2019-10-09T08:21:01Z</time>
      </trkpt>
      <trkpt lat="45.28216" lon="5.76396">
        <ele>1247</ele>
        <time>2019-10-09T08:21:03Z</time>
      </trkpt>
      <trkpt lat="45.28245" lon="5.76433">
        <ele>1245.4000244141</ele>
        <time>2019-10-09T08:21:08Z</time>
      </trkpt>
      <trkpt lat="45.28249" lon="5.76484">
        <ele>1243.8000488281</ele>
        <time>2019-10-09T08:21:12Z</time>
      </trkpt>
      <trkpt lat="45.28244" lon="5.7651">
        <ele>1242.5999755859</ele>
        <time>2019-10-09T08:21:14Z</time>
      </trkpt>
      <trkpt lat="45.28236" lon="5.76597">
        <ele>1238.8000488281</ele>
        <time>2019-10-09T08:21:20Z</time>
      </trkpt>
      <trkpt lat="45.28236" lon="5.76636">
        <ele>1237</ele>
        <time>2019-10-09T08:21:23Z</time>
      </trkpt>
      <trkpt lat="45.28219" lon="5.76663">
        <ele>1232.8000488281</ele>
        <time>2019-10-09T08:21:29Z</time>
      </trkpt>
      <trkpt lat="45.28203" lon="5.76665">
        <ele>1230.5999755859</ele>
        <time>2019-10-09T08:21:32Z</time>
      </trkpt>
      <trkpt lat="45.28162" lon="5.76649">
        <ele>1228.1999511719</ele>
        <time>2019-10-09T08:21:37Z</time>
      </trkpt>
      <trkpt lat="45.28142" lon="5.76639">
        <ele>1227.1999511719</ele>
        <time>2019-10-09T08:21:39Z</time>
      </trkpt>
      <trkpt lat="45.28083" lon="5.76619">
        <ele>1223.5999755859</ele>
        <time>2019-10-09T08:21:44Z</time>
      </trkpt>
      <trkpt lat="45.28049" lon="5.7662">
        <ele>1221.4000244141</ele>
        <time>2019-10-09T08:21:47Z</time>
      </trkpt>
      <trkpt lat="45.27998" lon="5.76626">
        <ele>1219</ele>
        <time>2019-10-09T08:21:51Z</time>
      </trkpt>
      <trkpt lat="45.27969" lon="5.7662">
        <ele>1217.8000488281</ele>
        <time>2019-10-09T08:21:53Z</time>
      </trkpt>
      <trkpt lat="45.27916" lon="5.76602">
        <ele>1213.1999511719</ele>
        <time>2019-10-09T08:21:58Z</time>
      </trkpt>
      <trkpt lat="45.27895" lon="5.766">
        <ele>1211.4000244141</ele>
        <time>2019-10-09T08:22:00Z</time>
      </trkpt>
      <trkpt lat="45.27862" lon="5.76601">
        <ele>1208.8000488281</ele>
        <time>2019-10-09T08:22:03Z</time>
      </trkpt>
      <trkpt lat="45.27806" lon="5.76626">
        <ele>1204.4000244141</ele>
        <time>2019-10-09T08:22:08Z</time>
      </trkpt>
      <trkpt lat="45.27764" lon="5.76644">
        <ele>1200.8000488281</ele>
        <time>2019-10-09T08:22:12Z</time>
      </trkpt>
      <trkpt lat="45.27729" lon="5.76649">
        <ele>1198</ele>
        <time>2019-10-09T08:22:16Z</time>
      </trkpt>
      <trkpt lat="45.27709" lon="5.76646">
        <ele>1196.4000244141</ele>
        <time>2019-10-09T08:22:18Z</time>
      </trkpt>
      <trkpt lat="45.27678" lon="5.76636">
        <ele>1193.8000488281</ele>
        <time>2019-10-09T08:22:21Z</time>
      </trkpt>
      <trkpt lat="45.27655" lon="5.7662">
        <ele>1192</ele>
        <time>2019-10-09T08:22:23Z</time>
      </trkpt>
      <trkpt lat="45.2762" lon="5.76596">
        <ele>1188.5999755859</ele>
        <time>2019-10-09T08:22:27Z</time>
      </trkpt>
      <trkpt lat="45.2759" lon="5.76591">
        <ele>1186.1999511719</ele>
        <time>2019-10-09T08:22:30Z</time>
      </trkpt>
      <trkpt lat="45.27545" lon="5.76591">
        <ele>1183.1999511719</ele>
        <time>2019-10-09T08:22:34Z</time>
      </trkpt>
      <trkpt lat="45.27515" lon="5.76591">
        <ele>1180.8000488281</ele>
        <time>2019-10-09T08:22:37Z</time>
      </trkpt>
      <trkpt lat="45.27496" lon="5.76598">
        <ele>1178</ele>
        <time>2019-10-09T08:22:40Z</time>
      </trkpt>
      <trkpt lat="45.27485" lon="5.76619">
        <ele>1176.4000244141</ele>
        <time>2019-10-09T08:22:43Z</time>
      </trkpt>
      <trkpt lat="45.27481" lon="5.76642">
        <ele>1174.4000244141</ele>
        <time>2019-10-09T08:22:45Z</time>
      </trkpt>
      <trkpt lat="45.27474" lon="5.76709">
        <ele>1169.4000244141</ele>
        <time>2019-10-09T08:22:51Z</time>
      </trkpt>
      <trkpt lat="45.27474" lon="5.76728">
        <ele>1168.1999511719</ele>
        <time>2019-10-09T08:22:53Z</time>
      </trkpt>
      <trkpt lat="45.27465" lon="5.76742">
        <ele>1166.1999511719</ele>
        <time>2019-10-09T08:22:56Z</time>
      </trkpt>
      <trkpt lat="45.27447" lon="5.76739">
        <ele>1164</ele>
        <time>2019-10-09T08:22:59Z</time>
      </trkpt>
      <trkpt lat="45.2742" lon="5.76714">
        <ele>1161.8000488281</ele>
        <time>2019-10-09T08:23:04Z</time>
      </trkpt>
      <trkpt lat="45.27389" lon="5.76679">
        <ele>1160.4000244141</ele>
        <time>2019-10-09T08:23:09Z</time>
      </trkpt>
      <trkpt lat="45.27369" lon="5.76635">
        <ele>1158</ele>
        <time>2019-10-09T08:23:13Z</time>
      </trkpt>
      <trkpt lat="45.27354" lon="5.76611">
        <ele>1155.8000488281</ele>
        <time>2019-10-09T08:23:16Z</time>
      </trkpt>
      <trkpt lat="45.27336" lon="5.7659">
        <ele>1153</ele>
        <time>2019-10-09T08:23:20Z</time>
      </trkpt>
      <trkpt lat="45.27317" lon="5.76571">
        <ele>1149.1999511719</ele>
        <time>2019-10-09T08:23:25Z</time>
      </trkpt>
      <trkpt lat="45.27296" lon="5.7654">
        <ele>1145.1999511719</ele>
        <time>2019-10-09T08:23:34Z</time>
      </trkpt>
      <trkpt lat="45.27308" lon="5.76545">
        <ele>1144</ele>
        <time>2019-10-09T08:24:54Z</time>
      </trkpt>
      <trkpt lat="45.27312" lon="5.76546">
        <ele>1144</ele>
        <time>2019-10-09T08:24:57Z</time>
      </trkpt>
      <trkpt lat="45.27331" lon="5.76554">
        <ele>1143.5999755859</ele>
        <time>2019-10-09T08:25:02Z</time>
      </trkpt>
      <trkpt lat="45.27348" lon="5.76561">
        <ele>1143</ele>
        <time>2019-10-09T08:25:06Z</time>
      </trkpt>
      <trkpt lat="45.27363" lon="5.76572">
        <ele>1141.8000488281</ele>
        <time>2019-10-09T08:25:10Z</time>
      </trkpt>
      <trkpt lat="45.27383" lon="5.76592">
        <ele>1140.4000244141</ele>
        <time>2019-10-09T08:25:14Z</time>
      </trkpt>
      <trkpt lat="45.27411" lon="5.76605">
        <ele>1138.1999511719</ele>
        <time>2019-10-09T08:25:18Z</time>
      </trkpt>
      <trkpt lat="45.27419" lon="5.76587">
        <ele>1137</ele>
        <time>2019-10-09T08:25:20Z</time>
      </trkpt>
      <trkpt lat="45.27417" lon="5.76545">
        <ele>1135.4000244141</ele>
        <time>2019-10-09T08:25:24Z</time>
      </trkpt>
      <trkpt lat="45.27415" lon="5.76499">
        <ele>1134.1999511719</ele>
        <time>2019-10-09T08:25:28Z</time>
      </trkpt>
      <trkpt lat="45.27412" lon="5.76435">
        <ele>1132.1999511719</ele>
        <time>2019-10-09T08:25:33Z</time>
      </trkpt>
      <trkpt lat="45.27406" lon="5.76389">
        <ele>1130.1999511719</ele>
        <time>2019-10-09T08:25:37Z</time>
      </trkpt>
      <trkpt lat="45.2739" lon="5.76307">
        <ele>1126.1999511719</ele>
        <time>2019-10-09T08:25:45Z</time>
      </trkpt>
      <trkpt lat="45.27387" lon="5.76283">
        <ele>1124</ele>
        <time>2019-10-09T08:25:48Z</time>
      </trkpt>
      <trkpt lat="45.27397" lon="5.76253">
        <ele>1122</ele>
        <time>2019-10-09T08:25:52Z</time>
      </trkpt>
      <trkpt lat="45.27407" lon="5.7624">
        <ele>1120.5999755859</ele>
        <time>2019-10-09T08:25:54Z</time>
      </trkpt>
      <trkpt lat="45.27437" lon="5.76218">
        <ele>1118.4000244141</ele>
        <time>2019-10-09T08:25:58Z</time>
      </trkpt>
      <trkpt lat="45.27487" lon="5.76183">
        <ele>1114.8000488281</ele>
        <time>2019-10-09T08:26:04Z</time>
      </trkpt>
      <trkpt lat="45.27531" lon="5.76155">
        <ele>1112.5999755859</ele>
        <time>2019-10-09T08:26:09Z</time>
      </trkpt>
      <trkpt lat="45.27564" lon="5.76146">
        <ele>1110</ele>
        <time>2019-10-09T08:26:13Z</time>
      </trkpt>
      <trkpt lat="45.27586" lon="5.7614">
        <ele>1108.1999511719</ele>
        <time>2019-10-09T08:26:16Z</time>
      </trkpt>
      <trkpt lat="45.27601" lon="5.76108">
        <ele>1105.4000244141</ele>
        <time>2019-10-09T08:26:21Z</time>
      </trkpt>
      <trkpt lat="45.27599" lon="5.7609">
        <ele>1104.4000244141</ele>
        <time>2019-10-09T08:26:23Z</time>
      </trkpt>
      <trkpt lat="45.27586" lon="5.76076">
        <ele>1103.1999511719</ele>
        <time>2019-10-09T08:26:26Z</time>
      </trkpt>
      <trkpt lat="45.27568" lon="5.7607">
        <ele>1102.1999511719</ele>
        <time>2019-10-09T08:26:28Z</time>
      </trkpt>
      <trkpt lat="45.27494" lon="5.76043">
        <ele>1099</ele>
        <time>2019-10-09T08:26:35Z</time>
      </trkpt>
      <trkpt lat="45.27457" lon="5.76021">
        <ele>1095.8000488281</ele>
        <time>2019-10-09T08:26:39Z</time>
      </trkpt>
      <trkpt lat="45.2742" lon="5.75983">
        <ele>1092.1999511719</ele>
        <time>2019-10-09T08:26:44Z</time>
      </trkpt>
      <trkpt lat="45.27393" lon="5.75944">
        <ele>1089</ele>
        <time>2019-10-09T08:26:48Z</time>
      </trkpt>
      <trkpt lat="45.2737" lon="5.7591">
        <ele>1085.8000488281</ele>
        <time>2019-10-09T08:26:52Z</time>
      </trkpt>
      <trkpt lat="45.27345" lon="5.75871">
        <ele>1081.4000244141</ele>
        <time>2019-10-09T08:26:58Z</time>
      </trkpt>
      <trkpt lat="45.27341" lon="5.7586">
        <ele>1079.5999755859</ele>
        <time>2019-10-09T08:27:00Z</time>
      </trkpt>
      <trkpt lat="45.27345" lon="5.75834">
        <ele>1077.5999755859</ele>
        <time>2019-10-09T08:27:03Z</time>
      </trkpt>
      <trkpt lat="45.27356" lon="5.75818">
        <ele>1075.4000244141</ele>
        <time>2019-10-09T08:27:06Z</time>
      </trkpt>
      <trkpt lat="45.27393" lon="5.75812">
        <ele>1072.8000488281</ele>
        <time>2019-10-09T08:27:11Z</time>
      </trkpt>
      <trkpt lat="45.27434" lon="5.75814">
        <ele>1071</ele>
        <time>2019-10-09T08:27:16Z</time>
      </trkpt>
      <trkpt lat="45.2748" lon="5.75837">
        <ele>1068.4000244141</ele>
        <time>2019-10-09T08:27:22Z</time>
      </trkpt>
      <trkpt lat="45.2751" lon="5.75842">
        <ele>1066.4000244141</ele>
        <time>2019-10-09T08:27:26Z</time>
      </trkpt>
      <trkpt lat="45.27548" lon="5.75828">
        <ele>1063</ele>
        <time>2019-10-09T08:27:32Z</time>
      </trkpt>
      <trkpt lat="45.27581" lon="5.75829">
        <ele>1060.5999755859</ele>
        <time>2019-10-09T08:27:37Z</time>
      </trkpt>
      <trkpt lat="45.27628" lon="5.75844">
        <ele>1057.8000488281</ele>
        <time>2019-10-09T08:27:44Z</time>
      </trkpt>
      <trkpt lat="45.27658" lon="5.75851">
        <ele>1055.5999755859</ele>
        <time>2019-10-09T08:27:49Z</time>
      </trkpt>
      <trkpt lat="45.27673" lon="5.75846">
        <ele>1054</ele>
        <time>2019-10-09T08:27:52Z</time>
      </trkpt>
      <trkpt lat="45.27689" lon="5.7581">
        <ele>1051</ele>
        <time>2019-10-09T08:27:58Z</time>
      </trkpt>
      <trkpt lat="45.27686" lon="5.75791">
        <ele>1050.4000244141</ele>
        <time>2019-10-09T08:28:00Z</time>
      </trkpt>
      <trkpt lat="45.27678" lon="5.75769">
        <ele>1049.5999755859</ele>
        <time>2019-10-09T08:28:03Z</time>
      </trkpt>
      <trkpt lat="45.27666" lon="5.75767">
        <ele>1049.1999511719</ele>
        <time>2019-10-09T08:28:05Z</time>
      </trkpt>
      <trkpt lat="45.27652" lon="5.75765">
        <ele>1047.8000488281</ele>
        <time>2019-10-09T08:28:08Z</time>
      </trkpt>
      <trkpt lat="45.27634" lon="5.75762">
        <ele>1045.8000488281</ele>
        <time>2019-10-09T08:28:13Z</time>
      </trkpt>
      <trkpt lat="45.27615" lon="5.75743">
        <ele>1042.4000244141</ele>
        <time>2019-10-09T08:28:22Z</time>
      </trkpt>
      <trkpt lat="45.27594" lon="5.75725">
        <ele>1040.8000488281</ele>
        <time>2019-10-09T08:28:29Z</time>
      </trkpt>
      <trkpt lat="45.27575" lon="5.75713">
        <ele>1039.8000488281</ele>
        <time>2019-10-09T08:28:33Z</time>
      </trkpt>
      <trkpt lat="45.27539" lon="5.75701">
        <ele>1038.8000488281</ele>
        <time>2019-10-09T08:28:39Z</time>
      </trkpt>
      <trkpt lat="45.27517" lon="5.75713">
        <ele>1037</ele>
        <time>2019-10-09T08:28:42Z</time>
      </trkpt>
      <trkpt lat="45.27496" lon="5.7573">
        <ele>1034.8000488281</ele>
        <time>2019-10-09T08:28:46Z</time>
      </trkpt>
      <trkpt lat="45.27487" lon="5.75733">
        <ele>1033.5999755859</ele>
        <time>2019-10-09T08:28:48Z</time>
      </trkpt>
      <trkpt lat="45.27473" lon="5.75729">
        <ele>1031.1999511719</ele>
        <time>2019-10-09T08:28:51Z</time>
      </trkpt>
      <trkpt lat="45.27464" lon="5.75725">
        <ele>1030</ele>
        <time>2019-10-09T08:28:53Z</time>
      </trkpt>
      <trkpt lat="45.27442" lon="5.75711">
        <ele>1027.4000244141</ele>
        <time>2019-10-09T08:28:57Z</time>
      </trkpt>
      <trkpt lat="45.2743" lon="5.757">
        <ele>1026</ele>
        <time>2019-10-09T08:28:59Z</time>
      </trkpt>
      <trkpt lat="45.2738" lon="5.75628">
        <ele>1021.799987793</ele>
        <time>2019-10-09T08:29:05Z</time>
      </trkpt>
      <trkpt lat="45.27363" lon="5.75596">
        <ele>1019.4000244141</ele>
        <time>2019-10-09T08:29:08Z</time>
      </trkpt>
      <trkpt lat="45.27339" lon="5.7557">
        <ele>1017.4000244141</ele>
        <time>2019-10-09T08:29:12Z</time>
      </trkpt>
      <trkpt lat="45.27327" lon="5.75562">
        <ele>1016</ele>
        <time>2019-10-09T08:29:14Z</time>
      </trkpt>
      <trkpt lat="45.27294" lon="5.75542">
        <ele>1011.4000244141</ele>
        <time>2019-10-09T08:29:19Z</time>
      </trkpt>
      <trkpt lat="45.27276" lon="5.75526">
        <ele>1009.200012207</ele>
        <time>2019-10-09T08:29:21Z</time>
      </trkpt>
      <trkpt lat="45.27246" lon="5.75506">
        <ele>1005</ele>
        <time>2019-10-09T08:29:26Z</time>
      </trkpt>
      <trkpt lat="45.27227" lon="5.755">
        <ele>1003.4000244141</ele>
        <time>2019-10-09T08:29:29Z</time>
      </trkpt>
      <trkpt lat="45.27189" lon="5.75492">
        <ele>998.79998779297</ele>
        <time>2019-10-09T08:29:34Z</time>
      </trkpt>
      <trkpt lat="45.27168" lon="5.7549">
        <ele>996.40002441406</ele>
        <time>2019-10-09T08:29:37Z</time>
      </trkpt>
      <trkpt lat="45.27144" lon="5.75488">
        <ele>994</ele>
        <time>2019-10-09T08:29:40Z</time>
      </trkpt>
      <trkpt lat="45.27114" lon="5.75475">
        <ele>990.79998779297</ele>
        <time>2019-10-09T08:29:44Z</time>
      </trkpt>
      <trkpt lat="45.27093" lon="5.75465">
        <ele>987.79998779297</ele>
        <time>2019-10-09T08:29:47Z</time>
      </trkpt>
      <trkpt lat="45.27077" lon="5.75449">
        <ele>985.20001220703</ele>
        <time>2019-10-09T08:29:50Z</time>
      </trkpt>
      <trkpt lat="45.27058" lon="5.75423">
        <ele>983.59997558594</ele>
        <time>2019-10-09T08:29:52Z</time>
      </trkpt>
      <trkpt lat="45.27022" lon="5.75357">
        <ele>980</ele>
        <time>2019-10-09T08:29:57Z</time>
      </trkpt>
      <trkpt lat="45.26994" lon="5.75317">
        <ele>975.79998779297</ele>
        <time>2019-10-09T08:30:01Z</time>
      </trkpt>
      <trkpt lat="45.26964" lon="5.75269">
        <ele>970.20001220703</ele>
        <time>2019-10-09T08:30:06Z</time>
      </trkpt>
      <trkpt lat="45.26951" lon="5.75259">
        <ele>967.40002441406</ele>
        <time>2019-10-09T08:30:09Z</time>
      </trkpt>
      <trkpt lat="45.2692" lon="5.75264">
        <ele>963.59997558594</ele>
        <time>2019-10-09T08:30:13Z</time>
      </trkpt>
      <trkpt lat="45.26903" lon="5.7528">
        <ele>960.59997558594</ele>
        <time>2019-10-09T08:30:16Z</time>
      </trkpt>
      <trkpt lat="45.26897" lon="5.75311">
        <ele>958.59997558594</ele>
        <time>2019-10-09T08:30:20Z</time>
      </trkpt>
      <trkpt lat="45.26899" lon="5.7533">
        <ele>957.59997558594</ele>
        <time>2019-10-09T08:30:22Z</time>
      </trkpt>
      <trkpt lat="45.26906" lon="5.75373">
        <ele>955.59997558594</ele>
        <time>2019-10-09T08:30:26Z</time>
      </trkpt>
      <trkpt lat="45.26906" lon="5.75416">
        <ele>952.20001220703</ele>
        <time>2019-10-09T08:30:31Z</time>
      </trkpt>
      <trkpt lat="45.26904" lon="5.75424">
        <ele>950.79998779297</ele>
        <time>2019-10-09T08:30:33Z</time>
      </trkpt>
      <trkpt lat="45.26881" lon="5.75433">
        <ele>947.59997558594</ele>
        <time>2019-10-09T08:30:37Z</time>
      </trkpt>
      <trkpt lat="45.26864" lon="5.75429">
        <ele>946</ele>
        <time>2019-10-09T08:30:39Z</time>
      </trkpt>
      <trkpt lat="45.26835" lon="5.75426">
        <ele>944.20001220703</ele>
        <time>2019-10-09T08:30:42Z</time>
      </trkpt>
      <trkpt lat="45.26811" lon="5.75412">
        <ele>943.20001220703</ele>
        <time>2019-10-09T08:30:45Z</time>
      </trkpt>
      <trkpt lat="45.26789" lon="5.75403">
        <ele>941.40002441406</ele>
        <time>2019-10-09T08:30:48Z</time>
      </trkpt>
      <trkpt lat="45.26767" lon="5.75409">
        <ele>938.59997558594</ele>
        <time>2019-10-09T08:30:51Z</time>
      </trkpt>
      <trkpt lat="45.26742" lon="5.754">
        <ele>935.79998779297</ele>
        <time>2019-10-09T08:30:54Z</time>
      </trkpt>
      <trkpt lat="45.26728" lon="5.75387">
        <ele>934</ele>
        <time>2019-10-09T08:30:56Z</time>
      </trkpt>
      <trkpt lat="45.26698" lon="5.75357">
        <ele>930.59997558594</ele>
        <time>2019-10-09T08:31:00Z</time>
      </trkpt>
      <trkpt lat="45.26682" lon="5.75342">
        <ele>929</ele>
        <time>2019-10-09T08:31:02Z</time>
      </trkpt>
      <trkpt lat="45.26661" lon="5.75318">
        <ele>925.59997558594</ele>
        <time>2019-10-09T08:31:05Z</time>
      </trkpt>
      <trkpt lat="45.2664" lon="5.7529">
        <ele>923</ele>
        <time>2019-10-09T08:31:08Z</time>
      </trkpt>
      <trkpt lat="45.26619" lon="5.75257">
        <ele>919.79998779297</ele>
        <time>2019-10-09T08:31:12Z</time>
      </trkpt>
      <trkpt lat="45.26592" lon="5.75219">
        <ele>915</ele>
        <time>2019-10-09T08:31:17Z</time>
      </trkpt>
      <trkpt lat="45.26579" lon="5.75203">
        <ele>913.20001220703</ele>
        <time>2019-10-09T08:31:19Z</time>
      </trkpt>
      <trkpt lat="45.26557" lon="5.75186">
        <ele>909.79998779297</ele>
        <time>2019-10-09T08:31:23Z</time>
      </trkpt>
      <trkpt lat="45.26544" lon="5.75177">
        <ele>908.20001220703</ele>
        <time>2019-10-09T08:31:25Z</time>
      </trkpt>
      <trkpt lat="45.26521" lon="5.75162">
        <ele>905.20001220703</ele>
        <time>2019-10-09T08:31:29Z</time>
      </trkpt>
      <trkpt lat="45.26506" lon="5.75151">
        <ele>903</ele>
        <time>2019-10-09T08:31:32Z</time>
      </trkpt>
      <trkpt lat="45.26476" lon="5.75135">
        <ele>899.40002441406</ele>
        <time>2019-10-09T08:31:37Z</time>
      </trkpt>
      <trkpt lat="45.2645" lon="5.75135">
        <ele>896</ele>
        <time>2019-10-09T08:31:41Z</time>
      </trkpt>
      <trkpt lat="45.26421" lon="5.75125">
        <ele>892.79998779297</ele>
        <time>2019-10-09T08:31:45Z</time>
      </trkpt>
      <trkpt lat="45.26395" lon="5.751">
        <ele>889.59997558594</ele>
        <time>2019-10-09T08:31:49Z</time>
      </trkpt>
      <trkpt lat="45.26388" lon="5.75084">
        <ele>887.59997558594</ele>
        <time>2019-10-09T08:31:51Z</time>
      </trkpt>
      <trkpt lat="45.26375" lon="5.75047">
        <ele>884.40002441406</ele>
        <time>2019-10-09T08:31:55Z</time>
      </trkpt>
      <trkpt lat="45.26351" lon="5.75021">
        <ele>880.79998779297</ele>
        <time>2019-10-09T08:31:59Z</time>
      </trkpt>
      <trkpt lat="45.26347" lon="5.74977">
        <ele>877.59997558594</ele>
        <time>2019-10-09T08:32:04Z</time>
      </trkpt>
      <trkpt lat="45.26348" lon="5.74946">
        <ele>875.40002441406</ele>
        <time>2019-10-09T08:32:07Z</time>
      </trkpt>
      <trkpt lat="45.26336" lon="5.74922">
        <ele>872.79998779297</ele>
        <time>2019-10-09T08:32:10Z</time>
      </trkpt>
      <trkpt lat="45.26329" lon="5.74899">
        <ele>871</ele>
        <time>2019-10-09T08:32:12Z</time>
      </trkpt>
      <trkpt lat="45.26316" lon="5.74864">
        <ele>868.20001220703</ele>
        <time>2019-10-09T08:32:16Z</time>
      </trkpt>
      <trkpt lat="45.26304" lon="5.74855">
        <ele>866.79998779297</ele>
        <time>2019-10-09T08:32:18Z</time>
      </trkpt>
      <trkpt lat="45.26285" lon="5.74844">
        <ele>864.20001220703</ele>
        <time>2019-10-09T08:32:21Z</time>
      </trkpt>
      <trkpt lat="45.26275" lon="5.74843">
        <ele>862.59997558594</ele>
        <time>2019-10-09T08:32:23Z</time>
      </trkpt>
      <trkpt lat="45.2626" lon="5.74858">
        <ele>860.59997558594</ele>
        <time>2019-10-09T08:32:27Z</time>
      </trkpt>
      <trkpt lat="45.26253" lon="5.74889">
        <ele>858.59997558594</ele>
        <time>2019-10-09T08:32:30Z</time>
      </trkpt>
      <trkpt lat="45.26242" lon="5.74927">
        <ele>856.20001220703</ele>
        <time>2019-10-09T08:32:34Z</time>
      </trkpt>
      <trkpt lat="45.2623" lon="5.74944">
        <ele>853.79998779297</ele>
        <time>2019-10-09T08:32:37Z</time>
      </trkpt>
      <trkpt lat="45.26221" lon="5.74949">
        <ele>852.59997558594</ele>
        <time>2019-10-09T08:32:39Z</time>
      </trkpt>
      <trkpt lat="45.26201" lon="5.74948">
        <ele>849.79998779297</ele>
        <time>2019-10-09T08:32:42Z</time>
      </trkpt>
      <trkpt lat="45.26184" lon="5.74936">
        <ele>847.79998779297</ele>
        <time>2019-10-09T08:32:44Z</time>
      </trkpt>
      <trkpt lat="45.26173" lon="5.74906">
        <ele>845.20001220703</ele>
        <time>2019-10-09T08:32:47Z</time>
      </trkpt>
      <trkpt lat="45.26167" lon="5.74886">
        <ele>843.59997558594</ele>
        <time>2019-10-09T08:32:49Z</time>
      </trkpt>
      <trkpt lat="45.26153" lon="5.74868">
        <ele>841.40002441406</ele>
        <time>2019-10-09T08:32:53Z</time>
      </trkpt>
      <trkpt lat="45.26137" lon="5.74869">
        <ele>838.79998779297</ele>
        <time>2019-10-09T08:32:56Z</time>
      </trkpt>
      <trkpt lat="45.26117" lon="5.74891">
        <ele>836</ele>
        <time>2019-10-09T08:33:00Z</time>
      </trkpt>
      <trkpt lat="45.26105" lon="5.74896">
        <ele>834.79998779297</ele>
        <time>2019-10-09T08:33:02Z</time>
      </trkpt>
      <trkpt lat="45.26082" lon="5.7487">
        <ele>832.40002441406</ele>
        <time>2019-10-09T08:33:06Z</time>
      </trkpt>
      <trkpt lat="45.26074" lon="5.7485">
        <ele>831</ele>
        <time>2019-10-09T08:33:08Z</time>
      </trkpt>
      <trkpt lat="45.2605" lon="5.74821">
        <ele>827.79998779297</ele>
        <time>2019-10-09T08:33:12Z</time>
      </trkpt>
      <trkpt lat="45.26036" lon="5.74808">
        <ele>826</ele>
        <time>2019-10-09T08:33:14Z</time>
      </trkpt>
      <trkpt lat="45.2602" lon="5.74777">
        <ele>824.20001220703</ele>
        <time>2019-10-09T08:33:17Z</time>
      </trkpt>
      <trkpt lat="45.2599" lon="5.74733">
        <ele>820</ele>
        <time>2019-10-09T08:33:22Z</time>
      </trkpt>
      <trkpt lat="45.25969" lon="5.74723">
        <ele>817</ele>
        <time>2019-10-09T08:33:25Z</time>
      </trkpt>
      <trkpt lat="45.25947" lon="5.74718">
        <ele>814</ele>
        <time>2019-10-09T08:33:28Z</time>
      </trkpt>
      <trkpt lat="45.25922" lon="5.74704">
        <ele>811.40002441406</ele>
        <time>2019-10-09T08:33:31Z</time>
      </trkpt>
      <trkpt lat="45.25896" lon="5.74678">
        <ele>807.40002441406</ele>
        <time>2019-10-09T08:33:36Z</time>
      </trkpt>
      <trkpt lat="45.25887" lon="5.74677">
        <ele>805.59997558594</ele>
        <time>2019-10-09T08:33:38Z</time>
      </trkpt>
      <trkpt lat="45.2585" lon="5.74706">
        <ele>801.79998779297</ele>
        <time>2019-10-09T08:33:44Z</time>
      </trkpt>
      <trkpt lat="45.25839" lon="5.74709">
        <ele>801</ele>
        <time>2019-10-09T08:33:46Z</time>
      </trkpt>
      <trkpt lat="45.25817" lon="5.74697">
        <ele>799</ele>
        <time>2019-10-09T08:33:50Z</time>
      </trkpt>
      <trkpt lat="45.25804" lon="5.74674">
        <ele>797</ele>
        <time>2019-10-09T08:33:53Z</time>
      </trkpt>
      <trkpt lat="45.25775" lon="5.74642">
        <ele>793.20001220703</ele>
        <time>2019-10-09T08:33:58Z</time>
      </trkpt>
      <trkpt lat="45.25761" lon="5.74634">
        <ele>792.20001220703</ele>
        <time>2019-10-09T08:34:00Z</time>
      </trkpt>
      <trkpt lat="45.25749" lon="5.74631">
        <ele>791</ele>
        <time>2019-10-09T08:34:02Z</time>
      </trkpt>
      <trkpt lat="45.25729" lon="5.74619">
        <ele>788</ele>
        <time>2019-10-09T08:34:06Z</time>
      </trkpt>
      <trkpt lat="45.25734" lon="5.74591">
        <ele>786.40002441406</ele>
        <time>2019-10-09T08:34:10Z</time>
      </trkpt>
      <trkpt lat="45.25764" lon="5.74597">
        <ele>784.20001220703</ele>
        <time>2019-10-09T08:34:14Z</time>
      </trkpt>
      <trkpt lat="45.2578" lon="5.746">
        <ele>783</ele>
        <time>2019-10-09T08:34:16Z</time>
      </trkpt>
      <trkpt lat="45.25816" lon="5.74573">
        <ele>780.59997558594</ele>
        <time>2019-10-09T08:34:22Z</time>
      </trkpt>
      <trkpt lat="45.25824" lon="5.74558">
        <ele>779.20001220703</ele>
        <time>2019-10-09T08:34:24Z</time>
      </trkpt>
      <trkpt lat="45.25839" lon="5.74551">
        <ele>776.79998779297</ele>
        <time>2019-10-09T08:34:27Z</time>
      </trkpt>
      <trkpt lat="45.25851" lon="5.74553">
        <ele>775.20001220703</ele>
        <time>2019-10-09T08:34:29Z</time>
      </trkpt>
      <trkpt lat="45.25874" lon="5.74557">
        <ele>772.59997558594</ele>
        <time>2019-10-09T08:34:32Z</time>
      </trkpt>
      <trkpt lat="45.25889" lon="5.7456">
        <ele>772.20001220703</ele>
        <time>2019-10-09T08:34:34Z</time>
      </trkpt>
      <trkpt lat="45.25916" lon="5.74578">
        <ele>768.20001220703</ele>
        <time>2019-10-09T08:34:39Z</time>
      </trkpt>
      <trkpt lat="45.25929" lon="5.74585">
        <ele>766.79998779297</ele>
        <time>2019-10-09T08:34:41Z</time>
      </trkpt>
      <trkpt lat="45.25956" lon="5.74574">
        <ele>763.20001220703</ele>
        <time>2019-10-09T08:34:45Z</time>
      </trkpt>
      <trkpt lat="45.25983" lon="5.74564">
        <ele>760</ele>
        <time>2019-10-09T08:34:49Z</time>
      </trkpt>
      <trkpt lat="45.25994" lon="5.74566">
        <ele>758.59997558594</ele>
        <time>2019-10-09T08:34:51Z</time>
      </trkpt>
      <trkpt lat="45.26009" lon="5.7459">
        <ele>755.79998779297</ele>
        <time>2019-10-09T08:34:55Z</time>
      </trkpt>
      <trkpt lat="45.26015" lon="5.74594">
        <ele>754.20001220703</ele>
        <time>2019-10-09T08:34:57Z</time>
      </trkpt>
      <trkpt lat="45.26028" lon="5.74571">
        <ele>751.79998779297</ele>
        <time>2019-10-09T08:35:01Z</time>
      </trkpt>
      <trkpt lat="45.26026" lon="5.74561">
        <ele>750.59997558594</ele>
        <time>2019-10-09T08:35:03Z</time>
      </trkpt>
      <trkpt lat="45.26015" lon="5.74554">
        <ele>749.79998779297</ele>
        <time>2019-10-09T08:35:06Z</time>
      </trkpt>
      <trkpt lat="45.25986" lon="5.74524">
        <ele>748</ele>
        <time>2019-10-09T08:35:11Z</time>
      </trkpt>
      <trkpt lat="45.25958" lon="5.74499">
        <ele>746.40002441406</ele>
        <time>2019-10-09T08:35:15Z</time>
      </trkpt>
      <trkpt lat="45.25944" lon="5.74506">
        <ele>745.20001220703</ele>
        <time>2019-10-09T08:35:17Z</time>
      </trkpt>
      <trkpt lat="45.25921" lon="5.74503">
        <ele>742.20001220703</ele>
        <time>2019-10-09T08:35:22Z</time>
      </trkpt>
      <trkpt lat="45.25911" lon="5.7448">
        <ele>740.79998779297</ele>
        <time>2019-10-09T08:35:25Z</time>
      </trkpt>
      <trkpt lat="45.25886" lon="5.7445">
        <ele>738.40002441406</ele>
        <time>2019-10-09T08:35:29Z</time>
      </trkpt>
      <trkpt lat="45.25871" lon="5.74441">
        <ele>736.79998779297</ele>
        <time>2019-10-09T08:35:31Z</time>
      </trkpt>
      <trkpt lat="45.25842" lon="5.7442">
        <ele>734.20001220703</ele>
        <time>2019-10-09T08:35:35Z</time>
      </trkpt>
      <trkpt lat="45.2582" lon="5.7439">
        <ele>731.40002441406</ele>
        <time>2019-10-09T08:35:39Z</time>
      </trkpt>
      <trkpt lat="45.25809" lon="5.74385">
        <ele>730</ele>
        <time>2019-10-09T08:35:41Z</time>
      </trkpt>
      <trkpt lat="45.25794" lon="5.74388">
        <ele>727.79998779297</ele>
        <time>2019-10-09T08:35:44Z</time>
      </trkpt>
      <trkpt lat="45.25778" lon="5.74408">
        <ele>725.40002441406</ele>
        <time>2019-10-09T08:35:47Z</time>
      </trkpt>
      <trkpt lat="45.25747" lon="5.74435">
        <ele>722.79998779297</ele>
        <time>2019-10-09T08:35:52Z</time>
      </trkpt>
      <trkpt lat="45.2574" lon="5.74432">
        <ele>721.59997558594</ele>
        <time>2019-10-09T08:35:54Z</time>
      </trkpt>
      <trkpt lat="45.25717" lon="5.74421">
        <ele>718.59997558594</ele>
        <time>2019-10-09T08:35:58Z</time>
      </trkpt>
      <trkpt lat="45.2569" lon="5.74415">
        <ele>716.59997558594</ele>
        <time>2019-10-09T08:36:01Z</time>
      </trkpt>
      <trkpt lat="45.25666" lon="5.74393">
        <ele>713.79998779297</ele>
        <time>2019-10-09T08:36:05Z</time>
      </trkpt>
      <trkpt lat="45.25661" lon="5.74356">
        <ele>710.40002441406</ele>
        <time>2019-10-09T08:36:09Z</time>
      </trkpt>
      <trkpt lat="45.25642" lon="5.74317">
        <ele>706.79998779297</ele>
        <time>2019-10-09T08:36:14Z</time>
      </trkpt>
      <trkpt lat="45.25615" lon="5.74298">
        <ele>704.79998779297</ele>
        <time>2019-10-09T08:36:18Z</time>
      </trkpt>
      <trkpt lat="45.25595" lon="5.7429">
        <ele>703.20001220703</ele>
        <time>2019-10-09T08:36:21Z</time>
      </trkpt>
      <trkpt lat="45.25573" lon="5.74289">
        <ele>701.20001220703</ele>
        <time>2019-10-09T08:36:24Z</time>
      </trkpt>
      <trkpt lat="45.25552" lon="5.74299">
        <ele>699.20001220703</ele>
        <time>2019-10-09T08:36:27Z</time>
      </trkpt>
      <trkpt lat="45.25523" lon="5.74304">
        <ele>695.59997558594</ele>
        <time>2019-10-09T08:36:31Z</time>
      </trkpt>
      <trkpt lat="45.25495" lon="5.74299">
        <ele>693</ele>
        <time>2019-10-09T08:36:34Z</time>
      </trkpt>
      <trkpt lat="45.25469" lon="5.74288">
        <ele>690.20001220703</ele>
        <time>2019-10-09T08:36:37Z</time>
      </trkpt>
      <trkpt lat="45.25456" lon="5.74274">
        <ele>688.79998779297</ele>
        <time>2019-10-09T08:36:39Z</time>
      </trkpt>
      <trkpt lat="45.25422" lon="5.74247">
        <ele>684.79998779297</ele>
        <time>2019-10-09T08:36:44Z</time>
      </trkpt>
      <trkpt lat="45.25398" lon="5.74242">
        <ele>681.79998779297</ele>
        <time>2019-10-09T08:36:47Z</time>
      </trkpt>
      <trkpt lat="45.25372" lon="5.74227">
        <ele>679.40002441406</ele>
        <time>2019-10-09T08:36:50Z</time>
      </trkpt>
      <trkpt lat="45.25348" lon="5.74204">
        <ele>677.20001220703</ele>
        <time>2019-10-09T08:36:53Z</time>
      </trkpt>
      <trkpt lat="45.25322" lon="5.74189">
        <ele>674.20001220703</ele>
        <time>2019-10-09T08:36:56Z</time>
      </trkpt>
      <trkpt lat="45.25307" lon="5.74184">
        <ele>672.20001220703</ele>
        <time>2019-10-09T08:36:58Z</time>
      </trkpt>
      <trkpt lat="45.25289" lon="5.74177">
        <ele>670</ele>
        <time>2019-10-09T08:37:00Z</time>
      </trkpt>
      <trkpt lat="45.25245" lon="5.74172">
        <ele>665.20001220703</ele>
        <time>2019-10-09T08:37:05Z</time>
      </trkpt>
      <trkpt lat="45.25228" lon="5.74172">
        <ele>664</ele>
        <time>2019-10-09T08:37:07Z</time>
      </trkpt>
      <trkpt lat="45.25197" lon="5.74165">
        <ele>660.40002441406</ele>
        <time>2019-10-09T08:37:11Z</time>
      </trkpt>
      <trkpt lat="45.25171" lon="5.74178">
        <ele>657.40002441406</ele>
        <time>2019-10-09T08:37:14Z</time>
      </trkpt>
      <trkpt lat="45.25139" lon="5.74192">
        <ele>653.40002441406</ele>
        <time>2019-10-09T08:37:18Z</time>
      </trkpt>
      <trkpt lat="45.25124" lon="5.74198">
        <ele>651.59997558594</ele>
        <time>2019-10-09T08:37:20Z</time>
      </trkpt>
      <trkpt lat="45.25102" lon="5.74213">
        <ele>647.59997558594</ele>
        <time>2019-10-09T08:37:24Z</time>
      </trkpt>
      <trkpt lat="45.25075" lon="5.74214">
        <ele>643.79998779297</ele>
        <time>2019-10-09T08:37:28Z</time>
      </trkpt>
      <trkpt lat="45.25037" lon="5.74204">
        <ele>639.79998779297</ele>
        <time>2019-10-09T08:37:34Z</time>
      </trkpt>
      <trkpt lat="45.25017" lon="5.74195">
        <ele>637.59997558594</ele>
        <time>2019-10-09T08:37:37Z</time>
      </trkpt>
      <trkpt lat="45.24994" lon="5.74184">
        <ele>634.20001220703</ele>
        <time>2019-10-09T08:37:41Z</time>
      </trkpt>
      <trkpt lat="45.24983" lon="5.74179">
        <ele>632.59997558594</ele>
        <time>2019-10-09T08:37:43Z</time>
      </trkpt>
      <trkpt lat="45.24975" lon="5.74184">
        <ele>630.40002441406</ele>
        <time>2019-10-09T08:37:46Z</time>
      </trkpt>
      <trkpt lat="45.24967" lon="5.74198">
        <ele>628.79998779297</ele>
        <time>2019-10-09T08:37:48Z</time>
      </trkpt>
      <trkpt lat="45.24944" lon="5.74227">
        <ele>626.40002441406</ele>
        <time>2019-10-09T08:37:52Z</time>
      </trkpt>
      <trkpt lat="45.24903" lon="5.74249">
        <ele>623.79998779297</ele>
        <time>2019-10-09T08:37:57Z</time>
      </trkpt>
      <trkpt lat="45.24889" lon="5.74256">
        <ele>622.59997558594</ele>
        <time>2019-10-09T08:37:59Z</time>
      </trkpt>
      <trkpt lat="45.24852" lon="5.74258">
        <ele>618</ele>
        <time>2019-10-09T08:38:04Z</time>
      </trkpt>
      <trkpt lat="45.24836" lon="5.74236">
        <ele>615</ele>
        <time>2019-10-09T08:38:07Z</time>
      </trkpt>
      <trkpt lat="45.2482" lon="5.74205">
        <ele>611.59997558594</ele>
        <time>2019-10-09T08:38:11Z</time>
      </trkpt>
      <trkpt lat="45.24823" lon="5.7417">
        <ele>609</ele>
        <time>2019-10-09T08:38:14Z</time>
      </trkpt>
      <trkpt lat="45.24836" lon="5.74133">
        <ele>605.79998779297</ele>
        <time>2019-10-09T08:38:19Z</time>
      </trkpt>
      <trkpt lat="45.24853" lon="5.74107">
        <ele>605</ele>
        <time>2019-10-09T08:38:23Z</time>
      </trkpt>
      <trkpt lat="45.24867" lon="5.74084">
        <ele>604.79998779297</ele>
        <time>2019-10-09T08:38:28Z</time>
      </trkpt>
      <trkpt lat="45.24875" lon="5.74072">
        <ele>605</ele>
        <time>2019-10-09T08:38:32Z</time>
      </trkpt>
      <trkpt lat="45.24892" lon="5.74048">
        <ele>606.40002441406</ele>
        <time>2019-10-09T08:38:39Z</time>
      </trkpt>
      <trkpt lat="45.24902" lon="5.74034">
        <ele>607.20001220703</ele>
        <time>2019-10-09T08:38:43Z</time>
      </trkpt>
      <trkpt lat="45.24917" lon="5.74018">
        <ele>607.40002441406</ele>
        <time>2019-10-09T08:38:48Z</time>
      </trkpt>
      <trkpt lat="45.24935" lon="5.73988">
        <ele>607.40002441406</ele>
        <time>2019-10-09T08:38:52Z</time>
      </trkpt>
      <trkpt lat="45.24943" lon="5.73955">
        <ele>607.20001220703</ele>
        <time>2019-10-09T08:38:55Z</time>
      </trkpt>
      <trkpt lat="45.24957" lon="5.73903">
        <ele>605.20001220703</ele>
        <time>2019-10-09T08:39:00Z</time>
      </trkpt>
      <trkpt lat="45.24968" lon="5.73875">
        <ele>603.40002441406</ele>
        <time>2019-10-09T08:39:03Z</time>
      </trkpt>
      <trkpt lat="45.24995" lon="5.73826">
        <ele>598.40002441406</ele>
        <time>2019-10-09T08:39:09Z</time>
      </trkpt>
      <trkpt lat="45.25006" lon="5.73797">
        <ele>596.20001220703</ele>
        <time>2019-10-09T08:39:12Z</time>
      </trkpt>
      <trkpt lat="45.25022" lon="5.7373">
        <ele>592.79998779297</ele>
        <time>2019-10-09T08:39:18Z</time>
      </trkpt>
      <trkpt lat="45.25036" lon="5.73657">
        <ele>589.79998779297</ele>
        <time>2019-10-09T08:39:25Z</time>
      </trkpt>
      <trkpt lat="45.25038" lon="5.73585">
        <ele>588.40002441406</ele>
        <time>2019-10-09T08:39:32Z</time>
      </trkpt>
      <trkpt lat="45.25035" lon="5.73549">
        <ele>587.59997558594</ele>
        <time>2019-10-09T08:39:35Z</time>
      </trkpt>
      <trkpt lat="45.2503" lon="5.73491">
        <ele>585.79998779297</ele>
        <time>2019-10-09T08:39:40Z</time>
      </trkpt>
      <trkpt lat="45.25026" lon="5.73458">
        <ele>583.59997558594</ele>
        <time>2019-10-09T08:39:43Z</time>
      </trkpt>
      <trkpt lat="45.2502" lon="5.73442">
        <ele>582</ele>
        <time>2019-10-09T08:39:45Z</time>
      </trkpt>
      <trkpt lat="45.25004" lon="5.73427">
        <ele>579.20001220703</ele>
        <time>2019-10-09T08:39:49Z</time>
      </trkpt>
      <trkpt lat="45.24981" lon="5.73424">
        <ele>576.79998779297</ele>
        <time>2019-10-09T08:39:52Z</time>
      </trkpt>
      <trkpt lat="45.24956" lon="5.73416">
        <ele>575.20001220703</ele>
        <time>2019-10-09T08:39:55Z</time>
      </trkpt>
      <trkpt lat="45.2494" lon="5.73393">
        <ele>573.20001220703</ele>
        <time>2019-10-09T08:39:58Z</time>
      </trkpt>
      <trkpt lat="45.24913" lon="5.73346">
        <ele>568.59997558594</ele>
        <time>2019-10-09T08:40:04Z</time>
      </trkpt>
      <trkpt lat="45.24887" lon="5.73325">
        <ele>567.40002441406</ele>
        <time>2019-10-09T08:40:08Z</time>
      </trkpt>
      <trkpt lat="45.24865" lon="5.73274">
        <ele>566.40002441406</ele>
        <time>2019-10-09T08:40:14Z</time>
      </trkpt>
      <trkpt lat="45.24861" lon="5.73245">
        <ele>566</ele>
        <time>2019-10-09T08:40:18Z</time>
      </trkpt>
      <trkpt lat="45.24842" lon="5.73201">
        <ele>566</ele>
        <time>2019-10-09T08:40:27Z</time>
      </trkpt>
      <trkpt lat="45.2482" lon="5.73177">
        <ele>566.20001220703</ele>
        <time>2019-10-09T08:40:33Z</time>
      </trkpt>
      <trkpt lat="45.24784" lon="5.73138">
        <ele>566</ele>
        <time>2019-10-09T08:40:40Z</time>
      </trkpt>
      <trkpt lat="45.24767" lon="5.73118">
        <ele>565.20001220703</ele>
        <time>2019-10-09T08:40:43Z</time>
      </trkpt>
      <trkpt lat="45.24734" lon="5.73083">
        <ele>563.59997558594</ele>
        <time>2019-10-09T08:40:48Z</time>
      </trkpt>
      <trkpt lat="45.24702" lon="5.73073">
        <ele>562</ele>
        <time>2019-10-09T08:40:52Z</time>
      </trkpt>
      <trkpt lat="45.24658" lon="5.73067">
        <ele>560.59997558594</ele>
        <time>2019-10-09T08:40:57Z</time>
      </trkpt>
      <trkpt lat="45.24614" lon="5.73039">
        <ele>557</ele>
        <time>2019-10-09T08:41:03Z</time>
      </trkpt>
      <trkpt lat="45.24599" lon="5.73027">
        <ele>555.59997558594</ele>
        <time>2019-10-09T08:41:06Z</time>
      </trkpt>
      <trkpt lat="45.2459" lon="5.72986">
        <ele>554.79998779297</ele>
        <time>2019-10-09T08:41:10Z</time>
      </trkpt>
      <trkpt lat="45.24587" lon="5.72961">
        <ele>554.79998779297</ele>
        <time>2019-10-09T08:41:13Z</time>
      </trkpt>
      <trkpt lat="45.2458" lon="5.72924">
        <ele>556</ele>
        <time>2019-10-09T08:41:24Z</time>
      </trkpt>
      <trkpt lat="45.24579" lon="5.72921">
        <ele>556.59997558594</ele>
        <time>2019-10-09T08:41:28Z</time>
      </trkpt>
      <trkpt lat="45.24577" lon="5.72916">
        <ele>557.40002441406</ele>
        <time>2019-10-09T08:42:10Z</time>
      </trkpt>
      <trkpt lat="45.24569" lon="5.72904">
        <ele>557.40002441406</ele>
        <time>2019-10-09T08:42:15Z</time>
      </trkpt>
      <trkpt lat="45.24528" lon="5.72875">
        <ele>558.40002441406</ele>
        <time>2019-10-09T08:42:30Z</time>
      </trkpt>
      <trkpt lat="45.24514" lon="5.72871">
        <ele>559</ele>
        <time>2019-10-09T08:42:35Z</time>
      </trkpt>
      <trkpt lat="45.24481" lon="5.72869">
        <ele>560.59997558594</ele>
        <time>2019-10-09T08:42:51Z</time>
      </trkpt>
      <trkpt lat="45.24465" lon="5.72873">
        <ele>561.40002441406</ele>
        <time>2019-10-09T08:42:57Z</time>
      </trkpt>
      <trkpt lat="45.24439" lon="5.72868">
        <ele>563</ele>
        <time>2019-10-09T08:43:08Z</time>
      </trkpt>
      <trkpt lat="45.24415" lon="5.72833">
        <ele>564.59997558594</ele>
        <time>2019-10-09T08:43:22Z</time>
      </trkpt>
      <trkpt lat="45.24382" lon="5.72828">
        <ele>566.40002441406</ele>
        <time>2019-10-09T08:43:37Z</time>
      </trkpt>
      <trkpt lat="45.24359" lon="5.7282">
        <ele>567.59997558594</ele>
        <time>2019-10-09T08:43:48Z</time>
      </trkpt>
      <trkpt lat="45.24322" lon="5.7281">
        <ele>570</ele>
        <time>2019-10-09T08:44:04Z</time>
      </trkpt>
      <trkpt lat="45.24297" lon="5.72834">
        <ele>571.40002441406</ele>
        <time>2019-10-09T08:44:17Z</time>
      </trkpt>
      <trkpt lat="45.24284" lon="5.72856">
        <ele>572.40002441406</ele>
        <time>2019-10-09T08:44:27Z</time>
      </trkpt>
      <trkpt lat="45.24255" lon="5.72879">
        <ele>574.40002441406</ele>
        <time>2019-10-09T08:44:41Z</time>
      </trkpt>
      <trkpt lat="45.24238" lon="5.72886">
        <ele>575.59997558594</ele>
        <time>2019-10-09T08:44:50Z</time>
      </trkpt>
      <trkpt lat="45.24215" lon="5.72875">
        <ele>577</ele>
        <time>2019-10-09T08:45:02Z</time>
      </trkpt>
      <trkpt lat="45.24204" lon="5.72862">
        <ele>577.79998779297</ele>
        <time>2019-10-09T08:45:08Z</time>
      </trkpt>
      <trkpt lat="45.24187" lon="5.72846">
        <ele>579</ele>
        <time>2019-10-09T08:45:16Z</time>
      </trkpt>
      <trkpt lat="45.24157" lon="5.72858">
        <ele>581.20001220703</ele>
        <time>2019-10-09T08:45:29Z</time>
      </trkpt>
      <trkpt lat="45.24141" lon="5.72873">
        <ele>581.59997558594</ele>
        <time>2019-10-09T08:45:37Z</time>
      </trkpt>
      <trkpt lat="45.2411" lon="5.72863">
        <ele>583.20001220703</ele>
        <time>2019-10-09T08:45:49Z</time>
      </trkpt>
      <trkpt lat="45.24087" lon="5.7284">
        <ele>584.20001220703</ele>
        <time>2019-10-09T08:46:00Z</time>
      </trkpt>
      <trkpt lat="45.24041" lon="5.72826">
        <ele>586.20001220703</ele>
        <time>2019-10-09T08:46:17Z</time>
      </trkpt>
      <trkpt lat="45.24017" lon="5.72821">
        <ele>587.40002441406</ele>
        <time>2019-10-09T08:46:27Z</time>
      </trkpt>
      <trkpt lat="45.2397" lon="5.72793">
        <ele>589.59997558594</ele>
        <time>2019-10-09T08:46:48Z</time>
      </trkpt>
      <trkpt lat="45.23944" lon="5.72787">
        <ele>590.79998779297</ele>
        <time>2019-10-09T08:46:59Z</time>
      </trkpt>
      <trkpt lat="45.23921" lon="5.72788">
        <ele>592.40002441406</ele>
        <time>2019-10-09T08:47:11Z</time>
      </trkpt>
      <trkpt lat="45.23897" lon="5.72799">
        <ele>593.79998779297</ele>
        <time>2019-10-09T08:47:22Z</time>
      </trkpt>
      <trkpt lat="45.23877" lon="5.72788">
        <ele>594.79998779297</ele>
        <time>2019-10-09T08:47:32Z</time>
      </trkpt>
      <trkpt lat="45.23856" lon="5.72757">
        <ele>596.59997558594</ele>
        <time>2019-10-09T08:47:46Z</time>
      </trkpt>
      <trkpt lat="45.23821" lon="5.72765">
        <ele>598.59997558594</ele>
        <time>2019-10-09T08:48:03Z</time>
      </trkpt>
      <trkpt lat="45.23795" lon="5.72784">
        <ele>599.59997558594</ele>
        <time>2019-10-09T08:48:17Z</time>
      </trkpt>
      <trkpt lat="45.23777" lon="5.72782">
        <ele>600.20001220703</ele>
        <time>2019-10-09T08:48:24Z</time>
      </trkpt>
      <trkpt lat="45.23748" lon="5.72779">
        <ele>602</ele>
        <time>2019-10-09T08:48:39Z</time>
      </trkpt>
      <trkpt lat="45.23723" lon="5.72808">
        <ele>603.20001220703</ele>
        <time>2019-10-09T08:48:53Z</time>
      </trkpt>
      <trkpt lat="45.23698" lon="5.72843">
        <ele>604.20001220703</ele>
        <time>2019-10-09T08:49:10Z</time>
      </trkpt>
      <trkpt lat="45.23684" lon="5.72832">
        <ele>604.59997558594</ele>
        <time>2019-10-09T08:49:17Z</time>
      </trkpt>
      <trkpt lat="45.2368" lon="5.72777">
        <ele>605.79998779297</ele>
        <time>2019-10-09T08:49:34Z</time>
      </trkpt>
      <trkpt lat="45.23683" lon="5.72747">
        <ele>606.59997558594</ele>
        <time>2019-10-09T08:49:43Z</time>
      </trkpt>
      <trkpt lat="45.23664" lon="5.7269">
        <ele>607.20001220703</ele>
        <time>2019-10-09T08:50:04Z</time>
      </trkpt>
      <trkpt lat="45.23625" lon="5.72664">
        <ele>607.40002441406</ele>
        <time>2019-10-09T08:50:19Z</time>
      </trkpt>
      <trkpt lat="45.23523" lon="5.72614">
        <ele>607.40002441406</ele>
        <time>2019-10-09T08:50:54Z</time>
      </trkpt>
      <trkpt lat="45.2345" lon="5.72585">
        <ele>607.59997558594</ele>
        <time>2019-10-09T08:51:16Z</time>
      </trkpt>
      <trkpt lat="45.23426" lon="5.72577">
        <ele>607.20001220703</ele>
        <time>2019-10-09T08:51:23Z</time>
      </trkpt>
      <trkpt lat="45.23405" lon="5.72572">
        <ele>606.59997558594</ele>
        <time>2019-10-09T08:51:28Z</time>
      </trkpt>
      <trkpt lat="45.23363" lon="5.72571">
        <ele>605.59997558594</ele>
        <time>2019-10-09T08:51:34Z</time>
      </trkpt>
      <trkpt lat="45.23316" lon="5.7257">
        <ele>604</ele>
        <time>2019-10-09T08:51:39Z</time>
      </trkpt>
      <trkpt lat="45.23286" lon="5.72569">
        <ele>602.20001220703</ele>
        <time>2019-10-09T08:51:42Z</time>
      </trkpt>
      <trkpt lat="45.23219" lon="5.72568">
        <ele>596.79998779297</ele>
        <time>2019-10-09T08:51:49Z</time>
      </trkpt>
      <trkpt lat="45.23191" lon="5.72564">
        <ele>594.40002441406</ele>
        <time>2019-10-09T08:51:52Z</time>
      </trkpt>
      <trkpt lat="45.23136" lon="5.72549">
        <ele>590.59997558594</ele>
        <time>2019-10-09T08:51:58Z</time>
      </trkpt>
      <trkpt lat="45.23097" lon="5.72555">
        <ele>589</ele>
        <time>2019-10-09T08:52:03Z</time>
      </trkpt>
      <trkpt lat="45.23051" lon="5.72555">
        <ele>586.20001220703</ele>
        <time>2019-10-09T08:52:09Z</time>
      </trkpt>
      <trkpt lat="45.23024" lon="5.72539">
        <ele>584.59997558594</ele>
        <time>2019-10-09T08:52:13Z</time>
      </trkpt>
      <trkpt lat="45.22992" lon="5.72516">
        <ele>580.59997558594</ele>
        <time>2019-10-09T08:52:18Z</time>
      </trkpt>
      <trkpt lat="45.22966" lon="5.7251">
        <ele>577.79998779297</ele>
        <time>2019-10-09T08:52:22Z</time>
      </trkpt>
      <trkpt lat="45.22934" lon="5.72502">
        <ele>575.59997558594</ele>
        <time>2019-10-09T08:52:27Z</time>
      </trkpt>
      <trkpt lat="45.22925" lon="5.72499">
        <ele>574.40002441406</ele>
        <time>2019-10-09T08:52:29Z</time>
      </trkpt>
      <trkpt lat="45.22912" lon="5.72496">
        <ele>572.59997558594</ele>
        <time>2019-10-09T08:52:32Z</time>
      </trkpt>
      <trkpt lat="45.22901" lon="5.72496">
        <ele>570.59997558594</ele>
        <time>2019-10-09T08:52:35Z</time>
      </trkpt>
      <trkpt lat="45.2289" lon="5.72498">
        <ele>568</ele>
        <time>2019-10-09T08:52:38Z</time>
      </trkpt>
      <trkpt lat="45.22864" lon="5.72503">
        <ele>562</ele>
        <time>2019-10-09T08:52:43Z</time>
      </trkpt>
      <trkpt lat="45.22837" lon="5.72501">
        <ele>559.59997558594</ele>
        <time>2019-10-09T08:52:47Z</time>
      </trkpt>
      <trkpt lat="45.22785" lon="5.72491">
        <ele>557.79998779297</ele>
        <time>2019-10-09T08:52:54Z</time>
      </trkpt>
      <trkpt lat="45.2277" lon="5.72495">
        <ele>557.59997558594</ele>
        <time>2019-10-09T08:52:56Z</time>
      </trkpt>
      <trkpt lat="45.22752" lon="5.72508">
        <ele>556</ele>
        <time>2019-10-09T08:52:59Z</time>
      </trkpt>
      <trkpt lat="45.22733" lon="5.7253">
        <ele>554.79998779297</ele>
        <time>2019-10-09T08:53:02Z</time>
      </trkpt>
      <trkpt lat="45.22689" lon="5.7256">
        <ele>553.20001220703</ele>
        <time>2019-10-09T08:53:08Z</time>
      </trkpt>
      <trkpt lat="45.22648" lon="5.72557">
        <ele>552</ele>
        <time>2019-10-09T08:53:13Z</time>
      </trkpt>
      <trkpt lat="45.22596" lon="5.72542">
        <ele>551.79998779297</ele>
        <time>2019-10-09T08:53:20Z</time>
      </trkpt>
      <trkpt lat="45.22578" lon="5.72536">
        <ele>551.59997558594</ele>
        <time>2019-10-09T08:53:24Z</time>
      </trkpt>
      <trkpt lat="45.22547" lon="5.72522">
        <ele>551.59997558594</ele>
        <time>2019-10-09T08:53:31Z</time>
      </trkpt>
      <trkpt lat="45.22502" lon="5.72502">
        <ele>551.20001220703</ele>
        <time>2019-10-09T08:53:37Z</time>
      </trkpt>
      <trkpt lat="45.22456" lon="5.72482">
        <ele>549.20001220703</ele>
        <time>2019-10-09T08:53:43Z</time>
      </trkpt>
      <trkpt lat="45.22401" lon="5.72463">
        <ele>546.79998779297</ele>
        <time>2019-10-09T08:53:50Z</time>
      </trkpt>
      <trkpt lat="45.22374" lon="5.72459">
        <ele>543.79998779297</ele>
        <time>2019-10-09T08:53:54Z</time>
      </trkpt>
      <trkpt lat="45.2231" lon="5.72467">
        <ele>539.79998779297</ele>
        <time>2019-10-09T08:54:02Z</time>
      </trkpt>
      <trkpt lat="45.22247" lon="5.72471">
        <ele>537.20001220703</ele>
        <time>2019-10-09T08:54:10Z</time>
      </trkpt>
      <trkpt lat="45.22178" lon="5.72464">
        <ele>535.40002441406</ele>
        <time>2019-10-09T08:54:21Z</time>
      </trkpt>
      <trkpt lat="45.22129" lon="5.7244">
        <ele>535.20001220703</ele>
        <time>2019-10-09T08:54:30Z</time>
      </trkpt>
      <trkpt lat="45.22077" lon="5.72425">
        <ele>534.79998779297</ele>
        <time>2019-10-09T08:54:38Z</time>
      </trkpt>
      <trkpt lat="45.2206" lon="5.72417">
        <ele>533.79998779297</ele>
        <time>2019-10-09T08:54:41Z</time>
      </trkpt>
      <trkpt lat="45.22046" lon="5.72393">
        <ele>532</ele>
        <time>2019-10-09T08:54:46Z</time>
      </trkpt>
      <trkpt lat="45.22039" lon="5.72372">
        <ele>530</ele>
        <time>2019-10-09T08:54:50Z</time>
      </trkpt>
      <trkpt lat="45.22034" lon="5.7235">
        <ele>528.59997558594</ele>
        <time>2019-10-09T08:54:53Z</time>
      </trkpt>
      <trkpt lat="45.22033" lon="5.72312">
        <ele>527.40002441406</ele>
        <time>2019-10-09T08:54:57Z</time>
      </trkpt>
      <trkpt lat="45.22037" lon="5.72261">
        <ele>526</ele>
        <time>2019-10-09T08:55:02Z</time>
      </trkpt>
      <trkpt lat="45.2203" lon="5.72214">
        <ele>523.59997558594</ele>
        <time>2019-10-09T08:55:07Z</time>
      </trkpt>
      <trkpt lat="45.22023" lon="5.72198">
        <ele>522.79998779297</ele>
        <time>2019-10-09T08:55:09Z</time>
      </trkpt>
      <trkpt lat="45.22004" lon="5.72161">
        <ele>521</ele>
        <time>2019-10-09T08:55:13Z</time>
      </trkpt>
      <trkpt lat="45.21992" lon="5.72146">
        <ele>519.79998779297</ele>
        <time>2019-10-09T08:55:15Z</time>
      </trkpt>
      <trkpt lat="45.21957" lon="5.7212">
        <ele>514.20001220703</ele>
        <time>2019-10-09T08:55:23Z</time>
      </trkpt>
      <trkpt lat="45.21947" lon="5.72121">
        <ele>512.40002441406</ele>
        <time>2019-10-09T08:55:27Z</time>
      </trkpt>
      <trkpt lat="45.21929" lon="5.72127">
        <ele>511</ele>
        <time>2019-10-09T08:55:31Z</time>
      </trkpt>
      <trkpt lat="45.219" lon="5.72139">
        <ele>510.20001220703</ele>
        <time>2019-10-09T08:55:35Z</time>
      </trkpt>
      <trkpt lat="45.21869" lon="5.72152">
        <ele>508.60000610352</ele>
        <time>2019-10-09T08:55:39Z</time>
      </trkpt>
      <trkpt lat="45.2184" lon="5.72164">
        <ele>507.20001220703</ele>
        <time>2019-10-09T08:55:42Z</time>
      </trkpt>
      <trkpt lat="45.21794" lon="5.72183">
        <ele>503.60000610352</ele>
        <time>2019-10-09T08:55:47Z</time>
      </trkpt>
      <trkpt lat="45.21763" lon="5.72192">
        <ele>501.39999389648</ele>
        <time>2019-10-09T08:55:51Z</time>
      </trkpt>
      <trkpt lat="45.21736" lon="5.7219">
        <ele>498</ele>
        <time>2019-10-09T08:55:55Z</time>
      </trkpt>
      <trkpt lat="45.21713" lon="5.72177">
        <ele>495.79998779297</ele>
        <time>2019-10-09T08:55:58Z</time>
      </trkpt>
      <trkpt lat="45.217" lon="5.72163">
        <ele>494.20001220703</ele>
        <time>2019-10-09T08:56:00Z</time>
      </trkpt>
      <trkpt lat="45.21677" lon="5.72125">
        <ele>490.79998779297</ele>
        <time>2019-10-09T08:56:04Z</time>
      </trkpt>
      <trkpt lat="45.21655" lon="5.721">
        <ele>487.79998779297</ele>
        <time>2019-10-09T08:56:07Z</time>
      </trkpt>
      <trkpt lat="45.2162" lon="5.72062">
        <ele>483.39999389648</ele>
        <time>2019-10-09T08:56:12Z</time>
      </trkpt>
      <trkpt lat="45.21592" lon="5.72033">
        <ele>481.20001220703</ele>
        <time>2019-10-09T08:56:16Z</time>
      </trkpt>
      <trkpt lat="45.21559" lon="5.71986">
        <ele>476.79998779297</ele>
        <time>2019-10-09T08:56:21Z</time>
      </trkpt>
      <trkpt lat="45.21545" lon="5.71966">
        <ele>475</ele>
        <time>2019-10-09T08:56:23Z</time>
      </trkpt>
      <trkpt lat="45.21509" lon="5.71907">
        <ele>469.39999389648</ele>
        <time>2019-10-09T08:56:29Z</time>
      </trkpt>
      <trkpt lat="45.21485" lon="5.71887">
        <ele>466.39999389648</ele>
        <time>2019-10-09T08:56:32Z</time>
      </trkpt>
      <trkpt lat="45.21445" lon="5.71842">
        <ele>461.20001220703</ele>
        <time>2019-10-09T08:56:38Z</time>
      </trkpt>
      <trkpt lat="45.21416" lon="5.71824">
        <ele>458.60000610352</ele>
        <time>2019-10-09T08:56:42Z</time>
      </trkpt>
      <trkpt lat="45.21394" lon="5.71819">
        <ele>456.20001220703</ele>
        <time>2019-10-09T08:56:45Z</time>
      </trkpt>
      <trkpt lat="45.2136" lon="5.71818">
        <ele>453.39999389648</ele>
        <time>2019-10-09T08:56:49Z</time>
      </trkpt>
      <trkpt lat="45.21335" lon="5.71811">
        <ele>450.60000610352</ele>
        <time>2019-10-09T08:56:52Z</time>
      </trkpt>
      <trkpt lat="45.21316" lon="5.71796">
        <ele>447.60000610352</ele>
        <time>2019-10-09T08:56:55Z</time>
      </trkpt>
      <trkpt lat="45.21306" lon="5.71787">
        <ele>445.79998779297</ele>
        <time>2019-10-09T08:56:57Z</time>
      </trkpt>
      <trkpt lat="45.21268" lon="5.71781">
        <ele>441.39999389648</ele>
        <time>2019-10-09T08:57:02Z</time>
      </trkpt>
      <trkpt lat="45.21241" lon="5.71782">
        <ele>438.79998779297</ele>
        <time>2019-10-09T08:57:05Z</time>
      </trkpt>
      <trkpt lat="45.21204" lon="5.71781">
        <ele>435.79998779297</ele>
        <time>2019-10-09T08:57:10Z</time>
      </trkpt>
      <trkpt lat="45.21176" lon="5.71776">
        <ele>432.20001220703</ele>
        <time>2019-10-09T08:57:14Z</time>
      </trkpt>
      <trkpt lat="45.21143" lon="5.71772">
        <ele>429</ele>
        <time>2019-10-09T08:57:18Z</time>
      </trkpt>
      <trkpt lat="45.21108" lon="5.71768">
        <ele>426.39999389648</ele>
        <time>2019-10-09T08:57:22Z</time>
      </trkpt>
      <trkpt lat="45.21057" lon="5.71775">
        <ele>421</ele>
        <time>2019-10-09T08:57:28Z</time>
      </trkpt>
      <trkpt lat="45.21039" lon="5.71781">
        <ele>418.79998779297</ele>
        <time>2019-10-09T08:57:30Z</time>
      </trkpt>
      <trkpt lat="45.20983" lon="5.71801">
        <ele>414.20001220703</ele>
        <time>2019-10-09T08:57:36Z</time>
      </trkpt>
      <trkpt lat="45.20955" lon="5.71804">
        <ele>410.60000610352</ele>
        <time>2019-10-09T08:57:40Z</time>
      </trkpt>
      <trkpt lat="45.20937" lon="5.7181">
        <ele>408</ele>
        <time>2019-10-09T08:57:43Z</time>
      </trkpt>
      <trkpt lat="45.20919" lon="5.71819">
        <ele>403.79998779297</ele>
        <time>2019-10-09T08:57:47Z</time>
      </trkpt>
      <trkpt lat="45.20913" lon="5.71815">
        <ele>401.39999389648</ele>
        <time>2019-10-09T08:57:50Z</time>
      </trkpt>
      <trkpt lat="45.20917" lon="5.71795">
        <ele>399.39999389648</ele>
        <time>2019-10-09T08:57:53Z</time>
      </trkpt>
      <trkpt lat="45.20946" lon="5.71768">
        <ele>397</ele>
        <time>2019-10-09T08:57:58Z</time>
      </trkpt>
      <trkpt lat="45.20984" lon="5.7173">
        <ele>393.79998779297</ele>
        <time>2019-10-09T08:58:04Z</time>
      </trkpt>
      <trkpt lat="45.21" lon="5.71714">
        <ele>391.79998779297</ele>
        <time>2019-10-09T08:58:07Z</time>
      </trkpt>
      <trkpt lat="45.21035" lon="5.71693">
        <ele>387.79998779297</ele>
        <time>2019-10-09T08:58:12Z</time>
      </trkpt>
      <trkpt lat="45.21069" lon="5.71674">
        <ele>384.60000610352</ele>
        <time>2019-10-09T08:58:17Z</time>
      </trkpt>
      <trkpt lat="45.21082" lon="5.71665">
        <ele>382.60000610352</ele>
        <time>2019-10-09T08:58:20Z</time>
      </trkpt>
      <trkpt lat="45.21084" lon="5.71652">
        <ele>381.20001220703</ele>
        <time>2019-10-09T08:58:23Z</time>
      </trkpt>
      <trkpt lat="45.21068" lon="5.71641">
        <ele>379</ele>
        <time>2019-10-09T08:58:27Z</time>
      </trkpt>
      <trkpt lat="45.21028" lon="5.71647">
        <ele>376.79998779297</ele>
        <time>2019-10-09T08:58:32Z</time>
      </trkpt>
      <trkpt lat="45.20996" lon="5.71648">
        <ele>375.20001220703</ele>
        <time>2019-10-09T08:58:36Z</time>
      </trkpt>
      <trkpt lat="45.20958" lon="5.71649">
        <ele>372.79998779297</ele>
        <time>2019-10-09T08:58:41Z</time>
      </trkpt>
      <trkpt lat="45.20937" lon="5.7165">
        <ele>371</ele>
        <time>2019-10-09T08:58:44Z</time>
      </trkpt>
      <trkpt lat="45.20896" lon="5.71665">
        <ele>366.60000610352</ele>
        <time>2019-10-09T08:58:51Z</time>
      </trkpt>
      <trkpt lat="45.2088" lon="5.71695">
        <ele>364.20001220703</ele>
        <time>2019-10-09T08:58:55Z</time>
      </trkpt>
      <trkpt lat="45.20866" lon="5.71733">
        <ele>360.39999389648</ele>
        <time>2019-10-09T08:59:00Z</time>
      </trkpt>
      <trkpt lat="45.20857" lon="5.71757">
        <ele>358.20001220703</ele>
        <time>2019-10-09T08:59:03Z</time>
      </trkpt>
      <trkpt lat="45.20835" lon="5.71778">
        <ele>355.20001220703</ele>
        <time>2019-10-09T08:59:09Z</time>
      </trkpt>
      <trkpt lat="45.20823" lon="5.71778">
        <ele>352.79998779297</ele>
        <time>2019-10-09T08:59:13Z</time>
      </trkpt>
      <trkpt lat="45.20788" lon="5.71747">
        <ele>349.60000610352</ele>
        <time>2019-10-09T08:59:18Z</time>
      </trkpt>
      <trkpt lat="45.20758" lon="5.71726">
        <ele>347</ele>
        <time>2019-10-09T08:59:22Z</time>
      </trkpt>
      <trkpt lat="45.20735" lon="5.7172">
        <ele>344.60000610352</ele>
        <time>2019-10-09T08:59:25Z</time>
      </trkpt>
      <trkpt lat="45.2072" lon="5.71729">
        <ele>342.79998779297</ele>
        <time>2019-10-09T08:59:27Z</time>
      </trkpt>
      <trkpt lat="45.20675" lon="5.71744">
        <ele>339</ele>
        <time>2019-10-09T08:59:33Z</time>
      </trkpt>
      <trkpt lat="45.2065" lon="5.71749">
        <ele>337</ele>
        <time>2019-10-09T08:59:36Z</time>
      </trkpt>
      <trkpt lat="45.206" lon="5.71778">
        <ele>333.79998779297</ele>
        <time>2019-10-09T08:59:42Z</time>
      </trkpt>
      <trkpt lat="45.20557" lon="5.71807">
        <ele>330.60000610352</ele>
        <time>2019-10-09T08:59:48Z</time>
      </trkpt>
      <trkpt lat="45.20535" lon="5.71821">
        <ele>327.79998779297</ele>
        <time>2019-10-09T08:59:51Z</time>
      </trkpt>
      <trkpt lat="45.20492" lon="5.71843">
        <ele>323.20001220703</ele>
        <time>2019-10-09T08:59:57Z</time>
      </trkpt>
      <trkpt lat="45.20468" lon="5.71856">
        <ele>320.79998779297</ele>
        <time>2019-10-09T09:00:00Z</time>
      </trkpt>
      <trkpt lat="45.2043" lon="5.71878">
        <ele>318</ele>
        <time>2019-10-09T09:00:04Z</time>
      </trkpt>
      <trkpt lat="45.20404" lon="5.71892">
        <ele>316.39999389648</ele>
        <time>2019-10-09T09:00:07Z</time>
      </trkpt>
      <trkpt lat="45.2038" lon="5.71903">
        <ele>313.60000610352</ele>
        <time>2019-10-09T09:00:10Z</time>
      </trkpt>
      <trkpt lat="45.20364" lon="5.7191">
        <ele>311.39999389648</ele>
        <time>2019-10-09T09:00:12Z</time>
      </trkpt>
      <trkpt lat="45.20324" lon="5.7193">
        <ele>306.79998779297</ele>
        <time>2019-10-09T09:00:17Z</time>
      </trkpt>
      <trkpt lat="45.20291" lon="5.71944">
        <ele>302.39999389648</ele>
        <time>2019-10-09T09:00:21Z</time>
      </trkpt>
      <trkpt lat="45.20257" lon="5.71958">
        <ele>298.39999389648</ele>
        <time>2019-10-09T09:00:25Z</time>
      </trkpt>
      <trkpt lat="45.20233" lon="5.71971">
        <ele>295.60000610352</ele>
        <time>2019-10-09T09:00:28Z</time>
      </trkpt>
      <trkpt lat="45.20219" lon="5.71981">
        <ele>293.60000610352</ele>
        <time>2019-10-09T09:00:30Z</time>
      </trkpt>
      <trkpt lat="45.20181" lon="5.71999">
        <ele>289.39999389648</ele>
        <time>2019-10-09T09:00:36Z</time>
      </trkpt>
      <trkpt lat="45.20167" lon="5.72002">
        <ele>287.60000610352</ele>
        <time>2019-10-09T09:00:38Z</time>
      </trkpt>
      <trkpt lat="45.20135" lon="5.72007">
        <ele>285</ele>
        <time>2019-10-09T09:00:42Z</time>
      </trkpt>
      <trkpt lat="45.20108" lon="5.72011">
        <ele>282.39999389648</ele>
        <time>2019-10-09T09:00:46Z</time>
      </trkpt>
      <trkpt lat="45.20088" lon="5.72012">
        <ele>278.60000610352</ele>
        <time>2019-10-09T09:00:50Z</time>
      </trkpt>
      <trkpt lat="45.20076" lon="5.72007">
        <ele>277</ele>
        <time>2019-10-09T09:00:52Z</time>
      </trkpt>
      <trkpt lat="45.20027" lon="5.71989">
        <ele>273</ele>
        <time>2019-10-09T09:00:58Z</time>
      </trkpt>
      <trkpt lat="45.20004" lon="5.7198">
        <ele>270.60000610352</ele>
        <time>2019-10-09T09:01:01Z</time>
      </trkpt>
      <trkpt lat="45.19954" lon="5.71963">
        <ele>264.79998779297</ele>
        <time>2019-10-09T09:01:07Z</time>
      </trkpt>
      <trkpt lat="45.19926" lon="5.71954">
        <ele>261.39999389648</ele>
        <time>2019-10-09T09:01:11Z</time>
      </trkpt>
      <trkpt lat="45.19887" lon="5.71945">
        <ele>257.60000610352</ele>
        <time>2019-10-09T09:01:16Z</time>
      </trkpt>
      <trkpt lat="45.19864" lon="5.71942">
        <ele>255.19999694824</ele>
        <time>2019-10-09T09:01:19Z</time>
      </trkpt>
      <trkpt lat="45.19832" lon="5.71946">
        <ele>252.60000610352</ele>
        <time>2019-10-09T09:01:23Z</time>
      </trkpt>
      <trkpt lat="45.19798" lon="5.71955">
        <ele>249.19999694824</ele>
        <time>2019-10-09T09:01:27Z</time>
      </trkpt>
      <trkpt lat="45.19766" lon="5.7196">
        <ele>245.19999694824</ele>
        <time>2019-10-09T09:01:31Z</time>
      </trkpt>
      <trkpt lat="45.19727" lon="5.71966">
        <ele>241.39999389648</ele>
        <time>2019-10-09T09:01:36Z</time>
      </trkpt>
      <trkpt lat="45.19703" lon="5.71969">
        <ele>239</ele>
        <time>2019-10-09T09:01:39Z</time>
      </trkpt>
      <trkpt lat="45.19673" lon="5.71973">
        <ele>234.39999389648</ele>
        <time>2019-10-09T09:01:44Z</time>
      </trkpt>
      <trkpt lat="45.19665" lon="5.71973">
        <ele>232.39999389648</ele>
        <time>2019-10-09T09:01:46Z</time>
      </trkpt>
      <trkpt lat="45.19659" lon="5.71956">
        <ele>230.80000305176</ele>
        <time>2019-10-09T09:01:49Z</time>
      </trkpt>
      <trkpt lat="45.1968" lon="5.71941">
        <ele>228.80000305176</ele>
        <time>2019-10-09T09:01:52Z</time>
      </trkpt>
      <trkpt lat="45.19715" lon="5.71923">
        <ele>224.60000610352</ele>
        <time>2019-10-09T09:01:58Z</time>
      </trkpt>
      <trkpt lat="45.19722" lon="5.71911">
        <ele>223</ele>
        <time>2019-10-09T09:02:01Z</time>
      </trkpt>
      <trkpt lat="45.19707" lon="5.71896">
        <ele>220</ele>
        <time>2019-10-09T09:02:06Z</time>
      </trkpt>
      <trkpt lat="45.19683" lon="5.71904">
        <ele>217.80000305176</ele>
        <time>2019-10-09T09:02:10Z</time>
      </trkpt>
      <trkpt lat="45.1967" lon="5.71907">
        <ele>216.80000305176</ele>
        <time>2019-10-09T09:02:13Z</time>
      </trkpt>
      <trkpt lat="45.19653" lon="5.71907">
        <ele>214.19999694824</ele>
        <time>2019-10-09T09:02:17Z</time>
      </trkpt>
      <trkpt lat="45.19639" lon="5.71903">
        <ele>212</ele>
        <time>2019-10-09T09:02:21Z</time>
      </trkpt>
      <trkpt lat="45.19633" lon="5.71892">
        <ele>207.60000610352</ele>
        <time>2019-10-09T09:02:48Z</time>
      </trkpt>
      <trkpt lat="45.19632" lon="5.71888">
        <ele>208</ele>
        <time>2019-10-09T09:03:33Z</time>
      </trkpt>
      <trkpt lat="45.1962" lon="5.71892">
        <ele>208.19999694824</ele>
        <time>2019-10-09T09:03:38Z</time>
      </trkpt>
      <trkpt lat="45.19578" lon="5.71903">
        <ele>208.60000610352</ele>
        <time>2019-10-09T09:03:50Z</time>
      </trkpt>
      <trkpt lat="45.19523" lon="5.7191">
        <ele>209.19999694824</ele>
        <time>2019-10-09T09:04:06Z</time>
      </trkpt>
      <trkpt lat="45.19495" lon="5.71912">
        <ele>209.19999694824</ele>
        <time>2019-10-09T09:04:14Z</time>
      </trkpt>
      <trkpt lat="45.1946" lon="5.71914">
        <ele>209.19999694824</ele>
        <time>2019-10-09T09:04:24Z</time>
      </trkpt>
      <trkpt lat="45.19435" lon="5.71906">
        <ele>209.19999694824</ele>
        <time>2019-10-09T09:04:33Z</time>
      </trkpt>
      <trkpt lat="45.19388" lon="5.7184">
        <ele>209.60000610352</ele>
        <time>2019-10-09T09:04:48Z</time>
      </trkpt>
      <trkpt lat="45.19367" lon="5.71853">
        <ele>209.60000610352</ele>
        <time>2019-10-09T09:04:55Z</time>
      </trkpt>
      <trkpt lat="45.19354" lon="5.71899">
        <ele>210.39999389648</ele>
        <time>2019-10-09T09:05:04Z</time>
      </trkpt>
      <trkpt lat="45.19343" lon="5.71942">
        <ele>211</ele>
        <time>2019-10-09T09:05:14Z</time>
      </trkpt>
      <trkpt lat="45.19331" lon="5.71968">
        <ele>211.60000610352</ele>
        <time>2019-10-09T09:05:21Z</time>
      </trkpt>
      <trkpt lat="45.19255" lon="5.72027">
        <ele>212</ele>
        <time>2019-10-09T09:05:46Z</time>
      </trkpt>
      <trkpt lat="45.19246" lon="5.72033">
        <ele>212</ele>
        <time>2019-10-09T09:05:52Z</time>
      </trkpt>
      <trkpt lat="45.19243" lon="5.72036">
        <ele>212.60000610352</ele>
        <time>2019-10-09T09:06:34Z</time>
      </trkpt>
      <trkpt lat="45.1923" lon="5.72025">
        <ele>212.60000610352</ele>
        <time>2019-10-09T09:06:40Z</time>
      </trkpt>
      <trkpt lat="45.19211" lon="5.72025">
        <ele>212.80000305176</ele>
        <time>2019-10-09T09:06:50Z</time>
      </trkpt>
      <trkpt lat="45.19199" lon="5.72023">
        <ele>212.80000305176</ele>
        <time>2019-10-09T09:06:57Z</time>
      </trkpt>
      <trkpt lat="45.19183" lon="5.72017">
        <ele>212.39999389648</ele>
        <time>2019-10-09T09:07:06Z</time>
      </trkpt>
      <trkpt lat="45.19181" lon="5.72014">
        <ele>212.39999389648</ele>
        <time>2019-10-09T09:07:10Z</time>
      </trkpt>
      <trkpt lat="45.19205" lon="5.72049">
        <ele>212.39999389648</ele>
        <time>2019-10-09T09:07:22Z</time>
      </trkpt>
      <trkpt lat="45.19205" lon="5.72055">
        <ele>212.60000610352</ele>
        <time>2019-10-09T09:07:29Z</time>
      </trkpt>
      <trkpt lat="45.19152" lon="5.72103">
        <ele>212</ele>
        <time>2019-10-09T09:07:46Z</time>
      </trkpt>
      <trkpt lat="45.19149" lon="5.72105">
        <ele>211.80000305176</ele>
        <time>2019-10-09T09:07:52Z</time>
      </trkpt>
      <trkpt lat="45.19142" lon="5.7211">
        <ele>211.80000305176</ele>
        <time>2019-10-09T09:07:56Z</time>
      </trkpt>
      <trkpt lat="45.1912" lon="5.72134">
        <ele>211.80000305176</ele>
        <time>2019-10-09T09:08:07Z</time>
      </trkpt>
      <trkpt lat="45.19123" lon="5.72152">
        <ele>211.60000610352</ele>
        <time>2019-10-09T09:08:11Z</time>
      </trkpt>
      <trkpt lat="45.1913" lon="5.72191">
        <ele>212.19999694824</ele>
        <time>2019-10-09T09:08:22Z</time>
      </trkpt>
      <trkpt lat="45.19134" lon="5.72216">
        <ele>212.19999694824</ele>
        <time>2019-10-09T09:08:28Z</time>
      </trkpt>
      <trkpt lat="45.19138" lon="5.72246">
        <ele>212.19999694824</ele>
        <time>2019-10-09T09:08:35Z</time>
      </trkpt>
      <trkpt lat="45.19145" lon="5.72291">
        <ele>212.39999389648</ele>
        <time>2019-10-09T09:08:45Z</time>
      </trkpt>
      <trkpt lat="45.19155" lon="5.72354">
        <ele>212.80000305176</ele>
        <time>2019-10-09T09:08:58Z</time>
      </trkpt>
      <trkpt lat="45.19164" lon="5.72416">
        <ele>212.60000610352</ele>
        <time>2019-10-09T09:09:09Z</time>
      </trkpt>
      <trkpt lat="45.19173" lon="5.72474">
        <ele>212.19999694824</ele>
        <time>2019-10-09T09:09:18Z</time>
      </trkpt>
      <trkpt lat="45.19175" lon="5.72487">
        <ele>212</ele>
        <time>2019-10-09T09:09:22Z</time>
      </trkpt>
      <trkpt lat="45.19187" lon="5.72503">
        <ele>212.19999694824</ele>
        <time>2019-10-09T09:09:33Z</time>
      </trkpt>
      <trkpt lat="45.19201" lon="5.72498">
        <ele>212.19999694824</ele>
        <time>2019-10-09T09:09:40Z</time>
      </trkpt>
      <trkpt lat="45.19215" lon="5.72494">
        <ele>212</ele>
        <time>2019-10-09T09:09:47Z</time>
      </trkpt>
      <trkpt lat="45.19225" lon="5.72491">
        <ele>212.39999389648</ele>
        <time>2019-10-09T09:10:29Z</time>
      </trkpt>
      <trkpt lat="45.19228" lon="5.72486">
        <ele>212.39999389648</ele>
        <time>2019-10-09T09:10:37Z</time>
      </trkpt>
      <trkpt lat="45.19255" lon="5.72478">
        <ele>212.60000610352</ele>
        <time>2019-10-09T09:10:44Z</time>
      </trkpt>
      <trkpt lat="45.19259" lon="5.72477">
        <ele>212.80000305176</ele>
        <time>2019-10-09T09:10:50Z</time>
      </trkpt>
      <trkpt lat="45.19282" lon="5.72501">
        <ele>213</ele>
        <time>2019-10-09T09:11:00Z</time>
      </trkpt>
      <trkpt lat="45.19285" lon="5.72518">
        <ele>212.80000305176</ele>
        <time>2019-10-09T09:11:04Z</time>
      </trkpt>
      <trkpt lat="45.19299" lon="5.72575">
        <ele>212.60000610352</ele>
        <time>2019-10-09T09:11:16Z</time>
      </trkpt>
      <trkpt lat="45.19302" lon="5.72588">
        <ele>212.39999389648</ele>
        <time>2019-10-09T09:11:19Z</time>
      </trkpt>
      <trkpt lat="45.19314" lon="5.72637">
        <ele>212.39999389648</ele>
        <time>2019-10-09T09:11:28Z</time>
      </trkpt>
      <trkpt lat="45.19325" lon="5.72683">
        <ele>212.19999694824</ele>
        <time>2019-10-09T09:11:35Z</time>
      </trkpt>
      <trkpt lat="45.19347" lon="5.7277">
        <ele>212</ele>
        <time>2019-10-09T09:11:48Z</time>
      </trkpt>
      <trkpt lat="45.19351" lon="5.72786">
        <ele>212</ele>
        <time>2019-10-09T09:11:51Z</time>
      </trkpt>
      <trkpt lat="45.19362" lon="5.72837">
        <ele>212</ele>
        <time>2019-10-09T09:12:00Z</time>
      </trkpt>
      <trkpt lat="45.19368" lon="5.72861">
        <ele>211.80000305176</ele>
        <time>2019-10-09T09:12:05Z</time>
      </trkpt>
      <trkpt lat="45.19378" lon="5.72899">
        <ele>211.80000305176</ele>
        <time>2019-10-09T09:12:16Z</time>
      </trkpt>
      <trkpt lat="45.19365" lon="5.72902">
        <ele>211.60000610352</ele>
        <time>2019-10-09T09:12:30Z</time>
      </trkpt>
      <trkpt lat="45.1936" lon="5.72935">
        <ele>211.19999694824</ele>
        <time>2019-10-09T09:12:36Z</time>
      </trkpt>
      <trkpt lat="45.19357" lon="5.72997">
        <ele>210.80000305176</ele>
        <time>2019-10-09T09:12:47Z</time>
      </trkpt>
      <trkpt lat="45.19366" lon="5.72991">
        <ele>210.60000610352</ele>
        <time>2019-10-09T09:12:59Z</time>
      </trkpt>
      <trkpt lat="45.19355" lon="5.73022">
        <ele>210.80000305176</ele>
        <time>2019-10-09T09:13:12Z</time>
      </trkpt>
      <trkpt lat="45.19354" lon="5.73043">
        <ele>210.60000610352</ele>
        <time>2019-10-09T09:13:20Z</time>
      </trkpt>
      <trkpt lat="45.19351" lon="5.73066">
        <ele>209.39999389648</ele>
        <time>2019-10-09T09:14:13Z</time>
      </trkpt>
      <trkpt lat="45.19348" lon="5.73081">
        <ele>209.39999389648</ele>
        <time>2019-10-09T09:14:21Z</time>
      </trkpt>
      <trkpt lat="45.1934" lon="5.73118">
        <ele>209.19999694824</ele>
        <time>2019-10-09T09:14:33Z</time>
      </trkpt>
      <trkpt lat="45.1933" lon="5.73142">
        <ele>209.39999389648</ele>
        <time>2019-10-09T09:14:46Z</time>
      </trkpt>
      <trkpt lat="45.19325" lon="5.73151">
        <ele>209.60000610352</ele>
        <time>2019-10-09T09:14:57Z</time>
      </trkpt>
      <trkpt lat="45.19319" lon="5.73164">
        <ele>209.39999389648</ele>
        <time>2019-10-09T09:15:15Z</time>
      </trkpt>
      <trkpt lat="45.19308" lon="5.73161">
        <ele>209</ele>
        <time>2019-10-09T09:15:26Z</time>
      </trkpt>
      <trkpt lat="45.19291" lon="5.73146">
        <ele>209.39999389648</ele>
        <time>2019-10-09T09:15:41Z</time>
      </trkpt>
      <trkpt lat="45.19281" lon="5.73138">
        <ele>209.80000305176</ele>
        <time>2019-10-09T09:15:50Z</time>
      </trkpt>
      <trkpt lat="45.19271" lon="5.73126">
        <ele>210.60000610352</ele>
        <time>2019-10-09T09:16:06Z</time>
      </trkpt>
      <trkpt lat="45.19264" lon="5.73117">
        <ele>210.60000610352</ele>
        <time>2019-10-09T09:16:16Z</time>
      </trkpt>
      <trkpt lat="45.19248" lon="5.73095">
        <ele>210.80000305176</ele>
        <time>2019-10-09T09:16:34Z</time>
      </trkpt>
      <trkpt lat="45.19242" lon="5.73079">
        <ele>210.80000305176</ele>
        <time>2019-10-09T09:16:49Z</time>
      </trkpt>
      <trkpt lat="45.1924" lon="5.73062">
        <ele>210.80000305176</ele>
        <time>2019-10-09T09:16:59Z</time>
      </trkpt>
      <trkpt lat="45.19239" lon="5.73043">
        <ele>210.60000610352</ele>
        <time>2019-10-09T09:17:09Z</time>
      </trkpt>
      <trkpt lat="45.19226" lon="5.73049">
        <ele>210.39999389648</ele>
        <time>2019-10-09T09:17:19Z</time>
      </trkpt>
      <trkpt lat="45.19207" lon="5.73054">
        <ele>210.39999389648</ele>
        <time>2019-10-09T09:17:28Z</time>
      </trkpt>
      <trkpt lat="45.19188" lon="5.73058">
        <ele>210.19999694824</ele>
        <time>2019-10-09T09:17:36Z</time>
      </trkpt>
      <trkpt lat="45.19177" lon="5.73061">
        <ele>210.19999694824</ele>
        <time>2019-10-09T09:17:40Z</time>
      </trkpt>
      <trkpt lat="45.19172" lon="5.73062">
        <ele>210</ele>
        <time>2019-10-09T09:17:43Z</time>
      </trkpt>
      <trkpt lat="45.19145" lon="5.73082">
        <ele>209.39999389648</ele>
        <time>2019-10-09T09:17:57Z</time>
      </trkpt>
      <trkpt lat="45.19132" lon="5.73074">
        <ele>209.19999694824</ele>
        <time>2019-10-09T09:18:07Z</time>
      </trkpt>
      <trkpt lat="45.19114" lon="5.73063">
        <ele>209.19999694824</ele>
        <time>2019-10-09T09:18:24Z</time>
      </trkpt>
      <trkpt lat="45.19102" lon="5.73058">
        <ele>209.19999694824</ele>
        <time>2019-10-09T09:18:43Z</time>
      </trkpt>
      <trkpt lat="45.19076" lon="5.73047">
        <ele>209.39999389648</ele>
        <time>2019-10-09T09:19:08Z</time>
      </trkpt>
      <trkpt lat="45.19056" lon="5.73039">
        <ele>209.80000305176</ele>
        <time>2019-10-09T09:19:26Z</time>
      </trkpt>
      <trkpt lat="45.1905" lon="5.73018">
        <ele>209.80000305176</ele>
        <time>2019-10-09T09:19:37Z</time>
      </trkpt>
      <trkpt lat="45.19052" lon="5.72982">
        <ele>210</ele>
        <time>2019-10-09T09:19:46Z</time>
      </trkpt>
      <trkpt lat="45.19054" lon="5.72942">
        <ele>210.60000610352</ele>
        <time>2019-10-09T09:19:57Z</time>
      </trkpt>
      <trkpt lat="45.19054" lon="5.72934">
        <ele>210.60000610352</ele>
        <time>2019-10-09T09:20:07Z</time>
      </trkpt>
      <trkpt lat="45.19031" lon="5.72915">
        <ele>204.39999389648</ele>
        <time>2019-10-09T10:20:17Z</time>
      </trkpt>
      <trkpt lat="45.19054" lon="5.72913">
        <ele>196.60000610352</ele>
        <time>2019-10-09T10:58:16Z</time>
      </trkpt>
      <trkpt lat="45.19073" lon="5.72909">
        <ele>197</ele>
        <time>2019-10-09T10:58:55Z</time>
      </trkpt>
      <trkpt lat="45.19094" lon="5.72921">
        <ele>196.60000610352</ele>
        <time>2019-10-09T10:59:04Z</time>
      </trkpt>
      <trkpt lat="45.19114" lon="5.72931">
        <ele>196.39999389648</ele>
        <time>2019-10-09T10:59:12Z</time>
      </trkpt>
      <trkpt lat="45.19142" lon="5.72943">
        <ele>196.19999694824</ele>
        <time>2019-10-09T10:59:23Z</time>
      </trkpt>
      <trkpt lat="45.19159" lon="5.72949">
        <ele>196.80000305176</ele>
        <time>2019-10-09T10:59:30Z</time>
      </trkpt>
      <trkpt lat="45.19187" lon="5.7296">
        <ele>197.80000305176</ele>
        <time>2019-10-09T10:59:45Z</time>
      </trkpt>
      <trkpt lat="45.19194" lon="5.72963">
        <ele>197.80000305176</ele>
        <time>2019-10-09T10:59:51Z</time>
      </trkpt>
      <trkpt lat="45.19233" lon="5.72978">
        <ele>197.39999389648</ele>
        <time>2019-10-09T11:00:05Z</time>
      </trkpt>
      <trkpt lat="45.19245" lon="5.7298">
        <ele>197.19999694824</ele>
        <time>2019-10-09T11:00:11Z</time>
      </trkpt>
      <trkpt lat="45.19261" lon="5.7298">
        <ele>196.60000610352</ele>
        <time>2019-10-09T11:00:23Z</time>
      </trkpt>
      <trkpt lat="45.19279" lon="5.7298">
        <ele>196.60000610352</ele>
        <time>2019-10-09T11:00:32Z</time>
      </trkpt>
      <trkpt lat="45.19294" lon="5.7298">
        <ele>196.60000610352</ele>
        <time>2019-10-09T11:00:54Z</time>
      </trkpt>
      <trkpt lat="45.19299" lon="5.72981">
        <ele>196.39999389648</ele>
        <time>2019-10-09T11:00:57Z</time>
      </trkpt>
      <trkpt lat="45.19335" lon="5.72991">
        <ele>195</ele>
        <time>2019-10-09T11:01:09Z</time>
      </trkpt>
      <trkpt lat="45.19347" lon="5.72994">
        <ele>194.80000305176</ele>
        <time>2019-10-09T11:01:15Z</time>
      </trkpt>
      <trkpt lat="45.19354" lon="5.72996">
        <ele>194.80000305176</ele>
        <time>2019-10-09T11:01:25Z</time>
      </trkpt>
      <trkpt lat="45.19356" lon="5.73018">
        <ele>193.19999694824</ele>
        <time>2019-10-09T11:22:08Z</time>
      </trkpt>
      <trkpt lat="45.19356" lon="5.73013">
        <ele>193.39999389648</ele>
        <time>2019-10-09T11:22:10Z</time>
      </trkpt>
      <trkpt lat="45.19339" lon="5.72992">
        <ele>193.80000305176</ele>
        <time>2019-10-09T11:22:27Z</time>
      </trkpt>
      <trkpt lat="45.19326" lon="5.72988">
        <ele>194</ele>
        <time>2019-10-09T11:22:35Z</time>
      </trkpt>
      <trkpt lat="45.19307" lon="5.72983">
        <ele>194.39999389648</ele>
        <time>2019-10-09T11:22:50Z</time>
      </trkpt>
      <trkpt lat="45.19298" lon="5.72973">
        <ele>194.80000305176</ele>
        <time>2019-10-09T11:22:55Z</time>
      </trkpt>
      <trkpt lat="45.19311" lon="5.72903">
        <ele>195</ele>
        <time>2019-10-09T11:23:15Z</time>
      </trkpt>
      <trkpt lat="45.19312" lon="5.72851">
        <ele>194.60000610352</ele>
        <time>2019-10-09T11:23:27Z</time>
      </trkpt>
      <trkpt lat="45.19294" lon="5.7283">
        <ele>194.39999389648</ele>
        <time>2019-10-09T11:23:35Z</time>
      </trkpt>
      <trkpt lat="45.19266" lon="5.72822">
        <ele>194.19999694824</ele>
        <time>2019-10-09T11:23:45Z</time>
      </trkpt>
      <trkpt lat="45.19258" lon="5.72809">
        <ele>194.19999694824</ele>
        <time>2019-10-09T11:23:53Z</time>
      </trkpt>
      <trkpt lat="45.19252" lon="5.72798">
        <ele>193.39999389648</ele>
        <time>2019-10-09T11:24:03Z</time>
      </trkpt>
      <trkpt lat="45.1923" lon="5.72738">
        <ele>192.60000610352</ele>
        <time>2019-10-09T11:24:17Z</time>
      </trkpt>
      <trkpt lat="45.19201" lon="5.72675">
        <ele>193</ele>
        <time>2019-10-09T11:24:33Z</time>
      </trkpt>
      <trkpt lat="45.19193" lon="5.72639">
        <ele>193.60000610352</ele>
        <time>2019-10-09T11:24:42Z</time>
      </trkpt>
      <trkpt lat="45.19198" lon="5.72617">
        <ele>193.80000305176</ele>
        <time>2019-10-09T11:24:47Z</time>
      </trkpt>
      <trkpt lat="45.19191" lon="5.72564">
        <ele>195.39999389648</ele>
        <time>2019-10-09T11:25:01Z</time>
      </trkpt>
      <trkpt lat="45.1917" lon="5.72558">
        <ele>195.19999694824</ele>
        <time>2019-10-09T11:25:17Z</time>
      </trkpt>
      <trkpt lat="45.19167" lon="5.72565">
        <ele>195.39999389648</ele>
        <time>2019-10-09T11:25:23Z</time>
      </trkpt>
      <trkpt lat="45.19162" lon="5.72559">
        <ele>195.19999694824</ele>
        <time>2019-10-09T11:25:28Z</time>
      </trkpt>
      <trkpt lat="45.19168" lon="5.72539">
        <ele>194.19999694824</ele>
        <time>2019-10-09T11:25:35Z</time>
      </trkpt>
      <trkpt lat="45.19168" lon="5.72515">
        <ele>193</ele>
        <time>2019-10-09T11:25:43Z</time>
      </trkpt>
      <trkpt lat="45.19175" lon="5.72492">
        <ele>192.80000305176</ele>
        <time>2019-10-09T11:25:49Z</time>
      </trkpt>
      <trkpt lat="45.19169" lon="5.72446">
        <ele>193.39999389648</ele>
        <time>2019-10-09T11:25:59Z</time>
      </trkpt>
      <trkpt lat="45.1916" lon="5.72386">
        <ele>194</ele>
        <time>2019-10-09T11:26:11Z</time>
      </trkpt>
      <trkpt lat="45.19153" lon="5.72344">
        <ele>194.19999694824</ele>
        <time>2019-10-09T11:26:20Z</time>
      </trkpt>
      <trkpt lat="45.19145" lon="5.72291">
        <ele>194.39999389648</ele>
        <time>2019-10-09T11:26:30Z</time>
      </trkpt>
      <trkpt lat="45.19139" lon="5.72253">
        <ele>194.60000610352</ele>
        <time>2019-10-09T11:26:36Z</time>
      </trkpt>
      <trkpt lat="45.1913" lon="5.72191">
        <ele>194.80000305176</ele>
        <time>2019-10-09T11:26:48Z</time>
      </trkpt>
      <trkpt lat="45.19128" lon="5.72176">
        <ele>194.80000305176</ele>
        <time>2019-10-09T11:26:52Z</time>
      </trkpt>
      <trkpt lat="45.19113" lon="5.72085">
        <ele>195</ele>
        <time>2019-10-09T11:27:12Z</time>
      </trkpt>
      <trkpt lat="45.19109" lon="5.72064">
        <ele>194.80000305176</ele>
        <time>2019-10-09T11:27:17Z</time>
      </trkpt>
      <trkpt lat="45.19087" lon="5.72019">
        <ele>195</ele>
        <time>2019-10-09T11:27:33Z</time>
      </trkpt>
      <trkpt lat="45.19055" lon="5.72005">
        <ele>194.60000610352</ele>
        <time>2019-10-09T11:27:40Z</time>
      </trkpt>
      <trkpt lat="45.18999" lon="5.71986">
        <ele>194.80000305176</ele>
        <time>2019-10-09T11:27:54Z</time>
      </trkpt>
      <trkpt lat="45.18954" lon="5.71964">
        <ele>194.80000305176</ele>
        <time>2019-10-09T11:28:08Z</time>
      </trkpt>
      <trkpt lat="45.18939" lon="5.71959">
        <ele>194.39999389648</ele>
        <time>2019-10-09T11:28:34Z</time>
      </trkpt>
      <trkpt lat="45.18901" lon="5.7195">
        <ele>194.60000610352</ele>
        <time>2019-10-09T11:28:49Z</time>
      </trkpt>
      <trkpt lat="45.18867" lon="5.71938">
        <ele>194.39999389648</ele>
        <time>2019-10-09T11:29:06Z</time>
      </trkpt>
      <trkpt lat="45.18834" lon="5.71926">
        <ele>194.19999694824</ele>
        <time>2019-10-09T11:29:21Z</time>
      </trkpt>
      <trkpt lat="45.18849" lon="5.71899">
        <ele>190</ele>
        <time>2019-10-09T11:53:18Z</time>
      </trkpt>
      <trkpt lat="45.18853" lon="5.7191">
        <ele>189.80000305176</ele>
        <time>2019-10-09T11:53:31Z</time>
      </trkpt>
      <trkpt lat="45.18865" lon="5.71915">
        <ele>189.60000610352</ele>
        <time>2019-10-09T11:53:52Z</time>
      </trkpt>
      <trkpt lat="45.18858" lon="5.71912">
        <ele>189.60000610352</ele>
        <time>2019-10-09T11:54:00Z</time>
      </trkpt>
      <trkpt lat="45.18829" lon="5.71901">
        <ele>189.39999389648</ele>
        <time>2019-10-09T11:54:12Z</time>
      </trkpt>
      <trkpt lat="45.18776" lon="5.71887">
        <ele>189.60000610352</ele>
        <time>2019-10-09T11:54:26Z</time>
      </trkpt>
      <trkpt lat="45.18745" lon="5.71876">
        <ele>189.39999389648</ele>
        <time>2019-10-09T11:54:34Z</time>
      </trkpt>
      <trkpt lat="45.18663" lon="5.71848">
        <ele>189.39999389648</ele>
        <time>2019-10-09T11:54:56Z</time>
      </trkpt>
      <trkpt lat="45.18647" lon="5.71843">
        <ele>189.60000610352</ele>
        <time>2019-10-09T11:55:01Z</time>
      </trkpt>
      <trkpt lat="45.18587" lon="5.71821">
        <ele>189.60000610352</ele>
        <time>2019-10-09T11:55:16Z</time>
      </trkpt>
      <trkpt lat="45.18558" lon="5.71812">
        <ele>189.39999389648</ele>
        <time>2019-10-09T11:55:22Z</time>
      </trkpt>
      <trkpt lat="45.1854" lon="5.71806">
        <ele>189</ele>
        <time>2019-10-09T11:55:26Z</time>
      </trkpt>
      <trkpt lat="45.18511" lon="5.71797">
        <ele>189.19999694824</ele>
        <time>2019-10-09T11:55:34Z</time>
      </trkpt>
      <trkpt lat="45.18468" lon="5.71783">
        <ele>189.19999694824</ele>
        <time>2019-10-09T11:55:44Z</time>
      </trkpt>
      <trkpt lat="45.18438" lon="5.7177">
        <ele>189.39999389648</ele>
        <time>2019-10-09T11:55:55Z</time>
      </trkpt>
      <trkpt lat="45.18419" lon="5.71754">
        <ele>189.80000305176</ele>
        <time>2019-10-09T11:56:02Z</time>
      </trkpt>
      <trkpt lat="45.1837" lon="5.7174">
        <ele>190.60000610352</ele>
        <time>2019-10-09T11:56:16Z</time>
      </trkpt>
      <trkpt lat="45.18358" lon="5.71736">
        <ele>190.60000610352</ele>
        <time>2019-10-09T11:56:19Z</time>
      </trkpt>
      <trkpt lat="45.18347" lon="5.71732">
        <ele>190.80000305176</ele>
        <time>2019-10-09T11:56:22Z</time>
      </trkpt>
      <trkpt lat="45.1833" lon="5.71726">
        <ele>190.39999389648</ele>
        <time>2019-10-09T11:56:27Z</time>
      </trkpt>
      <trkpt lat="45.18304" lon="5.71715">
        <ele>190.19999694824</ele>
        <time>2019-10-09T11:56:36Z</time>
      </trkpt>
      <trkpt lat="45.18279" lon="5.71707">
        <ele>190.60000610352</ele>
        <time>2019-10-09T11:56:43Z</time>
      </trkpt>
      <trkpt lat="45.1827" lon="5.71664">
        <ele>190.39999389648</ele>
        <time>2019-10-09T11:57:00Z</time>
      </trkpt>
      <trkpt lat="45.18265" lon="5.71639">
        <ele>190</ele>
        <time>2019-10-09T11:57:06Z</time>
      </trkpt>
      <trkpt lat="45.18248" lon="5.71608">
        <ele>190</ele>
        <time>2019-10-09T11:57:14Z</time>
      </trkpt>
      <trkpt lat="45.18245" lon="5.71603">
        <ele>189.80000305176</ele>
        <time>2019-10-09T11:57:18Z</time>
      </trkpt>
      <trkpt lat="45.18243" lon="5.71599">
        <ele>189.80000305176</ele>
        <time>2019-10-09T11:57:20Z</time>
      </trkpt>
      <trkpt lat="45.18195" lon="5.71512">
        <ele>190</ele>
        <time>2019-10-09T11:57:38Z</time>
      </trkpt>
      <trkpt lat="45.18175" lon="5.71478">
        <ele>190.39999389648</ele>
        <time>2019-10-09T11:57:47Z</time>
      </trkpt>
      <trkpt lat="45.18164" lon="5.71458">
        <ele>190.39999389648</ele>
        <time>2019-10-09T11:57:51Z</time>
      </trkpt>
      <trkpt lat="45.18158" lon="5.71449">
        <ele>190.19999694824</ele>
        <time>2019-10-09T11:57:53Z</time>
      </trkpt>
      <trkpt lat="45.18132" lon="5.71416">
        <ele>190.80000305176</ele>
        <time>2019-10-09T11:58:02Z</time>
      </trkpt>
      <trkpt lat="45.18116" lon="5.71394">
        <ele>191</ele>
        <time>2019-10-09T11:58:09Z</time>
      </trkpt>
      <trkpt lat="45.18051" lon="5.71303">
        <ele>192.39999389648</ele>
        <time>2019-10-09T11:58:31Z</time>
      </trkpt>
      <trkpt lat="45.18041" lon="5.71289">
        <ele>192.60000610352</ele>
        <time>2019-10-09T11:58:38Z</time>
      </trkpt>
      <trkpt lat="45.18033" lon="5.7122">
        <ele>193.19999694824</ele>
        <time>2019-10-09T11:58:53Z</time>
      </trkpt>
      <trkpt lat="45.18033" lon="5.71175">
        <ele>193.60000610352</ele>
        <time>2019-10-09T11:59:02Z</time>
      </trkpt>
      <trkpt lat="45.18031" lon="5.71132">
        <ele>193.80000305176</ele>
        <time>2019-10-09T11:59:12Z</time>
      </trkpt>
      <trkpt lat="45.18031" lon="5.71053">
        <ele>194</ele>
        <time>2019-10-09T11:59:24Z</time>
      </trkpt>
      <trkpt lat="45.18031" lon="5.71043">
        <ele>194</ele>
        <time>2019-10-09T11:59:26Z</time>
      </trkpt>
      <trkpt lat="45.1803" lon="5.70998">
        <ele>194.19999694824</ele>
        <time>2019-10-09T11:59:38Z</time>
      </trkpt>
      <trkpt lat="45.18029" lon="5.70972">
        <ele>194.19999694824</ele>
        <time>2019-10-09T11:59:44Z</time>
      </trkpt>
      <trkpt lat="45.18028" lon="5.70921">
        <ele>194.60000610352</ele>
        <time>2019-10-09T11:59:56Z</time>
      </trkpt>
      <trkpt lat="45.18027" lon="5.70892">
        <ele>194.80000305176</ele>
        <time>2019-10-09T12:00:01Z</time>
      </trkpt>
      <trkpt lat="45.18024" lon="5.70794">
        <ele>195.19999694824</ele>
        <time>2019-10-09T12:00:21Z</time>
      </trkpt>
      <trkpt lat="45.18024" lon="5.70767">
        <ele>195</ele>
        <time>2019-10-09T12:00:27Z</time>
      </trkpt>
      <trkpt lat="45.18024" lon="5.70732">
        <ele>195</ele>
        <time>2019-10-09T12:00:33Z</time>
      </trkpt>
      <trkpt lat="45.18024" lon="5.70701">
        <ele>195.19999694824</ele>
        <time>2019-10-09T12:00:39Z</time>
      </trkpt>
      <trkpt lat="45.18024" lon="5.7066">
        <ele>195.39999389648</ele>
        <time>2019-10-09T12:00:49Z</time>
      </trkpt>
      <trkpt lat="45.18024" lon="5.70602">
        <ele>195.80000305176</ele>
        <time>2019-10-09T12:01:00Z</time>
      </trkpt>
      <trkpt lat="45.18029" lon="5.70552">
        <ele>195.80000305176</ele>
        <time>2019-10-09T12:01:10Z</time>
      </trkpt>
      <trkpt lat="45.18029" lon="5.7054">
        <ele>196</ele>
        <time>2019-10-09T12:01:50Z</time>
      </trkpt>
      <trkpt lat="45.1802" lon="5.70498">
        <ele>196.19999694824</ele>
        <time>2019-10-09T12:02:02Z</time>
      </trkpt>
      <trkpt lat="45.1802" lon="5.70473">
        <ele>196.60000610352</ele>
        <time>2019-10-09T12:02:09Z</time>
      </trkpt>
      <trkpt lat="45.1802" lon="5.70452">
        <ele>197.80000305176</ele>
        <time>2019-10-09T12:02:17Z</time>
      </trkpt>
      <trkpt lat="45.1802" lon="5.70447">
        <ele>199.39999389648</ele>
        <time>2019-10-09T12:03:06Z</time>
      </trkpt>
      <trkpt lat="45.1802" lon="5.70435">
        <ele>199.39999389648</ele>
        <time>2019-10-09T12:03:10Z</time>
      </trkpt>
      <trkpt lat="45.18019" lon="5.70403">
        <ele>200.39999389648</ele>
        <time>2019-10-09T12:03:19Z</time>
      </trkpt>
      <trkpt lat="45.18018" lon="5.70394">
        <ele>201.19999694824</ele>
        <time>2019-10-09T12:04:16Z</time>
      </trkpt>
      <trkpt lat="45.18016" lon="5.70369">
        <ele>201</ele>
        <time>2019-10-09T12:04:25Z</time>
      </trkpt>
      <trkpt lat="45.18015" lon="5.70359">
        <ele>201.19999694824</ele>
        <time>2019-10-09T12:04:29Z</time>
      </trkpt>
      <trkpt lat="45.18015" lon="5.70338">
        <ele>201.60000610352</ele>
        <time>2019-10-09T12:04:34Z</time>
      </trkpt>
      <trkpt lat="45.18014" lon="5.70315">
        <ele>201.60000610352</ele>
        <time>2019-10-09T12:04:38Z</time>
      </trkpt>
      <trkpt lat="45.18015" lon="5.70262">
        <ele>203.19999694824</ele>
        <time>2019-10-09T12:04:48Z</time>
      </trkpt>
      <trkpt lat="45.18015" lon="5.70239">
        <ele>203.60000610352</ele>
        <time>2019-10-09T12:04:53Z</time>
      </trkpt>
      <trkpt lat="45.18017" lon="5.7018">
        <ele>204.80000305176</ele>
        <time>2019-10-09T12:05:06Z</time>
      </trkpt>
      <trkpt lat="45.18017" lon="5.7016">
        <ele>205</ele>
        <time>2019-10-09T12:05:10Z</time>
      </trkpt>
      <trkpt lat="45.18018" lon="5.70131">
        <ele>205.39999389648</ele>
        <time>2019-10-09T12:05:16Z</time>
      </trkpt>
      <trkpt lat="45.1802" lon="5.70049">
        <ele>205.19999694824</ele>
        <time>2019-10-09T12:05:31Z</time>
      </trkpt>
      <trkpt lat="45.18021" lon="5.70019">
        <ele>205</ele>
        <time>2019-10-09T12:05:36Z</time>
      </trkpt>
      <trkpt lat="45.18021" lon="5.69993">
        <ele>204.80000305176</ele>
        <time>2019-10-09T12:05:40Z</time>
      </trkpt>
      <trkpt lat="45.18022" lon="5.69958">
        <ele>204.60000610352</ele>
        <time>2019-10-09T12:05:45Z</time>
      </trkpt>
      <trkpt lat="45.18023" lon="5.69922">
        <ele>203.80000305176</ele>
        <time>2019-10-09T12:05:50Z</time>
      </trkpt>
      <trkpt lat="45.18024" lon="5.69897">
        <ele>203.39999389648</ele>
        <time>2019-10-09T12:05:53Z</time>
      </trkpt>
      <trkpt lat="45.18024" lon="5.69863">
        <ele>202.60000610352</ele>
        <time>2019-10-09T12:05:57Z</time>
      </trkpt>
      <trkpt lat="45.18028" lon="5.69816">
        <ele>200.39999389648</ele>
        <time>2019-10-09T12:06:03Z</time>
      </trkpt>
      <trkpt lat="45.18033" lon="5.69764">
        <ele>196.60000610352</ele>
        <time>2019-10-09T12:06:13Z</time>
      </trkpt>
      <trkpt lat="45.18035" lon="5.69742">
        <ele>195.80000305176</ele>
        <time>2019-10-09T12:06:17Z</time>
      </trkpt>
      <trkpt lat="45.18035" lon="5.6968">
        <ele>195.19999694824</ele>
        <time>2019-10-09T12:06:29Z</time>
      </trkpt>
      <trkpt lat="45.18036" lon="5.69625">
        <ele>195.19999694824</ele>
        <time>2019-10-09T12:06:41Z</time>
      </trkpt>
      <trkpt lat="45.18042" lon="5.6954">
        <ele>195.19999694824</ele>
        <time>2019-10-09T12:06:56Z</time>
      </trkpt>
      <trkpt lat="45.18044" lon="5.69483">
        <ele>195</ele>
        <time>2019-10-09T12:07:08Z</time>
      </trkpt>
      <trkpt lat="45.18044" lon="5.69474">
        <ele>194.80000305176</ele>
        <time>2019-10-09T12:07:10Z</time>
      </trkpt>
      <trkpt lat="45.18044" lon="5.69439">
        <ele>194.80000305176</ele>
        <time>2019-10-09T12:07:19Z</time>
      </trkpt>
      <trkpt lat="45.18044" lon="5.69427">
        <ele>194.80000305176</ele>
        <time>2019-10-09T12:07:22Z</time>
      </trkpt>
      <trkpt lat="45.18024" lon="5.69393">
        <ele>194.60000610352</ele>
        <time>2019-10-09T12:07:28Z</time>
      </trkpt>
      <trkpt lat="45.18022" lon="5.69392">
        <ele>194</ele>
        <time>2019-10-09T12:07:31Z</time>
      </trkpt>
      <trkpt lat="45.17969" lon="5.6939">
        <ele>193.60000610352</ele>
        <time>2019-10-09T12:07:43Z</time>
      </trkpt>
      <trkpt lat="45.17931" lon="5.69364">
        <ele>193.39999389648</ele>
        <time>2019-10-09T12:07:52Z</time>
      </trkpt>
      <trkpt lat="45.17858" lon="5.69253">
        <ele>193.19999694824</ele>
        <time>2019-10-09T12:08:15Z</time>
      </trkpt>
      <trkpt lat="45.17842" lon="5.69215">
        <ele>193.19999694824</ele>
        <time>2019-10-09T12:08:22Z</time>
      </trkpt>
      <trkpt lat="45.17794" lon="5.691">
        <ele>193</ele>
        <time>2019-10-09T12:08:46Z</time>
      </trkpt>
      <trkpt lat="45.17776" lon="5.69079">
        <ele>193.19999694824</ele>
        <time>2019-10-09T12:08:54Z</time>
      </trkpt>
      <trkpt lat="45.17754" lon="5.69039">
        <ele>193.19999694824</ele>
        <time>2019-10-09T12:09:03Z</time>
      </trkpt>
      <trkpt lat="45.17744" lon="5.69004">
        <ele>193.19999694824</ele>
        <time>2019-10-09T12:09:09Z</time>
      </trkpt>
      <trkpt lat="45.17708" lon="5.68937">
        <ele>192.39999389648</ele>
        <time>2019-10-09T12:09:21Z</time>
      </trkpt>
      <trkpt lat="45.17642" lon="5.6879">
        <ele>192.60000610352</ele>
        <time>2019-10-09T12:09:46Z</time>
      </trkpt>
      <trkpt lat="45.17625" lon="5.68723">
        <ele>192.39999389648</ele>
        <time>2019-10-09T12:09:58Z</time>
      </trkpt>
      <trkpt lat="45.17604" lon="5.68685">
        <ele>192.80000305176</ele>
        <time>2019-10-09T12:10:09Z</time>
      </trkpt>
      <trkpt lat="45.17586" lon="5.68659">
        <ele>193.39999389648</ele>
        <time>2019-10-09T12:10:17Z</time>
      </trkpt>
      <trkpt lat="45.1756" lon="5.68629">
        <ele>194.19999694824</ele>
        <time>2019-10-09T12:10:27Z</time>
      </trkpt>
      <trkpt lat="45.1754" lon="5.68606">
        <ele>195</ele>
        <time>2019-10-09T12:10:37Z</time>
      </trkpt>
      <trkpt lat="45.1752" lon="5.68583">
        <ele>196.19999694824</ele>
        <time>2019-10-09T12:10:47Z</time>
      </trkpt>
      <trkpt lat="45.17512" lon="5.68575">
        <ele>197</ele>
        <time>2019-10-09T12:10:51Z</time>
      </trkpt>
      <trkpt lat="45.17488" lon="5.68551">
        <ele>199</ele>
        <time>2019-10-09T12:11:04Z</time>
      </trkpt>
      <trkpt lat="45.17471" lon="5.68536">
        <ele>200.19999694824</ele>
        <time>2019-10-09T12:11:13Z</time>
      </trkpt>
      <trkpt lat="45.17451" lon="5.68519">
        <ele>202.19999694824</ele>
        <time>2019-10-09T12:11:23Z</time>
      </trkpt>
      <trkpt lat="45.1743" lon="5.68502">
        <ele>204.19999694824</ele>
        <time>2019-10-09T12:11:33Z</time>
      </trkpt>
      <trkpt lat="45.17406" lon="5.68488">
        <ele>205.60000610352</ele>
        <time>2019-10-09T12:11:44Z</time>
      </trkpt>
      <trkpt lat="45.1737" lon="5.68485">
        <ele>208.39999389648</ele>
        <time>2019-10-09T12:11:59Z</time>
      </trkpt>
      <trkpt lat="45.17355" lon="5.68485">
        <ele>209.60000610352</ele>
        <time>2019-10-09T12:12:07Z</time>
      </trkpt>
      <trkpt lat="45.17326" lon="5.68483">
        <ele>211.80000305176</ele>
        <time>2019-10-09T12:12:21Z</time>
      </trkpt>
      <trkpt lat="45.17313" lon="5.6848">
        <ele>212.80000305176</ele>
        <time>2019-10-09T12:12:27Z</time>
      </trkpt>
      <trkpt lat="45.17284" lon="5.68466">
        <ele>214.39999389648</ele>
        <time>2019-10-09T12:12:39Z</time>
      </trkpt>
      <trkpt lat="45.17269" lon="5.68456">
        <ele>215.60000610352</ele>
        <time>2019-10-09T12:12:46Z</time>
      </trkpt>
      <trkpt lat="45.17249" lon="5.6844">
        <ele>217.39999389648</ele>
        <time>2019-10-09T12:12:57Z</time>
      </trkpt>
      <trkpt lat="45.17236" lon="5.68425">
        <ele>218.60000610352</ele>
        <time>2019-10-09T12:13:06Z</time>
      </trkpt>
      <trkpt lat="45.17215" lon="5.68402">
        <ele>220.60000610352</ele>
        <time>2019-10-09T12:13:18Z</time>
      </trkpt>
      <trkpt lat="45.17194" lon="5.68376">
        <ele>222.60000610352</ele>
        <time>2019-10-09T12:13:32Z</time>
      </trkpt>
      <trkpt lat="45.17183" lon="5.6834">
        <ele>224.60000610352</ele>
        <time>2019-10-09T12:13:46Z</time>
      </trkpt>
      <trkpt lat="45.17179" lon="5.68306">
        <ele>226.60000610352</ele>
        <time>2019-10-09T12:13:58Z</time>
      </trkpt>
      <trkpt lat="45.17177" lon="5.68287">
        <ele>227.80000305176</ele>
        <time>2019-10-09T12:14:05Z</time>
      </trkpt>
      <trkpt lat="45.17174" lon="5.68279">
        <ele>228.19999694824</ele>
        <time>2019-10-09T12:14:08Z</time>
      </trkpt>
      <trkpt lat="45.17156" lon="5.68251">
        <ele>230.39999389648</ele>
        <time>2019-10-09T12:14:20Z</time>
      </trkpt>
      <trkpt lat="45.17136" lon="5.68219">
        <ele>232.19999694824</ele>
        <time>2019-10-09T12:14:34Z</time>
      </trkpt>
      <trkpt lat="45.17129" lon="5.68199">
        <ele>233.19999694824</ele>
        <time>2019-10-09T12:14:42Z</time>
      </trkpt>
      <trkpt lat="45.17133" lon="5.68163">
        <ele>235</ele>
        <time>2019-10-09T12:14:53Z</time>
      </trkpt>
      <trkpt lat="45.1714" lon="5.68127">
        <ele>237.19999694824</ele>
        <time>2019-10-09T12:15:06Z</time>
      </trkpt>
      <trkpt lat="45.17138" lon="5.68107">
        <ele>238.80000305176</ele>
        <time>2019-10-09T12:15:15Z</time>
      </trkpt>
      <trkpt lat="45.17123" lon="5.68092">
        <ele>240</ele>
        <time>2019-10-09T12:15:24Z</time>
      </trkpt>
      <trkpt lat="45.17096" lon="5.68085">
        <ele>241</ele>
        <time>2019-10-09T12:15:34Z</time>
      </trkpt>
      <trkpt lat="45.17066" lon="5.68077">
        <ele>241.60000610352</ele>
        <time>2019-10-09T12:15:43Z</time>
      </trkpt>
      <trkpt lat="45.17014" lon="5.68055">
        <ele>242.39999389648</ele>
        <time>2019-10-09T12:16:00Z</time>
      </trkpt>
      <trkpt lat="45.16993" lon="5.68048">
        <ele>243.39999389648</ele>
        <time>2019-10-09T12:16:08Z</time>
      </trkpt>
      <trkpt lat="45.16967" lon="5.68043">
        <ele>245.19999694824</ele>
        <time>2019-10-09T12:16:17Z</time>
      </trkpt>
      <trkpt lat="45.16946" lon="5.68045">
        <ele>247</ele>
        <time>2019-10-09T12:16:26Z</time>
      </trkpt>
      <trkpt lat="45.16925" lon="5.68051">
        <ele>248.80000305176</ele>
        <time>2019-10-09T12:16:34Z</time>
      </trkpt>
      <trkpt lat="45.16907" lon="5.68043">
        <ele>250</ele>
        <time>2019-10-09T12:16:42Z</time>
      </trkpt>
      <trkpt lat="45.169" lon="5.68019">
        <ele>250.80000305176</ele>
        <time>2019-10-09T12:16:49Z</time>
      </trkpt>
      <trkpt lat="45.16892" lon="5.67979">
        <ele>252.60000610352</ele>
        <time>2019-10-09T12:17:00Z</time>
      </trkpt>
      <trkpt lat="45.16882" lon="5.67951">
        <ele>254</ele>
        <time>2019-10-09T12:17:10Z</time>
      </trkpt>
      <trkpt lat="45.16867" lon="5.67921">
        <ele>255.80000305176</ele>
        <time>2019-10-09T12:17:21Z</time>
      </trkpt>
      <trkpt lat="45.16859" lon="5.67908">
        <ele>256.39999389648</ele>
        <time>2019-10-09T12:17:26Z</time>
      </trkpt>
      <trkpt lat="45.16831" lon="5.67883">
        <ele>258.39999389648</ele>
        <time>2019-10-09T12:17:39Z</time>
      </trkpt>
      <trkpt lat="45.1682" lon="5.67858">
        <ele>258.79998779297</ele>
        <time>2019-10-09T12:17:46Z</time>
      </trkpt>
      <trkpt lat="45.168" lon="5.67829">
        <ele>260.79998779297</ele>
        <time>2019-10-09T12:17:58Z</time>
      </trkpt>
      <trkpt lat="45.16789" lon="5.67816">
        <ele>262</ele>
        <time>2019-10-09T12:18:05Z</time>
      </trkpt>
      <trkpt lat="45.16761" lon="5.67802">
        <ele>264</ele>
        <time>2019-10-09T12:18:18Z</time>
      </trkpt>
      <trkpt lat="45.16742" lon="5.678">
        <ele>265.20001220703</ele>
        <time>2019-10-09T12:18:26Z</time>
      </trkpt>
      <trkpt lat="45.16723" lon="5.67798">
        <ele>266.39999389648</ele>
        <time>2019-10-09T12:18:34Z</time>
      </trkpt>
      <trkpt lat="45.16706" lon="5.67784">
        <ele>268</ele>
        <time>2019-10-09T12:18:45Z</time>
      </trkpt>
      <trkpt lat="45.16706" lon="5.67761">
        <ele>269.39999389648</ele>
        <time>2019-10-09T12:18:52Z</time>
      </trkpt>
      <trkpt lat="45.16723" lon="5.67742">
        <ele>271</ele>
        <time>2019-10-09T12:19:00Z</time>
      </trkpt>
      <trkpt lat="45.16739" lon="5.6774">
        <ele>272.20001220703</ele>
        <time>2019-10-09T12:19:08Z</time>
      </trkpt>
      <trkpt lat="45.16764" lon="5.67751">
        <ele>274</ele>
        <time>2019-10-09T12:19:21Z</time>
      </trkpt>
      <trkpt lat="45.16781" lon="5.67765">
        <ele>275.39999389648</ele>
        <time>2019-10-09T12:19:30Z</time>
      </trkpt>
      <trkpt lat="45.16805" lon="5.67784">
        <ele>276.79998779297</ele>
        <time>2019-10-09T12:19:43Z</time>
      </trkpt>
      <trkpt lat="45.16829" lon="5.678">
        <ele>278.79998779297</ele>
        <time>2019-10-09T12:19:54Z</time>
      </trkpt>
      <trkpt lat="45.16856" lon="5.67799">
        <ele>280.39999389648</ele>
        <time>2019-10-09T12:20:04Z</time>
      </trkpt>
      <trkpt lat="45.16877" lon="5.6778">
        <ele>281.60000610352</ele>
        <time>2019-10-09T12:20:14Z</time>
      </trkpt>
      <trkpt lat="45.16896" lon="5.67773">
        <ele>283</ele>
        <time>2019-10-09T12:20:23Z</time>
      </trkpt>
      <trkpt lat="45.16915" lon="5.67773">
        <ele>284.60000610352</ele>
        <time>2019-10-09T12:20:32Z</time>
      </trkpt>
      <trkpt lat="45.16936" lon="5.67777">
        <ele>286.20001220703</ele>
        <time>2019-10-09T12:20:41Z</time>
      </trkpt>
      <trkpt lat="45.16962" lon="5.67783">
        <ele>288.20001220703</ele>
        <time>2019-10-09T12:20:52Z</time>
      </trkpt>
      <trkpt lat="45.16984" lon="5.67789">
        <ele>289.79998779297</ele>
        <time>2019-10-09T12:21:02Z</time>
      </trkpt>
      <trkpt lat="45.17008" lon="5.67794">
        <ele>292.39999389648</ele>
        <time>2019-10-09T12:21:13Z</time>
      </trkpt>
      <trkpt lat="45.17053" lon="5.67799">
        <ele>295.20001220703</ele>
        <time>2019-10-09T12:21:30Z</time>
      </trkpt>
      <trkpt lat="45.17089" lon="5.67809">
        <ele>296.60000610352</ele>
        <time>2019-10-09T12:21:44Z</time>
      </trkpt>
      <trkpt lat="45.17119" lon="5.67823">
        <ele>298</ele>
        <time>2019-10-09T12:21:54Z</time>
      </trkpt>
      <trkpt lat="45.17158" lon="5.67841">
        <ele>300</ele>
        <time>2019-10-09T12:22:07Z</time>
      </trkpt>
      <trkpt lat="45.17178" lon="5.67848">
        <ele>301.20001220703</ele>
        <time>2019-10-09T12:22:16Z</time>
      </trkpt>
      <trkpt lat="45.17195" lon="5.67851">
        <ele>302.60000610352</ele>
        <time>2019-10-09T12:32:24Z</time>
      </trkpt>
      <trkpt lat="45.17204" lon="5.67853">
        <ele>302.79998779297</ele>
        <time>2019-10-09T12:32:31Z</time>
      </trkpt>
      <trkpt lat="45.17218" lon="5.67856">
        <ele>304.20001220703</ele>
        <time>2019-10-09T12:32:40Z</time>
      </trkpt>
      <trkpt lat="45.17226" lon="5.67858">
        <ele>305</ele>
        <time>2019-10-09T12:32:45Z</time>
      </trkpt>
      <trkpt lat="45.17233" lon="5.67859">
        <ele>305.79998779297</ele>
        <time>2019-10-09T12:32:50Z</time>
      </trkpt>
      <trkpt lat="45.17256" lon="5.67868">
        <ele>307.60000610352</ele>
        <time>2019-10-09T12:33:04Z</time>
      </trkpt>
      <trkpt lat="45.17269" lon="5.67874">
        <ele>309</ele>
        <time>2019-10-09T12:33:12Z</time>
      </trkpt>
      <trkpt lat="45.17288" lon="5.67883">
        <ele>310.39999389648</ele>
        <time>2019-10-09T12:33:24Z</time>
      </trkpt>
      <trkpt lat="45.17301" lon="5.67889">
        <ele>311.39999389648</ele>
        <time>2019-10-09T12:33:33Z</time>
      </trkpt>
      <trkpt lat="45.17327" lon="5.67901">
        <ele>313</ele>
        <time>2019-10-09T12:33:46Z</time>
      </trkpt>
      <trkpt lat="45.17345" lon="5.67912">
        <ele>314.39999389648</ele>
        <time>2019-10-09T12:33:56Z</time>
      </trkpt>
      <trkpt lat="45.17363" lon="5.67924">
        <ele>316.39999389648</ele>
        <time>2019-10-09T12:34:07Z</time>
      </trkpt>
      <trkpt lat="45.17379" lon="5.67934">
        <ele>317.79998779297</ele>
        <time>2019-10-09T12:34:17Z</time>
      </trkpt>
      <trkpt lat="45.17413" lon="5.67954">
        <ele>320</ele>
        <time>2019-10-09T12:34:34Z</time>
      </trkpt>
      <trkpt lat="45.17429" lon="5.67965">
        <ele>320.60000610352</ele>
        <time>2019-10-09T12:34:43Z</time>
      </trkpt>
      <trkpt lat="45.17445" lon="5.67984">
        <ele>322.39999389648</ele>
        <time>2019-10-09T12:34:55Z</time>
      </trkpt>
      <trkpt lat="45.17455" lon="5.68002">
        <ele>323.20001220703</ele>
        <time>2019-10-09T12:35:05Z</time>
      </trkpt>
      <trkpt lat="45.17462" lon="5.68017">
        <ele>324.39999389648</ele>
        <time>2019-10-09T12:35:14Z</time>
      </trkpt>
      <trkpt lat="45.1748" lon="5.68062">
        <ele>326.20001220703</ele>
        <time>2019-10-09T12:35:31Z</time>
      </trkpt>
      <trkpt lat="45.1749" lon="5.68087">
        <ele>327.60000610352</ele>
        <time>2019-10-09T12:35:41Z</time>
      </trkpt>
      <trkpt lat="45.17515" lon="5.68124">
        <ele>329.39999389648</ele>
        <time>2019-10-09T12:35:59Z</time>
      </trkpt>
      <trkpt lat="45.17533" lon="5.68138">
        <ele>330.39999389648</ele>
        <time>2019-10-09T12:36:09Z</time>
      </trkpt>
      <trkpt lat="45.17576" lon="5.68154">
        <ele>333</ele>
        <time>2019-10-09T12:36:31Z</time>
      </trkpt>
      <trkpt lat="45.17592" lon="5.68154">
        <ele>333.79998779297</ele>
        <time>2019-10-09T12:36:38Z</time>
      </trkpt>
      <trkpt lat="45.17626" lon="5.68149">
        <ele>335.79998779297</ele>
        <time>2019-10-09T12:36:55Z</time>
      </trkpt>
      <trkpt lat="45.17648" lon="5.68146">
        <ele>337.39999389648</ele>
        <time>2019-10-09T12:37:06Z</time>
      </trkpt>
      <trkpt lat="45.17683" lon="5.68141">
        <ele>339.60000610352</ele>
        <time>2019-10-09T12:37:23Z</time>
      </trkpt>
      <trkpt lat="45.17703" lon="5.68139">
        <ele>341</ele>
        <time>2019-10-09T12:37:33Z</time>
      </trkpt>
      <trkpt lat="45.17741" lon="5.68137">
        <ele>343.79998779297</ele>
        <time>2019-10-09T12:37:53Z</time>
      </trkpt>
      <trkpt lat="45.17752" lon="5.6814">
        <ele>344.79998779297</ele>
        <time>2019-10-09T12:37:59Z</time>
      </trkpt>
      <trkpt lat="45.17781" lon="5.68147">
        <ele>346.79998779297</ele>
        <time>2019-10-09T12:38:14Z</time>
      </trkpt>
      <trkpt lat="45.17799" lon="5.68141">
        <ele>348.39999389648</ele>
        <time>2019-10-09T12:38:23Z</time>
      </trkpt>
      <trkpt lat="45.17797" lon="5.68115">
        <ele>349.39999389648</ele>
        <time>2019-10-09T12:38:33Z</time>
      </trkpt>
      <trkpt lat="45.17782" lon="5.68107">
        <ele>350.79998779297</ele>
        <time>2019-10-09T12:38:44Z</time>
      </trkpt>
      <trkpt lat="45.17767" lon="5.68104">
        <ele>351.39999389648</ele>
        <time>2019-10-09T12:38:51Z</time>
      </trkpt>
      <trkpt lat="45.17736" lon="5.68095">
        <ele>353.60000610352</ele>
        <time>2019-10-09T12:39:07Z</time>
      </trkpt>
      <trkpt lat="45.17726" lon="5.6809">
        <ele>354.60000610352</ele>
        <time>2019-10-09T12:39:14Z</time>
      </trkpt>
      <trkpt lat="45.177" lon="5.68077">
        <ele>356.79998779297</ele>
        <time>2019-10-09T12:39:29Z</time>
      </trkpt>
      <trkpt lat="45.17682" lon="5.68063">
        <ele>358.60000610352</ele>
        <time>2019-10-09T12:39:41Z</time>
      </trkpt>
      <trkpt lat="45.17667" lon="5.68051">
        <ele>360.20001220703</ele>
        <time>2019-10-09T12:39:51Z</time>
      </trkpt>
      <trkpt lat="45.17654" lon="5.68038">
        <ele>361.79998779297</ele>
        <time>2019-10-09T12:40:00Z</time>
      </trkpt>
      <trkpt lat="45.17634" lon="5.68016">
        <ele>364</ele>
        <time>2019-10-09T12:40:14Z</time>
      </trkpt>
      <trkpt lat="45.17626" lon="5.68007">
        <ele>365</ele>
        <time>2019-10-09T12:40:20Z</time>
      </trkpt>
      <trkpt lat="45.17598" lon="5.67977">
        <ele>368.60000610352</ele>
        <time>2019-10-09T12:40:40Z</time>
      </trkpt>
      <trkpt lat="45.17591" lon="5.67969">
        <ele>369.39999389648</ele>
        <time>2019-10-09T12:40:45Z</time>
      </trkpt>
      <trkpt lat="45.1758" lon="5.67946">
        <ele>371.60000610352</ele>
        <time>2019-10-09T12:40:56Z</time>
      </trkpt>
      <trkpt lat="45.17578" lon="5.67916">
        <ele>373.20001220703</ele>
        <time>2019-10-09T12:41:06Z</time>
      </trkpt>
      <trkpt lat="45.17583" lon="5.67897">
        <ele>375</ele>
        <time>2019-10-09T12:41:14Z</time>
      </trkpt>
      <trkpt lat="45.17596" lon="5.67868">
        <ele>377.39999389648</ele>
        <time>2019-10-09T12:41:29Z</time>
      </trkpt>
      <trkpt lat="45.17602" lon="5.67853">
        <ele>378.79998779297</ele>
        <time>2019-10-09T12:41:36Z</time>
      </trkpt>
      <trkpt lat="45.17613" lon="5.67817">
        <ele>381.20001220703</ele>
        <time>2019-10-09T12:41:52Z</time>
      </trkpt>
      <trkpt lat="45.17595" lon="5.67807">
        <ele>382.39999389648</ele>
        <time>2019-10-09T12:42:00Z</time>
      </trkpt>
      <trkpt lat="45.17574" lon="5.67811">
        <ele>383.39999389648</ele>
        <time>2019-10-09T12:42:11Z</time>
      </trkpt>
      <trkpt lat="45.17556" lon="5.67809">
        <ele>384.79998779297</ele>
        <time>2019-10-09T12:42:22Z</time>
      </trkpt>
      <trkpt lat="45.17534" lon="5.67801">
        <ele>387</ele>
        <time>2019-10-09T12:42:34Z</time>
      </trkpt>
      <trkpt lat="45.17518" lon="5.67794">
        <ele>388.39999389648</ele>
        <time>2019-10-09T12:42:44Z</time>
      </trkpt>
      <trkpt lat="45.17485" lon="5.67771">
        <ele>392.20001220703</ele>
        <time>2019-10-09T12:43:05Z</time>
      </trkpt>
      <trkpt lat="45.17475" lon="5.67763">
        <ele>393</ele>
        <time>2019-10-09T12:43:11Z</time>
      </trkpt>
      <trkpt lat="45.17462" lon="5.67749">
        <ele>394.39999389648</ele>
        <time>2019-10-09T12:43:20Z</time>
      </trkpt>
      <trkpt lat="45.17443" lon="5.67729">
        <ele>397</ele>
        <time>2019-10-09T12:43:35Z</time>
      </trkpt>
      <trkpt lat="45.17432" lon="5.67717">
        <ele>398.20001220703</ele>
        <time>2019-10-09T12:43:44Z</time>
      </trkpt>
      <trkpt lat="45.17409" lon="5.67691">
        <ele>401</ele>
        <time>2019-10-09T12:44:02Z</time>
      </trkpt>
      <trkpt lat="45.17402" lon="5.67684">
        <ele>401.79998779297</ele>
        <time>2019-10-09T12:44:07Z</time>
      </trkpt>
      <trkpt lat="45.17384" lon="5.67663">
        <ele>404</ele>
        <time>2019-10-09T12:44:21Z</time>
      </trkpt>
      <trkpt lat="45.17372" lon="5.6765">
        <ele>405</ele>
        <time>2019-10-09T12:44:29Z</time>
      </trkpt>
      <trkpt lat="45.17355" lon="5.67628">
        <ele>407.20001220703</ele>
        <time>2019-10-09T12:44:41Z</time>
      </trkpt>
      <trkpt lat="45.17341" lon="5.67612">
        <ele>408.60000610352</ele>
        <time>2019-10-09T12:44:51Z</time>
      </trkpt>
      <trkpt lat="45.17326" lon="5.67594">
        <ele>410.20001220703</ele>
        <time>2019-10-09T12:45:02Z</time>
      </trkpt>
      <trkpt lat="45.17313" lon="5.67579">
        <ele>411.60000610352</ele>
        <time>2019-10-09T12:45:11Z</time>
      </trkpt>
      <trkpt lat="45.17287" lon="5.67547">
        <ele>414.60000610352</ele>
        <time>2019-10-09T12:45:29Z</time>
      </trkpt>
      <trkpt lat="45.17276" lon="5.67533">
        <ele>415.79998779297</ele>
        <time>2019-10-09T12:45:37Z</time>
      </trkpt>
      <trkpt lat="45.1726" lon="5.67511">
        <ele>417.39999389648</ele>
        <time>2019-10-09T12:45:48Z</time>
      </trkpt>
      <trkpt lat="45.17236" lon="5.67464">
        <ele>420.60000610352</ele>
        <time>2019-10-09T12:46:08Z</time>
      </trkpt>
      <trkpt lat="45.17225" lon="5.67436">
        <ele>421.39999389648</ele>
        <time>2019-10-09T12:46:17Z</time>
      </trkpt>
      <trkpt lat="45.17204" lon="5.67394">
        <ele>422.20001220703</ele>
        <time>2019-10-09T12:46:32Z</time>
      </trkpt>
      <trkpt lat="45.17173" lon="5.6737">
        <ele>422.39999389648</ele>
        <time>2019-10-09T12:46:42Z</time>
      </trkpt>
      <trkpt lat="45.17109" lon="5.67328">
        <ele>423.39999389648</ele>
        <time>2019-10-09T12:47:02Z</time>
      </trkpt>
      <trkpt lat="45.17071" lon="5.67303">
        <ele>424.79998779297</ele>
        <time>2019-10-09T12:47:15Z</time>
      </trkpt>
      <trkpt lat="45.17016" lon="5.67266">
        <ele>427.39999389648</ele>
        <time>2019-10-09T12:47:38Z</time>
      </trkpt>
      <trkpt lat="45.16989" lon="5.67234">
        <ele>429.20001220703</ele>
        <time>2019-10-09T12:47:50Z</time>
      </trkpt>
      <trkpt lat="45.16967" lon="5.67199">
        <ele>431</ele>
        <time>2019-10-09T12:48:02Z</time>
      </trkpt>
      <trkpt lat="45.16948" lon="5.67176">
        <ele>433</ele>
        <time>2019-10-09T12:48:12Z</time>
      </trkpt>
      <trkpt lat="45.16919" lon="5.67152">
        <ele>435.20001220703</ele>
        <time>2019-10-09T12:48:27Z</time>
      </trkpt>
      <trkpt lat="45.16888" lon="5.67135">
        <ele>437</ele>
        <time>2019-10-09T12:48:41Z</time>
      </trkpt>
      <trkpt lat="45.16848" lon="5.67119">
        <ele>439.60000610352</ele>
        <time>2019-10-09T12:49:00Z</time>
      </trkpt>
      <trkpt lat="45.16834" lon="5.67114">
        <ele>440.60000610352</ele>
        <time>2019-10-09T12:49:08Z</time>
      </trkpt>
      <trkpt lat="45.16814" lon="5.67109">
        <ele>441.79998779297</ele>
        <time>2019-10-09T12:49:18Z</time>
      </trkpt>
      <trkpt lat="45.16784" lon="5.67109">
        <ele>444</ele>
        <time>2019-10-09T12:49:33Z</time>
      </trkpt>
      <trkpt lat="45.16769" lon="5.67109">
        <ele>444.79998779297</ele>
        <time>2019-10-09T12:49:41Z</time>
      </trkpt>
      <trkpt lat="45.16736" lon="5.67107">
        <ele>447.20001220703</ele>
        <time>2019-10-09T12:49:56Z</time>
      </trkpt>
      <trkpt lat="45.16719" lon="5.67103">
        <ele>448</ele>
        <time>2019-10-09T12:50:04Z</time>
      </trkpt>
      <trkpt lat="45.16693" lon="5.67084">
        <ele>450.39999389648</ele>
        <time>2019-10-09T12:50:19Z</time>
      </trkpt>
      <trkpt lat="45.16679" lon="5.67069">
        <ele>451.60000610352</ele>
        <time>2019-10-09T12:50:27Z</time>
      </trkpt>
      <trkpt lat="45.16643" lon="5.67062">
        <ele>454.20001220703</ele>
        <time>2019-10-09T12:50:48Z</time>
      </trkpt>
      <trkpt lat="45.16628" lon="5.67064">
        <ele>455.60000610352</ele>
        <time>2019-10-09T12:50:58Z</time>
      </trkpt>
      <trkpt lat="45.16612" lon="5.67069">
        <ele>456.79998779297</ele>
        <time>2019-10-09T12:51:07Z</time>
      </trkpt>
      <trkpt lat="45.16601" lon="5.67075">
        <ele>458.20001220703</ele>
        <time>2019-10-09T12:51:16Z</time>
      </trkpt>
      <trkpt lat="45.16586" lon="5.67093">
        <ele>459.79998779297</ele>
        <time>2019-10-09T12:51:28Z</time>
      </trkpt>
      <trkpt lat="45.16575" lon="5.67117">
        <ele>461.20001220703</ele>
        <time>2019-10-09T12:51:37Z</time>
      </trkpt>
      <trkpt lat="45.16559" lon="5.67147">
        <ele>462.60000610352</ele>
        <time>2019-10-09T12:51:47Z</time>
      </trkpt>
      <trkpt lat="45.16544" lon="5.67169">
        <ele>464.39999389648</ele>
        <time>2019-10-09T12:51:58Z</time>
      </trkpt>
      <trkpt lat="45.16535" lon="5.67179">
        <ele>465.39999389648</ele>
        <time>2019-10-09T12:52:05Z</time>
      </trkpt>
      <trkpt lat="45.16499" lon="5.67206">
        <ele>469.20001220703</ele>
        <time>2019-10-09T12:52:24Z</time>
      </trkpt>
      <trkpt lat="45.1648" lon="5.67212">
        <ele>470.20001220703</ele>
        <time>2019-10-09T12:52:33Z</time>
      </trkpt>
      <trkpt lat="45.16448" lon="5.67216">
        <ele>472.20001220703</ele>
        <time>2019-10-09T12:52:48Z</time>
      </trkpt>
      <trkpt lat="45.16435" lon="5.67216">
        <ele>473.20001220703</ele>
        <time>2019-10-09T12:52:54Z</time>
      </trkpt>
      <trkpt lat="45.1641" lon="5.6721">
        <ele>475.60000610352</ele>
        <time>2019-10-09T12:53:08Z</time>
      </trkpt>
      <trkpt lat="45.16386" lon="5.67183">
        <ele>478</ele>
        <time>2019-10-09T12:53:23Z</time>
      </trkpt>
      <trkpt lat="45.16405" lon="5.6716">
        <ele>480.60000610352</ele>
        <time>2019-10-09T12:53:36Z</time>
      </trkpt>
      <trkpt lat="45.16424" lon="5.67165">
        <ele>482.39999389648</ele>
        <time>2019-10-09T12:53:47Z</time>
      </trkpt>
      <trkpt lat="45.16444" lon="5.67167">
        <ele>484.60000610352</ele>
        <time>2019-10-09T12:53:58Z</time>
      </trkpt>
      <trkpt lat="45.16452" lon="5.67167">
        <ele>485</ele>
        <time>2019-10-09T12:56:27Z</time>
      </trkpt>
      <trkpt lat="45.16468" lon="5.67161">
        <ele>485</ele>
        <time>2019-10-09T12:56:35Z</time>
      </trkpt>
      <trkpt lat="45.16487" lon="5.67139">
        <ele>485.79998779297</ele>
        <time>2019-10-09T12:56:46Z</time>
      </trkpt>
      <trkpt lat="45.16494" lon="5.6711">
        <ele>486.79998779297</ele>
        <time>2019-10-09T12:56:56Z</time>
      </trkpt>
      <trkpt lat="45.16491" lon="5.67081">
        <ele>488</ele>
        <time>2019-10-09T12:57:06Z</time>
      </trkpt>
      <trkpt lat="45.16483" lon="5.67062">
        <ele>488.60000610352</ele>
        <time>2019-10-09T12:57:14Z</time>
      </trkpt>
      <trkpt lat="45.16463" lon="5.67041">
        <ele>490.39999389648</ele>
        <time>2019-10-09T12:57:27Z</time>
      </trkpt>
      <trkpt lat="45.16428" lon="5.67034">
        <ele>492.39999389648</ele>
        <time>2019-10-09T12:57:44Z</time>
      </trkpt>
      <trkpt lat="45.16401" lon="5.6703">
        <ele>494.39999389648</ele>
        <time>2019-10-09T12:57:59Z</time>
      </trkpt>
      <trkpt lat="45.16385" lon="5.6703">
        <ele>495.39999389648</ele>
        <time>2019-10-09T12:58:07Z</time>
      </trkpt>
      <trkpt lat="45.16357" lon="5.67033">
        <ele>497.79998779297</ele>
        <time>2019-10-09T12:58:22Z</time>
      </trkpt>
      <trkpt lat="45.16344" lon="5.67037">
        <ele>498.79998779297</ele>
        <time>2019-10-09T12:58:29Z</time>
      </trkpt>
      <trkpt lat="45.16305" lon="5.67049">
        <ele>501.39999389648</ele>
        <time>2019-10-09T12:58:47Z</time>
      </trkpt>
      <trkpt lat="45.16294" lon="5.67053">
        <ele>502.20001220703</ele>
        <time>2019-10-09T12:58:54Z</time>
      </trkpt>
      <trkpt lat="45.1627" lon="5.67051">
        <ele>504.39999389648</ele>
        <time>2019-10-09T12:59:06Z</time>
      </trkpt>
      <trkpt lat="45.16254" lon="5.6704">
        <ele>505.79998779297</ele>
        <time>2019-10-09T12:59:15Z</time>
      </trkpt>
      <trkpt lat="45.16243" lon="5.67021">
        <ele>507.20001220703</ele>
        <time>2019-10-09T12:59:24Z</time>
      </trkpt>
      <trkpt lat="45.16234" lon="5.66995">
        <ele>508.60000610352</ele>
        <time>2019-10-09T12:59:33Z</time>
      </trkpt>
      <trkpt lat="45.1623" lon="5.66981">
        <ele>509.79998779297</ele>
        <time>2019-10-09T12:59:40Z</time>
      </trkpt>
      <trkpt lat="45.16215" lon="5.66946">
        <ele>512.40002441406</ele>
        <time>2019-10-09T12:59:56Z</time>
      </trkpt>
      <trkpt lat="45.16201" lon="5.66934">
        <ele>513.79998779297</ele>
        <time>2019-10-09T13:00:05Z</time>
      </trkpt>
      <trkpt lat="45.16185" lon="5.66925">
        <ele>514.79998779297</ele>
        <time>2019-10-09T13:00:14Z</time>
      </trkpt>
      <trkpt lat="45.16167" lon="5.66915">
        <ele>516</ele>
        <time>2019-10-09T13:00:23Z</time>
      </trkpt>
      <trkpt lat="45.16152" lon="5.66903">
        <ele>517.59997558594</ele>
        <time>2019-10-09T13:00:33Z</time>
      </trkpt>
      <trkpt lat="45.16138" lon="5.66885">
        <ele>519</ele>
        <time>2019-10-09T13:00:43Z</time>
      </trkpt>
      <trkpt lat="45.16121" lon="5.6686">
        <ele>521.40002441406</ele>
        <time>2019-10-09T13:00:57Z</time>
      </trkpt>
      <trkpt lat="45.16113" lon="5.66848">
        <ele>522.40002441406</ele>
        <time>2019-10-09T13:01:04Z</time>
      </trkpt>
      <trkpt lat="45.16094" lon="5.66826">
        <ele>524.79998779297</ele>
        <time>2019-10-09T13:01:18Z</time>
      </trkpt>
      <trkpt lat="45.16079" lon="5.66814">
        <ele>525.79998779297</ele>
        <time>2019-10-09T13:01:27Z</time>
      </trkpt>
      <trkpt lat="45.1607" lon="5.66797">
        <ele>527</ele>
        <time>2019-10-09T13:01:34Z</time>
      </trkpt>
      <trkpt lat="45.16086" lon="5.66774">
        <ele>528.59997558594</ele>
        <time>2019-10-09T13:01:44Z</time>
      </trkpt>
      <trkpt lat="45.16098" lon="5.66779">
        <ele>529.79998779297</ele>
        <time>2019-10-09T13:01:53Z</time>
      </trkpt>
      <trkpt lat="45.16116" lon="5.66794">
        <ele>531</ele>
        <time>2019-10-09T13:02:06Z</time>
      </trkpt>
      <trkpt lat="45.16129" lon="5.66804">
        <ele>532</ele>
        <time>2019-10-09T13:02:15Z</time>
      </trkpt>
      <trkpt lat="45.16166" lon="5.66826">
        <ele>533.59997558594</ele>
        <time>2019-10-09T13:02:32Z</time>
      </trkpt>
      <trkpt lat="45.16182" lon="5.66834">
        <ele>534.59997558594</ele>
        <time>2019-10-09T13:02:39Z</time>
      </trkpt>
      <trkpt lat="45.16198" lon="5.66844">
        <ele>535.79998779297</ele>
        <time>2019-10-09T13:02:47Z</time>
      </trkpt>
      <trkpt lat="45.16225" lon="5.66858">
        <ele>537.59997558594</ele>
        <time>2019-10-09T13:02:59Z</time>
      </trkpt>
      <trkpt lat="45.16243" lon="5.66861">
        <ele>539</ele>
        <time>2019-10-09T13:03:08Z</time>
      </trkpt>
      <trkpt lat="45.16251" lon="5.66861">
        <ele>540</ele>
        <time>2019-10-09T13:03:12Z</time>
      </trkpt>
      <trkpt lat="45.16281" lon="5.66863">
        <ele>542.40002441406</ele>
        <time>2019-10-09T13:03:26Z</time>
      </trkpt>
      <trkpt lat="45.16304" lon="5.66865">
        <ele>544</ele>
        <time>2019-10-09T13:03:36Z</time>
      </trkpt>
      <trkpt lat="45.16328" lon="5.66867">
        <ele>545.40002441406</ele>
        <time>2019-10-09T13:03:46Z</time>
      </trkpt>
      <trkpt lat="45.16362" lon="5.66869">
        <ele>547.40002441406</ele>
        <time>2019-10-09T13:04:02Z</time>
      </trkpt>
      <trkpt lat="45.16382" lon="5.66871">
        <ele>548.20001220703</ele>
        <time>2019-10-09T13:04:11Z</time>
      </trkpt>
      <trkpt lat="45.16426" lon="5.66874">
        <ele>550.20001220703</ele>
        <time>2019-10-09T13:04:29Z</time>
      </trkpt>
      <trkpt lat="45.16451" lon="5.66876">
        <ele>551.59997558594</ele>
        <time>2019-10-09T13:04:41Z</time>
      </trkpt>
      <trkpt lat="45.16482" lon="5.66875">
        <ele>553.59997558594</ele>
        <time>2019-10-09T13:04:54Z</time>
      </trkpt>
      <trkpt lat="45.16503" lon="5.66867">
        <ele>555</ele>
        <time>2019-10-09T13:05:04Z</time>
      </trkpt>
      <trkpt lat="45.16549" lon="5.66847">
        <ele>558.20001220703</ele>
        <time>2019-10-09T13:05:26Z</time>
      </trkpt>
      <trkpt lat="45.16563" lon="5.66841">
        <ele>559.59997558594</ele>
        <time>2019-10-09T13:05:34Z</time>
      </trkpt>
      <trkpt lat="45.16594" lon="5.66826">
        <ele>561.79998779297</ele>
        <time>2019-10-09T13:05:48Z</time>
      </trkpt>
      <trkpt lat="45.16617" lon="5.66802">
        <ele>563.59997558594</ele>
        <time>2019-10-09T13:05:59Z</time>
      </trkpt>
      <trkpt lat="45.16635" lon="5.66775">
        <ele>565</ele>
        <time>2019-10-09T13:06:11Z</time>
      </trkpt>
      <trkpt lat="45.16646" lon="5.66765">
        <ele>566</ele>
        <time>2019-10-09T13:06:18Z</time>
      </trkpt>
      <trkpt lat="45.16652" lon="5.66762">
        <ele>566</ele>
        <time>2019-10-09T13:06:21Z</time>
      </trkpt>
      <trkpt lat="45.16676" lon="5.6676">
        <ele>568</ele>
        <time>2019-10-09T13:06:31Z</time>
      </trkpt>
      <trkpt lat="45.16694" lon="5.66761">
        <ele>569.59997558594</ele>
        <time>2019-10-09T13:06:41Z</time>
      </trkpt>
      <trkpt lat="45.16731" lon="5.66766">
        <ele>572.59997558594</ele>
        <time>2019-10-09T13:07:00Z</time>
      </trkpt>
      <trkpt lat="45.16756" lon="5.66765">
        <ele>573.59997558594</ele>
        <time>2019-10-09T13:07:08Z</time>
      </trkpt>
      <trkpt lat="45.16787" lon="5.66762">
        <ele>575.20001220703</ele>
        <time>2019-10-09T13:07:19Z</time>
      </trkpt>
      <trkpt lat="45.16817" lon="5.66761">
        <ele>576.20001220703</ele>
        <time>2019-10-09T13:07:30Z</time>
      </trkpt>
      <trkpt lat="45.16846" lon="5.6677">
        <ele>578</ele>
        <time>2019-10-09T13:07:41Z</time>
      </trkpt>
      <trkpt lat="45.16887" lon="5.66779">
        <ele>580</ele>
        <time>2019-10-09T13:07:57Z</time>
      </trkpt>
      <trkpt lat="45.16918" lon="5.66756">
        <ele>582</ele>
        <time>2019-10-09T13:08:10Z</time>
      </trkpt>
      <trkpt lat="45.16933" lon="5.66742">
        <ele>583.20001220703</ele>
        <time>2019-10-09T13:08:18Z</time>
      </trkpt>
      <trkpt lat="45.16949" lon="5.66725">
        <ele>585</ele>
        <time>2019-10-09T13:08:28Z</time>
      </trkpt>
      <trkpt lat="45.16966" lon="5.66708">
        <ele>587.20001220703</ele>
        <time>2019-10-09T13:08:38Z</time>
      </trkpt>
      <trkpt lat="45.16978" lon="5.66698">
        <ele>589.20001220703</ele>
        <time>2019-10-09T13:08:48Z</time>
      </trkpt>
      <trkpt lat="45.16998" lon="5.66691">
        <ele>592.40002441406</ele>
        <time>2019-10-09T13:09:02Z</time>
      </trkpt>
      <trkpt lat="45.17015" lon="5.66688">
        <ele>593.59997558594</ele>
        <time>2019-10-09T13:09:10Z</time>
      </trkpt>
      <trkpt lat="45.17041" lon="5.66682">
        <ele>595.59997558594</ele>
        <time>2019-10-09T13:09:23Z</time>
      </trkpt>
      <trkpt lat="45.17059" lon="5.66679">
        <ele>597.20001220703</ele>
        <time>2019-10-09T13:09:32Z</time>
      </trkpt>
      <trkpt lat="45.17083" lon="5.66686">
        <ele>599.20001220703</ele>
        <time>2019-10-09T13:09:42Z</time>
      </trkpt>
      <trkpt lat="45.17103" lon="5.66697">
        <ele>601.20001220703</ele>
        <time>2019-10-09T13:09:53Z</time>
      </trkpt>
      <trkpt lat="45.17115" lon="5.66704">
        <ele>602.59997558594</ele>
        <time>2019-10-09T13:10:02Z</time>
      </trkpt>
      <trkpt lat="45.17132" lon="5.66711">
        <ele>604.59997558594</ele>
        <time>2019-10-09T13:10:11Z</time>
      </trkpt>
      <trkpt lat="45.17159" lon="5.667">
        <ele>606.79998779297</ele>
        <time>2019-10-09T13:10:25Z</time>
      </trkpt>
      <trkpt lat="45.17162" lon="5.66679">
        <ele>608.20001220703</ele>
        <time>2019-10-09T13:10:34Z</time>
      </trkpt>
      <trkpt lat="45.17157" lon="5.66642">
        <ele>609.40002441406</ele>
        <time>2019-10-09T13:10:47Z</time>
      </trkpt>
      <trkpt lat="45.17155" lon="5.6662">
        <ele>610.20001220703</ele>
        <time>2019-10-09T13:10:55Z</time>
      </trkpt>
      <trkpt lat="45.17151" lon="5.66585">
        <ele>612.20001220703</ele>
        <time>2019-10-09T13:11:06Z</time>
      </trkpt>
      <trkpt lat="45.17154" lon="5.66568">
        <ele>613.20001220703</ele>
        <time>2019-10-09T13:11:12Z</time>
      </trkpt>
      <trkpt lat="45.17159" lon="5.66553">
        <ele>614</ele>
        <time>2019-10-09T13:11:18Z</time>
      </trkpt>
      <trkpt lat="45.17169" lon="5.6653">
        <ele>616.40002441406</ele>
        <time>2019-10-09T13:11:30Z</time>
      </trkpt>
      <trkpt lat="45.17176" lon="5.66516">
        <ele>617.40002441406</ele>
        <time>2019-10-09T13:11:36Z</time>
      </trkpt>
      <trkpt lat="45.17195" lon="5.66483">
        <ele>619.79998779297</ele>
        <time>2019-10-09T13:11:50Z</time>
      </trkpt>
      <trkpt lat="45.17204" lon="5.66471">
        <ele>620.59997558594</ele>
        <time>2019-10-09T13:11:55Z</time>
      </trkpt>
      <trkpt lat="45.17224" lon="5.66448">
        <ele>622.59997558594</ele>
        <time>2019-10-09T13:12:07Z</time>
      </trkpt>
      <trkpt lat="45.1724" lon="5.66436">
        <ele>623.59997558594</ele>
        <time>2019-10-09T13:12:15Z</time>
      </trkpt>
      <trkpt lat="45.17258" lon="5.66425">
        <ele>625.20001220703</ele>
        <time>2019-10-09T13:12:25Z</time>
      </trkpt>
      <trkpt lat="45.1728" lon="5.66407">
        <ele>627</ele>
        <time>2019-10-09T13:12:37Z</time>
      </trkpt>
      <trkpt lat="45.17296" lon="5.66386">
        <ele>628.79998779297</ele>
        <time>2019-10-09T13:12:47Z</time>
      </trkpt>
      <trkpt lat="45.17311" lon="5.66359">
        <ele>630.40002441406</ele>
        <time>2019-10-09T13:12:58Z</time>
      </trkpt>
      <trkpt lat="45.17321" lon="5.66332">
        <ele>632.40002441406</ele>
        <time>2019-10-09T13:13:09Z</time>
      </trkpt>
      <trkpt lat="45.17326" lon="5.6631">
        <ele>634</ele>
        <time>2019-10-09T13:13:18Z</time>
      </trkpt>
      <trkpt lat="45.17329" lon="5.66291">
        <ele>635</ele>
        <time>2019-10-09T13:13:26Z</time>
      </trkpt>
      <trkpt lat="45.17334" lon="5.66263">
        <ele>637</ele>
        <time>2019-10-09T13:13:38Z</time>
      </trkpt>
      <trkpt lat="45.17337" lon="5.66247">
        <ele>638</ele>
        <time>2019-10-09T13:13:45Z</time>
      </trkpt>
      <trkpt lat="45.17352" lon="5.66212">
        <ele>639.79998779297</ele>
        <time>2019-10-09T13:13:57Z</time>
      </trkpt>
      <trkpt lat="45.17367" lon="5.6619">
        <ele>641.59997558594</ele>
        <time>2019-10-09T13:14:07Z</time>
      </trkpt>
      <trkpt lat="45.17375" lon="5.66163">
        <ele>643.59997558594</ele>
        <time>2019-10-09T13:14:18Z</time>
      </trkpt>
      <trkpt lat="45.17375" lon="5.66132">
        <ele>645.20001220703</ele>
        <time>2019-10-09T13:14:29Z</time>
      </trkpt>
      <trkpt lat="45.17381" lon="5.6606">
        <ele>648.79998779297</ele>
        <time>2019-10-09T13:14:55Z</time>
      </trkpt>
      <trkpt lat="45.1739" lon="5.66029">
        <ele>650.59997558594</ele>
        <time>2019-10-09T13:15:07Z</time>
      </trkpt>
      <trkpt lat="45.17403" lon="5.66001">
        <ele>653</ele>
        <time>2019-10-09T13:15:19Z</time>
      </trkpt>
      <trkpt lat="45.17409" lon="5.65989">
        <ele>653.79998779297</ele>
        <time>2019-10-09T13:15:24Z</time>
      </trkpt>
      <trkpt lat="45.17424" lon="5.65961">
        <ele>657.20001220703</ele>
        <time>2019-10-09T13:21:37Z</time>
      </trkpt>
      <trkpt lat="45.17427" lon="5.65958">
        <ele>657.20001220703</ele>
        <time>2019-10-09T13:21:40Z</time>
      </trkpt>
      <trkpt lat="45.17434" lon="5.65944">
        <ele>657.79998779297</ele>
        <time>2019-10-09T13:21:48Z</time>
      </trkpt>
      <trkpt lat="45.17439" lon="5.65937">
        <ele>658.20001220703</ele>
        <time>2019-10-09T13:21:52Z</time>
      </trkpt>
      <trkpt lat="45.17453" lon="5.65912">
        <ele>660.20001220703</ele>
        <time>2019-10-09T13:22:05Z</time>
      </trkpt>
      <trkpt lat="45.17467" lon="5.65888">
        <ele>662.20001220703</ele>
        <time>2019-10-09T13:22:19Z</time>
      </trkpt>
      <trkpt lat="45.17478" lon="5.6587">
        <ele>663.59997558594</ele>
        <time>2019-10-09T13:22:29Z</time>
      </trkpt>
      <trkpt lat="45.17491" lon="5.65844">
        <ele>665.79998779297</ele>
        <time>2019-10-09T13:22:43Z</time>
      </trkpt>
      <trkpt lat="45.17499" lon="5.65829">
        <ele>667</ele>
        <time>2019-10-09T13:22:51Z</time>
      </trkpt>
      <trkpt lat="45.17516" lon="5.65793">
        <ele>669.59997558594</ele>
        <time>2019-10-09T13:23:08Z</time>
      </trkpt>
      <trkpt lat="45.17523" lon="5.65777">
        <ele>670</ele>
        <time>2019-10-09T13:23:14Z</time>
      </trkpt>
      <trkpt lat="45.17541" lon="5.65726">
        <ele>671.40002441406</ele>
        <time>2019-10-09T13:23:31Z</time>
      </trkpt>
      <trkpt lat="45.17548" lon="5.65707">
        <ele>672.59997558594</ele>
        <time>2019-10-09T13:23:39Z</time>
      </trkpt>
      <trkpt lat="45.17557" lon="5.65681">
        <ele>674.59997558594</ele>
        <time>2019-10-09T13:23:51Z</time>
      </trkpt>
      <trkpt lat="45.17564" lon="5.65664">
        <ele>676</ele>
        <time>2019-10-09T13:23:59Z</time>
      </trkpt>
      <trkpt lat="45.17576" lon="5.65632">
        <ele>678</ele>
        <time>2019-10-09T13:24:12Z</time>
      </trkpt>
      <trkpt lat="45.17585" lon="5.65607">
        <ele>680.40002441406</ele>
        <time>2019-10-09T13:24:23Z</time>
      </trkpt>
      <trkpt lat="45.17592" lon="5.6559">
        <ele>681.79998779297</ele>
        <time>2019-10-09T13:24:32Z</time>
      </trkpt>
      <trkpt lat="45.17601" lon="5.65567">
        <ele>684.40002441406</ele>
        <time>2019-10-09T13:24:44Z</time>
      </trkpt>
      <trkpt lat="45.1761" lon="5.65538">
        <ele>686.20001220703</ele>
        <time>2019-10-09T13:24:57Z</time>
      </trkpt>
      <trkpt lat="45.1761" lon="5.65509">
        <ele>688.40002441406</ele>
        <time>2019-10-09T13:25:10Z</time>
      </trkpt>
      <trkpt lat="45.17609" lon="5.6549">
        <ele>690</ele>
        <time>2019-10-09T13:25:18Z</time>
      </trkpt>
      <trkpt lat="45.17606" lon="5.6548">
        <ele>692.59997558594</ele>
        <time>2019-10-09T13:26:20Z</time>
      </trkpt>
      <trkpt lat="45.176" lon="5.65465">
        <ele>692.59997558594</ele>
        <time>2019-10-09T13:26:24Z</time>
      </trkpt>
      <trkpt lat="45.1759" lon="5.6545">
        <ele>693.40002441406</ele>
        <time>2019-10-09T13:26:33Z</time>
      </trkpt>
      <trkpt lat="45.17586" lon="5.65444">
        <ele>693.79998779297</ele>
        <time>2019-10-09T13:26:36Z</time>
      </trkpt>
      <trkpt lat="45.17578" lon="5.65427">
        <ele>695.20001220703</ele>
        <time>2019-10-09T13:26:44Z</time>
      </trkpt>
      <trkpt lat="45.17576" lon="5.65413">
        <ele>696.40002441406</ele>
        <time>2019-10-09T13:26:50Z</time>
      </trkpt>
      <trkpt lat="45.17582" lon="5.65392">
        <ele>698</ele>
        <time>2019-10-09T13:26:58Z</time>
      </trkpt>
      <trkpt lat="45.17591" lon="5.65383">
        <ele>699.40002441406</ele>
        <time>2019-10-09T13:27:05Z</time>
      </trkpt>
      <trkpt lat="45.17603" lon="5.6538">
        <ele>700.79998779297</ele>
        <time>2019-10-09T13:27:12Z</time>
      </trkpt>
      <trkpt lat="45.17627" lon="5.65384">
        <ele>703</ele>
        <time>2019-10-09T13:27:25Z</time>
      </trkpt>
      <trkpt lat="45.17647" lon="5.65388">
        <ele>705.20001220703</ele>
        <time>2019-10-09T13:27:39Z</time>
      </trkpt>
      <trkpt lat="45.17665" lon="5.65388">
        <ele>706.79998779297</ele>
        <time>2019-10-09T13:27:51Z</time>
      </trkpt>
      <trkpt lat="45.17684" lon="5.65387">
        <ele>708.79998779297</ele>
        <time>2019-10-09T13:28:02Z</time>
      </trkpt>
      <trkpt lat="45.17693" lon="5.65387">
        <ele>709.79998779297</ele>
        <time>2019-10-09T13:28:08Z</time>
      </trkpt>
      <trkpt lat="45.17705" lon="5.65386">
        <ele>710.79998779297</ele>
        <time>2019-10-09T13:28:16Z</time>
      </trkpt>
      <trkpt lat="45.17712" lon="5.65384">
        <ele>711.59997558594</ele>
        <time>2019-10-09T13:28:21Z</time>
      </trkpt>
      <trkpt lat="45.1772" lon="5.65382">
        <ele>712.40002441406</ele>
        <time>2019-10-09T13:28:26Z</time>
      </trkpt>
      <trkpt lat="45.17732" lon="5.65379">
        <ele>713.59997558594</ele>
        <time>2019-10-09T13:28:34Z</time>
      </trkpt>
      <trkpt lat="45.17753" lon="5.65373">
        <ele>715</ele>
        <time>2019-10-09T13:28:45Z</time>
      </trkpt>
      <trkpt lat="45.17777" lon="5.65367">
        <ele>717.59997558594</ele>
        <time>2019-10-09T13:28:59Z</time>
      </trkpt>
      <trkpt lat="45.17788" lon="5.65364">
        <ele>718.79998779297</ele>
        <time>2019-10-09T13:29:07Z</time>
      </trkpt>
      <trkpt lat="45.17801" lon="5.6536">
        <ele>719.79998779297</ele>
        <time>2019-10-09T13:29:15Z</time>
      </trkpt>
      <trkpt lat="45.17828" lon="5.65353">
        <ele>722</ele>
        <time>2019-10-09T13:29:30Z</time>
      </trkpt>
      <trkpt lat="45.17844" lon="5.65349">
        <ele>723.40002441406</ele>
        <time>2019-10-09T13:29:38Z</time>
      </trkpt>
      <trkpt lat="45.17881" lon="5.65341">
        <ele>726.40002441406</ele>
        <time>2019-10-09T13:29:59Z</time>
      </trkpt>
      <trkpt lat="45.17884" lon="5.6534">
        <ele>726.59997558594</ele>
        <time>2019-10-09T13:30:01Z</time>
      </trkpt>
      <trkpt lat="45.17907" lon="5.65338">
        <ele>728.40002441406</ele>
        <time>2019-10-09T13:30:13Z</time>
      </trkpt>
      <trkpt lat="45.1792" lon="5.65337">
        <ele>729.20001220703</ele>
        <time>2019-10-09T13:30:20Z</time>
      </trkpt>
      <trkpt lat="45.17943" lon="5.65333">
        <ele>731.40002441406</ele>
        <time>2019-10-09T13:30:31Z</time>
      </trkpt>
      <trkpt lat="45.17956" lon="5.65312">
        <ele>733.20001220703</ele>
        <time>2019-10-09T13:30:40Z</time>
      </trkpt>
      <trkpt lat="45.17948" lon="5.65282">
        <ele>735</ele>
        <time>2019-10-09T13:30:53Z</time>
      </trkpt>
      <trkpt lat="45.17939" lon="5.65275">
        <ele>736</ele>
        <time>2019-10-09T13:31:00Z</time>
      </trkpt>
      <trkpt lat="45.17914" lon="5.65278">
        <ele>738</ele>
        <time>2019-10-09T13:31:13Z</time>
      </trkpt>
      <trkpt lat="45.17893" lon="5.6528">
        <ele>739.40002441406</ele>
        <time>2019-10-09T13:31:22Z</time>
      </trkpt>
      <trkpt lat="45.17873" lon="5.65276">
        <ele>740.79998779297</ele>
        <time>2019-10-09T13:31:32Z</time>
      </trkpt>
      <trkpt lat="45.17856" lon="5.65268">
        <ele>742.20001220703</ele>
        <time>2019-10-09T13:31:42Z</time>
      </trkpt>
      <trkpt lat="45.17838" lon="5.65259">
        <ele>744</ele>
        <time>2019-10-09T13:31:52Z</time>
      </trkpt>
      <trkpt lat="45.17819" lon="5.6525">
        <ele>745.79998779297</ele>
        <time>2019-10-09T13:32:02Z</time>
      </trkpt>
      <trkpt lat="45.178" lon="5.65237">
        <ele>748</ele>
        <time>2019-10-09T13:32:15Z</time>
      </trkpt>
      <trkpt lat="45.17779" lon="5.65219">
        <ele>750.59997558594</ele>
        <time>2019-10-09T13:32:28Z</time>
      </trkpt>
      <trkpt lat="45.17769" lon="5.65201">
        <ele>751.59997558594</ele>
        <time>2019-10-09T13:32:36Z</time>
      </trkpt>
      <trkpt lat="45.17756" lon="5.65183">
        <ele>753.59997558594</ele>
        <time>2019-10-09T13:32:46Z</time>
      </trkpt>
      <trkpt lat="45.17735" lon="5.6516">
        <ele>755.79998779297</ele>
        <time>2019-10-09T13:32:59Z</time>
      </trkpt>
      <trkpt lat="45.17714" lon="5.65142">
        <ele>758.20001220703</ele>
        <time>2019-10-09T13:33:11Z</time>
      </trkpt>
      <trkpt lat="45.17704" lon="5.65135">
        <ele>759.20001220703</ele>
        <time>2019-10-09T13:33:17Z</time>
      </trkpt>
      <trkpt lat="45.17672" lon="5.65118">
        <ele>762.59997558594</ele>
        <time>2019-10-09T13:33:36Z</time>
      </trkpt>
      <trkpt lat="45.17659" lon="5.6511">
        <ele>763.79998779297</ele>
        <time>2019-10-09T13:33:42Z</time>
      </trkpt>
      <trkpt lat="45.17638" lon="5.65098">
        <ele>765.40002441406</ele>
        <time>2019-10-09T13:33:53Z</time>
      </trkpt>
      <trkpt lat="45.17624" lon="5.65091">
        <ele>766.79998779297</ele>
        <time>2019-10-09T13:34:01Z</time>
      </trkpt>
      <trkpt lat="45.17612" lon="5.65084">
        <ele>768</ele>
        <time>2019-10-09T13:34:08Z</time>
      </trkpt>
      <trkpt lat="45.1759" lon="5.65071">
        <ele>769.59997558594</ele>
        <time>2019-10-09T13:34:19Z</time>
      </trkpt>
      <trkpt lat="45.17578" lon="5.65064">
        <ele>771</ele>
        <time>2019-10-09T13:34:27Z</time>
      </trkpt>
      <trkpt lat="45.17559" lon="5.65057">
        <ele>772.59997558594</ele>
        <time>2019-10-09T13:34:36Z</time>
      </trkpt>
      <trkpt lat="45.17545" lon="5.65052">
        <ele>774</ele>
        <time>2019-10-09T13:34:45Z</time>
      </trkpt>
      <trkpt lat="45.17529" lon="5.65047">
        <ele>776.20001220703</ele>
        <time>2019-10-09T13:34:57Z</time>
      </trkpt>
      <trkpt lat="45.17513" lon="5.65048">
        <ele>777.59997558594</ele>
        <time>2019-10-09T13:35:05Z</time>
      </trkpt>
      <trkpt lat="45.17493" lon="5.65047">
        <ele>779.59997558594</ele>
        <time>2019-10-09T13:35:17Z</time>
      </trkpt>
      <trkpt lat="45.1748" lon="5.65043">
        <ele>781.20001220703</ele>
        <time>2019-10-09T13:35:24Z</time>
      </trkpt>
      <trkpt lat="45.1745" lon="5.65023">
        <ele>784</ele>
        <time>2019-10-09T13:35:41Z</time>
      </trkpt>
      <trkpt lat="45.17439" lon="5.65012">
        <ele>785.40002441406</ele>
        <time>2019-10-09T13:35:48Z</time>
      </trkpt>
      <trkpt lat="45.17432" lon="5.65005">
        <ele>788</ele>
        <time>2019-10-09T13:36:34Z</time>
      </trkpt>
      <trkpt lat="45.1743" lon="5.65002">
        <ele>788</ele>
        <time>2019-10-09T13:36:38Z</time>
      </trkpt>
      <trkpt lat="45.17424" lon="5.64996">
        <ele>788.20001220703</ele>
        <time>2019-10-09T13:36:41Z</time>
      </trkpt>
      <trkpt lat="45.17408" lon="5.64982">
        <ele>788.79998779297</ele>
        <time>2019-10-09T13:36:48Z</time>
      </trkpt>
      <trkpt lat="45.17392" lon="5.64975">
        <ele>789.59997558594</ele>
        <time>2019-10-09T13:36:53Z</time>
      </trkpt>
      <trkpt lat="45.17382" lon="5.64974">
        <ele>790.79998779297</ele>
        <time>2019-10-09T13:37:00Z</time>
      </trkpt>
      <trkpt lat="45.17372" lon="5.64975">
        <ele>791.59997558594</ele>
        <time>2019-10-09T13:37:05Z</time>
      </trkpt>
      <trkpt lat="45.17359" lon="5.64975">
        <ele>792.79998779297</ele>
        <time>2019-10-09T13:37:13Z</time>
      </trkpt>
      <trkpt lat="45.1735" lon="5.64975">
        <ele>794</ele>
        <time>2019-10-09T13:37:19Z</time>
      </trkpt>
      <trkpt lat="45.1734" lon="5.64975">
        <ele>795</ele>
        <time>2019-10-09T13:37:26Z</time>
      </trkpt>
      <trkpt lat="45.17315" lon="5.64976">
        <ele>797.40002441406</ele>
        <time>2019-10-09T13:37:40Z</time>
      </trkpt>
      <trkpt lat="45.17302" lon="5.64977">
        <ele>799.20001220703</ele>
        <time>2019-10-09T13:37:52Z</time>
      </trkpt>
      <trkpt lat="45.17289" lon="5.64977">
        <ele>800.59997558594</ele>
        <time>2019-10-09T13:38:00Z</time>
      </trkpt>
      <trkpt lat="45.17289" lon="5.6496">
        <ele>801.79998779297</ele>
        <time>2019-10-09T13:38:10Z</time>
      </trkpt>
      <trkpt lat="45.1729" lon="5.64963">
        <ele>802.79998779297</ele>
        <time>2019-10-09T13:38:15Z</time>
      </trkpt>
      <trkpt lat="45.17282" lon="5.64978">
        <ele>803.79998779297</ele>
        <time>2019-10-09T13:38:21Z</time>
      </trkpt>
      <trkpt lat="45.17264" lon="5.64984">
        <ele>804.79998779297</ele>
        <time>2019-10-09T13:38:27Z</time>
      </trkpt>
      <trkpt lat="45.17248" lon="5.65001">
        <ele>806.79998779297</ele>
        <time>2019-10-09T13:38:35Z</time>
      </trkpt>
      <trkpt lat="45.17233" lon="5.65029">
        <ele>808.20001220703</ele>
        <time>2019-10-09T13:38:45Z</time>
      </trkpt>
      <trkpt lat="45.17229" lon="5.65036">
        <ele>809</ele>
        <time>2019-10-09T13:38:49Z</time>
      </trkpt>
      <trkpt lat="45.17219" lon="5.6505">
        <ele>810.40002441406</ele>
        <time>2019-10-09T13:38:58Z</time>
      </trkpt>
      <trkpt lat="45.17217" lon="5.65052">
        <ele>810.79998779297</ele>
        <time>2019-10-09T13:39:00Z</time>
      </trkpt>
      <trkpt lat="45.17179" lon="5.65065">
        <ele>812.40002441406</ele>
        <time>2019-10-09T13:39:10Z</time>
      </trkpt>
      <trkpt lat="45.1716" lon="5.65052">
        <ele>813.79998779297</ele>
        <time>2019-10-09T13:39:17Z</time>
      </trkpt>
      <trkpt lat="45.17144" lon="5.65037">
        <ele>815.40002441406</ele>
        <time>2019-10-09T13:39:26Z</time>
      </trkpt>
      <trkpt lat="45.17135" lon="5.65028">
        <ele>816</ele>
        <time>2019-10-09T13:39:30Z</time>
      </trkpt>
      <trkpt lat="45.1711" lon="5.65009">
        <ele>818.40002441406</ele>
        <time>2019-10-09T13:39:43Z</time>
      </trkpt>
      <trkpt lat="45.17097" lon="5.65001">
        <ele>819.40002441406</ele>
        <time>2019-10-09T13:39:50Z</time>
      </trkpt>
      <trkpt lat="45.17079" lon="5.64995">
        <ele>821.79998779297</ele>
        <time>2019-10-09T13:40:03Z</time>
      </trkpt>
      <trkpt lat="45.17079" lon="5.64995">
        <ele>822.20001220703</ele>
        <time>2019-10-09T13:40:06Z</time>
      </trkpt>
      <trkpt lat="45.17062" lon="5.64994">
        <ele>823.20001220703</ele>
        <time>2019-10-09T13:40:15Z</time>
      </trkpt>
      <trkpt lat="45.1704" lon="5.65013">
        <ele>824</ele>
        <time>2019-10-09T13:40:22Z</time>
      </trkpt>
      <trkpt lat="45.17035" lon="5.65033">
        <ele>824.40002441406</ele>
        <time>2019-10-09T13:40:28Z</time>
      </trkpt>
      <trkpt lat="45.17032" lon="5.65046">
        <ele>824.59997558594</ele>
        <time>2019-10-09T13:40:33Z</time>
      </trkpt>
      <trkpt lat="45.1703" lon="5.6506">
        <ele>825</ele>
        <time>2019-10-09T13:40:39Z</time>
      </trkpt>
      <trkpt lat="45.17001" lon="5.65096">
        <ele>825.59997558594</ele>
        <time>2019-10-09T13:40:45Z</time>
      </trkpt>
      <trkpt lat="45.16995" lon="5.65087">
        <ele>826.79998779297</ele>
        <time>2019-10-09T13:40:51Z</time>
      </trkpt>
      <trkpt lat="45.16993" lon="5.65057">
        <ele>828.59997558594</ele>
        <time>2019-10-09T13:41:02Z</time>
      </trkpt>
      <trkpt lat="45.16991" lon="5.65038">
        <ele>830.20001220703</ele>
        <time>2019-10-09T13:41:10Z</time>
      </trkpt>
      <trkpt lat="45.17008" lon="5.65004">
        <ele>831.59997558594</ele>
        <time>2019-10-09T13:41:23Z</time>
      </trkpt>
      <trkpt lat="45.17019" lon="5.64986">
        <ele>832.40002441406</ele>
        <time>2019-10-09T13:41:30Z</time>
      </trkpt>
      <trkpt lat="45.17044" lon="5.64963">
        <ele>834.79998779297</ele>
        <time>2019-10-09T13:41:44Z</time>
      </trkpt>
      <trkpt lat="45.17059" lon="5.64956">
        <ele>835.59997558594</ele>
        <time>2019-10-09T13:41:52Z</time>
      </trkpt>
      <trkpt lat="45.17071" lon="5.64951">
        <ele>836.79998779297</ele>
        <time>2019-10-09T13:42:00Z</time>
      </trkpt>
      <trkpt lat="45.17082" lon="5.64948">
        <ele>838.20001220703</ele>
        <time>2019-10-09T13:42:08Z</time>
      </trkpt>
      <trkpt lat="45.17109" lon="5.64951">
        <ele>840</ele>
        <time>2019-10-09T13:42:21Z</time>
      </trkpt>
      <trkpt lat="45.17133" lon="5.64945">
        <ele>841.79998779297</ele>
        <time>2019-10-09T13:42:32Z</time>
      </trkpt>
      <trkpt lat="45.17139" lon="5.64923">
        <ele>842.59997558594</ele>
        <time>2019-10-09T13:42:37Z</time>
      </trkpt>
      <trkpt lat="45.17142" lon="5.64889">
        <ele>844.40002441406</ele>
        <time>2019-10-09T13:42:50Z</time>
      </trkpt>
      <trkpt lat="45.17144" lon="5.64877">
        <ele>845.40002441406</ele>
        <time>2019-10-09T13:42:56Z</time>
      </trkpt>
      <trkpt lat="45.1716" lon="5.64856">
        <ele>847</ele>
        <time>2019-10-09T13:43:07Z</time>
      </trkpt>
      <trkpt lat="45.17168" lon="5.64853">
        <ele>847.79998779297</ele>
        <time>2019-10-09T13:43:13Z</time>
      </trkpt>
      <trkpt lat="45.17185" lon="5.64852">
        <ele>849.40002441406</ele>
        <time>2019-10-09T13:43:23Z</time>
      </trkpt>
      <trkpt lat="45.17193" lon="5.64853">
        <ele>850</ele>
        <time>2019-10-09T13:43:28Z</time>
      </trkpt>
      <trkpt lat="45.17209" lon="5.64856">
        <ele>851.20001220703</ele>
        <time>2019-10-09T13:43:36Z</time>
      </trkpt>
      <trkpt lat="45.17224" lon="5.64858">
        <ele>852</ele>
        <time>2019-10-09T13:43:42Z</time>
      </trkpt>
      <trkpt lat="45.17263" lon="5.64852">
        <ele>854.40002441406</ele>
        <time>2019-10-09T13:43:56Z</time>
      </trkpt>
      <trkpt lat="45.1727" lon="5.6485">
        <ele>855.40002441406</ele>
        <time>2019-10-09T13:44:04Z</time>
      </trkpt>
      <trkpt lat="45.17272" lon="5.6485">
        <ele>857</ele>
        <time>2019-10-09T13:49:45Z</time>
      </trkpt>
      <trkpt lat="45.17293" lon="5.64845">
        <ele>857</ele>
        <time>2019-10-09T13:49:51Z</time>
      </trkpt>
      <trkpt lat="45.17302" lon="5.64842">
        <ele>857.40002441406</ele>
        <time>2019-10-09T13:49:57Z</time>
      </trkpt>
      <trkpt lat="45.17318" lon="5.64839">
        <ele>858.40002441406</ele>
        <time>2019-10-09T13:50:06Z</time>
      </trkpt>
      <trkpt lat="45.17325" lon="5.64837">
        <ele>859.40002441406</ele>
        <time>2019-10-09T13:50:11Z</time>
      </trkpt>
      <trkpt lat="45.17348" lon="5.64831">
        <ele>861.20001220703</ele>
        <time>2019-10-09T13:50:23Z</time>
      </trkpt>
      <trkpt lat="45.17365" lon="5.64828">
        <ele>862.20001220703</ele>
        <time>2019-10-09T13:50:31Z</time>
      </trkpt>
      <trkpt lat="45.17393" lon="5.64823">
        <ele>864.20001220703</ele>
        <time>2019-10-09T13:50:44Z</time>
      </trkpt>
      <trkpt lat="45.17406" lon="5.6482">
        <ele>865.40002441406</ele>
        <time>2019-10-09T13:50:51Z</time>
      </trkpt>
      <trkpt lat="45.17431" lon="5.64816">
        <ele>867.40002441406</ele>
        <time>2019-10-09T13:51:04Z</time>
      </trkpt>
      <trkpt lat="45.17449" lon="5.64812">
        <ele>868.59997558594</ele>
        <time>2019-10-09T13:51:12Z</time>
      </trkpt>
      <trkpt lat="45.17488" lon="5.64796">
        <ele>870.59997558594</ele>
        <time>2019-10-09T13:51:28Z</time>
      </trkpt>
      <trkpt lat="45.17497" lon="5.64793">
        <ele>871.40002441406</ele>
        <time>2019-10-09T13:51:34Z</time>
      </trkpt>
      <trkpt lat="45.17505" lon="5.64789">
        <ele>872.40002441406</ele>
        <time>2019-10-09T13:51:40Z</time>
      </trkpt>
      <trkpt lat="45.17542" lon="5.64783">
        <ele>874.59997558594</ele>
        <time>2019-10-09T13:51:54Z</time>
      </trkpt>
      <trkpt lat="45.17553" lon="5.64785">
        <ele>875.40002441406</ele>
        <time>2019-10-09T13:51:59Z</time>
      </trkpt>
      <trkpt lat="45.17582" lon="5.64796">
        <ele>878</ele>
        <time>2019-10-09T13:52:14Z</time>
      </trkpt>
      <trkpt lat="45.17596" lon="5.64804">
        <ele>879.20001220703</ele>
        <time>2019-10-09T13:52:21Z</time>
      </trkpt>
      <trkpt lat="45.17623" lon="5.64813">
        <ele>881.40002441406</ele>
        <time>2019-10-09T13:52:35Z</time>
      </trkpt>
      <trkpt lat="45.17645" lon="5.64815">
        <ele>882.40002441406</ele>
        <time>2019-10-09T13:52:44Z</time>
      </trkpt>
      <trkpt lat="45.17668" lon="5.64814">
        <ele>884</ele>
        <time>2019-10-09T13:52:55Z</time>
      </trkpt>
      <trkpt lat="45.17679" lon="5.64814">
        <ele>884.79998779297</ele>
        <time>2019-10-09T13:53:01Z</time>
      </trkpt>
      <trkpt lat="45.17699" lon="5.64814">
        <ele>886.20001220703</ele>
        <time>2019-10-09T13:53:11Z</time>
      </trkpt>
      <trkpt lat="45.17722" lon="5.64813">
        <ele>887.59997558594</ele>
        <time>2019-10-09T13:53:20Z</time>
      </trkpt>
      <trkpt lat="45.17741" lon="5.64813">
        <ele>888.79998779297</ele>
        <time>2019-10-09T13:53:30Z</time>
      </trkpt>
      <trkpt lat="45.17754" lon="5.64812">
        <ele>890</ele>
        <time>2019-10-09T13:53:38Z</time>
      </trkpt>
      <trkpt lat="45.17766" lon="5.64812">
        <ele>891.59997558594</ele>
        <time>2019-10-09T13:53:48Z</time>
      </trkpt>
      <trkpt lat="45.17796" lon="5.64811">
        <ele>894.20001220703</ele>
        <time>2019-10-09T13:54:03Z</time>
      </trkpt>
      <trkpt lat="45.17815" lon="5.64811">
        <ele>895.59997558594</ele>
        <time>2019-10-09T13:54:11Z</time>
      </trkpt>
      <trkpt lat="45.17852" lon="5.6481">
        <ele>897.79998779297</ele>
        <time>2019-10-09T13:54:28Z</time>
      </trkpt>
      <trkpt lat="45.17876" lon="5.6481">
        <ele>899.59997558594</ele>
        <time>2019-10-09T13:54:38Z</time>
      </trkpt>
      <trkpt lat="45.179" lon="5.64809">
        <ele>901.40002441406</ele>
        <time>2019-10-09T13:54:49Z</time>
      </trkpt>
      <trkpt lat="45.17925" lon="5.64807">
        <ele>903</ele>
        <time>2019-10-09T13:55:00Z</time>
      </trkpt>
      <trkpt lat="45.17957" lon="5.64804">
        <ele>905.59997558594</ele>
        <time>2019-10-09T13:55:16Z</time>
      </trkpt>
      <trkpt lat="45.17974" lon="5.64802">
        <ele>907</ele>
        <time>2019-10-09T13:55:24Z</time>
      </trkpt>
      <trkpt lat="45.18007" lon="5.64806">
        <ele>909.59997558594</ele>
        <time>2019-10-09T13:55:41Z</time>
      </trkpt>
      <trkpt lat="45.18025" lon="5.6481">
        <ele>911</ele>
        <time>2019-10-09T13:55:49Z</time>
      </trkpt>
      <trkpt lat="45.18053" lon="5.64815">
        <ele>913.79998779297</ele>
        <time>2019-10-09T13:56:03Z</time>
      </trkpt>
      <trkpt lat="45.18067" lon="5.64817">
        <ele>915</ele>
        <time>2019-10-09T13:56:11Z</time>
      </trkpt>
      <trkpt lat="45.18082" lon="5.64819">
        <ele>916.40002441406</ele>
        <time>2019-10-09T13:56:20Z</time>
      </trkpt>
      <trkpt lat="45.18102" lon="5.64823">
        <ele>918</ele>
        <time>2019-10-09T13:56:31Z</time>
      </trkpt>
      <trkpt lat="45.18123" lon="5.64826">
        <ele>920.20001220703</ele>
        <time>2019-10-09T13:56:42Z</time>
      </trkpt>
      <trkpt lat="45.18143" lon="5.64826">
        <ele>922</ele>
        <time>2019-10-09T13:56:53Z</time>
      </trkpt>
      <trkpt lat="45.18165" lon="5.64826">
        <ele>923.59997558594</ele>
        <time>2019-10-09T13:57:04Z</time>
      </trkpt>
      <trkpt lat="45.18198" lon="5.64823">
        <ele>926.20001220703</ele>
        <time>2019-10-09T13:57:21Z</time>
      </trkpt>
      <trkpt lat="45.1821" lon="5.64822">
        <ele>927</ele>
        <time>2019-10-09T13:57:26Z</time>
      </trkpt>
      <trkpt lat="45.18232" lon="5.64821">
        <ele>928.79998779297</ele>
        <time>2019-10-09T13:57:38Z</time>
      </trkpt>
      <trkpt lat="45.18245" lon="5.64821">
        <ele>930.40002441406</ele>
        <time>2019-10-09T13:57:47Z</time>
      </trkpt>
      <trkpt lat="45.18274" lon="5.64821">
        <ele>932.59997558594</ele>
        <time>2019-10-09T13:58:01Z</time>
      </trkpt>
      <trkpt lat="45.1829" lon="5.64824">
        <ele>933.40002441406</ele>
        <time>2019-10-09T13:58:08Z</time>
      </trkpt>
      <trkpt lat="45.18312" lon="5.64806">
        <ele>936</ele>
        <time>2019-10-09T13:58:23Z</time>
      </trkpt>
      <trkpt lat="45.18298" lon="5.64794">
        <ele>936.40002441406</ele>
        <time>2019-10-09T13:58:30Z</time>
      </trkpt>
      <trkpt lat="45.18284" lon="5.64796">
        <ele>936.79998779297</ele>
        <time>2019-10-09T13:58:37Z</time>
      </trkpt>
      <trkpt lat="45.18272" lon="5.64796">
        <ele>937.59997558594</ele>
        <time>2019-10-09T13:58:47Z</time>
      </trkpt>
      <trkpt lat="45.18254" lon="5.64794">
        <ele>939</ele>
        <time>2019-10-09T13:58:54Z</time>
      </trkpt>
      <trkpt lat="45.18222" lon="5.64789">
        <ele>941</ele>
        <time>2019-10-09T13:59:07Z</time>
      </trkpt>
      <trkpt lat="45.18211" lon="5.64785">
        <ele>942.59997558594</ele>
        <time>2019-10-09T13:59:16Z</time>
      </trkpt>
      <trkpt lat="45.18207" lon="5.64724">
        <ele>945.20001220703</ele>
        <time>2019-10-09T13:59:32Z</time>
      </trkpt>
      <trkpt lat="45.18201" lon="5.64714">
        <ele>946.59997558594</ele>
        <time>2019-10-09T13:59:38Z</time>
      </trkpt>
      <trkpt lat="45.1816" lon="5.6472">
        <ele>948.59997558594</ele>
        <time>2019-10-09T13:59:51Z</time>
      </trkpt>
      <trkpt lat="45.18148" lon="5.64711">
        <ele>949.79998779297</ele>
        <time>2019-10-09T13:59:58Z</time>
      </trkpt>
      <trkpt lat="45.18104" lon="5.64726">
        <ele>951.40002441406</ele>
        <time>2019-10-09T14:00:09Z</time>
      </trkpt>
      <trkpt lat="45.18086" lon="5.64731">
        <ele>952.20001220703</ele>
        <time>2019-10-09T14:00:16Z</time>
      </trkpt>
      <trkpt lat="45.18081" lon="5.64728">
        <ele>955</ele>
        <time>2019-10-09T14:01:37Z</time>
      </trkpt>
      <trkpt lat="45.18075" lon="5.64725">
        <ele>955</ele>
        <time>2019-10-09T14:01:40Z</time>
      </trkpt>
      <trkpt lat="45.1805" lon="5.64712">
        <ele>956</ele>
        <time>2019-10-09T14:01:53Z</time>
      </trkpt>
      <trkpt lat="45.18047" lon="5.64711">
        <ele>956.20001220703</ele>
        <time>2019-10-09T14:01:56Z</time>
      </trkpt>
      <trkpt lat="45.18035" lon="5.64705">
        <ele>957.40002441406</ele>
        <time>2019-10-09T14:02:02Z</time>
      </trkpt>
      <trkpt lat="45.18012" lon="5.64693">
        <ele>959.40002441406</ele>
        <time>2019-10-09T14:02:13Z</time>
      </trkpt>
      <trkpt lat="45.17994" lon="5.64685">
        <ele>960.59997558594</ele>
        <time>2019-10-09T14:02:23Z</time>
      </trkpt>
      <trkpt lat="45.17962" lon="5.64669">
        <ele>963.40002441406</ele>
        <time>2019-10-09T14:02:41Z</time>
      </trkpt>
      <trkpt lat="45.1795" lon="5.64663">
        <ele>964.40002441406</ele>
        <time>2019-10-09T14:02:49Z</time>
      </trkpt>
      <trkpt lat="45.17934" lon="5.64655">
        <ele>965.79998779297</ele>
        <time>2019-10-09T14:02:58Z</time>
      </trkpt>
      <trkpt lat="45.17914" lon="5.64645">
        <ele>967</ele>
        <time>2019-10-09T14:03:07Z</time>
      </trkpt>
      <trkpt lat="45.17892" lon="5.64631">
        <ele>968.79998779297</ele>
        <time>2019-10-09T14:03:19Z</time>
      </trkpt>
      <trkpt lat="45.1788" lon="5.64622">
        <ele>970</ele>
        <time>2019-10-09T14:03:26Z</time>
      </trkpt>
      <trkpt lat="45.17851" lon="5.64601">
        <ele>972.59997558594</ele>
        <time>2019-10-09T14:03:43Z</time>
      </trkpt>
      <trkpt lat="45.17843" lon="5.64595">
        <ele>973.40002441406</ele>
        <time>2019-10-09T14:03:48Z</time>
      </trkpt>
      <trkpt lat="45.17821" lon="5.64577">
        <ele>976</ele>
        <time>2019-10-09T14:04:03Z</time>
      </trkpt>
      <trkpt lat="45.17811" lon="5.64568">
        <ele>977</ele>
        <time>2019-10-09T14:04:10Z</time>
      </trkpt>
      <trkpt lat="45.17797" lon="5.64553">
        <ele>978.40002441406</ele>
        <time>2019-10-09T14:04:18Z</time>
      </trkpt>
      <trkpt lat="45.17778" lon="5.64517">
        <ele>980.40002441406</ele>
        <time>2019-10-09T14:04:32Z</time>
      </trkpt>
      <trkpt lat="45.17761" lon="5.64479">
        <ele>982.79998779297</ele>
        <time>2019-10-09T14:04:48Z</time>
      </trkpt>
      <trkpt lat="45.17737" lon="5.64455">
        <ele>984.79998779297</ele>
        <time>2019-10-09T14:05:04Z</time>
      </trkpt>
      <trkpt lat="45.17725" lon="5.64444">
        <ele>985.79998779297</ele>
        <time>2019-10-09T14:05:10Z</time>
      </trkpt>
      <trkpt lat="45.17714" lon="5.64435">
        <ele>987</ele>
        <time>2019-10-09T14:06:02Z</time>
      </trkpt>
      <trkpt lat="45.17693" lon="5.64423">
        <ele>987.40002441406</ele>
        <time>2019-10-09T14:06:11Z</time>
      </trkpt>
      <trkpt lat="45.17681" lon="5.64417">
        <ele>988.20001220703</ele>
        <time>2019-10-09T14:06:19Z</time>
      </trkpt>
      <trkpt lat="45.17683" lon="5.64418">
        <ele>989.20001220703</ele>
        <time>2019-10-09T14:07:15Z</time>
      </trkpt>
      <trkpt lat="45.17672" lon="5.64412">
        <ele>989.20001220703</ele>
        <time>2019-10-09T14:07:21Z</time>
      </trkpt>
      <trkpt lat="45.17665" lon="5.64408">
        <ele>989.79998779297</ele>
        <time>2019-10-09T14:07:26Z</time>
      </trkpt>
      <trkpt lat="45.17644" lon="5.64397">
        <ele>991.40002441406</ele>
        <time>2019-10-09T14:07:36Z</time>
      </trkpt>
      <trkpt lat="45.1764" lon="5.64395">
        <ele>992</ele>
        <time>2019-10-09T14:07:40Z</time>
      </trkpt>
      <trkpt lat="45.17623" lon="5.64386">
        <ele>993.59997558594</ele>
        <time>2019-10-09T14:07:49Z</time>
      </trkpt>
      <trkpt lat="45.17596" lon="5.6438">
        <ele>995.59997558594</ele>
        <time>2019-10-09T14:08:03Z</time>
      </trkpt>
      <trkpt lat="45.17581" lon="5.6438">
        <ele>996.20001220703</ele>
        <time>2019-10-09T14:08:08Z</time>
      </trkpt>
      <trkpt lat="45.17552" lon="5.64351">
        <ele>998.59997558594</ele>
        <time>2019-10-09T14:08:22Z</time>
      </trkpt>
      <trkpt lat="45.1753" lon="5.64346">
        <ele>999.79998779297</ele>
        <time>2019-10-09T14:08:30Z</time>
      </trkpt>
      <trkpt lat="45.17502" lon="5.6435">
        <ele>1001.799987793</ele>
        <time>2019-10-09T14:08:42Z</time>
      </trkpt>
      <trkpt lat="45.17483" lon="5.6435">
        <ele>1003.4000244141</ele>
        <time>2019-10-09T14:08:51Z</time>
      </trkpt>
      <trkpt lat="45.17463" lon="5.6434">
        <ele>1005.200012207</ele>
        <time>2019-10-09T14:09:02Z</time>
      </trkpt>
      <trkpt lat="45.17452" lon="5.64323">
        <ele>1006.200012207</ele>
        <time>2019-10-09T14:09:10Z</time>
      </trkpt>
      <trkpt lat="45.17443" lon="5.64285">
        <ele>1008.5999755859</ele>
        <time>2019-10-09T14:09:24Z</time>
      </trkpt>
      <trkpt lat="45.17443" lon="5.64266">
        <ele>1009.799987793</ele>
        <time>2019-10-09T14:09:31Z</time>
      </trkpt>
      <trkpt lat="45.17445" lon="5.64227">
        <ele>1012.200012207</ele>
        <time>2019-10-09T14:09:44Z</time>
      </trkpt>
      <trkpt lat="45.17447" lon="5.64199">
        <ele>1013.5999755859</ele>
        <time>2019-10-09T14:09:53Z</time>
      </trkpt>
      <trkpt lat="45.1745" lon="5.64158">
        <ele>1015.200012207</ele>
        <time>2019-10-09T14:10:05Z</time>
      </trkpt>
      <trkpt lat="45.17455" lon="5.64109">
        <ele>1016.4000244141</ele>
        <time>2019-10-09T14:10:18Z</time>
      </trkpt>
      <trkpt lat="45.17458" lon="5.64079">
        <ele>1017.4000244141</ele>
        <time>2019-10-09T14:10:28Z</time>
      </trkpt>
      <trkpt lat="45.17464" lon="5.64024">
        <ele>1018.799987793</ele>
        <time>2019-10-09T14:10:43Z</time>
      </trkpt>
      <trkpt lat="45.17456" lon="5.64009">
        <ele>1019.4000244141</ele>
        <time>2019-10-09T14:10:49Z</time>
      </trkpt>
      <trkpt lat="45.17445" lon="5.63977">
        <ele>1020.799987793</ele>
        <time>2019-10-09T14:10:58Z</time>
      </trkpt>
      <trkpt lat="45.17433" lon="5.63961">
        <ele>1021.5999755859</ele>
        <time>2019-10-09T14:11:05Z</time>
      </trkpt>
      <trkpt lat="45.17394" lon="5.63942">
        <ele>1024.1999511719</ele>
        <time>2019-10-09T14:11:24Z</time>
      </trkpt>
      <trkpt lat="45.17359" lon="5.63943">
        <ele>1026.4000244141</ele>
        <time>2019-10-09T14:11:43Z</time>
      </trkpt>
      <trkpt lat="45.17335" lon="5.63946">
        <ele>1027.4000244141</ele>
        <time>2019-10-09T14:11:53Z</time>
      </trkpt>
      <trkpt lat="45.17318" lon="5.6395">
        <ele>1028.4000244141</ele>
        <time>2019-10-09T14:12:01Z</time>
      </trkpt>
      <trkpt lat="45.17282" lon="5.63955">
        <ele>1030.5999755859</ele>
        <time>2019-10-09T14:12:18Z</time>
      </trkpt>
      <trkpt lat="45.17261" lon="5.63949">
        <ele>1032</ele>
        <time>2019-10-09T14:12:27Z</time>
      </trkpt>
      <trkpt lat="45.17243" lon="5.63933">
        <ele>1033.4000244141</ele>
        <time>2019-10-09T14:12:37Z</time>
      </trkpt>
      <trkpt lat="45.17224" lon="5.63914">
        <ele>1035</ele>
        <time>2019-10-09T14:12:48Z</time>
      </trkpt>
      <trkpt lat="45.17209" lon="5.63897">
        <ele>1036.5999755859</ele>
        <time>2019-10-09T14:12:58Z</time>
      </trkpt>
      <trkpt lat="45.17189" lon="5.63886">
        <ele>1038.1999511719</ele>
        <time>2019-10-09T14:13:07Z</time>
      </trkpt>
      <trkpt lat="45.17173" lon="5.63882">
        <ele>1039.4000244141</ele>
        <time>2019-10-09T14:13:14Z</time>
      </trkpt>
      <trkpt lat="45.17138" lon="5.63882">
        <ele>1041.8000488281</ele>
        <time>2019-10-09T14:13:29Z</time>
      </trkpt>
      <trkpt lat="45.17125" lon="5.63882">
        <ele>1042.8000488281</ele>
        <time>2019-10-09T14:13:37Z</time>
      </trkpt>
      <trkpt lat="45.17104" lon="5.63882">
        <ele>1044.4000244141</ele>
        <time>2019-10-09T14:13:48Z</time>
      </trkpt>
      <trkpt lat="45.17084" lon="5.63883">
        <ele>1045.4000244141</ele>
        <time>2019-10-09T14:13:56Z</time>
      </trkpt>
      <trkpt lat="45.17048" lon="5.63888">
        <ele>1047.4000244141</ele>
        <time>2019-10-09T14:14:10Z</time>
      </trkpt>
      <trkpt lat="45.17025" lon="5.63892">
        <ele>1048.5999755859</ele>
        <time>2019-10-09T14:14:18Z</time>
      </trkpt>
      <trkpt lat="45.16975" lon="5.63906">
        <ele>1051.5999755859</ele>
        <time>2019-10-09T14:14:37Z</time>
      </trkpt>
      <trkpt lat="45.1695" lon="5.63917">
        <ele>1052.8000488281</ele>
        <time>2019-10-09T14:14:46Z</time>
      </trkpt>
      <trkpt lat="45.16896" lon="5.63945">
        <ele>1055.1999511719</ele>
        <time>2019-10-09T14:15:06Z</time>
      </trkpt>
      <trkpt lat="45.16876" lon="5.63955">
        <ele>1055.8000488281</ele>
        <time>2019-10-09T14:15:12Z</time>
      </trkpt>
      <trkpt lat="45.16855" lon="5.63963">
        <ele>1056.1999511719</ele>
        <time>2019-10-09T14:15:18Z</time>
      </trkpt>
      <trkpt lat="45.16837" lon="5.63929">
        <ele>1057.1999511719</ele>
        <time>2019-10-09T14:15:27Z</time>
      </trkpt>
      <trkpt lat="45.16852" lon="5.63907">
        <ele>1057.8000488281</ele>
        <time>2019-10-09T14:15:33Z</time>
      </trkpt>
      <trkpt lat="45.1689" lon="5.63908">
        <ele>1058.5999755859</ele>
        <time>2019-10-09T14:15:44Z</time>
      </trkpt>
      <trkpt lat="45.16911" lon="5.63896">
        <ele>1060</ele>
        <time>2019-10-09T14:15:52Z</time>
      </trkpt>
      <trkpt lat="45.16946" lon="5.63871">
        <ele>1061.8000488281</ele>
        <time>2019-10-09T14:16:07Z</time>
      </trkpt>
      <trkpt lat="45.16958" lon="5.63861">
        <ele>1062.4000244141</ele>
        <time>2019-10-09T14:16:12Z</time>
      </trkpt>
      <trkpt lat="45.16981" lon="5.63838">
        <ele>1064.1999511719</ele>
        <time>2019-10-09T14:16:22Z</time>
      </trkpt>
      <trkpt lat="45.16992" lon="5.63826">
        <ele>1065.4000244141</ele>
        <time>2019-10-09T14:16:29Z</time>
      </trkpt>
      <trkpt lat="45.17006" lon="5.63808">
        <ele>1067.4000244141</ele>
        <time>2019-10-09T14:16:38Z</time>
      </trkpt>
      <trkpt lat="45.17017" lon="5.63793">
        <ele>1068.8000488281</ele>
        <time>2019-10-09T14:16:45Z</time>
      </trkpt>
      <trkpt lat="45.17022" lon="5.63786">
        <ele>1071</ele>
        <time>2019-10-09T14:17:44Z</time>
      </trkpt>
      <trkpt lat="45.17033" lon="5.6377">
        <ele>1071</ele>
        <time>2019-10-09T14:17:48Z</time>
      </trkpt>
      <trkpt lat="45.17042" lon="5.63756">
        <ele>1071.4000244141</ele>
        <time>2019-10-09T14:17:55Z</time>
      </trkpt>
      <trkpt lat="45.17051" lon="5.63738">
        <ele>1072.8000488281</ele>
        <time>2019-10-09T14:18:03Z</time>
      </trkpt>
      <trkpt lat="45.17061" lon="5.63719">
        <ele>1074</ele>
        <time>2019-10-09T14:18:11Z</time>
      </trkpt>
      <trkpt lat="45.1707" lon="5.63701">
        <ele>1075.4000244141</ele>
        <time>2019-10-09T14:18:19Z</time>
      </trkpt>
      <trkpt lat="45.17078" lon="5.6369">
        <ele>1076.4000244141</ele>
        <time>2019-10-09T14:18:25Z</time>
      </trkpt>
      <trkpt lat="45.171" lon="5.63677">
        <ele>1079.1999511719</ele>
        <time>2019-10-09T14:18:40Z</time>
      </trkpt>
      <trkpt lat="45.17118" lon="5.63671">
        <ele>1081</ele>
        <time>2019-10-09T14:18:51Z</time>
      </trkpt>
      <trkpt lat="45.17139" lon="5.63663">
        <ele>1082.4000244141</ele>
        <time>2019-10-09T14:19:02Z</time>
      </trkpt>
      <trkpt lat="45.17158" lon="5.63657">
        <ele>1083.8000488281</ele>
        <time>2019-10-09T14:19:12Z</time>
      </trkpt>
      <trkpt lat="45.17178" lon="5.63645">
        <ele>1086.1999511719</ele>
        <time>2019-10-09T14:19:24Z</time>
      </trkpt>
      <trkpt lat="45.1719" lon="5.63634">
        <ele>1087</ele>
        <time>2019-10-09T14:19:31Z</time>
      </trkpt>
      <trkpt lat="45.17207" lon="5.63608">
        <ele>1089.1999511719</ele>
        <time>2019-10-09T14:19:44Z</time>
      </trkpt>
      <trkpt lat="45.17217" lon="5.63578">
        <ele>1090.8000488281</ele>
        <time>2019-10-09T14:19:57Z</time>
      </trkpt>
      <trkpt lat="45.17224" lon="5.63552">
        <ele>1092.5999755859</ele>
        <time>2019-10-09T14:20:07Z</time>
      </trkpt>
      <trkpt lat="45.17231" lon="5.6353">
        <ele>1093.5999755859</ele>
        <time>2019-10-09T14:20:16Z</time>
      </trkpt>
      <trkpt lat="45.17236" lon="5.6351">
        <ele>1094.8000488281</ele>
        <time>2019-10-09T14:20:23Z</time>
      </trkpt>
      <trkpt lat="45.17246" lon="5.63476">
        <ele>1096.4000244141</ele>
        <time>2019-10-09T14:20:34Z</time>
      </trkpt>
      <trkpt lat="45.17249" lon="5.63455">
        <ele>1097.5999755859</ele>
        <time>2019-10-09T14:20:41Z</time>
      </trkpt>
      <trkpt lat="45.17247" lon="5.6342">
        <ele>1099.5999755859</ele>
        <time>2019-10-09T14:20:55Z</time>
      </trkpt>
      <trkpt lat="45.17245" lon="5.63406">
        <ele>1100.5999755859</ele>
        <time>2019-10-09T14:21:02Z</time>
      </trkpt>
      <trkpt lat="45.17241" lon="5.63381">
        <ele>1102.1999511719</ele>
        <time>2019-10-09T14:21:14Z</time>
      </trkpt>
      <trkpt lat="45.17239" lon="5.63365">
        <ele>1103.5999755859</ele>
        <time>2019-10-09T14:21:22Z</time>
      </trkpt>
      <trkpt lat="45.17239" lon="5.6332">
        <ele>1106</ele>
        <time>2019-10-09T14:21:36Z</time>
      </trkpt>
      <trkpt lat="45.1724" lon="5.63303">
        <ele>1107.1999511719</ele>
        <time>2019-10-09T14:21:42Z</time>
      </trkpt>
      <trkpt lat="45.17243" lon="5.63273">
        <ele>1108.5999755859</ele>
        <time>2019-10-09T14:21:51Z</time>
      </trkpt>
      <trkpt lat="45.17245" lon="5.63246">
        <ele>1110</ele>
        <time>2019-10-09T14:22:00Z</time>
      </trkpt>
      <trkpt lat="45.17248" lon="5.63214">
        <ele>1112.1999511719</ele>
        <time>2019-10-09T14:22:11Z</time>
      </trkpt>
      <trkpt lat="45.17247" lon="5.63164">
        <ele>1114.8000488281</ele>
        <time>2019-10-09T14:22:26Z</time>
      </trkpt>
      <trkpt lat="45.17245" lon="5.6314">
        <ele>1116.1999511719</ele>
        <time>2019-10-09T14:22:34Z</time>
      </trkpt>
      <trkpt lat="45.1724" lon="5.63101">
        <ele>1118</ele>
        <time>2019-10-09T14:22:47Z</time>
      </trkpt>
      <trkpt lat="45.17231" lon="5.63072">
        <ele>1119.8000488281</ele>
        <time>2019-10-09T14:22:58Z</time>
      </trkpt>
      <trkpt lat="45.17208" lon="5.63052">
        <ele>1122.5999755859</ele>
        <time>2019-10-09T14:23:13Z</time>
      </trkpt>
      <trkpt lat="45.17187" lon="5.63051">
        <ele>1123.8000488281</ele>
        <time>2019-10-09T14:23:22Z</time>
      </trkpt>
      <trkpt lat="45.17146" lon="5.63061">
        <ele>1125.1999511719</ele>
        <time>2019-10-09T14:23:36Z</time>
      </trkpt>
      <trkpt lat="45.17136" lon="5.63062">
        <ele>1125.8000488281</ele>
        <time>2019-10-09T14:23:41Z</time>
      </trkpt>
      <trkpt lat="45.17108" lon="5.63026">
        <ele>1126.8000488281</ele>
        <time>2019-10-09T14:23:55Z</time>
      </trkpt>
      <trkpt lat="45.17081" lon="5.62978">
        <ele>1127</ele>
        <time>2019-10-09T14:24:08Z</time>
      </trkpt>
      <trkpt lat="45.17065" lon="5.62934">
        <ele>1128.1999511719</ele>
        <time>2019-10-09T14:24:21Z</time>
      </trkpt>
      <trkpt lat="45.17061" lon="5.6291">
        <ele>1129.5999755859</ele>
        <time>2019-10-09T14:24:28Z</time>
      </trkpt>
      <trkpt lat="45.1706" lon="5.62852">
        <ele>1132.1999511719</ele>
        <time>2019-10-09T14:24:45Z</time>
      </trkpt>
      <trkpt lat="45.17058" lon="5.62816">
        <ele>1133.8000488281</ele>
        <time>2019-10-09T14:24:56Z</time>
      </trkpt>
      <trkpt lat="45.17054" lon="5.62778">
        <ele>1135.5999755859</ele>
        <time>2019-10-09T14:25:07Z</time>
      </trkpt>
      <trkpt lat="45.17036" lon="5.62738">
        <ele>1138</ele>
        <time>2019-10-09T14:25:22Z</time>
      </trkpt>
      <trkpt lat="45.17028" lon="5.62729">
        <ele>1138</ele>
        <time>2019-10-09T14:25:26Z</time>
      </trkpt>
      <trkpt lat="45.17019" lon="5.62721">
        <ele>1138.1999511719</ele>
        <time>2019-10-09T14:25:31Z</time>
      </trkpt>
      <trkpt lat="45.17012" lon="5.62716">
        <ele>1138.1999511719</ele>
        <time>2019-10-09T14:25:34Z</time>
      </trkpt>
      <trkpt lat="45.16979" lon="5.62698">
        <ele>1137.5999755859</ele>
        <time>2019-10-09T14:25:47Z</time>
      </trkpt>
      <trkpt lat="45.16974" lon="5.62695">
        <ele>1137.1999511719</ele>
        <time>2019-10-09T14:25:56Z</time>
      </trkpt>
      <trkpt lat="45.16943" lon="5.62675">
        <ele>1136.8000488281</ele>
        <time>2019-10-09T14:28:02Z</time>
      </trkpt>
      <trkpt lat="45.16925" lon="5.62653">
        <ele>1136.5999755859</ele>
        <time>2019-10-09T14:28:07Z</time>
      </trkpt>
      <trkpt lat="45.1692" lon="5.62575">
        <ele>1136.1999511719</ele>
        <time>2019-10-09T14:28:19Z</time>
      </trkpt>
      <trkpt lat="45.16923" lon="5.62506">
        <ele>1136</ele>
        <time>2019-10-09T14:28:31Z</time>
      </trkpt>
      <trkpt lat="45.16919" lon="5.62489">
        <ele>1136.4000244141</ele>
        <time>2019-10-09T14:29:40Z</time>
      </trkpt>
      <trkpt lat="45.16909" lon="5.62472">
        <ele>1136.4000244141</ele>
        <time>2019-10-09T14:29:45Z</time>
      </trkpt>
      <trkpt lat="45.16899" lon="5.62462">
        <ele>1136.1999511719</ele>
        <time>2019-10-09T14:29:48Z</time>
      </trkpt>
      <trkpt lat="45.16873" lon="5.62451">
        <ele>1136.1999511719</ele>
        <time>2019-10-09T14:29:54Z</time>
      </trkpt>
      <trkpt lat="45.16858" lon="5.62455">
        <ele>1136</ele>
        <time>2019-10-09T14:29:58Z</time>
      </trkpt>
      <trkpt lat="45.16816" lon="5.62486">
        <ele>1135.1999511719</ele>
        <time>2019-10-09T14:30:10Z</time>
      </trkpt>
      <trkpt lat="45.1675" lon="5.62502">
        <ele>1134.1999511719</ele>
        <time>2019-10-09T14:30:24Z</time>
      </trkpt>
      <trkpt lat="45.16724" lon="5.62503">
        <ele>1134.1999511719</ele>
        <time>2019-10-09T14:30:29Z</time>
      </trkpt>
      <trkpt lat="45.16699" lon="5.6248">
        <ele>1133.5999755859</ele>
        <time>2019-10-09T14:30:34Z</time>
      </trkpt>
      <trkpt lat="45.16666" lon="5.62435">
        <ele>1133</ele>
        <time>2019-10-09T14:30:45Z</time>
      </trkpt>
      <trkpt lat="45.16644" lon="5.62432">
        <ele>1133</ele>
        <time>2019-10-09T14:30:53Z</time>
      </trkpt>
      <trkpt lat="45.16637" lon="5.62434">
        <ele>1131.8000488281</ele>
        <time>2019-10-09T14:35:18Z</time>
      </trkpt>
      <trkpt lat="45.16618" lon="5.62447">
        <ele>1131.8000488281</ele>
        <time>2019-10-09T14:35:25Z</time>
      </trkpt>
      <trkpt lat="45.166" lon="5.62487">
        <ele>1131.1999511719</ele>
        <time>2019-10-09T14:35:32Z</time>
      </trkpt>
      <trkpt lat="45.16582" lon="5.62565">
        <ele>1130.1999511719</ele>
        <time>2019-10-09T14:35:45Z</time>
      </trkpt>
      <trkpt lat="45.16519" lon="5.62658">
        <ele>1130</ele>
        <time>2019-10-09T14:36:01Z</time>
      </trkpt>
      <trkpt lat="45.16485" lon="5.62691">
        <ele>1129.8000488281</ele>
        <time>2019-10-09T14:36:07Z</time>
      </trkpt>
      <trkpt lat="45.16471" lon="5.62695">
        <ele>1129.4000244141</ele>
        <time>2019-10-09T14:36:09Z</time>
      </trkpt>
      <trkpt lat="45.16452" lon="5.62691">
        <ele>1129.1999511719</ele>
        <time>2019-10-09T14:36:12Z</time>
      </trkpt>
      <trkpt lat="45.1643" lon="5.62675">
        <ele>1128.8000488281</ele>
        <time>2019-10-09T14:36:16Z</time>
      </trkpt>
      <trkpt lat="45.16354" lon="5.62587">
        <ele>1127.8000488281</ele>
        <time>2019-10-09T14:36:33Z</time>
      </trkpt>
      <trkpt lat="45.16325" lon="5.6257">
        <ele>1127.4000244141</ele>
        <time>2019-10-09T14:36:39Z</time>
      </trkpt>
      <trkpt lat="45.16258" lon="5.62527">
        <ele>1126.5999755859</ele>
        <time>2019-10-09T14:36:52Z</time>
      </trkpt>
      <trkpt lat="45.16235" lon="5.62482">
        <ele>1126.5999755859</ele>
        <time>2019-10-09T14:36:59Z</time>
      </trkpt>
      <trkpt lat="45.16168" lon="5.62328">
        <ele>1127.4000244141</ele>
        <time>2019-10-09T14:37:23Z</time>
      </trkpt>
      <trkpt lat="45.16149" lon="5.62249">
        <ele>1128.1999511719</ele>
        <time>2019-10-09T14:37:34Z</time>
      </trkpt>
      <trkpt lat="45.16099" lon="5.62153">
        <ele>1128.4000244141</ele>
        <time>2019-10-09T14:37:50Z</time>
      </trkpt>
      <trkpt lat="45.16086" lon="5.62077">
        <ele>1128</ele>
        <time>2019-10-09T14:38:00Z</time>
      </trkpt>
      <trkpt lat="45.16037" lon="5.61984">
        <ele>1127.8000488281</ele>
        <time>2019-10-09T14:38:14Z</time>
      </trkpt>
      <trkpt lat="45.16029" lon="5.61931">
        <ele>1127.4000244141</ele>
        <time>2019-10-09T14:38:21Z</time>
      </trkpt>
      <trkpt lat="45.16039" lon="5.619">
        <ele>1127</ele>
        <time>2019-10-09T14:38:25Z</time>
      </trkpt>
      <trkpt lat="45.16067" lon="5.61829">
        <ele>1126.8000488281</ele>
        <time>2019-10-09T14:38:35Z</time>
      </trkpt>
      <trkpt lat="45.16061" lon="5.61804">
        <ele>1126.5999755859</ele>
        <time>2019-10-09T14:38:39Z</time>
      </trkpt>
      <trkpt lat="45.16047" lon="5.61788">
        <ele>1126.5999755859</ele>
        <time>2019-10-09T14:38:43Z</time>
      </trkpt>
      <trkpt lat="45.16029" lon="5.61784">
        <ele>1126.4000244141</ele>
        <time>2019-10-09T14:38:46Z</time>
      </trkpt>
      <trkpt lat="45.1599" lon="5.61795">
        <ele>1125.4000244141</ele>
        <time>2019-10-09T14:38:51Z</time>
      </trkpt>
      <trkpt lat="45.15937" lon="5.61817">
        <ele>1123.1999511719</ele>
        <time>2019-10-09T14:38:57Z</time>
      </trkpt>
      <trkpt lat="45.15878" lon="5.61842">
        <ele>1119.5999755859</ele>
        <time>2019-10-09T14:39:04Z</time>
      </trkpt>
      <trkpt lat="45.15868" lon="5.61856">
        <ele>1118.4000244141</ele>
        <time>2019-10-09T14:39:06Z</time>
      </trkpt>
      <trkpt lat="45.15844" lon="5.61919">
        <ele>1116.1999511719</ele>
        <time>2019-10-09T14:39:12Z</time>
      </trkpt>
      <trkpt lat="45.15832" lon="5.61951">
        <ele>1115.1999511719</ele>
        <time>2019-10-09T14:39:15Z</time>
      </trkpt>
      <trkpt lat="45.15797" lon="5.61983">
        <ele>1112.5999755859</ele>
        <time>2019-10-09T14:39:21Z</time>
      </trkpt>
      <trkpt lat="45.15785" lon="5.61976">
        <ele>1111.5999755859</ele>
        <time>2019-10-09T14:39:23Z</time>
      </trkpt>
      <trkpt lat="45.15752" lon="5.61954">
        <ele>1110.1999511719</ele>
        <time>2019-10-09T14:39:27Z</time>
      </trkpt>
      <trkpt lat="45.15711" lon="5.6194">
        <ele>1109</ele>
        <time>2019-10-09T14:39:31Z</time>
      </trkpt>
      <trkpt lat="45.15652" lon="5.6192">
        <ele>1107.1999511719</ele>
        <time>2019-10-09T14:39:37Z</time>
      </trkpt>
      <trkpt lat="45.15584" lon="5.61922">
        <ele>1103.5999755859</ele>
        <time>2019-10-09T14:39:45Z</time>
      </trkpt>
      <trkpt lat="45.15571" lon="5.6193">
        <ele>1102.5999755859</ele>
        <time>2019-10-09T14:39:47Z</time>
      </trkpt>
      <trkpt lat="45.15531" lon="5.61996">
        <ele>1100.1999511719</ele>
        <time>2019-10-09T14:39:56Z</time>
      </trkpt>
      <trkpt lat="45.15509" lon="5.62034">
        <ele>1099.4000244141</ele>
        <time>2019-10-09T14:40:01Z</time>
      </trkpt>
      <trkpt lat="45.15479" lon="5.62059">
        <ele>1098.4000244141</ele>
        <time>2019-10-09T14:40:06Z</time>
      </trkpt>
      <trkpt lat="45.15465" lon="5.6206">
        <ele>1098.1999511719</ele>
        <time>2019-10-09T14:40:08Z</time>
      </trkpt>
      <trkpt lat="45.15408" lon="5.62043">
        <ele>1096.1999511719</ele>
        <time>2019-10-09T14:40:16Z</time>
      </trkpt>
      <trkpt lat="45.15367" lon="5.62044">
        <ele>1095.1999511719</ele>
        <time>2019-10-09T14:40:22Z</time>
      </trkpt>
      <trkpt lat="45.15296" lon="5.62036">
        <ele>1093.1999511719</ele>
        <time>2019-10-09T14:40:32Z</time>
      </trkpt>
      <trkpt lat="45.15259" lon="5.62032">
        <ele>1092.1999511719</ele>
        <time>2019-10-09T14:40:38Z</time>
      </trkpt>
      <trkpt lat="45.15173" lon="5.62053">
        <ele>1090.5999755859</ele>
        <time>2019-10-09T14:40:51Z</time>
      </trkpt>
      <trkpt lat="45.15089" lon="5.62082">
        <ele>1088.5999755859</ele>
        <time>2019-10-09T14:41:03Z</time>
      </trkpt>
      <trkpt lat="45.15038" lon="5.62108">
        <ele>1088</ele>
        <time>2019-10-09T14:41:11Z</time>
      </trkpt>
      <trkpt lat="45.14986" lon="5.62134">
        <ele>1086.8000488281</ele>
        <time>2019-10-09T14:41:19Z</time>
      </trkpt>
      <trkpt lat="45.14939" lon="5.62158">
        <ele>1085.5999755859</ele>
        <time>2019-10-09T14:41:26Z</time>
      </trkpt>
      <trkpt lat="45.14865" lon="5.62165">
        <ele>1084</ele>
        <time>2019-10-09T14:41:36Z</time>
      </trkpt>
      <trkpt lat="45.14809" lon="5.62171">
        <ele>1082.8000488281</ele>
        <time>2019-10-09T14:41:44Z</time>
      </trkpt>
      <trkpt lat="45.14761" lon="5.62194">
        <ele>1082</ele>
        <time>2019-10-09T14:41:51Z</time>
      </trkpt>
      <trkpt lat="45.14739" lon="5.62192">
        <ele>1081.4000244141</ele>
        <time>2019-10-09T14:41:54Z</time>
      </trkpt>
      <trkpt lat="45.1466" lon="5.62171">
        <ele>1079</ele>
        <time>2019-10-09T14:42:04Z</time>
      </trkpt>
      <trkpt lat="45.14591" lon="5.62156">
        <ele>1078.1999511719</ele>
        <time>2019-10-09T14:42:11Z</time>
      </trkpt>
      <trkpt lat="45.14529" lon="5.62142">
        <ele>1076.5999755859</ele>
        <time>2019-10-09T14:42:19Z</time>
      </trkpt>
      <trkpt lat="45.14472" lon="5.62111">
        <ele>1075.4000244141</ele>
        <time>2019-10-09T14:42:26Z</time>
      </trkpt>
      <trkpt lat="45.14383" lon="5.62028">
        <ele>1072.4000244141</ele>
        <time>2019-10-09T14:42:39Z</time>
      </trkpt>
      <trkpt lat="45.14365" lon="5.61987">
        <ele>1072.4000244141</ele>
        <time>2019-10-09T14:42:44Z</time>
      </trkpt>
      <trkpt lat="45.14355" lon="5.61917">
        <ele>1072.4000244141</ele>
        <time>2019-10-09T14:42:52Z</time>
      </trkpt>
      <trkpt lat="45.14339" lon="5.61846">
        <ele>1073</ele>
        <time>2019-10-09T14:43:00Z</time>
      </trkpt>
      <trkpt lat="45.14322" lon="5.61793">
        <ele>1073.1999511719</ele>
        <time>2019-10-09T14:43:07Z</time>
      </trkpt>
      <trkpt lat="45.14308" lon="5.61764">
        <ele>1073.4000244141</ele>
        <time>2019-10-09T14:43:12Z</time>
      </trkpt>
      <trkpt lat="45.14274" lon="5.61732">
        <ele>1074.4000244141</ele>
        <time>2019-10-09T14:43:21Z</time>
      </trkpt>
      <trkpt lat="45.14243" lon="5.61678">
        <ele>1074.5999755859</ele>
        <time>2019-10-09T14:43:30Z</time>
      </trkpt>
      <trkpt lat="45.14239" lon="5.61628">
        <ele>1074.5999755859</ele>
        <time>2019-10-09T14:43:36Z</time>
      </trkpt>
      <trkpt lat="45.1427" lon="5.61527">
        <ele>1074.8000488281</ele>
        <time>2019-10-09T14:43:48Z</time>
      </trkpt>
      <trkpt lat="45.1429" lon="5.61472">
        <ele>1074.8000488281</ele>
        <time>2019-10-09T14:43:56Z</time>
      </trkpt>
      <trkpt lat="45.14334" lon="5.61365">
        <ele>1074.5999755859</ele>
        <time>2019-10-09T14:44:09Z</time>
      </trkpt>
      <trkpt lat="45.14353" lon="5.61328">
        <ele>1074.4000244141</ele>
        <time>2019-10-09T14:44:15Z</time>
      </trkpt>
      <trkpt lat="45.14414" lon="5.61227">
        <ele>1073.8000488281</ele>
        <time>2019-10-09T14:44:29Z</time>
      </trkpt>
      <trkpt lat="45.14454" lon="5.61159">
        <ele>1073.5999755859</ele>
        <time>2019-10-09T14:44:39Z</time>
      </trkpt>
      <trkpt lat="45.14455" lon="5.61137">
        <ele>1073.5999755859</ele>
        <time>2019-10-09T14:44:42Z</time>
      </trkpt>
      <trkpt lat="45.14449" lon="5.61111">
        <ele>1073.5999755859</ele>
        <time>2019-10-09T14:44:46Z</time>
      </trkpt>
      <trkpt lat="45.14439" lon="5.61095">
        <ele>1073.5999755859</ele>
        <time>2019-10-09T14:44:49Z</time>
      </trkpt>
      <trkpt lat="45.14412" lon="5.61077">
        <ele>1073.8000488281</ele>
        <time>2019-10-09T14:44:55Z</time>
      </trkpt>
      <trkpt lat="45.14357" lon="5.61047">
        <ele>1073.8000488281</ele>
        <time>2019-10-09T14:45:04Z</time>
      </trkpt>
      <trkpt lat="45.14338" lon="5.61001">
        <ele>1073.5999755859</ele>
        <time>2019-10-09T14:45:10Z</time>
      </trkpt>
      <trkpt lat="45.14339" lon="5.60979">
        <ele>1073.5999755859</ele>
        <time>2019-10-09T14:45:13Z</time>
      </trkpt>
      <trkpt lat="45.14349" lon="5.60948">
        <ele>1073.5999755859</ele>
        <time>2019-10-09T14:45:18Z</time>
      </trkpt>
      <trkpt lat="45.14375" lon="5.60923">
        <ele>1073.5999755859</ele>
        <time>2019-10-09T14:45:24Z</time>
      </trkpt>
      <trkpt lat="45.1445" lon="5.60869">
        <ele>1074.1999511719</ele>
        <time>2019-10-09T14:45:38Z</time>
      </trkpt>
      <trkpt lat="45.14504" lon="5.60819">
        <ele>1074.5999755859</ele>
        <time>2019-10-09T14:45:48Z</time>
      </trkpt>
      <trkpt lat="45.1451" lon="5.60793">
        <ele>1074.8000488281</ele>
        <time>2019-10-09T14:45:52Z</time>
      </trkpt>
      <trkpt lat="45.14506" lon="5.60773">
        <ele>1075</ele>
        <time>2019-10-09T14:45:55Z</time>
      </trkpt>
      <trkpt lat="45.14492" lon="5.6076">
        <ele>1075</ele>
        <time>2019-10-09T14:45:58Z</time>
      </trkpt>
      <trkpt lat="45.14457" lon="5.60751">
        <ele>1075</ele>
        <time>2019-10-09T14:46:03Z</time>
      </trkpt>
      <trkpt lat="45.14428" lon="5.6074">
        <ele>1074.1999511719</ele>
        <time>2019-10-09T14:46:07Z</time>
      </trkpt>
      <trkpt lat="45.14372" lon="5.60712">
        <ele>1071.1999511719</ele>
        <time>2019-10-09T14:46:14Z</time>
      </trkpt>
      <trkpt lat="45.14352" lon="5.60712">
        <ele>1070.5999755859</ele>
        <time>2019-10-09T14:46:16Z</time>
      </trkpt>
      <trkpt lat="45.14261" lon="5.60725">
        <ele>1066.8000488281</ele>
        <time>2019-10-09T14:46:26Z</time>
      </trkpt>
      <trkpt lat="45.14209" lon="5.60732">
        <ele>1064.1999511719</ele>
        <time>2019-10-09T14:46:32Z</time>
      </trkpt>
      <trkpt lat="45.14169" lon="5.60723">
        <ele>1062.8000488281</ele>
        <time>2019-10-09T14:46:37Z</time>
      </trkpt>
      <trkpt lat="45.14156" lon="5.60699">
        <ele>1062.1999511719</ele>
        <time>2019-10-09T14:46:40Z</time>
      </trkpt>
      <trkpt lat="45.14145" lon="5.60667">
        <ele>1061.4000244141</ele>
        <time>2019-10-09T14:46:43Z</time>
      </trkpt>
      <trkpt lat="45.14124" lon="5.60616">
        <ele>1060</ele>
        <time>2019-10-09T14:46:48Z</time>
      </trkpt>
      <trkpt lat="45.141" lon="5.60597">
        <ele>1059.4000244141</ele>
        <time>2019-10-09T14:46:52Z</time>
      </trkpt>
      <trkpt lat="45.14063" lon="5.60581">
        <ele>1058.5999755859</ele>
        <time>2019-10-09T14:46:58Z</time>
      </trkpt>
      <trkpt lat="45.14003" lon="5.60563">
        <ele>1058.4000244141</ele>
        <time>2019-10-09T14:47:08Z</time>
      </trkpt>
      <trkpt lat="45.13981" lon="5.60569">
        <ele>1058.1999511719</ele>
        <time>2019-10-09T14:47:12Z</time>
      </trkpt>
      <trkpt lat="45.13955" lon="5.6059">
        <ele>1058.4000244141</ele>
        <time>2019-10-09T14:47:17Z</time>
      </trkpt>
      <trkpt lat="45.13925" lon="5.60601">
        <ele>1058.4000244141</ele>
        <time>2019-10-09T14:47:22Z</time>
      </trkpt>
      <trkpt lat="45.13909" lon="5.60594">
        <ele>1058.1999511719</ele>
        <time>2019-10-09T14:47:25Z</time>
      </trkpt>
      <trkpt lat="45.13882" lon="5.60563">
        <ele>1058.1999511719</ele>
        <time>2019-10-09T14:47:31Z</time>
      </trkpt>
      <trkpt lat="45.13812" lon="5.60467">
        <ele>1058.4000244141</ele>
        <time>2019-10-09T14:47:47Z</time>
      </trkpt>
      <trkpt lat="45.13765" lon="5.60433">
        <ele>1058.1999511719</ele>
        <time>2019-10-09T14:47:56Z</time>
      </trkpt>
      <trkpt lat="45.13748" lon="5.60433">
        <ele>1058.1999511719</ele>
        <time>2019-10-09T14:47:59Z</time>
      </trkpt>
      <trkpt lat="45.13704" lon="5.60464">
        <ele>1057</ele>
        <time>2019-10-09T14:48:07Z</time>
      </trkpt>
      <trkpt lat="45.13679" lon="5.60493">
        <ele>1056.5999755859</ele>
        <time>2019-10-09T14:48:12Z</time>
      </trkpt>
      <trkpt lat="45.13647" lon="5.60537">
        <ele>1055.5999755859</ele>
        <time>2019-10-09T14:48:18Z</time>
      </trkpt>
      <trkpt lat="45.13632" lon="5.60541">
        <ele>1055.4000244141</ele>
        <time>2019-10-09T14:48:20Z</time>
      </trkpt>
      <trkpt lat="45.13591" lon="5.60537">
        <ele>1054</ele>
        <time>2019-10-09T14:48:25Z</time>
      </trkpt>
      <trkpt lat="45.1355" lon="5.60551">
        <ele>1052.1999511719</ele>
        <time>2019-10-09T14:48:30Z</time>
      </trkpt>
      <trkpt lat="45.13523" lon="5.60558">
        <ele>1051.5999755859</ele>
        <time>2019-10-09T14:48:33Z</time>
      </trkpt>
      <trkpt lat="45.13497" lon="5.60546">
        <ele>1050.5999755859</ele>
        <time>2019-10-09T14:48:36Z</time>
      </trkpt>
      <trkpt lat="45.13472" lon="5.60529">
        <ele>1049.1999511719</ele>
        <time>2019-10-09T14:48:39Z</time>
      </trkpt>
      <trkpt lat="45.1341" lon="5.60489">
        <ele>1045.4000244141</ele>
        <time>2019-10-09T14:48:46Z</time>
      </trkpt>
      <trkpt lat="45.13374" lon="5.60475">
        <ele>1043.8000488281</ele>
        <time>2019-10-09T14:48:50Z</time>
      </trkpt>
      <trkpt lat="45.13355" lon="5.60448">
        <ele>1042.4000244141</ele>
        <time>2019-10-09T14:48:53Z</time>
      </trkpt>
      <trkpt lat="45.13345" lon="5.60398">
        <ele>1040.5999755859</ele>
        <time>2019-10-09T14:48:57Z</time>
      </trkpt>
      <trkpt lat="45.13324" lon="5.60359">
        <ele>1038.4000244141</ele>
        <time>2019-10-09T14:49:01Z</time>
      </trkpt>
      <trkpt lat="45.13298" lon="5.60324">
        <ele>1037</ele>
        <time>2019-10-09T14:49:05Z</time>
      </trkpt>
      <trkpt lat="45.1326" lon="5.60258">
        <ele>1034.8000488281</ele>
        <time>2019-10-09T14:49:12Z</time>
      </trkpt>
      <trkpt lat="45.13233" lon="5.60206">
        <ele>1033.8000488281</ele>
        <time>2019-10-09T14:49:17Z</time>
      </trkpt>
      <trkpt lat="45.13204" lon="5.60179">
        <ele>1032.1999511719</ele>
        <time>2019-10-09T14:49:21Z</time>
      </trkpt>
      <trkpt lat="45.1317" lon="5.6016">
        <ele>1030.5999755859</ele>
        <time>2019-10-09T14:49:25Z</time>
      </trkpt>
      <trkpt lat="45.13156" lon="5.60142">
        <ele>1030</ele>
        <time>2019-10-09T14:49:27Z</time>
      </trkpt>
      <trkpt lat="45.13116" lon="5.60097">
        <ele>1027.8000488281</ele>
        <time>2019-10-09T14:49:33Z</time>
      </trkpt>
      <trkpt lat="45.13099" lon="5.601">
        <ele>1027</ele>
        <time>2019-10-09T14:49:35Z</time>
      </trkpt>
      <trkpt lat="45.13071" lon="5.60105">
        <ele>1025.8000488281</ele>
        <time>2019-10-09T14:49:38Z</time>
      </trkpt>
      <trkpt lat="45.13049" lon="5.60087">
        <ele>1024.8000488281</ele>
        <time>2019-10-09T14:49:41Z</time>
      </trkpt>
      <trkpt lat="45.13035" lon="5.60058">
        <ele>1023.799987793</ele>
        <time>2019-10-09T14:49:44Z</time>
      </trkpt>
      <trkpt lat="45.13023" lon="5.59997">
        <ele>1021.200012207</ele>
        <time>2019-10-09T14:49:49Z</time>
      </trkpt>
      <trkpt lat="45.13" lon="5.5996">
        <ele>1020.200012207</ele>
        <time>2019-10-09T14:49:53Z</time>
      </trkpt>
      <trkpt lat="45.12977" lon="5.59944">
        <ele>1019.200012207</ele>
        <time>2019-10-09T14:49:56Z</time>
      </trkpt>
      <trkpt lat="45.12923" lon="5.59914">
        <ele>1016.799987793</ele>
        <time>2019-10-09T14:50:03Z</time>
      </trkpt>
      <trkpt lat="45.12899" lon="5.59915">
        <ele>1015.799987793</ele>
        <time>2019-10-09T14:50:06Z</time>
      </trkpt>
      <trkpt lat="45.1283" lon="5.59937">
        <ele>1013.4000244141</ele>
        <time>2019-10-09T14:50:15Z</time>
      </trkpt>
      <trkpt lat="45.12806" lon="5.59944">
        <ele>1012.5999755859</ele>
        <time>2019-10-09T14:50:18Z</time>
      </trkpt>
      <trkpt lat="45.12778" lon="5.59934">
        <ele>1011.200012207</ele>
        <time>2019-10-09T14:50:22Z</time>
      </trkpt>
      <trkpt lat="45.1271" lon="5.59896">
        <ele>1008.799987793</ele>
        <time>2019-10-09T14:50:32Z</time>
      </trkpt>
      <trkpt lat="45.12682" lon="5.59878">
        <ele>1008.4000244141</ele>
        <time>2019-10-09T14:50:36Z</time>
      </trkpt>
      <trkpt lat="45.12648" lon="5.59849">
        <ele>1007.4000244141</ele>
        <time>2019-10-09T14:50:41Z</time>
      </trkpt>
      <trkpt lat="45.12637" lon="5.59831">
        <ele>1006.799987793</ele>
        <time>2019-10-09T14:50:43Z</time>
      </trkpt>
      <trkpt lat="45.12624" lon="5.59764">
        <ele>1004.5999755859</ele>
        <time>2019-10-09T14:50:49Z</time>
      </trkpt>
      <trkpt lat="45.12627" lon="5.59729">
        <ele>1003.5999755859</ele>
        <time>2019-10-09T14:50:52Z</time>
      </trkpt>
      <trkpt lat="45.12635" lon="5.59651">
        <ele>1002.799987793</ele>
        <time>2019-10-09T14:50:58Z</time>
      </trkpt>
      <trkpt lat="45.12639" lon="5.59602">
        <ele>1001.200012207</ele>
        <time>2019-10-09T14:51:02Z</time>
      </trkpt>
      <trkpt lat="45.12645" lon="5.59558">
        <ele>999</ele>
        <time>2019-10-09T14:51:07Z</time>
      </trkpt>
      <trkpt lat="45.12663" lon="5.59516">
        <ele>996.59997558594</ele>
        <time>2019-10-09T14:51:12Z</time>
      </trkpt>
      <trkpt lat="45.12692" lon="5.59426">
        <ele>994.20001220703</ele>
        <time>2019-10-09T14:51:22Z</time>
      </trkpt>
      <trkpt lat="45.12715" lon="5.5935">
        <ele>992.59997558594</ele>
        <time>2019-10-09T14:51:30Z</time>
      </trkpt>
      <trkpt lat="45.12736" lon="5.5928">
        <ele>991</ele>
        <time>2019-10-09T14:51:37Z</time>
      </trkpt>
      <trkpt lat="45.12759" lon="5.59197">
        <ele>989.20001220703</ele>
        <time>2019-10-09T14:51:45Z</time>
      </trkpt>
      <trkpt lat="45.12774" lon="5.59134">
        <ele>988.20001220703</ele>
        <time>2019-10-09T14:51:52Z</time>
      </trkpt>
      <trkpt lat="45.128" lon="5.59018">
        <ele>985.40002441406</ele>
        <time>2019-10-09T14:52:06Z</time>
      </trkpt>
      <trkpt lat="45.12807" lon="5.58985">
        <ele>984.79998779297</ele>
        <time>2019-10-09T14:52:10Z</time>
      </trkpt>
      <trkpt lat="45.12819" lon="5.589">
        <ele>983</ele>
        <time>2019-10-09T14:52:20Z</time>
      </trkpt>
      <trkpt lat="45.12824" lon="5.58864">
        <ele>981.20001220703</ele>
        <time>2019-10-09T14:52:26Z</time>
      </trkpt>
      <trkpt lat="45.12833" lon="5.58829">
        <ele>979.79998779297</ele>
        <time>2019-10-09T14:52:36Z</time>
      </trkpt>
      <trkpt lat="45.12836" lon="5.58821">
        <ele>979.59997558594</ele>
        <time>2019-10-09T14:52:39Z</time>
      </trkpt>
      <trkpt lat="45.12842" lon="5.58802">
        <ele>978.40002441406</ele>
        <time>2019-10-09T14:54:22Z</time>
      </trkpt>
      <trkpt lat="45.12852" lon="5.58772">
        <ele>978.40002441406</ele>
        <time>2019-10-09T14:54:27Z</time>
      </trkpt>
      <trkpt lat="45.12893" lon="5.58633">
        <ele>976.40002441406</ele>
        <time>2019-10-09T14:54:45Z</time>
      </trkpt>
      <trkpt lat="45.12919" lon="5.58544">
        <ele>975.40002441406</ele>
        <time>2019-10-09T14:54:55Z</time>
      </trkpt>
      <trkpt lat="45.12944" lon="5.58464">
        <ele>974.20001220703</ele>
        <time>2019-10-09T14:55:04Z</time>
      </trkpt>
      <trkpt lat="45.12971" lon="5.58375">
        <ele>973</ele>
        <time>2019-10-09T14:55:15Z</time>
      </trkpt>
      <trkpt lat="45.12999" lon="5.5828">
        <ele>972.40002441406</ele>
        <time>2019-10-09T14:55:27Z</time>
      </trkpt>
      <trkpt lat="45.13022" lon="5.58233">
        <ele>972</ele>
        <time>2019-10-09T14:55:34Z</time>
      </trkpt>
      <trkpt lat="45.13046" lon="5.58213">
        <ele>972</ele>
        <time>2019-10-09T14:55:39Z</time>
      </trkpt>
      <trkpt lat="45.13079" lon="5.58209">
        <ele>971.79998779297</ele>
        <time>2019-10-09T14:55:45Z</time>
      </trkpt>
      <trkpt lat="45.13088" lon="5.58192">
        <ele>971.59997558594</ele>
        <time>2019-10-09T14:55:47Z</time>
      </trkpt>
      <trkpt lat="45.13111" lon="5.58157">
        <ele>971.20001220703</ele>
        <time>2019-10-09T14:55:55Z</time>
      </trkpt>
      <trkpt lat="45.13104" lon="5.58144">
        <ele>971.20001220703</ele>
        <time>2019-10-09T14:55:58Z</time>
      </trkpt>
      <trkpt lat="45.13095" lon="5.58138">
        <ele>971.20001220703</ele>
        <time>2019-10-09T14:56:01Z</time>
      </trkpt>
      <trkpt lat="45.13071" lon="5.58147">
        <ele>971.40002441406</ele>
        <time>2019-10-09T14:56:07Z</time>
      </trkpt>
      <trkpt lat="45.13057" lon="5.58114">
        <ele>971.20001220703</ele>
        <time>2019-10-09T14:56:12Z</time>
      </trkpt>
      <trkpt lat="45.13051" lon="5.58088">
        <ele>971.40002441406</ele>
        <time>2019-10-09T14:56:16Z</time>
      </trkpt>
      <trkpt lat="45.13032" lon="5.58077">
        <ele>971.59997558594</ele>
        <time>2019-10-09T14:56:20Z</time>
      </trkpt>
      <trkpt lat="45.1301" lon="5.58066">
        <ele>971.59997558594</ele>
        <time>2019-10-09T14:56:24Z</time>
      </trkpt>
      <trkpt lat="45.12983" lon="5.58046">
        <ele>971.59997558594</ele>
        <time>2019-10-09T14:56:29Z</time>
      </trkpt>
      <trkpt lat="45.12912" lon="5.5799">
        <ele>971.59997558594</ele>
        <time>2019-10-09T14:56:42Z</time>
      </trkpt>
      <trkpt lat="45.1284" lon="5.57933">
        <ele>970.59997558594</ele>
        <time>2019-10-09T14:56:55Z</time>
      </trkpt>
      <trkpt lat="45.12715" lon="5.57834">
        <ele>970.20001220703</ele>
        <time>2019-10-09T14:57:18Z</time>
      </trkpt>
      <trkpt lat="45.12682" lon="5.57808">
        <ele>970.40002441406</ele>
        <time>2019-10-09T14:57:24Z</time>
      </trkpt>
      <trkpt lat="45.12569" lon="5.57719">
        <ele>969.40002441406</ele>
        <time>2019-10-09T14:57:44Z</time>
      </trkpt>
      <trkpt lat="45.1253" lon="5.57691">
        <ele>969</ele>
        <time>2019-10-09T14:57:51Z</time>
      </trkpt>
      <trkpt lat="45.12421" lon="5.57606">
        <ele>968.59997558594</ele>
        <time>2019-10-09T14:58:11Z</time>
      </trkpt>
      <trkpt lat="45.12357" lon="5.57554">
        <ele>968.40002441406</ele>
        <time>2019-10-09T14:58:23Z</time>
      </trkpt>
      <trkpt lat="45.12283" lon="5.57496">
        <ele>969.20001220703</ele>
        <time>2019-10-09T14:58:40Z</time>
      </trkpt>
      <trkpt lat="45.12236" lon="5.57459">
        <ele>970</ele>
        <time>2019-10-09T14:58:52Z</time>
      </trkpt>
      <trkpt lat="45.12152" lon="5.5738">
        <ele>972</ele>
        <time>2019-10-09T14:59:15Z</time>
      </trkpt>
      <trkpt lat="45.12118" lon="5.57336">
        <ele>972.59997558594</ele>
        <time>2019-10-09T14:59:25Z</time>
      </trkpt>
      <trkpt lat="45.1204" lon="5.57263">
        <ele>974.20001220703</ele>
        <time>2019-10-09T14:59:46Z</time>
      </trkpt>
      <trkpt lat="45.11995" lon="5.57247">
        <ele>974.79998779297</ele>
        <time>2019-10-09T14:59:56Z</time>
      </trkpt>
      <trkpt lat="45.11928" lon="5.57228">
        <ele>976.40002441406</ele>
        <time>2019-10-09T15:00:10Z</time>
      </trkpt>
      <trkpt lat="45.11805" lon="5.57193">
        <ele>977.40002441406</ele>
        <time>2019-10-09T15:00:34Z</time>
      </trkpt>
      <trkpt lat="45.1175" lon="5.57185">
        <ele>977.59997558594</ele>
        <time>2019-10-09T15:00:44Z</time>
      </trkpt>
      <trkpt lat="45.11694" lon="5.57183">
        <ele>977.79998779297</ele>
        <time>2019-10-09T15:00:54Z</time>
      </trkpt>
      <trkpt lat="45.11653" lon="5.572">
        <ele>977.79998779297</ele>
        <time>2019-10-09T15:01:01Z</time>
      </trkpt>
      <trkpt lat="45.11558" lon="5.57251">
        <ele>976.59997558594</ele>
        <time>2019-10-09T15:01:16Z</time>
      </trkpt>
      <trkpt lat="45.11523" lon="5.57259">
        <ele>975.79998779297</ele>
        <time>2019-10-09T15:01:21Z</time>
      </trkpt>
      <trkpt lat="45.11478" lon="5.57269">
        <ele>974.79998779297</ele>
        <time>2019-10-09T15:01:27Z</time>
      </trkpt>
      <trkpt lat="45.11441" lon="5.57277">
        <ele>973.40002441406</ele>
        <time>2019-10-09T15:01:32Z</time>
      </trkpt>
      <trkpt lat="45.11366" lon="5.57251">
        <ele>971.59997558594</ele>
        <time>2019-10-09T15:01:42Z</time>
      </trkpt>
      <trkpt lat="45.11341" lon="5.57221">
        <ele>970.79998779297</ele>
        <time>2019-10-09T15:01:46Z</time>
      </trkpt>
      <trkpt lat="45.1132" lon="5.57155">
        <ele>969.79998779297</ele>
        <time>2019-10-09T15:01:52Z</time>
      </trkpt>
      <trkpt lat="45.11299" lon="5.57078">
        <ele>968.20001220703</ele>
        <time>2019-10-09T15:01:59Z</time>
      </trkpt>
      <trkpt lat="45.11273" lon="5.5702">
        <ele>967</ele>
        <time>2019-10-09T15:02:05Z</time>
      </trkpt>
      <trkpt lat="45.11207" lon="5.569">
        <ele>964.40002441406</ele>
        <time>2019-10-09T15:02:18Z</time>
      </trkpt>
      <trkpt lat="45.11197" lon="5.56882">
        <ele>964</ele>
        <time>2019-10-09T15:02:20Z</time>
      </trkpt>
      <trkpt lat="45.11152" lon="5.56802">
        <ele>962.59997558594</ele>
        <time>2019-10-09T15:02:29Z</time>
      </trkpt>
      <trkpt lat="45.11131" lon="5.56767">
        <ele>961.40002441406</ele>
        <time>2019-10-09T15:02:33Z</time>
      </trkpt>
      <trkpt lat="45.11066" lon="5.56688">
        <ele>958.59997558594</ele>
        <time>2019-10-09T15:02:44Z</time>
      </trkpt>
      <trkpt lat="45.11029" lon="5.56651">
        <ele>957</ele>
        <time>2019-10-09T15:02:50Z</time>
      </trkpt>
      <trkpt lat="45.10965" lon="5.56589">
        <ele>956</ele>
        <time>2019-10-09T15:03:01Z</time>
      </trkpt>
      <trkpt lat="45.10914" lon="5.56543">
        <ele>955.79998779297</ele>
        <time>2019-10-09T15:03:10Z</time>
      </trkpt>
      <trkpt lat="45.10838" lon="5.56483">
        <ele>955.40002441406</ele>
        <time>2019-10-09T15:03:23Z</time>
      </trkpt>
      <trkpt lat="45.10734" lon="5.56406">
        <ele>954.59997558594</ele>
        <time>2019-10-09T15:03:41Z</time>
      </trkpt>
      <trkpt lat="45.10635" lon="5.56339">
        <ele>954.40002441406</ele>
        <time>2019-10-09T15:03:58Z</time>
      </trkpt>
      <trkpt lat="45.10552" lon="5.56287">
        <ele>954.20001220703</ele>
        <time>2019-10-09T15:04:12Z</time>
      </trkpt>
      <trkpt lat="45.10469" lon="5.56243">
        <ele>954</ele>
        <time>2019-10-09T15:04:25Z</time>
      </trkpt>
      <trkpt lat="45.10345" lon="5.56183">
        <ele>953.20001220703</ele>
        <time>2019-10-09T15:04:44Z</time>
      </trkpt>
      <trkpt lat="45.1027" lon="5.56145">
        <ele>953.40002441406</ele>
        <time>2019-10-09T15:04:56Z</time>
      </trkpt>
      <trkpt lat="45.10192" lon="5.56096">
        <ele>953.59997558594</ele>
        <time>2019-10-09T15:05:09Z</time>
      </trkpt>
      <trkpt lat="45.10167" lon="5.56079">
        <ele>953.40002441406</ele>
        <time>2019-10-09T15:05:13Z</time>
      </trkpt>
      <trkpt lat="45.10041" lon="5.55986">
        <ele>951.20001220703</ele>
        <time>2019-10-09T15:05:34Z</time>
      </trkpt>
      <trkpt lat="45.10008" lon="5.55942">
        <ele>951.40002441406</ele>
        <time>2019-10-09T15:05:41Z</time>
      </trkpt>
      <trkpt lat="45.09952" lon="5.55865">
        <ele>950.79998779297</ele>
        <time>2019-10-09T15:05:53Z</time>
      </trkpt>
      <trkpt lat="45.09911" lon="5.55834">
        <ele>951</ele>
        <time>2019-10-09T15:06:01Z</time>
      </trkpt>
      <trkpt lat="45.09812" lon="5.55772">
        <ele>952.40002441406</ele>
        <time>2019-10-09T15:06:22Z</time>
      </trkpt>
      <trkpt lat="45.09743" lon="5.55743">
        <ele>952.59997558594</ele>
        <time>2019-10-09T15:06:35Z</time>
      </trkpt>
      <trkpt lat="45.09642" lon="5.55711">
        <ele>952.59997558594</ele>
        <time>2019-10-09T15:06:52Z</time>
      </trkpt>
      <trkpt lat="45.09623" lon="5.55705">
        <ele>952.59997558594</ele>
        <time>2019-10-09T15:06:55Z</time>
      </trkpt>
      <trkpt lat="45.0957" lon="5.55691">
        <ele>951.59997558594</ele>
        <time>2019-10-09T15:07:03Z</time>
      </trkpt>
      <trkpt lat="45.09489" lon="5.55671">
        <ele>950.20001220703</ele>
        <time>2019-10-09T15:07:15Z</time>
      </trkpt>
      <trkpt lat="45.09418" lon="5.55655">
        <ele>949.40002441406</ele>
        <time>2019-10-09T15:07:26Z</time>
      </trkpt>
      <trkpt lat="45.09345" lon="5.55638">
        <ele>949.40002441406</ele>
        <time>2019-10-09T15:07:38Z</time>
      </trkpt>
      <trkpt lat="45.09284" lon="5.55624">
        <ele>948.79998779297</ele>
        <time>2019-10-09T15:07:47Z</time>
      </trkpt>
      <trkpt lat="45.09241" lon="5.55614">
        <ele>948.20001220703</ele>
        <time>2019-10-09T15:07:53Z</time>
      </trkpt>
      <trkpt lat="45.09205" lon="5.55607">
        <ele>947.20001220703</ele>
        <time>2019-10-09T15:07:58Z</time>
      </trkpt>
      <trkpt lat="45.09104" lon="5.55585">
        <ele>945.79998779297</ele>
        <time>2019-10-09T15:08:13Z</time>
      </trkpt>
      <trkpt lat="45.09047" lon="5.55562">
        <ele>945.79998779297</ele>
        <time>2019-10-09T15:08:23Z</time>
      </trkpt>
      <trkpt lat="45.0902" lon="5.55531">
        <ele>946.40002441406</ele>
        <time>2019-10-09T15:08:30Z</time>
      </trkpt>
      <trkpt lat="45.08999" lon="5.55541">
        <ele>947</ele>
        <time>2019-10-09T15:08:34Z</time>
      </trkpt>
      <trkpt lat="45.08899" lon="5.55525">
        <ele>947.40002441406</ele>
        <time>2019-10-09T15:08:52Z</time>
      </trkpt>
      <trkpt lat="45.08838" lon="5.55507">
        <ele>947.40002441406</ele>
        <time>2019-10-09T15:09:03Z</time>
      </trkpt>
      <trkpt lat="45.08738" lon="5.55477">
        <ele>947.59997558594</ele>
        <time>2019-10-09T15:09:24Z</time>
      </trkpt>
      <trkpt lat="45.08681" lon="5.55461">
        <ele>947.79998779297</ele>
        <time>2019-10-09T15:09:34Z</time>
      </trkpt>
      <trkpt lat="45.08618" lon="5.55443">
        <ele>947.59997558594</ele>
        <time>2019-10-09T15:09:45Z</time>
      </trkpt>
      <trkpt lat="45.08536" lon="5.5542">
        <ele>947</ele>
        <time>2019-10-09T15:09:59Z</time>
      </trkpt>
      <trkpt lat="45.08465" lon="5.55402">
        <ele>947</ele>
        <time>2019-10-09T15:10:11Z</time>
      </trkpt>
      <trkpt lat="45.08433" lon="5.55393">
        <ele>947</ele>
        <time>2019-10-09T15:10:17Z</time>
      </trkpt>
      <trkpt lat="45.08406" lon="5.55386">
        <ele>947.59997558594</ele>
        <time>2019-10-09T15:10:23Z</time>
      </trkpt>
      <trkpt lat="45.08372" lon="5.55379">
        <ele>948.20001220703</ele>
        <time>2019-10-09T15:10:31Z</time>
      </trkpt>
      <trkpt lat="45.08315" lon="5.55384">
        <ele>949.79998779297</ele>
        <time>2019-10-09T15:10:43Z</time>
      </trkpt>
      <trkpt lat="45.08272" lon="5.55389">
        <ele>950.40002441406</ele>
        <time>2019-10-09T15:10:52Z</time>
      </trkpt>
      <trkpt lat="45.08216" lon="5.55395">
        <ele>951.59997558594</ele>
        <time>2019-10-09T15:11:03Z</time>
      </trkpt>
      <trkpt lat="45.0814" lon="5.5539">
        <ele>952.40002441406</ele>
        <time>2019-10-09T15:11:18Z</time>
      </trkpt>
      <trkpt lat="45.08074" lon="5.55341">
        <ele>953.59997558594</ele>
        <time>2019-10-09T15:11:32Z</time>
      </trkpt>
      <trkpt lat="45.08012" lon="5.5531">
        <ele>954.20001220703</ele>
        <time>2019-10-09T15:11:46Z</time>
      </trkpt>
      <trkpt lat="45.07998" lon="5.5531">
        <ele>954.20001220703</ele>
        <time>2019-10-09T15:11:49Z</time>
      </trkpt>
      <trkpt lat="45.07978" lon="5.55313">
        <ele>954.20001220703</ele>
        <time>2019-10-09T15:11:53Z</time>
      </trkpt>
      <trkpt lat="45.07957" lon="5.55325">
        <ele>953.59997558594</ele>
        <time>2019-10-09T15:11:58Z</time>
      </trkpt>
      <trkpt lat="45.07943" lon="5.55335">
        <ele>953.20001220703</ele>
        <time>2019-10-09T15:12:01Z</time>
      </trkpt>
      <trkpt lat="45.07914" lon="5.55337">
        <ele>952.40002441406</ele>
        <time>2019-10-09T15:12:08Z</time>
      </trkpt>
      <trkpt lat="45.07914" lon="5.5538">
        <ele>952</ele>
        <time>2019-10-09T15:12:12Z</time>
      </trkpt>
      <trkpt lat="45.07881" lon="5.55472">
        <ele>951.79998779297</ele>
        <time>2019-10-09T15:12:24Z</time>
      </trkpt>
      <trkpt lat="45.07854" lon="5.55554">
        <ele>951.20001220703</ele>
        <time>2019-10-09T15:12:34Z</time>
      </trkpt>
      <trkpt lat="45.0783" lon="5.55606">
        <ele>951.20001220703</ele>
        <time>2019-10-09T15:12:41Z</time>
      </trkpt>
      <trkpt lat="45.0782" lon="5.55614">
        <ele>951.20001220703</ele>
        <time>2019-10-09T15:12:43Z</time>
      </trkpt>
      <trkpt lat="45.07799" lon="5.55623">
        <ele>951.20001220703</ele>
        <time>2019-10-09T15:12:47Z</time>
      </trkpt>
      <trkpt lat="45.07763" lon="5.55613">
        <ele>951.79998779297</ele>
        <time>2019-10-09T15:12:54Z</time>
      </trkpt>
      <trkpt lat="45.07749" lon="5.55592">
        <ele>952.59997558594</ele>
        <time>2019-10-09T15:12:59Z</time>
      </trkpt>
      <trkpt lat="45.07739" lon="5.55567">
        <ele>953</ele>
        <time>2019-10-09T15:13:04Z</time>
      </trkpt>
      <trkpt lat="45.07738" lon="5.55528">
        <ele>954.40002441406</ele>
        <time>2019-10-09T15:13:11Z</time>
      </trkpt>
      <trkpt lat="45.07738" lon="5.55483">
        <ele>956.20001220703</ele>
        <time>2019-10-09T15:13:21Z</time>
      </trkpt>
      <trkpt lat="45.07738" lon="5.5545">
        <ele>957.79998779297</ele>
        <time>2019-10-09T15:13:29Z</time>
      </trkpt>
      <trkpt lat="45.07736" lon="5.55406">
        <ele>959.59997558594</ele>
        <time>2019-10-09T15:13:40Z</time>
      </trkpt>
      <trkpt lat="45.07734" lon="5.55387">
        <ele>960.20001220703</ele>
        <time>2019-10-09T15:13:45Z</time>
      </trkpt>
      <trkpt lat="45.07724" lon="5.55352">
        <ele>962.59997558594</ele>
        <time>2019-10-09T15:13:58Z</time>
      </trkpt>
      <trkpt lat="45.07712" lon="5.55333">
        <ele>964</ele>
        <time>2019-10-09T15:14:11Z</time>
      </trkpt>
      <trkpt lat="45.07693" lon="5.55315">
        <ele>965.20001220703</ele>
        <time>2019-10-09T15:14:20Z</time>
      </trkpt>
      <trkpt lat="45.07674" lon="5.55299">
        <ele>966</ele>
        <time>2019-10-09T15:14:29Z</time>
      </trkpt>
      <trkpt lat="45.0766" lon="5.55288">
        <ele>967.20001220703</ele>
        <time>2019-10-09T15:14:36Z</time>
      </trkpt>
      <trkpt lat="45.07638" lon="5.5527">
        <ele>968.59997558594</ele>
        <time>2019-10-09T15:14:47Z</time>
      </trkpt>
      <trkpt lat="45.0761" lon="5.55258">
        <ele>970.40002441406</ele>
        <time>2019-10-09T15:15:00Z</time>
      </trkpt>
      <trkpt lat="45.07595" lon="5.55255">
        <ele>971.20001220703</ele>
        <time>2019-10-09T15:15:06Z</time>
      </trkpt>
      <trkpt lat="45.07566" lon="5.55262">
        <ele>972.79998779297</ele>
        <time>2019-10-09T15:15:17Z</time>
      </trkpt>
      <trkpt lat="45.07547" lon="5.55275">
        <ele>974.59997558594</ele>
        <time>2019-10-09T15:15:25Z</time>
      </trkpt>
      <trkpt lat="45.07526" lon="5.55291">
        <ele>976.20001220703</ele>
        <time>2019-10-09T15:15:34Z</time>
      </trkpt>
      <trkpt lat="45.07502" lon="5.55309">
        <ele>977.40002441406</ele>
        <time>2019-10-09T15:15:44Z</time>
      </trkpt>
      <trkpt lat="45.07484" lon="5.55323">
        <ele>978.40002441406</ele>
        <time>2019-10-09T15:15:52Z</time>
      </trkpt>
      <trkpt lat="45.07453" lon="5.55347">
        <ele>980</ele>
        <time>2019-10-09T15:16:03Z</time>
      </trkpt>
      <trkpt lat="45.07442" lon="5.55355">
        <ele>981</ele>
        <time>2019-10-09T15:16:12Z</time>
      </trkpt>
      <trkpt lat="45.07438" lon="5.55358">
        <ele>981.40002441406</ele>
        <time>2019-10-09T15:16:19Z</time>
      </trkpt>
      <trkpt lat="45.07438" lon="5.55359">
        <ele>981.59997558594</ele>
        <time>2019-10-09T15:17:25Z</time>
      </trkpt>
      <trkpt lat="45.07435" lon="5.55361">
        <ele>981.79998779297</ele>
        <time>2019-10-09T15:17:36Z</time>
      </trkpt>
      <trkpt lat="45.07413" lon="5.55377">
        <ele>1004.200012207</ele>
        <time>2019-10-10T06:31:14Z</time>
      </trkpt>
      <trkpt lat="45.07402" lon="5.55385">
        <ele>1004.5999755859</ele>
        <time>2019-10-10T06:31:21Z</time>
      </trkpt>
      <trkpt lat="45.07385" lon="5.55398">
        <ele>1004.799987793</ele>
        <time>2019-10-10T06:31:28Z</time>
      </trkpt>
      <trkpt lat="45.07328" lon="5.55379">
        <ele>1006</ele>
        <time>2019-10-10T06:31:45Z</time>
      </trkpt>
      <trkpt lat="45.073" lon="5.5534">
        <ele>1006.5999755859</ele>
        <time>2019-10-10T06:31:56Z</time>
      </trkpt>
      <trkpt lat="45.07272" lon="5.55296">
        <ele>1007.4000244141</ele>
        <time>2019-10-10T06:32:08Z</time>
      </trkpt>
      <trkpt lat="45.07228" lon="5.55232">
        <ele>1008.5999755859</ele>
        <time>2019-10-10T06:32:27Z</time>
      </trkpt>
      <trkpt lat="45.07205" lon="5.552">
        <ele>1009.5999755859</ele>
        <time>2019-10-10T06:32:37Z</time>
      </trkpt>
      <trkpt lat="45.07187" lon="5.55175">
        <ele>1010.4000244141</ele>
        <time>2019-10-10T06:32:45Z</time>
      </trkpt>
      <trkpt lat="45.07158" lon="5.55156">
        <ele>1011.5999755859</ele>
        <time>2019-10-10T06:32:56Z</time>
      </trkpt>
      <trkpt lat="45.07121" lon="5.55136">
        <ele>1012.200012207</ele>
        <time>2019-10-10T06:33:10Z</time>
      </trkpt>
      <trkpt lat="45.07113" lon="5.55131">
        <ele>1012.200012207</ele>
        <time>2019-10-10T06:33:12Z</time>
      </trkpt>
      <trkpt lat="45.0709" lon="5.55117">
        <ele>1012.200012207</ele>
        <time>2019-10-10T06:33:19Z</time>
      </trkpt>
      <trkpt lat="45.07049" lon="5.55108">
        <ele>1011.799987793</ele>
        <time>2019-10-10T06:33:32Z</time>
      </trkpt>
      <trkpt lat="45.07031" lon="5.55085">
        <ele>1012.200012207</ele>
        <time>2019-10-10T06:33:46Z</time>
      </trkpt>
      <trkpt lat="45.07018" lon="5.551">
        <ele>1012.4000244141</ele>
        <time>2019-10-10T06:33:50Z</time>
      </trkpt>
      <trkpt lat="45.07008" lon="5.55052">
        <ele>1012.200012207</ele>
        <time>2019-10-10T06:33:55Z</time>
      </trkpt>
      <trkpt lat="45.07001" lon="5.55045">
        <ele>1012.200012207</ele>
        <time>2019-10-10T06:33:57Z</time>
      </trkpt>
      <trkpt lat="45.06994" lon="5.55032">
        <ele>1012.200012207</ele>
        <time>2019-10-10T06:33:59Z</time>
      </trkpt>
      <trkpt lat="45.06971" lon="5.5499">
        <ele>1011</ele>
        <time>2019-10-10T06:34:05Z</time>
      </trkpt>
      <trkpt lat="45.06955" lon="5.54979">
        <ele>1010.4000244141</ele>
        <time>2019-10-10T06:34:08Z</time>
      </trkpt>
      <trkpt lat="45.06933" lon="5.54968">
        <ele>1009.799987793</ele>
        <time>2019-10-10T06:34:13Z</time>
      </trkpt>
      <trkpt lat="45.06924" lon="5.54964">
        <ele>1008.5999755859</ele>
        <time>2019-10-10T06:34:18Z</time>
      </trkpt>
      <trkpt lat="45.06915" lon="5.5498">
        <ele>1006.200012207</ele>
        <time>2019-10-10T06:34:26Z</time>
      </trkpt>
      <trkpt lat="45.0691" lon="5.55005">
        <ele>1005.799987793</ele>
        <time>2019-10-10T06:34:31Z</time>
      </trkpt>
      <trkpt lat="45.06904" lon="5.55032">
        <ele>1005</ele>
        <time>2019-10-10T06:34:38Z</time>
      </trkpt>
      <trkpt lat="45.069" lon="5.55031">
        <ele>1003.4000244141</ele>
        <time>2019-10-10T06:35:08Z</time>
      </trkpt>
      <trkpt lat="45.06907" lon="5.55018">
        <ele>1003.5999755859</ele>
        <time>2019-10-10T06:35:14Z</time>
      </trkpt>
      <trkpt lat="45.06912" lon="5.54996">
        <ele>1004</ele>
        <time>2019-10-10T06:35:20Z</time>
      </trkpt>
      <trkpt lat="45.06914" lon="5.54984">
        <ele>1004.4000244141</ele>
        <time>2019-10-10T06:35:25Z</time>
      </trkpt>
      <trkpt lat="45.06916" lon="5.54975">
        <ele>1004.799987793</ele>
        <time>2019-10-10T06:35:29Z</time>
      </trkpt>
      <trkpt lat="45.06922" lon="5.54952">
        <ele>1005</ele>
        <time>2019-10-10T06:35:32Z</time>
      </trkpt>
      <trkpt lat="45.06919" lon="5.54907">
        <ele>1005</ele>
        <time>2019-10-10T06:35:40Z</time>
      </trkpt>
      <trkpt lat="45.06918" lon="5.54891">
        <ele>1004.4000244141</ele>
        <time>2019-10-10T06:35:47Z</time>
      </trkpt>
      <trkpt lat="45.06917" lon="5.54892">
        <ele>1003.5999755859</ele>
        <time>2019-10-10T06:35:51Z</time>
      </trkpt>
      <trkpt lat="45.06919" lon="5.54913">
        <ele>1003.200012207</ele>
        <time>2019-10-10T06:36:01Z</time>
      </trkpt>
      <trkpt lat="45.06919" lon="5.54925">
        <ele>1003.200012207</ele>
        <time>2019-10-10T06:36:04Z</time>
      </trkpt>
      <trkpt lat="45.06914" lon="5.54982">
        <ele>1005</ele>
        <time>2019-10-10T06:36:16Z</time>
      </trkpt>
      <trkpt lat="45.06905" lon="5.55027">
        <ele>1005</ele>
        <time>2019-10-10T06:36:24Z</time>
      </trkpt>
      <trkpt lat="45.06897" lon="5.55068">
        <ele>1004.200012207</ele>
        <time>2019-10-10T06:36:29Z</time>
      </trkpt>
      <trkpt lat="45.06883" lon="5.55141">
        <ele>1002.799987793</ele>
        <time>2019-10-10T06:36:36Z</time>
      </trkpt>
      <trkpt lat="45.06878" lon="5.55164">
        <ele>1002.200012207</ele>
        <time>2019-10-10T06:36:38Z</time>
      </trkpt>
      <trkpt lat="45.0685" lon="5.55259">
        <ele>998.40002441406</ele>
        <time>2019-10-10T06:36:47Z</time>
      </trkpt>
      <trkpt lat="45.06838" lon="5.55296">
        <ele>996.59997558594</ele>
        <time>2019-10-10T06:36:51Z</time>
      </trkpt>
      <trkpt lat="45.06824" lon="5.55318">
        <ele>996</ele>
        <time>2019-10-10T06:36:55Z</time>
      </trkpt>
      <trkpt lat="45.06811" lon="5.55325">
        <ele>995.40002441406</ele>
        <time>2019-10-10T06:36:57Z</time>
      </trkpt>
      <trkpt lat="45.06803" lon="5.55323">
        <ele>994.59997558594</ele>
        <time>2019-10-10T06:36:59Z</time>
      </trkpt>
      <trkpt lat="45.06759" lon="5.55283">
        <ele>991.59997558594</ele>
        <time>2019-10-10T06:37:07Z</time>
      </trkpt>
      <trkpt lat="45.06752" lon="5.55264">
        <ele>991</ele>
        <time>2019-10-10T06:37:09Z</time>
      </trkpt>
      <trkpt lat="45.06749" lon="5.55221">
        <ele>989.59997558594</ele>
        <time>2019-10-10T06:37:13Z</time>
      </trkpt>
      <trkpt lat="45.06749" lon="5.55173">
        <ele>988.59997558594</ele>
        <time>2019-10-10T06:37:17Z</time>
      </trkpt>
      <trkpt lat="45.0675" lon="5.55124">
        <ele>987.79998779297</ele>
        <time>2019-10-10T06:37:21Z</time>
      </trkpt>
      <trkpt lat="45.06751" lon="5.55055">
        <ele>985.59997558594</ele>
        <time>2019-10-10T06:37:27Z</time>
      </trkpt>
      <trkpt lat="45.06753" lon="5.54996">
        <ele>983</ele>
        <time>2019-10-10T06:37:32Z</time>
      </trkpt>
      <trkpt lat="45.06753" lon="5.54964">
        <ele>981.40002441406</ele>
        <time>2019-10-10T06:37:35Z</time>
      </trkpt>
      <trkpt lat="45.06754" lon="5.54874">
        <ele>978</ele>
        <time>2019-10-10T06:37:43Z</time>
      </trkpt>
      <trkpt lat="45.06754" lon="5.54849">
        <ele>977</ele>
        <time>2019-10-10T06:37:45Z</time>
      </trkpt>
      <trkpt lat="45.06755" lon="5.54769">
        <ele>974.79998779297</ele>
        <time>2019-10-10T06:37:52Z</time>
      </trkpt>
      <trkpt lat="45.06749" lon="5.54717">
        <ele>972.20001220703</ele>
        <time>2019-10-10T06:37:57Z</time>
      </trkpt>
      <trkpt lat="45.06736" lon="5.54662">
        <ele>970</ele>
        <time>2019-10-10T06:38:02Z</time>
      </trkpt>
      <trkpt lat="45.06725" lon="5.54621">
        <ele>967.20001220703</ele>
        <time>2019-10-10T06:38:08Z</time>
      </trkpt>
      <trkpt lat="45.06732" lon="5.54611">
        <ele>965.59997558594</ele>
        <time>2019-10-10T06:38:11Z</time>
      </trkpt>
      <trkpt lat="45.06731" lon="5.54597">
        <ele>964.20001220703</ele>
        <time>2019-10-10T06:38:15Z</time>
      </trkpt>
      <trkpt lat="45.06718" lon="5.54569">
        <ele>963.20001220703</ele>
        <time>2019-10-10T06:38:22Z</time>
      </trkpt>
      <trkpt lat="45.06737" lon="5.54566">
        <ele>963</ele>
        <time>2019-10-10T06:38:28Z</time>
      </trkpt>
      <trkpt lat="45.06755" lon="5.54557">
        <ele>963.40002441406</ele>
        <time>2019-10-10T06:38:34Z</time>
      </trkpt>
      <trkpt lat="45.06776" lon="5.54543">
        <ele>964.59997558594</ele>
        <time>2019-10-10T06:38:41Z</time>
      </trkpt>
      <trkpt lat="45.06791" lon="5.54533">
        <ele>966</ele>
        <time>2019-10-10T06:38:48Z</time>
      </trkpt>
      <trkpt lat="45.06816" lon="5.54519">
        <ele>967.79998779297</ele>
        <time>2019-10-10T06:39:00Z</time>
      </trkpt>
      <trkpt lat="45.06831" lon="5.54512">
        <ele>968.79998779297</ele>
        <time>2019-10-10T06:39:06Z</time>
      </trkpt>
      <trkpt lat="45.06858" lon="5.54499">
        <ele>971.40002441406</ele>
        <time>2019-10-10T06:39:20Z</time>
      </trkpt>
      <trkpt lat="45.06878" lon="5.54493">
        <ele>972.40002441406</ele>
        <time>2019-10-10T06:39:29Z</time>
      </trkpt>
      <trkpt lat="45.06893" lon="5.54492">
        <ele>973.79998779297</ele>
        <time>2019-10-10T06:39:37Z</time>
      </trkpt>
      <trkpt lat="45.0691" lon="5.54494">
        <ele>975.20001220703</ele>
        <time>2019-10-10T06:39:46Z</time>
      </trkpt>
      <trkpt lat="45.06926" lon="5.54496">
        <ele>976.79998779297</ele>
        <time>2019-10-10T06:39:55Z</time>
      </trkpt>
      <trkpt lat="45.06942" lon="5.54497">
        <ele>978.59997558594</ele>
        <time>2019-10-10T06:40:06Z</time>
      </trkpt>
      <trkpt lat="45.06951" lon="5.54498">
        <ele>979</ele>
        <time>2019-10-10T06:40:10Z</time>
      </trkpt>
      <trkpt lat="45.06967" lon="5.545">
        <ele>980.59997558594</ele>
        <time>2019-10-10T06:40:18Z</time>
      </trkpt>
      <trkpt lat="45.06982" lon="5.54501">
        <ele>982.20001220703</ele>
        <time>2019-10-10T06:40:26Z</time>
      </trkpt>
      <trkpt lat="45.06998" lon="5.54505">
        <ele>984</ele>
        <time>2019-10-10T06:40:35Z</time>
      </trkpt>
      <trkpt lat="45.07019" lon="5.54505">
        <ele>985.79998779297</ele>
        <time>2019-10-10T06:40:46Z</time>
      </trkpt>
      <trkpt lat="45.07044" lon="5.54498">
        <ele>987.79998779297</ele>
        <time>2019-10-10T06:41:00Z</time>
      </trkpt>
      <trkpt lat="45.07055" lon="5.54494">
        <ele>988.59997558594</ele>
        <time>2019-10-10T06:41:06Z</time>
      </trkpt>
      <trkpt lat="45.07078" lon="5.54486">
        <ele>990.40002441406</ele>
        <time>2019-10-10T06:41:19Z</time>
      </trkpt>
      <trkpt lat="45.07092" lon="5.54481">
        <ele>991.40002441406</ele>
        <time>2019-10-10T06:41:26Z</time>
      </trkpt>
      <trkpt lat="45.07115" lon="5.54469">
        <ele>993.59997558594</ele>
        <time>2019-10-10T06:41:40Z</time>
      </trkpt>
      <trkpt lat="45.07137" lon="5.54439">
        <ele>996.20001220703</ele>
        <time>2019-10-10T06:41:55Z</time>
      </trkpt>
      <trkpt lat="45.07155" lon="5.54408">
        <ele>997.40002441406</ele>
        <time>2019-10-10T06:42:05Z</time>
      </trkpt>
      <trkpt lat="45.07186" lon="5.54334">
        <ele>998.79998779297</ele>
        <time>2019-10-10T06:42:26Z</time>
      </trkpt>
      <trkpt lat="45.07183" lon="5.54291">
        <ele>999.79998779297</ele>
        <time>2019-10-10T06:42:36Z</time>
      </trkpt>
      <trkpt lat="45.07164" lon="5.54242">
        <ele>1001</ele>
        <time>2019-10-10T06:42:49Z</time>
      </trkpt>
      <trkpt lat="45.07148" lon="5.54204">
        <ele>1001.5999755859</ele>
        <time>2019-10-10T06:42:58Z</time>
      </trkpt>
      <trkpt lat="45.07136" lon="5.54177">
        <ele>1002.4000244141</ele>
        <time>2019-10-10T06:43:05Z</time>
      </trkpt>
      <trkpt lat="45.07127" lon="5.54156">
        <ele>1003.4000244141</ele>
        <time>2019-10-10T06:43:11Z</time>
      </trkpt>
      <trkpt lat="45.0712" lon="5.54129">
        <ele>1004.799987793</ele>
        <time>2019-10-10T06:43:20Z</time>
      </trkpt>
      <trkpt lat="45.07112" lon="5.54096">
        <ele>1006.5999755859</ele>
        <time>2019-10-10T06:43:31Z</time>
      </trkpt>
      <trkpt lat="45.07098" lon="5.5406">
        <ele>1009.200012207</ele>
        <time>2019-10-10T06:43:47Z</time>
      </trkpt>
      <trkpt lat="45.07087" lon="5.54042">
        <ele>1010.4000244141</ele>
        <time>2019-10-10T06:43:55Z</time>
      </trkpt>
      <trkpt lat="45.07068" lon="5.54011">
        <ele>1012.200012207</ele>
        <time>2019-10-10T06:44:09Z</time>
      </trkpt>
      <trkpt lat="45.07059" lon="5.53996">
        <ele>1013.200012207</ele>
        <time>2019-10-10T06:44:17Z</time>
      </trkpt>
      <trkpt lat="45.07051" lon="5.53983">
        <ele>1014.200012207</ele>
        <time>2019-10-10T06:44:23Z</time>
      </trkpt>
      <trkpt lat="45.07019" lon="5.53951">
        <ele>1016.5999755859</ele>
        <time>2019-10-10T06:44:38Z</time>
      </trkpt>
      <trkpt lat="45.07013" lon="5.53948">
        <ele>1017.200012207</ele>
        <time>2019-10-10T06:44:42Z</time>
      </trkpt>
      <trkpt lat="45.06992" lon="5.53938">
        <ele>1018.5999755859</ele>
        <time>2019-10-10T06:44:52Z</time>
      </trkpt>
      <trkpt lat="45.06982" lon="5.53934">
        <ele>1019.5999755859</ele>
        <time>2019-10-10T06:44:58Z</time>
      </trkpt>
      <trkpt lat="45.06958" lon="5.53923">
        <ele>1021.799987793</ele>
        <time>2019-10-10T06:45:10Z</time>
      </trkpt>
      <trkpt lat="45.06936" lon="5.53912">
        <ele>1023.200012207</ele>
        <time>2019-10-10T06:45:18Z</time>
      </trkpt>
      <trkpt lat="45.06907" lon="5.5389">
        <ele>1024.8000488281</ele>
        <time>2019-10-10T06:45:29Z</time>
      </trkpt>
      <trkpt lat="45.06893" lon="5.53879">
        <ele>1026.4000244141</ele>
        <time>2019-10-10T06:45:37Z</time>
      </trkpt>
      <trkpt lat="45.06879" lon="5.53868">
        <ele>1027.5999755859</ele>
        <time>2019-10-10T06:45:47Z</time>
      </trkpt>
      <trkpt lat="45.06864" lon="5.53857">
        <ele>1028.4000244141</ele>
        <time>2019-10-10T06:45:53Z</time>
      </trkpt>
      <trkpt lat="45.06849" lon="5.53845">
        <ele>1031</ele>
        <time>2019-10-10T06:46:09Z</time>
      </trkpt>
      <trkpt lat="45.06841" lon="5.53839">
        <ele>1032</ele>
        <time>2019-10-10T06:46:17Z</time>
      </trkpt>
      <trkpt lat="45.0683" lon="5.5383">
        <ele>1033.1999511719</ele>
        <time>2019-10-10T06:46:25Z</time>
      </trkpt>
      <trkpt lat="45.06824" lon="5.53826">
        <ele>1033.8000488281</ele>
        <time>2019-10-10T06:46:29Z</time>
      </trkpt>
      <trkpt lat="45.06816" lon="5.53819">
        <ele>1034.8000488281</ele>
        <time>2019-10-10T06:46:35Z</time>
      </trkpt>
      <trkpt lat="45.06796" lon="5.53804">
        <ele>1036.8000488281</ele>
        <time>2019-10-10T06:46:45Z</time>
      </trkpt>
      <trkpt lat="45.06786" lon="5.53798">
        <ele>1038.1999511719</ele>
        <time>2019-10-10T06:46:52Z</time>
      </trkpt>
      <trkpt lat="45.06766" lon="5.53787">
        <ele>1040.4000244141</ele>
        <time>2019-10-10T06:47:05Z</time>
      </trkpt>
      <trkpt lat="45.06757" lon="5.53781">
        <ele>1041.4000244141</ele>
        <time>2019-10-10T06:47:11Z</time>
      </trkpt>
      <trkpt lat="45.06734" lon="5.53768">
        <ele>1043.4000244141</ele>
        <time>2019-10-10T06:47:24Z</time>
      </trkpt>
      <trkpt lat="45.06719" lon="5.53759">
        <ele>1044.5999755859</ele>
        <time>2019-10-10T06:47:32Z</time>
      </trkpt>
      <trkpt lat="45.06699" lon="5.53745">
        <ele>1046.8000488281</ele>
        <time>2019-10-10T06:47:44Z</time>
      </trkpt>
      <trkpt lat="45.06689" lon="5.53735">
        <ele>1048</ele>
        <time>2019-10-10T06:47:52Z</time>
      </trkpt>
      <trkpt lat="45.06668" lon="5.53716">
        <ele>1050.8000488281</ele>
        <time>2019-10-10T06:48:06Z</time>
      </trkpt>
      <trkpt lat="45.06657" lon="5.53705">
        <ele>1051.5999755859</ele>
        <time>2019-10-10T06:48:11Z</time>
      </trkpt>
      <trkpt lat="45.06641" lon="5.5369">
        <ele>1053</ele>
        <time>2019-10-10T06:48:19Z</time>
      </trkpt>
      <trkpt lat="45.06628" lon="5.53678">
        <ele>1054</ele>
        <time>2019-10-10T06:48:27Z</time>
      </trkpt>
      <trkpt lat="45.06617" lon="5.53669">
        <ele>1055.4000244141</ele>
        <time>2019-10-10T06:48:34Z</time>
      </trkpt>
      <trkpt lat="45.06599" lon="5.53652">
        <ele>1057.8000488281</ele>
        <time>2019-10-10T06:48:47Z</time>
      </trkpt>
      <trkpt lat="45.06589" lon="5.53638">
        <ele>1059.1999511719</ele>
        <time>2019-10-10T06:48:54Z</time>
      </trkpt>
      <trkpt lat="45.06583" lon="5.53613">
        <ele>1060.5999755859</ele>
        <time>2019-10-10T06:49:03Z</time>
      </trkpt>
      <trkpt lat="45.06589" lon="5.53598">
        <ele>1061.4000244141</ele>
        <time>2019-10-10T06:49:08Z</time>
      </trkpt>
      <trkpt lat="45.06602" lon="5.53582">
        <ele>1063</ele>
        <time>2019-10-10T06:49:17Z</time>
      </trkpt>
      <trkpt lat="45.0661" lon="5.53575">
        <ele>1064.4000244141</ele>
        <time>2019-10-10T06:49:23Z</time>
      </trkpt>
      <trkpt lat="45.0662" lon="5.53569">
        <ele>1065.4000244141</ele>
        <time>2019-10-10T06:49:30Z</time>
      </trkpt>
      <trkpt lat="45.06635" lon="5.53564">
        <ele>1067</ele>
        <time>2019-10-10T06:49:40Z</time>
      </trkpt>
      <trkpt lat="45.06655" lon="5.53558">
        <ele>1069</ele>
        <time>2019-10-10T06:49:50Z</time>
      </trkpt>
      <trkpt lat="45.06657" lon="5.53557">
        <ele>1070.4000244141</ele>
        <time>2019-10-10T06:50:19Z</time>
      </trkpt>
      <trkpt lat="45.06669" lon="5.53554">
        <ele>1070.5999755859</ele>
        <time>2019-10-10T06:50:27Z</time>
      </trkpt>
      <trkpt lat="45.06677" lon="5.53551">
        <ele>1071.4000244141</ele>
        <time>2019-10-10T06:50:33Z</time>
      </trkpt>
      <trkpt lat="45.06686" lon="5.5355">
        <ele>1072.1999511719</ele>
        <time>2019-10-10T06:50:38Z</time>
      </trkpt>
      <trkpt lat="45.06708" lon="5.53546">
        <ele>1074.8000488281</ele>
        <time>2019-10-10T06:50:51Z</time>
      </trkpt>
      <trkpt lat="45.0672" lon="5.53543">
        <ele>1075.8000488281</ele>
        <time>2019-10-10T06:50:58Z</time>
      </trkpt>
      <trkpt lat="45.06747" lon="5.53538">
        <ele>1078</ele>
        <time>2019-10-10T06:51:11Z</time>
      </trkpt>
      <trkpt lat="45.06759" lon="5.53536">
        <ele>1078.8000488281</ele>
        <time>2019-10-10T06:51:17Z</time>
      </trkpt>
      <trkpt lat="45.06782" lon="5.53531">
        <ele>1080.8000488281</ele>
        <time>2019-10-10T06:51:28Z</time>
      </trkpt>
      <trkpt lat="45.06795" lon="5.53527">
        <ele>1082</ele>
        <time>2019-10-10T06:51:36Z</time>
      </trkpt>
      <trkpt lat="45.06813" lon="5.53519">
        <ele>1083.1999511719</ele>
        <time>2019-10-10T06:51:45Z</time>
      </trkpt>
      <trkpt lat="45.06826" lon="5.53511">
        <ele>1084.1999511719</ele>
        <time>2019-10-10T06:51:52Z</time>
      </trkpt>
      <trkpt lat="45.06844" lon="5.53499">
        <ele>1086.1999511719</ele>
        <time>2019-10-10T06:52:01Z</time>
      </trkpt>
      <trkpt lat="45.06851" lon="5.53481">
        <ele>1087.1999511719</ele>
        <time>2019-10-10T06:52:08Z</time>
      </trkpt>
      <trkpt lat="45.06853" lon="5.53456">
        <ele>1089.5999755859</ele>
        <time>2019-10-10T06:52:20Z</time>
      </trkpt>
      <trkpt lat="45.06856" lon="5.5344">
        <ele>1091</ele>
        <time>2019-10-10T06:52:27Z</time>
      </trkpt>
      <trkpt lat="45.06858" lon="5.53425">
        <ele>1091.8000488281</ele>
        <time>2019-10-10T06:52:33Z</time>
      </trkpt>
      <trkpt lat="45.06861" lon="5.53405">
        <ele>1093.8000488281</ele>
        <time>2019-10-10T06:52:43Z</time>
      </trkpt>
      <trkpt lat="45.06862" lon="5.5339">
        <ele>1094.8000488281</ele>
        <time>2019-10-10T06:52:49Z</time>
      </trkpt>
      <trkpt lat="45.06859" lon="5.53356">
        <ele>1097</ele>
        <time>2019-10-10T06:53:01Z</time>
      </trkpt>
      <trkpt lat="45.06849" lon="5.53325">
        <ele>1098.1999511719</ele>
        <time>2019-10-10T06:53:08Z</time>
      </trkpt>
      <trkpt lat="45.06825" lon="5.53299">
        <ele>1099.5999755859</ele>
        <time>2019-10-10T06:53:20Z</time>
      </trkpt>
      <trkpt lat="45.06798" lon="5.53283">
        <ele>1101.4000244141</ele>
        <time>2019-10-10T06:53:31Z</time>
      </trkpt>
      <trkpt lat="45.06773" lon="5.5327">
        <ele>1103.4000244141</ele>
        <time>2019-10-10T06:53:43Z</time>
      </trkpt>
      <trkpt lat="45.06756" lon="5.53262">
        <ele>1104.4000244141</ele>
        <time>2019-10-10T06:53:50Z</time>
      </trkpt>
      <trkpt lat="45.06718" lon="5.53254">
        <ele>1107</ele>
        <time>2019-10-10T06:54:05Z</time>
      </trkpt>
      <trkpt lat="45.06695" lon="5.53252">
        <ele>1108</ele>
        <time>2019-10-10T06:54:13Z</time>
      </trkpt>
      <trkpt lat="45.06654" lon="5.53253">
        <ele>1110</ele>
        <time>2019-10-10T06:54:27Z</time>
      </trkpt>
      <trkpt lat="45.06626" lon="5.53253">
        <ele>1110.8000488281</ele>
        <time>2019-10-10T06:54:36Z</time>
      </trkpt>
      <trkpt lat="45.066" lon="5.53248">
        <ele>1111.8000488281</ele>
        <time>2019-10-10T06:54:44Z</time>
      </trkpt>
      <trkpt lat="45.06553" lon="5.53207">
        <ele>1113.5999755859</ele>
        <time>2019-10-10T06:55:01Z</time>
      </trkpt>
      <trkpt lat="45.06554" lon="5.53201">
        <ele>1113.8000488281</ele>
        <time>2019-10-10T06:55:04Z</time>
      </trkpt>
      <trkpt lat="45.06558" lon="5.53188">
        <ele>1114</ele>
        <time>2019-10-10T06:55:11Z</time>
      </trkpt>
      <trkpt lat="45.06559" lon="5.53185">
        <ele>1113.8000488281</ele>
        <time>2019-10-10T06:55:30Z</time>
      </trkpt>
      <trkpt lat="45.06576" lon="5.5314">
        <ele>1113.8000488281</ele>
        <time>2019-10-10T06:55:40Z</time>
      </trkpt>
      <trkpt lat="45.06585" lon="5.53105">
        <ele>1114.1999511719</ele>
        <time>2019-10-10T06:55:48Z</time>
      </trkpt>
      <trkpt lat="45.0659" lon="5.53051">
        <ele>1114.8000488281</ele>
        <time>2019-10-10T06:55:59Z</time>
      </trkpt>
      <trkpt lat="45.06593" lon="5.53021">
        <ele>1115.5999755859</ele>
        <time>2019-10-10T06:56:05Z</time>
      </trkpt>
      <trkpt lat="45.06596" lon="5.52979">
        <ele>1117.1999511719</ele>
        <time>2019-10-10T06:56:14Z</time>
      </trkpt>
      <trkpt lat="45.06599" lon="5.52949">
        <ele>1118</ele>
        <time>2019-10-10T06:56:20Z</time>
      </trkpt>
      <trkpt lat="45.06604" lon="5.52883">
        <ele>1119.4000244141</ele>
        <time>2019-10-10T06:56:33Z</time>
      </trkpt>
      <trkpt lat="45.06609" lon="5.52827">
        <ele>1120.8000488281</ele>
        <time>2019-10-10T06:56:45Z</time>
      </trkpt>
      <trkpt lat="45.06608" lon="5.5277">
        <ele>1122.4000244141</ele>
        <time>2019-10-10T06:56:57Z</time>
      </trkpt>
      <trkpt lat="45.06585" lon="5.52701">
        <ele>1124.1999511719</ele>
        <time>2019-10-10T06:57:13Z</time>
      </trkpt>
      <trkpt lat="45.06563" lon="5.52656">
        <ele>1124.8000488281</ele>
        <time>2019-10-10T06:57:23Z</time>
      </trkpt>
      <trkpt lat="45.06513" lon="5.52546">
        <ele>1126</ele>
        <time>2019-10-10T06:57:45Z</time>
      </trkpt>
      <trkpt lat="45.06501" lon="5.52503">
        <ele>1126</ele>
        <time>2019-10-10T06:57:52Z</time>
      </trkpt>
      <trkpt lat="45.06474" lon="5.52451">
        <ele>1126.8000488281</ele>
        <time>2019-10-10T06:58:02Z</time>
      </trkpt>
      <trkpt lat="45.06453" lon="5.52434">
        <ele>1126.8000488281</ele>
        <time>2019-10-10T06:58:07Z</time>
      </trkpt>
      <trkpt lat="45.06371" lon="5.52457">
        <ele>1127</ele>
        <time>2019-10-10T06:58:24Z</time>
      </trkpt>
      <trkpt lat="45.06329" lon="5.52474">
        <ele>1127</ele>
        <time>2019-10-10T06:58:33Z</time>
      </trkpt>
      <trkpt lat="45.0625" lon="5.52477">
        <ele>1126.5999755859</ele>
        <time>2019-10-10T06:58:48Z</time>
      </trkpt>
      <trkpt lat="45.06209" lon="5.52449">
        <ele>1126</ele>
        <time>2019-10-10T06:58:56Z</time>
      </trkpt>
      <trkpt lat="45.06119" lon="5.52416">
        <ele>1125.8000488281</ele>
        <time>2019-10-10T06:59:12Z</time>
      </trkpt>
      <trkpt lat="45.06077" lon="5.52398">
        <ele>1125.5999755859</ele>
        <time>2019-10-10T06:59:20Z</time>
      </trkpt>
      <trkpt lat="45.06066" lon="5.52374">
        <ele>1125.5999755859</ele>
        <time>2019-10-10T06:59:24Z</time>
      </trkpt>
      <trkpt lat="45.06061" lon="5.52354">
        <ele>1125.5999755859</ele>
        <time>2019-10-10T06:59:27Z</time>
      </trkpt>
      <trkpt lat="45.06051" lon="5.52314">
        <ele>1126</ele>
        <time>2019-10-10T06:59:33Z</time>
      </trkpt>
      <trkpt lat="45.06018" lon="5.52304">
        <ele>1126</ele>
        <time>2019-10-10T06:59:41Z</time>
      </trkpt>
      <trkpt lat="45.05994" lon="5.52299">
        <ele>1126</ele>
        <time>2019-10-10T06:59:46Z</time>
      </trkpt>
      <trkpt lat="45.05904" lon="5.52276">
        <ele>1125.1999511719</ele>
        <time>2019-10-10T07:00:05Z</time>
      </trkpt>
      <trkpt lat="45.05806" lon="5.52222">
        <ele>1124.5999755859</ele>
        <time>2019-10-10T07:00:24Z</time>
      </trkpt>
      <trkpt lat="45.05713" lon="5.52192">
        <ele>1125.1999511719</ele>
        <time>2019-10-10T07:00:43Z</time>
      </trkpt>
      <trkpt lat="45.05684" lon="5.52176">
        <ele>1125.5999755859</ele>
        <time>2019-10-10T07:00:49Z</time>
      </trkpt>
      <trkpt lat="45.05634" lon="5.52122">
        <ele>1126.4000244141</ele>
        <time>2019-10-10T07:01:02Z</time>
      </trkpt>
      <trkpt lat="45.05617" lon="5.5208">
        <ele>1126.5999755859</ele>
        <time>2019-10-10T07:01:09Z</time>
      </trkpt>
      <trkpt lat="45.05588" lon="5.51991">
        <ele>1127.5999755859</ele>
        <time>2019-10-10T07:01:24Z</time>
      </trkpt>
      <trkpt lat="45.05588" lon="5.51953">
        <ele>1127.8000488281</ele>
        <time>2019-10-10T07:01:29Z</time>
      </trkpt>
      <trkpt lat="45.05561" lon="5.51863">
        <ele>1128</ele>
        <time>2019-10-10T07:01:43Z</time>
      </trkpt>
      <trkpt lat="45.05562" lon="5.51835">
        <ele>1128</ele>
        <time>2019-10-10T07:01:47Z</time>
      </trkpt>
      <trkpt lat="45.05567" lon="5.51823">
        <ele>1127.8000488281</ele>
        <time>2019-10-10T07:01:49Z</time>
      </trkpt>
      <trkpt lat="45.05585" lon="5.51775">
        <ele>1128</ele>
        <time>2019-10-10T07:01:56Z</time>
      </trkpt>
      <trkpt lat="45.05576" lon="5.51752">
        <ele>1127.8000488281</ele>
        <time>2019-10-10T07:02:00Z</time>
      </trkpt>
      <trkpt lat="45.0557" lon="5.51705">
        <ele>1128</ele>
        <time>2019-10-10T07:02:06Z</time>
      </trkpt>
      <trkpt lat="45.05567" lon="5.51677">
        <ele>1128</ele>
        <time>2019-10-10T07:02:11Z</time>
      </trkpt>
      <trkpt lat="45.0555" lon="5.5165">
        <ele>1128</ele>
        <time>2019-10-10T07:02:17Z</time>
      </trkpt>
      <trkpt lat="45.05539" lon="5.51607">
        <ele>1128</ele>
        <time>2019-10-10T07:02:24Z</time>
      </trkpt>
      <trkpt lat="45.05534" lon="5.51551">
        <ele>1129.4000244141</ele>
        <time>2019-10-10T07:02:35Z</time>
      </trkpt>
      <trkpt lat="45.05549" lon="5.51527">
        <ele>1130.5999755859</ele>
        <time>2019-10-10T07:02:42Z</time>
      </trkpt>
      <trkpt lat="45.05576" lon="5.5152">
        <ele>1132.5999755859</ele>
        <time>2019-10-10T07:02:53Z</time>
      </trkpt>
      <trkpt lat="45.05586" lon="5.51515">
        <ele>1133.5999755859</ele>
        <time>2019-10-10T07:02:57Z</time>
      </trkpt>
      <trkpt lat="45.05611" lon="5.51483">
        <ele>1135.8000488281</ele>
        <time>2019-10-10T07:03:09Z</time>
      </trkpt>
      <trkpt lat="45.05609" lon="5.51443">
        <ele>1138</ele>
        <time>2019-10-10T07:03:21Z</time>
      </trkpt>
      <trkpt lat="45.05601" lon="5.51412">
        <ele>1139.1999511719</ele>
        <time>2019-10-10T07:03:29Z</time>
      </trkpt>
      <trkpt lat="45.05627" lon="5.51369">
        <ele>1142.4000244141</ele>
        <time>2019-10-10T07:03:47Z</time>
      </trkpt>
      <trkpt lat="45.05637" lon="5.51354">
        <ele>1143.4000244141</ele>
        <time>2019-10-10T07:03:53Z</time>
      </trkpt>
      <trkpt lat="45.05646" lon="5.51319">
        <ele>1145.4000244141</ele>
        <time>2019-10-10T07:04:05Z</time>
      </trkpt>
      <trkpt lat="45.05642" lon="5.51299">
        <ele>1146.5999755859</ele>
        <time>2019-10-10T07:04:13Z</time>
      </trkpt>
      <trkpt lat="45.05632" lon="5.51264">
        <ele>1149</ele>
        <time>2019-10-10T07:04:27Z</time>
      </trkpt>
      <trkpt lat="45.0562" lon="5.51239">
        <ele>1150</ele>
        <time>2019-10-10T07:04:35Z</time>
      </trkpt>
      <trkpt lat="45.05603" lon="5.51217">
        <ele>1151.5999755859</ele>
        <time>2019-10-10T07:04:45Z</time>
      </trkpt>
      <trkpt lat="45.05588" lon="5.512">
        <ele>1153.1999511719</ele>
        <time>2019-10-10T07:04:53Z</time>
      </trkpt>
      <trkpt lat="45.05578" lon="5.51154">
        <ele>1154.8000488281</ele>
        <time>2019-10-10T07:05:05Z</time>
      </trkpt>
      <trkpt lat="45.05595" lon="5.51132">
        <ele>1155.1999511719</ele>
        <time>2019-10-10T07:05:12Z</time>
      </trkpt>
      <trkpt lat="45.05646" lon="5.51133">
        <ele>1156</ele>
        <time>2019-10-10T07:05:28Z</time>
      </trkpt>
      <trkpt lat="45.05678" lon="5.51136">
        <ele>1156.4000244141</ele>
        <time>2019-10-10T07:05:36Z</time>
      </trkpt>
      <trkpt lat="45.05699" lon="5.51133">
        <ele>1156.5999755859</ele>
        <time>2019-10-10T07:05:40Z</time>
      </trkpt>
      <trkpt lat="45.05724" lon="5.51089">
        <ele>1157</ele>
        <time>2019-10-10T07:05:48Z</time>
      </trkpt>
      <trkpt lat="45.05738" lon="5.51063">
        <ele>1157.4000244141</ele>
        <time>2019-10-10T07:05:55Z</time>
      </trkpt>
      <trkpt lat="45.05783" lon="5.51042">
        <ele>1158</ele>
        <time>2019-10-10T07:06:06Z</time>
      </trkpt>
      <trkpt lat="45.05814" lon="5.51028">
        <ele>1158.5999755859</ele>
        <time>2019-10-10T07:06:13Z</time>
      </trkpt>
      <trkpt lat="45.05853" lon="5.50987">
        <ele>1158.8000488281</ele>
        <time>2019-10-10T07:06:23Z</time>
      </trkpt>
      <trkpt lat="45.05893" lon="5.50915">
        <ele>1159.8000488281</ele>
        <time>2019-10-10T07:06:36Z</time>
      </trkpt>
      <trkpt lat="45.05941" lon="5.50862">
        <ele>1160.8000488281</ele>
        <time>2019-10-10T07:06:49Z</time>
      </trkpt>
      <trkpt lat="45.05969" lon="5.50817">
        <ele>1161.4000244141</ele>
        <time>2019-10-10T07:06:58Z</time>
      </trkpt>
      <trkpt lat="45.05989" lon="5.50787">
        <ele>1161.8000488281</ele>
        <time>2019-10-10T07:07:05Z</time>
      </trkpt>
      <trkpt lat="45.06008" lon="5.50769">
        <ele>1162.5999755859</ele>
        <time>2019-10-10T07:07:12Z</time>
      </trkpt>
      <trkpt lat="45.06016" lon="5.50762">
        <ele>1163.5999755859</ele>
        <time>2019-10-10T07:08:23Z</time>
      </trkpt>
      <trkpt lat="45.06035" lon="5.50746">
        <ele>1163.8000488281</ele>
        <time>2019-10-10T07:08:33Z</time>
      </trkpt>
      <trkpt lat="45.06065" lon="5.50726">
        <ele>1164</ele>
        <time>2019-10-10T07:08:41Z</time>
      </trkpt>
      <trkpt lat="45.06081" lon="5.50713">
        <ele>1164.5999755859</ele>
        <time>2019-10-10T07:08:45Z</time>
      </trkpt>
      <trkpt lat="45.06111" lon="5.50687">
        <ele>1165.1999511719</ele>
        <time>2019-10-10T07:08:52Z</time>
      </trkpt>
      <trkpt lat="45.06148" lon="5.50656">
        <ele>1166.1999511719</ele>
        <time>2019-10-10T07:08:59Z</time>
      </trkpt>
      <trkpt lat="45.06158" lon="5.50641">
        <ele>1166.8000488281</ele>
        <time>2019-10-10T07:11:15Z</time>
      </trkpt>
      <trkpt lat="45.06162" lon="5.50628">
        <ele>1167</ele>
        <time>2019-10-10T07:11:20Z</time>
      </trkpt>
      <trkpt lat="45.06176" lon="5.50588">
        <ele>1166.8000488281</ele>
        <time>2019-10-10T07:11:30Z</time>
      </trkpt>
      <trkpt lat="45.06194" lon="5.50549">
        <ele>1166.8000488281</ele>
        <time>2019-10-10T07:11:38Z</time>
      </trkpt>
      <trkpt lat="45.06203" lon="5.5054">
        <ele>1167</ele>
        <time>2019-10-10T07:11:41Z</time>
      </trkpt>
      <trkpt lat="45.06232" lon="5.50512">
        <ele>1167.8000488281</ele>
        <time>2019-10-10T07:11:50Z</time>
      </trkpt>
      <trkpt lat="45.06247" lon="5.50498">
        <ele>1168.1999511719</ele>
        <time>2019-10-10T07:11:55Z</time>
      </trkpt>
      <trkpt lat="45.06283" lon="5.5044">
        <ele>1169.5999755859</ele>
        <time>2019-10-10T07:12:10Z</time>
      </trkpt>
      <trkpt lat="45.063" lon="5.50417">
        <ele>1169.5999755859</ele>
        <time>2019-10-10T07:12:16Z</time>
      </trkpt>
      <trkpt lat="45.06325" lon="5.50342">
        <ele>1170.4000244141</ele>
        <time>2019-10-10T07:12:28Z</time>
      </trkpt>
      <trkpt lat="45.06359" lon="5.50266">
        <ele>1170.8000488281</ele>
        <time>2019-10-10T07:12:41Z</time>
      </trkpt>
      <trkpt lat="45.06404" lon="5.50167">
        <ele>1171</ele>
        <time>2019-10-10T07:12:56Z</time>
      </trkpt>
      <trkpt lat="45.06465" lon="5.50095">
        <ele>1171.8000488281</ele>
        <time>2019-10-10T07:13:12Z</time>
      </trkpt>
      <trkpt lat="45.06501" lon="5.50077">
        <ele>1172.1999511719</ele>
        <time>2019-10-10T07:13:19Z</time>
      </trkpt>
      <trkpt lat="45.0661" lon="5.5001">
        <ele>1172.8000488281</ele>
        <time>2019-10-10T07:13:40Z</time>
      </trkpt>
      <trkpt lat="45.06627" lon="5.4999">
        <ele>1172.8000488281</ele>
        <time>2019-10-10T07:13:43Z</time>
      </trkpt>
      <trkpt lat="45.0663" lon="5.49971">
        <ele>1172.8000488281</ele>
        <time>2019-10-10T07:13:47Z</time>
      </trkpt>
      <trkpt lat="45.06619" lon="5.49953">
        <ele>1172.8000488281</ele>
        <time>2019-10-10T07:13:49Z</time>
      </trkpt>
      <trkpt lat="45.06601" lon="5.4992">
        <ele>1172.4000244141</ele>
        <time>2019-10-10T07:13:55Z</time>
      </trkpt>
      <trkpt lat="45.06606" lon="5.49878">
        <ele>1172.4000244141</ele>
        <time>2019-10-10T07:13:59Z</time>
      </trkpt>
      <trkpt lat="45.06626" lon="5.49823">
        <ele>1172</ele>
        <time>2019-10-10T07:14:07Z</time>
      </trkpt>
      <trkpt lat="45.06621" lon="5.49807">
        <ele>1171.8000488281</ele>
        <time>2019-10-10T07:14:09Z</time>
      </trkpt>
      <trkpt lat="45.06586" lon="5.49711">
        <ele>1171</ele>
        <time>2019-10-10T07:14:21Z</time>
      </trkpt>
      <trkpt lat="45.06569" lon="5.49667">
        <ele>1170.8000488281</ele>
        <time>2019-10-10T07:14:26Z</time>
      </trkpt>
      <trkpt lat="45.06537" lon="5.49647">
        <ele>1170.5999755859</ele>
        <time>2019-10-10T07:14:31Z</time>
      </trkpt>
      <trkpt lat="45.06508" lon="5.49622">
        <ele>1170.4000244141</ele>
        <time>2019-10-10T07:14:37Z</time>
      </trkpt>
      <trkpt lat="45.06481" lon="5.49588">
        <ele>1169</ele>
        <time>2019-10-10T07:14:43Z</time>
      </trkpt>
      <trkpt lat="45.06465" lon="5.49556">
        <ele>1168.1999511719</ele>
        <time>2019-10-10T07:14:48Z</time>
      </trkpt>
      <trkpt lat="45.0646" lon="5.49547">
        <ele>1168.4000244141</ele>
        <time>2019-10-10T07:14:50Z</time>
      </trkpt>
      <trkpt lat="45.06467" lon="5.4951">
        <ele>1166.8000488281</ele>
        <time>2019-10-10T07:14:58Z</time>
      </trkpt>
      <trkpt lat="45.06466" lon="5.49506">
        <ele>1165.4000244141</ele>
        <time>2019-10-10T07:15:09Z</time>
      </trkpt>
      <trkpt lat="45.06455" lon="5.49519">
        <ele>1164.8000488281</ele>
        <time>2019-10-10T07:20:19Z</time>
      </trkpt>
      <trkpt lat="45.06449" lon="5.49517">
        <ele>1164.8000488281</ele>
        <time>2019-10-10T07:20:23Z</time>
      </trkpt>
      <trkpt lat="45.06411" lon="5.49495">
        <ele>1165.8000488281</ele>
        <time>2019-10-10T07:20:35Z</time>
      </trkpt>
      <trkpt lat="45.06403" lon="5.49491">
        <ele>1166.4000244141</ele>
        <time>2019-10-10T07:20:40Z</time>
      </trkpt>
      <trkpt lat="45.06388" lon="5.49484">
        <ele>1166.8000488281</ele>
        <time>2019-10-10T07:20:48Z</time>
      </trkpt>
      <trkpt lat="45.06372" lon="5.49469">
        <ele>1167</ele>
        <time>2019-10-10T07:20:53Z</time>
      </trkpt>
      <trkpt lat="45.06341" lon="5.49432">
        <ele>1168.8000488281</ele>
        <time>2019-10-10T07:21:05Z</time>
      </trkpt>
      <trkpt lat="45.06322" lon="5.49401">
        <ele>1170</ele>
        <time>2019-10-10T07:21:12Z</time>
      </trkpt>
      <trkpt lat="45.06307" lon="5.49375">
        <ele>1171.1999511719</ele>
        <time>2019-10-10T07:21:20Z</time>
      </trkpt>
      <trkpt lat="45.0629" lon="5.49347">
        <ele>1172.8000488281</ele>
        <time>2019-10-10T07:21:32Z</time>
      </trkpt>
      <trkpt lat="45.06278" lon="5.49324">
        <ele>1173.8000488281</ele>
        <time>2019-10-10T07:21:42Z</time>
      </trkpt>
      <trkpt lat="45.06292" lon="5.49273">
        <ele>1174.8000488281</ele>
        <time>2019-10-10T07:21:53Z</time>
      </trkpt>
      <trkpt lat="45.06305" lon="5.49213">
        <ele>1175.1999511719</ele>
        <time>2019-10-10T07:22:05Z</time>
      </trkpt>
      <trkpt lat="45.06298" lon="5.49192">
        <ele>1177</ele>
        <time>2019-10-10T07:22:13Z</time>
      </trkpt>
      <trkpt lat="45.06292" lon="5.49152">
        <ele>1178.4000244141</ele>
        <time>2019-10-10T07:22:22Z</time>
      </trkpt>
      <trkpt lat="45.06294" lon="5.49099">
        <ele>1180.1999511719</ele>
        <time>2019-10-10T07:22:36Z</time>
      </trkpt>
      <trkpt lat="45.06299" lon="5.49084">
        <ele>1181</ele>
        <time>2019-10-10T07:22:42Z</time>
      </trkpt>
      <trkpt lat="45.06308" lon="5.49038">
        <ele>1183.4000244141</ele>
        <time>2019-10-10T07:22:56Z</time>
      </trkpt>
      <trkpt lat="45.06311" lon="5.49007">
        <ele>1184.4000244141</ele>
        <time>2019-10-10T07:23:04Z</time>
      </trkpt>
      <trkpt lat="45.06308" lon="5.4898">
        <ele>1185.8000488281</ele>
        <time>2019-10-10T07:23:13Z</time>
      </trkpt>
      <trkpt lat="45.06305" lon="5.48965">
        <ele>1186.5999755859</ele>
        <time>2019-10-10T07:23:19Z</time>
      </trkpt>
      <trkpt lat="45.06303" lon="5.48947">
        <ele>1187.8000488281</ele>
        <time>2019-10-10T07:23:25Z</time>
      </trkpt>
      <trkpt lat="45.06295" lon="5.4892">
        <ele>1189.1999511719</ele>
        <time>2019-10-10T07:23:33Z</time>
      </trkpt>
      <trkpt lat="45.06288" lon="5.48905">
        <ele>1190.1999511719</ele>
        <time>2019-10-10T07:23:39Z</time>
      </trkpt>
      <trkpt lat="45.06276" lon="5.4888">
        <ele>1192.1999511719</ele>
        <time>2019-10-10T07:23:50Z</time>
      </trkpt>
      <trkpt lat="45.06268" lon="5.48866">
        <ele>1193.5999755859</ele>
        <time>2019-10-10T07:23:57Z</time>
      </trkpt>
      <trkpt lat="45.06253" lon="5.48833">
        <ele>1195.5999755859</ele>
        <time>2019-10-10T07:24:11Z</time>
      </trkpt>
      <trkpt lat="45.06239" lon="5.48811">
        <ele>1196.4000244141</ele>
        <time>2019-10-10T07:24:19Z</time>
      </trkpt>
      <trkpt lat="45.06222" lon="5.48789">
        <ele>1197.8000488281</ele>
        <time>2019-10-10T07:24:29Z</time>
      </trkpt>
      <trkpt lat="45.06211" lon="5.48775">
        <ele>1198.8000488281</ele>
        <time>2019-10-10T07:24:35Z</time>
      </trkpt>
      <trkpt lat="45.06168" lon="5.48737">
        <ele>1200.5999755859</ele>
        <time>2019-10-10T07:24:55Z</time>
      </trkpt>
      <trkpt lat="45.06143" lon="5.48717">
        <ele>1201.8000488281</ele>
        <time>2019-10-10T07:25:04Z</time>
      </trkpt>
      <trkpt lat="45.06104" lon="5.48678">
        <ele>1203</ele>
        <time>2019-10-10T07:25:13Z</time>
      </trkpt>
      <trkpt lat="45.0608" lon="5.48634">
        <ele>1204.1999511719</ele>
        <time>2019-10-10T07:25:22Z</time>
      </trkpt>
      <trkpt lat="45.06063" lon="5.48601">
        <ele>1205.1999511719</ele>
        <time>2019-10-10T07:25:30Z</time>
      </trkpt>
      <trkpt lat="45.06038" lon="5.48552">
        <ele>1207.1999511719</ele>
        <time>2019-10-10T07:25:44Z</time>
      </trkpt>
      <trkpt lat="45.06021" lon="5.48522">
        <ele>1208</ele>
        <time>2019-10-10T07:25:54Z</time>
      </trkpt>
      <trkpt lat="45.05992" lon="5.48475">
        <ele>1209.1999511719</ele>
        <time>2019-10-10T07:26:06Z</time>
      </trkpt>
      <trkpt lat="45.05958" lon="5.4842">
        <ele>1210.1999511719</ele>
        <time>2019-10-10T07:26:17Z</time>
      </trkpt>
      <trkpt lat="45.0594" lon="5.48391">
        <ele>1211</ele>
        <time>2019-10-10T07:26:25Z</time>
      </trkpt>
      <trkpt lat="45.05923" lon="5.48364">
        <ele>1212</ele>
        <time>2019-10-10T07:26:33Z</time>
      </trkpt>
      <trkpt lat="45.05902" lon="5.48328">
        <ele>1213.5999755859</ele>
        <time>2019-10-10T07:26:45Z</time>
      </trkpt>
      <trkpt lat="45.05892" lon="5.48309">
        <ele>1214.4000244141</ele>
        <time>2019-10-10T07:26:52Z</time>
      </trkpt>
      <trkpt lat="45.05866" lon="5.48267">
        <ele>1216</ele>
        <time>2019-10-10T07:27:06Z</time>
      </trkpt>
      <trkpt lat="45.05855" lon="5.48248">
        <ele>1216.4000244141</ele>
        <time>2019-10-10T07:27:12Z</time>
      </trkpt>
      <trkpt lat="45.0583" lon="5.48202">
        <ele>1218.1999511719</ele>
        <time>2019-10-10T07:27:23Z</time>
      </trkpt>
      <trkpt lat="45.05816" lon="5.48169">
        <ele>1219.1999511719</ele>
        <time>2019-10-10T07:27:30Z</time>
      </trkpt>
      <trkpt lat="45.05806" lon="5.48144">
        <ele>1220.5999755859</ele>
        <time>2019-10-10T07:27:39Z</time>
      </trkpt>
      <trkpt lat="45.05791" lon="5.48105">
        <ele>1222.1999511719</ele>
        <time>2019-10-10T07:27:53Z</time>
      </trkpt>
      <trkpt lat="45.05776" lon="5.48069">
        <ele>1223</ele>
        <time>2019-10-10T07:27:59Z</time>
      </trkpt>
      <trkpt lat="45.05766" lon="5.48028">
        <ele>1224.4000244141</ele>
        <time>2019-10-10T07:28:07Z</time>
      </trkpt>
      <trkpt lat="45.05761" lon="5.48008">
        <ele>1225.5999755859</ele>
        <time>2019-10-10T07:28:13Z</time>
      </trkpt>
      <trkpt lat="45.05743" lon="5.47936">
        <ele>1228</ele>
        <time>2019-10-10T07:28:26Z</time>
      </trkpt>
      <trkpt lat="45.05731" lon="5.47915">
        <ele>1228.5999755859</ele>
        <time>2019-10-10T07:28:31Z</time>
      </trkpt>
      <trkpt lat="45.05719" lon="5.47882">
        <ele>1230.5999755859</ele>
        <time>2019-10-10T07:28:43Z</time>
      </trkpt>
      <trkpt lat="45.05707" lon="5.47856">
        <ele>1231.5999755859</ele>
        <time>2019-10-10T07:28:50Z</time>
      </trkpt>
      <trkpt lat="45.05679" lon="5.47813">
        <ele>1233.4000244141</ele>
        <time>2019-10-10T07:29:03Z</time>
      </trkpt>
      <trkpt lat="45.05663" lon="5.47791">
        <ele>1234.1999511719</ele>
        <time>2019-10-10T07:29:11Z</time>
      </trkpt>
      <trkpt lat="45.05643" lon="5.47766">
        <ele>1235.4000244141</ele>
        <time>2019-10-10T07:29:21Z</time>
      </trkpt>
      <trkpt lat="45.05635" lon="5.47756">
        <ele>1236</ele>
        <time>2019-10-10T07:29:25Z</time>
      </trkpt>
      <trkpt lat="45.05607" lon="5.47725">
        <ele>1237.5999755859</ele>
        <time>2019-10-10T07:29:38Z</time>
      </trkpt>
      <trkpt lat="45.05591" lon="5.4771">
        <ele>1238.5999755859</ele>
        <time>2019-10-10T07:29:45Z</time>
      </trkpt>
      <trkpt lat="45.05574" lon="5.47693">
        <ele>1239.4000244141</ele>
        <time>2019-10-10T07:29:53Z</time>
      </trkpt>
      <trkpt lat="45.05546" lon="5.47655">
        <ele>1242</ele>
        <time>2019-10-10T07:30:07Z</time>
      </trkpt>
      <trkpt lat="45.05531" lon="5.47647">
        <ele>1242.8000488281</ele>
        <time>2019-10-10T07:30:13Z</time>
      </trkpt>
      <trkpt lat="45.05506" lon="5.47638">
        <ele>1244.8000488281</ele>
        <time>2019-10-10T07:30:25Z</time>
      </trkpt>
      <trkpt lat="45.05492" lon="5.47633">
        <ele>1246</ele>
        <time>2019-10-10T07:30:32Z</time>
      </trkpt>
      <trkpt lat="45.05472" lon="5.47626">
        <ele>1248</ele>
        <time>2019-10-10T07:30:43Z</time>
      </trkpt>
      <trkpt lat="45.05462" lon="5.47623">
        <ele>1249</ele>
        <time>2019-10-10T07:30:49Z</time>
      </trkpt>
      <trkpt lat="45.05442" lon="5.47616">
        <ele>1251.4000244141</ele>
        <time>2019-10-10T07:30:59Z</time>
      </trkpt>
      <trkpt lat="45.05433" lon="5.47613">
        <ele>1252.4000244141</ele>
        <time>2019-10-10T07:31:04Z</time>
      </trkpt>
      <trkpt lat="45.05415" lon="5.47606">
        <ele>1254.8000488281</ele>
        <time>2019-10-10T07:31:15Z</time>
      </trkpt>
      <trkpt lat="45.05405" lon="5.47603">
        <ele>1256</ele>
        <time>2019-10-10T07:31:21Z</time>
      </trkpt>
      <trkpt lat="45.05387" lon="5.47597">
        <ele>1258</ele>
        <time>2019-10-10T07:31:31Z</time>
      </trkpt>
      <trkpt lat="45.05372" lon="5.47591">
        <ele>1259.1999511719</ele>
        <time>2019-10-10T07:31:39Z</time>
      </trkpt>
      <trkpt lat="45.05366" lon="5.47588">
        <ele>1260.4000244141</ele>
        <time>2019-10-10T07:31:44Z</time>
      </trkpt>
      <trkpt lat="45.05355" lon="5.47581">
        <ele>1262.1999511719</ele>
        <time>2019-10-10T07:31:54Z</time>
      </trkpt>
      <trkpt lat="45.05348" lon="5.47575">
        <ele>1263.4000244141</ele>
        <time>2019-10-10T07:32:00Z</time>
      </trkpt>
      <trkpt lat="45.05329" lon="5.47558">
        <ele>1265.5999755859</ele>
        <time>2019-10-10T07:32:13Z</time>
      </trkpt>
      <trkpt lat="45.05315" lon="5.47548">
        <ele>1267.1999511719</ele>
        <time>2019-10-10T07:32:21Z</time>
      </trkpt>
      <trkpt lat="45.05291" lon="5.47533">
        <ele>1268.8000488281</ele>
        <time>2019-10-10T07:32:31Z</time>
      </trkpt>
      <trkpt lat="45.05282" lon="5.47529">
        <ele>1270.1999511719</ele>
        <time>2019-10-10T07:32:37Z</time>
      </trkpt>
      <trkpt lat="45.05262" lon="5.47519">
        <ele>1272.4000244141</ele>
        <time>2019-10-10T07:32:48Z</time>
      </trkpt>
      <trkpt lat="45.05253" lon="5.47515">
        <ele>1273.1999511719</ele>
        <time>2019-10-10T07:32:53Z</time>
      </trkpt>
      <trkpt lat="45.05234" lon="5.47505">
        <ele>1275.4000244141</ele>
        <time>2019-10-10T07:33:03Z</time>
      </trkpt>
      <trkpt lat="45.05226" lon="5.47501">
        <ele>1276.5999755859</ele>
        <time>2019-10-10T07:33:08Z</time>
      </trkpt>
      <trkpt lat="45.05211" lon="5.47493">
        <ele>1278.5999755859</ele>
        <time>2019-10-10T07:33:17Z</time>
      </trkpt>
      <trkpt lat="45.05201" lon="5.47487">
        <ele>1279.5999755859</ele>
        <time>2019-10-10T07:33:23Z</time>
      </trkpt>
      <trkpt lat="45.05188" lon="5.4748">
        <ele>1281</ele>
        <time>2019-10-10T07:33:29Z</time>
      </trkpt>
      <trkpt lat="45.05167" lon="5.47468">
        <ele>1283.5999755859</ele>
        <time>2019-10-10T07:33:41Z</time>
      </trkpt>
      <trkpt lat="45.05154" lon="5.47459">
        <ele>1285</ele>
        <time>2019-10-10T07:33:48Z</time>
      </trkpt>
      <trkpt lat="45.05137" lon="5.47443">
        <ele>1287</ele>
        <time>2019-10-10T07:33:57Z</time>
      </trkpt>
      <trkpt lat="45.0512" lon="5.47432">
        <ele>1288.4000244141</ele>
        <time>2019-10-10T07:34:04Z</time>
      </trkpt>
      <trkpt lat="45.05102" lon="5.47425">
        <ele>1290</ele>
        <time>2019-10-10T07:34:13Z</time>
      </trkpt>
      <trkpt lat="45.05085" lon="5.47424">
        <ele>1291.4000244141</ele>
        <time>2019-10-10T07:34:21Z</time>
      </trkpt>
      <trkpt lat="45.05074" lon="5.47427">
        <ele>1292.5999755859</ele>
        <time>2019-10-10T07:34:28Z</time>
      </trkpt>
      <trkpt lat="45.05067" lon="5.47429">
        <ele>1293.4000244141</ele>
        <time>2019-10-10T07:34:32Z</time>
      </trkpt>
      <trkpt lat="45.05042" lon="5.47434">
        <ele>1295.8000488281</ele>
        <time>2019-10-10T07:34:44Z</time>
      </trkpt>
      <trkpt lat="45.05028" lon="5.47434">
        <ele>1297</ele>
        <time>2019-10-10T07:34:50Z</time>
      </trkpt>
      <trkpt lat="45.05003" lon="5.47429">
        <ele>1299.1999511719</ele>
        <time>2019-10-10T07:35:01Z</time>
      </trkpt>
      <trkpt lat="45.04992" lon="5.47426">
        <ele>1300.4000244141</ele>
        <time>2019-10-10T07:35:07Z</time>
      </trkpt>
      <trkpt lat="45.04973" lon="5.47418">
        <ele>1303</ele>
        <time>2019-10-10T07:35:18Z</time>
      </trkpt>
      <trkpt lat="45.04954" lon="5.47411">
        <ele>1305</ele>
        <time>2019-10-10T07:35:29Z</time>
      </trkpt>
      <trkpt lat="45.0494" lon="5.47406">
        <ele>1306.5999755859</ele>
        <time>2019-10-10T07:35:37Z</time>
      </trkpt>
      <trkpt lat="45.04922" lon="5.47402">
        <ele>1308.8000488281</ele>
        <time>2019-10-10T07:35:47Z</time>
      </trkpt>
      <trkpt lat="45.04913" lon="5.47402">
        <ele>1309.5999755859</ele>
        <time>2019-10-10T07:35:53Z</time>
      </trkpt>
      <trkpt lat="45.04896" lon="5.47405">
        <ele>1312</ele>
        <time>2019-10-10T07:36:04Z</time>
      </trkpt>
      <trkpt lat="45.04885" lon="5.47409">
        <ele>1313.5999755859</ele>
        <time>2019-10-10T07:36:11Z</time>
      </trkpt>
      <trkpt lat="45.04864" lon="5.47414">
        <ele>1316.1999511719</ele>
        <time>2019-10-10T07:36:24Z</time>
      </trkpt>
      <trkpt lat="45.04855" lon="5.47416">
        <ele>1317.4000244141</ele>
        <time>2019-10-10T07:36:30Z</time>
      </trkpt>
      <trkpt lat="45.04837" lon="5.47421">
        <ele>1319.1999511719</ele>
        <time>2019-10-10T07:36:42Z</time>
      </trkpt>
      <trkpt lat="45.04825" lon="5.47427">
        <ele>1320.8000488281</ele>
        <time>2019-10-10T07:36:49Z</time>
      </trkpt>
      <trkpt lat="45.04809" lon="5.47437">
        <ele>1322.4000244141</ele>
        <time>2019-10-10T07:36:58Z</time>
      </trkpt>
      <trkpt lat="45.04801" lon="5.47442">
        <ele>1323.1999511719</ele>
        <time>2019-10-10T07:37:03Z</time>
      </trkpt>
      <trkpt lat="45.04784" lon="5.47452">
        <ele>1325.1999511719</ele>
        <time>2019-10-10T07:37:13Z</time>
      </trkpt>
      <trkpt lat="45.04777" lon="5.47456">
        <ele>1326.1999511719</ele>
        <time>2019-10-10T07:37:17Z</time>
      </trkpt>
      <trkpt lat="45.04769" lon="5.47461">
        <ele>1327.1999511719</ele>
        <time>2019-10-10T07:37:22Z</time>
      </trkpt>
      <trkpt lat="45.04749" lon="5.47473">
        <ele>1329.8000488281</ele>
        <time>2019-10-10T07:37:33Z</time>
      </trkpt>
      <trkpt lat="45.04739" lon="5.47478">
        <ele>1330.4000244141</ele>
        <time>2019-10-10T07:37:38Z</time>
      </trkpt>
      <trkpt lat="45.04728" lon="5.47484">
        <ele>1331.4000244141</ele>
        <time>2019-10-10T07:37:43Z</time>
      </trkpt>
      <trkpt lat="45.04704" lon="5.47496">
        <ele>1334</ele>
        <time>2019-10-10T07:37:54Z</time>
      </trkpt>
      <trkpt lat="45.04679" lon="5.47508">
        <ele>1336.1999511719</ele>
        <time>2019-10-10T07:38:05Z</time>
      </trkpt>
      <trkpt lat="45.04664" lon="5.47515">
        <ele>1337.4000244141</ele>
        <time>2019-10-10T07:38:12Z</time>
      </trkpt>
      <trkpt lat="45.04645" lon="5.47525">
        <ele>1338.5999755859</ele>
        <time>2019-10-10T07:38:21Z</time>
      </trkpt>
      <trkpt lat="45.04628" lon="5.47528">
        <ele>1339.8000488281</ele>
        <time>2019-10-10T07:38:28Z</time>
      </trkpt>
      <trkpt lat="45.04595" lon="5.47534">
        <ele>1342.5999755859</ele>
        <time>2019-10-10T07:38:43Z</time>
      </trkpt>
      <trkpt lat="45.04581" lon="5.47536">
        <ele>1343.4000244141</ele>
        <time>2019-10-10T07:38:48Z</time>
      </trkpt>
      <trkpt lat="45.04551" lon="5.47545">
        <ele>1345.1999511719</ele>
        <time>2019-10-10T07:38:59Z</time>
      </trkpt>
      <trkpt lat="45.04534" lon="5.47556">
        <ele>1347</ele>
        <time>2019-10-10T07:39:06Z</time>
      </trkpt>
      <trkpt lat="45.04517" lon="5.47562">
        <ele>1348</ele>
        <time>2019-10-10T07:39:12Z</time>
      </trkpt>
      <trkpt lat="45.04491" lon="5.4757">
        <ele>1349.1999511719</ele>
        <time>2019-10-10T07:39:20Z</time>
      </trkpt>
      <trkpt lat="45.04471" lon="5.47574">
        <ele>1350.1999511719</ele>
        <time>2019-10-10T07:39:25Z</time>
      </trkpt>
      <trkpt lat="45.04433" lon="5.47574">
        <ele>1352.1999511719</ele>
        <time>2019-10-10T07:39:36Z</time>
      </trkpt>
      <trkpt lat="45.044" lon="5.47581">
        <ele>1353.8000488281</ele>
        <time>2019-10-10T07:39:45Z</time>
      </trkpt>
      <trkpt lat="45.04359" lon="5.47589">
        <ele>1355.8000488281</ele>
        <time>2019-10-10T07:39:59Z</time>
      </trkpt>
      <trkpt lat="45.04355" lon="5.47588">
        <ele>1356</ele>
        <time>2019-10-10T07:40:01Z</time>
      </trkpt>
      <trkpt lat="45.04356" lon="5.47588">
        <ele>1356.4000244141</ele>
        <time>2019-10-10T07:40:09Z</time>
      </trkpt>
      <trkpt lat="45.04356" lon="5.47588">
        <ele>1356.1999511719</ele>
        <time>2019-10-10T07:40:39Z</time>
      </trkpt>
      <trkpt lat="45.04342" lon="5.47583">
        <ele>1356.4000244141</ele>
        <time>2019-10-10T07:40:47Z</time>
      </trkpt>
      <trkpt lat="45.04321" lon="5.47579">
        <ele>1356.5999755859</ele>
        <time>2019-10-10T07:40:54Z</time>
      </trkpt>
      <trkpt lat="45.04271" lon="5.47574">
        <ele>1357.4000244141</ele>
        <time>2019-10-10T07:41:08Z</time>
      </trkpt>
      <trkpt lat="45.04249" lon="5.47569">
        <ele>1357.4000244141</ele>
        <time>2019-10-10T07:41:12Z</time>
      </trkpt>
      <trkpt lat="45.0423" lon="5.47563">
        <ele>1357.4000244141</ele>
        <time>2019-10-10T07:41:17Z</time>
      </trkpt>
      <trkpt lat="45.04213" lon="5.47559">
        <ele>1357.1999511719</ele>
        <time>2019-10-10T07:41:20Z</time>
      </trkpt>
      <trkpt lat="45.04196" lon="5.47584">
        <ele>1356.8000488281</ele>
        <time>2019-10-10T07:41:23Z</time>
      </trkpt>
      <trkpt lat="45.04169" lon="5.47603">
        <ele>1356</ele>
        <time>2019-10-10T07:41:28Z</time>
      </trkpt>
      <trkpt lat="45.04143" lon="5.47625">
        <ele>1355.1999511719</ele>
        <time>2019-10-10T07:41:32Z</time>
      </trkpt>
      <trkpt lat="45.04114" lon="5.47636">
        <ele>1353.8000488281</ele>
        <time>2019-10-10T07:41:37Z</time>
      </trkpt>
      <trkpt lat="45.0409" lon="5.47639">
        <ele>1353</ele>
        <time>2019-10-10T07:41:40Z</time>
      </trkpt>
      <trkpt lat="45.04035" lon="5.47638">
        <ele>1351.4000244141</ele>
        <time>2019-10-10T07:41:46Z</time>
      </trkpt>
      <trkpt lat="45.03972" lon="5.47631">
        <ele>1349.8000488281</ele>
        <time>2019-10-10T07:41:54Z</time>
      </trkpt>
      <trkpt lat="45.03856" lon="5.47615">
        <ele>1347.5999755859</ele>
        <time>2019-10-10T07:42:08Z</time>
      </trkpt>
      <trkpt lat="45.03819" lon="5.47617">
        <ele>1346.8000488281</ele>
        <time>2019-10-10T07:42:14Z</time>
      </trkpt>
      <trkpt lat="45.03725" lon="5.47651">
        <ele>1345.8000488281</ele>
        <time>2019-10-10T07:42:26Z</time>
      </trkpt>
      <trkpt lat="45.03675" lon="5.47653">
        <ele>1345.4000244141</ele>
        <time>2019-10-10T07:42:34Z</time>
      </trkpt>
      <trkpt lat="45.03596" lon="5.47675">
        <ele>1345</ele>
        <time>2019-10-10T07:42:44Z</time>
      </trkpt>
      <trkpt lat="45.0355" lon="5.47685">
        <ele>1343.8000488281</ele>
        <time>2019-10-10T07:42:50Z</time>
      </trkpt>
      <trkpt lat="45.03514" lon="5.47698">
        <ele>1342.5999755859</ele>
        <time>2019-10-10T07:42:55Z</time>
      </trkpt>
      <trkpt lat="45.03465" lon="5.47711">
        <ele>1341.1999511719</ele>
        <time>2019-10-10T07:43:03Z</time>
      </trkpt>
      <trkpt lat="45.03452" lon="5.4771">
        <ele>1341.1999511719</ele>
        <time>2019-10-10T07:43:05Z</time>
      </trkpt>
      <trkpt lat="45.03437" lon="5.47693">
        <ele>1339.4000244141</ele>
        <time>2019-10-10T07:43:13Z</time>
      </trkpt>
      <trkpt lat="45.03435" lon="5.47688">
        <ele>1337</ele>
        <time>2019-10-10T07:44:24Z</time>
      </trkpt>
      <trkpt lat="45.03428" lon="5.47662">
        <ele>1336.8000488281</ele>
        <time>2019-10-10T07:44:29Z</time>
      </trkpt>
      <trkpt lat="45.03426" lon="5.47643">
        <ele>1336.8000488281</ele>
        <time>2019-10-10T07:44:31Z</time>
      </trkpt>
      <trkpt lat="45.03423" lon="5.47592">
        <ele>1335.8000488281</ele>
        <time>2019-10-10T07:44:36Z</time>
      </trkpt>
      <trkpt lat="45.03416" lon="5.47571">
        <ele>1335.4000244141</ele>
        <time>2019-10-10T07:44:38Z</time>
      </trkpt>
      <trkpt lat="45.03368" lon="5.47545">
        <ele>1333.1999511719</ele>
        <time>2019-10-10T07:44:44Z</time>
      </trkpt>
      <trkpt lat="45.03348" lon="5.47506">
        <ele>1331.8000488281</ele>
        <time>2019-10-10T07:44:48Z</time>
      </trkpt>
      <trkpt lat="45.03331" lon="5.47447">
        <ele>1329.8000488281</ele>
        <time>2019-10-10T07:44:53Z</time>
      </trkpt>
      <trkpt lat="45.03314" lon="5.47412">
        <ele>1327.5999755859</ele>
        <time>2019-10-10T07:44:57Z</time>
      </trkpt>
      <trkpt lat="45.03294" lon="5.47386">
        <ele>1326.1999511719</ele>
        <time>2019-10-10T07:44:59Z</time>
      </trkpt>
      <trkpt lat="45.03268" lon="5.47371">
        <ele>1324</ele>
        <time>2019-10-10T07:45:03Z</time>
      </trkpt>
      <trkpt lat="45.03231" lon="5.4735">
        <ele>1322.4000244141</ele>
        <time>2019-10-10T07:45:06Z</time>
      </trkpt>
      <trkpt lat="45.0318" lon="5.47327">
        <ele>1319.8000488281</ele>
        <time>2019-10-10T07:45:11Z</time>
      </trkpt>
      <trkpt lat="45.0317" lon="5.47323">
        <ele>1318.5999755859</ele>
        <time>2019-10-10T07:45:13Z</time>
      </trkpt>
      <trkpt lat="45.03122" lon="5.47294">
        <ele>1316.5999755859</ele>
        <time>2019-10-10T07:45:17Z</time>
      </trkpt>
      <trkpt lat="45.03082" lon="5.47276">
        <ele>1313</ele>
        <time>2019-10-10T07:45:22Z</time>
      </trkpt>
      <trkpt lat="45.02983" lon="5.47265">
        <ele>1307.4000244141</ele>
        <time>2019-10-10T07:45:31Z</time>
      </trkpt>
      <trkpt lat="45.02974" lon="5.47262">
        <ele>1306.1999511719</ele>
        <time>2019-10-10T07:45:33Z</time>
      </trkpt>
      <trkpt lat="45.02912" lon="5.47264">
        <ele>1304.4000244141</ele>
        <time>2019-10-10T07:45:38Z</time>
      </trkpt>
      <trkpt lat="45.02892" lon="5.47258">
        <ele>1303.4000244141</ele>
        <time>2019-10-10T07:45:40Z</time>
      </trkpt>
      <trkpt lat="45.02844" lon="5.47239">
        <ele>1300.4000244141</ele>
        <time>2019-10-10T07:45:45Z</time>
      </trkpt>
      <trkpt lat="45.02826" lon="5.47235">
        <ele>1299.5999755859</ele>
        <time>2019-10-10T07:45:47Z</time>
      </trkpt>
      <trkpt lat="45.02808" lon="5.47237">
        <ele>1298.4000244141</ele>
        <time>2019-10-10T07:45:49Z</time>
      </trkpt>
      <trkpt lat="45.02772" lon="5.4725">
        <ele>1296.4000244141</ele>
        <time>2019-10-10T07:45:54Z</time>
      </trkpt>
      <trkpt lat="45.02743" lon="5.47252">
        <ele>1294.4000244141</ele>
        <time>2019-10-10T07:45:57Z</time>
      </trkpt>
      <trkpt lat="45.02662" lon="5.47247">
        <ele>1292.1999511719</ele>
        <time>2019-10-10T07:46:04Z</time>
      </trkpt>
      <trkpt lat="45.02634" lon="5.47234">
        <ele>1290.4000244141</ele>
        <time>2019-10-10T07:46:07Z</time>
      </trkpt>
      <trkpt lat="45.02553" lon="5.47203">
        <ele>1285</ele>
        <time>2019-10-10T07:46:17Z</time>
      </trkpt>
      <trkpt lat="45.02483" lon="5.47193">
        <ele>1284.8000488281</ele>
        <time>2019-10-10T07:46:27Z</time>
      </trkpt>
      <trkpt lat="45.02402" lon="5.47196">
        <ele>1284.1999511719</ele>
        <time>2019-10-10T07:46:39Z</time>
      </trkpt>
      <trkpt lat="45.02382" lon="5.47191">
        <ele>1283.8000488281</ele>
        <time>2019-10-10T07:46:41Z</time>
      </trkpt>
      <trkpt lat="45.02285" lon="5.47176">
        <ele>1282.4000244141</ele>
        <time>2019-10-10T07:46:57Z</time>
      </trkpt>
      <trkpt lat="45.02257" lon="5.47171">
        <ele>1282.1999511719</ele>
        <time>2019-10-10T07:47:01Z</time>
      </trkpt>
      <trkpt lat="45.02187" lon="5.47203">
        <ele>1281.5999755859</ele>
        <time>2019-10-10T07:47:12Z</time>
      </trkpt>
      <trkpt lat="45.02118" lon="5.47221">
        <ele>1281.5999755859</ele>
        <time>2019-10-10T07:47:25Z</time>
      </trkpt>
      <trkpt lat="45.02088" lon="5.47235">
        <ele>1281.8000488281</ele>
        <time>2019-10-10T07:47:31Z</time>
      </trkpt>
      <trkpt lat="45.02061" lon="5.47254">
        <ele>1282</ele>
        <time>2019-10-10T07:47:37Z</time>
      </trkpt>
      <trkpt lat="45.02051" lon="5.47268">
        <ele>1282.1999511719</ele>
        <time>2019-10-10T07:47:40Z</time>
      </trkpt>
      <trkpt lat="45.02025" lon="5.47307">
        <ele>1282.8000488281</ele>
        <time>2019-10-10T07:47:48Z</time>
      </trkpt>
      <trkpt lat="45.02002" lon="5.47324">
        <ele>1283.8000488281</ele>
        <time>2019-10-10T07:47:54Z</time>
      </trkpt>
      <trkpt lat="45.01973" lon="5.47329">
        <ele>1285</ele>
        <time>2019-10-10T07:48:02Z</time>
      </trkpt>
      <trkpt lat="45.01949" lon="5.47318">
        <ele>1285.8000488281</ele>
        <time>2019-10-10T07:48:09Z</time>
      </trkpt>
      <trkpt lat="45.0192" lon="5.47308">
        <ele>1287.4000244141</ele>
        <time>2019-10-10T07:48:17Z</time>
      </trkpt>
      <trkpt lat="45.01894" lon="5.47295">
        <ele>1288.8000488281</ele>
        <time>2019-10-10T07:48:26Z</time>
      </trkpt>
      <trkpt lat="45.01842" lon="5.47258">
        <ele>1290.5999755859</ele>
        <time>2019-10-10T07:48:43Z</time>
      </trkpt>
      <trkpt lat="45.01778" lon="5.47237">
        <ele>1292.5999755859</ele>
        <time>2019-10-10T07:49:01Z</time>
      </trkpt>
      <trkpt lat="45.01718" lon="5.47229">
        <ele>1293.4000244141</ele>
        <time>2019-10-10T07:49:14Z</time>
      </trkpt>
      <trkpt lat="45.01707" lon="5.4723">
        <ele>1293.4000244141</ele>
        <time>2019-10-10T07:49:16Z</time>
      </trkpt>
      <trkpt lat="45.01691" lon="5.47249">
        <ele>1293</ele>
        <time>2019-10-10T07:49:20Z</time>
      </trkpt>
      <trkpt lat="45.01666" lon="5.47283">
        <ele>1292.8000488281</ele>
        <time>2019-10-10T07:49:26Z</time>
      </trkpt>
      <trkpt lat="45.01645" lon="5.47298">
        <ele>1292.8000488281</ele>
        <time>2019-10-10T07:49:30Z</time>
      </trkpt>
      <trkpt lat="45.01627" lon="5.47323">
        <ele>1292.5999755859</ele>
        <time>2019-10-10T07:49:35Z</time>
      </trkpt>
      <trkpt lat="45.01595" lon="5.47337">
        <ele>1291.8000488281</ele>
        <time>2019-10-10T07:49:40Z</time>
      </trkpt>
      <trkpt lat="45.01534" lon="5.47319">
        <ele>1291.5999755859</ele>
        <time>2019-10-10T07:49:50Z</time>
      </trkpt>
      <trkpt lat="45.01507" lon="5.47325">
        <ele>1291.4000244141</ele>
        <time>2019-10-10T07:49:53Z</time>
      </trkpt>
      <trkpt lat="45.01463" lon="5.47355">
        <ele>1291.4000244141</ele>
        <time>2019-10-10T07:50:02Z</time>
      </trkpt>
      <trkpt lat="45.01453" lon="5.47354">
        <ele>1291</ele>
        <time>2019-10-10T07:50:04Z</time>
      </trkpt>
      <trkpt lat="45.01446" lon="5.47337">
        <ele>1291</ele>
        <time>2019-10-10T07:50:07Z</time>
      </trkpt>
      <trkpt lat="45.01444" lon="5.47298">
        <ele>1290.5999755859</ele>
        <time>2019-10-10T07:50:11Z</time>
      </trkpt>
      <trkpt lat="45.01419" lon="5.47255">
        <ele>1288.4000244141</ele>
        <time>2019-10-10T07:50:16Z</time>
      </trkpt>
      <trkpt lat="45.01399" lon="5.47226">
        <ele>1287</ele>
        <time>2019-10-10T07:50:19Z</time>
      </trkpt>
      <trkpt lat="45.01369" lon="5.47181">
        <ele>1283.5999755859</ele>
        <time>2019-10-10T07:50:24Z</time>
      </trkpt>
      <trkpt lat="45.01352" lon="5.47142">
        <ele>1279.4000244141</ele>
        <time>2019-10-10T07:50:29Z</time>
      </trkpt>
      <trkpt lat="45.01347" lon="5.47122">
        <ele>1276.8000488281</ele>
        <time>2019-10-10T07:50:33Z</time>
      </trkpt>
      <trkpt lat="45.01347" lon="5.47117">
        <ele>1272.4000244141</ele>
        <time>2019-10-10T07:52:55Z</time>
      </trkpt>
      <trkpt lat="45.01344" lon="5.47096">
        <ele>1272.4000244141</ele>
        <time>2019-10-10T07:53:01Z</time>
      </trkpt>
      <trkpt lat="45.01336" lon="5.47053">
        <ele>1271.8000488281</ele>
        <time>2019-10-10T07:53:07Z</time>
      </trkpt>
      <trkpt lat="45.01319" lon="5.47034">
        <ele>1271.1999511719</ele>
        <time>2019-10-10T07:53:09Z</time>
      </trkpt>
      <trkpt lat="45.01291" lon="5.4701">
        <ele>1270.1999511719</ele>
        <time>2019-10-10T07:53:13Z</time>
      </trkpt>
      <trkpt lat="45.01282" lon="5.47003">
        <ele>1269.5999755859</ele>
        <time>2019-10-10T07:53:15Z</time>
      </trkpt>
      <trkpt lat="45.01186" lon="5.4699">
        <ele>1266</ele>
        <time>2019-10-10T07:53:23Z</time>
      </trkpt>
      <trkpt lat="45.01164" lon="5.46985">
        <ele>1264.4000244141</ele>
        <time>2019-10-10T07:53:25Z</time>
      </trkpt>
      <trkpt lat="45.01119" lon="5.46982">
        <ele>1262.5999755859</ele>
        <time>2019-10-10T07:53:29Z</time>
      </trkpt>
      <trkpt lat="45.01082" lon="5.46987">
        <ele>1260.5999755859</ele>
        <time>2019-10-10T07:53:32Z</time>
      </trkpt>
      <trkpt lat="45.01058" lon="5.46991">
        <ele>1258</ele>
        <time>2019-10-10T07:53:35Z</time>
      </trkpt>
      <trkpt lat="45.01024" lon="5.47003">
        <ele>1256</ele>
        <time>2019-10-10T07:53:37Z</time>
      </trkpt>
      <trkpt lat="45.01014" lon="5.4701">
        <ele>1254</ele>
        <time>2019-10-10T07:53:39Z</time>
      </trkpt>
      <trkpt lat="45.0095" lon="5.47058">
        <ele>1249.4000244141</ele>
        <time>2019-10-10T07:53:44Z</time>
      </trkpt>
      <trkpt lat="45.00931" lon="5.47074">
        <ele>1247.1999511719</ele>
        <time>2019-10-10T07:53:46Z</time>
      </trkpt>
      <trkpt lat="45.00904" lon="5.47115">
        <ele>1243</ele>
        <time>2019-10-10T07:53:50Z</time>
      </trkpt>
      <trkpt lat="45.00889" lon="5.47128">
        <ele>1240.4000244141</ele>
        <time>2019-10-10T07:53:52Z</time>
      </trkpt>
      <trkpt lat="45.00869" lon="5.4713">
        <ele>1236.8000488281</ele>
        <time>2019-10-10T07:53:55Z</time>
      </trkpt>
      <trkpt lat="45.00857" lon="5.47118">
        <ele>1234.1999511719</ele>
        <time>2019-10-10T07:53:57Z</time>
      </trkpt>
      <trkpt lat="45.0082" lon="5.47103">
        <ele>1230.1999511719</ele>
        <time>2019-10-10T07:54:01Z</time>
      </trkpt>
      <trkpt lat="45.00784" lon="5.47115">
        <ele>1226.4000244141</ele>
        <time>2019-10-10T07:54:05Z</time>
      </trkpt>
      <trkpt lat="45.00766" lon="5.47112">
        <ele>1223.5999755859</ele>
        <time>2019-10-10T07:54:09Z</time>
      </trkpt>
      <trkpt lat="45.00774" lon="5.47095">
        <ele>1221</ele>
        <time>2019-10-10T07:54:12Z</time>
      </trkpt>
      <trkpt lat="45.00801" lon="5.47075">
        <ele>1217.8000488281</ele>
        <time>2019-10-10T07:54:16Z</time>
      </trkpt>
      <trkpt lat="45.00814" lon="5.47057">
        <ele>1216.5999755859</ele>
        <time>2019-10-10T07:54:18Z</time>
      </trkpt>
      <trkpt lat="45.00826" lon="5.47017">
        <ele>1214.8000488281</ele>
        <time>2019-10-10T07:54:21Z</time>
      </trkpt>
      <trkpt lat="45.00825" lon="5.47003">
        <ele>1213.5999755859</ele>
        <time>2019-10-10T07:54:23Z</time>
      </trkpt>
      <trkpt lat="45.00816" lon="5.46971">
        <ele>1212.5999755859</ele>
        <time>2019-10-10T07:54:25Z</time>
      </trkpt>
      <trkpt lat="45.00803" lon="5.46956">
        <ele>1209.5999755859</ele>
        <time>2019-10-10T07:54:29Z</time>
      </trkpt>
      <trkpt lat="45.00763" lon="5.46973">
        <ele>1206.8000488281</ele>
        <time>2019-10-10T07:54:33Z</time>
      </trkpt>
      <trkpt lat="45.00731" lon="5.46969">
        <ele>1203.5999755859</ele>
        <time>2019-10-10T07:54:36Z</time>
      </trkpt>
      <trkpt lat="45.0072" lon="5.46966">
        <ele>1202.1999511719</ele>
        <time>2019-10-10T07:54:38Z</time>
      </trkpt>
      <trkpt lat="45.00678" lon="5.46928">
        <ele>1199</ele>
        <time>2019-10-10T07:54:42Z</time>
      </trkpt>
      <trkpt lat="45.0065" lon="5.46935">
        <ele>1196</ele>
        <time>2019-10-10T07:54:45Z</time>
      </trkpt>
      <trkpt lat="45.00624" lon="5.46958">
        <ele>1192</ele>
        <time>2019-10-10T07:54:48Z</time>
      </trkpt>
      <trkpt lat="45.006" lon="5.4698">
        <ele>1188.8000488281</ele>
        <time>2019-10-10T07:54:51Z</time>
      </trkpt>
      <trkpt lat="45.00569" lon="5.46972">
        <ele>1185.4000244141</ele>
        <time>2019-10-10T07:54:55Z</time>
      </trkpt>
      <trkpt lat="45.00552" lon="5.46948">
        <ele>1183.4000244141</ele>
        <time>2019-10-10T07:54:58Z</time>
      </trkpt>
      <trkpt lat="45.0051" lon="5.46923">
        <ele>1179.8000488281</ele>
        <time>2019-10-10T07:55:03Z</time>
      </trkpt>
      <trkpt lat="45.00495" lon="5.46911">
        <ele>1178.5999755859</ele>
        <time>2019-10-10T07:55:05Z</time>
      </trkpt>
      <trkpt lat="45.00472" lon="5.46886">
        <ele>1178</ele>
        <time>2019-10-10T07:55:08Z</time>
      </trkpt>
      <trkpt lat="45.00422" lon="5.46816">
        <ele>1174.4000244141</ele>
        <time>2019-10-10T07:55:14Z</time>
      </trkpt>
      <trkpt lat="45.00401" lon="5.46801">
        <ele>1173.1999511719</ele>
        <time>2019-10-10T07:55:16Z</time>
      </trkpt>
      <trkpt lat="45.00357" lon="5.46765">
        <ele>1168.8000488281</ele>
        <time>2019-10-10T07:55:21Z</time>
      </trkpt>
      <trkpt lat="45.00351" lon="5.4676">
        <ele>1168</ele>
        <time>2019-10-10T07:55:23Z</time>
      </trkpt>
      <trkpt lat="45.00348" lon="5.4675">
        <ele>1165.1999511719</ele>
        <time>2019-10-10T07:55:26Z</time>
      </trkpt>
      <trkpt lat="45.00366" lon="5.46748">
        <ele>1163</ele>
        <time>2019-10-10T07:55:28Z</time>
      </trkpt>
      <trkpt lat="45.00383" lon="5.46761">
        <ele>1160.5999755859</ele>
        <time>2019-10-10T07:55:31Z</time>
      </trkpt>
      <trkpt lat="45.00389" lon="5.46765">
        <ele>1159.1999511719</ele>
        <time>2019-10-10T07:55:33Z</time>
      </trkpt>
      <trkpt lat="45.00414" lon="5.4677">
        <ele>1156.8000488281</ele>
        <time>2019-10-10T07:55:36Z</time>
      </trkpt>
      <trkpt lat="45.00453" lon="5.46781">
        <ele>1155</ele>
        <time>2019-10-10T07:55:40Z</time>
      </trkpt>
      <trkpt lat="45.00481" lon="5.46789">
        <ele>1153.1999511719</ele>
        <time>2019-10-10T07:55:43Z</time>
      </trkpt>
      <trkpt lat="45.00502" lon="5.46784">
        <ele>1151.1999511719</ele>
        <time>2019-10-10T07:55:45Z</time>
      </trkpt>
      <trkpt lat="45.00519" lon="5.46782">
        <ele>1149.8000488281</ele>
        <time>2019-10-10T07:55:47Z</time>
      </trkpt>
      <trkpt lat="45.00549" lon="5.46783">
        <ele>1148.1999511719</ele>
        <time>2019-10-10T07:55:50Z</time>
      </trkpt>
      <trkpt lat="45.00573" lon="5.46792">
        <ele>1145.1999511719</ele>
        <time>2019-10-10T07:55:53Z</time>
      </trkpt>
      <trkpt lat="45.0062" lon="5.46793">
        <ele>1138.1999511719</ele>
        <time>2019-10-10T07:56:01Z</time>
      </trkpt>
      <trkpt lat="45.00627" lon="5.46789">
        <ele>1136.8000488281</ele>
        <time>2019-10-10T07:56:04Z</time>
      </trkpt>
      <trkpt lat="45.0065" lon="5.46783">
        <ele>1132.1999511719</ele>
        <time>2019-10-10T07:56:53Z</time>
      </trkpt>
      <trkpt lat="45.00668" lon="5.46784">
        <ele>1132</ele>
        <time>2019-10-10T07:56:57Z</time>
      </trkpt>
      <trkpt lat="45.00693" lon="5.46786">
        <ele>1131.8000488281</ele>
        <time>2019-10-10T07:57:01Z</time>
      </trkpt>
      <trkpt lat="45.00714" lon="5.46788">
        <ele>1131.4000244141</ele>
        <time>2019-10-10T07:57:04Z</time>
      </trkpt>
      <trkpt lat="45.00763" lon="5.4679">
        <ele>1129</ele>
        <time>2019-10-10T07:57:10Z</time>
      </trkpt>
      <trkpt lat="45.00789" lon="5.46785">
        <ele>1127.8000488281</ele>
        <time>2019-10-10T07:57:13Z</time>
      </trkpt>
      <trkpt lat="45.00834" lon="5.46775">
        <ele>1124.1999511719</ele>
        <time>2019-10-10T07:57:18Z</time>
      </trkpt>
      <trkpt lat="45.00852" lon="5.46774">
        <ele>1122.8000488281</ele>
        <time>2019-10-10T07:57:20Z</time>
      </trkpt>
      <trkpt lat="45.00872" lon="5.46774">
        <ele>1121</ele>
        <time>2019-10-10T07:57:23Z</time>
      </trkpt>
      <trkpt lat="45.00911" lon="5.46773">
        <ele>1118.1999511719</ele>
        <time>2019-10-10T07:57:27Z</time>
      </trkpt>
      <trkpt lat="45.00959" lon="5.46768">
        <ele>1115.8000488281</ele>
        <time>2019-10-10T07:57:31Z</time>
      </trkpt>
      <trkpt lat="45.01005" lon="5.46762">
        <ele>1112.4000244141</ele>
        <time>2019-10-10T07:57:36Z</time>
      </trkpt>
      <trkpt lat="45.01024" lon="5.46756">
        <ele>1110.8000488281</ele>
        <time>2019-10-10T07:57:38Z</time>
      </trkpt>
      <trkpt lat="45.01072" lon="5.4673">
        <ele>1107.4000244141</ele>
        <time>2019-10-10T07:57:43Z</time>
      </trkpt>
      <trkpt lat="45.01095" lon="5.46722">
        <ele>1106</ele>
        <time>2019-10-10T07:57:45Z</time>
      </trkpt>
      <trkpt lat="45.01129" lon="5.46715">
        <ele>1104</ele>
        <time>2019-10-10T07:57:48Z</time>
      </trkpt>
      <trkpt lat="45.01154" lon="5.46707">
        <ele>1102.1999511719</ele>
        <time>2019-10-10T07:57:50Z</time>
      </trkpt>
      <trkpt lat="45.01216" lon="5.46689">
        <ele>1099</ele>
        <time>2019-10-10T07:57:55Z</time>
      </trkpt>
      <trkpt lat="45.0124" lon="5.46682">
        <ele>1096.8000488281</ele>
        <time>2019-10-10T07:57:57Z</time>
      </trkpt>
      <trkpt lat="45.01294" lon="5.46654">
        <ele>1091</ele>
        <time>2019-10-10T07:58:02Z</time>
      </trkpt>
      <trkpt lat="45.01313" lon="5.46637">
        <ele>1089</ele>
        <time>2019-10-10T07:58:04Z</time>
      </trkpt>
      <trkpt lat="45.01353" lon="5.46598">
        <ele>1084.5999755859</ele>
        <time>2019-10-10T07:58:08Z</time>
      </trkpt>
      <trkpt lat="45.01384" lon="5.46561">
        <ele>1080.8000488281</ele>
        <time>2019-10-10T07:58:12Z</time>
      </trkpt>
      <trkpt lat="45.01394" lon="5.46541">
        <ele>1077.8000488281</ele>
        <time>2019-10-10T07:58:15Z</time>
      </trkpt>
      <trkpt lat="45.0139" lon="5.46486">
        <ele>1074.5999755859</ele>
        <time>2019-10-10T07:58:19Z</time>
      </trkpt>
      <trkpt lat="45.01372" lon="5.46467">
        <ele>1071.8000488281</ele>
        <time>2019-10-10T07:58:22Z</time>
      </trkpt>
      <trkpt lat="45.01342" lon="5.4644">
        <ele>1069.1999511719</ele>
        <time>2019-10-10T07:58:26Z</time>
      </trkpt>
      <trkpt lat="45.01299" lon="5.4641">
        <ele>1065.8000488281</ele>
        <time>2019-10-10T07:58:31Z</time>
      </trkpt>
      <trkpt lat="45.01266" lon="5.46387">
        <ele>1064.4000244141</ele>
        <time>2019-10-10T07:58:35Z</time>
      </trkpt>
      <trkpt lat="45.01245" lon="5.46374">
        <ele>1063.4000244141</ele>
        <time>2019-10-10T07:58:38Z</time>
      </trkpt>
      <trkpt lat="45.01239" lon="5.46367">
        <ele>1061.8000488281</ele>
        <time>2019-10-10T07:58:41Z</time>
      </trkpt>
      <trkpt lat="45.01244" lon="5.46356">
        <ele>1060.8000488281</ele>
        <time>2019-10-10T07:58:44Z</time>
      </trkpt>
      <trkpt lat="45.01277" lon="5.46355">
        <ele>1058.4000244141</ele>
        <time>2019-10-10T07:58:48Z</time>
      </trkpt>
      <trkpt lat="45.01294" lon="5.46351">
        <ele>1057.4000244141</ele>
        <time>2019-10-10T07:58:50Z</time>
      </trkpt>
      <trkpt lat="45.0133" lon="5.46331">
        <ele>1055.4000244141</ele>
        <time>2019-10-10T07:58:54Z</time>
      </trkpt>
      <trkpt lat="45.01359" lon="5.46313">
        <ele>1054.1999511719</ele>
        <time>2019-10-10T07:58:57Z</time>
      </trkpt>
      <trkpt lat="45.01378" lon="5.46304">
        <ele>1053.1999511719</ele>
        <time>2019-10-10T07:58:59Z</time>
      </trkpt>
      <trkpt lat="45.01424" lon="5.46278">
        <ele>1049.4000244141</ele>
        <time>2019-10-10T07:59:04Z</time>
      </trkpt>
      <trkpt lat="45.01442" lon="5.46263">
        <ele>1047.8000488281</ele>
        <time>2019-10-10T07:59:06Z</time>
      </trkpt>
      <trkpt lat="45.01485" lon="5.46207">
        <ele>1043.5999755859</ele>
        <time>2019-10-10T07:59:12Z</time>
      </trkpt>
      <trkpt lat="45.01505" lon="5.46194">
        <ele>1041.8000488281</ele>
        <time>2019-10-10T07:59:14Z</time>
      </trkpt>
      <trkpt lat="45.01543" lon="5.46182">
        <ele>1038.4000244141</ele>
        <time>2019-10-10T07:59:18Z</time>
      </trkpt>
      <trkpt lat="45.01581" lon="5.46177">
        <ele>1035</ele>
        <time>2019-10-10T07:59:22Z</time>
      </trkpt>
      <trkpt lat="45.01622" lon="5.46168">
        <ele>1031.5999755859</ele>
        <time>2019-10-10T07:59:26Z</time>
      </trkpt>
      <trkpt lat="45.01662" lon="5.46154">
        <ele>1028.1999511719</ele>
        <time>2019-10-10T07:59:30Z</time>
      </trkpt>
      <trkpt lat="45.01703" lon="5.46143">
        <ele>1025</ele>
        <time>2019-10-10T07:59:34Z</time>
      </trkpt>
      <trkpt lat="45.01725" lon="5.46139">
        <ele>1023</ele>
        <time>2019-10-10T07:59:37Z</time>
      </trkpt>
      <trkpt lat="45.01784" lon="5.4613">
        <ele>1019.5999755859</ele>
        <time>2019-10-10T07:59:41Z</time>
      </trkpt>
      <trkpt lat="45.01808" lon="5.4613">
        <ele>1017.799987793</ele>
        <time>2019-10-10T07:59:43Z</time>
      </trkpt>
      <trkpt lat="45.01843" lon="5.46126">
        <ele>1015.4000244141</ele>
        <time>2019-10-10T07:59:46Z</time>
      </trkpt>
      <trkpt lat="45.019" lon="5.46118">
        <ele>1009.799987793</ele>
        <time>2019-10-10T07:59:51Z</time>
      </trkpt>
      <trkpt lat="45.01923" lon="5.46114">
        <ele>1007.5999755859</ele>
        <time>2019-10-10T07:59:53Z</time>
      </trkpt>
      <trkpt lat="45.01966" lon="5.46118">
        <ele>1003.5999755859</ele>
        <time>2019-10-10T07:59:57Z</time>
      </trkpt>
      <trkpt lat="45.01996" lon="5.46118">
        <ele>1002</ele>
        <time>2019-10-10T08:00:00Z</time>
      </trkpt>
      <trkpt lat="45.02043" lon="5.46112">
        <ele>997.59997558594</ele>
        <time>2019-10-10T08:00:04Z</time>
      </trkpt>
      <trkpt lat="45.02079" lon="5.46112">
        <ele>994.59997558594</ele>
        <time>2019-10-10T08:00:07Z</time>
      </trkpt>
      <trkpt lat="45.02114" lon="5.46109">
        <ele>992.20001220703</ele>
        <time>2019-10-10T08:00:10Z</time>
      </trkpt>
      <trkpt lat="45.02152" lon="5.46102">
        <ele>989.59997558594</ele>
        <time>2019-10-10T08:00:13Z</time>
      </trkpt>
      <trkpt lat="45.02204" lon="5.46096">
        <ele>985.59997558594</ele>
        <time>2019-10-10T08:00:17Z</time>
      </trkpt>
      <trkpt lat="45.02228" lon="5.46089">
        <ele>983.40002441406</ele>
        <time>2019-10-10T08:00:19Z</time>
      </trkpt>
      <trkpt lat="45.0226" lon="5.46071">
        <ele>979.20001220703</ele>
        <time>2019-10-10T08:00:23Z</time>
      </trkpt>
      <trkpt lat="45.02286" lon="5.46046">
        <ele>976.79998779297</ele>
        <time>2019-10-10T08:00:25Z</time>
      </trkpt>
      <trkpt lat="45.02295" lon="5.46036">
        <ele>975.79998779297</ele>
        <time>2019-10-10T08:00:27Z</time>
      </trkpt>
      <trkpt lat="45.02345" lon="5.46003">
        <ele>970.79998779297</ele>
        <time>2019-10-10T08:00:31Z</time>
      </trkpt>
      <trkpt lat="45.02378" lon="5.45991">
        <ele>967.79998779297</ele>
        <time>2019-10-10T08:00:34Z</time>
      </trkpt>
      <trkpt lat="45.02407" lon="5.45959">
        <ele>963.59997558594</ele>
        <time>2019-10-10T08:00:38Z</time>
      </trkpt>
      <trkpt lat="45.02424" lon="5.45939">
        <ele>961.79998779297</ele>
        <time>2019-10-10T08:00:40Z</time>
      </trkpt>
      <trkpt lat="45.02443" lon="5.45915">
        <ele>958.79998779297</ele>
        <time>2019-10-10T08:00:43Z</time>
      </trkpt>
      <trkpt lat="45.02448" lon="5.45903">
        <ele>956.79998779297</ele>
        <time>2019-10-10T08:00:45Z</time>
      </trkpt>
      <trkpt lat="45.02467" lon="5.45812">
        <ele>951.20001220703</ele>
        <time>2019-10-10T08:00:50Z</time>
      </trkpt>
      <trkpt lat="45.02491" lon="5.45753">
        <ele>948</ele>
        <time>2019-10-10T08:00:54Z</time>
      </trkpt>
      <trkpt lat="45.02501" lon="5.45717">
        <ele>943.40002441406</ele>
        <time>2019-10-10T08:00:58Z</time>
      </trkpt>
      <trkpt lat="45.02509" lon="5.45679">
        <ele>941.40002441406</ele>
        <time>2019-10-10T08:01:00Z</time>
      </trkpt>
      <trkpt lat="45.02534" lon="5.45631">
        <ele>936.79998779297</ele>
        <time>2019-10-10T08:01:04Z</time>
      </trkpt>
      <trkpt lat="45.0255" lon="5.45597">
        <ele>934</ele>
        <time>2019-10-10T08:01:07Z</time>
      </trkpt>
      <trkpt lat="45.02576" lon="5.45552">
        <ele>930.40002441406</ele>
        <time>2019-10-10T08:01:11Z</time>
      </trkpt>
      <trkpt lat="45.026" lon="5.45526">
        <ele>928</ele>
        <time>2019-10-10T08:01:14Z</time>
      </trkpt>
      <trkpt lat="45.02613" lon="5.45505">
        <ele>926</ele>
        <time>2019-10-10T08:01:16Z</time>
      </trkpt>
      <trkpt lat="45.02637" lon="5.45463">
        <ele>923.20001220703</ele>
        <time>2019-10-10T08:01:20Z</time>
      </trkpt>
      <trkpt lat="45.02655" lon="5.45456">
        <ele>921.40002441406</ele>
        <time>2019-10-10T08:01:22Z</time>
      </trkpt>
      <trkpt lat="45.02674" lon="5.45445">
        <ele>918.59997558594</ele>
        <time>2019-10-10T08:01:25Z</time>
      </trkpt>
      <trkpt lat="45.02695" lon="5.45412">
        <ele>915.40002441406</ele>
        <time>2019-10-10T08:01:28Z</time>
      </trkpt>
      <trkpt lat="45.02726" lon="5.45364">
        <ele>911.59997558594</ele>
        <time>2019-10-10T08:01:32Z</time>
      </trkpt>
      <trkpt lat="45.0275" lon="5.45328">
        <ele>908.79998779297</ele>
        <time>2019-10-10T08:01:35Z</time>
      </trkpt>
      <trkpt lat="45.02791" lon="5.45283">
        <ele>904.40002441406</ele>
        <time>2019-10-10T08:01:40Z</time>
      </trkpt>
      <trkpt lat="45.02815" lon="5.45256">
        <ele>902.40002441406</ele>
        <time>2019-10-10T08:01:43Z</time>
      </trkpt>
      <trkpt lat="45.02848" lon="5.45189">
        <ele>895.79998779297</ele>
        <time>2019-10-10T08:01:49Z</time>
      </trkpt>
      <trkpt lat="45.02855" lon="5.45182">
        <ele>894</ele>
        <time>2019-10-10T08:01:51Z</time>
      </trkpt>
      <trkpt lat="45.02873" lon="5.45172">
        <ele>891.59997558594</ele>
        <time>2019-10-10T08:01:54Z</time>
      </trkpt>
      <trkpt lat="45.02888" lon="5.45165">
        <ele>890.40002441406</ele>
        <time>2019-10-10T08:01:56Z</time>
      </trkpt>
      <trkpt lat="45.02914" lon="5.45154">
        <ele>887.79998779297</ele>
        <time>2019-10-10T08:01:59Z</time>
      </trkpt>
      <trkpt lat="45.0294" lon="5.45132">
        <ele>884.79998779297</ele>
        <time>2019-10-10T08:02:03Z</time>
      </trkpt>
      <trkpt lat="45.02967" lon="5.45109">
        <ele>883</ele>
        <time>2019-10-10T08:02:05Z</time>
      </trkpt>
      <trkpt lat="45.02995" lon="5.45093">
        <ele>881.79998779297</ele>
        <time>2019-10-10T08:02:08Z</time>
      </trkpt>
      <trkpt lat="45.03036" lon="5.45072">
        <ele>878.40002441406</ele>
        <time>2019-10-10T08:02:12Z</time>
      </trkpt>
      <trkpt lat="45.03088" lon="5.45033">
        <ele>874</ele>
        <time>2019-10-10T08:02:17Z</time>
      </trkpt>
      <trkpt lat="45.03107" lon="5.45016">
        <ele>872</ele>
        <time>2019-10-10T08:02:19Z</time>
      </trkpt>
      <trkpt lat="45.03141" lon="5.44985">
        <ele>869.59997558594</ele>
        <time>2019-10-10T08:02:22Z</time>
      </trkpt>
      <trkpt lat="45.0316" lon="5.44961">
        <ele>868</ele>
        <time>2019-10-10T08:02:24Z</time>
      </trkpt>
      <trkpt lat="45.03192" lon="5.44916">
        <ele>864.40002441406</ele>
        <time>2019-10-10T08:02:28Z</time>
      </trkpt>
      <trkpt lat="45.03207" lon="5.44899">
        <ele>862.20001220703</ele>
        <time>2019-10-10T08:02:30Z</time>
      </trkpt>
      <trkpt lat="45.03242" lon="5.44866">
        <ele>856.59997558594</ele>
        <time>2019-10-10T08:02:36Z</time>
      </trkpt>
      <trkpt lat="45.03258" lon="5.44855">
        <ele>853.40002441406</ele>
        <time>2019-10-10T08:02:40Z</time>
      </trkpt>
      <trkpt lat="45.03265" lon="5.44852">
        <ele>850.79998779297</ele>
        <time>2019-10-10T08:02:44Z</time>
      </trkpt>
      <trkpt lat="45.03271" lon="5.44849">
        <ele>847.20001220703</ele>
        <time>2019-10-10T08:03:36Z</time>
      </trkpt>
      <trkpt lat="45.03279" lon="5.44847">
        <ele>847</ele>
        <time>2019-10-10T08:03:38Z</time>
      </trkpt>
      <trkpt lat="45.0331" lon="5.44843">
        <ele>846.79998779297</ele>
        <time>2019-10-10T08:03:43Z</time>
      </trkpt>
      <trkpt lat="45.03332" lon="5.44842">
        <ele>846.40002441406</ele>
        <time>2019-10-10T08:03:46Z</time>
      </trkpt>
      <trkpt lat="45.03352" lon="5.44824">
        <ele>845.79998779297</ele>
        <time>2019-10-10T08:03:49Z</time>
      </trkpt>
      <trkpt lat="45.03367" lon="5.44791">
        <ele>844.59997558594</ele>
        <time>2019-10-10T08:03:52Z</time>
      </trkpt>
      <trkpt lat="45.03395" lon="5.44734">
        <ele>842.40002441406</ele>
        <time>2019-10-10T08:03:57Z</time>
      </trkpt>
      <trkpt lat="45.03415" lon="5.44683">
        <ele>839.79998779297</ele>
        <time>2019-10-10T08:04:01Z</time>
      </trkpt>
      <trkpt lat="45.03432" lon="5.44645">
        <ele>837.79998779297</ele>
        <time>2019-10-10T08:04:04Z</time>
      </trkpt>
      <trkpt lat="45.03449" lon="5.44612">
        <ele>834</ele>
        <time>2019-10-10T08:04:08Z</time>
      </trkpt>
      <trkpt lat="45.03478" lon="5.44559">
        <ele>829.79998779297</ele>
        <time>2019-10-10T08:04:14Z</time>
      </trkpt>
      <trkpt lat="45.03503" lon="5.44512">
        <ele>826.40002441406</ele>
        <time>2019-10-10T08:04:18Z</time>
      </trkpt>
      <trkpt lat="45.03514" lon="5.44498">
        <ele>824.40002441406</ele>
        <time>2019-10-10T08:04:21Z</time>
      </trkpt>
      <trkpt lat="45.03532" lon="5.44486">
        <ele>822.79998779297</ele>
        <time>2019-10-10T08:04:23Z</time>
      </trkpt>
      <trkpt lat="45.03538" lon="5.44485">
        <ele>821.59997558594</ele>
        <time>2019-10-10T08:04:25Z</time>
      </trkpt>
      <trkpt lat="45.03567" lon="5.44468">
        <ele>818.20001220703</ele>
        <time>2019-10-10T08:04:29Z</time>
      </trkpt>
      <trkpt lat="45.03571" lon="5.44455">
        <ele>816.40002441406</ele>
        <time>2019-10-10T08:04:32Z</time>
      </trkpt>
      <trkpt lat="45.03559" lon="5.44433">
        <ele>811.79998779297</ele>
        <time>2019-10-10T08:04:41Z</time>
      </trkpt>
      <trkpt lat="45.03572" lon="5.44442">
        <ele>811.20001220703</ele>
        <time>2019-10-10T08:04:44Z</time>
      </trkpt>
      <trkpt lat="45.03567" lon="5.44435">
        <ele>810.40002441406</ele>
        <time>2019-10-10T08:04:56Z</time>
      </trkpt>
      <trkpt lat="45.03567" lon="5.44435">
        <ele>810.40002441406</ele>
        <time>2019-10-10T08:04:58Z</time>
      </trkpt>
      <trkpt lat="45.03552" lon="5.44432">
        <ele>810.20001220703</ele>
        <time>2019-10-10T08:05:06Z</time>
      </trkpt>
      <trkpt lat="45.03528" lon="5.44425">
        <ele>810.20001220703</ele>
        <time>2019-10-10T08:05:10Z</time>
      </trkpt>
      <trkpt lat="45.03469" lon="5.4441">
        <ele>809</ele>
        <time>2019-10-10T08:05:16Z</time>
      </trkpt>
      <trkpt lat="45.0345" lon="5.44405">
        <ele>808.20001220703</ele>
        <time>2019-10-10T08:05:18Z</time>
      </trkpt>
      <trkpt lat="45.03399" lon="5.44395">
        <ele>805.59997558594</ele>
        <time>2019-10-10T08:05:23Z</time>
      </trkpt>
      <trkpt lat="45.03357" lon="5.44392">
        <ele>803.40002441406</ele>
        <time>2019-10-10T08:05:27Z</time>
      </trkpt>
      <trkpt lat="45.03313" lon="5.44389">
        <ele>801</ele>
        <time>2019-10-10T08:05:32Z</time>
      </trkpt>
      <trkpt lat="45.03254" lon="5.44392">
        <ele>797.79998779297</ele>
        <time>2019-10-10T08:05:36Z</time>
      </trkpt>
      <trkpt lat="45.03219" lon="5.44401">
        <ele>795.20001220703</ele>
        <time>2019-10-10T08:05:39Z</time>
      </trkpt>
      <trkpt lat="45.03174" lon="5.44398">
        <ele>792</ele>
        <time>2019-10-10T08:05:43Z</time>
      </trkpt>
      <trkpt lat="45.0314" lon="5.44396">
        <ele>790</ele>
        <time>2019-10-10T08:05:46Z</time>
      </trkpt>
      <trkpt lat="45.03094" lon="5.44396">
        <ele>786.59997558594</ele>
        <time>2019-10-10T08:05:50Z</time>
      </trkpt>
      <trkpt lat="45.03061" lon="5.44409">
        <ele>784</ele>
        <time>2019-10-10T08:05:53Z</time>
      </trkpt>
      <trkpt lat="45.02993" lon="5.44408">
        <ele>779.20001220703</ele>
        <time>2019-10-10T08:05:59Z</time>
      </trkpt>
      <trkpt lat="45.02948" lon="5.44405">
        <ele>776.20001220703</ele>
        <time>2019-10-10T08:06:03Z</time>
      </trkpt>
      <trkpt lat="45.02884" lon="5.4438">
        <ele>770.79998779297</ele>
        <time>2019-10-10T08:06:09Z</time>
      </trkpt>
      <trkpt lat="45.02864" lon="5.44368">
        <ele>769</ele>
        <time>2019-10-10T08:06:11Z</time>
      </trkpt>
      <trkpt lat="45.02823" lon="5.44357">
        <ele>765.79998779297</ele>
        <time>2019-10-10T08:06:15Z</time>
      </trkpt>
      <trkpt lat="45.02803" lon="5.44364">
        <ele>764.20001220703</ele>
        <time>2019-10-10T08:06:17Z</time>
      </trkpt>
      <trkpt lat="45.02752" lon="5.4438">
        <ele>761</ele>
        <time>2019-10-10T08:06:22Z</time>
      </trkpt>
      <trkpt lat="45.02714" lon="5.44399">
        <ele>758.79998779297</ele>
        <time>2019-10-10T08:06:26Z</time>
      </trkpt>
      <trkpt lat="45.02694" lon="5.444">
        <ele>757.40002441406</ele>
        <time>2019-10-10T08:06:28Z</time>
      </trkpt>
      <trkpt lat="45.02663" lon="5.44398">
        <ele>754.59997558594</ele>
        <time>2019-10-10T08:06:32Z</time>
      </trkpt>
      <trkpt lat="45.0262" lon="5.44395">
        <ele>752.79998779297</ele>
        <time>2019-10-10T08:06:35Z</time>
      </trkpt>
      <trkpt lat="45.02591" lon="5.44394">
        <ele>750</ele>
        <time>2019-10-10T08:06:39Z</time>
      </trkpt>
      <trkpt lat="45.02563" lon="5.44394">
        <ele>747</ele>
        <time>2019-10-10T08:06:43Z</time>
      </trkpt>
      <trkpt lat="45.02494" lon="5.44387">
        <ele>741.20001220703</ele>
        <time>2019-10-10T08:06:52Z</time>
      </trkpt>
      <trkpt lat="45.0243" lon="5.44369">
        <ele>737.40002441406</ele>
        <time>2019-10-10T08:07:01Z</time>
      </trkpt>
      <trkpt lat="45.02387" lon="5.44355">
        <ele>736.59997558594</ele>
        <time>2019-10-10T08:07:08Z</time>
      </trkpt>
      <trkpt lat="45.02343" lon="5.4434">
        <ele>736.40002441406</ele>
        <time>2019-10-10T08:07:14Z</time>
      </trkpt>
      <trkpt lat="45.02299" lon="5.44326">
        <ele>736.20001220703</ele>
        <time>2019-10-10T08:07:22Z</time>
      </trkpt>
      <trkpt lat="45.02261" lon="5.44314">
        <ele>736.59997558594</ele>
        <time>2019-10-10T08:07:29Z</time>
      </trkpt>
      <trkpt lat="45.02209" lon="5.44298">
        <ele>737.20001220703</ele>
        <time>2019-10-10T08:07:40Z</time>
      </trkpt>
      <trkpt lat="45.02177" lon="5.44288">
        <ele>737.59997558594</ele>
        <time>2019-10-10T08:07:50Z</time>
      </trkpt>
      <trkpt lat="45.02168" lon="5.44285">
        <ele>737.59997558594</ele>
        <time>2019-10-10T08:07:55Z</time>
      </trkpt>
      <trkpt lat="45.02148" lon="5.44273">
        <ele>737.59997558594</ele>
        <time>2019-10-10T08:08:02Z</time>
      </trkpt>
      <trkpt lat="45.02142" lon="5.4427">
        <ele>737.59997558594</ele>
        <time>2019-10-10T08:08:05Z</time>
      </trkpt>
      <trkpt lat="45.0213" lon="5.44263">
        <ele>736.79998779297</ele>
        <time>2019-10-10T08:08:08Z</time>
      </trkpt>
      <trkpt lat="45.02082" lon="5.44241">
        <ele>735.59997558594</ele>
        <time>2019-10-10T08:08:15Z</time>
      </trkpt>
      <trkpt lat="45.02047" lon="5.4424">
        <ele>733.59997558594</ele>
        <time>2019-10-10T08:08:21Z</time>
      </trkpt>
      <trkpt lat="45.02004" lon="5.44254">
        <ele>732.79998779297</ele>
        <time>2019-10-10T08:08:26Z</time>
      </trkpt>
      <trkpt lat="45.01969" lon="5.44274">
        <ele>730.59997558594</ele>
        <time>2019-10-10T08:08:34Z</time>
      </trkpt>
      <trkpt lat="45.01975" lon="5.44271">
        <ele>729.20001220703</ele>
        <time>2019-10-10T08:08:39Z</time>
      </trkpt>
      <trkpt lat="45.01985" lon="5.44264">
        <ele>728.20001220703</ele>
        <time>2019-10-10T08:09:41Z</time>
      </trkpt>
      <trkpt lat="45.01978" lon="5.44269">
        <ele>728.20001220703</ele>
        <time>2019-10-10T08:09:45Z</time>
      </trkpt>
      <trkpt lat="45.01955" lon="5.44281">
        <ele>728.20001220703</ele>
        <time>2019-10-10T08:09:51Z</time>
      </trkpt>
      <trkpt lat="45.01935" lon="5.44284">
        <ele>728.20001220703</ele>
        <time>2019-10-10T08:09:55Z</time>
      </trkpt>
      <trkpt lat="45.01866" lon="5.44281">
        <ele>726</ele>
        <time>2019-10-10T08:10:06Z</time>
      </trkpt>
      <trkpt lat="45.01811" lon="5.44279">
        <ele>724.59997558594</ele>
        <time>2019-10-10T08:10:13Z</time>
      </trkpt>
      <trkpt lat="45.01766" lon="5.44278">
        <ele>723.40002441406</ele>
        <time>2019-10-10T08:10:19Z</time>
      </trkpt>
      <trkpt lat="45.01715" lon="5.44276">
        <ele>721.59997558594</ele>
        <time>2019-10-10T08:10:26Z</time>
      </trkpt>
      <trkpt lat="45.01678" lon="5.44266">
        <ele>720.59997558594</ele>
        <time>2019-10-10T08:10:31Z</time>
      </trkpt>
      <trkpt lat="45.01615" lon="5.44244">
        <ele>718.59997558594</ele>
        <time>2019-10-10T08:10:39Z</time>
      </trkpt>
      <trkpt lat="45.01582" lon="5.44237">
        <ele>717.40002441406</ele>
        <time>2019-10-10T08:10:43Z</time>
      </trkpt>
      <trkpt lat="45.01524" lon="5.44237">
        <ele>715.20001220703</ele>
        <time>2019-10-10T08:10:50Z</time>
      </trkpt>
      <trkpt lat="45.01473" lon="5.44242">
        <ele>713.40002441406</ele>
        <time>2019-10-10T08:10:56Z</time>
      </trkpt>
      <trkpt lat="45.01412" lon="5.44249">
        <ele>711.59997558594</ele>
        <time>2019-10-10T08:11:03Z</time>
      </trkpt>
      <trkpt lat="45.0136" lon="5.44255">
        <ele>709.20001220703</ele>
        <time>2019-10-10T08:11:09Z</time>
      </trkpt>
      <trkpt lat="45.01291" lon="5.44277">
        <ele>707</ele>
        <time>2019-10-10T08:11:18Z</time>
      </trkpt>
      <trkpt lat="45.0126" lon="5.44282">
        <ele>705.59997558594</ele>
        <time>2019-10-10T08:11:23Z</time>
      </trkpt>
      <trkpt lat="45.01169" lon="5.44274">
        <ele>704.20001220703</ele>
        <time>2019-10-10T08:11:34Z</time>
      </trkpt>
      <trkpt lat="45.01109" lon="5.44274">
        <ele>702.79998779297</ele>
        <time>2019-10-10T08:11:43Z</time>
      </trkpt>
      <trkpt lat="45.0107" lon="5.44274">
        <ele>701.79998779297</ele>
        <time>2019-10-10T08:11:47Z</time>
      </trkpt>
      <trkpt lat="45.00994" lon="5.44275">
        <ele>700.59997558594</ele>
        <time>2019-10-10T08:11:56Z</time>
      </trkpt>
      <trkpt lat="45.00953" lon="5.44262">
        <ele>699</ele>
        <time>2019-10-10T08:12:01Z</time>
      </trkpt>
      <trkpt lat="45.00895" lon="5.44215">
        <ele>697</ele>
        <time>2019-10-10T08:12:09Z</time>
      </trkpt>
      <trkpt lat="45.00881" lon="5.44212">
        <ele>696.59997558594</ele>
        <time>2019-10-10T08:12:11Z</time>
      </trkpt>
      <trkpt lat="45.00852" lon="5.44222">
        <ele>695.79998779297</ele>
        <time>2019-10-10T08:12:15Z</time>
      </trkpt>
      <trkpt lat="45.00815" lon="5.4425">
        <ele>694.59997558594</ele>
        <time>2019-10-10T08:12:20Z</time>
      </trkpt>
      <trkpt lat="45.00783" lon="5.44261">
        <ele>693.40002441406</ele>
        <time>2019-10-10T08:12:24Z</time>
      </trkpt>
      <trkpt lat="45.00775" lon="5.44259">
        <ele>692.79998779297</ele>
        <time>2019-10-10T08:12:26Z</time>
      </trkpt>
      <trkpt lat="45.00751" lon="5.44231">
        <ele>691.79998779297</ele>
        <time>2019-10-10T08:12:29Z</time>
      </trkpt>
      <trkpt lat="45.00742" lon="5.44179">
        <ele>690.20001220703</ele>
        <time>2019-10-10T08:12:33Z</time>
      </trkpt>
      <trkpt lat="45.00737" lon="5.44126">
        <ele>688.40002441406</ele>
        <time>2019-10-10T08:12:38Z</time>
      </trkpt>
      <trkpt lat="45.00712" lon="5.44084">
        <ele>687</ele>
        <time>2019-10-10T08:12:43Z</time>
      </trkpt>
      <trkpt lat="45.00696" lon="5.44085">
        <ele>686.40002441406</ele>
        <time>2019-10-10T08:12:45Z</time>
      </trkpt>
      <trkpt lat="45.00625" lon="5.44102">
        <ele>685</ele>
        <time>2019-10-10T08:12:53Z</time>
      </trkpt>
      <trkpt lat="45.00592" lon="5.4411">
        <ele>684.40002441406</ele>
        <time>2019-10-10T08:12:57Z</time>
      </trkpt>
      <trkpt lat="45.00522" lon="5.44112">
        <ele>682.79998779297</ele>
        <time>2019-10-10T08:13:05Z</time>
      </trkpt>
      <trkpt lat="45.00496" lon="5.44113">
        <ele>681.79998779297</ele>
        <time>2019-10-10T08:13:08Z</time>
      </trkpt>
      <trkpt lat="45.00472" lon="5.44128">
        <ele>681.20001220703</ele>
        <time>2019-10-10T08:13:11Z</time>
      </trkpt>
      <trkpt lat="45.00442" lon="5.44144">
        <ele>680.40002441406</ele>
        <time>2019-10-10T08:13:15Z</time>
      </trkpt>
      <trkpt lat="45.00402" lon="5.44139">
        <ele>678.79998779297</ele>
        <time>2019-10-10T08:13:20Z</time>
      </trkpt>
      <trkpt lat="45.00362" lon="5.44121">
        <ele>676.79998779297</ele>
        <time>2019-10-10T08:13:26Z</time>
      </trkpt>
      <trkpt lat="45.00314" lon="5.44053">
        <ele>674.40002441406</ele>
        <time>2019-10-10T08:13:36Z</time>
      </trkpt>
      <trkpt lat="45.00305" lon="5.43999">
        <ele>673.79998779297</ele>
        <time>2019-10-10T08:13:40Z</time>
      </trkpt>
      <trkpt lat="45.00312" lon="5.4393">
        <ele>673</ele>
        <time>2019-10-10T08:13:46Z</time>
      </trkpt>
      <trkpt lat="45.00327" lon="5.4377">
        <ele>671.20001220703</ele>
        <time>2019-10-10T08:14:01Z</time>
      </trkpt>
      <trkpt lat="45.00321" lon="5.43705">
        <ele>670.79998779297</ele>
        <time>2019-10-10T08:14:08Z</time>
      </trkpt>
      <trkpt lat="45.00302" lon="5.43682">
        <ele>670.79998779297</ele>
        <time>2019-10-10T08:14:12Z</time>
      </trkpt>
      <trkpt lat="45.00261" lon="5.43663">
        <ele>670.59997558594</ele>
        <time>2019-10-10T08:14:19Z</time>
      </trkpt>
      <trkpt lat="45.00186" lon="5.43626">
        <ele>670</ele>
        <time>2019-10-10T08:14:32Z</time>
      </trkpt>
      <trkpt lat="45.00163" lon="5.4361">
        <ele>669.40002441406</ele>
        <time>2019-10-10T08:14:36Z</time>
      </trkpt>
      <trkpt lat="45.00159" lon="5.4364">
        <ele>669.20001220703</ele>
        <time>2019-10-10T08:14:40Z</time>
      </trkpt>
      <trkpt lat="45.00117" lon="5.43702">
        <ele>669.40002441406</ele>
        <time>2019-10-10T08:14:51Z</time>
      </trkpt>
      <trkpt lat="45.00084" lon="5.43731">
        <ele>670.20001220703</ele>
        <time>2019-10-10T08:15:01Z</time>
      </trkpt>
      <trkpt lat="45.00075" lon="5.43748">
        <ele>670.59997558594</ele>
        <time>2019-10-10T08:15:04Z</time>
      </trkpt>
      <trkpt lat="45.00067" lon="5.43788">
        <ele>670.79998779297</ele>
        <time>2019-10-10T08:15:10Z</time>
      </trkpt>
      <trkpt lat="45.00046" lon="5.43847">
        <ele>670.79998779297</ele>
        <time>2019-10-10T08:15:19Z</time>
      </trkpt>
      <trkpt lat="44.99996" lon="5.43927">
        <ele>671</ele>
        <time>2019-10-10T08:15:33Z</time>
      </trkpt>
      <trkpt lat="44.99975" lon="5.43961">
        <ele>671.20001220703</ele>
        <time>2019-10-10T08:15:39Z</time>
      </trkpt>
      <trkpt lat="44.99952" lon="5.43999">
        <ele>671.59997558594</ele>
        <time>2019-10-10T08:15:46Z</time>
      </trkpt>
      <trkpt lat="44.99925" lon="5.4403">
        <ele>672</ele>
        <time>2019-10-10T08:15:53Z</time>
      </trkpt>
      <trkpt lat="44.99911" lon="5.44037">
        <ele>672</ele>
        <time>2019-10-10T08:15:56Z</time>
      </trkpt>
      <trkpt lat="44.99863" lon="5.44053">
        <ele>672.20001220703</ele>
        <time>2019-10-10T08:16:05Z</time>
      </trkpt>
      <trkpt lat="44.99846" lon="5.44054">
        <ele>672.40002441406</ele>
        <time>2019-10-10T08:16:08Z</time>
      </trkpt>
      <trkpt lat="44.99766" lon="5.44062">
        <ele>673.59997558594</ele>
        <time>2019-10-10T08:16:25Z</time>
      </trkpt>
      <trkpt lat="44.99704" lon="5.44065">
        <ele>674</ele>
        <time>2019-10-10T08:16:39Z</time>
      </trkpt>
      <trkpt lat="44.99651" lon="5.44061">
        <ele>675</ele>
        <time>2019-10-10T08:16:50Z</time>
      </trkpt>
      <trkpt lat="44.99622" lon="5.44059">
        <ele>675.20001220703</ele>
        <time>2019-10-10T08:16:56Z</time>
      </trkpt>
      <trkpt lat="44.99536" lon="5.44052">
        <ele>676</ele>
        <time>2019-10-10T08:17:14Z</time>
      </trkpt>
      <trkpt lat="44.99489" lon="5.44051">
        <ele>676.59997558594</ele>
        <time>2019-10-10T08:17:24Z</time>
      </trkpt>
      <trkpt lat="44.99432" lon="5.44038">
        <ele>676.79998779297</ele>
        <time>2019-10-10T08:17:36Z</time>
      </trkpt>
      <trkpt lat="44.99409" lon="5.44029">
        <ele>677</ele>
        <time>2019-10-10T08:17:42Z</time>
      </trkpt>
      <trkpt lat="44.99392" lon="5.44023">
        <ele>677.59997558594</ele>
        <time>2019-10-10T08:17:46Z</time>
      </trkpt>
      <trkpt lat="44.99336" lon="5.44011">
        <ele>679.20001220703</ele>
        <time>2019-10-10T08:17:59Z</time>
      </trkpt>
      <trkpt lat="44.99261" lon="5.44003">
        <ele>680</ele>
        <time>2019-10-10T08:18:15Z</time>
      </trkpt>
      <trkpt lat="44.9916" lon="5.43991">
        <ele>680.40002441406</ele>
        <time>2019-10-10T08:18:34Z</time>
      </trkpt>
      <trkpt lat="44.99107" lon="5.43984">
        <ele>680.40002441406</ele>
        <time>2019-10-10T08:18:45Z</time>
      </trkpt>
      <trkpt lat="44.99029" lon="5.4398">
        <ele>681.79998779297</ele>
        <time>2019-10-10T08:19:02Z</time>
      </trkpt>
      <trkpt lat="44.98995" lon="5.4398">
        <ele>682.40002441406</ele>
        <time>2019-10-10T08:19:09Z</time>
      </trkpt>
      <trkpt lat="44.98924" lon="5.4398">
        <ele>683.20001220703</ele>
        <time>2019-10-10T08:19:24Z</time>
      </trkpt>
      <trkpt lat="44.9886" lon="5.43969">
        <ele>684.20001220703</ele>
        <time>2019-10-10T08:19:37Z</time>
      </trkpt>
      <trkpt lat="44.98826" lon="5.4396">
        <ele>684.40002441406</ele>
        <time>2019-10-10T08:19:44Z</time>
      </trkpt>
      <trkpt lat="44.98788" lon="5.43954">
        <ele>684.79998779297</ele>
        <time>2019-10-10T08:19:52Z</time>
      </trkpt>
      <trkpt lat="44.98742" lon="5.43946">
        <ele>685.79998779297</ele>
        <time>2019-10-10T08:20:03Z</time>
      </trkpt>
      <trkpt lat="44.98709" lon="5.43941">
        <ele>686.40002441406</ele>
        <time>2019-10-10T08:20:10Z</time>
      </trkpt>
      <trkpt lat="44.98631" lon="5.43932">
        <ele>687.59997558594</ele>
        <time>2019-10-10T08:20:27Z</time>
      </trkpt>
      <trkpt lat="44.98541" lon="5.43923">
        <ele>688.79998779297</ele>
        <time>2019-10-10T08:20:46Z</time>
      </trkpt>
      <trkpt lat="44.9851" lon="5.43916">
        <ele>689.20001220703</ele>
        <time>2019-10-10T08:20:53Z</time>
      </trkpt>
      <trkpt lat="44.98449" lon="5.43888">
        <ele>689.59997558594</ele>
        <time>2019-10-10T08:21:06Z</time>
      </trkpt>
      <trkpt lat="44.98366" lon="5.43861">
        <ele>691.20001220703</ele>
        <time>2019-10-10T08:21:23Z</time>
      </trkpt>
      <trkpt lat="44.98282" lon="5.43851">
        <ele>692.20001220703</ele>
        <time>2019-10-10T08:21:40Z</time>
      </trkpt>
      <trkpt lat="44.98234" lon="5.43827">
        <ele>692.59997558594</ele>
        <time>2019-10-10T08:21:50Z</time>
      </trkpt>
      <trkpt lat="44.98194" lon="5.43807">
        <ele>693.20001220703</ele>
        <time>2019-10-10T08:21:59Z</time>
      </trkpt>
      <trkpt lat="44.98163" lon="5.43798">
        <ele>694</ele>
        <time>2019-10-10T08:22:07Z</time>
      </trkpt>
      <trkpt lat="44.9814" lon="5.43811">
        <ele>695.40002441406</ele>
        <time>2019-10-10T08:22:17Z</time>
      </trkpt>
      <trkpt lat="44.98139" lon="5.43815">
        <ele>695.59997558594</ele>
        <time>2019-10-10T08:22:21Z</time>
      </trkpt>
      <trkpt lat="44.98141" lon="5.43808">
        <ele>696</ele>
        <time>2019-10-10T08:31:07Z</time>
      </trkpt>
      <trkpt lat="44.98142" lon="5.43802">
        <ele>696.20001220703</ele>
        <time>2019-10-10T08:31:09Z</time>
      </trkpt>
      <trkpt lat="44.98125" lon="5.43789">
        <ele>696.20001220703</ele>
        <time>2019-10-10T08:31:14Z</time>
      </trkpt>
      <trkpt lat="44.98113" lon="5.43787">
        <ele>696.40002441406</ele>
        <time>2019-10-10T08:31:19Z</time>
      </trkpt>
      <trkpt lat="44.98106" lon="5.43785">
        <ele>696.59997558594</ele>
        <time>2019-10-10T08:31:22Z</time>
      </trkpt>
      <trkpt lat="44.98087" lon="5.4378">
        <ele>697.79998779297</ele>
        <time>2019-10-10T08:31:30Z</time>
      </trkpt>
      <trkpt lat="44.98072" lon="5.43775">
        <ele>698.40002441406</ele>
        <time>2019-10-10T08:31:36Z</time>
      </trkpt>
      <trkpt lat="44.98055" lon="5.4377">
        <ele>699.20001220703</ele>
        <time>2019-10-10T08:31:43Z</time>
      </trkpt>
      <trkpt lat="44.98022" lon="5.43759">
        <ele>700.40002441406</ele>
        <time>2019-10-10T08:31:55Z</time>
      </trkpt>
      <trkpt lat="44.98013" lon="5.43755">
        <ele>701.20001220703</ele>
        <time>2019-10-10T08:32:00Z</time>
      </trkpt>
      <trkpt lat="44.98001" lon="5.43749">
        <ele>702</ele>
        <time>2019-10-10T08:32:06Z</time>
      </trkpt>
      <trkpt lat="44.97974" lon="5.4373">
        <ele>703.59997558594</ele>
        <time>2019-10-10T08:32:17Z</time>
      </trkpt>
      <trkpt lat="44.97961" lon="5.43719">
        <ele>704.40002441406</ele>
        <time>2019-10-10T08:32:23Z</time>
      </trkpt>
      <trkpt lat="44.97918" lon="5.43707">
        <ele>706</ele>
        <time>2019-10-10T08:32:35Z</time>
      </trkpt>
      <trkpt lat="44.97897" lon="5.43703">
        <ele>706.59997558594</ele>
        <time>2019-10-10T08:32:43Z</time>
      </trkpt>
      <trkpt lat="44.97862" lon="5.43696">
        <ele>707.79998779297</ele>
        <time>2019-10-10T08:32:54Z</time>
      </trkpt>
      <trkpt lat="44.97841" lon="5.43692">
        <ele>708.40002441406</ele>
        <time>2019-10-10T08:33:01Z</time>
      </trkpt>
      <trkpt lat="44.97819" lon="5.43688">
        <ele>709.59997558594</ele>
        <time>2019-10-10T08:33:09Z</time>
      </trkpt>
      <trkpt lat="44.97789" lon="5.43683">
        <ele>710.79998779297</ele>
        <time>2019-10-10T08:33:18Z</time>
      </trkpt>
      <trkpt lat="44.97765" lon="5.43678">
        <ele>711.59997558594</ele>
        <time>2019-10-10T08:33:26Z</time>
      </trkpt>
      <trkpt lat="44.97739" lon="5.43672">
        <ele>713.20001220703</ele>
        <time>2019-10-10T08:33:36Z</time>
      </trkpt>
      <trkpt lat="44.97722" lon="5.43669">
        <ele>714.40002441406</ele>
        <time>2019-10-10T08:33:43Z</time>
      </trkpt>
      <trkpt lat="44.97698" lon="5.43665">
        <ele>715.79998779297</ele>
        <time>2019-10-10T08:33:54Z</time>
      </trkpt>
      <trkpt lat="44.97678" lon="5.43662">
        <ele>717.20001220703</ele>
        <time>2019-10-10T08:34:02Z</time>
      </trkpt>
      <trkpt lat="44.9764" lon="5.43654">
        <ele>719.40002441406</ele>
        <time>2019-10-10T08:34:18Z</time>
      </trkpt>
      <trkpt lat="44.97617" lon="5.43639">
        <ele>721</ele>
        <time>2019-10-10T08:34:27Z</time>
      </trkpt>
      <trkpt lat="44.97606" lon="5.43634">
        <ele>722</ele>
        <time>2019-10-10T08:34:34Z</time>
      </trkpt>
      <trkpt lat="44.97583" lon="5.4363">
        <ele>722.79998779297</ele>
        <time>2019-10-10T08:34:41Z</time>
      </trkpt>
      <trkpt lat="44.97559" lon="5.4364">
        <ele>724.20001220703</ele>
        <time>2019-10-10T08:34:51Z</time>
      </trkpt>
      <trkpt lat="44.97535" lon="5.43649">
        <ele>725.79998779297</ele>
        <time>2019-10-10T08:35:01Z</time>
      </trkpt>
      <trkpt lat="44.97506" lon="5.43649">
        <ele>727</ele>
        <time>2019-10-10T08:35:11Z</time>
      </trkpt>
      <trkpt lat="44.97452" lon="5.43638">
        <ele>728.59997558594</ele>
        <time>2019-10-10T08:35:26Z</time>
      </trkpt>
      <trkpt lat="44.97423" lon="5.43626">
        <ele>729</ele>
        <time>2019-10-10T08:35:34Z</time>
      </trkpt>
      <trkpt lat="44.97377" lon="5.43621">
        <ele>729.79998779297</ele>
        <time>2019-10-10T08:35:46Z</time>
      </trkpt>
      <trkpt lat="44.97333" lon="5.43633">
        <ele>730.59997558594</ele>
        <time>2019-10-10T08:35:57Z</time>
      </trkpt>
      <trkpt lat="44.97282" lon="5.43631">
        <ele>731.59997558594</ele>
        <time>2019-10-10T08:36:10Z</time>
      </trkpt>
      <trkpt lat="44.97255" lon="5.43631">
        <ele>732.40002441406</ele>
        <time>2019-10-10T08:36:18Z</time>
      </trkpt>
      <trkpt lat="44.97216" lon="5.43642">
        <ele>733</ele>
        <time>2019-10-10T08:36:29Z</time>
      </trkpt>
      <trkpt lat="44.97206" lon="5.43649">
        <ele>733.40002441406</ele>
        <time>2019-10-10T08:36:36Z</time>
      </trkpt>
      <trkpt lat="44.97206" lon="5.43649">
        <ele>734.20001220703</ele>
        <time>2019-10-10T08:36:50Z</time>
      </trkpt>
      <trkpt lat="44.97057" lon="5.43606">
        <ele>735.40002441406</ele>
        <time>2019-10-10T08:37:03Z</time>
      </trkpt>
      <trkpt lat="44.9701" lon="5.4362">
        <ele>735.79998779297</ele>
        <time>2019-10-10T08:37:14Z</time>
      </trkpt>
      <trkpt lat="44.96986" lon="5.43629">
        <ele>736.59997558594</ele>
        <time>2019-10-10T08:37:20Z</time>
      </trkpt>
      <trkpt lat="44.96941" lon="5.43643">
        <ele>737.20001220703</ele>
        <time>2019-10-10T08:37:31Z</time>
      </trkpt>
      <trkpt lat="44.9688" lon="5.43636">
        <ele>738.40002441406</ele>
        <time>2019-10-10T08:37:45Z</time>
      </trkpt>
      <trkpt lat="44.96833" lon="5.43628">
        <ele>739.40002441406</ele>
        <time>2019-10-10T08:37:57Z</time>
      </trkpt>
      <trkpt lat="44.96802" lon="5.43623">
        <ele>739.79998779297</ele>
        <time>2019-10-10T08:38:05Z</time>
      </trkpt>
      <trkpt lat="44.96751" lon="5.4362">
        <ele>740.40002441406</ele>
        <time>2019-10-10T08:38:16Z</time>
      </trkpt>
      <trkpt lat="44.96703" lon="5.43612">
        <ele>741.40002441406</ele>
        <time>2019-10-10T08:38:28Z</time>
      </trkpt>
      <trkpt lat="44.96672" lon="5.43607">
        <ele>742</ele>
        <time>2019-10-10T08:38:36Z</time>
      </trkpt>
      <trkpt lat="44.96661" lon="5.43605">
        <ele>742</ele>
        <time>2019-10-10T08:38:41Z</time>
      </trkpt>
      <trkpt lat="44.96652" lon="5.43604">
        <ele>742.20001220703</ele>
        <time>2019-10-10T08:39:34Z</time>
      </trkpt>
      <trkpt lat="44.96631" lon="5.436">
        <ele>742.20001220703</ele>
        <time>2019-10-10T08:39:41Z</time>
      </trkpt>
      <trkpt lat="44.96603" lon="5.43596">
        <ele>742</ele>
        <time>2019-10-10T08:39:48Z</time>
      </trkpt>
      <trkpt lat="44.96561" lon="5.43593">
        <ele>741.59997558594</ele>
        <time>2019-10-10T08:39:58Z</time>
      </trkpt>
      <trkpt lat="44.96492" lon="5.43613">
        <ele>740.20001220703</ele>
        <time>2019-10-10T08:40:10Z</time>
      </trkpt>
      <trkpt lat="44.96425" lon="5.43678">
        <ele>738.40002441406</ele>
        <time>2019-10-10T08:40:22Z</time>
      </trkpt>
      <trkpt lat="44.96384" lon="5.43721">
        <ele>737.59997558594</ele>
        <time>2019-10-10T08:40:30Z</time>
      </trkpt>
      <trkpt lat="44.96351" lon="5.43755">
        <ele>737.20001220703</ele>
        <time>2019-10-10T08:40:37Z</time>
      </trkpt>
      <trkpt lat="44.96314" lon="5.43774">
        <ele>737</ele>
        <time>2019-10-10T08:40:43Z</time>
      </trkpt>
      <trkpt lat="44.96273" lon="5.43772">
        <ele>736.40002441406</ele>
        <time>2019-10-10T08:40:49Z</time>
      </trkpt>
      <trkpt lat="44.96224" lon="5.43753">
        <ele>735.59997558594</ele>
        <time>2019-10-10T08:40:56Z</time>
      </trkpt>
      <trkpt lat="44.96201" lon="5.43719">
        <ele>735.20001220703</ele>
        <time>2019-10-10T08:41:00Z</time>
      </trkpt>
      <trkpt lat="44.96173" lon="5.43696">
        <ele>734.20001220703</ele>
        <time>2019-10-10T08:41:04Z</time>
      </trkpt>
      <trkpt lat="44.96156" lon="5.43695">
        <ele>733.40002441406</ele>
        <time>2019-10-10T08:41:06Z</time>
      </trkpt>
      <trkpt lat="44.96102" lon="5.43706">
        <ele>731.20001220703</ele>
        <time>2019-10-10T08:41:13Z</time>
      </trkpt>
      <trkpt lat="44.96053" lon="5.43718">
        <ele>729.79998779297</ele>
        <time>2019-10-10T08:41:20Z</time>
      </trkpt>
      <trkpt lat="44.95996" lon="5.43721">
        <ele>728.59997558594</ele>
        <time>2019-10-10T08:41:28Z</time>
      </trkpt>
      <trkpt lat="44.95957" lon="5.43715">
        <ele>728.79998779297</ele>
        <time>2019-10-10T08:41:34Z</time>
      </trkpt>
      <trkpt lat="44.959" lon="5.43701">
        <ele>729.40002441406</ele>
        <time>2019-10-10T08:41:43Z</time>
      </trkpt>
      <trkpt lat="44.95881" lon="5.43697">
        <ele>729.40002441406</ele>
        <time>2019-10-10T08:41:46Z</time>
      </trkpt>
      <trkpt lat="44.95822" lon="5.43683">
        <ele>730.20001220703</ele>
        <time>2019-10-10T08:41:57Z</time>
      </trkpt>
      <trkpt lat="44.95689" lon="5.43645">
        <ele>730.79998779297</ele>
        <time>2019-10-10T08:42:20Z</time>
      </trkpt>
      <trkpt lat="44.95664" lon="5.43629">
        <ele>730.59997558594</ele>
        <time>2019-10-10T08:42:25Z</time>
      </trkpt>
      <trkpt lat="44.95621" lon="5.43608">
        <ele>731.59997558594</ele>
        <time>2019-10-10T08:42:35Z</time>
      </trkpt>
      <trkpt lat="44.95597" lon="5.43602">
        <ele>732.79998779297</ele>
        <time>2019-10-10T08:42:41Z</time>
      </trkpt>
      <trkpt lat="44.95562" lon="5.43599">
        <ele>734</ele>
        <time>2019-10-10T08:42:49Z</time>
      </trkpt>
      <trkpt lat="44.95514" lon="5.43594">
        <ele>736</ele>
        <time>2019-10-10T08:43:00Z</time>
      </trkpt>
      <trkpt lat="44.95436" lon="5.43586">
        <ele>737.20001220703</ele>
        <time>2019-10-10T08:43:17Z</time>
      </trkpt>
      <trkpt lat="44.95401" lon="5.43583">
        <ele>738</ele>
        <time>2019-10-10T08:43:25Z</time>
      </trkpt>
      <trkpt lat="44.95375" lon="5.4358">
        <ele>738.59997558594</ele>
        <time>2019-10-10T08:43:31Z</time>
      </trkpt>
      <trkpt lat="44.95343" lon="5.43577">
        <ele>739.20001220703</ele>
        <time>2019-10-10T08:43:38Z</time>
      </trkpt>
      <trkpt lat="44.95271" lon="5.43563">
        <ele>740.79998779297</ele>
        <time>2019-10-10T08:43:54Z</time>
      </trkpt>
      <trkpt lat="44.95227" lon="5.4354">
        <ele>741.59997558594</ele>
        <time>2019-10-10T08:44:04Z</time>
      </trkpt>
      <trkpt lat="44.95168" lon="5.43494">
        <ele>741.40002441406</ele>
        <time>2019-10-10T08:44:18Z</time>
      </trkpt>
      <trkpt lat="44.95121" lon="5.43476">
        <ele>741.59997558594</ele>
        <time>2019-10-10T08:44:28Z</time>
      </trkpt>
      <trkpt lat="44.95107" lon="5.43474">
        <ele>741.59997558594</ele>
        <time>2019-10-10T08:44:32Z</time>
      </trkpt>
      <trkpt lat="44.95066" lon="5.43467">
        <ele>742</ele>
        <time>2019-10-10T08:44:45Z</time>
      </trkpt>
      <trkpt lat="44.95041" lon="5.43462">
        <ele>742</ele>
        <time>2019-10-10T08:44:51Z</time>
      </trkpt>
      <trkpt lat="44.94958" lon="5.43442">
        <ele>742.79998779297</ele>
        <time>2019-10-10T08:45:08Z</time>
      </trkpt>
      <trkpt lat="44.94873" lon="5.4343">
        <ele>742.40002441406</ele>
        <time>2019-10-10T08:45:24Z</time>
      </trkpt>
      <trkpt lat="44.94752" lon="5.43424">
        <ele>742.59997558594</ele>
        <time>2019-10-10T08:45:46Z</time>
      </trkpt>
      <trkpt lat="44.94685" lon="5.43421">
        <ele>742.79998779297</ele>
        <time>2019-10-10T08:45:58Z</time>
      </trkpt>
      <trkpt lat="44.94624" lon="5.43418">
        <ele>743.59997558594</ele>
        <time>2019-10-10T08:46:11Z</time>
      </trkpt>
      <trkpt lat="44.94546" lon="5.43414">
        <ele>745</ele>
        <time>2019-10-10T08:46:27Z</time>
      </trkpt>
      <trkpt lat="44.9449" lon="5.43411">
        <ele>746</ele>
        <time>2019-10-10T08:46:39Z</time>
      </trkpt>
      <trkpt lat="44.94411" lon="5.43407">
        <ele>748</ele>
        <time>2019-10-10T08:46:57Z</time>
      </trkpt>
      <trkpt lat="44.94368" lon="5.43405">
        <ele>748.79998779297</ele>
        <time>2019-10-10T08:47:07Z</time>
      </trkpt>
      <trkpt lat="44.94307" lon="5.43403">
        <ele>750</ele>
        <time>2019-10-10T08:47:21Z</time>
      </trkpt>
      <trkpt lat="44.94257" lon="5.43405">
        <ele>752</ele>
        <time>2019-10-10T08:47:33Z</time>
      </trkpt>
      <trkpt lat="44.94215" lon="5.43407">
        <ele>753</ele>
        <time>2019-10-10T08:47:43Z</time>
      </trkpt>
      <trkpt lat="44.94169" lon="5.43409">
        <ele>754.20001220703</ele>
        <time>2019-10-10T08:47:54Z</time>
      </trkpt>
      <trkpt lat="44.94136" lon="5.43409">
        <ele>755.79998779297</ele>
        <time>2019-10-10T08:48:03Z</time>
      </trkpt>
      <trkpt lat="44.94105" lon="5.43408">
        <ele>757.40002441406</ele>
        <time>2019-10-10T08:48:12Z</time>
      </trkpt>
      <trkpt lat="44.9407" lon="5.43406">
        <ele>758.79998779297</ele>
        <time>2019-10-10T08:48:22Z</time>
      </trkpt>
      <trkpt lat="44.94048" lon="5.43403">
        <ele>760</ele>
        <time>2019-10-10T08:48:28Z</time>
      </trkpt>
      <trkpt lat="44.93984" lon="5.43392">
        <ele>762.79998779297</ele>
        <time>2019-10-10T08:48:46Z</time>
      </trkpt>
      <trkpt lat="44.93951" lon="5.43387">
        <ele>763.79998779297</ele>
        <time>2019-10-10T08:48:55Z</time>
      </trkpt>
      <trkpt lat="44.93919" lon="5.43382">
        <ele>765.20001220703</ele>
        <time>2019-10-10T08:49:04Z</time>
      </trkpt>
      <trkpt lat="44.93894" lon="5.43376">
        <ele>766.20001220703</ele>
        <time>2019-10-10T08:49:12Z</time>
      </trkpt>
      <trkpt lat="44.93846" lon="5.43363">
        <ele>768.20001220703</ele>
        <time>2019-10-10T08:49:27Z</time>
      </trkpt>
      <trkpt lat="44.93828" lon="5.43358">
        <ele>769</ele>
        <time>2019-10-10T08:49:33Z</time>
      </trkpt>
      <trkpt lat="44.93797" lon="5.4335">
        <ele>770.59997558594</ele>
        <time>2019-10-10T08:49:42Z</time>
      </trkpt>
      <trkpt lat="44.93753" lon="5.43338">
        <ele>772.20001220703</ele>
        <time>2019-10-10T08:49:55Z</time>
      </trkpt>
      <trkpt lat="44.9372" lon="5.43327">
        <ele>773.59997558594</ele>
        <time>2019-10-10T08:50:05Z</time>
      </trkpt>
      <trkpt lat="44.93678" lon="5.43303">
        <ele>775.40002441406</ele>
        <time>2019-10-10T08:50:18Z</time>
      </trkpt>
      <trkpt lat="44.93651" lon="5.43265">
        <ele>776.59997558594</ele>
        <time>2019-10-10T08:50:29Z</time>
      </trkpt>
      <trkpt lat="44.93646" lon="5.43227">
        <ele>777.40002441406</ele>
        <time>2019-10-10T08:50:37Z</time>
      </trkpt>
      <trkpt lat="44.93651" lon="5.4317">
        <ele>779</ele>
        <time>2019-10-10T08:50:49Z</time>
      </trkpt>
      <trkpt lat="44.93641" lon="5.43123">
        <ele>780</ele>
        <time>2019-10-10T08:50:59Z</time>
      </trkpt>
      <trkpt lat="44.93629" lon="5.43076">
        <ele>781</ele>
        <time>2019-10-10T08:51:09Z</time>
      </trkpt>
      <trkpt lat="44.93627" lon="5.43036">
        <ele>782.59997558594</ele>
        <time>2019-10-10T08:51:18Z</time>
      </trkpt>
      <trkpt lat="44.93601" lon="5.43032">
        <ele>783.20001220703</ele>
        <time>2019-10-10T08:51:25Z</time>
      </trkpt>
      <trkpt lat="44.93584" lon="5.43029">
        <ele>783.40002441406</ele>
        <time>2019-10-10T08:51:29Z</time>
      </trkpt>
      <trkpt lat="44.93564" lon="5.43027">
        <ele>783.20001220703</ele>
        <time>2019-10-10T08:51:33Z</time>
      </trkpt>
      <trkpt lat="44.93548" lon="5.43025">
        <ele>782.79998779297</ele>
        <time>2019-10-10T08:51:36Z</time>
      </trkpt>
      <trkpt lat="44.93484" lon="5.4301">
        <ele>781.40002441406</ele>
        <time>2019-10-10T08:51:46Z</time>
      </trkpt>
      <trkpt lat="44.93447" lon="5.42995">
        <ele>780.40002441406</ele>
        <time>2019-10-10T08:51:51Z</time>
      </trkpt>
      <trkpt lat="44.9336" lon="5.42965">
        <ele>777.79998779297</ele>
        <time>2019-10-10T08:52:03Z</time>
      </trkpt>
      <trkpt lat="44.93291" lon="5.42941">
        <ele>776.79998779297</ele>
        <time>2019-10-10T08:52:13Z</time>
      </trkpt>
      <trkpt lat="44.93225" lon="5.4291">
        <ele>776.20001220703</ele>
        <time>2019-10-10T08:52:23Z</time>
      </trkpt>
      <trkpt lat="44.93181" lon="5.42882">
        <ele>775.79998779297</ele>
        <time>2019-10-10T08:52:30Z</time>
      </trkpt>
      <trkpt lat="44.931" lon="5.42823">
        <ele>774.59997558594</ele>
        <time>2019-10-10T08:52:43Z</time>
      </trkpt>
      <trkpt lat="44.93029" lon="5.42803">
        <ele>773.79998779297</ele>
        <time>2019-10-10T08:52:53Z</time>
      </trkpt>
      <trkpt lat="44.9294" lon="5.42792">
        <ele>773</ele>
        <time>2019-10-10T08:53:06Z</time>
      </trkpt>
      <trkpt lat="44.92899" lon="5.42788">
        <ele>772.79998779297</ele>
        <time>2019-10-10T08:53:13Z</time>
      </trkpt>
      <trkpt lat="44.928" lon="5.42777">
        <ele>775.40002441406</ele>
        <time>2019-10-10T08:53:33Z</time>
      </trkpt>
      <trkpt lat="44.92746" lon="5.42771">
        <ele>776.20001220703</ele>
        <time>2019-10-10T08:53:44Z</time>
      </trkpt>
      <trkpt lat="44.92699" lon="5.42763">
        <ele>777</ele>
        <time>2019-10-10T08:53:54Z</time>
      </trkpt>
      <trkpt lat="44.92601" lon="5.42749">
        <ele>778.59997558594</ele>
        <time>2019-10-10T08:54:14Z</time>
      </trkpt>
      <trkpt lat="44.92559" lon="5.42754">
        <ele>779.40002441406</ele>
        <time>2019-10-10T08:54:23Z</time>
      </trkpt>
      <trkpt lat="44.92501" lon="5.42766">
        <ele>780.40002441406</ele>
        <time>2019-10-10T08:54:35Z</time>
      </trkpt>
      <trkpt lat="44.92422" lon="5.42783">
        <ele>781.79998779297</ele>
        <time>2019-10-10T08:54:51Z</time>
      </trkpt>
      <trkpt lat="44.92284" lon="5.42811">
        <ele>784</ele>
        <time>2019-10-10T08:55:19Z</time>
      </trkpt>
      <trkpt lat="44.92191" lon="5.4283">
        <ele>785.20001220703</ele>
        <time>2019-10-10T08:55:37Z</time>
      </trkpt>
      <trkpt lat="44.92124" lon="5.42833">
        <ele>786</ele>
        <time>2019-10-10T08:55:50Z</time>
      </trkpt>
      <trkpt lat="44.92063" lon="5.42832">
        <ele>787.20001220703</ele>
        <time>2019-10-10T08:56:02Z</time>
      </trkpt>
      <trkpt lat="44.91995" lon="5.42851">
        <ele>788</ele>
        <time>2019-10-10T08:56:15Z</time>
      </trkpt>
      <trkpt lat="44.91954" lon="5.4285">
        <ele>788.20001220703</ele>
        <time>2019-10-10T08:56:23Z</time>
      </trkpt>
      <trkpt lat="44.91896" lon="5.42833">
        <ele>789.40002441406</ele>
        <time>2019-10-10T08:56:35Z</time>
      </trkpt>
      <trkpt lat="44.91855" lon="5.42816">
        <ele>790.40002441406</ele>
        <time>2019-10-10T08:56:43Z</time>
      </trkpt>
      <trkpt lat="44.91806" lon="5.42789">
        <ele>791.79998779297</ele>
        <time>2019-10-10T08:56:55Z</time>
      </trkpt>
      <trkpt lat="44.91772" lon="5.42767">
        <ele>793.20001220703</ele>
        <time>2019-10-10T08:57:03Z</time>
      </trkpt>
      <trkpt lat="44.91736" lon="5.42754">
        <ele>794.40002441406</ele>
        <time>2019-10-10T08:57:11Z</time>
      </trkpt>
      <trkpt lat="44.91678" lon="5.42746">
        <ele>796.20001220703</ele>
        <time>2019-10-10T08:57:24Z</time>
      </trkpt>
      <trkpt lat="44.91661" lon="5.42743">
        <ele>796.59997558594</ele>
        <time>2019-10-10T08:57:29Z</time>
      </trkpt>
      <trkpt lat="44.91634" lon="5.42739">
        <ele>796.79998779297</ele>
        <time>2019-10-10T08:57:37Z</time>
      </trkpt>
      <trkpt lat="44.9162" lon="5.42737">
        <ele>796.79998779297</ele>
        <time>2019-10-10T08:57:41Z</time>
      </trkpt>
      <trkpt lat="44.91613" lon="5.42736">
        <ele>797.40002441406</ele>
        <time>2019-10-10T08:58:57Z</time>
      </trkpt>
      <trkpt lat="44.91589" lon="5.42733">
        <ele>797.59997558594</ele>
        <time>2019-10-10T08:59:04Z</time>
      </trkpt>
      <trkpt lat="44.9154" lon="5.42726">
        <ele>798</ele>
        <time>2019-10-10T08:59:14Z</time>
      </trkpt>
      <trkpt lat="44.91481" lon="5.42716">
        <ele>798.20001220703</ele>
        <time>2019-10-10T08:59:27Z</time>
      </trkpt>
      <trkpt lat="44.91398" lon="5.42702">
        <ele>798.20001220703</ele>
        <time>2019-10-10T08:59:43Z</time>
      </trkpt>
      <trkpt lat="44.91336" lon="5.42699">
        <ele>799</ele>
        <time>2019-10-10T08:59:55Z</time>
      </trkpt>
      <trkpt lat="44.91262" lon="5.42696">
        <ele>800.20001220703</ele>
        <time>2019-10-10T09:00:09Z</time>
      </trkpt>
      <trkpt lat="44.91201" lon="5.42691">
        <ele>800.79998779297</ele>
        <time>2019-10-10T09:00:20Z</time>
      </trkpt>
      <trkpt lat="44.91133" lon="5.42687">
        <ele>801</ele>
        <time>2019-10-10T09:00:32Z</time>
      </trkpt>
      <trkpt lat="44.91038" lon="5.42667">
        <ele>802.20001220703</ele>
        <time>2019-10-10T09:00:50Z</time>
      </trkpt>
      <trkpt lat="44.91005" lon="5.42662">
        <ele>803.20001220703</ele>
        <time>2019-10-10T09:00:57Z</time>
      </trkpt>
      <trkpt lat="44.90945" lon="5.42667">
        <ele>805.40002441406</ele>
        <time>2019-10-10T09:01:10Z</time>
      </trkpt>
      <trkpt lat="44.90877" lon="5.42675">
        <ele>806.40002441406</ele>
        <time>2019-10-10T09:01:23Z</time>
      </trkpt>
      <trkpt lat="44.90813" lon="5.4266">
        <ele>806.59997558594</ele>
        <time>2019-10-10T09:01:36Z</time>
      </trkpt>
      <trkpt lat="44.90777" lon="5.42636">
        <ele>807.59997558594</ele>
        <time>2019-10-10T09:01:44Z</time>
      </trkpt>
      <trkpt lat="44.90677" lon="5.4259">
        <ele>809.20001220703</ele>
        <time>2019-10-10T09:02:04Z</time>
      </trkpt>
      <trkpt lat="44.90634" lon="5.42577">
        <ele>810</ele>
        <time>2019-10-10T09:02:13Z</time>
      </trkpt>
      <trkpt lat="44.90618" lon="5.42577">
        <ele>810.59997558594</ele>
        <time>2019-10-10T09:02:18Z</time>
      </trkpt>
      <trkpt lat="44.90596" lon="5.42577">
        <ele>811.40002441406</ele>
        <time>2019-10-10T09:02:24Z</time>
      </trkpt>
      <trkpt lat="44.90538" lon="5.42578">
        <ele>813.20001220703</ele>
        <time>2019-10-10T09:02:36Z</time>
      </trkpt>
      <trkpt lat="44.90467" lon="5.42573">
        <ele>814.20001220703</ele>
        <time>2019-10-10T09:02:50Z</time>
      </trkpt>
      <trkpt lat="44.90426" lon="5.4257">
        <ele>814.59997558594</ele>
        <time>2019-10-10T09:02:58Z</time>
      </trkpt>
      <trkpt lat="44.90326" lon="5.42563">
        <ele>815.79998779297</ele>
        <time>2019-10-10T09:03:17Z</time>
      </trkpt>
      <trkpt lat="44.90238" lon="5.42557">
        <ele>816.59997558594</ele>
        <time>2019-10-10T09:03:34Z</time>
      </trkpt>
      <trkpt lat="44.90167" lon="5.42553">
        <ele>818.20001220703</ele>
        <time>2019-10-10T09:03:48Z</time>
      </trkpt>
      <trkpt lat="44.9011" lon="5.42549">
        <ele>819.20001220703</ele>
        <time>2019-10-10T09:03:59Z</time>
      </trkpt>
      <trkpt lat="44.90019" lon="5.42517">
        <ele>822.20001220703</ele>
        <time>2019-10-10T09:04:19Z</time>
      </trkpt>
      <trkpt lat="44.89969" lon="5.42494">
        <ele>823.40002441406</ele>
        <time>2019-10-10T09:04:30Z</time>
      </trkpt>
      <trkpt lat="44.89856" lon="5.4244">
        <ele>825.79998779297</ele>
        <time>2019-10-10T09:04:54Z</time>
      </trkpt>
      <trkpt lat="44.89791" lon="5.42407">
        <ele>827.20001220703</ele>
        <time>2019-10-10T09:05:07Z</time>
      </trkpt>
      <trkpt lat="44.89702" lon="5.42362">
        <ele>828.59997558594</ele>
        <time>2019-10-10T09:05:24Z</time>
      </trkpt>
      <trkpt lat="44.89662" lon="5.42349">
        <ele>828.59997558594</ele>
        <time>2019-10-10T09:05:31Z</time>
      </trkpt>
      <trkpt lat="44.89597" lon="5.42347">
        <ele>829.20001220703</ele>
        <time>2019-10-10T09:05:43Z</time>
      </trkpt>
      <trkpt lat="44.89565" lon="5.4234">
        <ele>830.20001220703</ele>
        <time>2019-10-10T09:05:50Z</time>
      </trkpt>
      <trkpt lat="44.89551" lon="5.42334">
        <ele>831</ele>
        <time>2019-10-10T09:05:53Z</time>
      </trkpt>
      <trkpt lat="44.89491" lon="5.42303">
        <ele>832.79998779297</ele>
        <time>2019-10-10T09:06:07Z</time>
      </trkpt>
      <trkpt lat="44.89439" lon="5.42276">
        <ele>835.20001220703</ele>
        <time>2019-10-10T09:06:20Z</time>
      </trkpt>
      <trkpt lat="44.89382" lon="5.42246">
        <ele>837.20001220703</ele>
        <time>2019-10-10T09:06:34Z</time>
      </trkpt>
      <trkpt lat="44.89332" lon="5.4222">
        <ele>838.40002441406</ele>
        <time>2019-10-10T09:06:46Z</time>
      </trkpt>
      <trkpt lat="44.89264" lon="5.42185">
        <ele>840</ele>
        <time>2019-10-10T09:07:01Z</time>
      </trkpt>
      <trkpt lat="44.8923" lon="5.42167">
        <ele>840.79998779297</ele>
        <time>2019-10-10T09:07:09Z</time>
      </trkpt>
      <trkpt lat="44.89145" lon="5.42137">
        <ele>843.20001220703</ele>
        <time>2019-10-10T09:07:28Z</time>
      </trkpt>
      <trkpt lat="44.89105" lon="5.42142">
        <ele>844.40002441406</ele>
        <time>2019-10-10T09:07:37Z</time>
      </trkpt>
      <trkpt lat="44.89075" lon="5.42152">
        <ele>845.20001220703</ele>
        <time>2019-10-10T09:07:47Z</time>
      </trkpt>
      <trkpt lat="44.89076" lon="5.42164">
        <ele>845.40002441406</ele>
        <time>2019-10-10T09:07:51Z</time>
      </trkpt>
      <trkpt lat="44.89077" lon="5.4217">
        <ele>846</ele>
        <time>2019-10-10T09:07:58Z</time>
      </trkpt>
      <trkpt lat="44.89069" lon="5.42167">
        <ele>846</ele>
        <time>2019-10-10T09:08:01Z</time>
      </trkpt>
      <trkpt lat="44.89073" lon="5.42156">
        <ele>846</ele>
        <time>2019-10-10T09:14:11Z</time>
      </trkpt>
      <trkpt lat="44.89071" lon="5.42145">
        <ele>845.79998779297</ele>
        <time>2019-10-10T09:14:14Z</time>
      </trkpt>
      <trkpt lat="44.89062" lon="5.42146">
        <ele>845.79998779297</ele>
        <time>2019-10-10T09:14:18Z</time>
      </trkpt>
      <trkpt lat="44.89031" lon="5.42147">
        <ele>845.79998779297</ele>
        <time>2019-10-10T09:14:27Z</time>
      </trkpt>
      <trkpt lat="44.89003" lon="5.42147">
        <ele>846.40002441406</ele>
        <time>2019-10-10T09:14:35Z</time>
      </trkpt>
      <trkpt lat="44.88975" lon="5.42142">
        <ele>847.20001220703</ele>
        <time>2019-10-10T09:14:43Z</time>
      </trkpt>
      <trkpt lat="44.88938" lon="5.42136">
        <ele>848.40002441406</ele>
        <time>2019-10-10T09:14:53Z</time>
      </trkpt>
      <trkpt lat="44.88896" lon="5.42129">
        <ele>849.20001220703</ele>
        <time>2019-10-10T09:15:05Z</time>
      </trkpt>
      <trkpt lat="44.88857" lon="5.42123">
        <ele>850.40002441406</ele>
        <time>2019-10-10T09:15:16Z</time>
      </trkpt>
      <trkpt lat="44.88789" lon="5.42111">
        <ele>852.40002441406</ele>
        <time>2019-10-10T09:15:35Z</time>
      </trkpt>
      <trkpt lat="44.88752" lon="5.42105">
        <ele>853.40002441406</ele>
        <time>2019-10-10T09:15:45Z</time>
      </trkpt>
      <trkpt lat="44.88703" lon="5.42098">
        <ele>854.59997558594</ele>
        <time>2019-10-10T09:15:58Z</time>
      </trkpt>
      <trkpt lat="44.88671" lon="5.42093">
        <ele>855.40002441406</ele>
        <time>2019-10-10T09:16:07Z</time>
      </trkpt>
      <trkpt lat="44.88604" lon="5.42083">
        <ele>857.79998779297</ele>
        <time>2019-10-10T09:16:26Z</time>
      </trkpt>
      <trkpt lat="44.88574" lon="5.42078">
        <ele>858.59997558594</ele>
        <time>2019-10-10T09:16:35Z</time>
      </trkpt>
      <trkpt lat="44.88543" lon="5.42073">
        <ele>860</ele>
        <time>2019-10-10T09:16:44Z</time>
      </trkpt>
      <trkpt lat="44.88482" lon="5.42064">
        <ele>862.20001220703</ele>
        <time>2019-10-10T09:17:02Z</time>
      </trkpt>
      <trkpt lat="44.88439" lon="5.42066">
        <ele>863.79998779297</ele>
        <time>2019-10-10T09:17:14Z</time>
      </trkpt>
      <trkpt lat="44.88364" lon="5.42062">
        <ele>865.79998779297</ele>
        <time>2019-10-10T09:17:33Z</time>
      </trkpt>
      <trkpt lat="44.88338" lon="5.4205">
        <ele>866.59997558594</ele>
        <time>2019-10-10T09:17:40Z</time>
      </trkpt>
      <trkpt lat="44.8829" lon="5.42026">
        <ele>868.59997558594</ele>
        <time>2019-10-10T09:17:54Z</time>
      </trkpt>
      <trkpt lat="44.8826" lon="5.42012">
        <ele>870</ele>
        <time>2019-10-10T09:18:03Z</time>
      </trkpt>
      <trkpt lat="44.88187" lon="5.41977">
        <ele>871.79998779297</ele>
        <time>2019-10-10T09:18:22Z</time>
      </trkpt>
      <trkpt lat="44.8814" lon="5.41957">
        <ele>873.20001220703</ele>
        <time>2019-10-10T09:18:34Z</time>
      </trkpt>
      <trkpt lat="44.88062" lon="5.41942">
        <ele>875.40002441406</ele>
        <time>2019-10-10T09:18:53Z</time>
      </trkpt>
      <trkpt lat="44.88023" lon="5.4194">
        <ele>876.20001220703</ele>
        <time>2019-10-10T09:19:05Z</time>
      </trkpt>
      <trkpt lat="44.87988" lon="5.41939">
        <ele>877.20001220703</ele>
        <time>2019-10-10T09:19:15Z</time>
      </trkpt>
      <trkpt lat="44.87978" lon="5.41938">
        <ele>877.59997558594</ele>
        <time>2019-10-10T09:19:18Z</time>
      </trkpt>
      <trkpt lat="44.87945" lon="5.41937">
        <ele>878</ele>
        <time>2019-10-10T09:19:27Z</time>
      </trkpt>
      <trkpt lat="44.87895" lon="5.41932">
        <ele>879.20001220703</ele>
        <time>2019-10-10T09:19:38Z</time>
      </trkpt>
      <trkpt lat="44.8784" lon="5.41924">
        <ele>881</ele>
        <time>2019-10-10T09:19:51Z</time>
      </trkpt>
      <trkpt lat="44.87808" lon="5.41917">
        <ele>881.59997558594</ele>
        <time>2019-10-10T09:19:59Z</time>
      </trkpt>
      <trkpt lat="44.87786" lon="5.4191">
        <ele>881.79998779297</ele>
        <time>2019-10-10T09:20:04Z</time>
      </trkpt>
      <trkpt lat="44.87737" lon="5.41893">
        <ele>883.20001220703</ele>
        <time>2019-10-10T09:20:15Z</time>
      </trkpt>
      <trkpt lat="44.87718" lon="5.41887">
        <ele>883.40002441406</ele>
        <time>2019-10-10T09:20:19Z</time>
      </trkpt>
      <trkpt lat="44.8768" lon="5.41874">
        <ele>884.20001220703</ele>
        <time>2019-10-10T09:20:28Z</time>
      </trkpt>
      <trkpt lat="44.87641" lon="5.41861">
        <ele>884.79998779297</ele>
        <time>2019-10-10T09:20:36Z</time>
      </trkpt>
      <trkpt lat="44.87599" lon="5.41847">
        <ele>885.79998779297</ele>
        <time>2019-10-10T09:20:46Z</time>
      </trkpt>
      <trkpt lat="44.87552" lon="5.41831">
        <ele>887.20001220703</ele>
        <time>2019-10-10T09:20:57Z</time>
      </trkpt>
      <trkpt lat="44.87507" lon="5.41812">
        <ele>888.40002441406</ele>
        <time>2019-10-10T09:21:08Z</time>
      </trkpt>
      <trkpt lat="44.87468" lon="5.41796">
        <ele>889.79998779297</ele>
        <time>2019-10-10T09:21:18Z</time>
      </trkpt>
      <trkpt lat="44.87417" lon="5.41774">
        <ele>891</ele>
        <time>2019-10-10T09:21:31Z</time>
      </trkpt>
      <trkpt lat="44.87371" lon="5.41755">
        <ele>892.59997558594</ele>
        <time>2019-10-10T09:21:43Z</time>
      </trkpt>
      <trkpt lat="44.87343" lon="5.41743">
        <ele>893.20001220703</ele>
        <time>2019-10-10T09:21:50Z</time>
      </trkpt>
      <trkpt lat="44.87288" lon="5.41718">
        <ele>895.40002441406</ele>
        <time>2019-10-10T09:22:04Z</time>
      </trkpt>
      <trkpt lat="44.87264" lon="5.41708">
        <ele>896.20001220703</ele>
        <time>2019-10-10T09:22:11Z</time>
      </trkpt>
      <trkpt lat="44.87219" lon="5.41688">
        <ele>898.79998779297</ele>
        <time>2019-10-10T09:22:24Z</time>
      </trkpt>
      <trkpt lat="44.8719" lon="5.41679">
        <ele>900</ele>
        <time>2019-10-10T09:22:33Z</time>
      </trkpt>
      <trkpt lat="44.87134" lon="5.41682">
        <ele>902.40002441406</ele>
        <time>2019-10-10T09:22:49Z</time>
      </trkpt>
      <trkpt lat="44.8709" lon="5.41687">
        <ele>903.20001220703</ele>
        <time>2019-10-10T09:23:00Z</time>
      </trkpt>
      <trkpt lat="44.87044" lon="5.41687">
        <ele>904.59997558594</ele>
        <time>2019-10-10T09:23:13Z</time>
      </trkpt>
      <trkpt lat="44.87014" lon="5.41687">
        <ele>905.79998779297</ele>
        <time>2019-10-10T09:23:22Z</time>
      </trkpt>
      <trkpt lat="44.86979" lon="5.41667">
        <ele>907.79998779297</ele>
        <time>2019-10-10T09:23:34Z</time>
      </trkpt>
      <trkpt lat="44.86965" lon="5.41656">
        <ele>908.79998779297</ele>
        <time>2019-10-10T09:23:40Z</time>
      </trkpt>
      <trkpt lat="44.86933" lon="5.41621">
        <ele>911.20001220703</ele>
        <time>2019-10-10T09:23:53Z</time>
      </trkpt>
      <trkpt lat="44.86919" lon="5.41606">
        <ele>912.20001220703</ele>
        <time>2019-10-10T09:24:00Z</time>
      </trkpt>
      <trkpt lat="44.86899" lon="5.41586">
        <ele>913.59997558594</ele>
        <time>2019-10-10T09:24:08Z</time>
      </trkpt>
      <trkpt lat="44.86872" lon="5.4156">
        <ele>915.40002441406</ele>
        <time>2019-10-10T09:24:20Z</time>
      </trkpt>
      <trkpt lat="44.86857" lon="5.4155">
        <ele>916.59997558594</ele>
        <time>2019-10-10T09:24:26Z</time>
      </trkpt>
      <trkpt lat="44.86833" lon="5.41548">
        <ele>918.20001220703</ele>
        <time>2019-10-10T09:24:35Z</time>
      </trkpt>
      <trkpt lat="44.86814" lon="5.41552">
        <ele>919.79998779297</ele>
        <time>2019-10-10T09:24:43Z</time>
      </trkpt>
      <trkpt lat="44.86785" lon="5.41558">
        <ele>921.59997558594</ele>
        <time>2019-10-10T09:24:55Z</time>
      </trkpt>
      <trkpt lat="44.86765" lon="5.41562">
        <ele>922.40002441406</ele>
        <time>2019-10-10T09:25:02Z</time>
      </trkpt>
      <trkpt lat="44.8672" lon="5.41575">
        <ele>925.40002441406</ele>
        <time>2019-10-10T09:25:18Z</time>
      </trkpt>
      <trkpt lat="44.86702" lon="5.41577">
        <ele>926</ele>
        <time>2019-10-10T09:25:24Z</time>
      </trkpt>
      <trkpt lat="44.86659" lon="5.41574">
        <ele>927.59997558594</ele>
        <time>2019-10-10T09:25:38Z</time>
      </trkpt>
      <trkpt lat="44.86637" lon="5.41572">
        <ele>928.79998779297</ele>
        <time>2019-10-10T09:25:45Z</time>
      </trkpt>
      <trkpt lat="44.86606" lon="5.41569">
        <ele>930.40002441406</ele>
        <time>2019-10-10T09:25:56Z</time>
      </trkpt>
      <trkpt lat="44.86583" lon="5.41566">
        <ele>932</ele>
        <time>2019-10-10T09:26:04Z</time>
      </trkpt>
      <trkpt lat="44.8656" lon="5.41563">
        <ele>933.59997558594</ele>
        <time>2019-10-10T09:26:13Z</time>
      </trkpt>
      <trkpt lat="44.86523" lon="5.41558">
        <ele>935.79998779297</ele>
        <time>2019-10-10T09:26:27Z</time>
      </trkpt>
      <trkpt lat="44.86517" lon="5.41557">
        <ele>936.79998779297</ele>
        <time>2019-10-10T09:29:46Z</time>
      </trkpt>
      <trkpt lat="44.86499" lon="5.41554">
        <ele>937.20001220703</ele>
        <time>2019-10-10T09:29:55Z</time>
      </trkpt>
      <trkpt lat="44.86486" lon="5.41552">
        <ele>937.40002441406</ele>
        <time>2019-10-10T09:29:59Z</time>
      </trkpt>
      <trkpt lat="44.86472" lon="5.4155">
        <ele>937.79998779297</ele>
        <time>2019-10-10T09:30:05Z</time>
      </trkpt>
      <trkpt lat="44.86462" lon="5.41548">
        <ele>938.40002441406</ele>
        <time>2019-10-10T09:30:09Z</time>
      </trkpt>
      <trkpt lat="44.86439" lon="5.41545">
        <ele>939.79998779297</ele>
        <time>2019-10-10T09:30:20Z</time>
      </trkpt>
      <trkpt lat="44.8642" lon="5.41536">
        <ele>941.20001220703</ele>
        <time>2019-10-10T09:30:28Z</time>
      </trkpt>
      <trkpt lat="44.86401" lon="5.41526">
        <ele>942.59997558594</ele>
        <time>2019-10-10T09:30:37Z</time>
      </trkpt>
      <trkpt lat="44.86386" lon="5.41516">
        <ele>943.79998779297</ele>
        <time>2019-10-10T09:30:44Z</time>
      </trkpt>
      <trkpt lat="44.86352" lon="5.41498">
        <ele>946</ele>
        <time>2019-10-10T09:31:00Z</time>
      </trkpt>
      <trkpt lat="44.86332" lon="5.41491">
        <ele>946.79998779297</ele>
        <time>2019-10-10T09:31:07Z</time>
      </trkpt>
      <trkpt lat="44.86312" lon="5.41484">
        <ele>948</ele>
        <time>2019-10-10T09:31:15Z</time>
      </trkpt>
      <trkpt lat="44.86279" lon="5.41469">
        <ele>950</ele>
        <time>2019-10-10T09:31:28Z</time>
      </trkpt>
      <trkpt lat="44.86254" lon="5.41438">
        <ele>952.59997558594</ele>
        <time>2019-10-10T09:31:41Z</time>
      </trkpt>
      <trkpt lat="44.86241" lon="5.41406">
        <ele>954.20001220703</ele>
        <time>2019-10-10T09:31:52Z</time>
      </trkpt>
      <trkpt lat="44.86237" lon="5.41388">
        <ele>955.59997558594</ele>
        <time>2019-10-10T09:31:59Z</time>
      </trkpt>
      <trkpt lat="44.8623" lon="5.41351">
        <ele>957.59997558594</ele>
        <time>2019-10-10T09:32:11Z</time>
      </trkpt>
      <trkpt lat="44.86222" lon="5.41326">
        <ele>959.40002441406</ele>
        <time>2019-10-10T09:32:20Z</time>
      </trkpt>
      <trkpt lat="44.86207" lon="5.41302">
        <ele>961</ele>
        <time>2019-10-10T09:32:30Z</time>
      </trkpt>
      <trkpt lat="44.86191" lon="5.41286">
        <ele>962.59997558594</ele>
        <time>2019-10-10T09:32:39Z</time>
      </trkpt>
      <trkpt lat="44.86161" lon="5.41263">
        <ele>965</ele>
        <time>2019-10-10T09:32:52Z</time>
      </trkpt>
      <trkpt lat="44.86144" lon="5.4125">
        <ele>965.79998779297</ele>
        <time>2019-10-10T09:33:00Z</time>
      </trkpt>
      <trkpt lat="44.86123" lon="5.41234">
        <ele>967.20001220703</ele>
        <time>2019-10-10T09:33:09Z</time>
      </trkpt>
      <trkpt lat="44.86103" lon="5.4122">
        <ele>968.59997558594</ele>
        <time>2019-10-10T09:33:17Z</time>
      </trkpt>
      <trkpt lat="44.86085" lon="5.4119">
        <ele>970.20001220703</ele>
        <time>2019-10-10T09:33:29Z</time>
      </trkpt>
      <trkpt lat="44.86077" lon="5.41175">
        <ele>971.20001220703</ele>
        <time>2019-10-10T09:33:35Z</time>
      </trkpt>
      <trkpt lat="44.8605" lon="5.41129">
        <ele>974</ele>
        <time>2019-10-10T09:33:50Z</time>
      </trkpt>
      <trkpt lat="44.86019" lon="5.41089">
        <ele>976.20001220703</ele>
        <time>2019-10-10T09:34:07Z</time>
      </trkpt>
      <trkpt lat="44.86002" lon="5.41066">
        <ele>978.20001220703</ele>
        <time>2019-10-10T09:34:19Z</time>
      </trkpt>
      <trkpt lat="44.85976" lon="5.41033">
        <ele>979.59997558594</ele>
        <time>2019-10-10T09:34:31Z</time>
      </trkpt>
      <trkpt lat="44.85957" lon="5.41007">
        <ele>981</ele>
        <time>2019-10-10T09:34:41Z</time>
      </trkpt>
      <trkpt lat="44.85936" lon="5.40987">
        <ele>982.59997558594</ele>
        <time>2019-10-10T09:34:52Z</time>
      </trkpt>
      <trkpt lat="44.8591" lon="5.40968">
        <ele>984</ele>
        <time>2019-10-10T09:35:01Z</time>
      </trkpt>
      <trkpt lat="44.85889" lon="5.40953">
        <ele>985</ele>
        <time>2019-10-10T09:35:10Z</time>
      </trkpt>
      <trkpt lat="44.85884" lon="5.40947">
        <ele>985.40002441406</ele>
        <time>2019-10-10T09:35:13Z</time>
      </trkpt>
      <trkpt lat="44.85895" lon="5.40918">
        <ele>987.20001220703</ele>
        <time>2019-10-10T09:35:22Z</time>
      </trkpt>
      <trkpt lat="44.85915" lon="5.4092">
        <ele>988.79998779297</ele>
        <time>2019-10-10T09:35:29Z</time>
      </trkpt>
      <trkpt lat="44.85956" lon="5.40924">
        <ele>991.40002441406</ele>
        <time>2019-10-10T09:35:46Z</time>
      </trkpt>
      <trkpt lat="44.85992" lon="5.4093">
        <ele>993.40002441406</ele>
        <time>2019-10-10T09:36:00Z</time>
      </trkpt>
      <trkpt lat="44.86009" lon="5.40936">
        <ele>994.40002441406</ele>
        <time>2019-10-10T09:36:07Z</time>
      </trkpt>
      <trkpt lat="44.86047" lon="5.40949">
        <ele>996.59997558594</ele>
        <time>2019-10-10T09:36:21Z</time>
      </trkpt>
      <trkpt lat="44.86068" lon="5.40956">
        <ele>997.59997558594</ele>
        <time>2019-10-10T09:36:29Z</time>
      </trkpt>
      <trkpt lat="44.86092" lon="5.40966">
        <ele>999.40002441406</ele>
        <time>2019-10-10T09:36:39Z</time>
      </trkpt>
      <trkpt lat="44.86104" lon="5.40972">
        <ele>1000</ele>
        <time>2019-10-10T09:36:43Z</time>
      </trkpt>
      <trkpt lat="44.86144" lon="5.40987">
        <ele>1003</ele>
        <time>2019-10-10T09:36:59Z</time>
      </trkpt>
      <trkpt lat="44.86164" lon="5.40991">
        <ele>1003.4000244141</ele>
        <time>2019-10-10T09:37:06Z</time>
      </trkpt>
      <trkpt lat="44.86191" lon="5.40997">
        <ele>1005.200012207</ele>
        <time>2019-10-10T09:37:17Z</time>
      </trkpt>
      <trkpt lat="44.86207" lon="5.40997">
        <ele>1006.200012207</ele>
        <time>2019-10-10T09:37:24Z</time>
      </trkpt>
      <trkpt lat="44.86239" lon="5.40996">
        <ele>1008</ele>
        <time>2019-10-10T09:37:36Z</time>
      </trkpt>
      <trkpt lat="44.86252" lon="5.40995">
        <ele>1008.799987793</ele>
        <time>2019-10-10T09:37:41Z</time>
      </trkpt>
      <trkpt lat="44.86278" lon="5.40992">
        <ele>1010.4000244141</ele>
        <time>2019-10-10T09:37:51Z</time>
      </trkpt>
      <trkpt lat="44.8631" lon="5.40989">
        <ele>1012.5999755859</ele>
        <time>2019-10-10T09:38:03Z</time>
      </trkpt>
      <trkpt lat="44.86331" lon="5.40987">
        <ele>1014</ele>
        <time>2019-10-10T09:38:11Z</time>
      </trkpt>
      <trkpt lat="44.86355" lon="5.40982">
        <ele>1015.799987793</ele>
        <time>2019-10-10T09:38:23Z</time>
      </trkpt>
      <trkpt lat="44.86364" lon="5.40979">
        <ele>1016.5999755859</ele>
        <time>2019-10-10T09:38:27Z</time>
      </trkpt>
      <trkpt lat="44.86387" lon="5.40973">
        <ele>1018.200012207</ele>
        <time>2019-10-10T09:38:37Z</time>
      </trkpt>
      <trkpt lat="44.86413" lon="5.40973">
        <ele>1019.4000244141</ele>
        <time>2019-10-10T09:38:44Z</time>
      </trkpt>
      <trkpt lat="44.86446" lon="5.40988">
        <ele>1021</ele>
        <time>2019-10-10T09:38:55Z</time>
      </trkpt>
      <trkpt lat="44.86472" lon="5.41">
        <ele>1022.200012207</ele>
        <time>2019-10-10T09:39:04Z</time>
      </trkpt>
      <trkpt lat="44.86515" lon="5.41007">
        <ele>1024.8000488281</ele>
        <time>2019-10-10T09:39:20Z</time>
      </trkpt>
      <trkpt lat="44.86555" lon="5.41003">
        <ele>1026.5999755859</ele>
        <time>2019-10-10T09:39:33Z</time>
      </trkpt>
      <trkpt lat="44.86587" lon="5.41002">
        <ele>1028.5999755859</ele>
        <time>2019-10-10T09:39:43Z</time>
      </trkpt>
      <trkpt lat="44.86609" lon="5.41002">
        <ele>1029.5999755859</ele>
        <time>2019-10-10T09:39:50Z</time>
      </trkpt>
      <trkpt lat="44.86636" lon="5.41003">
        <ele>1031.5999755859</ele>
        <time>2019-10-10T09:40:00Z</time>
      </trkpt>
      <trkpt lat="44.86673" lon="5.41003">
        <ele>1033.8000488281</ele>
        <time>2019-10-10T09:40:13Z</time>
      </trkpt>
      <trkpt lat="44.86707" lon="5.41004">
        <ele>1035.5999755859</ele>
        <time>2019-10-10T09:40:25Z</time>
      </trkpt>
      <trkpt lat="44.86737" lon="5.41006">
        <ele>1038</ele>
        <time>2019-10-10T09:40:37Z</time>
      </trkpt>
      <trkpt lat="44.86758" lon="5.41009">
        <ele>1039.1999511719</ele>
        <time>2019-10-10T09:40:45Z</time>
      </trkpt>
      <trkpt lat="44.86784" lon="5.41012">
        <ele>1041</ele>
        <time>2019-10-10T09:40:56Z</time>
      </trkpt>
      <trkpt lat="44.86803" lon="5.41014">
        <ele>1042.1999511719</ele>
        <time>2019-10-10T09:41:03Z</time>
      </trkpt>
      <trkpt lat="44.86828" lon="5.41017">
        <ele>1043.1999511719</ele>
        <time>2019-10-10T09:41:11Z</time>
      </trkpt>
      <trkpt lat="44.8686" lon="5.41021">
        <ele>1045.4000244141</ele>
        <time>2019-10-10T09:41:22Z</time>
      </trkpt>
      <trkpt lat="44.86888" lon="5.41021">
        <ele>1047.1999511719</ele>
        <time>2019-10-10T09:41:32Z</time>
      </trkpt>
      <trkpt lat="44.86909" lon="5.41021">
        <ele>1048.5999755859</ele>
        <time>2019-10-10T09:41:40Z</time>
      </trkpt>
      <trkpt lat="44.86937" lon="5.41021">
        <ele>1050.4000244141</ele>
        <time>2019-10-10T09:41:51Z</time>
      </trkpt>
      <trkpt lat="44.86956" lon="5.41021">
        <ele>1051.4000244141</ele>
        <time>2019-10-10T09:41:58Z</time>
      </trkpt>
      <trkpt lat="44.86982" lon="5.41021">
        <ele>1053.1999511719</ele>
        <time>2019-10-10T09:42:08Z</time>
      </trkpt>
      <trkpt lat="44.86992" lon="5.41002">
        <ele>1054.1999511719</ele>
        <time>2019-10-10T09:42:14Z</time>
      </trkpt>
      <trkpt lat="44.86959" lon="5.41007">
        <ele>1056</ele>
        <time>2019-10-10T09:42:25Z</time>
      </trkpt>
      <trkpt lat="44.86941" lon="5.41002">
        <ele>1056.4000244141</ele>
        <time>2019-10-10T09:42:32Z</time>
      </trkpt>
      <trkpt lat="44.86926" lon="5.40997">
        <ele>1057</ele>
        <time>2019-10-10T09:42:37Z</time>
      </trkpt>
      <trkpt lat="44.8688" lon="5.40988">
        <ele>1060.5999755859</ele>
        <time>2019-10-10T09:42:54Z</time>
      </trkpt>
      <trkpt lat="44.86861" lon="5.40986">
        <ele>1061.8000488281</ele>
        <time>2019-10-10T09:43:01Z</time>
      </trkpt>
      <trkpt lat="44.86827" lon="5.40967">
        <ele>1064.4000244141</ele>
        <time>2019-10-10T09:43:16Z</time>
      </trkpt>
      <trkpt lat="44.86809" lon="5.40954">
        <ele>1065.8000488281</ele>
        <time>2019-10-10T09:43:24Z</time>
      </trkpt>
      <trkpt lat="44.8678" lon="5.40936">
        <ele>1068.1999511719</ele>
        <time>2019-10-10T09:43:36Z</time>
      </trkpt>
      <trkpt lat="44.86761" lon="5.40928">
        <ele>1069</ele>
        <time>2019-10-10T09:43:43Z</time>
      </trkpt>
      <trkpt lat="44.86732" lon="5.40919">
        <ele>1071.4000244141</ele>
        <time>2019-10-10T09:43:55Z</time>
      </trkpt>
      <trkpt lat="44.86709" lon="5.40915">
        <ele>1072.4000244141</ele>
        <time>2019-10-10T09:44:03Z</time>
      </trkpt>
      <trkpt lat="44.86691" lon="5.40913">
        <ele>1073.5999755859</ele>
        <time>2019-10-10T09:44:10Z</time>
      </trkpt>
      <trkpt lat="44.86667" lon="5.40907">
        <ele>1075.1999511719</ele>
        <time>2019-10-10T09:44:19Z</time>
      </trkpt>
      <trkpt lat="44.8664" lon="5.40898">
        <ele>1077</ele>
        <time>2019-10-10T09:44:30Z</time>
      </trkpt>
      <trkpt lat="44.86625" lon="5.40893">
        <ele>1078</ele>
        <time>2019-10-10T09:44:36Z</time>
      </trkpt>
      <trkpt lat="44.8661" lon="5.40888">
        <ele>1078.8000488281</ele>
        <time>2019-10-10T09:44:42Z</time>
      </trkpt>
      <trkpt lat="44.86565" lon="5.40874">
        <ele>1081.5999755859</ele>
        <time>2019-10-10T09:44:58Z</time>
      </trkpt>
      <trkpt lat="44.86546" lon="5.40866">
        <ele>1082.5999755859</ele>
        <time>2019-10-10T09:45:05Z</time>
      </trkpt>
      <trkpt lat="44.86522" lon="5.40856">
        <ele>1084</ele>
        <time>2019-10-10T09:45:14Z</time>
      </trkpt>
      <trkpt lat="44.86495" lon="5.40844">
        <ele>1086.1999511719</ele>
        <time>2019-10-10T09:45:25Z</time>
      </trkpt>
      <trkpt lat="44.86473" lon="5.40835">
        <ele>1087.5999755859</ele>
        <time>2019-10-10T09:45:34Z</time>
      </trkpt>
      <trkpt lat="44.86459" lon="5.40831">
        <ele>1088.5999755859</ele>
        <time>2019-10-10T09:45:40Z</time>
      </trkpt>
      <trkpt lat="44.86425" lon="5.40823">
        <ele>1091</ele>
        <time>2019-10-10T09:45:53Z</time>
      </trkpt>
      <trkpt lat="44.86405" lon="5.40818">
        <ele>1092.1999511719</ele>
        <time>2019-10-10T09:46:01Z</time>
      </trkpt>
      <trkpt lat="44.86367" lon="5.40806">
        <ele>1093.8000488281</ele>
        <time>2019-10-10T09:46:13Z</time>
      </trkpt>
      <trkpt lat="44.8634" lon="5.40797">
        <ele>1095.1999511719</ele>
        <time>2019-10-10T09:46:20Z</time>
      </trkpt>
      <trkpt lat="44.86304" lon="5.40785">
        <ele>1097.1999511719</ele>
        <time>2019-10-10T09:46:31Z</time>
      </trkpt>
      <trkpt lat="44.86274" lon="5.40774">
        <ele>1098.5999755859</ele>
        <time>2019-10-10T09:46:39Z</time>
      </trkpt>
      <trkpt lat="44.86257" lon="5.40769">
        <ele>1099.4000244141</ele>
        <time>2019-10-10T09:46:44Z</time>
      </trkpt>
      <trkpt lat="44.86223" lon="5.4075">
        <ele>1101.8000488281</ele>
        <time>2019-10-10T09:46:55Z</time>
      </trkpt>
      <trkpt lat="44.86201" lon="5.40737">
        <ele>1103.1999511719</ele>
        <time>2019-10-10T09:47:02Z</time>
      </trkpt>
      <trkpt lat="44.8616" lon="5.40715">
        <ele>1106</ele>
        <time>2019-10-10T09:47:15Z</time>
      </trkpt>
      <trkpt lat="44.86139" lon="5.40711">
        <ele>1108</ele>
        <time>2019-10-10T09:47:23Z</time>
      </trkpt>
      <trkpt lat="44.86111" lon="5.40707">
        <ele>1109.8000488281</ele>
        <time>2019-10-10T09:47:34Z</time>
      </trkpt>
      <trkpt lat="44.86099" lon="5.40705">
        <ele>1110.8000488281</ele>
        <time>2019-10-10T09:47:39Z</time>
      </trkpt>
      <trkpt lat="44.86076" lon="5.40695">
        <ele>1112.5999755859</ele>
        <time>2019-10-10T09:47:48Z</time>
      </trkpt>
      <trkpt lat="44.86058" lon="5.40688">
        <ele>1113.5999755859</ele>
        <time>2019-10-10T09:47:55Z</time>
      </trkpt>
      <trkpt lat="44.86022" lon="5.40673">
        <ele>1115.5999755859</ele>
        <time>2019-10-10T09:48:09Z</time>
      </trkpt>
      <trkpt lat="44.86001" lon="5.40664">
        <ele>1116.8000488281</ele>
        <time>2019-10-10T09:48:17Z</time>
      </trkpt>
      <trkpt lat="44.85966" lon="5.40642">
        <ele>1118.5999755859</ele>
        <time>2019-10-10T09:48:32Z</time>
      </trkpt>
      <trkpt lat="44.85942" lon="5.40629">
        <ele>1120</ele>
        <time>2019-10-10T09:48:42Z</time>
      </trkpt>
      <trkpt lat="44.85914" lon="5.40622">
        <ele>1121</ele>
        <time>2019-10-10T09:48:51Z</time>
      </trkpt>
      <trkpt lat="44.85894" lon="5.40622">
        <ele>1122.5999755859</ele>
        <time>2019-10-10T09:48:58Z</time>
      </trkpt>
      <trkpt lat="44.85868" lon="5.40617">
        <ele>1123.8000488281</ele>
        <time>2019-10-10T09:49:06Z</time>
      </trkpt>
      <trkpt lat="44.85846" lon="5.40608">
        <ele>1125</ele>
        <time>2019-10-10T09:49:14Z</time>
      </trkpt>
      <trkpt lat="44.85828" lon="5.40598">
        <ele>1126.4000244141</ele>
        <time>2019-10-10T09:49:21Z</time>
      </trkpt>
      <trkpt lat="44.85806" lon="5.40586">
        <ele>1128</ele>
        <time>2019-10-10T09:49:29Z</time>
      </trkpt>
      <trkpt lat="44.85785" lon="5.40585">
        <ele>1129.1999511719</ele>
        <time>2019-10-10T09:49:37Z</time>
      </trkpt>
      <trkpt lat="44.85754" lon="5.40581">
        <ele>1131</ele>
        <time>2019-10-10T09:49:48Z</time>
      </trkpt>
      <trkpt lat="44.85731" lon="5.40577">
        <ele>1132</ele>
        <time>2019-10-10T09:49:55Z</time>
      </trkpt>
      <trkpt lat="44.85698" lon="5.40569">
        <ele>1133.8000488281</ele>
        <time>2019-10-10T09:50:06Z</time>
      </trkpt>
      <trkpt lat="44.85675" lon="5.40557">
        <ele>1135.1999511719</ele>
        <time>2019-10-10T09:50:13Z</time>
      </trkpt>
      <trkpt lat="44.8565" lon="5.40542">
        <ele>1137</ele>
        <time>2019-10-10T09:50:22Z</time>
      </trkpt>
      <trkpt lat="44.85631" lon="5.40532">
        <ele>1138.1999511719</ele>
        <time>2019-10-10T09:50:29Z</time>
      </trkpt>
      <trkpt lat="44.85603" lon="5.40528">
        <ele>1139.8000488281</ele>
        <time>2019-10-10T09:50:39Z</time>
      </trkpt>
      <trkpt lat="44.85585" lon="5.40532">
        <ele>1141.1999511719</ele>
        <time>2019-10-10T09:50:45Z</time>
      </trkpt>
      <trkpt lat="44.85567" lon="5.40538">
        <ele>1142.1999511719</ele>
        <time>2019-10-10T09:50:52Z</time>
      </trkpt>
      <trkpt lat="44.85541" lon="5.40546">
        <ele>1143.4000244141</ele>
        <time>2019-10-10T09:51:00Z</time>
      </trkpt>
      <trkpt lat="44.85519" lon="5.40545">
        <ele>1144.8000488281</ele>
        <time>2019-10-10T09:51:07Z</time>
      </trkpt>
      <trkpt lat="44.85494" lon="5.40543">
        <ele>1146.1999511719</ele>
        <time>2019-10-10T09:51:15Z</time>
      </trkpt>
      <trkpt lat="44.85454" lon="5.40537">
        <ele>1148.8000488281</ele>
        <time>2019-10-10T09:51:29Z</time>
      </trkpt>
      <trkpt lat="44.85422" lon="5.4053">
        <ele>1150.4000244141</ele>
        <time>2019-10-10T09:51:39Z</time>
      </trkpt>
      <trkpt lat="44.85406" lon="5.40527">
        <ele>1151.1999511719</ele>
        <time>2019-10-10T09:51:45Z</time>
      </trkpt>
      <trkpt lat="44.85378" lon="5.40521">
        <ele>1153.1999511719</ele>
        <time>2019-10-10T09:51:55Z</time>
      </trkpt>
      <trkpt lat="44.85358" lon="5.40517">
        <ele>1154.4000244141</ele>
        <time>2019-10-10T09:52:02Z</time>
      </trkpt>
      <trkpt lat="44.85319" lon="5.40508">
        <ele>1156.5999755859</ele>
        <time>2019-10-10T09:52:16Z</time>
      </trkpt>
      <trkpt lat="44.85297" lon="5.40504">
        <ele>1157.8000488281</ele>
        <time>2019-10-10T09:52:23Z</time>
      </trkpt>
      <trkpt lat="44.85269" lon="5.40494">
        <ele>1159.8000488281</ele>
        <time>2019-10-10T09:52:32Z</time>
      </trkpt>
      <trkpt lat="44.85249" lon="5.40487">
        <ele>1160.8000488281</ele>
        <time>2019-10-10T09:52:39Z</time>
      </trkpt>
      <trkpt lat="44.85232" lon="5.40481">
        <ele>1161.5999755859</ele>
        <time>2019-10-10T09:52:44Z</time>
      </trkpt>
      <trkpt lat="44.85199" lon="5.40486">
        <ele>1163.8000488281</ele>
        <time>2019-10-10T09:52:56Z</time>
      </trkpt>
      <trkpt lat="44.85171" lon="5.40492">
        <ele>1164.5999755859</ele>
        <time>2019-10-10T09:53:05Z</time>
      </trkpt>
      <trkpt lat="44.85148" lon="5.40496">
        <ele>1165.5999755859</ele>
        <time>2019-10-10T09:53:12Z</time>
      </trkpt>
      <trkpt lat="44.85132" lon="5.40497">
        <ele>1167</ele>
        <time>2019-10-10T09:53:18Z</time>
      </trkpt>
      <trkpt lat="44.85103" lon="5.40494">
        <ele>1169.1999511719</ele>
        <time>2019-10-10T09:53:28Z</time>
      </trkpt>
      <trkpt lat="44.85081" lon="5.40493">
        <ele>1170.5999755859</ele>
        <time>2019-10-10T09:53:36Z</time>
      </trkpt>
      <trkpt lat="44.85046" lon="5.4049">
        <ele>1172.8000488281</ele>
        <time>2019-10-10T09:53:48Z</time>
      </trkpt>
      <trkpt lat="44.85025" lon="5.40488">
        <ele>1173.8000488281</ele>
        <time>2019-10-10T09:53:55Z</time>
      </trkpt>
      <trkpt lat="44.84979" lon="5.40485">
        <ele>1176.5999755859</ele>
        <time>2019-10-10T09:54:09Z</time>
      </trkpt>
      <trkpt lat="44.84961" lon="5.40484">
        <ele>1177.4000244141</ele>
        <time>2019-10-10T09:54:15Z</time>
      </trkpt>
      <trkpt lat="44.84923" lon="5.40476">
        <ele>1179.5999755859</ele>
        <time>2019-10-10T09:54:27Z</time>
      </trkpt>
      <trkpt lat="44.84902" lon="5.4047">
        <ele>1181</ele>
        <time>2019-10-10T09:54:33Z</time>
      </trkpt>
      <trkpt lat="44.84888" lon="5.40471">
        <ele>1181.8000488281</ele>
        <time>2019-10-10T09:54:38Z</time>
      </trkpt>
      <trkpt lat="44.8485" lon="5.40476">
        <ele>1184</ele>
        <time>2019-10-10T09:54:50Z</time>
      </trkpt>
      <trkpt lat="44.84826" lon="5.40476">
        <ele>1185.1999511719</ele>
        <time>2019-10-10T09:54:57Z</time>
      </trkpt>
      <trkpt lat="44.84794" lon="5.40474">
        <ele>1187</ele>
        <time>2019-10-10T09:55:07Z</time>
      </trkpt>
      <trkpt lat="44.84773" lon="5.40467">
        <ele>1188</ele>
        <time>2019-10-10T09:55:14Z</time>
      </trkpt>
      <trkpt lat="44.8474" lon="5.40467">
        <ele>1190</ele>
        <time>2019-10-10T09:55:26Z</time>
      </trkpt>
      <trkpt lat="44.84726" lon="5.40469">
        <ele>1190.8000488281</ele>
        <time>2019-10-10T09:55:31Z</time>
      </trkpt>
      <trkpt lat="44.84684" lon="5.40469">
        <ele>1193.4000244141</ele>
        <time>2019-10-10T09:55:46Z</time>
      </trkpt>
      <trkpt lat="44.84673" lon="5.40469">
        <ele>1194.1999511719</ele>
        <time>2019-10-10T09:55:50Z</time>
      </trkpt>
      <trkpt lat="44.84661" lon="5.40471">
        <ele>1195.4000244141</ele>
        <time>2019-10-10T09:55:59Z</time>
      </trkpt>
      <trkpt lat="44.84662" lon="5.40471">
        <ele>1196.4000244141</ele>
        <time>2019-10-10T09:57:42Z</time>
      </trkpt>
      <trkpt lat="44.84644" lon="5.40475">
        <ele>1196.4000244141</ele>
        <time>2019-10-10T09:57:49Z</time>
      </trkpt>
      <trkpt lat="44.84629" lon="5.40479">
        <ele>1197</ele>
        <time>2019-10-10T09:57:55Z</time>
      </trkpt>
      <trkpt lat="44.84608" lon="5.40483">
        <ele>1198.1999511719</ele>
        <time>2019-10-10T09:58:03Z</time>
      </trkpt>
      <trkpt lat="44.84599" lon="5.40484">
        <ele>1198.5999755859</ele>
        <time>2019-10-10T09:58:07Z</time>
      </trkpt>
      <trkpt lat="44.84582" lon="5.40486">
        <ele>1199.8000488281</ele>
        <time>2019-10-10T09:58:14Z</time>
      </trkpt>
      <trkpt lat="44.84551" lon="5.40489">
        <ele>1201.8000488281</ele>
        <time>2019-10-10T09:58:26Z</time>
      </trkpt>
      <trkpt lat="44.84531" lon="5.40491">
        <ele>1203</ele>
        <time>2019-10-10T09:58:34Z</time>
      </trkpt>
      <trkpt lat="44.84485" lon="5.40496">
        <ele>1206</ele>
        <time>2019-10-10T09:58:52Z</time>
      </trkpt>
      <trkpt lat="44.84462" lon="5.40499">
        <ele>1206.8000488281</ele>
        <time>2019-10-10T09:59:01Z</time>
      </trkpt>
      <trkpt lat="44.84436" lon="5.40503">
        <ele>1208.5999755859</ele>
        <time>2019-10-10T09:59:12Z</time>
      </trkpt>
      <trkpt lat="44.84419" lon="5.40505">
        <ele>1209.5999755859</ele>
        <time>2019-10-10T09:59:18Z</time>
      </trkpt>
      <trkpt lat="44.84387" lon="5.40509">
        <ele>1211.8000488281</ele>
        <time>2019-10-10T09:59:31Z</time>
      </trkpt>
      <trkpt lat="44.84366" lon="5.40511">
        <ele>1213</ele>
        <time>2019-10-10T09:59:39Z</time>
      </trkpt>
      <trkpt lat="44.84333" lon="5.40512">
        <ele>1214.8000488281</ele>
        <time>2019-10-10T09:59:52Z</time>
      </trkpt>
      <trkpt lat="44.84308" lon="5.40512">
        <ele>1216.4000244141</ele>
        <time>2019-10-10T10:00:02Z</time>
      </trkpt>
      <trkpt lat="44.84268" lon="5.40521">
        <ele>1218.4000244141</ele>
        <time>2019-10-10T10:00:17Z</time>
      </trkpt>
      <trkpt lat="44.84249" lon="5.40526">
        <ele>1219.8000488281</ele>
        <time>2019-10-10T10:00:25Z</time>
      </trkpt>
      <trkpt lat="44.84228" lon="5.40531">
        <ele>1221</ele>
        <time>2019-10-10T10:00:33Z</time>
      </trkpt>
      <trkpt lat="44.84185" lon="5.40543">
        <ele>1223.1999511719</ele>
        <time>2019-10-10T10:00:51Z</time>
      </trkpt>
      <trkpt lat="44.84171" lon="5.40549">
        <ele>1223.8000488281</ele>
        <time>2019-10-10T10:00:57Z</time>
      </trkpt>
      <trkpt lat="44.84141" lon="5.40562">
        <ele>1226.4000244141</ele>
        <time>2019-10-10T10:01:10Z</time>
      </trkpt>
      <trkpt lat="44.84115" lon="5.40574">
        <ele>1228.1999511719</ele>
        <time>2019-10-10T10:01:21Z</time>
      </trkpt>
      <trkpt lat="44.84082" lon="5.40588">
        <ele>1230.5999755859</ele>
        <time>2019-10-10T10:01:34Z</time>
      </trkpt>
      <trkpt lat="44.84062" lon="5.40592">
        <ele>1231.8000488281</ele>
        <time>2019-10-10T10:01:42Z</time>
      </trkpt>
      <trkpt lat="44.84046" lon="5.40567">
        <ele>1233</ele>
        <time>2019-10-10T10:01:52Z</time>
      </trkpt>
      <trkpt lat="44.84043" lon="5.40564">
        <ele>1233.4000244141</ele>
        <time>2019-10-10T10:03:08Z</time>
      </trkpt>
      <trkpt lat="44.83997" lon="5.40402">
        <ele>1234.8000488281</ele>
        <time>2019-10-10T10:05:03Z</time>
      </trkpt>
      <trkpt lat="44.83812" lon="5.39731">
        <ele>1234.8000488281</ele>
        <time>2019-10-10T10:05:06Z</time>
      </trkpt>
      <trkpt lat="44.83798" lon="5.39725">
        <ele>1233.4000244141</ele>
        <time>2019-10-10T10:17:19Z</time>
      </trkpt>
      <trkpt lat="44.83805" lon="5.39705">
        <ele>1233.4000244141</ele>
        <time>2019-10-10T10:17:24Z</time>
      </trkpt>
      <trkpt lat="44.8381" lon="5.39689">
        <ele>1232.5999755859</ele>
        <time>2019-10-10T10:17:29Z</time>
      </trkpt>
      <trkpt lat="44.8381" lon="5.39674">
        <ele>1233.1999511719</ele>
        <time>2019-10-10T10:17:32Z</time>
      </trkpt>
      <trkpt lat="44.83811" lon="5.39651">
        <ele>1232.8000488281</ele>
        <time>2019-10-10T10:17:36Z</time>
      </trkpt>
      <trkpt lat="44.83826" lon="5.39594">
        <ele>1233</ele>
        <time>2019-10-10T10:17:45Z</time>
      </trkpt>
      <trkpt lat="44.83835" lon="5.39574">
        <ele>1232.8000488281</ele>
        <time>2019-10-10T10:17:48Z</time>
      </trkpt>
      <trkpt lat="44.83838" lon="5.39566">
        <ele>1232.5999755859</ele>
        <time>2019-10-10T10:17:51Z</time>
      </trkpt>
      <trkpt lat="44.83838" lon="5.39566">
        <ele>1228.4000244141</ele>
        <time>2019-10-10T10:19:41Z</time>
      </trkpt>
      <trkpt lat="44.83838" lon="5.39567">
        <ele>1228</ele>
        <time>2019-10-10T10:19:46Z</time>
      </trkpt>
      <trkpt lat="44.83841" lon="5.39557">
        <ele>1228</ele>
        <time>2019-10-10T10:19:49Z</time>
      </trkpt>
      <trkpt lat="44.83851" lon="5.39532">
        <ele>1227.5999755859</ele>
        <time>2019-10-10T10:19:53Z</time>
      </trkpt>
      <trkpt lat="44.83868" lon="5.39497">
        <ele>1226.4000244141</ele>
        <time>2019-10-10T10:19:58Z</time>
      </trkpt>
      <trkpt lat="44.83891" lon="5.39455">
        <ele>1224.1999511719</ele>
        <time>2019-10-10T10:20:04Z</time>
      </trkpt>
      <trkpt lat="44.83912" lon="5.3941">
        <ele>1221.4000244141</ele>
        <time>2019-10-10T10:20:10Z</time>
      </trkpt>
      <trkpt lat="44.83918" lon="5.39387">
        <ele>1220.8000488281</ele>
        <time>2019-10-10T10:20:12Z</time>
      </trkpt>
      <trkpt lat="44.83907" lon="5.39346">
        <ele>1219.5999755859</ele>
        <time>2019-10-10T10:20:16Z</time>
      </trkpt>
      <trkpt lat="44.83892" lon="5.39317">
        <ele>1218</ele>
        <time>2019-10-10T10:20:19Z</time>
      </trkpt>
      <trkpt lat="44.83859" lon="5.39271">
        <ele>1216.5999755859</ele>
        <time>2019-10-10T10:20:24Z</time>
      </trkpt>
      <trkpt lat="44.83835" lon="5.39248">
        <ele>1215.8000488281</ele>
        <time>2019-10-10T10:20:27Z</time>
      </trkpt>
      <trkpt lat="44.83797" lon="5.39213">
        <ele>1213.4000244141</ele>
        <time>2019-10-10T10:20:32Z</time>
      </trkpt>
      <trkpt lat="44.83758" lon="5.39178">
        <ele>1210.1999511719</ele>
        <time>2019-10-10T10:20:37Z</time>
      </trkpt>
      <trkpt lat="44.83735" lon="5.39157">
        <ele>1207.4000244141</ele>
        <time>2019-10-10T10:20:43Z</time>
      </trkpt>
      <trkpt lat="44.83734" lon="5.39156">
        <ele>1205</ele>
        <time>2019-10-10T10:21:06Z</time>
      </trkpt>
      <trkpt lat="44.83725" lon="5.39147">
        <ele>1205</ele>
        <time>2019-10-10T10:21:11Z</time>
      </trkpt>
      <trkpt lat="44.83712" lon="5.39135">
        <ele>1204.5999755859</ele>
        <time>2019-10-10T10:21:14Z</time>
      </trkpt>
      <trkpt lat="44.8369" lon="5.39113">
        <ele>1203.8000488281</ele>
        <time>2019-10-10T10:21:19Z</time>
      </trkpt>
      <trkpt lat="44.83684" lon="5.39118">
        <ele>1202.8000488281</ele>
        <time>2019-10-10T10:21:22Z</time>
      </trkpt>
      <trkpt lat="44.83684" lon="5.3913">
        <ele>1201.8000488281</ele>
        <time>2019-10-10T10:21:29Z</time>
      </trkpt>
      <trkpt lat="44.83684" lon="5.3913">
        <ele>1201</ele>
        <time>2019-10-10T10:22:03Z</time>
      </trkpt>
      <trkpt lat="44.83693" lon="5.39139">
        <ele>1200.8000488281</ele>
        <time>2019-10-10T10:22:06Z</time>
      </trkpt>
      <trkpt lat="44.83714" lon="5.39155">
        <ele>1200.5999755859</ele>
        <time>2019-10-10T10:22:12Z</time>
      </trkpt>
      <trkpt lat="44.83757" lon="5.3921">
        <ele>1198</ele>
        <time>2019-10-10T10:22:21Z</time>
      </trkpt>
      <trkpt lat="44.83802" lon="5.39261">
        <ele>1194.8000488281</ele>
        <time>2019-10-10T10:22:28Z</time>
      </trkpt>
      <trkpt lat="44.83832" lon="5.39301">
        <ele>1193.4000244141</ele>
        <time>2019-10-10T10:22:33Z</time>
      </trkpt>
      <trkpt lat="44.83857" lon="5.39367">
        <ele>1191.1999511719</ele>
        <time>2019-10-10T10:22:39Z</time>
      </trkpt>
      <trkpt lat="44.83855" lon="5.39379">
        <ele>1190</ele>
        <time>2019-10-10T10:22:42Z</time>
      </trkpt>
      <trkpt lat="44.83832" lon="5.39425">
        <ele>1188.8000488281</ele>
        <time>2019-10-10T10:22:46Z</time>
      </trkpt>
      <trkpt lat="44.83807" lon="5.39463">
        <ele>1187</ele>
        <time>2019-10-10T10:22:49Z</time>
      </trkpt>
      <trkpt lat="44.83777" lon="5.39513">
        <ele>1185.5999755859</ele>
        <time>2019-10-10T10:22:53Z</time>
      </trkpt>
      <trkpt lat="44.83747" lon="5.39551">
        <ele>1183</ele>
        <time>2019-10-10T10:22:57Z</time>
      </trkpt>
      <trkpt lat="44.83717" lon="5.39639">
        <ele>1179.5999755859</ele>
        <time>2019-10-10T10:23:05Z</time>
      </trkpt>
      <trkpt lat="44.83707" lon="5.397">
        <ele>1177.8000488281</ele>
        <time>2019-10-10T10:23:10Z</time>
      </trkpt>
      <trkpt lat="44.83701" lon="5.39707">
        <ele>1177.4000244141</ele>
        <time>2019-10-10T10:23:13Z</time>
      </trkpt>
      <trkpt lat="44.83699" lon="5.39709">
        <ele>1174</ele>
        <time>2019-10-10T10:23:55Z</time>
      </trkpt>
      <trkpt lat="44.83691" lon="5.39719">
        <ele>1173.8000488281</ele>
        <time>2019-10-10T10:23:59Z</time>
      </trkpt>
      <trkpt lat="44.83682" lon="5.39735">
        <ele>1174</ele>
        <time>2019-10-10T10:24:02Z</time>
      </trkpt>
      <trkpt lat="44.83677" lon="5.39759">
        <ele>1172.8000488281</ele>
        <time>2019-10-10T10:24:06Z</time>
      </trkpt>
      <trkpt lat="44.8366" lon="5.39761">
        <ele>1171.1999511719</ele>
        <time>2019-10-10T10:24:10Z</time>
      </trkpt>
      <trkpt lat="44.83669" lon="5.39735">
        <ele>1170.4000244141</ele>
        <time>2019-10-10T10:24:15Z</time>
      </trkpt>
      <trkpt lat="44.83695" lon="5.39678">
        <ele>1169.8000488281</ele>
        <time>2019-10-10T10:24:23Z</time>
      </trkpt>
      <trkpt lat="44.83697" lon="5.39652">
        <ele>1169</ele>
        <time>2019-10-10T10:24:26Z</time>
      </trkpt>
      <trkpt lat="44.83704" lon="5.3958">
        <ele>1166.8000488281</ele>
        <time>2019-10-10T10:24:33Z</time>
      </trkpt>
      <trkpt lat="44.83711" lon="5.39555">
        <ele>1165.4000244141</ele>
        <time>2019-10-10T10:24:36Z</time>
      </trkpt>
      <trkpt lat="44.83735" lon="5.395">
        <ele>1162.8000488281</ele>
        <time>2019-10-10T10:24:41Z</time>
      </trkpt>
      <trkpt lat="44.83752" lon="5.39464">
        <ele>1160</ele>
        <time>2019-10-10T10:24:45Z</time>
      </trkpt>
      <trkpt lat="44.83777" lon="5.39403">
        <ele>1157</ele>
        <time>2019-10-10T10:24:51Z</time>
      </trkpt>
      <trkpt lat="44.83782" lon="5.39343">
        <ele>1153.5999755859</ele>
        <time>2019-10-10T10:24:58Z</time>
      </trkpt>
      <trkpt lat="44.8376" lon="5.39315">
        <ele>1152.4000244141</ele>
        <time>2019-10-10T10:25:01Z</time>
      </trkpt>
      <trkpt lat="44.83719" lon="5.39277">
        <ele>1151.4000244141</ele>
        <time>2019-10-10T10:25:06Z</time>
      </trkpt>
      <trkpt lat="44.83671" lon="5.39231">
        <ele>1148.4000244141</ele>
        <time>2019-10-10T10:25:12Z</time>
      </trkpt>
      <trkpt lat="44.83636" lon="5.39196">
        <ele>1145.4000244141</ele>
        <time>2019-10-10T10:25:16Z</time>
      </trkpt>
      <trkpt lat="44.83599" lon="5.39157">
        <ele>1144</ele>
        <time>2019-10-10T10:25:20Z</time>
      </trkpt>
      <trkpt lat="44.83562" lon="5.39119">
        <ele>1141.4000244141</ele>
        <time>2019-10-10T10:25:24Z</time>
      </trkpt>
      <trkpt lat="44.83525" lon="5.39078">
        <ele>1139.4000244141</ele>
        <time>2019-10-10T10:25:28Z</time>
      </trkpt>
      <trkpt lat="44.83478" lon="5.3903">
        <ele>1137</ele>
        <time>2019-10-10T10:25:33Z</time>
      </trkpt>
      <trkpt lat="44.83456" lon="5.39008">
        <ele>1135</ele>
        <time>2019-10-10T10:25:36Z</time>
      </trkpt>
      <trkpt lat="44.83424" lon="5.38991">
        <ele>1133</ele>
        <time>2019-10-10T10:25:40Z</time>
      </trkpt>
      <trkpt lat="44.83402" lon="5.38997">
        <ele>1131.4000244141</ele>
        <time>2019-10-10T10:25:43Z</time>
      </trkpt>
      <trkpt lat="44.83366" lon="5.3903">
        <ele>1128.1999511719</ele>
        <time>2019-10-10T10:25:48Z</time>
      </trkpt>
      <trkpt lat="44.83347" lon="5.3904">
        <ele>1126.5999755859</ele>
        <time>2019-10-10T10:25:51Z</time>
      </trkpt>
      <trkpt lat="44.83334" lon="5.39036">
        <ele>1125.8000488281</ele>
        <time>2019-10-10T10:25:53Z</time>
      </trkpt>
      <trkpt lat="44.83297" lon="5.39011">
        <ele>1124.1999511719</ele>
        <time>2019-10-10T10:25:57Z</time>
      </trkpt>
      <trkpt lat="44.8328" lon="5.39012">
        <ele>1122.5999755859</ele>
        <time>2019-10-10T10:25:59Z</time>
      </trkpt>
      <trkpt lat="44.83235" lon="5.39034">
        <ele>1120.4000244141</ele>
        <time>2019-10-10T10:26:04Z</time>
      </trkpt>
      <trkpt lat="44.832" lon="5.3905">
        <ele>1119.1999511719</ele>
        <time>2019-10-10T10:26:08Z</time>
      </trkpt>
      <trkpt lat="44.83161" lon="5.39061">
        <ele>1117.8000488281</ele>
        <time>2019-10-10T10:26:12Z</time>
      </trkpt>
      <trkpt lat="44.8313" lon="5.39066">
        <ele>1116</ele>
        <time>2019-10-10T10:26:15Z</time>
      </trkpt>
      <trkpt lat="44.83101" lon="5.39059">
        <ele>1114</ele>
        <time>2019-10-10T10:26:18Z</time>
      </trkpt>
      <trkpt lat="44.8308" lon="5.39058">
        <ele>1113</ele>
        <time>2019-10-10T10:26:20Z</time>
      </trkpt>
      <trkpt lat="44.83051" lon="5.39056">
        <ele>1112.1999511719</ele>
        <time>2019-10-10T10:26:23Z</time>
      </trkpt>
      <trkpt lat="44.82982" lon="5.39036">
        <ele>1108.1999511719</ele>
        <time>2019-10-10T10:26:29Z</time>
      </trkpt>
      <trkpt lat="44.82899" lon="5.39013">
        <ele>1104.1999511719</ele>
        <time>2019-10-10T10:26:37Z</time>
      </trkpt>
      <trkpt lat="44.82868" lon="5.39014">
        <ele>1101.4000244141</ele>
        <time>2019-10-10T10:26:40Z</time>
      </trkpt>
      <trkpt lat="44.82849" lon="5.39014">
        <ele>1100</ele>
        <time>2019-10-10T10:26:42Z</time>
      </trkpt>
      <trkpt lat="44.82817" lon="5.39013">
        <ele>1097.1999511719</ele>
        <time>2019-10-10T10:26:48Z</time>
      </trkpt>
      <trkpt lat="44.82816" lon="5.39019">
        <ele>1096</ele>
        <time>2019-10-10T10:26:50Z</time>
      </trkpt>
      <trkpt lat="44.82807" lon="5.39015">
        <ele>1092.4000244141</ele>
        <time>2019-10-10T10:27:44Z</time>
      </trkpt>
      <trkpt lat="44.82783" lon="5.39002">
        <ele>1091.8000488281</ele>
        <time>2019-10-10T10:27:50Z</time>
      </trkpt>
      <trkpt lat="44.82734" lon="5.38983">
        <ele>1091.4000244141</ele>
        <time>2019-10-10T10:27:57Z</time>
      </trkpt>
      <trkpt lat="44.82703" lon="5.38962">
        <ele>1090.4000244141</ele>
        <time>2019-10-10T10:28:01Z</time>
      </trkpt>
      <trkpt lat="44.82673" lon="5.3892">
        <ele>1089.1999511719</ele>
        <time>2019-10-10T10:28:05Z</time>
      </trkpt>
      <trkpt lat="44.82642" lon="5.38861">
        <ele>1087.1999511719</ele>
        <time>2019-10-10T10:28:10Z</time>
      </trkpt>
      <trkpt lat="44.82608" lon="5.38792">
        <ele>1084.1999511719</ele>
        <time>2019-10-10T10:28:16Z</time>
      </trkpt>
      <trkpt lat="44.82598" lon="5.38759">
        <ele>1082.1999511719</ele>
        <time>2019-10-10T10:28:19Z</time>
      </trkpt>
      <trkpt lat="44.82599" lon="5.38696">
        <ele>1079.5999755859</ele>
        <time>2019-10-10T10:28:24Z</time>
      </trkpt>
      <trkpt lat="44.82593" lon="5.3866">
        <ele>1077.8000488281</ele>
        <time>2019-10-10T10:28:27Z</time>
      </trkpt>
      <trkpt lat="44.8258" lon="5.38601">
        <ele>1075.5999755859</ele>
        <time>2019-10-10T10:28:32Z</time>
      </trkpt>
      <trkpt lat="44.82547" lon="5.38496">
        <ele>1072</ele>
        <time>2019-10-10T10:28:41Z</time>
      </trkpt>
      <trkpt lat="44.82527" lon="5.38465">
        <ele>1069.8000488281</ele>
        <time>2019-10-10T10:28:44Z</time>
      </trkpt>
      <trkpt lat="44.82506" lon="5.38448">
        <ele>1067.8000488281</ele>
        <time>2019-10-10T10:28:47Z</time>
      </trkpt>
      <trkpt lat="44.82491" lon="5.38438">
        <ele>1066.8000488281</ele>
        <time>2019-10-10T10:28:49Z</time>
      </trkpt>
      <trkpt lat="44.82468" lon="5.38403">
        <ele>1064</ele>
        <time>2019-10-10T10:28:55Z</time>
      </trkpt>
      <trkpt lat="44.82454" lon="5.38405">
        <ele>1062</ele>
        <time>2019-10-10T10:28:58Z</time>
      </trkpt>
      <trkpt lat="44.82446" lon="5.38466">
        <ele>1060.1999511719</ele>
        <time>2019-10-10T10:29:09Z</time>
      </trkpt>
      <trkpt lat="44.82454" lon="5.38472">
        <ele>1059</ele>
        <time>2019-10-10T10:30:30Z</time>
      </trkpt>
      <trkpt lat="44.82477" lon="5.38478">
        <ele>1059.4000244141</ele>
        <time>2019-10-10T10:30:42Z</time>
      </trkpt>
      <trkpt lat="44.82502" lon="5.38494">
        <ele>1059.1999511719</ele>
        <time>2019-10-10T10:30:47Z</time>
      </trkpt>
      <trkpt lat="44.82521" lon="5.3851">
        <ele>1059</ele>
        <time>2019-10-10T10:30:50Z</time>
      </trkpt>
      <trkpt lat="44.82536" lon="5.38515">
        <ele>1058.5999755859</ele>
        <time>2019-10-10T10:30:53Z</time>
      </trkpt>
      <trkpt lat="44.82555" lon="5.38596">
        <ele>1056.4000244141</ele>
        <time>2019-10-10T10:30:59Z</time>
      </trkpt>
      <trkpt lat="44.82565" lon="5.38678">
        <ele>1054.4000244141</ele>
        <time>2019-10-10T10:31:05Z</time>
      </trkpt>
      <trkpt lat="44.82565" lon="5.3873">
        <ele>1053</ele>
        <time>2019-10-10T10:31:09Z</time>
      </trkpt>
      <trkpt lat="44.82552" lon="5.38795">
        <ele>1050.5999755859</ele>
        <time>2019-10-10T10:31:14Z</time>
      </trkpt>
      <trkpt lat="44.82567" lon="5.38834">
        <ele>1048</ele>
        <time>2019-10-10T10:31:18Z</time>
      </trkpt>
      <trkpt lat="44.82581" lon="5.38864">
        <ele>1046.5999755859</ele>
        <time>2019-10-10T10:31:21Z</time>
      </trkpt>
      <trkpt lat="44.8259" lon="5.38884">
        <ele>1045.8000488281</ele>
        <time>2019-10-10T10:31:23Z</time>
      </trkpt>
      <trkpt lat="44.82616" lon="5.38949">
        <ele>1042.8000488281</ele>
        <time>2019-10-10T10:31:29Z</time>
      </trkpt>
      <trkpt lat="44.82629" lon="5.38983">
        <ele>1041.1999511719</ele>
        <time>2019-10-10T10:31:32Z</time>
      </trkpt>
      <trkpt lat="44.82657" lon="5.39033">
        <ele>1038.4000244141</ele>
        <time>2019-10-10T10:31:37Z</time>
      </trkpt>
      <trkpt lat="44.8268" lon="5.39054">
        <ele>1037.1999511719</ele>
        <time>2019-10-10T10:31:40Z</time>
      </trkpt>
      <trkpt lat="44.82735" lon="5.39088">
        <ele>1033.1999511719</ele>
        <time>2019-10-10T10:31:47Z</time>
      </trkpt>
      <trkpt lat="44.82777" lon="5.39112">
        <ele>1030.4000244141</ele>
        <time>2019-10-10T10:31:52Z</time>
      </trkpt>
      <trkpt lat="44.82828" lon="5.39152">
        <ele>1026</ele>
        <time>2019-10-10T10:31:59Z</time>
      </trkpt>
      <trkpt lat="44.82842" lon="5.39156">
        <ele>1025.4000244141</ele>
        <time>2019-10-10T10:32:01Z</time>
      </trkpt>
      <trkpt lat="44.82856" lon="5.39158">
        <ele>1024.8000488281</ele>
        <time>2019-10-10T10:32:03Z</time>
      </trkpt>
      <trkpt lat="44.82883" lon="5.3916">
        <ele>1023</ele>
        <time>2019-10-10T10:32:07Z</time>
      </trkpt>
      <trkpt lat="44.82898" lon="5.39164">
        <ele>1021.5999755859</ele>
        <time>2019-10-10T10:32:09Z</time>
      </trkpt>
      <trkpt lat="44.82965" lon="5.39203">
        <ele>1016.799987793</ele>
        <time>2019-10-10T10:32:17Z</time>
      </trkpt>
      <trkpt lat="44.82999" lon="5.39225">
        <ele>1015</ele>
        <time>2019-10-10T10:32:21Z</time>
      </trkpt>
      <trkpt lat="44.83036" lon="5.39247">
        <ele>1013</ele>
        <time>2019-10-10T10:32:26Z</time>
      </trkpt>
      <trkpt lat="44.8306" lon="5.39249">
        <ele>1012</ele>
        <time>2019-10-10T10:32:29Z</time>
      </trkpt>
      <trkpt lat="44.83091" lon="5.39265">
        <ele>1010.200012207</ele>
        <time>2019-10-10T10:32:33Z</time>
      </trkpt>
      <trkpt lat="44.83129" lon="5.39281">
        <ele>1007.5999755859</ele>
        <time>2019-10-10T10:32:38Z</time>
      </trkpt>
      <trkpt lat="44.83164" lon="5.39288">
        <ele>1006</ele>
        <time>2019-10-10T10:32:43Z</time>
      </trkpt>
      <trkpt lat="44.83207" lon="5.39305">
        <ele>1002.200012207</ele>
        <time>2019-10-10T10:32:49Z</time>
      </trkpt>
      <trkpt lat="44.83236" lon="5.39304">
        <ele>1000.5999755859</ele>
        <time>2019-10-10T10:32:53Z</time>
      </trkpt>
      <trkpt lat="44.83251" lon="5.39293">
        <ele>1000.4000244141</ele>
        <time>2019-10-10T10:32:55Z</time>
      </trkpt>
      <trkpt lat="44.83266" lon="5.39286">
        <ele>999.20001220703</ele>
        <time>2019-10-10T10:32:58Z</time>
      </trkpt>
      <trkpt lat="44.8331" lon="5.39303">
        <ele>996.59997558594</ele>
        <time>2019-10-10T10:33:03Z</time>
      </trkpt>
      <trkpt lat="44.83335" lon="5.39308">
        <ele>994.79998779297</ele>
        <time>2019-10-10T10:33:06Z</time>
      </trkpt>
      <trkpt lat="44.83373" lon="5.39314">
        <ele>992</ele>
        <time>2019-10-10T10:33:10Z</time>
      </trkpt>
      <trkpt lat="44.83389" lon="5.39332">
        <ele>991.40002441406</ele>
        <time>2019-10-10T10:33:12Z</time>
      </trkpt>
      <trkpt lat="44.83393" lon="5.39392">
        <ele>989.79998779297</ele>
        <time>2019-10-10T10:33:16Z</time>
      </trkpt>
      <trkpt lat="44.83389" lon="5.39421">
        <ele>988.59997558594</ele>
        <time>2019-10-10T10:33:18Z</time>
      </trkpt>
      <trkpt lat="44.83358" lon="5.39498">
        <ele>985.59997558594</ele>
        <time>2019-10-10T10:33:24Z</time>
      </trkpt>
      <trkpt lat="44.83335" lon="5.39531">
        <ele>984.40002441406</ele>
        <time>2019-10-10T10:33:27Z</time>
      </trkpt>
      <trkpt lat="44.83293" lon="5.39586">
        <ele>982.20001220703</ele>
        <time>2019-10-10T10:33:32Z</time>
      </trkpt>
      <trkpt lat="44.83267" lon="5.39636">
        <ele>980</ele>
        <time>2019-10-10T10:33:36Z</time>
      </trkpt>
      <trkpt lat="44.83216" lon="5.39671">
        <ele>977</ele>
        <time>2019-10-10T10:33:41Z</time>
      </trkpt>
      <trkpt lat="44.83194" lon="5.39707">
        <ele>975.79998779297</ele>
        <time>2019-10-10T10:33:44Z</time>
      </trkpt>
      <trkpt lat="44.83186" lon="5.39712">
        <ele>974.79998779297</ele>
        <time>2019-10-10T10:33:46Z</time>
      </trkpt>
      <trkpt lat="44.8313" lon="5.39716">
        <ele>972</ele>
        <time>2019-10-10T10:33:51Z</time>
      </trkpt>
      <trkpt lat="44.83101" lon="5.39736">
        <ele>969.79998779297</ele>
        <time>2019-10-10T10:33:54Z</time>
      </trkpt>
      <trkpt lat="44.83046" lon="5.39784">
        <ele>966</ele>
        <time>2019-10-10T10:34:00Z</time>
      </trkpt>
      <trkpt lat="44.83012" lon="5.39798">
        <ele>965</ele>
        <time>2019-10-10T10:34:03Z</time>
      </trkpt>
      <trkpt lat="44.82959" lon="5.39817">
        <ele>963.79998779297</ele>
        <time>2019-10-10T10:34:08Z</time>
      </trkpt>
      <trkpt lat="44.82944" lon="5.39826">
        <ele>963</ele>
        <time>2019-10-10T10:34:10Z</time>
      </trkpt>
      <trkpt lat="44.82929" lon="5.39834">
        <ele>960.59997558594</ele>
        <time>2019-10-10T10:34:13Z</time>
      </trkpt>
      <trkpt lat="44.82921" lon="5.39828">
        <ele>958.79998779297</ele>
        <time>2019-10-10T10:34:16Z</time>
      </trkpt>
      <trkpt lat="44.82939" lon="5.39804">
        <ele>956.79998779297</ele>
        <time>2019-10-10T10:34:20Z</time>
      </trkpt>
      <trkpt lat="44.82959" lon="5.39801">
        <ele>955.59997558594</ele>
        <time>2019-10-10T10:34:23Z</time>
      </trkpt>
      <trkpt lat="44.83015" lon="5.39769">
        <ele>954.20001220703</ele>
        <time>2019-10-10T10:34:31Z</time>
      </trkpt>
      <trkpt lat="44.83043" lon="5.39746">
        <ele>953</ele>
        <time>2019-10-10T10:34:35Z</time>
      </trkpt>
      <trkpt lat="44.83076" lon="5.39709">
        <ele>951.40002441406</ele>
        <time>2019-10-10T10:34:40Z</time>
      </trkpt>
      <trkpt lat="44.83116" lon="5.39671">
        <ele>948.79998779297</ele>
        <time>2019-10-10T10:34:46Z</time>
      </trkpt>
      <trkpt lat="44.83137" lon="5.39658">
        <ele>947.20001220703</ele>
        <time>2019-10-10T10:34:49Z</time>
      </trkpt>
      <trkpt lat="44.83172" lon="5.39633">
        <ele>943.79998779297</ele>
        <time>2019-10-10T10:34:54Z</time>
      </trkpt>
      <trkpt lat="44.83195" lon="5.39599">
        <ele>941.40002441406</ele>
        <time>2019-10-10T10:34:58Z</time>
      </trkpt>
      <trkpt lat="44.83231" lon="5.3954">
        <ele>938.79998779297</ele>
        <time>2019-10-10T10:35:05Z</time>
      </trkpt>
      <trkpt lat="44.83227" lon="5.39499">
        <ele>936.40002441406</ele>
        <time>2019-10-10T10:35:09Z</time>
      </trkpt>
      <trkpt lat="44.83203" lon="5.3948">
        <ele>934</ele>
        <time>2019-10-10T10:35:13Z</time>
      </trkpt>
      <trkpt lat="44.83187" lon="5.39475">
        <ele>933.79998779297</ele>
        <time>2019-10-10T10:35:15Z</time>
      </trkpt>
      <trkpt lat="44.83149" lon="5.39462">
        <ele>931.79998779297</ele>
        <time>2019-10-10T10:35:19Z</time>
      </trkpt>
      <trkpt lat="44.8312" lon="5.39453">
        <ele>930.59997558594</ele>
        <time>2019-10-10T10:35:22Z</time>
      </trkpt>
      <trkpt lat="44.8303" lon="5.39414">
        <ele>925.79998779297</ele>
        <time>2019-10-10T10:35:30Z</time>
      </trkpt>
      <trkpt lat="44.82982" lon="5.39397">
        <ele>924</ele>
        <time>2019-10-10T10:35:34Z</time>
      </trkpt>
      <trkpt lat="44.82931" lon="5.39389">
        <ele>921.79998779297</ele>
        <time>2019-10-10T10:35:38Z</time>
      </trkpt>
      <trkpt lat="44.82884" lon="5.39379">
        <ele>919.59997558594</ele>
        <time>2019-10-10T10:35:42Z</time>
      </trkpt>
      <trkpt lat="44.82835" lon="5.3937">
        <ele>915.59997558594</ele>
        <time>2019-10-10T10:35:46Z</time>
      </trkpt>
      <trkpt lat="44.82763" lon="5.3935">
        <ele>912.79998779297</ele>
        <time>2019-10-10T10:35:52Z</time>
      </trkpt>
      <trkpt lat="44.82717" lon="5.39315">
        <ele>912</ele>
        <time>2019-10-10T10:35:56Z</time>
      </trkpt>
      <trkpt lat="44.82677" lon="5.39309">
        <ele>910.79998779297</ele>
        <time>2019-10-10T10:36:00Z</time>
      </trkpt>
      <trkpt lat="44.8266" lon="5.39321">
        <ele>909.40002441406</ele>
        <time>2019-10-10T10:36:02Z</time>
      </trkpt>
      <trkpt lat="44.82628" lon="5.39326">
        <ele>905.79998779297</ele>
        <time>2019-10-10T10:36:06Z</time>
      </trkpt>
      <trkpt lat="44.82601" lon="5.39305">
        <ele>904.20001220703</ele>
        <time>2019-10-10T10:36:09Z</time>
      </trkpt>
      <trkpt lat="44.82538" lon="5.39242">
        <ele>901.40002441406</ele>
        <time>2019-10-10T10:36:16Z</time>
      </trkpt>
      <trkpt lat="44.82513" lon="5.3921">
        <ele>900</ele>
        <time>2019-10-10T10:36:19Z</time>
      </trkpt>
      <trkpt lat="44.82469" lon="5.39178">
        <ele>898.40002441406</ele>
        <time>2019-10-10T10:36:23Z</time>
      </trkpt>
      <trkpt lat="44.82451" lon="5.39161">
        <ele>896.79998779297</ele>
        <time>2019-10-10T10:36:25Z</time>
      </trkpt>
      <trkpt lat="44.82428" lon="5.3913">
        <ele>894.40002441406</ele>
        <time>2019-10-10T10:36:28Z</time>
      </trkpt>
      <trkpt lat="44.82416" lon="5.39108">
        <ele>892.40002441406</ele>
        <time>2019-10-10T10:36:30Z</time>
      </trkpt>
      <trkpt lat="44.82397" lon="5.3908">
        <ele>891.59997558594</ele>
        <time>2019-10-10T10:36:32Z</time>
      </trkpt>
      <trkpt lat="44.82362" lon="5.39038">
        <ele>889</ele>
        <time>2019-10-10T10:36:36Z</time>
      </trkpt>
      <trkpt lat="44.82339" lon="5.39005">
        <ele>887</ele>
        <time>2019-10-10T10:36:39Z</time>
      </trkpt>
      <trkpt lat="44.82325" lon="5.38967">
        <ele>885.40002441406</ele>
        <time>2019-10-10T10:36:42Z</time>
      </trkpt>
      <trkpt lat="44.82336" lon="5.38917">
        <ele>883.40002441406</ele>
        <time>2019-10-10T10:36:45Z</time>
      </trkpt>
      <trkpt lat="44.82329" lon="5.3886">
        <ele>880.20001220703</ele>
        <time>2019-10-10T10:36:49Z</time>
      </trkpt>
      <trkpt lat="44.82324" lon="5.38824">
        <ele>878.59997558594</ele>
        <time>2019-10-10T10:36:51Z</time>
      </trkpt>
      <trkpt lat="44.82319" lon="5.388">
        <ele>876.40002441406</ele>
        <time>2019-10-10T10:36:55Z</time>
      </trkpt>
      <trkpt lat="44.82302" lon="5.38799">
        <ele>875.59997558594</ele>
        <time>2019-10-10T10:36:59Z</time>
      </trkpt>
      <trkpt lat="44.82309" lon="5.38836">
        <ele>875</ele>
        <time>2019-10-10T10:37:03Z</time>
      </trkpt>
      <trkpt lat="44.82321" lon="5.38876">
        <ele>874.79998779297</ele>
        <time>2019-10-10T10:37:07Z</time>
      </trkpt>
      <trkpt lat="44.82313" lon="5.38925">
        <ele>873</ele>
        <time>2019-10-10T10:37:12Z</time>
      </trkpt>
      <trkpt lat="44.82303" lon="5.38946">
        <ele>872.20001220703</ele>
        <time>2019-10-10T10:37:14Z</time>
      </trkpt>
      <trkpt lat="44.82294" lon="5.3898">
        <ele>871.40002441406</ele>
        <time>2019-10-10T10:37:16Z</time>
      </trkpt>
      <trkpt lat="44.82316" lon="5.39059">
        <ele>868</ele>
        <time>2019-10-10T10:37:23Z</time>
      </trkpt>
      <trkpt lat="44.82303" lon="5.39104">
        <ele>865.40002441406</ele>
        <time>2019-10-10T10:37:27Z</time>
      </trkpt>
      <trkpt lat="44.82307" lon="5.3911">
        <ele>861.20001220703</ele>
        <time>2019-10-10T10:38:15Z</time>
      </trkpt>
      <trkpt lat="44.82313" lon="5.39119">
        <ele>861</ele>
        <time>2019-10-10T10:38:17Z</time>
      </trkpt>
      <trkpt lat="44.82365" lon="5.39201">
        <ele>859.20001220703</ele>
        <time>2019-10-10T10:38:28Z</time>
      </trkpt>
      <trkpt lat="44.82385" lon="5.39246">
        <ele>858.40002441406</ele>
        <time>2019-10-10T10:38:33Z</time>
      </trkpt>
      <trkpt lat="44.82417" lon="5.39287">
        <ele>856</ele>
        <time>2019-10-10T10:38:39Z</time>
      </trkpt>
      <trkpt lat="44.82458" lon="5.39316">
        <ele>853.59997558594</ele>
        <time>2019-10-10T10:38:45Z</time>
      </trkpt>
      <trkpt lat="44.82527" lon="5.39372">
        <ele>849.20001220703</ele>
        <time>2019-10-10T10:38:55Z</time>
      </trkpt>
      <trkpt lat="44.82542" lon="5.39385">
        <ele>848.79998779297</ele>
        <time>2019-10-10T10:38:57Z</time>
      </trkpt>
      <trkpt lat="44.82601" lon="5.39433">
        <ele>845</ele>
        <time>2019-10-10T10:39:05Z</time>
      </trkpt>
      <trkpt lat="44.82616" lon="5.39437">
        <ele>844.20001220703</ele>
        <time>2019-10-10T10:39:07Z</time>
      </trkpt>
      <trkpt lat="44.8266" lon="5.39448">
        <ele>842.40002441406</ele>
        <time>2019-10-10T10:39:13Z</time>
      </trkpt>
      <trkpt lat="44.82687" lon="5.39464">
        <ele>841.20001220703</ele>
        <time>2019-10-10T10:39:16Z</time>
      </trkpt>
      <trkpt lat="44.82703" lon="5.39471">
        <ele>840</ele>
        <time>2019-10-10T10:39:18Z</time>
      </trkpt>
      <trkpt lat="44.82745" lon="5.39488">
        <ele>837.79998779297</ele>
        <time>2019-10-10T10:39:23Z</time>
      </trkpt>
      <trkpt lat="44.82778" lon="5.39501">
        <ele>835.59997558594</ele>
        <time>2019-10-10T10:39:27Z</time>
      </trkpt>
      <trkpt lat="44.82809" lon="5.39519">
        <ele>833.40002441406</ele>
        <time>2019-10-10T10:39:31Z</time>
      </trkpt>
      <trkpt lat="44.8282" lon="5.39538">
        <ele>832.79998779297</ele>
        <time>2019-10-10T10:39:33Z</time>
      </trkpt>
      <trkpt lat="44.82786" lon="5.3959">
        <ele>829.59997558594</ele>
        <time>2019-10-10T10:39:39Z</time>
      </trkpt>
      <trkpt lat="44.82768" lon="5.39603">
        <ele>828</ele>
        <time>2019-10-10T10:39:41Z</time>
      </trkpt>
      <trkpt lat="44.82723" lon="5.39648">
        <ele>825</ele>
        <time>2019-10-10T10:39:46Z</time>
      </trkpt>
      <trkpt lat="44.82673" lon="5.39679">
        <ele>821.79998779297</ele>
        <time>2019-10-10T10:39:51Z</time>
      </trkpt>
      <trkpt lat="44.82643" lon="5.39704">
        <ele>820.20001220703</ele>
        <time>2019-10-10T10:39:54Z</time>
      </trkpt>
      <trkpt lat="44.82616" lon="5.39742">
        <ele>818.40002441406</ele>
        <time>2019-10-10T10:39:58Z</time>
      </trkpt>
      <trkpt lat="44.82585" lon="5.39768">
        <ele>817</ele>
        <time>2019-10-10T10:40:01Z</time>
      </trkpt>
      <trkpt lat="44.82566" lon="5.39784">
        <ele>815.40002441406</ele>
        <time>2019-10-10T10:40:04Z</time>
      </trkpt>
      <trkpt lat="44.82561" lon="5.39781">
        <ele>814.20001220703</ele>
        <time>2019-10-10T10:40:06Z</time>
      </trkpt>
      <trkpt lat="44.82563" lon="5.39756">
        <ele>812.40002441406</ele>
        <time>2019-10-10T10:40:10Z</time>
      </trkpt>
      <trkpt lat="44.82585" lon="5.39745">
        <ele>811.40002441406</ele>
        <time>2019-10-10T10:40:13Z</time>
      </trkpt>
      <trkpt lat="44.82605" lon="5.39733">
        <ele>810.59997558594</ele>
        <time>2019-10-10T10:40:16Z</time>
      </trkpt>
      <trkpt lat="44.82616" lon="5.39719">
        <ele>810.40002441406</ele>
        <time>2019-10-10T10:40:18Z</time>
      </trkpt>
      <trkpt lat="44.82647" lon="5.39666">
        <ele>808</ele>
        <time>2019-10-10T10:40:24Z</time>
      </trkpt>
      <trkpt lat="44.82674" lon="5.39639">
        <ele>806.40002441406</ele>
        <time>2019-10-10T10:40:28Z</time>
      </trkpt>
      <trkpt lat="44.82709" lon="5.39614">
        <ele>804.59997558594</ele>
        <time>2019-10-10T10:40:33Z</time>
      </trkpt>
      <trkpt lat="44.82726" lon="5.39576">
        <ele>801.79998779297</ele>
        <time>2019-10-10T10:40:37Z</time>
      </trkpt>
      <trkpt lat="44.82718" lon="5.39553">
        <ele>800.59997558594</ele>
        <time>2019-10-10T10:40:40Z</time>
      </trkpt>
      <trkpt lat="44.82699" lon="5.39538">
        <ele>799.20001220703</ele>
        <time>2019-10-10T10:40:43Z</time>
      </trkpt>
      <trkpt lat="44.82672" lon="5.39525">
        <ele>797.59997558594</ele>
        <time>2019-10-10T10:40:46Z</time>
      </trkpt>
      <trkpt lat="44.82642" lon="5.39516">
        <ele>796.20001220703</ele>
        <time>2019-10-10T10:40:49Z</time>
      </trkpt>
      <trkpt lat="44.82611" lon="5.39507">
        <ele>795.20001220703</ele>
        <time>2019-10-10T10:40:52Z</time>
      </trkpt>
      <trkpt lat="44.82566" lon="5.39495">
        <ele>793.20001220703</ele>
        <time>2019-10-10T10:40:56Z</time>
      </trkpt>
      <trkpt lat="44.82535" lon="5.39492">
        <ele>791.59997558594</ele>
        <time>2019-10-10T10:40:59Z</time>
      </trkpt>
      <trkpt lat="44.82484" lon="5.39481">
        <ele>789.40002441406</ele>
        <time>2019-10-10T10:41:04Z</time>
      </trkpt>
      <trkpt lat="44.82433" lon="5.3945">
        <ele>785.79998779297</ele>
        <time>2019-10-10T10:41:09Z</time>
      </trkpt>
      <trkpt lat="44.82369" lon="5.39421">
        <ele>781.59997558594</ele>
        <time>2019-10-10T10:41:15Z</time>
      </trkpt>
      <trkpt lat="44.82325" lon="5.39406">
        <ele>779.40002441406</ele>
        <time>2019-10-10T10:41:19Z</time>
      </trkpt>
      <trkpt lat="44.82294" lon="5.39386">
        <ele>777</ele>
        <time>2019-10-10T10:41:22Z</time>
      </trkpt>
      <trkpt lat="44.82276" lon="5.3937">
        <ele>775.59997558594</ele>
        <time>2019-10-10T10:41:24Z</time>
      </trkpt>
      <trkpt lat="44.82227" lon="5.39326">
        <ele>772</ele>
        <time>2019-10-10T10:41:29Z</time>
      </trkpt>
      <trkpt lat="44.8221" lon="5.39303">
        <ele>770.59997558594</ele>
        <time>2019-10-10T10:41:31Z</time>
      </trkpt>
      <trkpt lat="44.82179" lon="5.39232">
        <ele>766.79998779297</ele>
        <time>2019-10-10T10:41:36Z</time>
      </trkpt>
      <trkpt lat="44.82162" lon="5.39176">
        <ele>761.79998779297</ele>
        <time>2019-10-10T10:41:42Z</time>
      </trkpt>
      <trkpt lat="44.82147" lon="5.39171">
        <ele>759.79998779297</ele>
        <time>2019-10-10T10:41:46Z</time>
      </trkpt>
      <trkpt lat="44.82158" lon="5.3921">
        <ele>757.79998779297</ele>
        <time>2019-10-10T10:41:50Z</time>
      </trkpt>
      <trkpt lat="44.82165" lon="5.39229">
        <ele>757.20001220703</ele>
        <time>2019-10-10T10:41:52Z</time>
      </trkpt>
      <trkpt lat="44.82181" lon="5.39289">
        <ele>755.79998779297</ele>
        <time>2019-10-10T10:41:57Z</time>
      </trkpt>
      <trkpt lat="44.82193" lon="5.3934">
        <ele>754.40002441406</ele>
        <time>2019-10-10T10:42:01Z</time>
      </trkpt>
      <trkpt lat="44.82214" lon="5.39383">
        <ele>752.59997558594</ele>
        <time>2019-10-10T10:42:05Z</time>
      </trkpt>
      <trkpt lat="44.82236" lon="5.39407">
        <ele>751</ele>
        <time>2019-10-10T10:42:08Z</time>
      </trkpt>
      <trkpt lat="44.82291" lon="5.3946">
        <ele>747.59997558594</ele>
        <time>2019-10-10T10:42:15Z</time>
      </trkpt>
      <trkpt lat="44.82338" lon="5.3949">
        <ele>745.40002441406</ele>
        <time>2019-10-10T10:42:20Z</time>
      </trkpt>
      <trkpt lat="44.82389" lon="5.39512">
        <ele>743.20001220703</ele>
        <time>2019-10-10T10:42:26Z</time>
      </trkpt>
      <trkpt lat="44.824" lon="5.39516">
        <ele>742.79998779297</ele>
        <time>2019-10-10T10:42:28Z</time>
      </trkpt>
      <trkpt lat="44.82388" lon="5.39536">
        <ele>739.79998779297</ele>
        <time>2019-10-10T10:42:34Z</time>
      </trkpt>
      <trkpt lat="44.8237" lon="5.39524">
        <ele>739</ele>
        <time>2019-10-10T10:42:38Z</time>
      </trkpt>
      <trkpt lat="44.82331" lon="5.3951">
        <ele>737.40002441406</ele>
        <time>2019-10-10T10:42:43Z</time>
      </trkpt>
      <trkpt lat="44.82291" lon="5.39494">
        <ele>736</ele>
        <time>2019-10-10T10:42:47Z</time>
      </trkpt>
      <trkpt lat="44.82263" lon="5.39484">
        <ele>735</ele>
        <time>2019-10-10T10:42:50Z</time>
      </trkpt>
      <trkpt lat="44.82221" lon="5.39474">
        <ele>732.59997558594</ele>
        <time>2019-10-10T10:42:54Z</time>
      </trkpt>
      <trkpt lat="44.822" lon="5.39478">
        <ele>731.20001220703</ele>
        <time>2019-10-10T10:42:56Z</time>
      </trkpt>
      <trkpt lat="44.82161" lon="5.39497">
        <ele>729.20001220703</ele>
        <time>2019-10-10T10:43:00Z</time>
      </trkpt>
      <trkpt lat="44.82135" lon="5.39514">
        <ele>728</ele>
        <time>2019-10-10T10:43:03Z</time>
      </trkpt>
      <trkpt lat="44.82084" lon="5.3953">
        <ele>724.79998779297</ele>
        <time>2019-10-10T10:43:08Z</time>
      </trkpt>
      <trkpt lat="44.82064" lon="5.39527">
        <ele>723.40002441406</ele>
        <time>2019-10-10T10:43:10Z</time>
      </trkpt>
      <trkpt lat="44.82028" lon="5.39501">
        <ele>720.59997558594</ele>
        <time>2019-10-10T10:43:14Z</time>
      </trkpt>
      <trkpt lat="44.82022" lon="5.39486">
        <ele>719.40002441406</ele>
        <time>2019-10-10T10:43:16Z</time>
      </trkpt>
      <trkpt lat="44.82033" lon="5.39447">
        <ele>715.40002441406</ele>
        <time>2019-10-10T10:43:21Z</time>
      </trkpt>
      <trkpt lat="44.82048" lon="5.39436">
        <ele>713.59997558594</ele>
        <time>2019-10-10T10:43:23Z</time>
      </trkpt>
      <trkpt lat="44.82079" lon="5.39401">
        <ele>711.79998779297</ele>
        <time>2019-10-10T10:43:27Z</time>
      </trkpt>
      <trkpt lat="44.82085" lon="5.39377">
        <ele>710.59997558594</ele>
        <time>2019-10-10T10:43:29Z</time>
      </trkpt>
      <trkpt lat="44.82081" lon="5.39348">
        <ele>709</ele>
        <time>2019-10-10T10:43:31Z</time>
      </trkpt>
      <trkpt lat="44.82064" lon="5.39298">
        <ele>706.20001220703</ele>
        <time>2019-10-10T10:43:35Z</time>
      </trkpt>
      <trkpt lat="44.82051" lon="5.39281">
        <ele>704.79998779297</ele>
        <time>2019-10-10T10:43:37Z</time>
      </trkpt>
      <trkpt lat="44.82006" lon="5.39246">
        <ele>701</ele>
        <time>2019-10-10T10:43:42Z</time>
      </trkpt>
      <trkpt lat="44.81995" lon="5.39225">
        <ele>699.40002441406</ele>
        <time>2019-10-10T10:43:44Z</time>
      </trkpt>
      <trkpt lat="44.81965" lon="5.39193">
        <ele>694.79998779297</ele>
        <time>2019-10-10T10:43:50Z</time>
      </trkpt>
      <trkpt lat="44.81949" lon="5.39204">
        <ele>694</ele>
        <time>2019-10-10T10:43:52Z</time>
      </trkpt>
      <trkpt lat="44.81884" lon="5.39259">
        <ele>689.20001220703</ele>
        <time>2019-10-10T10:43:59Z</time>
      </trkpt>
      <trkpt lat="44.81862" lon="5.3927">
        <ele>688.20001220703</ele>
        <time>2019-10-10T10:44:01Z</time>
      </trkpt>
      <trkpt lat="44.81826" lon="5.39274">
        <ele>686.59997558594</ele>
        <time>2019-10-10T10:44:04Z</time>
      </trkpt>
      <trkpt lat="44.81789" lon="5.39269">
        <ele>684.79998779297</ele>
        <time>2019-10-10T10:44:07Z</time>
      </trkpt>
      <trkpt lat="44.81719" lon="5.39253">
        <ele>680.79998779297</ele>
        <time>2019-10-10T10:44:13Z</time>
      </trkpt>
      <trkpt lat="44.81673" lon="5.39242">
        <ele>679</ele>
        <time>2019-10-10T10:44:17Z</time>
      </trkpt>
      <trkpt lat="44.8164" lon="5.39235">
        <ele>677.20001220703</ele>
        <time>2019-10-10T10:44:20Z</time>
      </trkpt>
      <trkpt lat="44.81578" lon="5.39231">
        <ele>673.40002441406</ele>
        <time>2019-10-10T10:44:26Z</time>
      </trkpt>
      <trkpt lat="44.81531" lon="5.39237">
        <ele>670.40002441406</ele>
        <time>2019-10-10T10:44:30Z</time>
      </trkpt>
      <trkpt lat="44.81475" lon="5.39246">
        <ele>666.79998779297</ele>
        <time>2019-10-10T10:44:35Z</time>
      </trkpt>
      <trkpt lat="44.81432" lon="5.39255">
        <ele>664.40002441406</ele>
        <time>2019-10-10T10:44:39Z</time>
      </trkpt>
      <trkpt lat="44.8138" lon="5.39262">
        <ele>661.59997558594</ele>
        <time>2019-10-10T10:44:44Z</time>
      </trkpt>
      <trkpt lat="44.81356" lon="5.39234">
        <ele>659.40002441406</ele>
        <time>2019-10-10T10:44:48Z</time>
      </trkpt>
      <trkpt lat="44.81336" lon="5.39223">
        <ele>657.20001220703</ele>
        <time>2019-10-10T10:44:51Z</time>
      </trkpt>
      <trkpt lat="44.81325" lon="5.39227">
        <ele>655.79998779297</ele>
        <time>2019-10-10T10:44:53Z</time>
      </trkpt>
      <trkpt lat="44.81292" lon="5.39268">
        <ele>653.40002441406</ele>
        <time>2019-10-10T10:44:57Z</time>
      </trkpt>
      <trkpt lat="44.81261" lon="5.39307">
        <ele>650.20001220703</ele>
        <time>2019-10-10T10:45:01Z</time>
      </trkpt>
      <trkpt lat="44.81235" lon="5.39366">
        <ele>646.59997558594</ele>
        <time>2019-10-10T10:45:06Z</time>
      </trkpt>
      <trkpt lat="44.81207" lon="5.39427">
        <ele>644.20001220703</ele>
        <time>2019-10-10T10:45:11Z</time>
      </trkpt>
      <trkpt lat="44.81153" lon="5.39423">
        <ele>641.59997558594</ele>
        <time>2019-10-10T10:45:16Z</time>
      </trkpt>
      <trkpt lat="44.81118" lon="5.39409">
        <ele>640</ele>
        <time>2019-10-10T10:45:19Z</time>
      </trkpt>
      <trkpt lat="44.81076" lon="5.39392">
        <ele>637.40002441406</ele>
        <time>2019-10-10T10:45:23Z</time>
      </trkpt>
      <trkpt lat="44.81028" lon="5.39383">
        <ele>635.79998779297</ele>
        <time>2019-10-10T10:45:27Z</time>
      </trkpt>
      <trkpt lat="44.80995" lon="5.39382">
        <ele>633.79998779297</ele>
        <time>2019-10-10T10:45:30Z</time>
      </trkpt>
      <trkpt lat="44.80931" lon="5.39372">
        <ele>630</ele>
        <time>2019-10-10T10:45:36Z</time>
      </trkpt>
      <trkpt lat="44.80877" lon="5.39356">
        <ele>626.59997558594</ele>
        <time>2019-10-10T10:45:41Z</time>
      </trkpt>
      <trkpt lat="44.80825" lon="5.39354">
        <ele>623.79998779297</ele>
        <time>2019-10-10T10:45:46Z</time>
      </trkpt>
      <trkpt lat="44.80804" lon="5.39341">
        <ele>622.40002441406</ele>
        <time>2019-10-10T10:45:48Z</time>
      </trkpt>
      <trkpt lat="44.80761" lon="5.39311">
        <ele>620.20001220703</ele>
        <time>2019-10-10T10:45:52Z</time>
      </trkpt>
      <trkpt lat="44.80744" lon="5.39304">
        <ele>618.79998779297</ele>
        <time>2019-10-10T10:45:54Z</time>
      </trkpt>
      <trkpt lat="44.80692" lon="5.39298">
        <ele>616</ele>
        <time>2019-10-10T10:45:59Z</time>
      </trkpt>
      <trkpt lat="44.8068" lon="5.39274">
        <ele>614.79998779297</ele>
        <time>2019-10-10T10:46:01Z</time>
      </trkpt>
      <trkpt lat="44.80659" lon="5.39225">
        <ele>612.40002441406</ele>
        <time>2019-10-10T10:46:05Z</time>
      </trkpt>
      <trkpt lat="44.80648" lon="5.39169">
        <ele>609.40002441406</ele>
        <time>2019-10-10T10:46:09Z</time>
      </trkpt>
      <trkpt lat="44.80642" lon="5.39128">
        <ele>608.20001220703</ele>
        <time>2019-10-10T10:46:12Z</time>
      </trkpt>
      <trkpt lat="44.80652" lon="5.39088">
        <ele>606.40002441406</ele>
        <time>2019-10-10T10:46:15Z</time>
      </trkpt>
      <trkpt lat="44.80658" lon="5.3907">
        <ele>604.79998779297</ele>
        <time>2019-10-10T10:46:18Z</time>
      </trkpt>
      <trkpt lat="44.80654" lon="5.39053">
        <ele>603</ele>
        <time>2019-10-10T10:46:21Z</time>
      </trkpt>
      <trkpt lat="44.8064" lon="5.39041">
        <ele>602.20001220703</ele>
        <time>2019-10-10T10:46:23Z</time>
      </trkpt>
      <trkpt lat="44.80612" lon="5.39052">
        <ele>600.59997558594</ele>
        <time>2019-10-10T10:46:26Z</time>
      </trkpt>
      <trkpt lat="44.80584" lon="5.39068">
        <ele>599</ele>
        <time>2019-10-10T10:46:29Z</time>
      </trkpt>
      <trkpt lat="44.80548" lon="5.39094">
        <ele>597.20001220703</ele>
        <time>2019-10-10T10:46:33Z</time>
      </trkpt>
      <trkpt lat="44.80505" lon="5.39112">
        <ele>595</ele>
        <time>2019-10-10T10:46:37Z</time>
      </trkpt>
      <trkpt lat="44.80463" lon="5.39111">
        <ele>592.20001220703</ele>
        <time>2019-10-10T10:46:41Z</time>
      </trkpt>
      <trkpt lat="44.80433" lon="5.3911">
        <ele>590.40002441406</ele>
        <time>2019-10-10T10:46:44Z</time>
      </trkpt>
      <trkpt lat="44.80381" lon="5.39092">
        <ele>588</ele>
        <time>2019-10-10T10:46:49Z</time>
      </trkpt>
      <trkpt lat="44.80364" lon="5.39068">
        <ele>587</ele>
        <time>2019-10-10T10:46:51Z</time>
      </trkpt>
      <trkpt lat="44.80339" lon="5.39032">
        <ele>584.79998779297</ele>
        <time>2019-10-10T10:46:54Z</time>
      </trkpt>
      <trkpt lat="44.80319" lon="5.38978">
        <ele>582</ele>
        <time>2019-10-10T10:46:58Z</time>
      </trkpt>
      <trkpt lat="44.80291" lon="5.38948">
        <ele>580.20001220703</ele>
        <time>2019-10-10T10:47:01Z</time>
      </trkpt>
      <trkpt lat="44.80269" lon="5.3891">
        <ele>577.59997558594</ele>
        <time>2019-10-10T10:47:04Z</time>
      </trkpt>
      <trkpt lat="44.80243" lon="5.38859">
        <ele>574</ele>
        <time>2019-10-10T10:47:08Z</time>
      </trkpt>
      <trkpt lat="44.80223" lon="5.38815">
        <ele>571.59997558594</ele>
        <time>2019-10-10T10:47:11Z</time>
      </trkpt>
      <trkpt lat="44.80217" lon="5.38783">
        <ele>570.79998779297</ele>
        <time>2019-10-10T10:47:13Z</time>
      </trkpt>
      <trkpt lat="44.80236" lon="5.38716">
        <ele>567.20001220703</ele>
        <time>2019-10-10T10:47:18Z</time>
      </trkpt>
      <trkpt lat="44.80235" lon="5.38695">
        <ele>566.20001220703</ele>
        <time>2019-10-10T10:47:20Z</time>
      </trkpt>
      <trkpt lat="44.80222" lon="5.38686">
        <ele>564.59997558594</ele>
        <time>2019-10-10T10:47:23Z</time>
      </trkpt>
      <trkpt lat="44.80211" lon="5.38685">
        <ele>563.20001220703</ele>
        <time>2019-10-10T10:47:25Z</time>
      </trkpt>
      <trkpt lat="44.80148" lon="5.38686">
        <ele>560.20001220703</ele>
        <time>2019-10-10T10:47:31Z</time>
      </trkpt>
      <trkpt lat="44.80109" lon="5.38663">
        <ele>557.59997558594</ele>
        <time>2019-10-10T10:47:35Z</time>
      </trkpt>
      <trkpt lat="44.80089" lon="5.38646">
        <ele>556.40002441406</ele>
        <time>2019-10-10T10:47:37Z</time>
      </trkpt>
      <trkpt lat="44.80031" lon="5.38586">
        <ele>553.59997558594</ele>
        <time>2019-10-10T10:47:43Z</time>
      </trkpt>
      <trkpt lat="44.7999" lon="5.38539">
        <ele>550.20001220703</ele>
        <time>2019-10-10T10:47:48Z</time>
      </trkpt>
      <trkpt lat="44.79958" lon="5.38502">
        <ele>546.40002441406</ele>
        <time>2019-10-10T10:47:53Z</time>
      </trkpt>
      <trkpt lat="44.79937" lon="5.38479">
        <ele>544.40002441406</ele>
        <time>2019-10-10T10:47:57Z</time>
      </trkpt>
      <trkpt lat="44.79916" lon="5.38438">
        <ele>541</ele>
        <time>2019-10-10T10:48:03Z</time>
      </trkpt>
      <trkpt lat="44.79911" lon="5.38426">
        <ele>540.59997558594</ele>
        <time>2019-10-10T10:48:05Z</time>
      </trkpt>
      <trkpt lat="44.79893" lon="5.38401">
        <ele>538.79998779297</ele>
        <time>2019-10-10T10:48:10Z</time>
      </trkpt>
      <trkpt lat="44.79877" lon="5.38383">
        <ele>538.20001220703</ele>
        <time>2019-10-10T10:48:13Z</time>
      </trkpt>
      <trkpt lat="44.79848" lon="5.38356">
        <ele>537.20001220703</ele>
        <time>2019-10-10T10:48:19Z</time>
      </trkpt>
      <trkpt lat="44.79827" lon="5.38343">
        <ele>536</ele>
        <time>2019-10-10T10:48:23Z</time>
      </trkpt>
      <trkpt lat="44.7979" lon="5.38329">
        <ele>534.20001220703</ele>
        <time>2019-10-10T10:48:28Z</time>
      </trkpt>
      <trkpt lat="44.79758" lon="5.3832">
        <ele>533</ele>
        <time>2019-10-10T10:48:32Z</time>
      </trkpt>
      <trkpt lat="44.79714" lon="5.3831">
        <ele>530.59997558594</ele>
        <time>2019-10-10T10:48:37Z</time>
      </trkpt>
      <trkpt lat="44.79692" lon="5.38306">
        <ele>529.40002441406</ele>
        <time>2019-10-10T10:48:39Z</time>
      </trkpt>
      <trkpt lat="44.79658" lon="5.38298">
        <ele>527</ele>
        <time>2019-10-10T10:48:43Z</time>
      </trkpt>
      <trkpt lat="44.79596" lon="5.38294">
        <ele>521.79998779297</ele>
        <time>2019-10-10T10:48:50Z</time>
      </trkpt>
      <trkpt lat="44.79536" lon="5.38298">
        <ele>519</ele>
        <time>2019-10-10T10:48:57Z</time>
      </trkpt>
      <trkpt lat="44.79512" lon="5.38277">
        <ele>517.40002441406</ele>
        <time>2019-10-10T10:49:01Z</time>
      </trkpt>
      <trkpt lat="44.79494" lon="5.38218">
        <ele>516.20001220703</ele>
        <time>2019-10-10T10:49:08Z</time>
      </trkpt>
      <trkpt lat="44.7947" lon="5.38166">
        <ele>516.79998779297</ele>
        <time>2019-10-10T10:49:16Z</time>
      </trkpt>
      <trkpt lat="44.79462" lon="5.38146">
        <ele>517.20001220703</ele>
        <time>2019-10-10T10:49:20Z</time>
      </trkpt>
      <trkpt lat="44.79455" lon="5.38121">
        <ele>517.79998779297</ele>
        <time>2019-10-10T10:49:25Z</time>
      </trkpt>
      <trkpt lat="44.79444" lon="5.38084">
        <ele>518.20001220703</ele>
        <time>2019-10-10T10:49:32Z</time>
      </trkpt>
      <trkpt lat="44.79424" lon="5.38014">
        <ele>520</ele>
        <time>2019-10-10T10:49:45Z</time>
      </trkpt>
      <trkpt lat="44.79415" lon="5.37968">
        <ele>520.79998779297</ele>
        <time>2019-10-10T10:49:53Z</time>
      </trkpt>
      <trkpt lat="44.79414" lon="5.37883">
        <ele>522.20001220703</ele>
        <time>2019-10-10T10:50:08Z</time>
      </trkpt>
      <trkpt lat="44.79414" lon="5.3783">
        <ele>523</ele>
        <time>2019-10-10T10:50:17Z</time>
      </trkpt>
      <trkpt lat="44.79411" lon="5.37772">
        <ele>524</ele>
        <time>2019-10-10T10:50:27Z</time>
      </trkpt>
      <trkpt lat="44.79406" lon="5.37729">
        <ele>525.20001220703</ele>
        <time>2019-10-10T10:50:35Z</time>
      </trkpt>
      <trkpt lat="44.79399" lon="5.3769">
        <ele>526</ele>
        <time>2019-10-10T10:50:42Z</time>
      </trkpt>
      <trkpt lat="44.79385" lon="5.3766">
        <ele>526.79998779297</ele>
        <time>2019-10-10T10:50:48Z</time>
      </trkpt>
      <trkpt lat="44.79372" lon="5.37613">
        <ele>527.59997558594</ele>
        <time>2019-10-10T10:50:56Z</time>
      </trkpt>
      <trkpt lat="44.79355" lon="5.37511">
        <ele>529.20001220703</ele>
        <time>2019-10-10T10:51:13Z</time>
      </trkpt>
      <trkpt lat="44.79348" lon="5.37466">
        <ele>530.20001220703</ele>
        <time>2019-10-10T10:51:20Z</time>
      </trkpt>
      <trkpt lat="44.79334" lon="5.3732">
        <ele>530.59997558594</ele>
        <time>2019-10-10T10:51:38Z</time>
      </trkpt>
      <trkpt lat="44.79327" lon="5.37263">
        <ele>530.40002441406</ele>
        <time>2019-10-10T10:51:44Z</time>
      </trkpt>
      <trkpt lat="44.79309" lon="5.37185">
        <ele>529.79998779297</ele>
        <time>2019-10-10T10:51:52Z</time>
      </trkpt>
      <trkpt lat="44.79289" lon="5.37129">
        <ele>529.20001220703</ele>
        <time>2019-10-10T10:51:58Z</time>
      </trkpt>
      <trkpt lat="44.79252" lon="5.3706">
        <ele>528.59997558594</ele>
        <time>2019-10-10T10:52:06Z</time>
      </trkpt>
      <trkpt lat="44.79211" lon="5.36991">
        <ele>527.79998779297</ele>
        <time>2019-10-10T10:52:14Z</time>
      </trkpt>
      <trkpt lat="44.79138" lon="5.36902">
        <ele>526.59997558594</ele>
        <time>2019-10-10T10:52:26Z</time>
      </trkpt>
      <trkpt lat="44.79083" lon="5.36835">
        <ele>525.59997558594</ele>
        <time>2019-10-10T10:52:35Z</time>
      </trkpt>
      <trkpt lat="44.79058" lon="5.3679">
        <ele>524.59997558594</ele>
        <time>2019-10-10T10:52:40Z</time>
      </trkpt>
      <trkpt lat="44.79002" lon="5.36696">
        <ele>523.40002441406</ele>
        <time>2019-10-10T10:52:51Z</time>
      </trkpt>
      <trkpt lat="44.7898" lon="5.36679">
        <ele>523.20001220703</ele>
        <time>2019-10-10T10:52:54Z</time>
      </trkpt>
      <trkpt lat="44.7892" lon="5.36652">
        <ele>522.20001220703</ele>
        <time>2019-10-10T10:53:01Z</time>
      </trkpt>
      <trkpt lat="44.78877" lon="5.36631">
        <ele>520.20001220703</ele>
        <time>2019-10-10T10:53:06Z</time>
      </trkpt>
      <trkpt lat="44.78842" lon="5.36642">
        <ele>518.79998779297</ele>
        <time>2019-10-10T10:53:10Z</time>
      </trkpt>
      <trkpt lat="44.78806" lon="5.36654">
        <ele>518</ele>
        <time>2019-10-10T10:53:14Z</time>
      </trkpt>
      <trkpt lat="44.7875" lon="5.36658">
        <ele>515.59997558594</ele>
        <time>2019-10-10T10:53:20Z</time>
      </trkpt>
      <trkpt lat="44.78722" lon="5.36654">
        <ele>514</ele>
        <time>2019-10-10T10:53:23Z</time>
      </trkpt>
      <trkpt lat="44.78681" lon="5.36678">
        <ele>512.40002441406</ele>
        <time>2019-10-10T10:53:28Z</time>
      </trkpt>
      <trkpt lat="44.78661" lon="5.36713">
        <ele>510.79998779297</ele>
        <time>2019-10-10T10:53:31Z</time>
      </trkpt>
      <trkpt lat="44.78647" lon="5.36737">
        <ele>510</ele>
        <time>2019-10-10T10:53:33Z</time>
      </trkpt>
      <trkpt lat="44.78612" lon="5.36775">
        <ele>508.39999389648</ele>
        <time>2019-10-10T10:53:37Z</time>
      </trkpt>
      <trkpt lat="44.78594" lon="5.36786">
        <ele>507</ele>
        <time>2019-10-10T10:53:39Z</time>
      </trkpt>
      <trkpt lat="44.78541" lon="5.36816">
        <ele>504</ele>
        <time>2019-10-10T10:53:44Z</time>
      </trkpt>
      <trkpt lat="44.78524" lon="5.36835">
        <ele>502</ele>
        <time>2019-10-10T10:53:46Z</time>
      </trkpt>
      <trkpt lat="44.78498" lon="5.36873">
        <ele>499.20001220703</ele>
        <time>2019-10-10T10:53:50Z</time>
      </trkpt>
      <trkpt lat="44.7848" lon="5.36877">
        <ele>497.60000610352</ele>
        <time>2019-10-10T10:53:52Z</time>
      </trkpt>
      <trkpt lat="44.78453" lon="5.36843">
        <ele>494.20001220703</ele>
        <time>2019-10-10T10:53:56Z</time>
      </trkpt>
      <trkpt lat="44.78424" lon="5.3679">
        <ele>491</ele>
        <time>2019-10-10T10:54:01Z</time>
      </trkpt>
      <trkpt lat="44.78393" lon="5.3676">
        <ele>489</ele>
        <time>2019-10-10T10:54:05Z</time>
      </trkpt>
      <trkpt lat="44.78371" lon="5.36763">
        <ele>488.20001220703</ele>
        <time>2019-10-10T10:54:08Z</time>
      </trkpt>
      <trkpt lat="44.7835" lon="5.36779">
        <ele>487.79998779297</ele>
        <time>2019-10-10T10:54:11Z</time>
      </trkpt>
      <trkpt lat="44.78332" lon="5.36781">
        <ele>487.60000610352</ele>
        <time>2019-10-10T10:54:13Z</time>
      </trkpt>
      <trkpt lat="44.78277" lon="5.36753">
        <ele>486.20001220703</ele>
        <time>2019-10-10T10:54:19Z</time>
      </trkpt>
      <trkpt lat="44.78248" lon="5.36743">
        <ele>485.60000610352</ele>
        <time>2019-10-10T10:54:22Z</time>
      </trkpt>
      <trkpt lat="44.78228" lon="5.36734">
        <ele>485</ele>
        <time>2019-10-10T10:54:24Z</time>
      </trkpt>
      <trkpt lat="44.78175" lon="5.36707">
        <ele>482.60000610352</ele>
        <time>2019-10-10T10:54:29Z</time>
      </trkpt>
      <trkpt lat="44.78154" lon="5.36703">
        <ele>481.39999389648</ele>
        <time>2019-10-10T10:54:31Z</time>
      </trkpt>
      <trkpt lat="44.7811" lon="5.36694">
        <ele>478.60000610352</ele>
        <time>2019-10-10T10:54:35Z</time>
      </trkpt>
      <trkpt lat="44.78088" lon="5.36688">
        <ele>477.20001220703</ele>
        <time>2019-10-10T10:54:37Z</time>
      </trkpt>
      <trkpt lat="44.78036" lon="5.36671">
        <ele>473.60000610352</ele>
        <time>2019-10-10T10:54:42Z</time>
      </trkpt>
      <trkpt lat="44.77993" lon="5.36668">
        <ele>471.20001220703</ele>
        <time>2019-10-10T10:54:46Z</time>
      </trkpt>
      <trkpt lat="44.7794" lon="5.36656">
        <ele>467.20001220703</ele>
        <time>2019-10-10T10:54:51Z</time>
      </trkpt>
      <trkpt lat="44.77914" lon="5.36635">
        <ele>466</ele>
        <time>2019-10-10T10:54:54Z</time>
      </trkpt>
      <trkpt lat="44.77869" lon="5.36591">
        <ele>463</ele>
        <time>2019-10-10T10:54:59Z</time>
      </trkpt>
      <trkpt lat="44.77835" lon="5.36556">
        <ele>460.60000610352</ele>
        <time>2019-10-10T10:55:03Z</time>
      </trkpt>
      <trkpt lat="44.77794" lon="5.3653">
        <ele>457.39999389648</ele>
        <time>2019-10-10T10:55:07Z</time>
      </trkpt>
      <trkpt lat="44.7775" lon="5.36521">
        <ele>454.39999389648</ele>
        <time>2019-10-10T10:55:11Z</time>
      </trkpt>
      <trkpt lat="44.77729" lon="5.36516">
        <ele>452.79998779297</ele>
        <time>2019-10-10T10:55:13Z</time>
      </trkpt>
      <trkpt lat="44.77701" lon="5.36497">
        <ele>450.20001220703</ele>
        <time>2019-10-10T10:55:16Z</time>
      </trkpt>
      <trkpt lat="44.77664" lon="5.3647">
        <ele>449.20001220703</ele>
        <time>2019-10-10T10:55:20Z</time>
      </trkpt>
      <trkpt lat="44.77615" lon="5.36455">
        <ele>445</ele>
        <time>2019-10-10T10:55:24Z</time>
      </trkpt>
      <trkpt lat="44.77596" lon="5.36439">
        <ele>443.20001220703</ele>
        <time>2019-10-10T10:55:26Z</time>
      </trkpt>
      <trkpt lat="44.7756" lon="5.36399">
        <ele>439.79998779297</ele>
        <time>2019-10-10T10:55:30Z</time>
      </trkpt>
      <trkpt lat="44.77534" lon="5.36369">
        <ele>437.79998779297</ele>
        <time>2019-10-10T10:55:33Z</time>
      </trkpt>
      <trkpt lat="44.77499" lon="5.36329">
        <ele>434.39999389648</ele>
        <time>2019-10-10T10:55:37Z</time>
      </trkpt>
      <trkpt lat="44.77481" lon="5.36308">
        <ele>432.60000610352</ele>
        <time>2019-10-10T10:55:39Z</time>
      </trkpt>
      <trkpt lat="44.77415" lon="5.3627">
        <ele>428</ele>
        <time>2019-10-10T10:55:45Z</time>
      </trkpt>
      <trkpt lat="44.77379" lon="5.36258">
        <ele>425.39999389648</ele>
        <time>2019-10-10T10:55:48Z</time>
      </trkpt>
      <trkpt lat="44.77328" lon="5.36241">
        <ele>421.60000610352</ele>
        <time>2019-10-10T10:55:52Z</time>
      </trkpt>
      <trkpt lat="44.77292" lon="5.36231">
        <ele>419.20001220703</ele>
        <time>2019-10-10T10:55:55Z</time>
      </trkpt>
      <trkpt lat="44.77247" lon="5.36209">
        <ele>415.39999389648</ele>
        <time>2019-10-10T10:55:59Z</time>
      </trkpt>
      <trkpt lat="44.77156" lon="5.36142">
        <ele>406.79998779297</ele>
        <time>2019-10-10T10:56:08Z</time>
      </trkpt>
      <trkpt lat="44.7713" lon="5.36123">
        <ele>405.79998779297</ele>
        <time>2019-10-10T10:56:11Z</time>
      </trkpt>
      <trkpt lat="44.7709" lon="5.36106">
        <ele>403.20001220703</ele>
        <time>2019-10-10T10:56:15Z</time>
      </trkpt>
      <trkpt lat="44.77051" lon="5.36103">
        <ele>401.39999389648</ele>
        <time>2019-10-10T10:56:19Z</time>
      </trkpt>
      <trkpt lat="44.76928" lon="5.36137">
        <ele>398.20001220703</ele>
        <time>2019-10-10T10:56:34Z</time>
      </trkpt>
      <trkpt lat="44.76893" lon="5.36147">
        <ele>398.20001220703</ele>
        <time>2019-10-10T10:56:39Z</time>
      </trkpt>
      <trkpt lat="44.76865" lon="5.36155">
        <ele>398.60000610352</ele>
        <time>2019-10-10T10:56:44Z</time>
      </trkpt>
      <trkpt lat="44.7685" lon="5.3616">
        <ele>399.20001220703</ele>
        <time>2019-10-10T10:56:47Z</time>
      </trkpt>
      <trkpt lat="44.76821" lon="5.36176">
        <ele>400.79998779297</ele>
        <time>2019-10-10T10:56:54Z</time>
      </trkpt>
      <trkpt lat="44.76807" lon="5.36184">
        <ele>401.79998779297</ele>
        <time>2019-10-10T10:56:58Z</time>
      </trkpt>
      <trkpt lat="44.76751" lon="5.36216">
        <ele>403</ele>
        <time>2019-10-10T10:57:10Z</time>
      </trkpt>
      <trkpt lat="44.76737" lon="5.36225">
        <ele>403.20001220703</ele>
        <time>2019-10-10T10:57:15Z</time>
      </trkpt>
      <trkpt lat="44.76754" lon="5.36215">
        <ele>403.20001220703</ele>
        <time>2019-10-10T10:57:24Z</time>
      </trkpt>
      <trkpt lat="44.76755" lon="5.36214">
        <ele>403.20001220703</ele>
        <time>2019-10-10T10:57:27Z</time>
      </trkpt>
      <trkpt lat="44.76762" lon="5.3621">
        <ele>403.20001220703</ele>
        <time>2019-10-10T10:57:33Z</time>
      </trkpt>
      <trkpt lat="44.76775" lon="5.36202">
        <ele>403.39999389648</ele>
        <time>2019-10-10T10:57:43Z</time>
      </trkpt>
      <trkpt lat="44.76778" lon="5.36201">
        <ele>404.60000610352</ele>
        <time>2019-10-10T11:01:15Z</time>
      </trkpt>
      <trkpt lat="44.76761" lon="5.3621">
        <ele>404.39999389648</ele>
        <time>2019-10-10T11:01:22Z</time>
      </trkpt>
      <trkpt lat="44.7672" lon="5.36235">
        <ele>404.20001220703</ele>
        <time>2019-10-10T11:01:31Z</time>
      </trkpt>
      <trkpt lat="44.76676" lon="5.36256">
        <ele>404.20001220703</ele>
        <time>2019-10-10T11:01:39Z</time>
      </trkpt>
      <trkpt lat="44.76589" lon="5.36252">
        <ele>403.39999389648</ele>
        <time>2019-10-10T11:01:52Z</time>
      </trkpt>
      <trkpt lat="44.76529" lon="5.36247">
        <ele>402.60000610352</ele>
        <time>2019-10-10T11:02:03Z</time>
      </trkpt>
      <trkpt lat="44.76519" lon="5.36246">
        <ele>402.39999389648</ele>
        <time>2019-10-10T11:02:06Z</time>
      </trkpt>
      <trkpt lat="44.76454" lon="5.36239">
        <ele>402</ele>
        <time>2019-10-10T11:02:18Z</time>
      </trkpt>
      <trkpt lat="44.76401" lon="5.36233">
        <ele>401.79998779297</ele>
        <time>2019-10-10T11:02:27Z</time>
      </trkpt>
      <trkpt lat="44.76349" lon="5.36218">
        <ele>401</ele>
        <time>2019-10-10T11:02:36Z</time>
      </trkpt>
      <trkpt lat="44.76308" lon="5.36193">
        <ele>400.79998779297</ele>
        <time>2019-10-10T11:02:42Z</time>
      </trkpt>
      <trkpt lat="44.76279" lon="5.36174">
        <ele>400</ele>
        <time>2019-10-10T11:02:46Z</time>
      </trkpt>
      <trkpt lat="44.76216" lon="5.36131">
        <ele>397.79998779297</ele>
        <time>2019-10-10T11:02:54Z</time>
      </trkpt>
      <trkpt lat="44.76188" lon="5.36107">
        <ele>397</ele>
        <time>2019-10-10T11:02:58Z</time>
      </trkpt>
      <trkpt lat="44.76128" lon="5.36045">
        <ele>394.60000610352</ele>
        <time>2019-10-10T11:03:08Z</time>
      </trkpt>
      <trkpt lat="44.76103" lon="5.36021">
        <ele>393.79998779297</ele>
        <time>2019-10-10T11:03:12Z</time>
      </trkpt>
      <trkpt lat="44.76074" lon="5.36018">
        <ele>392.60000610352</ele>
        <time>2019-10-10T11:03:17Z</time>
      </trkpt>
      <trkpt lat="44.76057" lon="5.36035">
        <ele>392.39999389648</ele>
        <time>2019-10-10T11:03:20Z</time>
      </trkpt>
      <trkpt lat="44.76018" lon="5.36086">
        <ele>391.60000610352</ele>
        <time>2019-10-10T11:03:28Z</time>
      </trkpt>
      <trkpt lat="44.75989" lon="5.36124">
        <ele>390.60000610352</ele>
        <time>2019-10-10T11:03:34Z</time>
      </trkpt>
      <trkpt lat="44.75966" lon="5.36153">
        <ele>389.79998779297</ele>
        <time>2019-10-10T11:03:39Z</time>
      </trkpt>
      <trkpt lat="44.75955" lon="5.36167">
        <ele>389.60000610352</ele>
        <time>2019-10-10T11:03:43Z</time>
      </trkpt>
      <trkpt lat="44.7594" lon="5.36189">
        <ele>389.39999389648</ele>
        <time>2019-10-10T11:03:48Z</time>
      </trkpt>
      <trkpt lat="44.75928" lon="5.36212">
        <ele>389.39999389648</ele>
        <time>2019-10-10T11:03:52Z</time>
      </trkpt>
      <trkpt lat="44.7591" lon="5.36247">
        <ele>389.39999389648</ele>
        <time>2019-10-10T11:03:58Z</time>
      </trkpt>
      <trkpt lat="44.75877" lon="5.36313">
        <ele>389.60000610352</ele>
        <time>2019-10-10T11:04:09Z</time>
      </trkpt>
      <trkpt lat="44.75842" lon="5.36377">
        <ele>389.79998779297</ele>
        <time>2019-10-10T11:04:20Z</time>
      </trkpt>
      <trkpt lat="44.75785" lon="5.3648">
        <ele>390</ele>
        <time>2019-10-10T11:04:37Z</time>
      </trkpt>
      <trkpt lat="44.75742" lon="5.36552">
        <ele>391.39999389648</ele>
        <time>2019-10-10T11:04:51Z</time>
      </trkpt>
      <trkpt lat="44.7572" lon="5.3659">
        <ele>392.60000610352</ele>
        <time>2019-10-10T11:04:59Z</time>
      </trkpt>
      <trkpt lat="44.75705" lon="5.36615">
        <ele>393.39999389648</ele>
        <time>2019-10-10T11:05:05Z</time>
      </trkpt>
      <trkpt lat="44.75693" lon="5.36636">
        <ele>394.39999389648</ele>
        <time>2019-10-10T11:05:10Z</time>
      </trkpt>
      <trkpt lat="44.75674" lon="5.36668">
        <ele>395.20001220703</ele>
        <time>2019-10-10T11:05:17Z</time>
      </trkpt>
      <trkpt lat="44.75646" lon="5.36716">
        <ele>396.79998779297</ele>
        <time>2019-10-10T11:05:27Z</time>
      </trkpt>
      <trkpt lat="44.75628" lon="5.36747">
        <ele>397.79998779297</ele>
        <time>2019-10-10T11:05:35Z</time>
      </trkpt>
      <trkpt lat="44.75581" lon="5.36835">
        <ele>401</ele>
        <time>2019-10-10T11:05:56Z</time>
      </trkpt>
      <trkpt lat="44.75569" lon="5.36857">
        <ele>402</ele>
        <time>2019-10-10T11:06:02Z</time>
      </trkpt>
      <trkpt lat="44.75557" lon="5.36879">
        <ele>402.79998779297</ele>
        <time>2019-10-10T11:06:08Z</time>
      </trkpt>
      <trkpt lat="44.75536" lon="5.36909">
        <ele>404</ele>
        <time>2019-10-10T11:06:18Z</time>
      </trkpt>
      <trkpt lat="44.75531" lon="5.36918">
        <ele>404.60000610352</ele>
        <time>2019-10-10T11:06:22Z</time>
      </trkpt>
      <trkpt lat="44.75525" lon="5.36927">
        <ele>405</ele>
        <time>2019-10-10T11:06:27Z</time>
      </trkpt>
      <trkpt lat="44.75509" lon="5.36958">
        <ele>405.39999389648</ele>
        <time>2019-10-10T11:06:38Z</time>
      </trkpt>
      <trkpt lat="44.75481" lon="5.37011">
        <ele>406.20001220703</ele>
        <time>2019-10-10T11:06:54Z</time>
      </trkpt>
      <trkpt lat="44.75456" lon="5.37052">
        <ele>406.79998779297</ele>
        <time>2019-10-10T11:07:06Z</time>
      </trkpt>
      <trkpt lat="44.75438" lon="5.37083">
        <ele>407</ele>
        <time>2019-10-10T11:07:16Z</time>
      </trkpt>
      <trkpt lat="44.75426" lon="5.37103">
        <ele>407.39999389648</ele>
        <time>2019-10-10T11:07:22Z</time>
      </trkpt>
      <trkpt lat="44.75403" lon="5.37139">
        <ele>408.20001220703</ele>
        <time>2019-10-10T11:07:32Z</time>
      </trkpt>
      <trkpt lat="44.7539" lon="5.37165">
        <ele>408.79998779297</ele>
        <time>2019-10-10T11:07:39Z</time>
      </trkpt>
      <trkpt lat="44.75376" lon="5.372">
        <ele>409.79998779297</ele>
        <time>2019-10-10T11:07:51Z</time>
      </trkpt>
      <trkpt lat="44.75365" lon="5.37224">
        <ele>410.39999389648</ele>
        <time>2019-10-10T11:08:00Z</time>
      </trkpt>
      <trkpt lat="44.7536" lon="5.37242">
        <ele>410.39999389648</ele>
        <time>2019-10-10T11:08:08Z</time>
      </trkpt>
      <trkpt lat="44.75361" lon="5.37265">
        <ele>410.39999389648</ele>
        <time>2019-10-10T11:08:12Z</time>
      </trkpt>
      <trkpt lat="44.75362" lon="5.37229">
        <ele>410.20001220703</ele>
        <time>2019-10-10T11:08:19Z</time>
      </trkpt>
      <trkpt lat="44.7534" lon="5.37203">
        <ele>410.39999389648</ele>
        <time>2019-10-10T11:08:31Z</time>
      </trkpt>
      <trkpt lat="44.75327" lon="5.37189">
        <ele>410.39999389648</ele>
        <time>2019-10-10T11:08:36Z</time>
      </trkpt>
      <trkpt lat="44.7533" lon="5.37172">
        <ele>410.20001220703</ele>
        <time>2019-10-10T11:08:42Z</time>
      </trkpt>
      <trkpt lat="44.75334" lon="5.37165">
        <ele>410</ele>
        <time>2019-10-10T11:08:46Z</time>
      </trkpt>
      <trkpt lat="44.75313" lon="5.37131">
        <ele>410</ele>
        <time>2019-10-10T11:08:57Z</time>
      </trkpt>
      <trkpt lat="44.75296" lon="5.3711">
        <ele>409.60000610352</ele>
        <time>2019-10-10T11:09:04Z</time>
      </trkpt>
      <trkpt lat="44.75282" lon="5.37098">
        <ele>409.39999389648</ele>
        <time>2019-10-10T11:09:09Z</time>
      </trkpt>
      <trkpt lat="44.75255" lon="5.37096">
        <ele>408.39999389648</ele>
        <time>2019-10-10T11:09:21Z</time>
      </trkpt>
      <trkpt lat="44.75253" lon="5.37127">
        <ele>408.60000610352</ele>
        <time>2019-10-10T11:09:35Z</time>
      </trkpt>
      <trkpt lat="44.75251" lon="5.37137">
        <ele>408.60000610352</ele>
        <time>2019-10-10T11:09:42Z</time>
      </trkpt>
      <trkpt lat="44.75255" lon="5.37153">
        <ele>410.20001220703</ele>
        <time>2019-10-10T11:40:40Z</time>
      </trkpt>
      <trkpt lat="44.75249" lon="5.37141">
        <ele>410.39999389648</ele>
        <time>2019-10-10T11:40:56Z</time>
      </trkpt>
      <trkpt lat="44.75234" lon="5.37158">
        <ele>410.39999389648</ele>
        <time>2019-10-10T11:41:03Z</time>
      </trkpt>
      <trkpt lat="44.75215" lon="5.37174">
        <ele>410.20001220703</ele>
        <time>2019-10-10T11:41:14Z</time>
      </trkpt>
      <trkpt lat="44.75203" lon="5.37187">
        <ele>409.39999389648</ele>
        <time>2019-10-10T11:41:20Z</time>
      </trkpt>
      <trkpt lat="44.7519" lon="5.37191">
        <ele>408.79998779297</ele>
        <time>2019-10-10T11:41:25Z</time>
      </trkpt>
      <trkpt lat="44.75183" lon="5.3721">
        <ele>407.60000610352</ele>
        <time>2019-10-10T11:41:30Z</time>
      </trkpt>
      <trkpt lat="44.75188" lon="5.37249">
        <ele>405.39999389648</ele>
        <time>2019-10-10T11:41:38Z</time>
      </trkpt>
      <trkpt lat="44.75196" lon="5.37261">
        <ele>404.20001220703</ele>
        <time>2019-10-10T11:41:42Z</time>
      </trkpt>
      <trkpt lat="44.75213" lon="5.37276">
        <ele>402</ele>
        <time>2019-10-10T11:41:51Z</time>
      </trkpt>
      <trkpt lat="44.75219" lon="5.37289">
        <ele>401.20001220703</ele>
        <time>2019-10-10T11:41:55Z</time>
      </trkpt>
      <trkpt lat="44.75206" lon="5.37313">
        <ele>400.60000610352</ele>
        <time>2019-10-10T11:42:01Z</time>
      </trkpt>
      <trkpt lat="44.7519" lon="5.37298">
        <ele>399.60000610352</ele>
        <time>2019-10-10T11:42:06Z</time>
      </trkpt>
      <trkpt lat="44.75154" lon="5.37259">
        <ele>398.79998779297</ele>
        <time>2019-10-10T11:42:23Z</time>
      </trkpt>
      <trkpt lat="44.75143" lon="5.37255">
        <ele>399</ele>
        <time>2019-10-10T11:42:26Z</time>
      </trkpt>
      <trkpt lat="44.75151" lon="5.37267">
        <ele>398.60000610352</ele>
        <time>2019-10-10T11:42:30Z</time>
      </trkpt>
      <trkpt lat="44.75151" lon="5.37267">
        <ele>398.39999389648</ele>
        <time>2019-10-10T11:42:35Z</time>
      </trkpt>
      <trkpt lat="44.75151" lon="5.37256">
        <ele>398.20001220703</ele>
        <time>2019-10-10T11:42:40Z</time>
      </trkpt>
      <trkpt lat="44.75147" lon="5.3725">
        <ele>398</ele>
        <time>2019-10-10T11:42:43Z</time>
      </trkpt>
      <trkpt lat="44.75138" lon="5.37265">
        <ele>398</ele>
        <time>2019-10-10T11:42:45Z</time>
      </trkpt>
      <trkpt lat="44.75122" lon="5.37273">
        <ele>397.79998779297</ele>
        <time>2019-10-10T11:42:48Z</time>
      </trkpt>
      <trkpt lat="44.75059" lon="5.37298">
        <ele>395.79998779297</ele>
        <time>2019-10-10T11:42:58Z</time>
      </trkpt>
      <trkpt lat="44.75009" lon="5.37365">
        <ele>394.60000610352</ele>
        <time>2019-10-10T11:43:10Z</time>
      </trkpt>
      <trkpt lat="44.74968" lon="5.37418">
        <ele>394.39999389648</ele>
        <time>2019-10-10T11:43:18Z</time>
      </trkpt>
      <trkpt lat="44.7493" lon="5.37484">
        <ele>393.79998779297</ele>
        <time>2019-10-10T11:43:28Z</time>
      </trkpt>
      <trkpt lat="44.74926" lon="5.3751">
        <ele>394</ele>
        <time>2019-10-10T11:43:32Z</time>
      </trkpt>
      <trkpt lat="44.74921" lon="5.37539">
        <ele>394.79998779297</ele>
        <time>2019-10-10T11:43:37Z</time>
      </trkpt>
      <trkpt lat="44.74916" lon="5.37573">
        <ele>396.39999389648</ele>
        <time>2019-10-10T11:43:44Z</time>
      </trkpt>
      <trkpt lat="44.74897" lon="5.37624">
        <ele>397.39999389648</ele>
        <time>2019-10-10T11:43:54Z</time>
      </trkpt>
      <trkpt lat="44.74881" lon="5.37632">
        <ele>397</ele>
        <time>2019-10-10T11:44:00Z</time>
      </trkpt>
      <trkpt lat="44.74846" lon="5.37607">
        <ele>396.20001220703</ele>
        <time>2019-10-10T11:44:09Z</time>
      </trkpt>
      <trkpt lat="44.74817" lon="5.37594">
        <ele>396</ele>
        <time>2019-10-10T11:44:17Z</time>
      </trkpt>
      <trkpt lat="44.74801" lon="5.37587">
        <ele>396</ele>
        <time>2019-10-10T11:44:21Z</time>
      </trkpt>
      <trkpt lat="44.74774" lon="5.37585">
        <ele>395</ele>
        <time>2019-10-10T11:44:31Z</time>
      </trkpt>
      <trkpt lat="44.74768" lon="5.37587">
        <ele>394.39999389648</ele>
        <time>2019-10-10T11:45:42Z</time>
      </trkpt>
      <trkpt lat="44.74754" lon="5.37593">
        <ele>394.39999389648</ele>
        <time>2019-10-10T11:45:49Z</time>
      </trkpt>
      <trkpt lat="44.74729" lon="5.37611">
        <ele>395</ele>
        <time>2019-10-10T11:45:56Z</time>
      </trkpt>
      <trkpt lat="44.7472" lon="5.37627">
        <ele>395.79998779297</ele>
        <time>2019-10-10T11:46:00Z</time>
      </trkpt>
      <trkpt lat="44.74712" lon="5.37654">
        <ele>396</ele>
        <time>2019-10-10T11:46:05Z</time>
      </trkpt>
      <trkpt lat="44.74704" lon="5.37715">
        <ele>396</ele>
        <time>2019-10-10T11:46:15Z</time>
      </trkpt>
      <trkpt lat="44.74693" lon="5.37761">
        <ele>396.60000610352</ele>
        <time>2019-10-10T11:46:24Z</time>
      </trkpt>
      <trkpt lat="44.74676" lon="5.37923">
        <ele>399</ele>
        <time>2019-10-10T11:46:52Z</time>
      </trkpt>
      <trkpt lat="44.74666" lon="5.37976">
        <ele>399.79998779297</ele>
        <time>2019-10-10T11:47:01Z</time>
      </trkpt>
      <trkpt lat="44.7466" lon="5.37995">
        <ele>400</ele>
        <time>2019-10-10T11:47:05Z</time>
      </trkpt>
      <trkpt lat="44.74627" lon="5.38047">
        <ele>401.20001220703</ele>
        <time>2019-10-10T11:47:17Z</time>
      </trkpt>
      <trkpt lat="44.74589" lon="5.38084">
        <ele>402</ele>
        <time>2019-10-10T11:47:27Z</time>
      </trkpt>
      <trkpt lat="44.7451" lon="5.3809">
        <ele>404.39999389648</ele>
        <time>2019-10-10T11:47:45Z</time>
      </trkpt>
      <trkpt lat="44.74446" lon="5.38096">
        <ele>405.20001220703</ele>
        <time>2019-10-10T11:47:58Z</time>
      </trkpt>
      <trkpt lat="44.74339" lon="5.38148">
        <ele>406</ele>
        <time>2019-10-10T11:48:21Z</time>
      </trkpt>
      <trkpt lat="44.74259" lon="5.38152">
        <ele>406.20001220703</ele>
        <time>2019-10-10T11:48:36Z</time>
      </trkpt>
      <trkpt lat="44.74171" lon="5.38174">
        <ele>406.60000610352</ele>
        <time>2019-10-10T11:48:53Z</time>
      </trkpt>
      <trkpt lat="44.74149" lon="5.3818">
        <ele>406.39999389648</ele>
        <time>2019-10-10T11:48:57Z</time>
      </trkpt>
      <trkpt lat="44.74124" lon="5.3818">
        <ele>405.20001220703</ele>
        <time>2019-10-10T11:49:08Z</time>
      </trkpt>
      <trkpt lat="44.74094" lon="5.3818">
        <ele>404.39999389648</ele>
        <time>2019-10-10T11:49:16Z</time>
      </trkpt>
      <trkpt lat="44.74058" lon="5.38163">
        <ele>404.39999389648</ele>
        <time>2019-10-10T11:49:23Z</time>
      </trkpt>
      <trkpt lat="44.74038" lon="5.38153">
        <ele>404.79998779297</ele>
        <time>2019-10-10T11:49:27Z</time>
      </trkpt>
      <trkpt lat="44.74016" lon="5.38142">
        <ele>405.60000610352</ele>
        <time>2019-10-10T11:49:32Z</time>
      </trkpt>
      <trkpt lat="44.73993" lon="5.3813">
        <ele>406.79998779297</ele>
        <time>2019-10-10T11:49:39Z</time>
      </trkpt>
      <trkpt lat="44.7398" lon="5.38124">
        <ele>407.60000610352</ele>
        <time>2019-10-10T11:49:43Z</time>
      </trkpt>
      <trkpt lat="44.73945" lon="5.38114">
        <ele>409.79998779297</ele>
        <time>2019-10-10T11:49:54Z</time>
      </trkpt>
      <trkpt lat="44.73875" lon="5.38115">
        <ele>411.20001220703</ele>
        <time>2019-10-10T11:50:12Z</time>
      </trkpt>
      <trkpt lat="44.73818" lon="5.38129">
        <ele>411.39999389648</ele>
        <time>2019-10-10T11:50:26Z</time>
      </trkpt>
      <trkpt lat="44.73805" lon="5.38132">
        <ele>412.20001220703</ele>
        <time>2019-10-10T11:50:30Z</time>
      </trkpt>
      <trkpt lat="44.73785" lon="5.38137">
        <ele>414.20001220703</ele>
        <time>2019-10-10T11:50:37Z</time>
      </trkpt>
      <trkpt lat="44.73768" lon="5.38148">
        <ele>416.20001220703</ele>
        <time>2019-10-10T11:50:43Z</time>
      </trkpt>
      <trkpt lat="44.73732" lon="5.38182">
        <ele>419</ele>
        <time>2019-10-10T11:50:57Z</time>
      </trkpt>
      <trkpt lat="44.7372" lon="5.38193">
        <ele>420.20001220703</ele>
        <time>2019-10-10T11:51:02Z</time>
      </trkpt>
      <trkpt lat="44.7369" lon="5.38223">
        <ele>422.20001220703</ele>
        <time>2019-10-10T11:51:14Z</time>
      </trkpt>
      <trkpt lat="44.73674" lon="5.38238">
        <ele>423.20001220703</ele>
        <time>2019-10-10T11:51:21Z</time>
      </trkpt>
      <trkpt lat="44.73661" lon="5.3825">
        <ele>424.39999389648</ele>
        <time>2019-10-10T11:51:27Z</time>
      </trkpt>
      <trkpt lat="44.73631" lon="5.3828">
        <ele>426.79998779297</ele>
        <time>2019-10-10T11:51:40Z</time>
      </trkpt>
      <trkpt lat="44.73624" lon="5.38286">
        <ele>428.79998779297</ele>
        <time>2019-10-10T11:52:18Z</time>
      </trkpt>
      <trkpt lat="44.73613" lon="5.38296">
        <ele>429</ele>
        <time>2019-10-10T11:52:23Z</time>
      </trkpt>
      <trkpt lat="44.73597" lon="5.38308">
        <ele>429.20001220703</ele>
        <time>2019-10-10T11:52:29Z</time>
      </trkpt>
      <trkpt lat="44.73547" lon="5.3834">
        <ele>431.39999389648</ele>
        <time>2019-10-10T11:52:44Z</time>
      </trkpt>
      <trkpt lat="44.73512" lon="5.38363">
        <ele>431.20001220703</ele>
        <time>2019-10-10T11:52:52Z</time>
      </trkpt>
      <trkpt lat="44.73463" lon="5.38395">
        <ele>431</ele>
        <time>2019-10-10T11:53:01Z</time>
      </trkpt>
      <trkpt lat="44.73448" lon="5.38413">
        <ele>430.60000610352</ele>
        <time>2019-10-10T11:53:04Z</time>
      </trkpt>
      <trkpt lat="44.73406" lon="5.3846">
        <ele>429.60000610352</ele>
        <time>2019-10-10T11:53:11Z</time>
      </trkpt>
      <trkpt lat="44.73372" lon="5.38491">
        <ele>428.79998779297</ele>
        <time>2019-10-10T11:53:16Z</time>
      </trkpt>
      <trkpt lat="44.73335" lon="5.38511">
        <ele>427.20001220703</ele>
        <time>2019-10-10T11:53:21Z</time>
      </trkpt>
      <trkpt lat="44.73322" lon="5.38519">
        <ele>426.60000610352</ele>
        <time>2019-10-10T11:53:23Z</time>
      </trkpt>
      <trkpt lat="44.73322" lon="5.38537">
        <ele>425.79998779297</ele>
        <time>2019-10-10T11:53:26Z</time>
      </trkpt>
      <trkpt lat="44.73314" lon="5.38563">
        <ele>424.39999389648</ele>
        <time>2019-10-10T11:53:28Z</time>
      </trkpt>
      <trkpt lat="44.733" lon="5.38571">
        <ele>422.79998779297</ele>
        <time>2019-10-10T11:53:30Z</time>
      </trkpt>
      <trkpt lat="44.73252" lon="5.3858">
        <ele>415.79998779297</ele>
        <time>2019-10-10T11:53:37Z</time>
      </trkpt>
      <trkpt lat="44.73217" lon="5.38585">
        <ele>414</ele>
        <time>2019-10-10T11:53:42Z</time>
      </trkpt>
      <trkpt lat="44.73187" lon="5.38585">
        <ele>414</ele>
        <time>2019-10-10T11:53:48Z</time>
      </trkpt>
      <trkpt lat="44.73173" lon="5.38582">
        <ele>414</ele>
        <time>2019-10-10T11:53:51Z</time>
      </trkpt>
      <trkpt lat="44.73156" lon="5.38579">
        <ele>415</ele>
        <time>2019-10-10T11:53:56Z</time>
      </trkpt>
      <trkpt lat="44.73145" lon="5.38577">
        <ele>416.20001220703</ele>
        <time>2019-10-10T11:53:59Z</time>
      </trkpt>
      <trkpt lat="44.73122" lon="5.38576">
        <ele>418.60000610352</ele>
        <time>2019-10-10T11:54:05Z</time>
      </trkpt>
      <trkpt lat="44.73117" lon="5.38573">
        <ele>419.60000610352</ele>
        <time>2019-10-10T11:54:07Z</time>
      </trkpt>
      <trkpt lat="44.73078" lon="5.3856">
        <ele>422.20001220703</ele>
        <time>2019-10-10T11:54:18Z</time>
      </trkpt>
      <trkpt lat="44.73067" lon="5.38568">
        <ele>422</ele>
        <time>2019-10-10T11:54:21Z</time>
      </trkpt>
      <trkpt lat="44.73039" lon="5.38585">
        <ele>422.20001220703</ele>
        <time>2019-10-10T11:54:26Z</time>
      </trkpt>
      <trkpt lat="44.72991" lon="5.38598">
        <ele>420.39999389648</ele>
        <time>2019-10-10T11:54:32Z</time>
      </trkpt>
      <trkpt lat="44.72977" lon="5.38618">
        <ele>418.79998779297</ele>
        <time>2019-10-10T11:54:35Z</time>
      </trkpt>
      <trkpt lat="44.72955" lon="5.38668">
        <ele>418</ele>
        <time>2019-10-10T11:54:41Z</time>
      </trkpt>
      <trkpt lat="44.72948" lon="5.38688">
        <ele>418</ele>
        <time>2019-10-10T11:54:43Z</time>
      </trkpt>
      <trkpt lat="44.72916" lon="5.38716">
        <ele>417.39999389648</ele>
        <time>2019-10-10T11:54:48Z</time>
      </trkpt>
      <trkpt lat="44.7288" lon="5.38721">
        <ele>416.60000610352</ele>
        <time>2019-10-10T11:54:53Z</time>
      </trkpt>
      <trkpt lat="44.72824" lon="5.38729">
        <ele>417.60000610352</ele>
        <time>2019-10-10T11:55:04Z</time>
      </trkpt>
      <trkpt lat="44.72817" lon="5.38733">
        <ele>418</ele>
        <time>2019-10-10T11:55:07Z</time>
      </trkpt>
      <trkpt lat="44.72812" lon="5.38735">
        <ele>419</ele>
        <time>2019-10-10T11:55:18Z</time>
      </trkpt>
      <trkpt lat="44.72813" lon="5.38735">
        <ele>419.20001220703</ele>
        <time>2019-10-10T11:57:37Z</time>
      </trkpt>
      <trkpt lat="44.72803" lon="5.3874">
        <ele>419.39999389648</ele>
        <time>2019-10-10T11:57:44Z</time>
      </trkpt>
      <trkpt lat="44.72787" lon="5.38748">
        <ele>419.79998779297</ele>
        <time>2019-10-10T11:57:50Z</time>
      </trkpt>
      <trkpt lat="44.72768" lon="5.38758">
        <ele>420.60000610352</ele>
        <time>2019-10-10T11:57:56Z</time>
      </trkpt>
      <trkpt lat="44.72752" lon="5.38766">
        <ele>421.60000610352</ele>
        <time>2019-10-10T11:58:01Z</time>
      </trkpt>
      <trkpt lat="44.7273" lon="5.38777">
        <ele>422.60000610352</ele>
        <time>2019-10-10T11:58:07Z</time>
      </trkpt>
      <trkpt lat="44.72699" lon="5.38792">
        <ele>425.20001220703</ele>
        <time>2019-10-10T11:58:18Z</time>
      </trkpt>
      <trkpt lat="44.72676" lon="5.38804">
        <ele>426.79998779297</ele>
        <time>2019-10-10T11:58:27Z</time>
      </trkpt>
      <trkpt lat="44.72626" lon="5.38824">
        <ele>430.20001220703</ele>
        <time>2019-10-10T11:58:45Z</time>
      </trkpt>
      <trkpt lat="44.72589" lon="5.38835">
        <ele>431.79998779297</ele>
        <time>2019-10-10T11:58:57Z</time>
      </trkpt>
      <trkpt lat="44.72555" lon="5.38831">
        <ele>432.79998779297</ele>
        <time>2019-10-10T11:59:08Z</time>
      </trkpt>
      <trkpt lat="44.72529" lon="5.3882">
        <ele>434.20001220703</ele>
        <time>2019-10-10T11:59:17Z</time>
      </trkpt>
      <trkpt lat="44.72507" lon="5.38792">
        <ele>436.39999389648</ele>
        <time>2019-10-10T11:59:27Z</time>
      </trkpt>
      <trkpt lat="44.7249" lon="5.38761">
        <ele>438.20001220703</ele>
        <time>2019-10-10T11:59:37Z</time>
      </trkpt>
      <trkpt lat="44.72477" lon="5.38726">
        <ele>439.79998779297</ele>
        <time>2019-10-10T11:59:48Z</time>
      </trkpt>
      <trkpt lat="44.72448" lon="5.38707">
        <ele>442</ele>
        <time>2019-10-10T11:59:59Z</time>
      </trkpt>
      <trkpt lat="44.72415" lon="5.38732">
        <ele>442.39999389648</ele>
        <time>2019-10-10T12:00:09Z</time>
      </trkpt>
      <trkpt lat="44.72374" lon="5.38763">
        <ele>442.39999389648</ele>
        <time>2019-10-10T12:00:19Z</time>
      </trkpt>
      <trkpt lat="44.7236" lon="5.38773">
        <ele>442.60000610352</ele>
        <time>2019-10-10T12:00:23Z</time>
      </trkpt>
      <trkpt lat="44.72333" lon="5.38794">
        <ele>442.39999389648</ele>
        <time>2019-10-10T12:00:30Z</time>
      </trkpt>
      <trkpt lat="44.72313" lon="5.38801">
        <ele>442.39999389648</ele>
        <time>2019-10-10T12:00:35Z</time>
      </trkpt>
      <trkpt lat="44.7224" lon="5.38753">
        <ele>442.60000610352</ele>
        <time>2019-10-10T12:00:52Z</time>
      </trkpt>
      <trkpt lat="44.7221" lon="5.38748">
        <ele>442.60000610352</ele>
        <time>2019-10-10T12:00:57Z</time>
      </trkpt>
      <trkpt lat="44.722" lon="5.3873">
        <ele>442.39999389648</ele>
        <time>2019-10-10T12:01:01Z</time>
      </trkpt>
      <trkpt lat="44.72196" lon="5.38708">
        <ele>442.20001220703</ele>
        <time>2019-10-10T12:01:05Z</time>
      </trkpt>
      <trkpt lat="44.72191" lon="5.38682">
        <ele>442</ele>
        <time>2019-10-10T12:01:10Z</time>
      </trkpt>
      <trkpt lat="44.72167" lon="5.38686">
        <ele>443.39999389648</ele>
        <time>2019-10-10T12:01:17Z</time>
      </trkpt>
      <trkpt lat="44.72167" lon="5.38715">
        <ele>444</ele>
        <time>2019-10-10T12:01:23Z</time>
      </trkpt>
      <trkpt lat="44.72158" lon="5.3873">
        <ele>445</ele>
        <time>2019-10-10T12:01:28Z</time>
      </trkpt>
      <trkpt lat="44.72123" lon="5.38749">
        <ele>447.79998779297</ele>
        <time>2019-10-10T12:01:41Z</time>
      </trkpt>
      <trkpt lat="44.72123" lon="5.3876">
        <ele>448.79998779297</ele>
        <time>2019-10-10T12:01:46Z</time>
      </trkpt>
      <trkpt lat="44.72124" lon="5.38769">
        <ele>450.39999389648</ele>
        <time>2019-10-10T12:02:14Z</time>
      </trkpt>
      <trkpt lat="44.72124" lon="5.38779">
        <ele>451</ele>
        <time>2019-10-10T12:02:18Z</time>
      </trkpt>
      <trkpt lat="44.72126" lon="5.38794">
        <ele>451.20001220703</ele>
        <time>2019-10-10T12:02:24Z</time>
      </trkpt>
      <trkpt lat="44.72126" lon="5.38804">
        <ele>452</ele>
        <time>2019-10-10T12:02:28Z</time>
      </trkpt>
      <trkpt lat="44.72122" lon="5.38815">
        <ele>453.39999389648</ele>
        <time>2019-10-10T12:02:33Z</time>
      </trkpt>
      <trkpt lat="44.72115" lon="5.3883">
        <ele>455</ele>
        <time>2019-10-10T12:02:40Z</time>
      </trkpt>
      <trkpt lat="44.72109" lon="5.3884">
        <ele>456.39999389648</ele>
        <time>2019-10-10T12:02:45Z</time>
      </trkpt>
      <trkpt lat="44.72102" lon="5.3885">
        <ele>458</ele>
        <time>2019-10-10T12:02:51Z</time>
      </trkpt>
      <trkpt lat="44.72085" lon="5.38866">
        <ele>460.60000610352</ele>
        <time>2019-10-10T12:03:01Z</time>
      </trkpt>
      <trkpt lat="44.72062" lon="5.38875">
        <ele>464</ele>
        <time>2019-10-10T12:03:14Z</time>
      </trkpt>
      <trkpt lat="44.72049" lon="5.38875">
        <ele>465.20001220703</ele>
        <time>2019-10-10T12:03:20Z</time>
      </trkpt>
      <trkpt lat="44.72003" lon="5.38849">
        <ele>469.39999389648</ele>
        <time>2019-10-10T12:03:42Z</time>
      </trkpt>
      <trkpt lat="44.71993" lon="5.38849">
        <ele>470</ele>
        <time>2019-10-10T12:03:47Z</time>
      </trkpt>
      <trkpt lat="44.71966" lon="5.38846">
        <ele>470.60000610352</ele>
        <time>2019-10-10T12:03:57Z</time>
      </trkpt>
      <trkpt lat="44.71935" lon="5.38838">
        <ele>473.20001220703</ele>
        <time>2019-10-10T12:04:09Z</time>
      </trkpt>
      <trkpt lat="44.71921" lon="5.38834">
        <ele>474.20001220703</ele>
        <time>2019-10-10T12:04:15Z</time>
      </trkpt>
      <trkpt lat="44.71907" lon="5.38829">
        <ele>474.79998779297</ele>
        <time>2019-10-10T12:04:21Z</time>
      </trkpt>
      <trkpt lat="44.71896" lon="5.38825">
        <ele>476.39999389648</ele>
        <time>2019-10-10T12:04:27Z</time>
      </trkpt>
      <trkpt lat="44.71871" lon="5.3882">
        <ele>480.39999389648</ele>
        <time>2019-10-10T12:04:38Z</time>
      </trkpt>
      <trkpt lat="44.71845" lon="5.38816">
        <ele>482.79998779297</ele>
        <time>2019-10-10T12:04:49Z</time>
      </trkpt>
      <trkpt lat="44.71809" lon="5.38808">
        <ele>484.20001220703</ele>
        <time>2019-10-10T12:05:01Z</time>
      </trkpt>
      <trkpt lat="44.71785" lon="5.38802">
        <ele>484.20001220703</ele>
        <time>2019-10-10T12:05:05Z</time>
      </trkpt>
      <trkpt lat="44.71752" lon="5.38785">
        <ele>483.60000610352</ele>
        <time>2019-10-10T12:05:10Z</time>
      </trkpt>
      <trkpt lat="44.71739" lon="5.38778">
        <ele>482.79998779297</ele>
        <time>2019-10-10T12:05:12Z</time>
      </trkpt>
      <trkpt lat="44.71717" lon="5.38773">
        <ele>481.20001220703</ele>
        <time>2019-10-10T12:05:15Z</time>
      </trkpt>
      <trkpt lat="44.71703" lon="5.38774">
        <ele>480</ele>
        <time>2019-10-10T12:05:17Z</time>
      </trkpt>
      <trkpt lat="44.71648" lon="5.38802">
        <ele>476.79998779297</ele>
        <time>2019-10-10T12:05:25Z</time>
      </trkpt>
      <trkpt lat="44.71626" lon="5.38821">
        <ele>476.79998779297</ele>
        <time>2019-10-10T12:05:28Z</time>
      </trkpt>
      <trkpt lat="44.71575" lon="5.38864">
        <ele>474.39999389648</ele>
        <time>2019-10-10T12:05:35Z</time>
      </trkpt>
      <trkpt lat="44.71519" lon="5.38916">
        <ele>471</ele>
        <time>2019-10-10T12:05:43Z</time>
      </trkpt>
      <trkpt lat="44.71495" lon="5.3896">
        <ele>470.39999389648</ele>
        <time>2019-10-10T12:05:47Z</time>
      </trkpt>
      <trkpt lat="44.71447" lon="5.39017">
        <ele>468.20001220703</ele>
        <time>2019-10-10T12:05:53Z</time>
      </trkpt>
      <trkpt lat="44.71414" lon="5.39057">
        <ele>466.39999389648</ele>
        <time>2019-10-10T12:05:57Z</time>
      </trkpt>
      <trkpt lat="44.71365" lon="5.39115">
        <ele>463.39999389648</ele>
        <time>2019-10-10T12:06:03Z</time>
      </trkpt>
      <trkpt lat="44.71318" lon="5.39188">
        <ele>461.20001220703</ele>
        <time>2019-10-10T12:06:09Z</time>
      </trkpt>
      <trkpt lat="44.7126" lon="5.3926">
        <ele>459.20001220703</ele>
        <time>2019-10-10T12:06:16Z</time>
      </trkpt>
      <trkpt lat="44.71222" lon="5.39307">
        <ele>458.60000610352</ele>
        <time>2019-10-10T12:06:21Z</time>
      </trkpt>
      <trkpt lat="44.71175" lon="5.39365">
        <ele>455.79998779297</ele>
        <time>2019-10-10T12:06:27Z</time>
      </trkpt>
      <trkpt lat="44.71142" lon="5.39405">
        <ele>454</ele>
        <time>2019-10-10T12:06:31Z</time>
      </trkpt>
      <trkpt lat="44.71118" lon="5.39433">
        <ele>453</ele>
        <time>2019-10-10T12:06:34Z</time>
      </trkpt>
      <trkpt lat="44.71089" lon="5.39467">
        <ele>451.20001220703</ele>
        <time>2019-10-10T12:06:38Z</time>
      </trkpt>
      <trkpt lat="44.71076" lon="5.39482">
        <ele>450</ele>
        <time>2019-10-10T12:06:40Z</time>
      </trkpt>
      <trkpt lat="44.71029" lon="5.39518">
        <ele>444</ele>
        <time>2019-10-10T12:06:47Z</time>
      </trkpt>
      <trkpt lat="44.70999" lon="5.39523">
        <ele>442.79998779297</ele>
        <time>2019-10-10T12:06:51Z</time>
      </trkpt>
      <trkpt lat="44.70939" lon="5.39535">
        <ele>441.79998779297</ele>
        <time>2019-10-10T12:06:58Z</time>
      </trkpt>
      <trkpt lat="44.70831" lon="5.39559">
        <ele>437</ele>
        <time>2019-10-10T12:07:10Z</time>
      </trkpt>
      <trkpt lat="44.70775" lon="5.39571">
        <ele>436.79998779297</ele>
        <time>2019-10-10T12:07:18Z</time>
      </trkpt>
      <trkpt lat="44.70741" lon="5.39579">
        <ele>438</ele>
        <time>2019-10-10T12:07:24Z</time>
      </trkpt>
      <trkpt lat="44.70702" lon="5.39588">
        <ele>439.60000610352</ele>
        <time>2019-10-10T12:07:31Z</time>
      </trkpt>
      <trkpt lat="44.70693" lon="5.3959">
        <ele>441.20001220703</ele>
        <time>2019-10-10T12:07:38Z</time>
      </trkpt>
      <trkpt lat="44.70694" lon="5.39596">
        <ele>442.60000610352</ele>
        <time>2019-10-10T12:07:44Z</time>
      </trkpt>
      <trkpt lat="44.70699" lon="5.39621">
        <ele>442.79998779297</ele>
        <time>2019-10-10T12:07:48Z</time>
      </trkpt>
      <trkpt lat="44.70705" lon="5.39654">
        <ele>442.79998779297</ele>
        <time>2019-10-10T12:07:54Z</time>
      </trkpt>
      <trkpt lat="44.70706" lon="5.39661">
        <ele>442.60000610352</ele>
        <time>2019-10-10T12:08:33Z</time>
      </trkpt>
      <trkpt lat="44.70713" lon="5.39698">
        <ele>442.20001220703</ele>
        <time>2019-10-10T12:08:44Z</time>
      </trkpt>
      <trkpt lat="44.70722" lon="5.39749">
        <ele>441.39999389648</ele>
        <time>2019-10-10T12:08:51Z</time>
      </trkpt>
      <trkpt lat="44.70736" lon="5.39824">
        <ele>440</ele>
        <time>2019-10-10T12:08:59Z</time>
      </trkpt>
      <trkpt lat="44.7076" lon="5.39955">
        <ele>439</ele>
        <time>2019-10-10T12:09:13Z</time>
      </trkpt>
      <trkpt lat="44.70769" lon="5.40003">
        <ele>438.79998779297</ele>
        <time>2019-10-10T12:09:19Z</time>
      </trkpt>
      <trkpt lat="44.70792" lon="5.40034">
        <ele>440.60000610352</ele>
        <time>2019-10-10T12:09:31Z</time>
      </trkpt>
      <trkpt lat="44.70799" lon="5.40052">
        <ele>441</ele>
        <time>2019-10-10T12:09:35Z</time>
      </trkpt>
      <trkpt lat="44.70815" lon="5.40096">
        <ele>441.39999389648</ele>
        <time>2019-10-10T12:09:44Z</time>
      </trkpt>
      <trkpt lat="44.70799" lon="5.40116">
        <ele>441.60000610352</ele>
        <time>2019-10-10T12:09:48Z</time>
      </trkpt>
      <trkpt lat="44.70755" lon="5.40184">
        <ele>442.20001220703</ele>
        <time>2019-10-10T12:10:02Z</time>
      </trkpt>
      <trkpt lat="44.70722" lon="5.40234">
        <ele>444</ele>
        <time>2019-10-10T12:10:13Z</time>
      </trkpt>
      <trkpt lat="44.70621" lon="5.40284">
        <ele>444.20001220703</ele>
        <time>2019-10-10T12:10:32Z</time>
      </trkpt>
      <trkpt lat="44.70534" lon="5.40287">
        <ele>443.60000610352</ele>
        <time>2019-10-10T12:10:46Z</time>
      </trkpt>
      <trkpt lat="44.70454" lon="5.40264">
        <ele>444</ele>
        <time>2019-10-10T12:11:00Z</time>
      </trkpt>
      <trkpt lat="44.70443" lon="5.40267">
        <ele>444.20001220703</ele>
        <time>2019-10-10T12:11:02Z</time>
      </trkpt>
      <trkpt lat="44.70426" lon="5.4028">
        <ele>444.20001220703</ele>
        <time>2019-10-10T12:11:06Z</time>
      </trkpt>
      <trkpt lat="44.70404" lon="5.4035">
        <ele>444.79998779297</ele>
        <time>2019-10-10T12:11:17Z</time>
      </trkpt>
      <trkpt lat="44.70402" lon="5.40361">
        <ele>444.60000610352</ele>
        <time>2019-10-10T12:11:19Z</time>
      </trkpt>
      <trkpt lat="44.70396" lon="5.40384">
        <ele>444.60000610352</ele>
        <time>2019-10-10T12:11:23Z</time>
      </trkpt>
      <trkpt lat="44.70386" lon="5.40429">
        <ele>446.20001220703</ele>
        <time>2019-10-10T12:11:31Z</time>
      </trkpt>
      <trkpt lat="44.70387" lon="5.40531">
        <ele>448.39999389648</ele>
        <time>2019-10-10T12:11:47Z</time>
      </trkpt>
      <trkpt lat="44.70386" lon="5.40578">
        <ele>448.79998779297</ele>
        <time>2019-10-10T12:11:55Z</time>
      </trkpt>
      <trkpt lat="44.70382" lon="5.40689">
        <ele>450.39999389648</ele>
        <time>2019-10-10T12:12:12Z</time>
      </trkpt>
      <trkpt lat="44.70378" lon="5.40735">
        <ele>451.20001220703</ele>
        <time>2019-10-10T12:12:19Z</time>
      </trkpt>
      <trkpt lat="44.70359" lon="5.40848">
        <ele>453.60000610352</ele>
        <time>2019-10-10T12:12:38Z</time>
      </trkpt>
      <trkpt lat="44.70345" lon="5.40888">
        <ele>454.20001220703</ele>
        <time>2019-10-10T12:12:45Z</time>
      </trkpt>
      <trkpt lat="44.70313" lon="5.40965">
        <ele>456.39999389648</ele>
        <time>2019-10-10T12:13:00Z</time>
      </trkpt>
      <trkpt lat="44.70293" lon="5.41012">
        <ele>458</ele>
        <time>2019-10-10T12:13:09Z</time>
      </trkpt>
      <trkpt lat="44.70271" lon="5.41066">
        <ele>459.60000610352</ele>
        <time>2019-10-10T12:13:19Z</time>
      </trkpt>
      <trkpt lat="44.70233" lon="5.41157">
        <ele>461.79998779297</ele>
        <time>2019-10-10T12:13:36Z</time>
      </trkpt>
      <trkpt lat="44.70208" lon="5.41217">
        <ele>463</ele>
        <time>2019-10-10T12:13:47Z</time>
      </trkpt>
      <trkpt lat="44.70173" lon="5.41295">
        <ele>465.39999389648</ele>
        <time>2019-10-10T12:14:02Z</time>
      </trkpt>
      <trkpt lat="44.70139" lon="5.41353">
        <ele>466.60000610352</ele>
        <time>2019-10-10T12:14:14Z</time>
      </trkpt>
      <trkpt lat="44.70089" lon="5.4143">
        <ele>468.60000610352</ele>
        <time>2019-10-10T12:14:30Z</time>
      </trkpt>
      <trkpt lat="44.70059" lon="5.41473">
        <ele>469.79998779297</ele>
        <time>2019-10-10T12:14:39Z</time>
      </trkpt>
      <trkpt lat="44.7" lon="5.41568">
        <ele>472</ele>
        <time>2019-10-10T12:14:57Z</time>
      </trkpt>
      <trkpt lat="44.69971" lon="5.41624">
        <ele>473.20001220703</ele>
        <time>2019-10-10T12:15:08Z</time>
      </trkpt>
      <trkpt lat="44.69925" lon="5.41753">
        <ele>474.79998779297</ele>
        <time>2019-10-10T12:15:28Z</time>
      </trkpt>
      <trkpt lat="44.69896" lon="5.41816">
        <ele>475.60000610352</ele>
        <time>2019-10-10T12:15:38Z</time>
      </trkpt>
      <trkpt lat="44.69866" lon="5.41847">
        <ele>476.39999389648</ele>
        <time>2019-10-10T12:15:46Z</time>
      </trkpt>
      <trkpt lat="44.69843" lon="5.41868">
        <ele>477.39999389648</ele>
        <time>2019-10-10T12:15:52Z</time>
      </trkpt>
      <trkpt lat="44.69808" lon="5.41901">
        <ele>480</ele>
        <time>2019-10-10T12:16:02Z</time>
      </trkpt>
      <trkpt lat="44.69767" lon="5.41934">
        <ele>481.20001220703</ele>
        <time>2019-10-10T12:16:12Z</time>
      </trkpt>
      <trkpt lat="44.69737" lon="5.41959">
        <ele>481.60000610352</ele>
        <time>2019-10-10T12:16:20Z</time>
      </trkpt>
      <trkpt lat="44.6968" lon="5.42016">
        <ele>484.60000610352</ele>
        <time>2019-10-10T12:16:36Z</time>
      </trkpt>
      <trkpt lat="44.69658" lon="5.42044">
        <ele>485.60000610352</ele>
        <time>2019-10-10T12:16:43Z</time>
      </trkpt>
      <trkpt lat="44.69623" lon="5.42087">
        <ele>487.79998779297</ele>
        <time>2019-10-10T12:16:55Z</time>
      </trkpt>
      <trkpt lat="44.69596" lon="5.42123">
        <ele>489.79998779297</ele>
        <time>2019-10-10T12:17:06Z</time>
      </trkpt>
      <trkpt lat="44.69565" lon="5.4219">
        <ele>491.60000610352</ele>
        <time>2019-10-10T12:17:22Z</time>
      </trkpt>
      <trkpt lat="44.69542" lon="5.4224">
        <ele>493.20001220703</ele>
        <time>2019-10-10T12:17:33Z</time>
      </trkpt>
      <trkpt lat="44.69506" lon="5.42315">
        <ele>495.39999389648</ele>
        <time>2019-10-10T12:17:49Z</time>
      </trkpt>
      <trkpt lat="44.69493" lon="5.42344">
        <ele>495.60000610352</ele>
        <time>2019-10-10T12:17:55Z</time>
      </trkpt>
      <trkpt lat="44.6946" lon="5.42415">
        <ele>498.20001220703</ele>
        <time>2019-10-10T12:18:11Z</time>
      </trkpt>
      <trkpt lat="44.69449" lon="5.42438">
        <ele>499</ele>
        <time>2019-10-10T12:18:16Z</time>
      </trkpt>
      <trkpt lat="44.69419" lon="5.42503">
        <ele>502</ele>
        <time>2019-10-10T12:18:30Z</time>
      </trkpt>
      <trkpt lat="44.69405" lon="5.42534">
        <ele>503</ele>
        <time>2019-10-10T12:18:37Z</time>
      </trkpt>
      <trkpt lat="44.6938" lon="5.42586">
        <ele>505</ele>
        <time>2019-10-10T12:18:48Z</time>
      </trkpt>
      <trkpt lat="44.69351" lon="5.42649">
        <ele>507.39999389648</ele>
        <time>2019-10-10T12:19:02Z</time>
      </trkpt>
      <trkpt lat="44.69324" lon="5.42708">
        <ele>508.60000610352</ele>
        <time>2019-10-10T12:19:14Z</time>
      </trkpt>
      <trkpt lat="44.69298" lon="5.42762">
        <ele>510.60000610352</ele>
        <time>2019-10-10T12:19:25Z</time>
      </trkpt>
      <trkpt lat="44.6927" lon="5.42822">
        <ele>512.59997558594</ele>
        <time>2019-10-10T12:19:36Z</time>
      </trkpt>
      <trkpt lat="44.69234" lon="5.429">
        <ele>515</ele>
        <time>2019-10-10T12:19:50Z</time>
      </trkpt>
      <trkpt lat="44.69207" lon="5.42959">
        <ele>516.79998779297</ele>
        <time>2019-10-10T12:20:02Z</time>
      </trkpt>
      <trkpt lat="44.69185" lon="5.42975">
        <ele>517.40002441406</ele>
        <time>2019-10-10T12:20:07Z</time>
      </trkpt>
      <trkpt lat="44.69169" lon="5.43047">
        <ele>519.20001220703</ele>
        <time>2019-10-10T12:20:19Z</time>
      </trkpt>
      <trkpt lat="44.69109" lon="5.4317">
        <ele>522.20001220703</ele>
        <time>2019-10-10T12:20:43Z</time>
      </trkpt>
      <trkpt lat="44.69087" lon="5.43208">
        <ele>522.59997558594</ele>
        <time>2019-10-10T12:20:51Z</time>
      </trkpt>
      <trkpt lat="44.6904" lon="5.4326">
        <ele>524.40002441406</ele>
        <time>2019-10-10T12:21:04Z</time>
      </trkpt>
      <trkpt lat="44.69029" lon="5.43271">
        <ele>525</ele>
        <time>2019-10-10T12:21:07Z</time>
      </trkpt>
      <trkpt lat="44.69006" lon="5.43303">
        <ele>526.20001220703</ele>
        <time>2019-10-10T12:21:14Z</time>
      </trkpt>
      <trkpt lat="44.68953" lon="5.43355">
        <ele>529.20001220703</ele>
        <time>2019-10-10T12:21:28Z</time>
      </trkpt>
      <trkpt lat="44.68926" lon="5.43382">
        <ele>529.59997558594</ele>
        <time>2019-10-10T12:21:35Z</time>
      </trkpt>
      <trkpt lat="44.68863" lon="5.43445">
        <ele>532.20001220703</ele>
        <time>2019-10-10T12:21:52Z</time>
      </trkpt>
      <trkpt lat="44.68824" lon="5.43484">
        <ele>533.59997558594</ele>
        <time>2019-10-10T12:22:02Z</time>
      </trkpt>
      <trkpt lat="44.68766" lon="5.43542">
        <ele>535.20001220703</ele>
        <time>2019-10-10T12:22:17Z</time>
      </trkpt>
      <trkpt lat="44.68724" lon="5.43583">
        <ele>536.20001220703</ele>
        <time>2019-10-10T12:22:28Z</time>
      </trkpt>
      <trkpt lat="44.68656" lon="5.43652">
        <ele>538</ele>
        <time>2019-10-10T12:22:46Z</time>
      </trkpt>
      <trkpt lat="44.68631" lon="5.43681">
        <ele>538</ele>
        <time>2019-10-10T12:22:52Z</time>
      </trkpt>
      <trkpt lat="44.68599" lon="5.43725">
        <ele>537.59997558594</ele>
        <time>2019-10-10T12:23:00Z</time>
      </trkpt>
      <trkpt lat="44.68588" lon="5.4374">
        <ele>536.59997558594</ele>
        <time>2019-10-10T12:23:05Z</time>
      </trkpt>
      <trkpt lat="44.68588" lon="5.43741">
        <ele>536.59997558594</ele>
        <time>2019-10-10T12:23:35Z</time>
      </trkpt>
      <trkpt lat="44.68597" lon="5.43747">
        <ele>536.79998779297</ele>
        <time>2019-10-10T12:23:42Z</time>
      </trkpt>
      <trkpt lat="44.68604" lon="5.43741">
        <ele>535.79998779297</ele>
        <time>2019-10-10T12:24:41Z</time>
      </trkpt>
      <trkpt lat="44.68591" lon="5.43735">
        <ele>535.59997558594</ele>
        <time>2019-10-10T12:24:48Z</time>
      </trkpt>
      <trkpt lat="44.6857" lon="5.43772">
        <ele>535.40002441406</ele>
        <time>2019-10-10T12:24:58Z</time>
      </trkpt>
      <trkpt lat="44.68539" lon="5.43834">
        <ele>534.59997558594</ele>
        <time>2019-10-10T12:25:07Z</time>
      </trkpt>
      <trkpt lat="44.68512" lon="5.43903">
        <ele>533</ele>
        <time>2019-10-10T12:25:15Z</time>
      </trkpt>
      <trkpt lat="44.68494" lon="5.43962">
        <ele>530.79998779297</ele>
        <time>2019-10-10T12:25:24Z</time>
      </trkpt>
      <trkpt lat="44.68492" lon="5.43969">
        <ele>529.79998779297</ele>
        <time>2019-10-10T12:25:31Z</time>
      </trkpt>
      <trkpt lat="44.68491" lon="5.43974">
        <ele>529.59997558594</ele>
        <time>2019-10-10T12:25:37Z</time>
      </trkpt>
      <trkpt lat="44.68481" lon="5.44009">
        <ele>529.20001220703</ele>
        <time>2019-10-10T12:25:43Z</time>
      </trkpt>
      <trkpt lat="44.68448" lon="5.4412">
        <ele>527.59997558594</ele>
        <time>2019-10-10T12:25:55Z</time>
      </trkpt>
      <trkpt lat="44.68418" lon="5.44222">
        <ele>525.40002441406</ele>
        <time>2019-10-10T12:26:04Z</time>
      </trkpt>
      <trkpt lat="44.68392" lon="5.44315">
        <ele>523.20001220703</ele>
        <time>2019-10-10T12:26:12Z</time>
      </trkpt>
      <trkpt lat="44.6838" lon="5.44383">
        <ele>522.40002441406</ele>
        <time>2019-10-10T12:26:18Z</time>
      </trkpt>
      <trkpt lat="44.68337" lon="5.44466">
        <ele>521.20001220703</ele>
        <time>2019-10-10T12:26:27Z</time>
      </trkpt>
      <trkpt lat="44.68302" lon="5.44534">
        <ele>520.79998779297</ele>
        <time>2019-10-10T12:26:37Z</time>
      </trkpt>
      <trkpt lat="44.683" lon="5.44538">
        <ele>520.79998779297</ele>
        <time>2019-10-10T12:27:03Z</time>
      </trkpt>
      <trkpt lat="44.68295" lon="5.4455">
        <ele>520.79998779297</ele>
        <time>2019-10-10T12:27:08Z</time>
      </trkpt>
      <trkpt lat="44.68265" lon="5.4461">
        <ele>520.40002441406</ele>
        <time>2019-10-10T12:27:19Z</time>
      </trkpt>
      <trkpt lat="44.68244" lon="5.44648">
        <ele>520</ele>
        <time>2019-10-10T12:27:25Z</time>
      </trkpt>
      <trkpt lat="44.68227" lon="5.44654">
        <ele>519.59997558594</ele>
        <time>2019-10-10T12:27:28Z</time>
      </trkpt>
      <trkpt lat="44.68172" lon="5.44681">
        <ele>519.20001220703</ele>
        <time>2019-10-10T12:27:38Z</time>
      </trkpt>
      <trkpt lat="44.68163" lon="5.44694">
        <ele>519</ele>
        <time>2019-10-10T12:27:40Z</time>
      </trkpt>
      <trkpt lat="44.68134" lon="5.4476">
        <ele>517.20001220703</ele>
        <time>2019-10-10T12:27:48Z</time>
      </trkpt>
      <trkpt lat="44.68098" lon="5.44848">
        <ele>516.40002441406</ele>
        <time>2019-10-10T12:27:58Z</time>
      </trkpt>
      <trkpt lat="44.68064" lon="5.44923">
        <ele>516.59997558594</ele>
        <time>2019-10-10T12:28:09Z</time>
      </trkpt>
      <trkpt lat="44.68048" lon="5.44939">
        <ele>516.79998779297</ele>
        <time>2019-10-10T12:28:13Z</time>
      </trkpt>
      <trkpt lat="44.68001" lon="5.4496">
        <ele>519</ele>
        <time>2019-10-10T12:28:24Z</time>
      </trkpt>
      <trkpt lat="44.67982" lon="5.44963">
        <ele>519.79998779297</ele>
        <time>2019-10-10T12:28:29Z</time>
      </trkpt>
      <trkpt lat="44.67966" lon="5.4495">
        <ele>520.20001220703</ele>
        <time>2019-10-10T12:28:34Z</time>
      </trkpt>
      <trkpt lat="44.67929" lon="5.44854">
        <ele>523.20001220703</ele>
        <time>2019-10-10T12:28:53Z</time>
      </trkpt>
      <trkpt lat="44.67905" lon="5.44792">
        <ele>523.79998779297</ele>
        <time>2019-10-10T12:29:03Z</time>
      </trkpt>
      <trkpt lat="44.6788" lon="5.44729">
        <ele>524</ele>
        <time>2019-10-10T12:29:12Z</time>
      </trkpt>
      <trkpt lat="44.67858" lon="5.44676">
        <ele>523.59997558594</ele>
        <time>2019-10-10T12:29:19Z</time>
      </trkpt>
      <trkpt lat="44.67811" lon="5.44549">
        <ele>523</ele>
        <time>2019-10-10T12:29:35Z</time>
      </trkpt>
      <trkpt lat="44.67773" lon="5.44453">
        <ele>522.20001220703</ele>
        <time>2019-10-10T12:29:47Z</time>
      </trkpt>
      <trkpt lat="44.6773" lon="5.44362">
        <ele>521.40002441406</ele>
        <time>2019-10-10T12:29:59Z</time>
      </trkpt>
      <trkpt lat="44.67685" lon="5.44297">
        <ele>521</ele>
        <time>2019-10-10T12:30:09Z</time>
      </trkpt>
      <trkpt lat="44.67583" lon="5.44206">
        <ele>520.20001220703</ele>
        <time>2019-10-10T12:30:28Z</time>
      </trkpt>
      <trkpt lat="44.67522" lon="5.44153">
        <ele>520</ele>
        <time>2019-10-10T12:30:39Z</time>
      </trkpt>
      <trkpt lat="44.67465" lon="5.44105">
        <ele>518.79998779297</ele>
        <time>2019-10-10T12:30:50Z</time>
      </trkpt>
      <trkpt lat="44.67439" lon="5.44082">
        <ele>518.20001220703</ele>
        <time>2019-10-10T12:30:56Z</time>
      </trkpt>
      <trkpt lat="44.67384" lon="5.44035">
        <ele>517.20001220703</ele>
        <time>2019-10-10T12:31:09Z</time>
      </trkpt>
      <trkpt lat="44.67333" lon="5.43981">
        <ele>516.79998779297</ele>
        <time>2019-10-10T12:31:21Z</time>
      </trkpt>
      <trkpt lat="44.6731" lon="5.4393">
        <ele>516.40002441406</ele>
        <time>2019-10-10T12:31:29Z</time>
      </trkpt>
      <trkpt lat="44.67304" lon="5.4383">
        <ele>515.20001220703</ele>
        <time>2019-10-10T12:31:40Z</time>
      </trkpt>
      <trkpt lat="44.67305" lon="5.4378">
        <ele>514</ele>
        <time>2019-10-10T12:31:45Z</time>
      </trkpt>
      <trkpt lat="44.67322" lon="5.43667">
        <ele>511.60000610352</ele>
        <time>2019-10-10T12:31:56Z</time>
      </trkpt>
      <trkpt lat="44.67342" lon="5.43514">
        <ele>509.79998779297</ele>
        <time>2019-10-10T12:32:11Z</time>
      </trkpt>
      <trkpt lat="44.67328" lon="5.4339">
        <ele>509.79998779297</ele>
        <time>2019-10-10T12:32:25Z</time>
      </trkpt>
      <trkpt lat="44.67282" lon="5.43299">
        <ele>510</ele>
        <time>2019-10-10T12:32:38Z</time>
      </trkpt>
      <trkpt lat="44.67238" lon="5.43215">
        <ele>510.39999389648</ele>
        <time>2019-10-10T12:32:51Z</time>
      </trkpt>
      <trkpt lat="44.67199" lon="5.43143">
        <ele>513.40002441406</ele>
        <time>2019-10-10T12:33:07Z</time>
      </trkpt>
      <trkpt lat="44.67192" lon="5.43136">
        <ele>515</ele>
        <time>2019-10-10T12:45:14Z</time>
      </trkpt>
      <trkpt lat="44.67184" lon="5.43127">
        <ele>515</ele>
        <time>2019-10-10T12:45:20Z</time>
      </trkpt>
      <trkpt lat="44.67157" lon="5.43123">
        <ele>516.20001220703</ele>
        <time>2019-10-10T12:45:32Z</time>
      </trkpt>
      <trkpt lat="44.67133" lon="5.43126">
        <ele>516.40002441406</ele>
        <time>2019-10-10T12:45:45Z</time>
      </trkpt>
      <trkpt lat="44.67118" lon="5.43128">
        <ele>516.40002441406</ele>
        <time>2019-10-10T12:45:51Z</time>
      </trkpt>
      <trkpt lat="44.67077" lon="5.43133">
        <ele>519</ele>
        <time>2019-10-10T12:46:07Z</time>
      </trkpt>
      <trkpt lat="44.67059" lon="5.43135">
        <ele>520</ele>
        <time>2019-10-10T12:46:14Z</time>
      </trkpt>
      <trkpt lat="44.66997" lon="5.43136">
        <ele>522</ele>
        <time>2019-10-10T12:46:36Z</time>
      </trkpt>
      <trkpt lat="44.66968" lon="5.43121">
        <ele>522.79998779297</ele>
        <time>2019-10-10T12:46:46Z</time>
      </trkpt>
      <trkpt lat="44.66927" lon="5.4309">
        <ele>523.40002441406</ele>
        <time>2019-10-10T12:46:57Z</time>
      </trkpt>
      <trkpt lat="44.66919" lon="5.43083">
        <ele>523.20001220703</ele>
        <time>2019-10-10T12:46:59Z</time>
      </trkpt>
      <trkpt lat="44.66896" lon="5.43062">
        <ele>523</ele>
        <time>2019-10-10T12:47:03Z</time>
      </trkpt>
      <trkpt lat="44.66879" lon="5.43046">
        <ele>522.20001220703</ele>
        <time>2019-10-10T12:47:06Z</time>
      </trkpt>
      <trkpt lat="44.66833" lon="5.43002">
        <ele>520.20001220703</ele>
        <time>2019-10-10T12:47:13Z</time>
      </trkpt>
      <trkpt lat="44.66755" lon="5.42928">
        <ele>516.59997558594</ele>
        <time>2019-10-10T12:47:24Z</time>
      </trkpt>
      <trkpt lat="44.66733" lon="5.42907">
        <ele>515</ele>
        <time>2019-10-10T12:47:27Z</time>
      </trkpt>
      <trkpt lat="44.66702" lon="5.42878">
        <ele>514.20001220703</ele>
        <time>2019-10-10T12:47:31Z</time>
      </trkpt>
      <trkpt lat="44.66687" lon="5.42864">
        <ele>514</ele>
        <time>2019-10-10T12:47:33Z</time>
      </trkpt>
      <trkpt lat="44.66644" lon="5.42823">
        <ele>511.79998779297</ele>
        <time>2019-10-10T12:47:39Z</time>
      </trkpt>
      <trkpt lat="44.66611" lon="5.42791">
        <ele>510.39999389648</ele>
        <time>2019-10-10T12:47:44Z</time>
      </trkpt>
      <trkpt lat="44.66556" lon="5.42739">
        <ele>507.20001220703</ele>
        <time>2019-10-10T12:47:53Z</time>
      </trkpt>
      <trkpt lat="44.66506" lon="5.42692">
        <ele>504</ele>
        <time>2019-10-10T12:48:01Z</time>
      </trkpt>
      <trkpt lat="44.66423" lon="5.42614">
        <ele>502.39999389648</ele>
        <time>2019-10-10T12:48:14Z</time>
      </trkpt>
      <trkpt lat="44.66333" lon="5.4253">
        <ele>500.60000610352</ele>
        <time>2019-10-10T12:48:28Z</time>
      </trkpt>
      <trkpt lat="44.66282" lon="5.42482">
        <ele>500</ele>
        <time>2019-10-10T12:48:36Z</time>
      </trkpt>
      <trkpt lat="44.66248" lon="5.42449">
        <ele>500</ele>
        <time>2019-10-10T12:48:42Z</time>
      </trkpt>
      <trkpt lat="44.66196" lon="5.42398">
        <ele>499.39999389648</ele>
        <time>2019-10-10T12:48:52Z</time>
      </trkpt>
      <trkpt lat="44.66167" lon="5.42369">
        <ele>499.20001220703</ele>
        <time>2019-10-10T12:49:00Z</time>
      </trkpt>
      <trkpt lat="44.6613" lon="5.42327">
        <ele>498.79998779297</ele>
        <time>2019-10-10T12:49:10Z</time>
      </trkpt>
      <trkpt lat="44.66114" lon="5.42297">
        <ele>498.79998779297</ele>
        <time>2019-10-10T12:49:16Z</time>
      </trkpt>
      <trkpt lat="44.66098" lon="5.42258">
        <ele>500.60000610352</ele>
        <time>2019-10-10T12:49:24Z</time>
      </trkpt>
      <trkpt lat="44.66068" lon="5.42184">
        <ele>502.39999389648</ele>
        <time>2019-10-10T12:49:39Z</time>
      </trkpt>
      <trkpt lat="44.66052" lon="5.42143">
        <ele>502.60000610352</ele>
        <time>2019-10-10T12:49:47Z</time>
      </trkpt>
      <trkpt lat="44.66034" lon="5.42108">
        <ele>502.60000610352</ele>
        <time>2019-10-10T12:49:53Z</time>
      </trkpt>
      <trkpt lat="44.66" lon="5.4207">
        <ele>501.39999389648</ele>
        <time>2019-10-10T12:50:01Z</time>
      </trkpt>
      <trkpt lat="44.65951" lon="5.42047">
        <ele>501.39999389648</ele>
        <time>2019-10-10T12:50:09Z</time>
      </trkpt>
      <trkpt lat="44.65925" lon="5.4204">
        <ele>501.20001220703</ele>
        <time>2019-10-10T12:50:13Z</time>
      </trkpt>
      <trkpt lat="44.65894" lon="5.42014">
        <ele>501</ele>
        <time>2019-10-10T12:50:19Z</time>
      </trkpt>
      <trkpt lat="44.65893" lon="5.42012">
        <ele>500.20001220703</ele>
        <time>2019-10-10T12:50:21Z</time>
      </trkpt>
      <trkpt lat="44.65895" lon="5.41965">
        <ele>499.39999389648</ele>
        <time>2019-10-10T12:50:25Z</time>
      </trkpt>
      <trkpt lat="44.65896" lon="5.41919">
        <ele>497.79998779297</ele>
        <time>2019-10-10T12:50:30Z</time>
      </trkpt>
      <trkpt lat="44.65893" lon="5.4189">
        <ele>496.60000610352</ele>
        <time>2019-10-10T12:50:39Z</time>
      </trkpt>
      <trkpt lat="44.65885" lon="5.41898">
        <ele>496.20001220703</ele>
        <time>2019-10-10T12:50:43Z</time>
      </trkpt>
      <trkpt lat="44.65866" lon="5.41913">
        <ele>496</ele>
        <time>2019-10-10T12:50:49Z</time>
      </trkpt>
      <trkpt lat="44.65845" lon="5.41924">
        <ele>496.20001220703</ele>
        <time>2019-10-10T12:50:54Z</time>
      </trkpt>
      <trkpt lat="44.65828" lon="5.41934">
        <ele>496.39999389648</ele>
        <time>2019-10-10T12:50:58Z</time>
      </trkpt>
      <trkpt lat="44.65771" lon="5.41966">
        <ele>497</ele>
        <time>2019-10-10T12:51:09Z</time>
      </trkpt>
      <trkpt lat="44.65719" lon="5.41988">
        <ele>498.39999389648</ele>
        <time>2019-10-10T12:51:20Z</time>
      </trkpt>
      <trkpt lat="44.65639" lon="5.42015">
        <ele>499.79998779297</ele>
        <time>2019-10-10T12:51:38Z</time>
      </trkpt>
      <trkpt lat="44.6561" lon="5.42025">
        <ele>500.39999389648</ele>
        <time>2019-10-10T12:51:47Z</time>
      </trkpt>
      <trkpt lat="44.65562" lon="5.42041">
        <ele>503.39999389648</ele>
        <time>2019-10-10T12:52:01Z</time>
      </trkpt>
      <trkpt lat="44.65529" lon="5.42052">
        <ele>504.20001220703</ele>
        <time>2019-10-10T12:52:10Z</time>
      </trkpt>
      <trkpt lat="44.65449" lon="5.42083">
        <ele>507</ele>
        <time>2019-10-10T12:52:30Z</time>
      </trkpt>
      <trkpt lat="44.65403" lon="5.42102">
        <ele>507.20001220703</ele>
        <time>2019-10-10T12:52:40Z</time>
      </trkpt>
      <trkpt lat="44.65347" lon="5.42126">
        <ele>507.79998779297</ele>
        <time>2019-10-10T12:52:53Z</time>
      </trkpt>
      <trkpt lat="44.65263" lon="5.42151">
        <ele>508.39999389648</ele>
        <time>2019-10-10T12:53:09Z</time>
      </trkpt>
      <trkpt lat="44.65182" lon="5.42163">
        <ele>509</ele>
        <time>2019-10-10T12:53:24Z</time>
      </trkpt>
      <trkpt lat="44.65155" lon="5.42162">
        <ele>509</ele>
        <time>2019-10-10T12:53:29Z</time>
      </trkpt>
      <trkpt lat="44.65122" lon="5.42165">
        <ele>509</ele>
        <time>2019-10-10T12:53:35Z</time>
      </trkpt>
      <trkpt lat="44.65108" lon="5.42176">
        <ele>509</ele>
        <time>2019-10-10T12:53:38Z</time>
      </trkpt>
      <trkpt lat="44.65098" lon="5.42187">
        <ele>509</ele>
        <time>2019-10-10T12:53:40Z</time>
      </trkpt>
      <trkpt lat="44.65091" lon="5.4222">
        <ele>507.79998779297</ele>
        <time>2019-10-10T12:53:46Z</time>
      </trkpt>
      <trkpt lat="44.65096" lon="5.42238">
        <ele>507.39999389648</ele>
        <time>2019-10-10T12:53:49Z</time>
      </trkpt>
      <trkpt lat="44.65107" lon="5.42308">
        <ele>507.39999389648</ele>
        <time>2019-10-10T12:53:58Z</time>
      </trkpt>
      <trkpt lat="44.65109" lon="5.42344">
        <ele>508.60000610352</ele>
        <time>2019-10-10T12:54:03Z</time>
      </trkpt>
      <trkpt lat="44.65114" lon="5.4241">
        <ele>510</ele>
        <time>2019-10-10T12:54:14Z</time>
      </trkpt>
      <trkpt lat="44.65118" lon="5.4247">
        <ele>512.40002441406</ele>
        <time>2019-10-10T12:54:24Z</time>
      </trkpt>
      <trkpt lat="44.65121" lon="5.42554">
        <ele>513</ele>
        <time>2019-10-10T12:54:38Z</time>
      </trkpt>
      <trkpt lat="44.65114" lon="5.42605">
        <ele>513.59997558594</ele>
        <time>2019-10-10T12:54:47Z</time>
      </trkpt>
      <trkpt lat="44.65109" lon="5.42662">
        <ele>514.79998779297</ele>
        <time>2019-10-10T12:54:57Z</time>
      </trkpt>
      <trkpt lat="44.65108" lon="5.42741">
        <ele>517.40002441406</ele>
        <time>2019-10-10T12:55:13Z</time>
      </trkpt>
      <trkpt lat="44.65106" lon="5.42835">
        <ele>518.20001220703</ele>
        <time>2019-10-10T12:55:29Z</time>
      </trkpt>
      <trkpt lat="44.65104" lon="5.42919">
        <ele>519.20001220703</ele>
        <time>2019-10-10T12:55:43Z</time>
      </trkpt>
      <trkpt lat="44.65102" lon="5.42982">
        <ele>520.40002441406</ele>
        <time>2019-10-10T12:55:53Z</time>
      </trkpt>
      <trkpt lat="44.651" lon="5.43062">
        <ele>521.79998779297</ele>
        <time>2019-10-10T12:56:06Z</time>
      </trkpt>
      <trkpt lat="44.65098" lon="5.4313">
        <ele>524</ele>
        <time>2019-10-10T12:56:17Z</time>
      </trkpt>
      <trkpt lat="44.65096" lon="5.43215">
        <ele>526.40002441406</ele>
        <time>2019-10-10T12:56:31Z</time>
      </trkpt>
      <trkpt lat="44.65094" lon="5.43266">
        <ele>527</ele>
        <time>2019-10-10T12:56:39Z</time>
      </trkpt>
      <trkpt lat="44.65091" lon="5.43373">
        <ele>529</ele>
        <time>2019-10-10T12:56:57Z</time>
      </trkpt>
      <trkpt lat="44.65089" lon="5.43424">
        <ele>530.40002441406</ele>
        <time>2019-10-10T12:57:06Z</time>
      </trkpt>
      <trkpt lat="44.65084" lon="5.43604">
        <ele>534</ele>
        <time>2019-10-10T12:57:39Z</time>
      </trkpt>
      <trkpt lat="44.65083" lon="5.4363">
        <ele>534.40002441406</ele>
        <time>2019-10-10T12:57:44Z</time>
      </trkpt>
      <trkpt lat="44.65082" lon="5.43671">
        <ele>535.40002441406</ele>
        <time>2019-10-10T12:57:52Z</time>
      </trkpt>
      <trkpt lat="44.6508" lon="5.4372">
        <ele>537</ele>
        <time>2019-10-10T12:58:00Z</time>
      </trkpt>
      <trkpt lat="44.65079" lon="5.43779">
        <ele>538.59997558594</ele>
        <time>2019-10-10T12:58:10Z</time>
      </trkpt>
      <trkpt lat="44.65076" lon="5.43862">
        <ele>540</ele>
        <time>2019-10-10T12:58:24Z</time>
      </trkpt>
      <trkpt lat="44.65075" lon="5.43908">
        <ele>541.40002441406</ele>
        <time>2019-10-10T12:58:32Z</time>
      </trkpt>
      <trkpt lat="44.65069" lon="5.44017">
        <ele>543.59997558594</ele>
        <time>2019-10-10T12:58:50Z</time>
      </trkpt>
      <trkpt lat="44.65066" lon="5.44071">
        <ele>545</ele>
        <time>2019-10-10T12:58:59Z</time>
      </trkpt>
      <trkpt lat="44.65062" lon="5.44128">
        <ele>546.40002441406</ele>
        <time>2019-10-10T12:59:09Z</time>
      </trkpt>
      <trkpt lat="44.65059" lon="5.44187">
        <ele>548.40002441406</ele>
        <time>2019-10-10T12:59:20Z</time>
      </trkpt>
      <trkpt lat="44.65055" lon="5.44249">
        <ele>550.59997558594</ele>
        <time>2019-10-10T12:59:32Z</time>
      </trkpt>
      <trkpt lat="44.65053" lon="5.44286">
        <ele>551.79998779297</ele>
        <time>2019-10-10T12:59:39Z</time>
      </trkpt>
      <trkpt lat="44.65049" lon="5.44342">
        <ele>553.79998779297</ele>
        <time>2019-10-10T12:59:52Z</time>
      </trkpt>
      <trkpt lat="44.65046" lon="5.44394">
        <ele>554.40002441406</ele>
        <time>2019-10-10T13:00:02Z</time>
      </trkpt>
      <trkpt lat="44.65039" lon="5.44512">
        <ele>557.20001220703</ele>
        <time>2019-10-10T13:00:23Z</time>
      </trkpt>
      <trkpt lat="44.65035" lon="5.44565">
        <ele>557.79998779297</ele>
        <time>2019-10-10T13:00:33Z</time>
      </trkpt>
      <trkpt lat="44.65033" lon="5.44602">
        <ele>558.59997558594</ele>
        <time>2019-10-10T13:00:40Z</time>
      </trkpt>
      <trkpt lat="44.65028" lon="5.44684">
        <ele>561</ele>
        <time>2019-10-10T13:00:56Z</time>
      </trkpt>
      <trkpt lat="44.65026" lon="5.44715">
        <ele>561.79998779297</ele>
        <time>2019-10-10T13:01:02Z</time>
      </trkpt>
      <trkpt lat="44.6502" lon="5.44796">
        <ele>564.40002441406</ele>
        <time>2019-10-10T13:01:18Z</time>
      </trkpt>
      <trkpt lat="44.65018" lon="5.44831">
        <ele>564.40002441406</ele>
        <time>2019-10-10T13:01:23Z</time>
      </trkpt>
      <trkpt lat="44.65037" lon="5.44905">
        <ele>564.20001220703</ele>
        <time>2019-10-10T13:01:34Z</time>
      </trkpt>
      <trkpt lat="44.65055" lon="5.44991">
        <ele>564.20001220703</ele>
        <time>2019-10-10T13:01:46Z</time>
      </trkpt>
      <trkpt lat="44.65054" lon="5.45042">
        <ele>564.59997558594</ele>
        <time>2019-10-10T13:01:55Z</time>
      </trkpt>
      <trkpt lat="44.65041" lon="5.45065">
        <ele>566.20001220703</ele>
        <time>2019-10-10T13:02:02Z</time>
      </trkpt>
      <trkpt lat="44.65029" lon="5.45087">
        <ele>566.59997558594</ele>
        <time>2019-10-10T13:02:07Z</time>
      </trkpt>
      <trkpt lat="44.65032" lon="5.45126">
        <ele>567.59997558594</ele>
        <time>2019-10-10T13:02:13Z</time>
      </trkpt>
      <trkpt lat="44.65045" lon="5.45165">
        <ele>569.20001220703</ele>
        <time>2019-10-10T13:02:23Z</time>
      </trkpt>
      <trkpt lat="44.65058" lon="5.45201">
        <ele>570.20001220703</ele>
        <time>2019-10-10T13:02:31Z</time>
      </trkpt>
      <trkpt lat="44.65073" lon="5.45244">
        <ele>571.40002441406</ele>
        <time>2019-10-10T13:02:42Z</time>
      </trkpt>
      <trkpt lat="44.65076" lon="5.4527">
        <ele>572.40002441406</ele>
        <time>2019-10-10T13:02:48Z</time>
      </trkpt>
      <trkpt lat="44.65076" lon="5.45298">
        <ele>574.20001220703</ele>
        <time>2019-10-10T13:02:56Z</time>
      </trkpt>
      <trkpt lat="44.65076" lon="5.45312">
        <ele>575.20001220703</ele>
        <time>2019-10-10T13:03:02Z</time>
      </trkpt>
      <trkpt lat="44.65067" lon="5.45308">
        <ele>575.59997558594</ele>
        <time>2019-10-10T13:03:06Z</time>
      </trkpt>
      <trkpt lat="44.6506" lon="5.45305">
        <ele>575.59997558594</ele>
        <time>2019-10-10T13:03:15Z</time>
      </trkpt>
      <trkpt lat="44.65062" lon="5.45307">
        <ele>575.59997558594</ele>
        <time>2019-10-10T13:03:19Z</time>
      </trkpt>
      <trkpt lat="44.65066" lon="5.45301">
        <ele>575.40002441406</ele>
        <time>2019-10-10T13:05:44Z</time>
      </trkpt>
      <trkpt lat="44.65063" lon="5.45304">
        <ele>576</ele>
        <time>2019-10-10T13:05:46Z</time>
      </trkpt>
      <trkpt lat="44.65049" lon="5.45293">
        <ele>576</ele>
        <time>2019-10-10T13:05:52Z</time>
      </trkpt>
      <trkpt lat="44.65028" lon="5.45274">
        <ele>575.59997558594</ele>
        <time>2019-10-10T13:05:58Z</time>
      </trkpt>
      <trkpt lat="44.64989" lon="5.45238">
        <ele>574.40002441406</ele>
        <time>2019-10-10T13:06:08Z</time>
      </trkpt>
      <trkpt lat="44.64949" lon="5.45201">
        <ele>573.20001220703</ele>
        <time>2019-10-10T13:06:18Z</time>
      </trkpt>
      <trkpt lat="44.64912" lon="5.45155">
        <ele>572.40002441406</ele>
        <time>2019-10-10T13:06:27Z</time>
      </trkpt>
      <trkpt lat="44.64895" lon="5.45098">
        <ele>571</ele>
        <time>2019-10-10T13:06:34Z</time>
      </trkpt>
      <trkpt lat="44.64866" lon="5.44997">
        <ele>569.59997558594</ele>
        <time>2019-10-10T13:06:49Z</time>
      </trkpt>
      <trkpt lat="44.64839" lon="5.44905">
        <ele>568.40002441406</ele>
        <time>2019-10-10T13:07:04Z</time>
      </trkpt>
      <trkpt lat="44.64826" lon="5.44859">
        <ele>567.79998779297</ele>
        <time>2019-10-10T13:07:12Z</time>
      </trkpt>
      <trkpt lat="44.64818" lon="5.44802">
        <ele>566.20001220703</ele>
        <time>2019-10-10T13:07:20Z</time>
      </trkpt>
      <trkpt lat="44.64814" lon="5.44754">
        <ele>565.59997558594</ele>
        <time>2019-10-10T13:07:26Z</time>
      </trkpt>
      <trkpt lat="44.64814" lon="5.44665">
        <ele>564.79998779297</ele>
        <time>2019-10-10T13:07:38Z</time>
      </trkpt>
      <trkpt lat="44.64814" lon="5.44635">
        <ele>564</ele>
        <time>2019-10-10T13:07:42Z</time>
      </trkpt>
      <trkpt lat="44.64822" lon="5.44571">
        <ele>563.59997558594</ele>
        <time>2019-10-10T13:07:51Z</time>
      </trkpt>
      <trkpt lat="44.64833" lon="5.44467">
        <ele>563.40002441406</ele>
        <time>2019-10-10T13:08:06Z</time>
      </trkpt>
      <trkpt lat="44.64814" lon="5.44404">
        <ele>563.40002441406</ele>
        <time>2019-10-10T13:08:18Z</time>
      </trkpt>
      <trkpt lat="44.64768" lon="5.44363">
        <ele>562.79998779297</ele>
        <time>2019-10-10T13:08:28Z</time>
      </trkpt>
      <trkpt lat="44.64701" lon="5.44328">
        <ele>562.20001220703</ele>
        <time>2019-10-10T13:08:41Z</time>
      </trkpt>
      <trkpt lat="44.64689" lon="5.44309">
        <ele>562</ele>
        <time>2019-10-10T13:08:44Z</time>
      </trkpt>
      <trkpt lat="44.64631" lon="5.44216">
        <ele>563.20001220703</ele>
        <time>2019-10-10T13:08:58Z</time>
      </trkpt>
      <trkpt lat="44.64584" lon="5.44072">
        <ele>562.79998779297</ele>
        <time>2019-10-10T13:09:16Z</time>
      </trkpt>
      <trkpt lat="44.64584" lon="5.44003">
        <ele>562.59997558594</ele>
        <time>2019-10-10T13:09:24Z</time>
      </trkpt>
      <trkpt lat="44.64578" lon="5.43933">
        <ele>562</ele>
        <time>2019-10-10T13:09:33Z</time>
      </trkpt>
      <trkpt lat="44.64578" lon="5.43852">
        <ele>561.59997558594</ele>
        <time>2019-10-10T13:09:43Z</time>
      </trkpt>
      <trkpt lat="44.64572" lon="5.43802">
        <ele>561.20001220703</ele>
        <time>2019-10-10T13:09:49Z</time>
      </trkpt>
      <trkpt lat="44.64548" lon="5.43712">
        <ele>559.40002441406</ele>
        <time>2019-10-10T13:10:00Z</time>
      </trkpt>
      <trkpt lat="44.64515" lon="5.43628">
        <ele>559.40002441406</ele>
        <time>2019-10-10T13:10:10Z</time>
      </trkpt>
      <trkpt lat="44.64499" lon="5.43615">
        <ele>558.79998779297</ele>
        <time>2019-10-10T13:10:13Z</time>
      </trkpt>
      <trkpt lat="44.64447" lon="5.4357">
        <ele>557.20001220703</ele>
        <time>2019-10-10T13:10:21Z</time>
      </trkpt>
      <trkpt lat="44.6441" lon="5.43532">
        <ele>555.20001220703</ele>
        <time>2019-10-10T13:10:27Z</time>
      </trkpt>
      <trkpt lat="44.64382" lon="5.43515">
        <ele>554.40002441406</ele>
        <time>2019-10-10T13:10:31Z</time>
      </trkpt>
      <trkpt lat="44.6435" lon="5.43513">
        <ele>553.20001220703</ele>
        <time>2019-10-10T13:10:35Z</time>
      </trkpt>
      <trkpt lat="44.64313" lon="5.43543">
        <ele>551.79998779297</ele>
        <time>2019-10-10T13:10:40Z</time>
      </trkpt>
      <trkpt lat="44.64243" lon="5.43633">
        <ele>550.79998779297</ele>
        <time>2019-10-10T13:10:53Z</time>
      </trkpt>
      <trkpt lat="44.64193" lon="5.43668">
        <ele>550.40002441406</ele>
        <time>2019-10-10T13:11:01Z</time>
      </trkpt>
      <trkpt lat="44.64124" lon="5.4371">
        <ele>549.59997558594</ele>
        <time>2019-10-10T13:11:12Z</time>
      </trkpt>
      <trkpt lat="44.64053" lon="5.43753">
        <ele>548.79998779297</ele>
        <time>2019-10-10T13:11:24Z</time>
      </trkpt>
      <trkpt lat="44.63997" lon="5.43756">
        <ele>548.59997558594</ele>
        <time>2019-10-10T13:11:33Z</time>
      </trkpt>
      <trkpt lat="44.63975" lon="5.4375">
        <ele>548.20001220703</ele>
        <time>2019-10-10T13:11:36Z</time>
      </trkpt>
      <trkpt lat="44.63945" lon="5.43764">
        <ele>547.40002441406</ele>
        <time>2019-10-10T13:11:41Z</time>
      </trkpt>
      <trkpt lat="44.63914" lon="5.43772">
        <ele>547.20001220703</ele>
        <time>2019-10-10T13:11:45Z</time>
      </trkpt>
      <trkpt lat="44.63854" lon="5.43779">
        <ele>545.59997558594</ele>
        <time>2019-10-10T13:11:52Z</time>
      </trkpt>
      <trkpt lat="44.63827" lon="5.43783">
        <ele>544.40002441406</ele>
        <time>2019-10-10T13:11:55Z</time>
      </trkpt>
      <trkpt lat="44.6374" lon="5.43793">
        <ele>541</ele>
        <time>2019-10-10T13:12:04Z</time>
      </trkpt>
      <trkpt lat="44.63664" lon="5.43802">
        <ele>539.20001220703</ele>
        <time>2019-10-10T13:12:12Z</time>
      </trkpt>
      <trkpt lat="44.6361" lon="5.43808">
        <ele>537.79998779297</ele>
        <time>2019-10-10T13:12:18Z</time>
      </trkpt>
      <trkpt lat="44.63536" lon="5.43817">
        <ele>536.20001220703</ele>
        <time>2019-10-10T13:12:26Z</time>
      </trkpt>
      <trkpt lat="44.63451" lon="5.43827">
        <ele>534.20001220703</ele>
        <time>2019-10-10T13:12:36Z</time>
      </trkpt>
      <trkpt lat="44.63368" lon="5.43834">
        <ele>533.40002441406</ele>
        <time>2019-10-10T13:12:47Z</time>
      </trkpt>
      <trkpt lat="44.63303" lon="5.43861">
        <ele>534.20001220703</ele>
        <time>2019-10-10T13:12:58Z</time>
      </trkpt>
      <trkpt lat="44.63254" lon="5.43884">
        <ele>534.40002441406</ele>
        <time>2019-10-10T13:13:07Z</time>
      </trkpt>
      <trkpt lat="44.63211" lon="5.43905">
        <ele>535.40002441406</ele>
        <time>2019-10-10T13:13:16Z</time>
      </trkpt>
      <trkpt lat="44.6318" lon="5.43919">
        <ele>536.59997558594</ele>
        <time>2019-10-10T13:13:23Z</time>
      </trkpt>
      <trkpt lat="44.63132" lon="5.43942">
        <ele>538.40002441406</ele>
        <time>2019-10-10T13:13:34Z</time>
      </trkpt>
      <trkpt lat="44.63088" lon="5.43962">
        <ele>539.59997558594</ele>
        <time>2019-10-10T13:13:45Z</time>
      </trkpt>
      <trkpt lat="44.63053" lon="5.43979">
        <ele>541.40002441406</ele>
        <time>2019-10-10T13:13:55Z</time>
      </trkpt>
      <trkpt lat="44.63003" lon="5.44003">
        <ele>544.20001220703</ele>
        <time>2019-10-10T13:14:09Z</time>
      </trkpt>
      <trkpt lat="44.62966" lon="5.44025">
        <ele>545</ele>
        <time>2019-10-10T13:14:19Z</time>
      </trkpt>
      <trkpt lat="44.62912" lon="5.44088">
        <ele>546.59997558594</ele>
        <time>2019-10-10T13:14:36Z</time>
      </trkpt>
      <trkpt lat="44.62888" lon="5.44104">
        <ele>546.59997558594</ele>
        <time>2019-10-10T13:14:41Z</time>
      </trkpt>
      <trkpt lat="44.62876" lon="5.44107">
        <ele>546.59997558594</ele>
        <time>2019-10-10T13:14:43Z</time>
      </trkpt>
      <trkpt lat="44.6284" lon="5.44112">
        <ele>545.59997558594</ele>
        <time>2019-10-10T13:14:49Z</time>
      </trkpt>
      <trkpt lat="44.62807" lon="5.44126">
        <ele>545.20001220703</ele>
        <time>2019-10-10T13:14:55Z</time>
      </trkpt>
      <trkpt lat="44.62788" lon="5.44151">
        <ele>545</ele>
        <time>2019-10-10T13:15:00Z</time>
      </trkpt>
      <trkpt lat="44.62746" lon="5.442">
        <ele>544.40002441406</ele>
        <time>2019-10-10T13:15:08Z</time>
      </trkpt>
      <trkpt lat="44.62684" lon="5.44229">
        <ele>543.79998779297</ele>
        <time>2019-10-10T13:15:17Z</time>
      </trkpt>
      <trkpt lat="44.62646" lon="5.44244">
        <ele>542.59997558594</ele>
        <time>2019-10-10T13:15:22Z</time>
      </trkpt>
      <trkpt lat="44.62563" lon="5.44277">
        <ele>541.20001220703</ele>
        <time>2019-10-10T13:15:33Z</time>
      </trkpt>
      <trkpt lat="44.62528" lon="5.44292">
        <ele>541.20001220703</ele>
        <time>2019-10-10T13:15:38Z</time>
      </trkpt>
      <trkpt lat="44.62484" lon="5.44338">
        <ele>541.59997558594</ele>
        <time>2019-10-10T13:15:47Z</time>
      </trkpt>
      <trkpt lat="44.62455" lon="5.4437">
        <ele>542.20001220703</ele>
        <time>2019-10-10T13:15:53Z</time>
      </trkpt>
      <trkpt lat="44.62406" lon="5.444">
        <ele>542.59997558594</ele>
        <time>2019-10-10T13:16:02Z</time>
      </trkpt>
      <trkpt lat="44.62352" lon="5.44423">
        <ele>543.20001220703</ele>
        <time>2019-10-10T13:16:12Z</time>
      </trkpt>
      <trkpt lat="44.62292" lon="5.44448">
        <ele>544</ele>
        <time>2019-10-10T13:16:23Z</time>
      </trkpt>
      <trkpt lat="44.62204" lon="5.44551">
        <ele>545.40002441406</ele>
        <time>2019-10-10T13:16:44Z</time>
      </trkpt>
      <trkpt lat="44.62166" lon="5.44613">
        <ele>546.20001220703</ele>
        <time>2019-10-10T13:16:55Z</time>
      </trkpt>
      <trkpt lat="44.62103" lon="5.44701">
        <ele>546.79998779297</ele>
        <time>2019-10-10T13:17:12Z</time>
      </trkpt>
      <trkpt lat="44.62069" lon="5.44744">
        <ele>548.40002441406</ele>
        <time>2019-10-10T13:17:22Z</time>
      </trkpt>
      <trkpt lat="44.62038" lon="5.44785">
        <ele>549.79998779297</ele>
        <time>2019-10-10T13:17:32Z</time>
      </trkpt>
      <trkpt lat="44.62022" lon="5.44807">
        <ele>550.20001220703</ele>
        <time>2019-10-10T13:17:38Z</time>
      </trkpt>
      <trkpt lat="44.61965" lon="5.4487">
        <ele>553</ele>
        <time>2019-10-10T13:17:54Z</time>
      </trkpt>
      <trkpt lat="44.61901" lon="5.44936">
        <ele>553.79998779297</ele>
        <time>2019-10-10T13:18:10Z</time>
      </trkpt>
      <trkpt lat="44.61873" lon="5.44963">
        <ele>554.40002441406</ele>
        <time>2019-10-10T13:18:18Z</time>
      </trkpt>
      <trkpt lat="44.61857" lon="5.44977">
        <ele>555.59997558594</ele>
        <time>2019-10-10T13:18:23Z</time>
      </trkpt>
      <trkpt lat="44.6181" lon="5.45006">
        <ele>558.59997558594</ele>
        <time>2019-10-10T13:18:36Z</time>
      </trkpt>
      <trkpt lat="44.61803" lon="5.4501">
        <ele>558.59997558594</ele>
        <time>2019-10-10T13:18:38Z</time>
      </trkpt>
      <trkpt lat="44.6177" lon="5.45029">
        <ele>560.40002441406</ele>
        <time>2019-10-10T13:18:47Z</time>
      </trkpt>
      <trkpt lat="44.61742" lon="5.45045">
        <ele>561.79998779297</ele>
        <time>2019-10-10T13:18:56Z</time>
      </trkpt>
      <trkpt lat="44.61717" lon="5.45058">
        <ele>563</ele>
        <time>2019-10-10T13:19:04Z</time>
      </trkpt>
      <trkpt lat="44.61658" lon="5.4509">
        <ele>565.40002441406</ele>
        <time>2019-10-10T13:19:19Z</time>
      </trkpt>
      <trkpt lat="44.61648" lon="5.45095">
        <ele>565.40002441406</ele>
        <time>2019-10-10T13:19:21Z</time>
      </trkpt>
      <trkpt lat="44.61627" lon="5.45105">
        <ele>564.79998779297</ele>
        <time>2019-10-10T13:19:26Z</time>
      </trkpt>
      <trkpt lat="44.61616" lon="5.45106">
        <ele>564.59997558594</ele>
        <time>2019-10-10T13:19:29Z</time>
      </trkpt>
      <trkpt lat="44.61601" lon="5.45133">
        <ele>564</ele>
        <time>2019-10-10T13:19:35Z</time>
      </trkpt>
      <trkpt lat="44.61594" lon="5.45143">
        <ele>563.79998779297</ele>
        <time>2019-10-10T13:19:37Z</time>
      </trkpt>
      <trkpt lat="44.6155" lon="5.45199">
        <ele>564.79998779297</ele>
        <time>2019-10-10T13:19:50Z</time>
      </trkpt>
      <trkpt lat="44.61535" lon="5.45216">
        <ele>565.40002441406</ele>
        <time>2019-10-10T13:19:55Z</time>
      </trkpt>
      <trkpt lat="44.61508" lon="5.4525">
        <ele>567.40002441406</ele>
        <time>2019-10-10T13:20:07Z</time>
      </trkpt>
      <trkpt lat="44.61496" lon="5.4526">
        <ele>567.79998779297</ele>
        <time>2019-10-10T13:20:12Z</time>
      </trkpt>
      <trkpt lat="44.61455" lon="5.45277">
        <ele>568.79998779297</ele>
        <time>2019-10-10T13:20:25Z</time>
      </trkpt>
      <trkpt lat="44.6144" lon="5.45283">
        <ele>568.79998779297</ele>
        <time>2019-10-10T13:20:30Z</time>
      </trkpt>
      <trkpt lat="44.61412" lon="5.45288">
        <ele>568.79998779297</ele>
        <time>2019-10-10T13:20:35Z</time>
      </trkpt>
      <trkpt lat="44.61338" lon="5.453">
        <ele>567.20001220703</ele>
        <time>2019-10-10T13:20:48Z</time>
      </trkpt>
      <trkpt lat="44.6129" lon="5.45304">
        <ele>566.20001220703</ele>
        <time>2019-10-10T13:20:56Z</time>
      </trkpt>
      <trkpt lat="44.61165" lon="5.4527">
        <ele>563.79998779297</ele>
        <time>2019-10-10T13:21:16Z</time>
      </trkpt>
      <trkpt lat="44.61133" lon="5.45253">
        <ele>563.40002441406</ele>
        <time>2019-10-10T13:21:22Z</time>
      </trkpt>
      <trkpt lat="44.61085" lon="5.45229">
        <ele>563.20001220703</ele>
        <time>2019-10-10T13:21:29Z</time>
      </trkpt>
      <trkpt lat="44.61054" lon="5.4522">
        <ele>563.20001220703</ele>
        <time>2019-10-10T13:21:34Z</time>
      </trkpt>
      <trkpt lat="44.61014" lon="5.45231">
        <ele>563.20001220703</ele>
        <time>2019-10-10T13:21:41Z</time>
      </trkpt>
      <trkpt lat="44.60983" lon="5.45277">
        <ele>563.59997558594</ele>
        <time>2019-10-10T13:21:52Z</time>
      </trkpt>
      <trkpt lat="44.60968" lon="5.45311">
        <ele>563.79998779297</ele>
        <time>2019-10-10T13:22:00Z</time>
      </trkpt>
      <trkpt lat="44.60949" lon="5.4534">
        <ele>563.79998779297</ele>
        <time>2019-10-10T13:22:06Z</time>
      </trkpt>
      <trkpt lat="44.60928" lon="5.45355">
        <ele>564.20001220703</ele>
        <time>2019-10-10T13:22:11Z</time>
      </trkpt>
      <trkpt lat="44.60907" lon="5.45367">
        <ele>564.59997558594</ele>
        <time>2019-10-10T13:22:16Z</time>
      </trkpt>
      <trkpt lat="44.6089" lon="5.45375">
        <ele>564.59997558594</ele>
        <time>2019-10-10T13:22:20Z</time>
      </trkpt>
      <trkpt lat="44.60856" lon="5.45379">
        <ele>565.20001220703</ele>
        <time>2019-10-10T13:22:27Z</time>
      </trkpt>
      <trkpt lat="44.60829" lon="5.45368">
        <ele>566</ele>
        <time>2019-10-10T13:22:33Z</time>
      </trkpt>
      <trkpt lat="44.60795" lon="5.45364">
        <ele>567.20001220703</ele>
        <time>2019-10-10T13:22:42Z</time>
      </trkpt>
      <trkpt lat="44.60761" lon="5.45376">
        <ele>568.20001220703</ele>
        <time>2019-10-10T13:22:51Z</time>
      </trkpt>
      <trkpt lat="44.60718" lon="5.45402">
        <ele>571.20001220703</ele>
        <time>2019-10-10T13:23:05Z</time>
      </trkpt>
      <trkpt lat="44.60695" lon="5.45421">
        <ele>572.59997558594</ele>
        <time>2019-10-10T13:23:13Z</time>
      </trkpt>
      <trkpt lat="44.60654" lon="5.45466">
        <ele>574.79998779297</ele>
        <time>2019-10-10T13:23:29Z</time>
      </trkpt>
      <trkpt lat="44.60633" lon="5.45486">
        <ele>575.79998779297</ele>
        <time>2019-10-10T13:23:37Z</time>
      </trkpt>
      <trkpt lat="44.60588" lon="5.45508">
        <ele>578</ele>
        <time>2019-10-10T13:23:51Z</time>
      </trkpt>
      <trkpt lat="44.60566" lon="5.45518">
        <ele>579.20001220703</ele>
        <time>2019-10-10T13:23:58Z</time>
      </trkpt>
      <trkpt lat="44.60498" lon="5.45559">
        <ele>582.79998779297</ele>
        <time>2019-10-10T13:24:20Z</time>
      </trkpt>
      <trkpt lat="44.6048" lon="5.45576">
        <ele>584</ele>
        <time>2019-10-10T13:24:27Z</time>
      </trkpt>
      <trkpt lat="44.60459" lon="5.45603">
        <ele>585.20001220703</ele>
        <time>2019-10-10T13:24:36Z</time>
      </trkpt>
      <trkpt lat="44.6044" lon="5.45627">
        <ele>586.20001220703</ele>
        <time>2019-10-10T13:24:44Z</time>
      </trkpt>
      <trkpt lat="44.60425" lon="5.45645">
        <ele>587</ele>
        <time>2019-10-10T13:24:50Z</time>
      </trkpt>
      <trkpt lat="44.60387" lon="5.45693">
        <ele>589.79998779297</ele>
        <time>2019-10-10T13:25:06Z</time>
      </trkpt>
      <trkpt lat="44.6036" lon="5.45726">
        <ele>590.79998779297</ele>
        <time>2019-10-10T13:25:16Z</time>
      </trkpt>
      <trkpt lat="44.60335" lon="5.45755">
        <ele>592.20001220703</ele>
        <time>2019-10-10T13:25:26Z</time>
      </trkpt>
      <trkpt lat="44.60325" lon="5.45767">
        <ele>593.59997558594</ele>
        <time>2019-10-10T13:25:33Z</time>
      </trkpt>
      <trkpt lat="44.60319" lon="5.45773">
        <ele>595.40002441406</ele>
        <time>2019-10-10T13:27:01Z</time>
      </trkpt>
      <trkpt lat="44.60314" lon="5.45779">
        <ele>595.40002441406</ele>
        <time>2019-10-10T13:27:05Z</time>
      </trkpt>
      <trkpt lat="44.60293" lon="5.45799">
        <ele>595.79998779297</ele>
        <time>2019-10-10T13:27:13Z</time>
      </trkpt>
      <trkpt lat="44.60278" lon="5.45806">
        <ele>596</ele>
        <time>2019-10-10T13:27:17Z</time>
      </trkpt>
      <trkpt lat="44.60264" lon="5.45816">
        <ele>596.79998779297</ele>
        <time>2019-10-10T13:27:23Z</time>
      </trkpt>
      <trkpt lat="44.60255" lon="5.45829">
        <ele>598.59997558594</ele>
        <time>2019-10-10T13:27:28Z</time>
      </trkpt>
      <trkpt lat="44.60247" lon="5.45852">
        <ele>599.40002441406</ele>
        <time>2019-10-10T13:27:35Z</time>
      </trkpt>
      <trkpt lat="44.60235" lon="5.45864">
        <ele>601</ele>
        <time>2019-10-10T13:27:41Z</time>
      </trkpt>
      <trkpt lat="44.60204" lon="5.45887">
        <ele>602.79998779297</ele>
        <time>2019-10-10T13:27:50Z</time>
      </trkpt>
      <trkpt lat="44.60182" lon="5.45897">
        <ele>602.59997558594</ele>
        <time>2019-10-10T13:27:56Z</time>
      </trkpt>
      <trkpt lat="44.60169" lon="5.45898">
        <ele>602.40002441406</ele>
        <time>2019-10-10T13:27:59Z</time>
      </trkpt>
      <trkpt lat="44.60151" lon="5.45884">
        <ele>602</ele>
        <time>2019-10-10T13:28:04Z</time>
      </trkpt>
      <trkpt lat="44.60142" lon="5.45873">
        <ele>602.40002441406</ele>
        <time>2019-10-10T13:28:41Z</time>
      </trkpt>
      <trkpt lat="44.60132" lon="5.45861">
        <ele>602.59997558594</ele>
        <time>2019-10-10T13:28:47Z</time>
      </trkpt>
      <trkpt lat="44.6012" lon="5.45848">
        <ele>602.59997558594</ele>
        <time>2019-10-10T13:28:51Z</time>
      </trkpt>
      <trkpt lat="44.60077" lon="5.45841">
        <ele>602.20001220703</ele>
        <time>2019-10-10T13:29:02Z</time>
      </trkpt>
      <trkpt lat="44.60043" lon="5.45855">
        <ele>602</ele>
        <time>2019-10-10T13:29:08Z</time>
      </trkpt>
      <trkpt lat="44.59999" lon="5.45886">
        <ele>601.79998779297</ele>
        <time>2019-10-10T13:29:18Z</time>
      </trkpt>
      <trkpt lat="44.59986" lon="5.45894">
        <ele>602</ele>
        <time>2019-10-10T13:29:22Z</time>
      </trkpt>
      <trkpt lat="44.59961" lon="5.45901">
        <ele>602.20001220703</ele>
        <time>2019-10-10T13:29:29Z</time>
      </trkpt>
      <trkpt lat="44.59952" lon="5.45901">
        <ele>602.79998779297</ele>
        <time>2019-10-10T13:29:33Z</time>
      </trkpt>
      <trkpt lat="44.59913" lon="5.45898">
        <ele>603.40002441406</ele>
        <time>2019-10-10T13:29:42Z</time>
      </trkpt>
      <trkpt lat="44.59872" lon="5.45897">
        <ele>604.59997558594</ele>
        <time>2019-10-10T13:29:52Z</time>
      </trkpt>
      <trkpt lat="44.59853" lon="5.459">
        <ele>605.79998779297</ele>
        <time>2019-10-10T13:30:01Z</time>
      </trkpt>
      <trkpt lat="44.59814" lon="5.45932">
        <ele>607.59997558594</ele>
        <time>2019-10-10T13:30:15Z</time>
      </trkpt>
      <trkpt lat="44.59802" lon="5.45955">
        <ele>608.59997558594</ele>
        <time>2019-10-10T13:30:21Z</time>
      </trkpt>
      <trkpt lat="44.59799" lon="5.45968">
        <ele>608.79998779297</ele>
        <time>2019-10-10T13:30:25Z</time>
      </trkpt>
      <trkpt lat="44.59796" lon="5.45983">
        <ele>610</ele>
        <time>2019-10-10T13:30:30Z</time>
      </trkpt>
      <trkpt lat="44.59792" lon="5.46041">
        <ele>611.79998779297</ele>
        <time>2019-10-10T13:30:47Z</time>
      </trkpt>
      <trkpt lat="44.5979" lon="5.46064">
        <ele>612</ele>
        <time>2019-10-10T13:30:54Z</time>
      </trkpt>
      <trkpt lat="44.59789" lon="5.46117">
        <ele>613.59997558594</ele>
        <time>2019-10-10T13:31:08Z</time>
      </trkpt>
      <trkpt lat="44.59791" lon="5.46148">
        <ele>614.40002441406</ele>
        <time>2019-10-10T13:31:17Z</time>
      </trkpt>
      <trkpt lat="44.59797" lon="5.46194">
        <ele>615</ele>
        <time>2019-10-10T13:31:32Z</time>
      </trkpt>
      <trkpt lat="44.59804" lon="5.46215">
        <ele>615.40002441406</ele>
        <time>2019-10-10T13:31:39Z</time>
      </trkpt>
      <trkpt lat="44.59817" lon="5.46244">
        <ele>616.40002441406</ele>
        <time>2019-10-10T13:31:47Z</time>
      </trkpt>
      <trkpt lat="44.5983" lon="5.46272">
        <ele>618.59997558594</ele>
        <time>2019-10-10T13:31:56Z</time>
      </trkpt>
      <trkpt lat="44.59853" lon="5.46302">
        <ele>620.59997558594</ele>
        <time>2019-10-10T13:32:06Z</time>
      </trkpt>
      <trkpt lat="44.59889" lon="5.46336">
        <ele>622</ele>
        <time>2019-10-10T13:32:22Z</time>
      </trkpt>
      <trkpt lat="44.59905" lon="5.46331">
        <ele>622.40002441406</ele>
        <time>2019-10-10T13:32:25Z</time>
      </trkpt>
      <trkpt lat="44.59892" lon="5.46314">
        <ele>623</ele>
        <time>2019-10-10T13:32:31Z</time>
      </trkpt>
      <trkpt lat="44.59888" lon="5.46309">
        <ele>623.79998779297</ele>
        <time>2019-10-10T13:33:02Z</time>
      </trkpt>
      <trkpt lat="44.59889" lon="5.46327">
        <ele>623.79998779297</ele>
        <time>2019-10-10T13:33:07Z</time>
      </trkpt>
      <trkpt lat="44.59902" lon="5.46346">
        <ele>624.20001220703</ele>
        <time>2019-10-10T13:33:14Z</time>
      </trkpt>
      <trkpt lat="44.59929" lon="5.46355">
        <ele>624.59997558594</ele>
        <time>2019-10-10T13:33:23Z</time>
      </trkpt>
      <trkpt lat="44.59955" lon="5.46352">
        <ele>624.79998779297</ele>
        <time>2019-10-10T13:33:31Z</time>
      </trkpt>
      <trkpt lat="44.59992" lon="5.4634">
        <ele>627</ele>
        <time>2019-10-10T13:33:42Z</time>
      </trkpt>
      <trkpt lat="44.60009" lon="5.46329">
        <ele>627.79998779297</ele>
        <time>2019-10-10T13:33:47Z</time>
      </trkpt>
      <trkpt lat="44.60039" lon="5.46305">
        <ele>629.79998779297</ele>
        <time>2019-10-10T13:33:59Z</time>
      </trkpt>
      <trkpt lat="44.60055" lon="5.46285">
        <ele>630.20001220703</ele>
        <time>2019-10-10T13:34:09Z</time>
      </trkpt>
      <trkpt lat="44.60069" lon="5.46269">
        <ele>630.59997558594</ele>
        <time>2019-10-10T13:34:16Z</time>
      </trkpt>
      <trkpt lat="44.60093" lon="5.46249">
        <ele>632.59997558594</ele>
        <time>2019-10-10T13:34:26Z</time>
      </trkpt>
      <trkpt lat="44.60115" lon="5.46231">
        <ele>633.59997558594</ele>
        <time>2019-10-10T13:34:35Z</time>
      </trkpt>
      <trkpt lat="44.60152" lon="5.4622">
        <ele>635.40002441406</ele>
        <time>2019-10-10T13:34:47Z</time>
      </trkpt>
      <trkpt lat="44.60163" lon="5.46223">
        <ele>636</ele>
        <time>2019-10-10T13:34:51Z</time>
      </trkpt>
      <trkpt lat="44.60199" lon="5.46234">
        <ele>637.79998779297</ele>
        <time>2019-10-10T13:35:04Z</time>
      </trkpt>
      <trkpt lat="44.60224" lon="5.46245">
        <ele>639.20001220703</ele>
        <time>2019-10-10T13:35:13Z</time>
      </trkpt>
      <trkpt lat="44.60252" lon="5.46271">
        <ele>640.79998779297</ele>
        <time>2019-10-10T13:35:22Z</time>
      </trkpt>
      <trkpt lat="44.60266" lon="5.46292">
        <ele>641</ele>
        <time>2019-10-10T13:35:28Z</time>
      </trkpt>
      <trkpt lat="44.60279" lon="5.46318">
        <ele>641.20001220703</ele>
        <time>2019-10-10T13:35:33Z</time>
      </trkpt>
      <trkpt lat="44.60286" lon="5.46378">
        <ele>641.79998779297</ele>
        <time>2019-10-10T13:35:42Z</time>
      </trkpt>
      <trkpt lat="44.60267" lon="5.46455">
        <ele>642.40002441406</ele>
        <time>2019-10-10T13:35:55Z</time>
      </trkpt>
      <trkpt lat="44.60235" lon="5.46505">
        <ele>643</ele>
        <time>2019-10-10T13:36:04Z</time>
      </trkpt>
      <trkpt lat="44.60167" lon="5.46572">
        <ele>644</ele>
        <time>2019-10-10T13:36:19Z</time>
      </trkpt>
      <trkpt lat="44.60095" lon="5.46636">
        <ele>643</ele>
        <time>2019-10-10T13:36:34Z</time>
      </trkpt>
      <trkpt lat="44.60071" lon="5.46659">
        <ele>642.79998779297</ele>
        <time>2019-10-10T13:36:39Z</time>
      </trkpt>
      <trkpt lat="44.60013" lon="5.46712">
        <ele>641.59997558594</ele>
        <time>2019-10-10T13:36:50Z</time>
      </trkpt>
      <trkpt lat="44.59953" lon="5.46766">
        <ele>640.59997558594</ele>
        <time>2019-10-10T13:37:00Z</time>
      </trkpt>
      <trkpt lat="44.59859" lon="5.4685">
        <ele>640.20001220703</ele>
        <time>2019-10-10T13:37:17Z</time>
      </trkpt>
      <trkpt lat="44.59819" lon="5.46884">
        <ele>640</ele>
        <time>2019-10-10T13:37:24Z</time>
      </trkpt>
      <trkpt lat="44.59729" lon="5.46964">
        <ele>640</ele>
        <time>2019-10-10T13:37:40Z</time>
      </trkpt>
      <trkpt lat="44.59671" lon="5.47015">
        <ele>638</ele>
        <time>2019-10-10T13:37:51Z</time>
      </trkpt>
      <trkpt lat="44.59629" lon="5.47053">
        <ele>637.59997558594</ele>
        <time>2019-10-10T13:38:00Z</time>
      </trkpt>
      <trkpt lat="44.59559" lon="5.47115">
        <ele>636.79998779297</ele>
        <time>2019-10-10T13:38:14Z</time>
      </trkpt>
      <trkpt lat="44.5953" lon="5.47136">
        <ele>637.20001220703</ele>
        <time>2019-10-10T13:38:20Z</time>
      </trkpt>
      <trkpt lat="44.59497" lon="5.47153">
        <ele>638.59997558594</ele>
        <time>2019-10-10T13:38:28Z</time>
      </trkpt>
      <trkpt lat="44.59441" lon="5.47203">
        <ele>640.20001220703</ele>
        <time>2019-10-10T13:38:42Z</time>
      </trkpt>
      <trkpt lat="44.59401" lon="5.47254">
        <ele>640</ele>
        <time>2019-10-10T13:38:52Z</time>
      </trkpt>
      <trkpt lat="44.5938" lon="5.47276">
        <ele>639.79998779297</ele>
        <time>2019-10-10T13:38:57Z</time>
      </trkpt>
      <trkpt lat="44.5933" lon="5.47321">
        <ele>639.79998779297</ele>
        <time>2019-10-10T13:39:11Z</time>
      </trkpt>
      <trkpt lat="44.59314" lon="5.47335">
        <ele>640</ele>
        <time>2019-10-10T13:39:17Z</time>
      </trkpt>
      <trkpt lat="44.59293" lon="5.47354">
        <ele>639.79998779297</ele>
        <time>2019-10-10T13:39:23Z</time>
      </trkpt>
      <trkpt lat="44.59252" lon="5.47389">
        <ele>639.79998779297</ele>
        <time>2019-10-10T13:39:32Z</time>
      </trkpt>
      <trkpt lat="44.59174" lon="5.47457">
        <ele>639.59997558594</ele>
        <time>2019-10-10T13:39:48Z</time>
      </trkpt>
      <trkpt lat="44.59129" lon="5.47497">
        <ele>639.79998779297</ele>
        <time>2019-10-10T13:39:57Z</time>
      </trkpt>
      <trkpt lat="44.59026" lon="5.47585">
        <ele>640.20001220703</ele>
        <time>2019-10-10T13:40:17Z</time>
      </trkpt>
      <trkpt lat="44.58993" lon="5.47612">
        <ele>640.40002441406</ele>
        <time>2019-10-10T13:40:23Z</time>
      </trkpt>
      <trkpt lat="44.58877" lon="5.47706">
        <ele>640.79998779297</ele>
        <time>2019-10-10T13:40:45Z</time>
      </trkpt>
      <trkpt lat="44.58794" lon="5.47774">
        <ele>641.40002441406</ele>
        <time>2019-10-10T13:41:01Z</time>
      </trkpt>
      <trkpt lat="44.58736" lon="5.47821">
        <ele>641.40002441406</ele>
        <time>2019-10-10T13:41:11Z</time>
      </trkpt>
      <trkpt lat="44.58631" lon="5.47906">
        <ele>641.40002441406</ele>
        <time>2019-10-10T13:41:29Z</time>
      </trkpt>
      <trkpt lat="44.58589" lon="5.47941">
        <ele>641.59997558594</ele>
        <time>2019-10-10T13:41:38Z</time>
      </trkpt>
      <trkpt lat="44.5851" lon="5.48004">
        <ele>641.20001220703</ele>
        <time>2019-10-10T13:41:53Z</time>
      </trkpt>
      <trkpt lat="44.58437" lon="5.48064">
        <ele>641.20001220703</ele>
        <time>2019-10-10T13:42:07Z</time>
      </trkpt>
      <trkpt lat="44.58363" lon="5.48124">
        <ele>641.59997558594</ele>
        <time>2019-10-10T13:42:25Z</time>
      </trkpt>
      <trkpt lat="44.58301" lon="5.48162">
        <ele>641.40002441406</ele>
        <time>2019-10-10T13:42:40Z</time>
      </trkpt>
      <trkpt lat="44.58225" lon="5.48197">
        <ele>641.40002441406</ele>
        <time>2019-10-10T13:42:52Z</time>
      </trkpt>
      <trkpt lat="44.58164" lon="5.4824">
        <ele>642</ele>
        <time>2019-10-10T13:43:04Z</time>
      </trkpt>
      <trkpt lat="44.58093" lon="5.48304">
        <ele>642.79998779297</ele>
        <time>2019-10-10T13:43:20Z</time>
      </trkpt>
      <trkpt lat="44.58059" lon="5.48334">
        <ele>643.59997558594</ele>
        <time>2019-10-10T13:43:28Z</time>
      </trkpt>
      <trkpt lat="44.58003" lon="5.48395">
        <ele>645.59997558594</ele>
        <time>2019-10-10T13:43:42Z</time>
      </trkpt>
      <trkpt lat="44.57958" lon="5.48457">
        <ele>646.20001220703</ele>
        <time>2019-10-10T13:43:54Z</time>
      </trkpt>
      <trkpt lat="44.57915" lon="5.4854">
        <ele>646.79998779297</ele>
        <time>2019-10-10T13:44:06Z</time>
      </trkpt>
      <trkpt lat="44.57904" lon="5.48566">
        <ele>647.20001220703</ele>
        <time>2019-10-10T13:44:10Z</time>
      </trkpt>
      <trkpt lat="44.57888" lon="5.48603">
        <ele>647.40002441406</ele>
        <time>2019-10-10T13:44:17Z</time>
      </trkpt>
      <trkpt lat="44.5789" lon="5.48607">
        <ele>647.59997558594</ele>
        <time>2019-10-10T13:44:22Z</time>
      </trkpt>
      <trkpt lat="44.57899" lon="5.48608">
        <ele>648</ele>
        <time>2019-10-10T13:48:18Z</time>
      </trkpt>
      <trkpt lat="44.57951" lon="5.48641">
        <ele>648.40002441406</ele>
        <time>2019-10-10T13:48:32Z</time>
      </trkpt>
      <trkpt lat="44.57964" lon="5.4865">
        <ele>648.59997558594</ele>
        <time>2019-10-10T13:48:37Z</time>
      </trkpt>
      <trkpt lat="44.57985" lon="5.48663">
        <ele>649.40002441406</ele>
        <time>2019-10-10T13:48:44Z</time>
      </trkpt>
      <trkpt lat="44.58004" lon="5.48673">
        <ele>650.40002441406</ele>
        <time>2019-10-10T13:48:53Z</time>
      </trkpt>
      <trkpt lat="44.58014" lon="5.48683">
        <ele>652</ele>
        <time>2019-10-10T13:48:59Z</time>
      </trkpt>
      <trkpt lat="44.58022" lon="5.48689">
        <ele>652.40002441406</ele>
        <time>2019-10-10T13:49:03Z</time>
      </trkpt>
      <trkpt lat="44.58038" lon="5.48703">
        <ele>654.20001220703</ele>
        <time>2019-10-10T13:49:14Z</time>
      </trkpt>
      <trkpt lat="44.58053" lon="5.48716">
        <ele>655.59997558594</ele>
        <time>2019-10-10T13:49:22Z</time>
      </trkpt>
      <trkpt lat="44.58068" lon="5.48729">
        <ele>657.40002441406</ele>
        <time>2019-10-10T13:49:31Z</time>
      </trkpt>
      <trkpt lat="44.58087" lon="5.48744">
        <ele>659</ele>
        <time>2019-10-10T13:49:42Z</time>
      </trkpt>
      <trkpt lat="44.58103" lon="5.48756">
        <ele>661.20001220703</ele>
        <time>2019-10-10T13:49:51Z</time>
      </trkpt>
      <trkpt lat="44.58122" lon="5.48772">
        <ele>663</ele>
        <time>2019-10-10T13:50:03Z</time>
      </trkpt>
      <trkpt lat="44.58135" lon="5.48782">
        <ele>664.59997558594</ele>
        <time>2019-10-10T13:50:11Z</time>
      </trkpt>
      <trkpt lat="44.58151" lon="5.48798">
        <ele>666.59997558594</ele>
        <time>2019-10-10T13:50:22Z</time>
      </trkpt>
      <trkpt lat="44.58164" lon="5.48812">
        <ele>667.79998779297</ele>
        <time>2019-10-10T13:50:31Z</time>
      </trkpt>
      <trkpt lat="44.58181" lon="5.48832">
        <ele>669.79998779297</ele>
        <time>2019-10-10T13:50:44Z</time>
      </trkpt>
      <trkpt lat="44.58193" lon="5.4884">
        <ele>670.79998779297</ele>
        <time>2019-10-10T13:50:51Z</time>
      </trkpt>
      <trkpt lat="44.58214" lon="5.48857">
        <ele>673.79998779297</ele>
        <time>2019-10-10T13:51:05Z</time>
      </trkpt>
      <trkpt lat="44.5822" lon="5.48872">
        <ele>675.20001220703</ele>
        <time>2019-10-10T13:51:11Z</time>
      </trkpt>
      <trkpt lat="44.58242" lon="5.489">
        <ele>677.40002441406</ele>
        <time>2019-10-10T13:51:25Z</time>
      </trkpt>
      <trkpt lat="44.58256" lon="5.489">
        <ele>679.20001220703</ele>
        <time>2019-10-10T13:51:33Z</time>
      </trkpt>
      <trkpt lat="44.58274" lon="5.48907">
        <ele>680.59997558594</ele>
        <time>2019-10-10T13:51:41Z</time>
      </trkpt>
      <trkpt lat="44.58276" lon="5.48934">
        <ele>682.20001220703</ele>
        <time>2019-10-10T13:51:50Z</time>
      </trkpt>
      <trkpt lat="44.58283" lon="5.48952">
        <ele>683.59997558594</ele>
        <time>2019-10-10T13:51:58Z</time>
      </trkpt>
      <trkpt lat="44.58291" lon="5.48978">
        <ele>685</ele>
        <time>2019-10-10T13:52:07Z</time>
      </trkpt>
      <trkpt lat="44.58301" lon="5.48998">
        <ele>686.20001220703</ele>
        <time>2019-10-10T13:52:16Z</time>
      </trkpt>
      <trkpt lat="44.58329" lon="5.49029">
        <ele>688.20001220703</ele>
        <time>2019-10-10T13:52:32Z</time>
      </trkpt>
      <trkpt lat="44.58341" lon="5.49038">
        <ele>689.59997558594</ele>
        <time>2019-10-10T13:52:40Z</time>
      </trkpt>
      <trkpt lat="44.5836" lon="5.49031">
        <ele>691</ele>
        <time>2019-10-10T13:52:49Z</time>
      </trkpt>
      <trkpt lat="44.58377" lon="5.49025">
        <ele>692.40002441406</ele>
        <time>2019-10-10T13:52:56Z</time>
      </trkpt>
      <trkpt lat="44.58405" lon="5.49016">
        <ele>695</ele>
        <time>2019-10-10T13:53:08Z</time>
      </trkpt>
      <trkpt lat="44.58422" lon="5.4901">
        <ele>697</ele>
        <time>2019-10-10T13:53:16Z</time>
      </trkpt>
      <trkpt lat="44.58447" lon="5.49">
        <ele>699</ele>
        <time>2019-10-10T13:53:27Z</time>
      </trkpt>
      <trkpt lat="44.58458" lon="5.48991">
        <ele>700.20001220703</ele>
        <time>2019-10-10T13:53:36Z</time>
      </trkpt>
      <trkpt lat="44.58458" lon="5.48986">
        <ele>701</ele>
        <time>2019-10-10T13:53:40Z</time>
      </trkpt>
      <trkpt lat="44.58428" lon="5.48991">
        <ele>702.79998779297</ele>
        <time>2019-10-10T13:53:53Z</time>
      </trkpt>
      <trkpt lat="44.58416" lon="5.48993">
        <ele>703.40002441406</ele>
        <time>2019-10-10T13:53:58Z</time>
      </trkpt>
      <trkpt lat="44.58392" lon="5.48997">
        <ele>705.59997558594</ele>
        <time>2019-10-10T13:54:09Z</time>
      </trkpt>
      <trkpt lat="44.58373" lon="5.48999">
        <ele>707.40002441406</ele>
        <time>2019-10-10T13:54:17Z</time>
      </trkpt>
      <trkpt lat="44.58353" lon="5.48991">
        <ele>708.79998779297</ele>
        <time>2019-10-10T13:54:27Z</time>
      </trkpt>
      <trkpt lat="44.58341" lon="5.48975">
        <ele>710</ele>
        <time>2019-10-10T13:54:34Z</time>
      </trkpt>
      <trkpt lat="44.58329" lon="5.48954">
        <ele>711.59997558594</ele>
        <time>2019-10-10T13:54:43Z</time>
      </trkpt>
      <trkpt lat="44.58323" lon="5.48933">
        <ele>713.40002441406</ele>
        <time>2019-10-10T13:54:52Z</time>
      </trkpt>
      <trkpt lat="44.58325" lon="5.48902">
        <ele>715.20001220703</ele>
        <time>2019-10-10T13:55:06Z</time>
      </trkpt>
      <trkpt lat="44.58333" lon="5.48926">
        <ele>716.40002441406</ele>
        <time>2019-10-10T13:55:13Z</time>
      </trkpt>
      <trkpt lat="44.58358" lon="5.48956">
        <ele>719.20001220703</ele>
        <time>2019-10-10T13:55:28Z</time>
      </trkpt>
      <trkpt lat="44.58369" lon="5.48964">
        <ele>719.40002441406</ele>
        <time>2019-10-10T13:55:34Z</time>
      </trkpt>
      <trkpt lat="44.58396" lon="5.4896">
        <ele>722</ele>
        <time>2019-10-10T13:55:48Z</time>
      </trkpt>
      <trkpt lat="44.58408" lon="5.48958">
        <ele>723</ele>
        <time>2019-10-10T13:55:53Z</time>
      </trkpt>
      <trkpt lat="44.58434" lon="5.48947">
        <ele>726.40002441406</ele>
        <time>2019-10-10T13:56:05Z</time>
      </trkpt>
      <trkpt lat="44.58457" lon="5.48936">
        <ele>728.40002441406</ele>
        <time>2019-10-10T13:56:17Z</time>
      </trkpt>
      <trkpt lat="44.58475" lon="5.48922">
        <ele>729.20001220703</ele>
        <time>2019-10-10T13:56:27Z</time>
      </trkpt>
      <trkpt lat="44.58491" lon="5.48926">
        <ele>730.40002441406</ele>
        <time>2019-10-10T13:56:35Z</time>
      </trkpt>
      <trkpt lat="44.58507" lon="5.48927">
        <ele>731.79998779297</ele>
        <time>2019-10-10T13:56:43Z</time>
      </trkpt>
      <trkpt lat="44.5853" lon="5.48913">
        <ele>733.79998779297</ele>
        <time>2019-10-10T13:56:54Z</time>
      </trkpt>
      <trkpt lat="44.58543" lon="5.489">
        <ele>735</ele>
        <time>2019-10-10T13:57:02Z</time>
      </trkpt>
      <trkpt lat="44.58572" lon="5.48878">
        <ele>737.79998779297</ele>
        <time>2019-10-10T13:57:17Z</time>
      </trkpt>
      <trkpt lat="44.58586" lon="5.48869">
        <ele>738.79998779297</ele>
        <time>2019-10-10T13:57:23Z</time>
      </trkpt>
      <trkpt lat="44.58623" lon="5.48863">
        <ele>741.20001220703</ele>
        <time>2019-10-10T13:57:37Z</time>
      </trkpt>
      <trkpt lat="44.58648" lon="5.48865">
        <ele>742.59997558594</ele>
        <time>2019-10-10T13:57:46Z</time>
      </trkpt>
      <trkpt lat="44.58674" lon="5.48874">
        <ele>744.79998779297</ele>
        <time>2019-10-10T13:57:56Z</time>
      </trkpt>
      <trkpt lat="44.58687" lon="5.48875">
        <ele>745.59997558594</ele>
        <time>2019-10-10T13:58:00Z</time>
      </trkpt>
      <trkpt lat="44.58718" lon="5.48879">
        <ele>747.79998779297</ele>
        <time>2019-10-10T13:58:10Z</time>
      </trkpt>
      <trkpt lat="44.58738" lon="5.48879">
        <ele>749.79998779297</ele>
        <time>2019-10-10T13:58:19Z</time>
      </trkpt>
      <trkpt lat="44.58758" lon="5.48879">
        <ele>752</ele>
        <time>2019-10-10T13:58:27Z</time>
      </trkpt>
      <trkpt lat="44.58783" lon="5.48882">
        <ele>754</ele>
        <time>2019-10-10T13:58:36Z</time>
      </trkpt>
      <trkpt lat="44.58797" lon="5.48885">
        <ele>755.40002441406</ele>
        <time>2019-10-10T13:58:41Z</time>
      </trkpt>
      <trkpt lat="44.5881" lon="5.48888">
        <ele>757</ele>
        <time>2019-10-10T13:58:47Z</time>
      </trkpt>
      <trkpt lat="44.5883" lon="5.48903">
        <ele>758.59997558594</ele>
        <time>2019-10-10T13:58:55Z</time>
      </trkpt>
      <trkpt lat="44.58858" lon="5.48945">
        <ele>762</ele>
        <time>2019-10-10T13:59:09Z</time>
      </trkpt>
      <trkpt lat="44.58866" lon="5.48969">
        <ele>763.20001220703</ele>
        <time>2019-10-10T13:59:16Z</time>
      </trkpt>
      <trkpt lat="44.58862" lon="5.48989">
        <ele>764.20001220703</ele>
        <time>2019-10-10T13:59:23Z</time>
      </trkpt>
      <trkpt lat="44.58826" lon="5.49001">
        <ele>766</ele>
        <time>2019-10-10T13:59:35Z</time>
      </trkpt>
      <trkpt lat="44.58806" lon="5.49008">
        <ele>766.40002441406</ele>
        <time>2019-10-10T13:59:43Z</time>
      </trkpt>
      <trkpt lat="44.58789" lon="5.49019">
        <ele>767</ele>
        <time>2019-10-10T13:59:51Z</time>
      </trkpt>
      <trkpt lat="44.58775" lon="5.49043">
        <ele>769.20001220703</ele>
        <time>2019-10-10T14:00:00Z</time>
      </trkpt>
      <trkpt lat="44.58763" lon="5.49069">
        <ele>770.79998779297</ele>
        <time>2019-10-10T14:00:09Z</time>
      </trkpt>
      <trkpt lat="44.58753" lon="5.49093">
        <ele>771.40002441406</ele>
        <time>2019-10-10T14:00:16Z</time>
      </trkpt>
      <trkpt lat="44.58739" lon="5.49125">
        <ele>773</ele>
        <time>2019-10-10T14:00:25Z</time>
      </trkpt>
      <trkpt lat="44.5873" lon="5.49149">
        <ele>774.59997558594</ele>
        <time>2019-10-10T14:00:32Z</time>
      </trkpt>
      <trkpt lat="44.58723" lon="5.49187">
        <ele>776.79998779297</ele>
        <time>2019-10-10T14:00:44Z</time>
      </trkpt>
      <trkpt lat="44.58723" lon="5.49203">
        <ele>778.20001220703</ele>
        <time>2019-10-10T14:00:51Z</time>
      </trkpt>
      <trkpt lat="44.58724" lon="5.49209">
        <ele>778.79998779297</ele>
        <time>2019-10-10T14:02:30Z</time>
      </trkpt>
      <trkpt lat="44.58727" lon="5.49227">
        <ele>779</ele>
        <time>2019-10-10T14:02:36Z</time>
      </trkpt>
      <trkpt lat="44.5873" lon="5.49245">
        <ele>779.79998779297</ele>
        <time>2019-10-10T14:02:42Z</time>
      </trkpt>
      <trkpt lat="44.58734" lon="5.49265">
        <ele>780.40002441406</ele>
        <time>2019-10-10T14:02:47Z</time>
      </trkpt>
      <trkpt lat="44.58738" lon="5.49292">
        <ele>782.20001220703</ele>
        <time>2019-10-10T14:02:55Z</time>
      </trkpt>
      <trkpt lat="44.58739" lon="5.49307">
        <ele>783.40002441406</ele>
        <time>2019-10-10T14:03:00Z</time>
      </trkpt>
      <trkpt lat="44.58737" lon="5.49342">
        <ele>785.59997558594</ele>
        <time>2019-10-10T14:03:12Z</time>
      </trkpt>
      <trkpt lat="44.58737" lon="5.49355">
        <ele>786.40002441406</ele>
        <time>2019-10-10T14:03:17Z</time>
      </trkpt>
      <trkpt lat="44.5876" lon="5.4937">
        <ele>789.20001220703</ele>
        <time>2019-10-10T14:03:29Z</time>
      </trkpt>
      <trkpt lat="44.58774" lon="5.49377">
        <ele>790.20001220703</ele>
        <time>2019-10-10T14:03:37Z</time>
      </trkpt>
      <trkpt lat="44.58784" lon="5.49383">
        <ele>791.20001220703</ele>
        <time>2019-10-10T14:03:42Z</time>
      </trkpt>
      <trkpt lat="44.58802" lon="5.49393">
        <ele>793.20001220703</ele>
        <time>2019-10-10T14:03:51Z</time>
      </trkpt>
      <trkpt lat="44.58821" lon="5.49405">
        <ele>795.79998779297</ele>
        <time>2019-10-10T14:04:01Z</time>
      </trkpt>
      <trkpt lat="44.58843" lon="5.49402">
        <ele>797.59997558594</ele>
        <time>2019-10-10T14:04:12Z</time>
      </trkpt>
      <trkpt lat="44.58842" lon="5.4939">
        <ele>797.79998779297</ele>
        <time>2019-10-10T14:04:14Z</time>
      </trkpt>
      <trkpt lat="44.5882" lon="5.4938">
        <ele>799.40002441406</ele>
        <time>2019-10-10T14:04:24Z</time>
      </trkpt>
      <trkpt lat="44.58805" lon="5.49364">
        <ele>800.79998779297</ele>
        <time>2019-10-10T14:04:33Z</time>
      </trkpt>
      <trkpt lat="44.58797" lon="5.49332">
        <ele>803.20001220703</ele>
        <time>2019-10-10T14:04:48Z</time>
      </trkpt>
      <trkpt lat="44.58804" lon="5.49317">
        <ele>804</ele>
        <time>2019-10-10T14:04:56Z</time>
      </trkpt>
      <trkpt lat="44.5882" lon="5.49297">
        <ele>806</ele>
        <time>2019-10-10T14:05:08Z</time>
      </trkpt>
      <trkpt lat="44.58835" lon="5.49281">
        <ele>807.40002441406</ele>
        <time>2019-10-10T14:05:18Z</time>
      </trkpt>
      <trkpt lat="44.58849" lon="5.49252">
        <ele>809.59997558594</ele>
        <time>2019-10-10T14:05:30Z</time>
      </trkpt>
      <trkpt lat="44.58857" lon="5.4923">
        <ele>811</ele>
        <time>2019-10-10T14:05:38Z</time>
      </trkpt>
      <trkpt lat="44.58871" lon="5.49223">
        <ele>812.40002441406</ele>
        <time>2019-10-10T14:05:47Z</time>
      </trkpt>
      <trkpt lat="44.58891" lon="5.49215">
        <ele>814.20001220703</ele>
        <time>2019-10-10T14:05:57Z</time>
      </trkpt>
      <trkpt lat="44.58903" lon="5.49209">
        <ele>815.20001220703</ele>
        <time>2019-10-10T14:06:03Z</time>
      </trkpt>
      <trkpt lat="44.58927" lon="5.49182">
        <ele>817.20001220703</ele>
        <time>2019-10-10T14:06:16Z</time>
      </trkpt>
      <trkpt lat="44.58949" lon="5.49173">
        <ele>818.40002441406</ele>
        <time>2019-10-10T14:06:26Z</time>
      </trkpt>
      <trkpt lat="44.58972" lon="5.49161">
        <ele>821</ele>
        <time>2019-10-10T14:06:38Z</time>
      </trkpt>
      <trkpt lat="44.58979" lon="5.49157">
        <ele>821.79998779297</ele>
        <time>2019-10-10T14:06:42Z</time>
      </trkpt>
      <trkpt lat="44.58985" lon="5.49171">
        <ele>822.20001220703</ele>
        <time>2019-10-10T14:06:46Z</time>
      </trkpt>
      <trkpt lat="44.58979" lon="5.49175">
        <ele>823.40002441406</ele>
        <time>2019-10-10T14:06:50Z</time>
      </trkpt>
      <trkpt lat="44.58956" lon="5.49205">
        <ele>825.40002441406</ele>
        <time>2019-10-10T14:07:04Z</time>
      </trkpt>
      <trkpt lat="44.58946" lon="5.49216">
        <ele>827</ele>
        <time>2019-10-10T14:07:12Z</time>
      </trkpt>
      <trkpt lat="44.58924" lon="5.49234">
        <ele>829</ele>
        <time>2019-10-10T14:07:22Z</time>
      </trkpt>
      <trkpt lat="44.58907" lon="5.4925">
        <ele>830.59997558594</ele>
        <time>2019-10-10T14:07:31Z</time>
      </trkpt>
      <trkpt lat="44.589" lon="5.49268">
        <ele>831.59997558594</ele>
        <time>2019-10-10T14:07:38Z</time>
      </trkpt>
      <trkpt lat="44.58904" lon="5.49296">
        <ele>834.20001220703</ele>
        <time>2019-10-10T14:07:51Z</time>
      </trkpt>
      <trkpt lat="44.58911" lon="5.49305">
        <ele>835.20001220703</ele>
        <time>2019-10-10T14:07:56Z</time>
      </trkpt>
      <trkpt lat="44.58931" lon="5.4933">
        <ele>837.79998779297</ele>
        <time>2019-10-10T14:08:08Z</time>
      </trkpt>
      <trkpt lat="44.58943" lon="5.49347">
        <ele>839.79998779297</ele>
        <time>2019-10-10T14:08:18Z</time>
      </trkpt>
      <trkpt lat="44.58956" lon="5.49368">
        <ele>841.79998779297</ele>
        <time>2019-10-10T14:08:29Z</time>
      </trkpt>
      <trkpt lat="44.58962" lon="5.4939">
        <ele>843.59997558594</ele>
        <time>2019-10-10T14:08:37Z</time>
      </trkpt>
      <trkpt lat="44.5897" lon="5.49426">
        <ele>845.79998779297</ele>
        <time>2019-10-10T14:08:50Z</time>
      </trkpt>
      <trkpt lat="44.58976" lon="5.49445">
        <ele>847</ele>
        <time>2019-10-10T14:08:56Z</time>
      </trkpt>
      <trkpt lat="44.58989" lon="5.49482">
        <ele>848.79998779297</ele>
        <time>2019-10-10T14:09:10Z</time>
      </trkpt>
      <trkpt lat="44.58993" lon="5.49497">
        <ele>850</ele>
        <time>2019-10-10T14:09:15Z</time>
      </trkpt>
      <trkpt lat="44.59003" lon="5.49526">
        <ele>852.40002441406</ele>
        <time>2019-10-10T14:09:25Z</time>
      </trkpt>
      <trkpt lat="44.59012" lon="5.49539">
        <ele>853.59997558594</ele>
        <time>2019-10-10T14:09:32Z</time>
      </trkpt>
      <trkpt lat="44.59018" lon="5.49548">
        <ele>855.20001220703</ele>
        <time>2019-10-10T14:09:38Z</time>
      </trkpt>
      <trkpt lat="44.5905" lon="5.49547">
        <ele>858.20001220703</ele>
        <time>2019-10-10T14:09:53Z</time>
      </trkpt>
      <trkpt lat="44.59072" lon="5.49546">
        <ele>859.79998779297</ele>
        <time>2019-10-10T14:10:03Z</time>
      </trkpt>
      <trkpt lat="44.59094" lon="5.49545">
        <ele>861.59997558594</ele>
        <time>2019-10-10T14:10:14Z</time>
      </trkpt>
      <trkpt lat="44.5911" lon="5.49544">
        <ele>863</ele>
        <time>2019-10-10T14:10:22Z</time>
      </trkpt>
      <trkpt lat="44.59121" lon="5.49546">
        <ele>865.20001220703</ele>
        <time>2019-10-10T14:10:36Z</time>
      </trkpt>
      <trkpt lat="44.59128" lon="5.49548">
        <ele>865.59997558594</ele>
        <time>2019-10-10T14:10:41Z</time>
      </trkpt>
      <trkpt lat="44.59139" lon="5.49551">
        <ele>866.79998779297</ele>
        <time>2019-10-10T14:12:11Z</time>
      </trkpt>
      <trkpt lat="44.59148" lon="5.49553">
        <ele>867.20001220703</ele>
        <time>2019-10-10T14:12:16Z</time>
      </trkpt>
      <trkpt lat="44.59162" lon="5.49555">
        <ele>868.20001220703</ele>
        <time>2019-10-10T14:12:23Z</time>
      </trkpt>
      <trkpt lat="44.59171" lon="5.49555">
        <ele>868.79998779297</ele>
        <time>2019-10-10T14:12:27Z</time>
      </trkpt>
      <trkpt lat="44.59185" lon="5.49555">
        <ele>869.59997558594</ele>
        <time>2019-10-10T14:12:34Z</time>
      </trkpt>
      <trkpt lat="44.59201" lon="5.49555">
        <ele>871.40002441406</ele>
        <time>2019-10-10T14:12:41Z</time>
      </trkpt>
      <trkpt lat="44.5924" lon="5.49571">
        <ele>874.20001220703</ele>
        <time>2019-10-10T14:12:59Z</time>
      </trkpt>
      <trkpt lat="44.59246" lon="5.49619">
        <ele>876</ele>
        <time>2019-10-10T14:13:14Z</time>
      </trkpt>
      <trkpt lat="44.59241" lon="5.49639">
        <ele>876.79998779297</ele>
        <time>2019-10-10T14:13:20Z</time>
      </trkpt>
      <trkpt lat="44.59231" lon="5.49691">
        <ele>879.20001220703</ele>
        <time>2019-10-10T14:13:36Z</time>
      </trkpt>
      <trkpt lat="44.59229" lon="5.49717">
        <ele>880.40002441406</ele>
        <time>2019-10-10T14:13:44Z</time>
      </trkpt>
      <trkpt lat="44.59232" lon="5.49745">
        <ele>882</ele>
        <time>2019-10-10T14:13:55Z</time>
      </trkpt>
      <trkpt lat="44.59239" lon="5.49772">
        <ele>884</ele>
        <time>2019-10-10T14:14:04Z</time>
      </trkpt>
      <trkpt lat="44.59257" lon="5.49814">
        <ele>885.79998779297</ele>
        <time>2019-10-10T14:14:20Z</time>
      </trkpt>
      <trkpt lat="44.59263" lon="5.49836">
        <ele>887</ele>
        <time>2019-10-10T14:14:27Z</time>
      </trkpt>
      <trkpt lat="44.59262" lon="5.49881">
        <ele>888.79998779297</ele>
        <time>2019-10-10T14:14:39Z</time>
      </trkpt>
      <trkpt lat="44.59259" lon="5.49913">
        <ele>889.20001220703</ele>
        <time>2019-10-10T14:14:48Z</time>
      </trkpt>
      <trkpt lat="44.59264" lon="5.49951">
        <ele>890.20001220703</ele>
        <time>2019-10-10T14:14:58Z</time>
      </trkpt>
      <trkpt lat="44.59278" lon="5.49978">
        <ele>891</ele>
        <time>2019-10-10T14:15:07Z</time>
      </trkpt>
      <trkpt lat="44.593" lon="5.50005">
        <ele>892.40002441406</ele>
        <time>2019-10-10T14:15:18Z</time>
      </trkpt>
      <trkpt lat="44.59311" lon="5.50031">
        <ele>893.40002441406</ele>
        <time>2019-10-10T14:15:24Z</time>
      </trkpt>
      <trkpt lat="44.59316" lon="5.50064">
        <ele>894.79998779297</ele>
        <time>2019-10-10T14:15:32Z</time>
      </trkpt>
      <trkpt lat="44.59335" lon="5.50096">
        <ele>897.59997558594</ele>
        <time>2019-10-10T14:15:45Z</time>
      </trkpt>
      <trkpt lat="44.59357" lon="5.50105">
        <ele>898.79998779297</ele>
        <time>2019-10-10T14:15:54Z</time>
      </trkpt>
      <trkpt lat="44.59381" lon="5.50109">
        <ele>900.40002441406</ele>
        <time>2019-10-10T14:16:03Z</time>
      </trkpt>
      <trkpt lat="44.59413" lon="5.50112">
        <ele>902</ele>
        <time>2019-10-10T14:16:13Z</time>
      </trkpt>
      <trkpt lat="44.5942" lon="5.50175">
        <ele>903.79998779297</ele>
        <time>2019-10-10T14:16:28Z</time>
      </trkpt>
      <trkpt lat="44.5945" lon="5.50198">
        <ele>904</ele>
        <time>2019-10-10T14:16:37Z</time>
      </trkpt>
      <trkpt lat="44.59451" lon="5.50219">
        <ele>904.20001220703</ele>
        <time>2019-10-10T14:16:43Z</time>
      </trkpt>
      <trkpt lat="44.5945" lon="5.50235">
        <ele>904.40002441406</ele>
        <time>2019-10-10T14:16:46Z</time>
      </trkpt>
      <trkpt lat="44.59463" lon="5.50277">
        <ele>904.79998779297</ele>
        <time>2019-10-10T14:16:54Z</time>
      </trkpt>
      <trkpt lat="44.59468" lon="5.50353">
        <ele>906</ele>
        <time>2019-10-10T14:17:08Z</time>
      </trkpt>
      <trkpt lat="44.59473" lon="5.50392">
        <ele>906.59997558594</ele>
        <time>2019-10-10T14:17:16Z</time>
      </trkpt>
      <trkpt lat="44.59477" lon="5.50407">
        <ele>906.79998779297</ele>
        <time>2019-10-10T14:17:20Z</time>
      </trkpt>
      <trkpt lat="44.59482" lon="5.50416">
        <ele>907.79998779297</ele>
        <time>2019-10-10T14:17:24Z</time>
      </trkpt>
      <trkpt lat="44.59494" lon="5.50424">
        <ele>910</ele>
        <time>2019-10-10T14:17:31Z</time>
      </trkpt>
      <trkpt lat="44.59508" lon="5.50432">
        <ele>910.79998779297</ele>
        <time>2019-10-10T14:17:36Z</time>
      </trkpt>
      <trkpt lat="44.59535" lon="5.50441">
        <ele>914</ele>
        <time>2019-10-10T14:17:50Z</time>
      </trkpt>
      <trkpt lat="44.59539" lon="5.50443">
        <ele>914.79998779297</ele>
        <time>2019-10-10T14:18:49Z</time>
      </trkpt>
      <trkpt lat="44.59554" lon="5.50448">
        <ele>915</ele>
        <time>2019-10-10T14:18:58Z</time>
      </trkpt>
      <trkpt lat="44.59564" lon="5.50456">
        <ele>916</ele>
        <time>2019-10-10T14:19:04Z</time>
      </trkpt>
      <trkpt lat="44.59579" lon="5.50465">
        <ele>917.79998779297</ele>
        <time>2019-10-10T14:19:13Z</time>
      </trkpt>
      <trkpt lat="44.59595" lon="5.50467">
        <ele>918.40002441406</ele>
        <time>2019-10-10T14:19:19Z</time>
      </trkpt>
      <trkpt lat="44.59609" lon="5.50524">
        <ele>920</ele>
        <time>2019-10-10T14:19:32Z</time>
      </trkpt>
      <trkpt lat="44.59595" lon="5.50571">
        <ele>922.20001220703</ele>
        <time>2019-10-10T14:19:48Z</time>
      </trkpt>
      <trkpt lat="44.59577" lon="5.50633">
        <ele>923.40002441406</ele>
        <time>2019-10-10T14:20:01Z</time>
      </trkpt>
      <trkpt lat="44.59576" lon="5.50652">
        <ele>923.79998779297</ele>
        <time>2019-10-10T14:20:06Z</time>
      </trkpt>
      <trkpt lat="44.59561" lon="5.50718">
        <ele>925</ele>
        <time>2019-10-10T14:20:21Z</time>
      </trkpt>
      <trkpt lat="44.59541" lon="5.50781">
        <ele>926.20001220703</ele>
        <time>2019-10-10T14:20:34Z</time>
      </trkpt>
      <trkpt lat="44.59535" lon="5.5081">
        <ele>927</ele>
        <time>2019-10-10T14:20:41Z</time>
      </trkpt>
      <trkpt lat="44.59562" lon="5.50858">
        <ele>927.59997558594</ele>
        <time>2019-10-10T14:20:54Z</time>
      </trkpt>
      <trkpt lat="44.59567" lon="5.50895">
        <ele>928.40002441406</ele>
        <time>2019-10-10T14:21:02Z</time>
      </trkpt>
      <trkpt lat="44.59557" lon="5.50961">
        <ele>929.20001220703</ele>
        <time>2019-10-10T14:21:15Z</time>
      </trkpt>
      <trkpt lat="44.59542" lon="5.50998">
        <ele>930</ele>
        <time>2019-10-10T14:21:25Z</time>
      </trkpt>
      <trkpt lat="44.59569" lon="5.51033">
        <ele>932</ele>
        <time>2019-10-10T14:21:38Z</time>
      </trkpt>
      <trkpt lat="44.5958" lon="5.51036">
        <ele>933</ele>
        <time>2019-10-10T14:21:42Z</time>
      </trkpt>
      <trkpt lat="44.59596" lon="5.51051">
        <ele>934.59997558594</ele>
        <time>2019-10-10T14:21:50Z</time>
      </trkpt>
      <trkpt lat="44.59602" lon="5.51082">
        <ele>936.79998779297</ele>
        <time>2019-10-10T14:22:01Z</time>
      </trkpt>
      <trkpt lat="44.59597" lon="5.51118">
        <ele>938</ele>
        <time>2019-10-10T14:22:12Z</time>
      </trkpt>
      <trkpt lat="44.59594" lon="5.51141">
        <ele>939.40002441406</ele>
        <time>2019-10-10T14:22:19Z</time>
      </trkpt>
      <trkpt lat="44.59595" lon="5.51185">
        <ele>941.79998779297</ele>
        <time>2019-10-10T14:22:33Z</time>
      </trkpt>
      <trkpt lat="44.59609" lon="5.51209">
        <ele>943.40002441406</ele>
        <time>2019-10-10T14:22:43Z</time>
      </trkpt>
      <trkpt lat="44.59609" lon="5.51227">
        <ele>944.79998779297</ele>
        <time>2019-10-10T14:22:50Z</time>
      </trkpt>
      <trkpt lat="44.59591" lon="5.51246">
        <ele>945.79998779297</ele>
        <time>2019-10-10T14:22:59Z</time>
      </trkpt>
      <trkpt lat="44.59573" lon="5.5126">
        <ele>947.40002441406</ele>
        <time>2019-10-10T14:23:07Z</time>
      </trkpt>
      <trkpt lat="44.59563" lon="5.51305">
        <ele>949.59997558594</ele>
        <time>2019-10-10T14:23:20Z</time>
      </trkpt>
      <trkpt lat="44.59561" lon="5.51327">
        <ele>950.59997558594</ele>
        <time>2019-10-10T14:23:26Z</time>
      </trkpt>
      <trkpt lat="44.59554" lon="5.51393">
        <ele>953.40002441406</ele>
        <time>2019-10-10T14:23:44Z</time>
      </trkpt>
      <trkpt lat="44.59555" lon="5.5143">
        <ele>954.40002441406</ele>
        <time>2019-10-10T14:23:54Z</time>
      </trkpt>
      <trkpt lat="44.5957" lon="5.51471">
        <ele>956.20001220703</ele>
        <time>2019-10-10T14:24:07Z</time>
      </trkpt>
      <trkpt lat="44.59593" lon="5.51497">
        <ele>958.59997558594</ele>
        <time>2019-10-10T14:24:18Z</time>
      </trkpt>
      <trkpt lat="44.59627" lon="5.51536">
        <ele>960.79998779297</ele>
        <time>2019-10-10T14:24:34Z</time>
      </trkpt>
      <trkpt lat="44.59639" lon="5.5155">
        <ele>961.79998779297</ele>
        <time>2019-10-10T14:24:40Z</time>
      </trkpt>
      <trkpt lat="44.59671" lon="5.51589">
        <ele>963.79998779297</ele>
        <time>2019-10-10T14:24:56Z</time>
      </trkpt>
      <trkpt lat="44.59691" lon="5.51618">
        <ele>965.79998779297</ele>
        <time>2019-10-10T14:25:07Z</time>
      </trkpt>
      <trkpt lat="44.59701" lon="5.51615">
        <ele>967</ele>
        <time>2019-10-10T14:25:13Z</time>
      </trkpt>
      <trkpt lat="44.59697" lon="5.51578">
        <ele>968.79998779297</ele>
        <time>2019-10-10T14:25:24Z</time>
      </trkpt>
      <trkpt lat="44.59694" lon="5.51551">
        <ele>969.59997558594</ele>
        <time>2019-10-10T14:25:31Z</time>
      </trkpt>
      <trkpt lat="44.59702" lon="5.51547">
        <ele>970.79998779297</ele>
        <time>2019-10-10T14:25:38Z</time>
      </trkpt>
      <trkpt lat="44.59708" lon="5.51578">
        <ele>972</ele>
        <time>2019-10-10T14:25:47Z</time>
      </trkpt>
      <trkpt lat="44.5972" lon="5.51618">
        <ele>973.40002441406</ele>
        <time>2019-10-10T14:25:59Z</time>
      </trkpt>
      <trkpt lat="44.59734" lon="5.51639">
        <ele>975</ele>
        <time>2019-10-10T14:26:07Z</time>
      </trkpt>
      <trkpt lat="44.59756" lon="5.51663">
        <ele>977</ele>
        <time>2019-10-10T14:26:19Z</time>
      </trkpt>
      <trkpt lat="44.59767" lon="5.51679">
        <ele>978</ele>
        <time>2019-10-10T14:26:25Z</time>
      </trkpt>
      <trkpt lat="44.5977" lon="5.51729">
        <ele>980.20001220703</ele>
        <time>2019-10-10T14:26:37Z</time>
      </trkpt>
      <trkpt lat="44.5977" lon="5.51772">
        <ele>982.20001220703</ele>
        <time>2019-10-10T14:26:47Z</time>
      </trkpt>
      <trkpt lat="44.59771" lon="5.51807">
        <ele>984.20001220703</ele>
        <time>2019-10-10T14:26:56Z</time>
      </trkpt>
      <trkpt lat="44.59773" lon="5.51833">
        <ele>986.79998779297</ele>
        <time>2019-10-10T14:27:04Z</time>
      </trkpt>
      <trkpt lat="44.59776" lon="5.51853">
        <ele>988.40002441406</ele>
        <time>2019-10-10T14:27:10Z</time>
      </trkpt>
      <trkpt lat="44.59782" lon="5.51901">
        <ele>991</ele>
        <time>2019-10-10T14:27:23Z</time>
      </trkpt>
      <trkpt lat="44.59787" lon="5.51935">
        <ele>992.59997558594</ele>
        <time>2019-10-10T14:27:32Z</time>
      </trkpt>
      <trkpt lat="44.59792" lon="5.51973">
        <ele>994.20001220703</ele>
        <time>2019-10-10T14:27:43Z</time>
      </trkpt>
      <trkpt lat="44.59796" lon="5.52001">
        <ele>996</ele>
        <time>2019-10-10T14:27:51Z</time>
      </trkpt>
      <trkpt lat="44.59809" lon="5.52032">
        <ele>998.59997558594</ele>
        <time>2019-10-10T14:28:01Z</time>
      </trkpt>
      <trkpt lat="44.59823" lon="5.52058">
        <ele>999.79998779297</ele>
        <time>2019-10-10T14:28:09Z</time>
      </trkpt>
      <trkpt lat="44.5983" lon="5.52096">
        <ele>1002</ele>
        <time>2019-10-10T14:28:20Z</time>
      </trkpt>
      <trkpt lat="44.59825" lon="5.52133">
        <ele>1003.200012207</ele>
        <time>2019-10-10T14:28:29Z</time>
      </trkpt>
      <trkpt lat="44.59811" lon="5.52196">
        <ele>1004.4000244141</ele>
        <time>2019-10-10T14:28:44Z</time>
      </trkpt>
      <trkpt lat="44.59803" lon="5.52235">
        <ele>1005.200012207</ele>
        <time>2019-10-10T14:28:54Z</time>
      </trkpt>
      <trkpt lat="44.59792" lon="5.52286">
        <ele>1006.5999755859</ele>
        <time>2019-10-10T14:29:07Z</time>
      </trkpt>
      <trkpt lat="44.59787" lon="5.52328">
        <ele>1008.5999755859</ele>
        <time>2019-10-10T14:29:17Z</time>
      </trkpt>
      <trkpt lat="44.59787" lon="5.52375">
        <ele>1010.4000244141</ele>
        <time>2019-10-10T14:29:28Z</time>
      </trkpt>
      <trkpt lat="44.59792" lon="5.52438">
        <ele>1013.200012207</ele>
        <time>2019-10-10T14:29:42Z</time>
      </trkpt>
      <trkpt lat="44.59784" lon="5.52495">
        <ele>1014</ele>
        <time>2019-10-10T14:29:55Z</time>
      </trkpt>
      <trkpt lat="44.59767" lon="5.52595">
        <ele>1016.5999755859</ele>
        <time>2019-10-10T14:30:18Z</time>
      </trkpt>
      <trkpt lat="44.5975" lon="5.52619">
        <ele>1016.5999755859</ele>
        <time>2019-10-10T14:30:26Z</time>
      </trkpt>
      <trkpt lat="44.59724" lon="5.52678">
        <ele>1017.5999755859</ele>
        <time>2019-10-10T14:30:42Z</time>
      </trkpt>
      <trkpt lat="44.5971" lon="5.52727">
        <ele>1019.5999755859</ele>
        <time>2019-10-10T14:30:53Z</time>
      </trkpt>
      <trkpt lat="44.59697" lon="5.52771">
        <ele>1020.4000244141</ele>
        <time>2019-10-10T14:31:04Z</time>
      </trkpt>
      <trkpt lat="44.59689" lon="5.52806">
        <ele>1020.799987793</ele>
        <time>2019-10-10T14:31:13Z</time>
      </trkpt>
      <trkpt lat="44.59681" lon="5.5284">
        <ele>1021.200012207</ele>
        <time>2019-10-10T14:31:22Z</time>
      </trkpt>
      <trkpt lat="44.59674" lon="5.5287">
        <ele>1021.4000244141</ele>
        <time>2019-10-10T14:31:29Z</time>
      </trkpt>
      <trkpt lat="44.59672" lon="5.52886">
        <ele>1023.4000244141</ele>
        <time>2019-10-10T14:42:51Z</time>
      </trkpt>
      <trkpt lat="44.5967" lon="5.52899">
        <ele>1023.5999755859</ele>
        <time>2019-10-10T14:42:56Z</time>
      </trkpt>
      <trkpt lat="44.59664" lon="5.52939">
        <ele>1023.5999755859</ele>
        <time>2019-10-10T14:43:06Z</time>
      </trkpt>
      <trkpt lat="44.59658" lon="5.52981">
        <ele>1023.5999755859</ele>
        <time>2019-10-10T14:43:13Z</time>
      </trkpt>
      <trkpt lat="44.59657" lon="5.52994">
        <ele>1023.200012207</ele>
        <time>2019-10-10T14:43:15Z</time>
      </trkpt>
      <trkpt lat="44.59648" lon="5.53084">
        <ele>1022</ele>
        <time>2019-10-10T14:43:27Z</time>
      </trkpt>
      <trkpt lat="44.59645" lon="5.53111">
        <ele>1021.799987793</ele>
        <time>2019-10-10T14:43:30Z</time>
      </trkpt>
      <trkpt lat="44.59638" lon="5.53195">
        <ele>1020</ele>
        <time>2019-10-10T14:43:38Z</time>
      </trkpt>
      <trkpt lat="44.59633" lon="5.53254">
        <ele>1018.4000244141</ele>
        <time>2019-10-10T14:43:43Z</time>
      </trkpt>
      <trkpt lat="44.59595" lon="5.53374">
        <ele>1014.200012207</ele>
        <time>2019-10-10T14:43:54Z</time>
      </trkpt>
      <trkpt lat="44.59581" lon="5.53405">
        <ele>1013.4000244141</ele>
        <time>2019-10-10T14:43:57Z</time>
      </trkpt>
      <trkpt lat="44.59544" lon="5.5349">
        <ele>1011.200012207</ele>
        <time>2019-10-10T14:44:06Z</time>
      </trkpt>
      <trkpt lat="44.59516" lon="5.53553">
        <ele>1010</ele>
        <time>2019-10-10T14:44:13Z</time>
      </trkpt>
      <trkpt lat="44.59488" lon="5.5362">
        <ele>1008.5999755859</ele>
        <time>2019-10-10T14:44:20Z</time>
      </trkpt>
      <trkpt lat="44.59457" lon="5.53693">
        <ele>1006.200012207</ele>
        <time>2019-10-10T14:44:27Z</time>
      </trkpt>
      <trkpt lat="44.59424" lon="5.53769">
        <ele>1003</ele>
        <time>2019-10-10T14:44:34Z</time>
      </trkpt>
      <trkpt lat="44.59406" lon="5.53814">
        <ele>1001.5999755859</ele>
        <time>2019-10-10T14:44:38Z</time>
      </trkpt>
      <trkpt lat="44.59371" lon="5.53896">
        <ele>998.59997558594</ele>
        <time>2019-10-10T14:44:46Z</time>
      </trkpt>
      <trkpt lat="44.59327" lon="5.53999">
        <ele>996.79998779297</ele>
        <time>2019-10-10T14:44:57Z</time>
      </trkpt>
      <trkpt lat="44.59307" lon="5.54034">
        <ele>995.59997558594</ele>
        <time>2019-10-10T14:45:01Z</time>
      </trkpt>
      <trkpt lat="44.59272" lon="5.54066">
        <ele>994.20001220703</ele>
        <time>2019-10-10T14:45:06Z</time>
      </trkpt>
      <trkpt lat="44.5925" lon="5.54083">
        <ele>992.79998779297</ele>
        <time>2019-10-10T14:45:09Z</time>
      </trkpt>
      <trkpt lat="44.59235" lon="5.54095">
        <ele>987.59997558594</ele>
        <time>2019-10-10T14:45:44Z</time>
      </trkpt>
      <trkpt lat="44.59218" lon="5.54108">
        <ele>987.40002441406</ele>
        <time>2019-10-10T14:45:50Z</time>
      </trkpt>
      <trkpt lat="44.59184" lon="5.54135">
        <ele>986.79998779297</ele>
        <time>2019-10-10T14:45:57Z</time>
      </trkpt>
      <trkpt lat="44.59128" lon="5.54179">
        <ele>985.40002441406</ele>
        <time>2019-10-10T14:46:06Z</time>
      </trkpt>
      <trkpt lat="44.59066" lon="5.54228">
        <ele>983.20001220703</ele>
        <time>2019-10-10T14:46:15Z</time>
      </trkpt>
      <trkpt lat="44.59053" lon="5.54238">
        <ele>983</ele>
        <time>2019-10-10T14:46:18Z</time>
      </trkpt>
      <trkpt lat="44.58985" lon="5.54291">
        <ele>981</ele>
        <time>2019-10-10T14:46:27Z</time>
      </trkpt>
      <trkpt lat="44.5893" lon="5.54335">
        <ele>977.79998779297</ele>
        <time>2019-10-10T14:46:35Z</time>
      </trkpt>
      <trkpt lat="44.58874" lon="5.54379">
        <ele>976</ele>
        <time>2019-10-10T14:46:44Z</time>
      </trkpt>
      <trkpt lat="44.58822" lon="5.5442">
        <ele>975.20001220703</ele>
        <time>2019-10-10T14:46:52Z</time>
      </trkpt>
      <trkpt lat="44.58799" lon="5.54438">
        <ele>974.59997558594</ele>
        <time>2019-10-10T14:46:55Z</time>
      </trkpt>
      <trkpt lat="44.58728" lon="5.54494">
        <ele>971.59997558594</ele>
        <time>2019-10-10T14:47:03Z</time>
      </trkpt>
      <trkpt lat="44.58658" lon="5.54549">
        <ele>967.79998779297</ele>
        <time>2019-10-10T14:47:11Z</time>
      </trkpt>
      <trkpt lat="44.58583" lon="5.5458">
        <ele>966.20001220703</ele>
        <time>2019-10-10T14:47:20Z</time>
      </trkpt>
      <trkpt lat="44.58542" lon="5.54583">
        <ele>965.79998779297</ele>
        <time>2019-10-10T14:47:25Z</time>
      </trkpt>
      <trkpt lat="44.58472" lon="5.54586">
        <ele>964</ele>
        <time>2019-10-10T14:47:33Z</time>
      </trkpt>
      <trkpt lat="44.58431" lon="5.54597">
        <ele>962.59997558594</ele>
        <time>2019-10-10T14:47:38Z</time>
      </trkpt>
      <trkpt lat="44.58349" lon="5.54647">
        <ele>960.59997558594</ele>
        <time>2019-10-10T14:47:49Z</time>
      </trkpt>
      <trkpt lat="44.58301" lon="5.54691">
        <ele>959.40002441406</ele>
        <time>2019-10-10T14:47:56Z</time>
      </trkpt>
      <trkpt lat="44.5824" lon="5.54726">
        <ele>958.20001220703</ele>
        <time>2019-10-10T14:48:04Z</time>
      </trkpt>
      <trkpt lat="44.5818" lon="5.54756">
        <ele>957</ele>
        <time>2019-10-10T14:48:12Z</time>
      </trkpt>
      <trkpt lat="44.58122" lon="5.54787">
        <ele>956</ele>
        <time>2019-10-10T14:48:20Z</time>
      </trkpt>
      <trkpt lat="44.58078" lon="5.54795">
        <ele>954.20001220703</ele>
        <time>2019-10-10T14:48:26Z</time>
      </trkpt>
      <trkpt lat="44.58044" lon="5.54789">
        <ele>953.79998779297</ele>
        <time>2019-10-10T14:48:30Z</time>
      </trkpt>
      <trkpt lat="44.58011" lon="5.54788">
        <ele>953</ele>
        <time>2019-10-10T14:48:34Z</time>
      </trkpt>
      <trkpt lat="44.57997" lon="5.54796">
        <ele>952.20001220703</ele>
        <time>2019-10-10T14:48:36Z</time>
      </trkpt>
      <trkpt lat="44.57957" lon="5.5482">
        <ele>949.79998779297</ele>
        <time>2019-10-10T14:48:41Z</time>
      </trkpt>
      <trkpt lat="44.5793" lon="5.54835">
        <ele>948.59997558594</ele>
        <time>2019-10-10T14:48:44Z</time>
      </trkpt>
      <trkpt lat="44.57878" lon="5.54867">
        <ele>946</ele>
        <time>2019-10-10T14:48:50Z</time>
      </trkpt>
      <trkpt lat="44.5787" lon="5.54874">
        <ele>943.79998779297</ele>
        <time>2019-10-10T14:48:53Z</time>
      </trkpt>
      <trkpt lat="44.57874" lon="5.54897">
        <ele>938.20001220703</ele>
        <time>2019-10-10T14:50:26Z</time>
      </trkpt>
      <trkpt lat="44.5789" lon="5.54912">
        <ele>937.79998779297</ele>
        <time>2019-10-10T14:50:31Z</time>
      </trkpt>
      <trkpt lat="44.57915" lon="5.54926">
        <ele>937.79998779297</ele>
        <time>2019-10-10T14:50:36Z</time>
      </trkpt>
      <trkpt lat="44.57941" lon="5.5494">
        <ele>937.40002441406</ele>
        <time>2019-10-10T14:50:40Z</time>
      </trkpt>
      <trkpt lat="44.5798" lon="5.54961">
        <ele>936</ele>
        <time>2019-10-10T14:50:45Z</time>
      </trkpt>
      <trkpt lat="44.58003" lon="5.54978">
        <ele>935.20001220703</ele>
        <time>2019-10-10T14:50:48Z</time>
      </trkpt>
      <trkpt lat="44.58031" lon="5.54992">
        <ele>933.40002441406</ele>
        <time>2019-10-10T14:50:52Z</time>
      </trkpt>
      <trkpt lat="44.58031" lon="5.55007">
        <ele>931.20001220703</ele>
        <time>2019-10-10T14:50:56Z</time>
      </trkpt>
      <trkpt lat="44.58015" lon="5.55011">
        <ele>930</ele>
        <time>2019-10-10T14:50:59Z</time>
      </trkpt>
      <trkpt lat="44.57965" lon="5.55016">
        <ele>927.59997558594</ele>
        <time>2019-10-10T14:51:05Z</time>
      </trkpt>
      <trkpt lat="44.5792" lon="5.55024">
        <ele>926</ele>
        <time>2019-10-10T14:51:10Z</time>
      </trkpt>
      <trkpt lat="44.57867" lon="5.55053">
        <ele>923.79998779297</ele>
        <time>2019-10-10T14:51:16Z</time>
      </trkpt>
      <trkpt lat="44.57829" lon="5.55073">
        <ele>922.20001220703</ele>
        <time>2019-10-10T14:51:20Z</time>
      </trkpt>
      <trkpt lat="44.57793" lon="5.551">
        <ele>919.40002441406</ele>
        <time>2019-10-10T14:51:24Z</time>
      </trkpt>
      <trkpt lat="44.57746" lon="5.55134">
        <ele>916.79998779297</ele>
        <time>2019-10-10T14:51:29Z</time>
      </trkpt>
      <trkpt lat="44.57707" lon="5.55147">
        <ele>915.20001220703</ele>
        <time>2019-10-10T14:51:33Z</time>
      </trkpt>
      <trkpt lat="44.57666" lon="5.5514">
        <ele>913</ele>
        <time>2019-10-10T14:51:37Z</time>
      </trkpt>
      <trkpt lat="44.57624" lon="5.55126">
        <ele>909.59997558594</ele>
        <time>2019-10-10T14:51:42Z</time>
      </trkpt>
      <trkpt lat="44.57617" lon="5.55125">
        <ele>908.79998779297</ele>
        <time>2019-10-10T14:51:44Z</time>
      </trkpt>
      <trkpt lat="44.57615" lon="5.55129">
        <ele>906.79998779297</ele>
        <time>2019-10-10T14:51:47Z</time>
      </trkpt>
      <trkpt lat="44.57622" lon="5.55145">
        <ele>905.40002441406</ele>
        <time>2019-10-10T14:51:50Z</time>
      </trkpt>
      <trkpt lat="44.57642" lon="5.55167">
        <ele>904.59997558594</ele>
        <time>2019-10-10T14:51:53Z</time>
      </trkpt>
      <trkpt lat="44.57681" lon="5.5521">
        <ele>903</ele>
        <time>2019-10-10T14:51:59Z</time>
      </trkpt>
      <trkpt lat="44.57712" lon="5.55234">
        <ele>901.59997558594</ele>
        <time>2019-10-10T14:52:03Z</time>
      </trkpt>
      <trkpt lat="44.57755" lon="5.55247">
        <ele>899.79998779297</ele>
        <time>2019-10-10T14:52:08Z</time>
      </trkpt>
      <trkpt lat="44.57768" lon="5.55253">
        <ele>898.79998779297</ele>
        <time>2019-10-10T14:52:10Z</time>
      </trkpt>
      <trkpt lat="44.57772" lon="5.55275">
        <ele>897.59997558594</ele>
        <time>2019-10-10T14:52:13Z</time>
      </trkpt>
      <trkpt lat="44.5775" lon="5.55305">
        <ele>896.79998779297</ele>
        <time>2019-10-10T14:52:16Z</time>
      </trkpt>
      <trkpt lat="44.57734" lon="5.55333">
        <ele>894.40002441406</ele>
        <time>2019-10-10T14:52:20Z</time>
      </trkpt>
      <trkpt lat="44.57737" lon="5.55352">
        <ele>893.40002441406</ele>
        <time>2019-10-10T14:52:22Z</time>
      </trkpt>
      <trkpt lat="44.57752" lon="5.55357">
        <ele>892</ele>
        <time>2019-10-10T14:52:25Z</time>
      </trkpt>
      <trkpt lat="44.57766" lon="5.55349">
        <ele>891.40002441406</ele>
        <time>2019-10-10T14:52:27Z</time>
      </trkpt>
      <trkpt lat="44.57806" lon="5.55345">
        <ele>889.40002441406</ele>
        <time>2019-10-10T14:52:32Z</time>
      </trkpt>
      <trkpt lat="44.57832" lon="5.55364">
        <ele>887.59997558594</ele>
        <time>2019-10-10T14:52:36Z</time>
      </trkpt>
      <trkpt lat="44.57846" lon="5.5538">
        <ele>886.59997558594</ele>
        <time>2019-10-10T14:52:38Z</time>
      </trkpt>
      <trkpt lat="44.57863" lon="5.55405">
        <ele>885.20001220703</ele>
        <time>2019-10-10T14:52:41Z</time>
      </trkpt>
      <trkpt lat="44.5786" lon="5.55428">
        <ele>883.79998779297</ele>
        <time>2019-10-10T14:52:45Z</time>
      </trkpt>
      <trkpt lat="44.57839" lon="5.55418">
        <ele>882</ele>
        <time>2019-10-10T14:52:49Z</time>
      </trkpt>
      <trkpt lat="44.57815" lon="5.55418">
        <ele>880.20001220703</ele>
        <time>2019-10-10T14:52:52Z</time>
      </trkpt>
      <trkpt lat="44.57782" lon="5.55448">
        <ele>878.79998779297</ele>
        <time>2019-10-10T14:52:57Z</time>
      </trkpt>
      <trkpt lat="44.5775" lon="5.55471">
        <ele>877.79998779297</ele>
        <time>2019-10-10T14:53:01Z</time>
      </trkpt>
      <trkpt lat="44.57706" lon="5.55487">
        <ele>875.59997558594</ele>
        <time>2019-10-10T14:53:06Z</time>
      </trkpt>
      <trkpt lat="44.57669" lon="5.5549">
        <ele>874.59997558594</ele>
        <time>2019-10-10T14:53:10Z</time>
      </trkpt>
      <trkpt lat="44.57632" lon="5.55503">
        <ele>872</ele>
        <time>2019-10-10T14:53:15Z</time>
      </trkpt>
      <trkpt lat="44.57613" lon="5.5549">
        <ele>869.59997558594</ele>
        <time>2019-10-10T14:53:18Z</time>
      </trkpt>
      <trkpt lat="44.57587" lon="5.55463">
        <ele>867.40002441406</ele>
        <time>2019-10-10T14:53:22Z</time>
      </trkpt>
      <trkpt lat="44.57546" lon="5.55434">
        <ele>865.40002441406</ele>
        <time>2019-10-10T14:53:27Z</time>
      </trkpt>
      <trkpt lat="44.57521" lon="5.55411">
        <ele>863.59997558594</ele>
        <time>2019-10-10T14:53:31Z</time>
      </trkpt>
      <trkpt lat="44.57488" lon="5.55362">
        <ele>861.79998779297</ele>
        <time>2019-10-10T14:53:37Z</time>
      </trkpt>
      <trkpt lat="44.57477" lon="5.55337">
        <ele>860</ele>
        <time>2019-10-10T14:53:41Z</time>
      </trkpt>
      <trkpt lat="44.57469" lon="5.55342">
        <ele>857.79998779297</ele>
        <time>2019-10-10T14:53:46Z</time>
      </trkpt>
      <trkpt lat="44.57474" lon="5.55356">
        <ele>855.79998779297</ele>
        <time>2019-10-10T14:53:51Z</time>
      </trkpt>
      <trkpt lat="44.57486" lon="5.55381">
        <ele>854.79998779297</ele>
        <time>2019-10-10T14:53:56Z</time>
      </trkpt>
      <trkpt lat="44.57499" lon="5.5541">
        <ele>854.40002441406</ele>
        <time>2019-10-10T14:54:00Z</time>
      </trkpt>
      <trkpt lat="44.57501" lon="5.55503">
        <ele>851.59997558594</ele>
        <time>2019-10-10T14:54:08Z</time>
      </trkpt>
      <trkpt lat="44.57507" lon="5.55525">
        <ele>850.79998779297</ele>
        <time>2019-10-10T14:54:10Z</time>
      </trkpt>
      <trkpt lat="44.5752" lon="5.55575">
        <ele>847.79998779297</ele>
        <time>2019-10-10T14:54:16Z</time>
      </trkpt>
      <trkpt lat="44.57529" lon="5.55603">
        <ele>846.59997558594</ele>
        <time>2019-10-10T14:54:19Z</time>
      </trkpt>
      <trkpt lat="44.57543" lon="5.55623">
        <ele>845.59997558594</ele>
        <time>2019-10-10T14:54:22Z</time>
      </trkpt>
      <trkpt lat="44.57561" lon="5.55639">
        <ele>844.40002441406</ele>
        <time>2019-10-10T14:54:25Z</time>
      </trkpt>
      <trkpt lat="44.57581" lon="5.55648">
        <ele>843.40002441406</ele>
        <time>2019-10-10T14:54:28Z</time>
      </trkpt>
      <trkpt lat="44.5761" lon="5.55661">
        <ele>841.20001220703</ele>
        <time>2019-10-10T14:54:33Z</time>
      </trkpt>
      <trkpt lat="44.57613" lon="5.55668">
        <ele>840.40002441406</ele>
        <time>2019-10-10T14:54:35Z</time>
      </trkpt>
      <trkpt lat="44.5761" lon="5.55728">
        <ele>837.59997558594</ele>
        <time>2019-10-10T14:54:41Z</time>
      </trkpt>
      <trkpt lat="44.57599" lon="5.55736">
        <ele>836.40002441406</ele>
        <time>2019-10-10T14:54:45Z</time>
      </trkpt>
      <trkpt lat="44.57591" lon="5.55701">
        <ele>835.59997558594</ele>
        <time>2019-10-10T14:54:49Z</time>
      </trkpt>
      <trkpt lat="44.57572" lon="5.55682">
        <ele>834.20001220703</ele>
        <time>2019-10-10T14:54:52Z</time>
      </trkpt>
      <trkpt lat="44.57531" lon="5.55671">
        <ele>832.59997558594</ele>
        <time>2019-10-10T14:54:57Z</time>
      </trkpt>
      <trkpt lat="44.57487" lon="5.55653">
        <ele>830.79998779297</ele>
        <time>2019-10-10T14:55:02Z</time>
      </trkpt>
      <trkpt lat="44.57445" lon="5.55622">
        <ele>828.59997558594</ele>
        <time>2019-10-10T14:55:08Z</time>
      </trkpt>
      <trkpt lat="44.57438" lon="5.5561">
        <ele>827.20001220703</ele>
        <time>2019-10-10T14:55:10Z</time>
      </trkpt>
      <trkpt lat="44.57434" lon="5.55596">
        <ele>825.59997558594</ele>
        <time>2019-10-10T14:55:13Z</time>
      </trkpt>
      <trkpt lat="44.57439" lon="5.55579">
        <ele>825</ele>
        <time>2019-10-10T14:55:16Z</time>
      </trkpt>
      <trkpt lat="44.57452" lon="5.5557">
        <ele>823.59997558594</ele>
        <time>2019-10-10T14:55:19Z</time>
      </trkpt>
      <trkpt lat="44.57455" lon="5.55537">
        <ele>822.40002441406</ele>
        <time>2019-10-10T14:55:22Z</time>
      </trkpt>
      <trkpt lat="44.57448" lon="5.55522">
        <ele>821.40002441406</ele>
        <time>2019-10-10T14:55:24Z</time>
      </trkpt>
      <trkpt lat="44.57435" lon="5.55471">
        <ele>819.40002441406</ele>
        <time>2019-10-10T14:55:29Z</time>
      </trkpt>
      <trkpt lat="44.57418" lon="5.55435">
        <ele>817.40002441406</ele>
        <time>2019-10-10T14:55:33Z</time>
      </trkpt>
      <trkpt lat="44.57409" lon="5.55379">
        <ele>815</ele>
        <time>2019-10-10T14:55:38Z</time>
      </trkpt>
      <trkpt lat="44.57394" lon="5.55325">
        <ele>812.79998779297</ele>
        <time>2019-10-10T14:55:43Z</time>
      </trkpt>
      <trkpt lat="44.57395" lon="5.55297">
        <ele>811.20001220703</ele>
        <time>2019-10-10T14:55:46Z</time>
      </trkpt>
      <trkpt lat="44.57395" lon="5.55276">
        <ele>810</ele>
        <time>2019-10-10T14:55:48Z</time>
      </trkpt>
      <trkpt lat="44.57371" lon="5.55228">
        <ele>807</ele>
        <time>2019-10-10T14:55:54Z</time>
      </trkpt>
      <trkpt lat="44.57365" lon="5.55216">
        <ele>806</ele>
        <time>2019-10-10T14:55:57Z</time>
      </trkpt>
      <trkpt lat="44.57357" lon="5.55236">
        <ele>803.79998779297</ele>
        <time>2019-10-10T14:56:02Z</time>
      </trkpt>
      <trkpt lat="44.57359" lon="5.55291">
        <ele>802.40002441406</ele>
        <time>2019-10-10T14:56:06Z</time>
      </trkpt>
      <trkpt lat="44.57372" lon="5.55348">
        <ele>799.79998779297</ele>
        <time>2019-10-10T14:56:11Z</time>
      </trkpt>
      <trkpt lat="44.57381" lon="5.55381">
        <ele>797.59997558594</ele>
        <time>2019-10-10T14:56:14Z</time>
      </trkpt>
      <trkpt lat="44.57381" lon="5.55404">
        <ele>795.59997558594</ele>
        <time>2019-10-10T14:56:16Z</time>
      </trkpt>
      <trkpt lat="44.57381" lon="5.55463">
        <ele>792.20001220703</ele>
        <time>2019-10-10T14:56:21Z</time>
      </trkpt>
      <trkpt lat="44.57384" lon="5.55505">
        <ele>789.20001220703</ele>
        <time>2019-10-10T14:56:25Z</time>
      </trkpt>
      <trkpt lat="44.57382" lon="5.55518">
        <ele>786.79998779297</ele>
        <time>2019-10-10T14:56:29Z</time>
      </trkpt>
      <trkpt lat="44.57375" lon="5.55514">
        <ele>784.40002441406</ele>
        <time>2019-10-10T14:56:32Z</time>
      </trkpt>
      <trkpt lat="44.57363" lon="5.55437">
        <ele>780.20001220703</ele>
        <time>2019-10-10T14:56:40Z</time>
      </trkpt>
      <trkpt lat="44.57357" lon="5.55428">
        <ele>779.40002441406</ele>
        <time>2019-10-10T14:56:42Z</time>
      </trkpt>
      <trkpt lat="44.57351" lon="5.55458">
        <ele>776.59997558594</ele>
        <time>2019-10-10T14:56:47Z</time>
      </trkpt>
      <trkpt lat="44.57353" lon="5.555">
        <ele>775.40002441406</ele>
        <time>2019-10-10T14:56:50Z</time>
      </trkpt>
      <trkpt lat="44.57351" lon="5.55574">
        <ele>773.59997558594</ele>
        <time>2019-10-10T14:56:55Z</time>
      </trkpt>
      <trkpt lat="44.57352" lon="5.55603">
        <ele>772.20001220703</ele>
        <time>2019-10-10T14:56:57Z</time>
      </trkpt>
      <trkpt lat="44.57351" lon="5.5568">
        <ele>768.20001220703</ele>
        <time>2019-10-10T14:57:02Z</time>
      </trkpt>
      <trkpt lat="44.57343" lon="5.55726">
        <ele>765.40002441406</ele>
        <time>2019-10-10T14:57:05Z</time>
      </trkpt>
      <trkpt lat="44.57337" lon="5.55756">
        <ele>763.40002441406</ele>
        <time>2019-10-10T14:57:07Z</time>
      </trkpt>
      <trkpt lat="44.57322" lon="5.55819">
        <ele>758.59997558594</ele>
        <time>2019-10-10T14:57:12Z</time>
      </trkpt>
      <trkpt lat="44.5731" lon="5.55857">
        <ele>752.20001220703</ele>
        <time>2019-10-10T14:57:20Z</time>
      </trkpt>
      <trkpt lat="44.5731" lon="5.55857">
        <ele>748.59997558594</ele>
        <time>2019-10-10T14:57:45Z</time>
      </trkpt>
      <trkpt lat="44.57296" lon="5.55848">
        <ele>748.40002441406</ele>
        <time>2019-10-10T14:57:51Z</time>
      </trkpt>
      <trkpt lat="44.57259" lon="5.55829">
        <ele>748</ele>
        <time>2019-10-10T14:58:01Z</time>
      </trkpt>
      <trkpt lat="44.5723" lon="5.55831">
        <ele>747.40002441406</ele>
        <time>2019-10-10T14:58:06Z</time>
      </trkpt>
      <trkpt lat="44.57196" lon="5.55819">
        <ele>746.79998779297</ele>
        <time>2019-10-10T14:58:12Z</time>
      </trkpt>
      <trkpt lat="44.57173" lon="5.55807">
        <ele>746.20001220703</ele>
        <time>2019-10-10T14:58:16Z</time>
      </trkpt>
      <trkpt lat="44.57071" lon="5.55767">
        <ele>744.40002441406</ele>
        <time>2019-10-10T14:58:33Z</time>
      </trkpt>
      <trkpt lat="44.57032" lon="5.55763">
        <ele>744.20001220703</ele>
        <time>2019-10-10T14:58:43Z</time>
      </trkpt>
      <trkpt lat="44.57028" lon="5.55742">
        <ele>743.79998779297</ele>
        <time>2019-10-10T14:58:55Z</time>
      </trkpt>
      <trkpt lat="44.57019" lon="5.55714">
        <ele>744</ele>
        <time>2019-10-10T14:59:01Z</time>
      </trkpt>
      <trkpt lat="44.57005" lon="5.55687">
        <ele>743.20001220703</ele>
        <time>2019-10-10T14:59:07Z</time>
      </trkpt>
      <trkpt lat="44.56965" lon="5.55607">
        <ele>741.79998779297</ele>
        <time>2019-10-10T14:59:18Z</time>
      </trkpt>
      <trkpt lat="44.56957" lon="5.55583">
        <ele>741.79998779297</ele>
        <time>2019-10-10T14:59:22Z</time>
      </trkpt>
      <trkpt lat="44.56924" lon="5.55481">
        <ele>740.20001220703</ele>
        <time>2019-10-10T14:59:35Z</time>
      </trkpt>
      <trkpt lat="44.56917" lon="5.55457">
        <ele>740</ele>
        <time>2019-10-10T14:59:38Z</time>
      </trkpt>
      <trkpt lat="44.56872" lon="5.55323">
        <ele>737.20001220703</ele>
        <time>2019-10-10T14:59:54Z</time>
      </trkpt>
      <trkpt lat="44.56855" lon="5.5527">
        <ele>736.40002441406</ele>
        <time>2019-10-10T15:00:02Z</time>
      </trkpt>
      <trkpt lat="44.56851" lon="5.55258">
        <ele>735</ele>
        <time>2019-10-10T15:01:26Z</time>
      </trkpt>
      <trkpt lat="44.56841" lon="5.55229">
        <ele>735</ele>
        <time>2019-10-10T15:01:31Z</time>
      </trkpt>
      <trkpt lat="44.56819" lon="5.55162">
        <ele>734.59997558594</ele>
        <time>2019-10-10T15:01:40Z</time>
      </trkpt>
      <trkpt lat="44.56797" lon="5.55093">
        <ele>733.79998779297</ele>
        <time>2019-10-10T15:01:48Z</time>
      </trkpt>
      <trkpt lat="44.56762" lon="5.54989">
        <ele>732.20001220703</ele>
        <time>2019-10-10T15:01:59Z</time>
      </trkpt>
      <trkpt lat="44.56746" lon="5.54941">
        <ele>731.79998779297</ele>
        <time>2019-10-10T15:02:04Z</time>
      </trkpt>
      <trkpt lat="44.56727" lon="5.54882">
        <ele>730.20001220703</ele>
        <time>2019-10-10T15:02:10Z</time>
      </trkpt>
      <trkpt lat="44.56711" lon="5.54834">
        <ele>729.59997558594</ele>
        <time>2019-10-10T15:02:15Z</time>
      </trkpt>
      <trkpt lat="44.56674" lon="5.54735">
        <ele>727.59997558594</ele>
        <time>2019-10-10T15:02:26Z</time>
      </trkpt>
      <trkpt lat="44.56625" lon="5.54665">
        <ele>726.59997558594</ele>
        <time>2019-10-10T15:02:34Z</time>
      </trkpt>
      <trkpt lat="44.56587" lon="5.54614">
        <ele>725.20001220703</ele>
        <time>2019-10-10T15:02:41Z</time>
      </trkpt>
      <trkpt lat="44.56503" lon="5.54502">
        <ele>722.40002441406</ele>
        <time>2019-10-10T15:02:57Z</time>
      </trkpt>
      <trkpt lat="44.5647" lon="5.54458">
        <ele>721.20001220703</ele>
        <time>2019-10-10T15:03:03Z</time>
      </trkpt>
      <trkpt lat="44.56381" lon="5.5434">
        <ele>718.20001220703</ele>
        <time>2019-10-10T15:03:20Z</time>
      </trkpt>
      <trkpt lat="44.56367" lon="5.5432">
        <ele>717.79998779297</ele>
        <time>2019-10-10T15:03:23Z</time>
      </trkpt>
      <trkpt lat="44.56303" lon="5.54264">
        <ele>717</ele>
        <time>2019-10-10T15:03:34Z</time>
      </trkpt>
      <trkpt lat="44.56272" lon="5.54255">
        <ele>716.79998779297</ele>
        <time>2019-10-10T15:03:38Z</time>
      </trkpt>
      <trkpt lat="44.56182" lon="5.54249">
        <ele>714.59997558594</ele>
        <time>2019-10-10T15:03:48Z</time>
      </trkpt>
      <trkpt lat="44.56156" lon="5.54247">
        <ele>713.79998779297</ele>
        <time>2019-10-10T15:03:51Z</time>
      </trkpt>
      <trkpt lat="44.56089" lon="5.54209">
        <ele>711.59997558594</ele>
        <time>2019-10-10T15:03:59Z</time>
      </trkpt>
      <trkpt lat="44.56042" lon="5.54179">
        <ele>709.79998779297</ele>
        <time>2019-10-10T15:04:05Z</time>
      </trkpt>
      <trkpt lat="44.56002" lon="5.54155">
        <ele>709</ele>
        <time>2019-10-10T15:04:10Z</time>
      </trkpt>
      <trkpt lat="44.55929" lon="5.5411">
        <ele>707.40002441406</ele>
        <time>2019-10-10T15:04:20Z</time>
      </trkpt>
      <trkpt lat="44.55893" lon="5.54102">
        <ele>706.40002441406</ele>
        <time>2019-10-10T15:04:25Z</time>
      </trkpt>
      <trkpt lat="44.55814" lon="5.54138">
        <ele>704.40002441406</ele>
        <time>2019-10-10T15:04:37Z</time>
      </trkpt>
      <trkpt lat="44.55733" lon="5.54192">
        <ele>702.79998779297</ele>
        <time>2019-10-10T15:04:49Z</time>
      </trkpt>
      <trkpt lat="44.55678" lon="5.54206">
        <ele>702.40002441406</ele>
        <time>2019-10-10T15:04:57Z</time>
      </trkpt>
      <trkpt lat="44.55666" lon="5.54202">
        <ele>702.40002441406</ele>
        <time>2019-10-10T15:04:59Z</time>
      </trkpt>
      <trkpt lat="44.55606" lon="5.54151">
        <ele>700.79998779297</ele>
        <time>2019-10-10T15:05:08Z</time>
      </trkpt>
      <trkpt lat="44.55542" lon="5.54095">
        <ele>699.20001220703</ele>
        <time>2019-10-10T15:05:18Z</time>
      </trkpt>
      <trkpt lat="44.55455" lon="5.54019">
        <ele>698</ele>
        <time>2019-10-10T15:05:32Z</time>
      </trkpt>
      <trkpt lat="44.55405" lon="5.53975">
        <ele>696.59997558594</ele>
        <time>2019-10-10T15:05:40Z</time>
      </trkpt>
      <trkpt lat="44.55313" lon="5.53898">
        <ele>695.40002441406</ele>
        <time>2019-10-10T15:05:54Z</time>
      </trkpt>
      <trkpt lat="44.5525" lon="5.53867">
        <ele>694.59997558594</ele>
        <time>2019-10-10T15:06:03Z</time>
      </trkpt>
      <trkpt lat="44.55164" lon="5.53825">
        <ele>692.79998779297</ele>
        <time>2019-10-10T15:06:15Z</time>
      </trkpt>
      <trkpt lat="44.55086" lon="5.53786">
        <ele>691.59997558594</ele>
        <time>2019-10-10T15:06:26Z</time>
      </trkpt>
      <trkpt lat="44.55031" lon="5.53761">
        <ele>690.79998779297</ele>
        <time>2019-10-10T15:06:34Z</time>
      </trkpt>
      <trkpt lat="44.54973" lon="5.53728">
        <ele>690</ele>
        <time>2019-10-10T15:06:43Z</time>
      </trkpt>
      <trkpt lat="44.54961" lon="5.53707">
        <ele>689.59997558594</ele>
        <time>2019-10-10T15:06:46Z</time>
      </trkpt>
      <trkpt lat="44.54952" lon="5.53664">
        <ele>688.40002441406</ele>
        <time>2019-10-10T15:06:52Z</time>
      </trkpt>
      <trkpt lat="44.54935" lon="5.53662">
        <ele>688.20001220703</ele>
        <time>2019-10-10T15:06:56Z</time>
      </trkpt>
      <trkpt lat="44.54927" lon="5.53685">
        <ele>687.59997558594</ele>
        <time>2019-10-10T15:07:01Z</time>
      </trkpt>
      <trkpt lat="44.54919" lon="5.53724">
        <ele>687.59997558594</ele>
        <time>2019-10-10T15:07:07Z</time>
      </trkpt>
      <trkpt lat="44.54911" lon="5.53766">
        <ele>687.79998779297</ele>
        <time>2019-10-10T15:07:15Z</time>
      </trkpt>
      <trkpt lat="44.54896" lon="5.53821">
        <ele>688.79998779297</ele>
        <time>2019-10-10T15:07:25Z</time>
      </trkpt>
      <trkpt lat="44.54878" lon="5.53885">
        <ele>689.40002441406</ele>
        <time>2019-10-10T15:07:35Z</time>
      </trkpt>
      <trkpt lat="44.54863" lon="5.53923">
        <ele>690.40002441406</ele>
        <time>2019-10-10T15:07:42Z</time>
      </trkpt>
      <trkpt lat="44.54854" lon="5.53943">
        <ele>691</ele>
        <time>2019-10-10T15:07:46Z</time>
      </trkpt>
      <trkpt lat="44.54826" lon="5.53993">
        <ele>693.20001220703</ele>
        <time>2019-10-10T15:08:00Z</time>
      </trkpt>
      <trkpt lat="44.54798" lon="5.54041">
        <ele>694.79998779297</ele>
        <time>2019-10-10T15:08:13Z</time>
      </trkpt>
      <trkpt lat="44.5477" lon="5.54086">
        <ele>695.40002441406</ele>
        <time>2019-10-10T15:08:24Z</time>
      </trkpt>
      <trkpt lat="44.54735" lon="5.54141">
        <ele>696.59997558594</ele>
        <time>2019-10-10T15:08:37Z</time>
      </trkpt>
      <trkpt lat="44.54709" lon="5.54179">
        <ele>696.79998779297</ele>
        <time>2019-10-10T15:08:47Z</time>
      </trkpt>
      <trkpt lat="44.54686" lon="5.54218">
        <ele>698.59997558594</ele>
        <time>2019-10-10T15:08:57Z</time>
      </trkpt>
      <trkpt lat="44.54638" lon="5.54275">
        <ele>700.40002441406</ele>
        <time>2019-10-10T15:09:13Z</time>
      </trkpt>
      <trkpt lat="44.54585" lon="5.54293">
        <ele>701</ele>
        <time>2019-10-10T15:09:25Z</time>
      </trkpt>
      <trkpt lat="44.54512" lon="5.54309">
        <ele>701.59997558594</ele>
        <time>2019-10-10T15:09:38Z</time>
      </trkpt>
      <trkpt lat="44.5449" lon="5.54314">
        <ele>701.79998779297</ele>
        <time>2019-10-10T15:09:42Z</time>
      </trkpt>
      <trkpt lat="44.54383" lon="5.54364">
        <ele>702.59997558594</ele>
        <time>2019-10-10T15:10:02Z</time>
      </trkpt>
      <trkpt lat="44.54337" lon="5.54392">
        <ele>702.79998779297</ele>
        <time>2019-10-10T15:10:11Z</time>
      </trkpt>
      <trkpt lat="44.54314" lon="5.54405">
        <ele>702.79998779297</ele>
        <time>2019-10-10T15:10:16Z</time>
      </trkpt>
      <trkpt lat="44.54257" lon="5.54442">
        <ele>704.40002441406</ele>
        <time>2019-10-10T15:10:29Z</time>
      </trkpt>
      <trkpt lat="44.5422" lon="5.54467">
        <ele>704.79998779297</ele>
        <time>2019-10-10T15:10:37Z</time>
      </trkpt>
      <trkpt lat="44.54124" lon="5.54521">
        <ele>705.40002441406</ele>
        <time>2019-10-10T15:10:57Z</time>
      </trkpt>
      <trkpt lat="44.54076" lon="5.54552">
        <ele>706.20001220703</ele>
        <time>2019-10-10T15:11:07Z</time>
      </trkpt>
      <trkpt lat="44.54036" lon="5.54604">
        <ele>707.40002441406</ele>
        <time>2019-10-10T15:11:18Z</time>
      </trkpt>
      <trkpt lat="44.54013" lon="5.54657">
        <ele>708.40002441406</ele>
        <time>2019-10-10T15:11:27Z</time>
      </trkpt>
      <trkpt lat="44.53992" lon="5.54711">
        <ele>709.59997558594</ele>
        <time>2019-10-10T15:11:36Z</time>
      </trkpt>
      <trkpt lat="44.5398" lon="5.5474">
        <ele>710</ele>
        <time>2019-10-10T15:11:42Z</time>
      </trkpt>
      <trkpt lat="44.53965" lon="5.54775">
        <ele>711.20001220703</ele>
        <time>2019-10-10T15:11:49Z</time>
      </trkpt>
      <trkpt lat="44.53934" lon="5.54845">
        <ele>711.79998779297</ele>
        <time>2019-10-10T15:12:03Z</time>
      </trkpt>
      <trkpt lat="44.53872" lon="5.54964">
        <ele>711.40002441406</ele>
        <time>2019-10-10T15:12:23Z</time>
      </trkpt>
      <trkpt lat="44.53856" lon="5.55013">
        <ele>712.40002441406</ele>
        <time>2019-10-10T15:12:30Z</time>
      </trkpt>
      <trkpt lat="44.53849" lon="5.55059">
        <ele>713</ele>
        <time>2019-10-10T15:12:37Z</time>
      </trkpt>
      <trkpt lat="44.53847" lon="5.5511">
        <ele>714</ele>
        <time>2019-10-10T15:12:44Z</time>
      </trkpt>
      <trkpt lat="44.53844" lon="5.55165">
        <ele>714.40002441406</ele>
        <time>2019-10-10T15:12:52Z</time>
      </trkpt>
      <trkpt lat="44.53824" lon="5.55268">
        <ele>715.79998779297</ele>
        <time>2019-10-10T15:13:08Z</time>
      </trkpt>
      <trkpt lat="44.53811" lon="5.55296">
        <ele>716.20001220703</ele>
        <time>2019-10-10T15:13:15Z</time>
      </trkpt>
      <trkpt lat="44.53794" lon="5.55332">
        <ele>717.40002441406</ele>
        <time>2019-10-10T15:13:24Z</time>
      </trkpt>
      <trkpt lat="44.53784" lon="5.5536">
        <ele>719</ele>
        <time>2019-10-10T15:13:31Z</time>
      </trkpt>
      <trkpt lat="44.5377" lon="5.55412">
        <ele>720.79998779297</ele>
        <time>2019-10-10T15:13:42Z</time>
      </trkpt>
      <trkpt lat="44.53763" lon="5.55444">
        <ele>722.20001220703</ele>
        <time>2019-10-10T15:13:49Z</time>
      </trkpt>
      <trkpt lat="44.53756" lon="5.55501">
        <ele>724.40002441406</ele>
        <time>2019-10-10T15:14:02Z</time>
      </trkpt>
      <trkpt lat="44.53755" lon="5.55534">
        <ele>725.79998779297</ele>
        <time>2019-10-10T15:14:10Z</time>
      </trkpt>
      <trkpt lat="44.53758" lon="5.55597">
        <ele>727.79998779297</ele>
        <time>2019-10-10T15:14:24Z</time>
      </trkpt>
      <trkpt lat="44.53758" lon="5.55607">
        <ele>729.59997558594</ele>
        <time>2019-10-10T15:15:27Z</time>
      </trkpt>
      <trkpt lat="44.53755" lon="5.55634">
        <ele>729.59997558594</ele>
        <time>2019-10-10T15:15:33Z</time>
      </trkpt>
      <trkpt lat="44.53744" lon="5.55664">
        <ele>729.79998779297</ele>
        <time>2019-10-10T15:15:39Z</time>
      </trkpt>
      <trkpt lat="44.53734" lon="5.55682">
        <ele>729.79998779297</ele>
        <time>2019-10-10T15:15:43Z</time>
      </trkpt>
      <trkpt lat="44.53694" lon="5.5574">
        <ele>730.20001220703</ele>
        <time>2019-10-10T15:15:56Z</time>
      </trkpt>
      <trkpt lat="44.53682" lon="5.55772">
        <ele>730.40002441406</ele>
        <time>2019-10-10T15:16:02Z</time>
      </trkpt>
      <trkpt lat="44.53604" lon="5.55874">
        <ele>731.20001220703</ele>
        <time>2019-10-10T15:16:22Z</time>
      </trkpt>
      <trkpt lat="44.53524" lon="5.55952">
        <ele>731.40002441406</ele>
        <time>2019-10-10T15:16:39Z</time>
      </trkpt>
      <trkpt lat="44.53484" lon="5.55999">
        <ele>731.59997558594</ele>
        <time>2019-10-10T15:16:48Z</time>
      </trkpt>
      <trkpt lat="44.53469" lon="5.56018">
        <ele>731.79998779297</ele>
        <time>2019-10-10T15:16:52Z</time>
      </trkpt>
      <trkpt lat="44.5343" lon="5.5607">
        <ele>732.59997558594</ele>
        <time>2019-10-10T15:17:02Z</time>
      </trkpt>
      <trkpt lat="44.53381" lon="5.561">
        <ele>732.79998779297</ele>
        <time>2019-10-10T15:17:11Z</time>
      </trkpt>
      <trkpt lat="44.53297" lon="5.5614">
        <ele>733</ele>
        <time>2019-10-10T15:17:27Z</time>
      </trkpt>
      <trkpt lat="44.53236" lon="5.56168">
        <ele>733.79998779297</ele>
        <time>2019-10-10T15:17:38Z</time>
      </trkpt>
      <trkpt lat="44.53178" lon="5.56197">
        <ele>735</ele>
        <time>2019-10-10T15:17:49Z</time>
      </trkpt>
      <trkpt lat="44.53148" lon="5.56216">
        <ele>735.59997558594</ele>
        <time>2019-10-10T15:17:55Z</time>
      </trkpt>
      <trkpt lat="44.53124" lon="5.56243">
        <ele>736</ele>
        <time>2019-10-10T15:18:01Z</time>
      </trkpt>
      <trkpt lat="44.53098" lon="5.56301">
        <ele>737.40002441406</ele>
        <time>2019-10-10T15:18:12Z</time>
      </trkpt>
      <trkpt lat="44.53077" lon="5.56325">
        <ele>738</ele>
        <time>2019-10-10T15:18:18Z</time>
      </trkpt>
      <trkpt lat="44.53006" lon="5.56379">
        <ele>738.40002441406</ele>
        <time>2019-10-10T15:18:34Z</time>
      </trkpt>
      <trkpt lat="44.52972" lon="5.56406">
        <ele>738.59997558594</ele>
        <time>2019-10-10T15:18:42Z</time>
      </trkpt>
      <trkpt lat="44.52918" lon="5.56519">
        <ele>741.20001220703</ele>
        <time>2019-10-10T15:19:04Z</time>
      </trkpt>
      <trkpt lat="44.52906" lon="5.56557">
        <ele>741.79998779297</ele>
        <time>2019-10-10T15:19:11Z</time>
      </trkpt>
      <trkpt lat="44.52892" lon="5.566">
        <ele>742.59997558594</ele>
        <time>2019-10-10T15:19:20Z</time>
      </trkpt>
      <trkpt lat="44.52881" lon="5.56624">
        <ele>743.20001220703</ele>
        <time>2019-10-10T15:19:25Z</time>
      </trkpt>
      <trkpt lat="44.52851" lon="5.56659">
        <ele>743.79998779297</ele>
        <time>2019-10-10T15:19:35Z</time>
      </trkpt>
      <trkpt lat="44.52831" lon="5.56678">
        <ele>744.79998779297</ele>
        <time>2019-10-10T15:19:43Z</time>
      </trkpt>
      <trkpt lat="44.52773" lon="5.5672">
        <ele>746.59997558594</ele>
        <time>2019-10-10T15:20:02Z</time>
      </trkpt>
      <trkpt lat="44.52737" lon="5.56745">
        <ele>747</ele>
        <time>2019-10-10T15:20:11Z</time>
      </trkpt>
      <trkpt lat="44.52687" lon="5.56814">
        <ele>748.79998779297</ele>
        <time>2019-10-10T15:20:27Z</time>
      </trkpt>
      <trkpt lat="44.52668" lon="5.56853">
        <ele>749.40002441406</ele>
        <time>2019-10-10T15:20:35Z</time>
      </trkpt>
      <trkpt lat="44.52631" lon="5.56962">
        <ele>750.59997558594</ele>
        <time>2019-10-10T15:20:52Z</time>
      </trkpt>
      <trkpt lat="44.52618" lon="5.56993">
        <ele>751</ele>
        <time>2019-10-10T15:20:58Z</time>
      </trkpt>
      <trkpt lat="44.52601" lon="5.57017">
        <ele>751.79998779297</ele>
        <time>2019-10-10T15:21:03Z</time>
      </trkpt>
      <trkpt lat="44.52557" lon="5.5705">
        <ele>752.59997558594</ele>
        <time>2019-10-10T15:21:13Z</time>
      </trkpt>
      <trkpt lat="44.52534" lon="5.57068">
        <ele>753.20001220703</ele>
        <time>2019-10-10T15:21:19Z</time>
      </trkpt>
      <trkpt lat="44.52506" lon="5.5713">
        <ele>755.79998779297</ele>
        <time>2019-10-10T15:21:33Z</time>
      </trkpt>
      <trkpt lat="44.52498" lon="5.57169">
        <ele>757.40002441406</ele>
        <time>2019-10-10T15:21:41Z</time>
      </trkpt>
      <trkpt lat="44.52478" lon="5.57236">
        <ele>759.59997558594</ele>
        <time>2019-10-10T15:21:58Z</time>
      </trkpt>
      <trkpt lat="44.52469" lon="5.57243">
        <ele>760.20001220703</ele>
        <time>2019-10-10T15:22:03Z</time>
      </trkpt>
      <trkpt lat="44.52437" lon="5.57264">
        <ele>760.59997558594</ele>
        <time>2019-10-10T15:22:13Z</time>
      </trkpt>
      <trkpt lat="44.52387" lon="5.57294">
        <ele>761.20001220703</ele>
        <time>2019-10-10T15:22:24Z</time>
      </trkpt>
      <trkpt lat="44.52338" lon="5.5734">
        <ele>762.59997558594</ele>
        <time>2019-10-10T15:22:36Z</time>
      </trkpt>
      <trkpt lat="44.52306" lon="5.57385">
        <ele>763.79998779297</ele>
        <time>2019-10-10T15:22:45Z</time>
      </trkpt>
      <trkpt lat="44.52296" lon="5.5739">
        <ele>764</ele>
        <time>2019-10-10T15:22:47Z</time>
      </trkpt>
      <trkpt lat="44.522" lon="5.57408">
        <ele>765</ele>
        <time>2019-10-10T15:23:05Z</time>
      </trkpt>
      <trkpt lat="44.52146" lon="5.57407">
        <ele>765.20001220703</ele>
        <time>2019-10-10T15:23:14Z</time>
      </trkpt>
      <trkpt lat="44.52027" lon="5.57423">
        <ele>766.20001220703</ele>
        <time>2019-10-10T15:23:34Z</time>
      </trkpt>
      <trkpt lat="44.51971" lon="5.57421">
        <ele>766.79998779297</ele>
        <time>2019-10-10T15:23:44Z</time>
      </trkpt>
      <trkpt lat="44.51845" lon="5.57389">
        <ele>767.20001220703</ele>
        <time>2019-10-10T15:24:05Z</time>
      </trkpt>
      <trkpt lat="44.51783" lon="5.57407">
        <ele>767.59997558594</ele>
        <time>2019-10-10T15:24:16Z</time>
      </trkpt>
      <trkpt lat="44.51727" lon="5.57423">
        <ele>768.20001220703</ele>
        <time>2019-10-10T15:24:26Z</time>
      </trkpt>
      <trkpt lat="44.51689" lon="5.57432">
        <ele>769</ele>
        <time>2019-10-10T15:24:34Z</time>
      </trkpt>
      <trkpt lat="44.51618" lon="5.57446">
        <ele>770.40002441406</ele>
        <time>2019-10-10T15:24:49Z</time>
      </trkpt>
      <trkpt lat="44.51564" lon="5.57451">
        <ele>771.40002441406</ele>
        <time>2019-10-10T15:25:01Z</time>
      </trkpt>
      <trkpt lat="44.51453" lon="5.57437">
        <ele>773.59997558594</ele>
        <time>2019-10-10T15:25:26Z</time>
      </trkpt>
      <trkpt lat="44.51395" lon="5.57431">
        <ele>775.20001220703</ele>
        <time>2019-10-10T15:25:39Z</time>
      </trkpt>
      <trkpt lat="44.51349" lon="5.57426">
        <ele>775.79998779297</ele>
        <time>2019-10-10T15:25:49Z</time>
      </trkpt>
      <trkpt lat="44.51283" lon="5.57423">
        <ele>777.79998779297</ele>
        <time>2019-10-10T15:26:03Z</time>
      </trkpt>
      <trkpt lat="44.51243" lon="5.57434">
        <ele>778.79998779297</ele>
        <time>2019-10-10T15:26:12Z</time>
      </trkpt>
      <trkpt lat="44.51189" lon="5.5748">
        <ele>780.20001220703</ele>
        <time>2019-10-10T15:26:26Z</time>
      </trkpt>
      <trkpt lat="44.51162" lon="5.575">
        <ele>780.59997558594</ele>
        <time>2019-10-10T15:26:33Z</time>
      </trkpt>
      <trkpt lat="44.51077" lon="5.57525">
        <ele>782.20001220703</ele>
        <time>2019-10-10T15:26:51Z</time>
      </trkpt>
      <trkpt lat="44.51035" lon="5.57531">
        <ele>782.79998779297</ele>
        <time>2019-10-10T15:26:59Z</time>
      </trkpt>
      <trkpt lat="44.50968" lon="5.57526">
        <ele>783.59997558594</ele>
        <time>2019-10-10T15:27:11Z</time>
      </trkpt>
      <trkpt lat="44.50915" lon="5.57505">
        <ele>784.40002441406</ele>
        <time>2019-10-10T15:27:21Z</time>
      </trkpt>
      <trkpt lat="44.50828" lon="5.57488">
        <ele>786.59997558594</ele>
        <time>2019-10-10T15:27:36Z</time>
      </trkpt>
      <trkpt lat="44.50792" lon="5.57488">
        <ele>787.59997558594</ele>
        <time>2019-10-10T15:27:43Z</time>
      </trkpt>
      <trkpt lat="44.50744" lon="5.57507">
        <ele>789</ele>
        <time>2019-10-10T15:27:54Z</time>
      </trkpt>
      <trkpt lat="44.50697" lon="5.57548">
        <ele>789.59997558594</ele>
        <time>2019-10-10T15:28:06Z</time>
      </trkpt>
      <trkpt lat="44.5064" lon="5.57577">
        <ele>789.79998779297</ele>
        <time>2019-10-10T15:28:20Z</time>
      </trkpt>
      <trkpt lat="44.50627" lon="5.57581">
        <ele>790.20001220703</ele>
        <time>2019-10-10T15:28:25Z</time>
      </trkpt>
      <trkpt lat="44.50625" lon="5.5758">
        <ele>790.40002441406</ele>
        <time>2019-10-10T15:28:29Z</time>
      </trkpt>
      <trkpt lat="44.5062" lon="5.57573">
        <ele>790.59997558594</ele>
        <time>2019-10-10T15:28:37Z</time>
      </trkpt>
      <trkpt lat="44.50604" lon="5.57545">
        <ele>790.79998779297</ele>
        <time>2019-10-10T15:28:49Z</time>
      </trkpt>
      <trkpt lat="44.50567" lon="5.57481">
        <ele>790.79998779297</ele>
        <time>2019-10-10T15:29:05Z</time>
      </trkpt>
      <trkpt lat="44.50571" lon="5.57445">
        <ele>791.20001220703</ele>
        <time>2019-10-10T15:29:16Z</time>
      </trkpt>
      <trkpt lat="44.50577" lon="5.57434">
        <ele>791.20001220703</ele>
        <time>2019-10-10T15:29:27Z</time>
      </trkpt>
      <trkpt lat="44.50574" lon="5.5744">
        <ele>791.20001220703</ele>
        <time>2019-10-10T15:31:27Z</time>
      </trkpt>
      <trkpt lat="44.50557" lon="5.57434">
        <ele>791.20001220703</ele>
        <time>2019-10-10T15:31:33Z</time>
      </trkpt>
      <trkpt lat="44.5055" lon="5.57415">
        <ele>792.20001220703</ele>
        <time>2019-10-10T15:31:40Z</time>
      </trkpt>
      <trkpt lat="44.50545" lon="5.57401">
        <ele>793.40002441406</ele>
        <time>2019-10-10T15:31:46Z</time>
      </trkpt>
      <trkpt lat="44.50542" lon="5.57392">
        <ele>794.20001220703</ele>
        <time>2019-10-10T15:31:50Z</time>
      </trkpt>
      <trkpt lat="44.50533" lon="5.57372">
        <ele>796</ele>
        <time>2019-10-10T15:31:59Z</time>
      </trkpt>
      <trkpt lat="44.50523" lon="5.57356">
        <ele>797.40002441406</ele>
        <time>2019-10-10T15:32:07Z</time>
      </trkpt>
      <trkpt lat="44.50513" lon="5.57338">
        <ele>798.79998779297</ele>
        <time>2019-10-10T15:32:15Z</time>
      </trkpt>
      <trkpt lat="44.50494" lon="5.57302">
        <ele>801.79998779297</ele>
        <time>2019-10-10T15:32:32Z</time>
      </trkpt>
      <trkpt lat="44.50486" lon="5.57285">
        <ele>803.20001220703</ele>
        <time>2019-10-10T15:32:40Z</time>
      </trkpt>
      <trkpt lat="44.5047" lon="5.57264">
        <ele>805.79998779297</ele>
        <time>2019-10-10T15:32:51Z</time>
      </trkpt>
      <trkpt lat="44.50456" lon="5.57253">
        <ele>807.20001220703</ele>
        <time>2019-10-10T15:33:00Z</time>
      </trkpt>
      <trkpt lat="44.50449" lon="5.57248">
        <ele>808.59997558594</ele>
        <time>2019-10-10T15:33:08Z</time>
      </trkpt>
      <trkpt lat="44.50449" lon="5.57247">
        <ele>810.20001220703</ele>
        <time>2019-10-10T15:33:22Z</time>
      </trkpt>
      <trkpt lat="44.50453" lon="5.57251">
        <ele>810.79998779297</ele>
        <time>2019-10-10T15:33:37Z</time>
      </trkpt>
      <trkpt lat="44.50457" lon="5.57254">
        <ele>811</ele>
        <time>2019-10-10T15:33:43Z</time>
      </trkpt>
      <trkpt lat="44.50462" lon="5.57257">
        <ele>811.40002441406</ele>
        <time>2019-10-10T15:33:50Z</time>
      </trkpt>
      <trkpt lat="44.50465" lon="5.57259">
        <ele>811.40002441406</ele>
        <time>2019-10-10T15:33:55Z</time>
      </trkpt>
      <trkpt lat="44.5046" lon="5.57256">
        <ele>810.59997558594</ele>
        <time>2019-10-10T15:37:07Z</time>
      </trkpt>
      <trkpt lat="44.50451" lon="5.5725">
        <ele>811</ele>
        <time>2019-10-10T15:37:18Z</time>
      </trkpt>
      <trkpt lat="44.50448" lon="5.57247">
        <ele>811</ele>
        <time>2019-10-10T15:37:29Z</time>
      </trkpt>
      <trkpt lat="44.50448" lon="5.57246">
        <ele>810.59997558594</ele>
        <time>2019-10-10T15:37:36Z</time>
      </trkpt>
      <trkpt lat="44.50447" lon="5.57245">
        <ele>810.59997558594</ele>
        <time>2019-10-10T15:37:43Z</time>
      </trkpt>
      <trkpt lat="44.5045" lon="5.57249">
        <ele>810.40002441406</ele>
        <time>2019-10-10T15:37:49Z</time>
      </trkpt>
      <trkpt lat="44.5047" lon="5.57263">
        <ele>810</ele>
        <time>2019-10-10T15:37:57Z</time>
      </trkpt>
      <trkpt lat="44.50489" lon="5.57291">
        <ele>807.40002441406</ele>
        <time>2019-10-10T15:38:04Z</time>
      </trkpt>
      <trkpt lat="44.50495" lon="5.57304">
        <ele>806.79998779297</ele>
        <time>2019-10-10T15:38:06Z</time>
      </trkpt>
      <trkpt lat="44.50521" lon="5.57352">
        <ele>805</ele>
        <time>2019-10-10T15:38:12Z</time>
      </trkpt>
      <trkpt lat="44.50547" lon="5.57405">
        <ele>801.79998779297</ele>
        <time>2019-10-10T15:38:18Z</time>
      </trkpt>
      <trkpt lat="44.50561" lon="5.57444">
        <ele>798.79998779297</ele>
        <time>2019-10-10T15:38:23Z</time>
      </trkpt>
      <trkpt lat="44.50564" lon="5.57454">
        <ele>797.79998779297</ele>
        <time>2019-10-10T15:38:25Z</time>
      </trkpt>
      <trkpt lat="44.50585" lon="5.57414">
        <ele>794</ele>
        <time>2019-10-10T15:38:31Z</time>
      </trkpt>
      <trkpt lat="44.50599" lon="5.5738">
        <ele>792</ele>
        <time>2019-10-10T15:38:36Z</time>
      </trkpt>
      <trkpt lat="44.50602" lon="5.57357">
        <ele>790.40002441406</ele>
        <time>2019-10-10T15:38:42Z</time>
      </trkpt>
      <trkpt lat="44.50595" lon="5.57325">
        <ele>788.79998779297</ele>
        <time>2019-10-10T15:38:52Z</time>
      </trkpt>
      <trkpt lat="44.50584" lon="5.57286">
        <ele>789.20001220703</ele>
        <time>2019-10-10T15:39:00Z</time>
      </trkpt>
      <trkpt lat="44.50572" lon="5.57264">
        <ele>789.59997558594</ele>
        <time>2019-10-10T15:39:05Z</time>
      </trkpt>
      <trkpt lat="44.50564" lon="5.5725">
        <ele>789.79998779297</ele>
        <time>2019-10-10T15:39:09Z</time>
      </trkpt>
      <trkpt lat="44.50551" lon="5.5723">
        <ele>791.20001220703</ele>
        <time>2019-10-10T15:39:19Z</time>
      </trkpt>
      <trkpt lat="44.50549" lon="5.57227">
        <ele>791.79998779297</ele>
        <time>2019-10-10T15:39:24Z</time>
      </trkpt>
      <trkpt lat="44.50549" lon="5.57232">
        <ele>791.79998779297</ele>
        <time>2019-10-10T15:41:25Z</time>
      </trkpt>
      <trkpt lat="44.50554" lon="5.57231">
        <ele>792</ele>
        <time>2019-10-10T15:41:30Z</time>
      </trkpt>
      <trkpt lat="44.50543" lon="5.57218">
        <ele>792</ele>
        <time>2019-10-10T15:41:38Z</time>
      </trkpt>
      <trkpt lat="44.50534" lon="5.57197">
        <ele>792.40002441406</ele>
        <time>2019-10-10T15:41:47Z</time>
      </trkpt>
      <trkpt lat="44.50531" lon="5.5719">
        <ele>793.20001220703</ele>
        <time>2019-10-10T15:41:57Z</time>
      </trkpt>
      <trkpt lat="44.50543" lon="5.57195">
        <ele>793.20001220703</ele>
        <time>2019-10-10T15:47:58Z</time>
      </trkpt>
      <trkpt lat="44.50559" lon="5.57218">
        <ele>793.20001220703</ele>
        <time>2019-10-10T15:48:05Z</time>
      </trkpt>
      <trkpt lat="44.50567" lon="5.57256">
        <ele>792.59997558594</ele>
        <time>2019-10-10T15:48:10Z</time>
      </trkpt>
      <trkpt lat="44.50583" lon="5.57284">
        <ele>791.79998779297</ele>
        <time>2019-10-10T15:48:14Z</time>
      </trkpt>
      <trkpt lat="44.50602" lon="5.57368">
        <ele>789.20001220703</ele>
        <time>2019-10-10T15:48:25Z</time>
      </trkpt>
      <trkpt lat="44.50596" lon="5.57387">
        <ele>788.79998779297</ele>
        <time>2019-10-10T15:48:28Z</time>
      </trkpt>
      <trkpt lat="44.50582" lon="5.57421">
        <ele>788.79998779297</ele>
        <time>2019-10-10T15:48:34Z</time>
      </trkpt>
      <trkpt lat="44.50569" lon="5.5745">
        <ele>790.20001220703</ele>
        <time>2019-10-10T15:48:42Z</time>
      </trkpt>
      <trkpt lat="44.50567" lon="5.57485">
        <ele>791.20001220703</ele>
        <time>2019-10-10T15:48:50Z</time>
      </trkpt>
      <trkpt lat="44.50591" lon="5.57524">
        <ele>791.20001220703</ele>
        <time>2019-10-10T15:48:58Z</time>
      </trkpt>
      <trkpt lat="44.5062" lon="5.57572">
        <ele>790.79998779297</ele>
        <time>2019-10-10T15:49:07Z</time>
      </trkpt>
      <trkpt lat="44.50626" lon="5.57582">
        <ele>790.79998779297</ele>
        <time>2019-10-10T15:49:10Z</time>
      </trkpt>
      <trkpt lat="44.5061" lon="5.57605">
        <ele>790.79998779297</ele>
        <time>2019-10-10T15:49:15Z</time>
      </trkpt>
      <trkpt lat="44.50592" lon="5.57632">
        <ele>791.20001220703</ele>
        <time>2019-10-10T15:49:23Z</time>
      </trkpt>
      <trkpt lat="44.50575" lon="5.57656">
        <ele>792.40002441406</ele>
        <time>2019-10-10T15:49:31Z</time>
      </trkpt>
      <trkpt lat="44.50555" lon="5.57685">
        <ele>793.79998779297</ele>
        <time>2019-10-10T15:49:39Z</time>
      </trkpt>
      <trkpt lat="44.50524" lon="5.5773">
        <ele>794</ele>
        <time>2019-10-10T15:49:48Z</time>
      </trkpt>
      <trkpt lat="44.5051" lon="5.57744">
        <ele>793.79998779297</ele>
        <time>2019-10-10T15:49:52Z</time>
      </trkpt>
      <trkpt lat="44.50484" lon="5.57753">
        <ele>793.59997558594</ele>
        <time>2019-10-10T15:49:57Z</time>
      </trkpt>
      <trkpt lat="44.50465" lon="5.57772">
        <ele>792.79998779297</ele>
        <time>2019-10-10T15:50:01Z</time>
      </trkpt>
      <trkpt lat="44.50452" lon="5.57792">
        <ele>792.40002441406</ele>
        <time>2019-10-10T15:50:05Z</time>
      </trkpt>
      <trkpt lat="44.5043" lon="5.57821">
        <ele>791.40002441406</ele>
        <time>2019-10-10T15:50:13Z</time>
      </trkpt>
      <trkpt lat="44.50417" lon="5.57837">
        <ele>791.59997558594</ele>
        <time>2019-10-10T15:50:18Z</time>
      </trkpt>
      <trkpt lat="44.50403" lon="5.57855">
        <ele>792</ele>
        <time>2019-10-10T15:50:24Z</time>
      </trkpt>
      <trkpt lat="44.50392" lon="5.57868">
        <ele>792.59997558594</ele>
        <time>2019-10-10T15:50:28Z</time>
      </trkpt>
      <trkpt lat="44.50376" lon="5.57888">
        <ele>794</ele>
        <time>2019-10-10T15:50:35Z</time>
      </trkpt>
      <trkpt lat="44.50364" lon="5.57902">
        <ele>794.79998779297</ele>
        <time>2019-10-10T15:50:40Z</time>
      </trkpt>
      <trkpt lat="44.50349" lon="5.57918">
        <ele>796</ele>
        <time>2019-10-10T15:50:47Z</time>
      </trkpt>
      <trkpt lat="44.50334" lon="5.57936">
        <ele>797</ele>
        <time>2019-10-10T15:50:54Z</time>
      </trkpt>
      <trkpt lat="44.50314" lon="5.57955">
        <ele>798.20001220703</ele>
        <time>2019-10-10T15:51:02Z</time>
      </trkpt>
      <trkpt lat="44.5028" lon="5.57986">
        <ele>800</ele>
        <time>2019-10-10T15:51:15Z</time>
      </trkpt>
      <trkpt lat="44.50254" lon="5.58007">
        <ele>801.20001220703</ele>
        <time>2019-10-10T15:51:25Z</time>
      </trkpt>
      <trkpt lat="44.50232" lon="5.58029">
        <ele>802.20001220703</ele>
        <time>2019-10-10T15:51:33Z</time>
      </trkpt>
      <trkpt lat="44.50207" lon="5.58114">
        <ele>804.20001220703</ele>
        <time>2019-10-10T15:51:49Z</time>
      </trkpt>
      <trkpt lat="44.50204" lon="5.582">
        <ele>805.40002441406</ele>
        <time>2019-10-10T15:52:05Z</time>
      </trkpt>
      <trkpt lat="44.50205" lon="5.58233">
        <ele>805.59997558594</ele>
        <time>2019-10-10T15:52:12Z</time>
      </trkpt>
      <trkpt lat="44.50205" lon="5.58238">
        <ele>805.59997558594</ele>
        <time>2019-10-10T15:53:06Z</time>
      </trkpt>
      <trkpt lat="44.50208" lon="5.58268">
        <ele>805.59997558594</ele>
        <time>2019-10-10T15:53:14Z</time>
      </trkpt>
      <trkpt lat="44.50238" lon="5.58345">
        <ele>805.79998779297</ele>
        <time>2019-10-10T15:53:28Z</time>
      </trkpt>
      <trkpt lat="44.50242" lon="5.58361">
        <ele>805.79998779297</ele>
        <time>2019-10-10T15:53:31Z</time>
      </trkpt>
      <trkpt lat="44.50239" lon="5.58381">
        <ele>805.79998779297</ele>
        <time>2019-10-10T15:53:35Z</time>
      </trkpt>
      <trkpt lat="44.50222" lon="5.58429">
        <ele>806</ele>
        <time>2019-10-10T15:53:43Z</time>
      </trkpt>
      <trkpt lat="44.50214" lon="5.58459">
        <ele>806.20001220703</ele>
        <time>2019-10-10T15:53:49Z</time>
      </trkpt>
      <trkpt lat="44.50208" lon="5.58482">
        <ele>806.79998779297</ele>
        <time>2019-10-10T15:53:55Z</time>
      </trkpt>
      <trkpt lat="44.50203" lon="5.58502">
        <ele>808.20001220703</ele>
        <time>2019-10-10T15:54:01Z</time>
      </trkpt>
      <trkpt lat="44.50197" lon="5.58548">
        <ele>810.79998779297</ele>
        <time>2019-10-10T15:54:14Z</time>
      </trkpt>
      <trkpt lat="44.50199" lon="5.58581">
        <ele>812.59997558594</ele>
        <time>2019-10-10T15:54:24Z</time>
      </trkpt>
      <trkpt lat="44.50202" lon="5.5862">
        <ele>814</ele>
        <time>2019-10-10T15:54:35Z</time>
      </trkpt>
      <trkpt lat="44.50203" lon="5.58646">
        <ele>815.40002441406</ele>
        <time>2019-10-10T15:54:43Z</time>
      </trkpt>
      <trkpt lat="44.50219" lon="5.58708">
        <ele>817.79998779297</ele>
        <time>2019-10-10T15:55:00Z</time>
      </trkpt>
      <trkpt lat="44.50233" lon="5.58747">
        <ele>818.79998779297</ele>
        <time>2019-10-10T15:55:09Z</time>
      </trkpt>
      <trkpt lat="44.50246" lon="5.58789">
        <ele>819.20001220703</ele>
        <time>2019-10-10T15:55:18Z</time>
      </trkpt>
      <trkpt lat="44.5025" lon="5.5882">
        <ele>819.79998779297</ele>
        <time>2019-10-10T15:55:25Z</time>
      </trkpt>
      <trkpt lat="44.5025" lon="5.58836">
        <ele>820</ele>
        <time>2019-10-10T15:55:31Z</time>
      </trkpt>
      <trkpt lat="44.5025" lon="5.58836">
        <ele>820.20001220703</ele>
        <time>2019-10-10T15:56:09Z</time>
      </trkpt>
      <trkpt lat="44.50249" lon="5.58895">
        <ele>820.20001220703</ele>
        <time>2019-10-10T15:56:20Z</time>
      </trkpt>
      <trkpt lat="44.50255" lon="5.58923">
        <ele>820.20001220703</ele>
        <time>2019-10-10T15:56:25Z</time>
      </trkpt>
      <trkpt lat="44.5026" lon="5.58958">
        <ele>820.79998779297</ele>
        <time>2019-10-10T15:56:33Z</time>
      </trkpt>
      <trkpt lat="44.50261" lon="5.58963">
        <ele>821.20001220703</ele>
        <time>2019-10-10T15:56:36Z</time>
      </trkpt>
      <trkpt lat="44.50264" lon="5.58978">
        <ele>822.20001220703</ele>
        <time>2019-10-10T15:56:44Z</time>
      </trkpt>
      <trkpt lat="44.50275" lon="5.59023">
        <ele>823.79998779297</ele>
        <time>2019-10-10T15:56:56Z</time>
      </trkpt>
      <trkpt lat="44.50285" lon="5.59054">
        <ele>824.79998779297</ele>
        <time>2019-10-10T15:57:05Z</time>
      </trkpt>
      <trkpt lat="44.50294" lon="5.59087">
        <ele>826.20001220703</ele>
        <time>2019-10-10T15:57:15Z</time>
      </trkpt>
      <trkpt lat="44.50315" lon="5.59133">
        <ele>828.20001220703</ele>
        <time>2019-10-10T15:57:28Z</time>
      </trkpt>
      <trkpt lat="44.50327" lon="5.59155">
        <ele>829.40002441406</ele>
        <time>2019-10-10T15:57:36Z</time>
      </trkpt>
      <trkpt lat="44.50338" lon="5.59176">
        <ele>830.79998779297</ele>
        <time>2019-10-10T15:57:44Z</time>
      </trkpt>
      <trkpt lat="44.50355" lon="5.59204">
        <ele>832.59997558594</ele>
        <time>2019-10-10T15:57:54Z</time>
      </trkpt>
      <trkpt lat="44.50369" lon="5.59226">
        <ele>834</ele>
        <time>2019-10-10T15:58:02Z</time>
      </trkpt>
      <trkpt lat="44.50391" lon="5.59251">
        <ele>835.59997558594</ele>
        <time>2019-10-10T15:58:13Z</time>
      </trkpt>
      <trkpt lat="44.50412" lon="5.59276">
        <ele>836.79998779297</ele>
        <time>2019-10-10T15:58:22Z</time>
      </trkpt>
      <trkpt lat="44.50439" lon="5.59305">
        <ele>838</ele>
        <time>2019-10-10T15:58:33Z</time>
      </trkpt>
      <trkpt lat="44.50466" lon="5.59333">
        <ele>839.20001220703</ele>
        <time>2019-10-10T15:58:45Z</time>
      </trkpt>
      <trkpt lat="44.50486" lon="5.59353">
        <ele>840.59997558594</ele>
        <time>2019-10-10T15:58:55Z</time>
      </trkpt>
      <trkpt lat="44.50513" lon="5.59379">
        <ele>841.79998779297</ele>
        <time>2019-10-10T15:59:06Z</time>
      </trkpt>
      <trkpt lat="44.50526" lon="5.5939">
        <ele>842.40002441406</ele>
        <time>2019-10-10T15:59:12Z</time>
      </trkpt>
      <trkpt lat="44.50552" lon="5.59413">
        <ele>844</ele>
        <time>2019-10-10T15:59:24Z</time>
      </trkpt>
      <trkpt lat="44.50567" lon="5.59427">
        <ele>844.59997558594</ele>
        <time>2019-10-10T15:59:30Z</time>
      </trkpt>
      <trkpt lat="44.50592" lon="5.5945">
        <ele>846.59997558594</ele>
        <time>2019-10-10T15:59:41Z</time>
      </trkpt>
      <trkpt lat="44.5061" lon="5.59476">
        <ele>847.20001220703</ele>
        <time>2019-10-10T15:59:49Z</time>
      </trkpt>
      <trkpt lat="44.50632" lon="5.59512">
        <ele>848.40002441406</ele>
        <time>2019-10-10T16:00:00Z</time>
      </trkpt>
      <trkpt lat="44.50655" lon="5.59554">
        <ele>850</ele>
        <time>2019-10-10T16:00:13Z</time>
      </trkpt>
      <trkpt lat="44.50678" lon="5.59617">
        <ele>851.79998779297</ele>
        <time>2019-10-10T16:00:29Z</time>
      </trkpt>
      <trkpt lat="44.50689" lon="5.59652">
        <ele>852.40002441406</ele>
        <time>2019-10-10T16:00:38Z</time>
      </trkpt>
      <trkpt lat="44.50697" lon="5.59675">
        <ele>853.20001220703</ele>
        <time>2019-10-10T16:00:44Z</time>
      </trkpt>
      <trkpt lat="44.50734" lon="5.59752">
        <ele>855.79998779297</ele>
        <time>2019-10-10T16:01:03Z</time>
      </trkpt>
      <trkpt lat="44.50751" lon="5.59785">
        <ele>856.59997558594</ele>
        <time>2019-10-10T16:01:12Z</time>
      </trkpt>
      <trkpt lat="44.50783" lon="5.59829">
        <ele>857.79998779297</ele>
        <time>2019-10-10T16:01:25Z</time>
      </trkpt>
      <trkpt lat="44.50798" lon="5.59875">
        <ele>858</ele>
        <time>2019-10-10T16:01:34Z</time>
      </trkpt>
      <trkpt lat="44.50815" lon="5.59963">
        <ele>859</ele>
        <time>2019-10-10T16:01:51Z</time>
      </trkpt>
      <trkpt lat="44.50827" lon="5.59989">
        <ele>859.40002441406</ele>
        <time>2019-10-10T16:01:56Z</time>
      </trkpt>
      <trkpt lat="44.50844" lon="5.60028">
        <ele>859.79998779297</ele>
        <time>2019-10-10T16:02:05Z</time>
      </trkpt>
      <trkpt lat="44.50846" lon="5.60044">
        <ele>860</ele>
        <time>2019-10-10T16:02:08Z</time>
      </trkpt>
      <trkpt lat="44.5085" lon="5.60086">
        <ele>860.79998779297</ele>
        <time>2019-10-10T16:02:15Z</time>
      </trkpt>
      <trkpt lat="44.50859" lon="5.6013">
        <ele>861.40002441406</ele>
        <time>2019-10-10T16:02:23Z</time>
      </trkpt>
      <trkpt lat="44.50877" lon="5.60185">
        <ele>862.59997558594</ele>
        <time>2019-10-10T16:02:35Z</time>
      </trkpt>
      <trkpt lat="44.50891" lon="5.60225">
        <ele>864.20001220703</ele>
        <time>2019-10-10T16:02:44Z</time>
      </trkpt>
      <trkpt lat="44.50913" lon="5.60296">
        <ele>865.79998779297</ele>
        <time>2019-10-10T16:02:59Z</time>
      </trkpt>
      <trkpt lat="44.50923" lon="5.60334">
        <ele>866</ele>
        <time>2019-10-10T16:03:06Z</time>
      </trkpt>
      <trkpt lat="44.5094" lon="5.6041">
        <ele>866.59997558594</ele>
        <time>2019-10-10T16:03:20Z</time>
      </trkpt>
      <trkpt lat="44.50953" lon="5.60474">
        <ele>867.20001220703</ele>
        <time>2019-10-10T16:03:32Z</time>
      </trkpt>
      <trkpt lat="44.50957" lon="5.60509">
        <ele>867.40002441406</ele>
        <time>2019-10-10T16:03:38Z</time>
      </trkpt>
      <trkpt lat="44.50965" lon="5.60614">
        <ele>869.20001220703</ele>
        <time>2019-10-10T16:03:56Z</time>
      </trkpt>
      <trkpt lat="44.50972" lon="5.60662">
        <ele>869.79998779297</ele>
        <time>2019-10-10T16:04:05Z</time>
      </trkpt>
      <trkpt lat="44.50985" lon="5.60741">
        <ele>871.79998779297</ele>
        <time>2019-10-10T16:04:20Z</time>
      </trkpt>
      <trkpt lat="44.50988" lon="5.60763">
        <ele>872.59997558594</ele>
        <time>2019-10-10T16:04:25Z</time>
      </trkpt>
      <trkpt lat="44.51002" lon="5.60821">
        <ele>874.79998779297</ele>
        <time>2019-10-10T16:04:39Z</time>
      </trkpt>
      <trkpt lat="44.51011" lon="5.60865">
        <ele>875.79998779297</ele>
        <time>2019-10-10T16:04:49Z</time>
      </trkpt>
      <trkpt lat="44.51023" lon="5.60924">
        <ele>877.40002441406</ele>
        <time>2019-10-10T16:05:02Z</time>
      </trkpt>
      <trkpt lat="44.5103" lon="5.60961">
        <ele>878.40002441406</ele>
        <time>2019-10-10T16:05:10Z</time>
      </trkpt>
      <trkpt lat="44.51058" lon="5.61039">
        <ele>880.59997558594</ele>
        <time>2019-10-10T16:05:29Z</time>
      </trkpt>
      <trkpt lat="44.5107" lon="5.61074">
        <ele>882.40002441406</ele>
        <time>2019-10-10T16:05:39Z</time>
      </trkpt>
      <trkpt lat="44.51075" lon="5.61097">
        <ele>882.79998779297</ele>
        <time>2019-10-10T16:05:45Z</time>
      </trkpt>
      <trkpt lat="44.51084" lon="5.61139">
        <ele>884.79998779297</ele>
        <time>2019-10-10T16:05:55Z</time>
      </trkpt>
      <trkpt lat="44.5109" lon="5.61176">
        <ele>886.59997558594</ele>
        <time>2019-10-10T16:06:03Z</time>
      </trkpt>
      <trkpt lat="44.51095" lon="5.61233">
        <ele>888.20001220703</ele>
        <time>2019-10-10T16:06:16Z</time>
      </trkpt>
      <trkpt lat="44.51105" lon="5.6126">
        <ele>889.59997558594</ele>
        <time>2019-10-10T16:06:24Z</time>
      </trkpt>
      <trkpt lat="44.51127" lon="5.61303">
        <ele>891.40002441406</ele>
        <time>2019-10-10T16:06:37Z</time>
      </trkpt>
      <trkpt lat="44.51133" lon="5.61329">
        <ele>892.79998779297</ele>
        <time>2019-10-10T16:06:44Z</time>
      </trkpt>
      <trkpt lat="44.51147" lon="5.6138">
        <ele>894.79998779297</ele>
        <time>2019-10-10T16:06:59Z</time>
      </trkpt>
      <trkpt lat="44.51158" lon="5.61413">
        <ele>896.20001220703</ele>
        <time>2019-10-10T16:07:08Z</time>
      </trkpt>
      <trkpt lat="44.51172" lon="5.61457">
        <ele>897.79998779297</ele>
        <time>2019-10-10T16:07:20Z</time>
      </trkpt>
      <trkpt lat="44.51181" lon="5.61502">
        <ele>899.79998779297</ele>
        <time>2019-10-10T16:07:31Z</time>
      </trkpt>
      <trkpt lat="44.51187" lon="5.61544">
        <ele>901</ele>
        <time>2019-10-10T16:07:40Z</time>
      </trkpt>
      <trkpt lat="44.51192" lon="5.61608">
        <ele>903.20001220703</ele>
        <time>2019-10-10T16:07:54Z</time>
      </trkpt>
      <trkpt lat="44.51195" lon="5.61633">
        <ele>904.59997558594</ele>
        <time>2019-10-10T16:08:02Z</time>
      </trkpt>
      <trkpt lat="44.51215" lon="5.61689">
        <ele>907.20001220703</ele>
        <time>2019-10-10T16:08:20Z</time>
      </trkpt>
      <trkpt lat="44.51232" lon="5.61721">
        <ele>908.40002441406</ele>
        <time>2019-10-10T16:08:31Z</time>
      </trkpt>
      <trkpt lat="44.51242" lon="5.61752">
        <ele>910.20001220703</ele>
        <time>2019-10-10T16:08:41Z</time>
      </trkpt>
      <trkpt lat="44.5125" lon="5.61785">
        <ele>912.20001220703</ele>
        <time>2019-10-10T16:08:52Z</time>
      </trkpt>
      <trkpt lat="44.51261" lon="5.61814">
        <ele>913.59997558594</ele>
        <time>2019-10-10T16:09:02Z</time>
      </trkpt>
      <trkpt lat="44.51272" lon="5.61867">
        <ele>915.59997558594</ele>
        <time>2019-10-10T16:09:17Z</time>
      </trkpt>
      <trkpt lat="44.51274" lon="5.61931">
        <ele>917.79998779297</ele>
        <time>2019-10-10T16:09:33Z</time>
      </trkpt>
      <trkpt lat="44.51275" lon="5.6197">
        <ele>918.79998779297</ele>
        <time>2019-10-10T16:09:42Z</time>
      </trkpt>
      <trkpt lat="44.51277" lon="5.6199">
        <ele>918.79998779297</ele>
        <time>2019-10-10T16:09:46Z</time>
      </trkpt>
      <trkpt lat="44.51278" lon="5.62013">
        <ele>918.79998779297</ele>
        <time>2019-10-10T16:09:49Z</time>
      </trkpt>
      <trkpt lat="44.51273" lon="5.62064">
        <ele>918.40002441406</ele>
        <time>2019-10-10T16:09:54Z</time>
      </trkpt>
      <trkpt lat="44.51269" lon="5.62099">
        <ele>917.40002441406</ele>
        <time>2019-10-10T16:09:57Z</time>
      </trkpt>
      <trkpt lat="44.51265" lon="5.62155">
        <ele>915.20001220703</ele>
        <time>2019-10-10T16:10:02Z</time>
      </trkpt>
      <trkpt lat="44.51279" lon="5.62195">
        <ele>914.20001220703</ele>
        <time>2019-10-10T16:10:08Z</time>
      </trkpt>
      <trkpt lat="44.51286" lon="5.62213">
        <ele>914.40002441406</ele>
        <time>2019-10-10T16:10:14Z</time>
      </trkpt>
      <trkpt lat="44.51297" lon="5.62228">
        <ele>917.20001220703</ele>
        <time>2019-10-10T16:10:22Z</time>
      </trkpt>
      <trkpt lat="44.51302" lon="5.62232">
        <ele>918.20001220703</ele>
        <time>2019-10-10T16:10:26Z</time>
      </trkpt>
      <trkpt lat="44.51316" lon="5.62236">
        <ele>920.40002441406</ele>
        <time>2019-10-10T16:10:34Z</time>
      </trkpt>
      <trkpt lat="44.51324" lon="5.62236">
        <ele>922.79998779297</ele>
        <time>2019-10-10T16:11:54Z</time>
      </trkpt>
      <trkpt lat="44.51335" lon="5.62235">
        <ele>922.79998779297</ele>
        <time>2019-10-10T16:12:01Z</time>
      </trkpt>
      <trkpt lat="44.51346" lon="5.62234">
        <ele>922.79998779297</ele>
        <time>2019-10-10T16:12:06Z</time>
      </trkpt>
      <trkpt lat="44.51354" lon="5.62236">
        <ele>923.79998779297</ele>
        <time>2019-10-10T16:12:12Z</time>
      </trkpt>
      <trkpt lat="44.51358" lon="5.62238">
        <ele>924.20001220703</ele>
        <time>2019-10-10T16:12:15Z</time>
      </trkpt>
      <trkpt lat="44.51365" lon="5.62247">
        <ele>926</ele>
        <time>2019-10-10T16:12:22Z</time>
      </trkpt>
      <trkpt lat="44.51374" lon="5.62263">
        <ele>927.79998779297</ele>
        <time>2019-10-10T16:12:31Z</time>
      </trkpt>
      <trkpt lat="44.51385" lon="5.62278">
        <ele>929.40002441406</ele>
        <time>2019-10-10T16:12:40Z</time>
      </trkpt>
      <trkpt lat="44.51392" lon="5.62287">
        <ele>930.20001220703</ele>
        <time>2019-10-10T16:12:46Z</time>
      </trkpt>
      <trkpt lat="44.51399" lon="5.62296">
        <ele>931.79998779297</ele>
        <time>2019-10-10T16:12:54Z</time>
      </trkpt>
      <trkpt lat="44.51411" lon="5.62315">
        <ele>934</ele>
        <time>2019-10-10T16:13:06Z</time>
      </trkpt>
      <trkpt lat="44.51417" lon="5.62329">
        <ele>935.59997558594</ele>
        <time>2019-10-10T16:13:14Z</time>
      </trkpt>
      <trkpt lat="44.51427" lon="5.62346">
        <ele>938</ele>
        <time>2019-10-10T16:13:26Z</time>
      </trkpt>
      <trkpt lat="44.5144" lon="5.62347">
        <ele>940</ele>
        <time>2019-10-10T16:13:36Z</time>
      </trkpt>
      <trkpt lat="44.51459" lon="5.62337">
        <ele>941.59997558594</ele>
        <time>2019-10-10T16:13:48Z</time>
      </trkpt>
      <trkpt lat="44.51471" lon="5.62333">
        <ele>943.20001220703</ele>
        <time>2019-10-10T16:13:57Z</time>
      </trkpt>
      <trkpt lat="44.51479" lon="5.6234">
        <ele>945.20001220703</ele>
        <time>2019-10-10T16:14:05Z</time>
      </trkpt>
      <trkpt lat="44.51482" lon="5.62356">
        <ele>946.59997558594</ele>
        <time>2019-10-10T16:14:11Z</time>
      </trkpt>
      <trkpt lat="44.51478" lon="5.62397">
        <ele>949.59997558594</ele>
        <time>2019-10-10T16:14:25Z</time>
      </trkpt>
      <trkpt lat="44.51466" lon="5.62416">
        <ele>950.20001220703</ele>
        <time>2019-10-10T16:14:32Z</time>
      </trkpt>
      <trkpt lat="44.51446" lon="5.62423">
        <ele>951</ele>
        <time>2019-10-10T16:14:40Z</time>
      </trkpt>
      <trkpt lat="44.51431" lon="5.62419">
        <ele>951</ele>
        <time>2019-10-10T16:14:45Z</time>
      </trkpt>
      <trkpt lat="44.51409" lon="5.62405">
        <ele>952</ele>
        <time>2019-10-10T16:14:54Z</time>
      </trkpt>
      <trkpt lat="44.51379" lon="5.62391">
        <ele>953.59997558594</ele>
        <time>2019-10-10T16:15:07Z</time>
      </trkpt>
      <trkpt lat="44.5137" lon="5.624">
        <ele>954.59997558594</ele>
        <time>2019-10-10T16:15:13Z</time>
      </trkpt>
      <trkpt lat="44.51349" lon="5.62448">
        <ele>956.59997558594</ele>
        <time>2019-10-10T16:15:30Z</time>
      </trkpt>
      <trkpt lat="44.51339" lon="5.62471">
        <ele>957.59997558594</ele>
        <time>2019-10-10T16:15:38Z</time>
      </trkpt>
      <trkpt lat="44.51331" lon="5.62506">
        <ele>959</ele>
        <time>2019-10-10T16:15:49Z</time>
      </trkpt>
      <trkpt lat="44.51328" lon="5.62542">
        <ele>961</ele>
        <time>2019-10-10T16:16:00Z</time>
      </trkpt>
      <trkpt lat="44.5133" lon="5.62583">
        <ele>963.79998779297</ele>
        <time>2019-10-10T16:16:14Z</time>
      </trkpt>
      <trkpt lat="44.51326" lon="5.62615">
        <ele>964.79998779297</ele>
        <time>2019-10-10T16:16:25Z</time>
      </trkpt>
      <trkpt lat="44.51321" lon="5.62645">
        <ele>966.79998779297</ele>
        <time>2019-10-10T16:16:36Z</time>
      </trkpt>
      <trkpt lat="44.51317" lon="5.62686">
        <ele>968.40002441406</ele>
        <time>2019-10-10T16:16:49Z</time>
      </trkpt>
      <trkpt lat="44.51313" lon="5.62723">
        <ele>969.59997558594</ele>
        <time>2019-10-10T16:17:00Z</time>
      </trkpt>
      <trkpt lat="44.51307" lon="5.62743">
        <ele>970.59997558594</ele>
        <time>2019-10-10T16:17:07Z</time>
      </trkpt>
      <trkpt lat="44.51298" lon="5.62765">
        <ele>972.20001220703</ele>
        <time>2019-10-10T16:17:15Z</time>
      </trkpt>
      <trkpt lat="44.51288" lon="5.62794">
        <ele>974</ele>
        <time>2019-10-10T16:17:26Z</time>
      </trkpt>
      <trkpt lat="44.51282" lon="5.6282">
        <ele>975.20001220703</ele>
        <time>2019-10-10T16:17:35Z</time>
      </trkpt>
      <trkpt lat="44.51268" lon="5.62847">
        <ele>977</ele>
        <time>2019-10-10T16:17:47Z</time>
      </trkpt>
      <trkpt lat="44.5126" lon="5.62873">
        <ele>978.59997558594</ele>
        <time>2019-10-10T16:17:56Z</time>
      </trkpt>
      <trkpt lat="44.51248" lon="5.62945">
        <ele>980.59997558594</ele>
        <time>2019-10-10T16:18:14Z</time>
      </trkpt>
      <trkpt lat="44.51248" lon="5.62978">
        <ele>981.79998779297</ele>
        <time>2019-10-10T16:18:23Z</time>
      </trkpt>
      <trkpt lat="44.5125" lon="5.63017">
        <ele>984</ele>
        <time>2019-10-10T16:18:36Z</time>
      </trkpt>
      <trkpt lat="44.51253" lon="5.63043">
        <ele>985.40002441406</ele>
        <time>2019-10-10T16:18:44Z</time>
      </trkpt>
      <trkpt lat="44.51243" lon="5.63093">
        <ele>988.20001220703</ele>
        <time>2019-10-10T16:19:01Z</time>
      </trkpt>
      <trkpt lat="44.5124" lon="5.63134">
        <ele>989.59997558594</ele>
        <time>2019-10-10T16:19:12Z</time>
      </trkpt>
      <trkpt lat="44.51247" lon="5.63185">
        <ele>992.40002441406</ele>
        <time>2019-10-10T16:19:28Z</time>
      </trkpt>
      <trkpt lat="44.51251" lon="5.63214">
        <ele>993.40002441406</ele>
        <time>2019-10-10T16:19:36Z</time>
      </trkpt>
      <trkpt lat="44.51255" lon="5.63238">
        <ele>994.40002441406</ele>
        <time>2019-10-10T16:19:43Z</time>
      </trkpt>
      <trkpt lat="44.51279" lon="5.63285">
        <ele>997</ele>
        <time>2019-10-10T16:19:59Z</time>
      </trkpt>
      <trkpt lat="44.51286" lon="5.633">
        <ele>997.59997558594</ele>
        <time>2019-10-10T16:20:05Z</time>
      </trkpt>
      <trkpt lat="44.51303" lon="5.63342">
        <ele>1000.200012207</ele>
        <time>2019-10-10T16:20:22Z</time>
      </trkpt>
      <trkpt lat="44.51324" lon="5.63382">
        <ele>1002.5999755859</ele>
        <time>2019-10-10T16:20:38Z</time>
      </trkpt>
      <trkpt lat="44.51349" lon="5.63406">
        <ele>1004.200012207</ele>
        <time>2019-10-10T16:20:50Z</time>
      </trkpt>
      <trkpt lat="44.51363" lon="5.63422">
        <ele>1005</ele>
        <time>2019-10-10T16:20:57Z</time>
      </trkpt>
      <trkpt lat="44.51373" lon="5.63462">
        <ele>1007.200012207</ele>
        <time>2019-10-10T16:21:11Z</time>
      </trkpt>
      <trkpt lat="44.51374" lon="5.63495">
        <ele>1009</ele>
        <time>2019-10-10T16:21:21Z</time>
      </trkpt>
      <trkpt lat="44.51377" lon="5.63527">
        <ele>1010.799987793</ele>
        <time>2019-10-10T16:21:32Z</time>
      </trkpt>
      <trkpt lat="44.51381" lon="5.63559">
        <ele>1013</ele>
        <time>2019-10-10T16:21:43Z</time>
      </trkpt>
      <trkpt lat="44.51401" lon="5.63608">
        <ele>1014.4000244141</ele>
        <time>2019-10-10T16:22:00Z</time>
      </trkpt>
      <trkpt lat="44.51412" lon="5.63635">
        <ele>1016</ele>
        <time>2019-10-10T16:22:10Z</time>
      </trkpt>
      <trkpt lat="44.51412" lon="5.63664">
        <ele>1017.5999755859</ele>
        <time>2019-10-10T16:22:20Z</time>
      </trkpt>
      <trkpt lat="44.51411" lon="5.63685">
        <ele>1019</ele>
        <time>2019-10-10T16:22:27Z</time>
      </trkpt>
      <trkpt lat="44.51414" lon="5.63711">
        <ele>1020.200012207</ele>
        <time>2019-10-10T16:22:36Z</time>
      </trkpt>
      <trkpt lat="44.51424" lon="5.63746">
        <ele>1022</ele>
        <time>2019-10-10T16:22:49Z</time>
      </trkpt>
      <trkpt lat="44.51421" lon="5.63772">
        <ele>1023.5999755859</ele>
        <time>2019-10-10T16:22:58Z</time>
      </trkpt>
      <trkpt lat="44.51406" lon="5.63822">
        <ele>1026.5999755859</ele>
        <time>2019-10-10T16:23:16Z</time>
      </trkpt>
      <trkpt lat="44.51394" lon="5.63843">
        <ele>1027.5999755859</ele>
        <time>2019-10-10T16:23:24Z</time>
      </trkpt>
      <trkpt lat="44.51388" lon="5.6385">
        <ele>1028.5999755859</ele>
        <time>2019-10-10T16:23:31Z</time>
      </trkpt>
      <trkpt lat="44.51381" lon="5.6385">
        <ele>1029.8000488281</ele>
        <time>2019-10-10T16:24:30Z</time>
      </trkpt>
      <trkpt lat="44.51378" lon="5.63849">
        <ele>1029.8000488281</ele>
        <time>2019-10-10T16:24:36Z</time>
      </trkpt>
      <trkpt lat="44.51365" lon="5.63845">
        <ele>1029.8000488281</ele>
        <time>2019-10-10T16:24:44Z</time>
      </trkpt>
      <trkpt lat="44.51313" lon="5.63835">
        <ele>1030</ele>
        <time>2019-10-10T16:25:01Z</time>
      </trkpt>
      <trkpt lat="44.5129" lon="5.63817">
        <ele>1030</ele>
        <time>2019-10-10T16:25:07Z</time>
      </trkpt>
      <trkpt lat="44.51267" lon="5.63764">
        <ele>1028.8000488281</ele>
        <time>2019-10-10T16:25:18Z</time>
      </trkpt>
      <trkpt lat="44.51258" lon="5.63726">
        <ele>1028.8000488281</ele>
        <time>2019-10-10T16:25:27Z</time>
      </trkpt>
      <trkpt lat="44.51254" lon="5.63707">
        <ele>1029.8000488281</ele>
        <time>2019-10-10T16:25:33Z</time>
      </trkpt>
      <trkpt lat="44.51248" lon="5.63687">
        <ele>1031</ele>
        <time>2019-10-10T16:25:40Z</time>
      </trkpt>
      <trkpt lat="44.51242" lon="5.63673">
        <ele>1031.8000488281</ele>
        <time>2019-10-10T16:25:46Z</time>
      </trkpt>
      <trkpt lat="44.51228" lon="5.63647">
        <ele>1034</ele>
        <time>2019-10-10T16:25:58Z</time>
      </trkpt>
      <trkpt lat="44.51215" lon="5.63624">
        <ele>1035.5999755859</ele>
        <time>2019-10-10T16:26:08Z</time>
      </trkpt>
      <trkpt lat="44.51202" lon="5.63599">
        <ele>1038</ele>
        <time>2019-10-10T16:26:51Z</time>
      </trkpt>
      <trkpt lat="44.51197" lon="5.63588">
        <ele>1037.8000488281</ele>
        <time>2019-10-10T16:26:57Z</time>
      </trkpt>
      <trkpt lat="44.51185" lon="5.63591">
        <ele>1038.4000244141</ele>
        <time>2019-10-10T16:27:04Z</time>
      </trkpt>
      <trkpt lat="44.5118" lon="5.63607">
        <ele>1039.8000488281</ele>
        <time>2019-10-10T16:27:11Z</time>
      </trkpt>
      <trkpt lat="44.51172" lon="5.63629">
        <ele>1041</ele>
        <time>2019-10-10T16:27:20Z</time>
      </trkpt>
      <trkpt lat="44.51163" lon="5.6365">
        <ele>1042</ele>
        <time>2019-10-10T16:27:27Z</time>
      </trkpt>
      <trkpt lat="44.5114" lon="5.63667">
        <ele>1044.4000244141</ele>
        <time>2019-10-10T16:27:40Z</time>
      </trkpt>
      <trkpt lat="44.51126" lon="5.63659">
        <ele>1045.1999511719</ele>
        <time>2019-10-10T16:27:47Z</time>
      </trkpt>
      <trkpt lat="44.51115" lon="5.63648">
        <ele>1046</ele>
        <time>2019-10-10T16:27:54Z</time>
      </trkpt>
      <trkpt lat="44.51094" lon="5.63631">
        <ele>1047.8000488281</ele>
        <time>2019-10-10T16:28:05Z</time>
      </trkpt>
      <trkpt lat="44.5108" lon="5.63614">
        <ele>1048.8000488281</ele>
        <time>2019-10-10T16:28:13Z</time>
      </trkpt>
      <trkpt lat="44.51059" lon="5.63604">
        <ele>1050.8000488281</ele>
        <time>2019-10-10T16:28:24Z</time>
      </trkpt>
      <trkpt lat="44.51049" lon="5.63611">
        <ele>1052</ele>
        <time>2019-10-10T16:28:31Z</time>
      </trkpt>
      <trkpt lat="44.51027" lon="5.63611">
        <ele>1054</ele>
        <time>2019-10-10T16:28:43Z</time>
      </trkpt>
      <trkpt lat="44.51019" lon="5.63604">
        <ele>1055.1999511719</ele>
        <time>2019-10-10T16:28:49Z</time>
      </trkpt>
      <trkpt lat="44.50996" lon="5.63594">
        <ele>1057.5999755859</ele>
        <time>2019-10-10T16:29:01Z</time>
      </trkpt>
      <trkpt lat="44.50981" lon="5.63594">
        <ele>1059</ele>
        <time>2019-10-10T16:29:09Z</time>
      </trkpt>
      <trkpt lat="44.50962" lon="5.63596">
        <ele>1061.1999511719</ele>
        <time>2019-10-10T16:29:22Z</time>
      </trkpt>
      <trkpt lat="44.50941" lon="5.63594">
        <ele>1062.1999511719</ele>
        <time>2019-10-10T16:29:29Z</time>
      </trkpt>
      <trkpt lat="44.50963" lon="5.63615">
        <ele>1063.5999755859</ele>
        <time>2019-10-10T16:29:40Z</time>
      </trkpt>
      <trkpt lat="44.50972" lon="5.63618">
        <ele>1064.5999755859</ele>
        <time>2019-10-10T16:29:47Z</time>
      </trkpt>
      <trkpt lat="44.50998" lon="5.63635">
        <ele>1065.8000488281</ele>
        <time>2019-10-10T16:30:02Z</time>
      </trkpt>
      <trkpt lat="44.51014" lon="5.63656">
        <ele>1067.4000244141</ele>
        <time>2019-10-10T16:30:13Z</time>
      </trkpt>
      <trkpt lat="44.51025" lon="5.63661">
        <ele>1067.8000488281</ele>
        <time>2019-10-10T16:30:20Z</time>
      </trkpt>
      <trkpt lat="44.51047" lon="5.63676">
        <ele>1070.5999755859</ele>
        <time>2019-10-10T16:30:35Z</time>
      </trkpt>
      <trkpt lat="44.51048" lon="5.63695">
        <ele>1071.4000244141</ele>
        <time>2019-10-10T16:30:42Z</time>
      </trkpt>
      <trkpt lat="44.51051" lon="5.63738">
        <ele>1073.4000244141</ele>
        <time>2019-10-10T16:30:57Z</time>
      </trkpt>
      <trkpt lat="44.51055" lon="5.63758">
        <ele>1074.5999755859</ele>
        <time>2019-10-10T16:31:04Z</time>
      </trkpt>
      <trkpt lat="44.51059" lon="5.638">
        <ele>1076.8000488281</ele>
        <time>2019-10-10T16:31:19Z</time>
      </trkpt>
      <trkpt lat="44.51064" lon="5.6382">
        <ele>1077.8000488281</ele>
        <time>2019-10-10T16:31:26Z</time>
      </trkpt>
      <trkpt lat="44.51074" lon="5.63859">
        <ele>1080.1999511719</ele>
        <time>2019-10-10T16:31:41Z</time>
      </trkpt>
      <trkpt lat="44.51078" lon="5.63875">
        <ele>1081</ele>
        <time>2019-10-10T16:31:47Z</time>
      </trkpt>
      <trkpt lat="44.51076" lon="5.63917">
        <ele>1083.8000488281</ele>
        <time>2019-10-10T16:32:04Z</time>
      </trkpt>
      <trkpt lat="44.51066" lon="5.63931">
        <ele>1085.1999511719</ele>
        <time>2019-10-10T16:32:12Z</time>
      </trkpt>
      <trkpt lat="44.51049" lon="5.6395">
        <ele>1087.1999511719</ele>
        <time>2019-10-10T16:32:22Z</time>
      </trkpt>
      <trkpt lat="44.51026" lon="5.63981">
        <ele>1089.1999511719</ele>
        <time>2019-10-10T16:32:36Z</time>
      </trkpt>
      <trkpt lat="44.51019" lon="5.63995">
        <ele>1090.1999511719</ele>
        <time>2019-10-10T16:32:42Z</time>
      </trkpt>
      <trkpt lat="44.51009" lon="5.64021">
        <ele>1091.8000488281</ele>
        <time>2019-10-10T16:32:52Z</time>
      </trkpt>
      <trkpt lat="44.51001" lon="5.64041">
        <ele>1093.1999511719</ele>
        <time>2019-10-10T16:33:00Z</time>
      </trkpt>
      <trkpt lat="44.50979" lon="5.64072">
        <ele>1095.8000488281</ele>
        <time>2019-10-10T16:33:14Z</time>
      </trkpt>
      <trkpt lat="44.50966" lon="5.64091">
        <ele>1096.8000488281</ele>
        <time>2019-10-10T16:33:22Z</time>
      </trkpt>
      <trkpt lat="44.50948" lon="5.64106">
        <ele>1098.4000244141</ele>
        <time>2019-10-10T16:33:32Z</time>
      </trkpt>
      <trkpt lat="44.50935" lon="5.64115">
        <ele>1099.4000244141</ele>
        <time>2019-10-10T16:33:39Z</time>
      </trkpt>
      <trkpt lat="44.50918" lon="5.64134">
        <ele>1101</ele>
        <time>2019-10-10T16:33:49Z</time>
      </trkpt>
      <trkpt lat="44.509" lon="5.64159">
        <ele>1103.1999511719</ele>
        <time>2019-10-10T16:34:01Z</time>
      </trkpt>
      <trkpt lat="44.50875" lon="5.64188">
        <ele>1105.1999511719</ele>
        <time>2019-10-10T16:34:16Z</time>
      </trkpt>
      <trkpt lat="44.50868" lon="5.64196">
        <ele>1106</ele>
        <time>2019-10-10T16:34:21Z</time>
      </trkpt>
      <trkpt lat="44.50849" lon="5.64219">
        <ele>1108.4000244141</ele>
        <time>2019-10-10T16:34:33Z</time>
      </trkpt>
      <trkpt lat="44.50842" lon="5.64232">
        <ele>1109.4000244141</ele>
        <time>2019-10-10T16:34:39Z</time>
      </trkpt>
      <trkpt lat="44.5083" lon="5.64255">
        <ele>1111.1999511719</ele>
        <time>2019-10-10T16:34:49Z</time>
      </trkpt>
      <trkpt lat="44.50817" lon="5.64293">
        <ele>1113.5999755859</ele>
        <time>2019-10-10T16:35:04Z</time>
      </trkpt>
      <trkpt lat="44.50817" lon="5.64314">
        <ele>1115.1999511719</ele>
        <time>2019-10-10T16:35:12Z</time>
      </trkpt>
      <trkpt lat="44.50807" lon="5.64354">
        <ele>1118.4000244141</ele>
        <time>2019-10-10T16:35:28Z</time>
      </trkpt>
      <trkpt lat="44.50797" lon="5.6437">
        <ele>1119.8000488281</ele>
        <time>2019-10-10T16:35:36Z</time>
      </trkpt>
      <trkpt lat="44.50777" lon="5.6439">
        <ele>1121.4000244141</ele>
        <time>2019-10-10T16:35:47Z</time>
      </trkpt>
      <trkpt lat="44.50763" lon="5.64397">
        <ele>1122.5999755859</ele>
        <time>2019-10-10T16:35:55Z</time>
      </trkpt>
      <trkpt lat="44.5074" lon="5.64409">
        <ele>1124.1999511719</ele>
        <time>2019-10-10T16:36:07Z</time>
      </trkpt>
      <trkpt lat="44.50728" lon="5.64416">
        <ele>1125.1999511719</ele>
        <time>2019-10-10T16:36:14Z</time>
      </trkpt>
      <trkpt lat="44.50709" lon="5.64436">
        <ele>1127</ele>
        <time>2019-10-10T16:36:26Z</time>
      </trkpt>
      <trkpt lat="44.50696" lon="5.64454">
        <ele>1128.1999511719</ele>
        <time>2019-10-10T16:36:35Z</time>
      </trkpt>
      <trkpt lat="44.50683" lon="5.64478">
        <ele>1129.8000488281</ele>
        <time>2019-10-10T16:36:45Z</time>
      </trkpt>
      <trkpt lat="44.50672" lon="5.64498">
        <ele>1131.4000244141</ele>
        <time>2019-10-10T16:36:54Z</time>
      </trkpt>
      <trkpt lat="44.50665" lon="5.64508">
        <ele>1132.8000488281</ele>
        <time>2019-10-10T16:36:59Z</time>
      </trkpt>
      <trkpt lat="44.50645" lon="5.64506">
        <ele>1134.5999755859</ele>
        <time>2019-10-10T16:37:08Z</time>
      </trkpt>
      <trkpt lat="44.50645" lon="5.6449">
        <ele>1135.5999755859</ele>
        <time>2019-10-10T16:37:12Z</time>
      </trkpt>
      <trkpt lat="44.50659" lon="5.64456">
        <ele>1136.4000244141</ele>
        <time>2019-10-10T16:37:23Z</time>
      </trkpt>
      <trkpt lat="44.50667" lon="5.64435">
        <ele>1137.5999755859</ele>
        <time>2019-10-10T16:37:31Z</time>
      </trkpt>
      <trkpt lat="44.50682" lon="5.64402">
        <ele>1139.5999755859</ele>
        <time>2019-10-10T16:37:44Z</time>
      </trkpt>
      <trkpt lat="44.50686" lon="5.64386">
        <ele>1140.5999755859</ele>
        <time>2019-10-10T16:37:51Z</time>
      </trkpt>
      <trkpt lat="44.5067" lon="5.64396">
        <ele>1141.8000488281</ele>
        <time>2019-10-10T16:38:01Z</time>
      </trkpt>
      <trkpt lat="44.50661" lon="5.64412">
        <ele>1142.1999511719</ele>
        <time>2019-10-10T16:38:07Z</time>
      </trkpt>
      <trkpt lat="44.50645" lon="5.64437">
        <ele>1144.1999511719</ele>
        <time>2019-10-10T16:38:18Z</time>
      </trkpt>
      <trkpt lat="44.50638" lon="5.64449">
        <ele>1145</ele>
        <time>2019-10-10T16:38:24Z</time>
      </trkpt>
      <trkpt lat="44.50629" lon="5.64468">
        <ele>1146.8000488281</ele>
        <time>2019-10-10T16:38:32Z</time>
      </trkpt>
      <trkpt lat="44.50621" lon="5.6448">
        <ele>1148</ele>
        <time>2019-10-10T16:38:40Z</time>
      </trkpt>
      <trkpt lat="44.50598" lon="5.64502">
        <ele>1149.5999755859</ele>
        <time>2019-10-10T16:38:52Z</time>
      </trkpt>
      <trkpt lat="44.50588" lon="5.6451">
        <ele>1150.8000488281</ele>
        <time>2019-10-10T16:38:59Z</time>
      </trkpt>
      <trkpt lat="44.50579" lon="5.64516">
        <ele>1152.1999511719</ele>
        <time>2019-10-10T16:39:05Z</time>
      </trkpt>
      <trkpt lat="44.50556" lon="5.64545">
        <ele>1154.5999755859</ele>
        <time>2019-10-10T16:39:19Z</time>
      </trkpt>
      <trkpt lat="44.50554" lon="5.64554">
        <ele>1155</ele>
        <time>2019-10-10T16:39:23Z</time>
      </trkpt>
      <trkpt lat="44.50558" lon="5.64589">
        <ele>1157.8000488281</ele>
        <time>2019-10-10T16:39:37Z</time>
      </trkpt>
      <trkpt lat="44.50563" lon="5.64615">
        <ele>1159.4000244141</ele>
        <time>2019-10-10T16:39:46Z</time>
      </trkpt>
      <trkpt lat="44.50558" lon="5.64648">
        <ele>1161.4000244141</ele>
        <time>2019-10-10T16:39:58Z</time>
      </trkpt>
      <trkpt lat="44.50556" lon="5.64653">
        <ele>1161.5999755859</ele>
        <time>2019-10-10T16:40:00Z</time>
      </trkpt>
      <trkpt lat="44.50543" lon="5.64675">
        <ele>1164</ele>
        <time>2019-10-10T16:40:14Z</time>
      </trkpt>
      <trkpt lat="44.5053" lon="5.64691">
        <ele>1164.8000488281</ele>
        <time>2019-10-10T16:40:20Z</time>
      </trkpt>
      <trkpt lat="44.50492" lon="5.64726">
        <ele>1167.1999511719</ele>
        <time>2019-10-10T16:40:38Z</time>
      </trkpt>
      <trkpt lat="44.5048" lon="5.64743">
        <ele>1168.1999511719</ele>
        <time>2019-10-10T16:40:45Z</time>
      </trkpt>
      <trkpt lat="44.50474" lon="5.64777">
        <ele>1169.4000244141</ele>
        <time>2019-10-10T16:40:55Z</time>
      </trkpt>
      <trkpt lat="44.50476" lon="5.64798">
        <ele>1170.5999755859</ele>
        <time>2019-10-10T16:41:02Z</time>
      </trkpt>
      <trkpt lat="44.50482" lon="5.6483">
        <ele>1172.1999511719</ele>
        <time>2019-10-10T16:41:12Z</time>
      </trkpt>
      <trkpt lat="44.50494" lon="5.64875">
        <ele>1175</ele>
        <time>2019-10-10T16:41:28Z</time>
      </trkpt>
      <trkpt lat="44.50508" lon="5.64895">
        <ele>1176.4000244141</ele>
        <time>2019-10-10T16:41:38Z</time>
      </trkpt>
      <trkpt lat="44.50527" lon="5.6492">
        <ele>1177.8000488281</ele>
        <time>2019-10-10T16:41:50Z</time>
      </trkpt>
      <trkpt lat="44.50545" lon="5.64924">
        <ele>1178.8000488281</ele>
        <time>2019-10-10T16:41:56Z</time>
      </trkpt>
      <trkpt lat="44.50566" lon="5.64918">
        <ele>1180.8000488281</ele>
        <time>2019-10-10T16:42:07Z</time>
      </trkpt>
      <trkpt lat="44.50584" lon="5.64914">
        <ele>1182.1999511719</ele>
        <time>2019-10-10T16:42:15Z</time>
      </trkpt>
      <trkpt lat="44.50608" lon="5.64916">
        <ele>1183.5999755859</ele>
        <time>2019-10-10T16:42:28Z</time>
      </trkpt>
      <trkpt lat="44.50626" lon="5.64914">
        <ele>1184.5999755859</ele>
        <time>2019-10-10T16:42:35Z</time>
      </trkpt>
      <trkpt lat="44.50659" lon="5.64921">
        <ele>1186.1999511719</ele>
        <time>2019-10-10T16:42:46Z</time>
      </trkpt>
      <trkpt lat="44.50671" lon="5.64936">
        <ele>1187.1999511719</ele>
        <time>2019-10-10T16:42:51Z</time>
      </trkpt>
      <trkpt lat="44.50692" lon="5.64961">
        <ele>1190.1999511719</ele>
        <time>2019-10-10T16:43:02Z</time>
      </trkpt>
      <trkpt lat="44.50709" lon="5.64975">
        <ele>1191.1999511719</ele>
        <time>2019-10-10T16:43:10Z</time>
      </trkpt>
      <trkpt lat="44.50721" lon="5.6498">
        <ele>1192.4000244141</ele>
        <time>2019-10-10T16:43:15Z</time>
      </trkpt>
      <trkpt lat="44.50754" lon="5.64987">
        <ele>1194.5999755859</ele>
        <time>2019-10-10T16:43:27Z</time>
      </trkpt>
      <trkpt lat="44.5077" lon="5.64986">
        <ele>1195.1999511719</ele>
        <time>2019-10-10T16:43:32Z</time>
      </trkpt>
      <trkpt lat="44.50778" lon="5.64985">
        <ele>1197</ele>
        <time>2019-10-10T16:43:42Z</time>
      </trkpt>
      <trkpt lat="44.50771" lon="5.64999">
        <ele>1198.5999755859</ele>
        <time>2019-10-10T16:43:50Z</time>
      </trkpt>
      <trkpt lat="44.50755" lon="5.65014">
        <ele>1199.5999755859</ele>
        <time>2019-10-10T16:43:59Z</time>
      </trkpt>
      <trkpt lat="44.50741" lon="5.65025">
        <ele>1201</ele>
        <time>2019-10-10T16:44:08Z</time>
      </trkpt>
      <trkpt lat="44.50727" lon="5.65035">
        <ele>1202.5999755859</ele>
        <time>2019-10-10T16:44:19Z</time>
      </trkpt>
      <trkpt lat="44.50719" lon="5.6504">
        <ele>1203.1999511719</ele>
        <time>2019-10-10T16:44:24Z</time>
      </trkpt>
      <trkpt lat="44.50698" lon="5.65048">
        <ele>1205.5999755859</ele>
        <time>2019-10-10T16:44:36Z</time>
      </trkpt>
      <trkpt lat="44.50686" lon="5.6505">
        <ele>1207.1999511719</ele>
        <time>2019-10-10T16:44:44Z</time>
      </trkpt>
      <trkpt lat="44.50665" lon="5.65059">
        <ele>1208.8000488281</ele>
        <time>2019-10-10T16:44:54Z</time>
      </trkpt>
      <trkpt lat="44.50653" lon="5.65068">
        <ele>1209.8000488281</ele>
        <time>2019-10-10T16:45:01Z</time>
      </trkpt>
      <trkpt lat="44.50638" lon="5.65074">
        <ele>1211.4000244141</ele>
        <time>2019-10-10T16:45:09Z</time>
      </trkpt>
      <trkpt lat="44.50629" lon="5.65076">
        <ele>1212.4000244141</ele>
        <time>2019-10-10T16:45:15Z</time>
      </trkpt>
      <trkpt lat="44.50617" lon="5.65083">
        <ele>1213.5999755859</ele>
        <time>2019-10-10T16:45:21Z</time>
      </trkpt>
      <trkpt lat="44.50609" lon="5.65119">
        <ele>1215.8000488281</ele>
        <time>2019-10-10T16:45:34Z</time>
      </trkpt>
      <trkpt lat="44.50607" lon="5.65135">
        <ele>1216.4000244141</ele>
        <time>2019-10-10T16:45:40Z</time>
      </trkpt>
      <trkpt lat="44.50587" lon="5.65161">
        <ele>1218.4000244141</ele>
        <time>2019-10-10T16:45:51Z</time>
      </trkpt>
      <trkpt lat="44.50573" lon="5.6517">
        <ele>1219.5999755859</ele>
        <time>2019-10-10T16:46:00Z</time>
      </trkpt>
      <trkpt lat="44.50559" lon="5.65178">
        <ele>1220.5999755859</ele>
        <time>2019-10-10T16:46:08Z</time>
      </trkpt>
      <trkpt lat="44.50548" lon="5.65189">
        <ele>1221.8000488281</ele>
        <time>2019-10-10T16:46:15Z</time>
      </trkpt>
      <trkpt lat="44.50519" lon="5.65208">
        <ele>1224.4000244141</ele>
        <time>2019-10-10T16:46:29Z</time>
      </trkpt>
      <trkpt lat="44.50497" lon="5.65221">
        <ele>1225.1999511719</ele>
        <time>2019-10-10T16:46:37Z</time>
      </trkpt>
      <trkpt lat="44.50475" lon="5.65223">
        <ele>1226.1999511719</ele>
        <time>2019-10-10T16:46:45Z</time>
      </trkpt>
      <trkpt lat="44.50453" lon="5.65214">
        <ele>1228</ele>
        <time>2019-10-10T16:46:55Z</time>
      </trkpt>
      <trkpt lat="44.50428" lon="5.6522">
        <ele>1229.8000488281</ele>
        <time>2019-10-10T16:47:07Z</time>
      </trkpt>
      <trkpt lat="44.50413" lon="5.65228">
        <ele>1230.8000488281</ele>
        <time>2019-10-10T16:47:14Z</time>
      </trkpt>
      <trkpt lat="44.50399" lon="5.65231">
        <ele>1231.8000488281</ele>
        <time>2019-10-10T16:47:21Z</time>
      </trkpt>
      <trkpt lat="44.50367" lon="5.65229">
        <ele>1234.1999511719</ele>
        <time>2019-10-10T16:47:37Z</time>
      </trkpt>
      <trkpt lat="44.50352" lon="5.65233">
        <ele>1235.5999755859</ele>
        <time>2019-10-10T16:47:45Z</time>
      </trkpt>
      <trkpt lat="44.50334" lon="5.65238">
        <ele>1237.1999511719</ele>
        <time>2019-10-10T16:47:54Z</time>
      </trkpt>
      <trkpt lat="44.50305" lon="5.65258">
        <ele>1240</ele>
        <time>2019-10-10T16:48:09Z</time>
      </trkpt>
      <trkpt lat="44.50287" lon="5.65277">
        <ele>1241.1999511719</ele>
        <time>2019-10-10T16:48:19Z</time>
      </trkpt>
      <trkpt lat="44.50272" lon="5.65294">
        <ele>1243</ele>
        <time>2019-10-10T16:48:27Z</time>
      </trkpt>
      <trkpt lat="44.50255" lon="5.65316">
        <ele>1245</ele>
        <time>2019-10-10T16:48:39Z</time>
      </trkpt>
      <trkpt lat="44.50241" lon="5.6533">
        <ele>1245.8000488281</ele>
        <time>2019-10-10T16:48:47Z</time>
      </trkpt>
      <trkpt lat="44.50213" lon="5.65346">
        <ele>1247.4000244141</ele>
        <time>2019-10-10T16:48:58Z</time>
      </trkpt>
      <trkpt lat="44.50194" lon="5.65357">
        <ele>1248.5999755859</ele>
        <time>2019-10-10T16:49:06Z</time>
      </trkpt>
      <trkpt lat="44.50155" lon="5.65363">
        <ele>1251.4000244141</ele>
        <time>2019-10-10T16:49:20Z</time>
      </trkpt>
      <trkpt lat="44.50135" lon="5.6537">
        <ele>1252.4000244141</ele>
        <time>2019-10-10T16:49:28Z</time>
      </trkpt>
      <trkpt lat="44.50117" lon="5.65375">
        <ele>1253.5999755859</ele>
        <time>2019-10-10T16:49:35Z</time>
      </trkpt>
      <trkpt lat="44.50096" lon="5.65381">
        <ele>1255.5999755859</ele>
        <time>2019-10-10T16:49:45Z</time>
      </trkpt>
      <trkpt lat="44.50084" lon="5.65385">
        <ele>1257.4000244141</ele>
        <time>2019-10-10T16:49:53Z</time>
      </trkpt>
      <trkpt lat="44.50079" lon="5.65388">
        <ele>1260.1999511719</ele>
        <time>2019-10-10T16:50:48Z</time>
      </trkpt>
      <trkpt lat="44.50062" lon="5.65399">
        <ele>1260.4000244141</ele>
        <time>2019-10-10T16:50:55Z</time>
      </trkpt>
      <trkpt lat="44.50057" lon="5.6546">
        <ele>1260</ele>
        <time>2019-10-10T16:51:07Z</time>
      </trkpt>
      <trkpt lat="44.50059" lon="5.65473">
        <ele>1260</ele>
        <time>2019-10-10T16:51:10Z</time>
      </trkpt>
      <trkpt lat="44.50045" lon="5.6551">
        <ele>1259.4000244141</ele>
        <time>2019-10-10T16:51:17Z</time>
      </trkpt>
      <trkpt lat="44.50044" lon="5.65521">
        <ele>1258.1999511719</ele>
        <time>2019-10-10T16:51:24Z</time>
      </trkpt>
      <trkpt lat="44.50044" lon="5.65519">
        <ele>1256.4000244141</ele>
        <time>2019-10-10T16:58:51Z</time>
      </trkpt>
      <trkpt lat="44.50051" lon="5.65538">
        <ele>1256.5999755859</ele>
        <time>2019-10-10T16:58:55Z</time>
      </trkpt>
      <trkpt lat="44.50048" lon="5.65594">
        <ele>1255.8000488281</ele>
        <time>2019-10-10T16:59:02Z</time>
      </trkpt>
      <trkpt lat="44.50028" lon="5.65648">
        <ele>1254</ele>
        <time>2019-10-10T16:59:08Z</time>
      </trkpt>
      <trkpt lat="44.50011" lon="5.65701">
        <ele>1252.4000244141</ele>
        <time>2019-10-10T16:59:13Z</time>
      </trkpt>
      <trkpt lat="44.49982" lon="5.6575">
        <ele>1250.5999755859</ele>
        <time>2019-10-10T16:59:18Z</time>
      </trkpt>
      <trkpt lat="44.49964" lon="5.65765">
        <ele>1249.1999511719</ele>
        <time>2019-10-10T16:59:20Z</time>
      </trkpt>
      <trkpt lat="44.49944" lon="5.65805">
        <ele>1247</ele>
        <time>2019-10-10T16:59:24Z</time>
      </trkpt>
      <trkpt lat="44.49933" lon="5.6583">
        <ele>1245</ele>
        <time>2019-10-10T16:59:27Z</time>
      </trkpt>
      <trkpt lat="44.49922" lon="5.65872">
        <ele>1243</ele>
        <time>2019-10-10T16:59:31Z</time>
      </trkpt>
      <trkpt lat="44.49906" lon="5.65891">
        <ele>1241.4000244141</ele>
        <time>2019-10-10T16:59:34Z</time>
      </trkpt>
      <trkpt lat="44.49865" lon="5.65913">
        <ele>1239.1999511719</ele>
        <time>2019-10-10T16:59:39Z</time>
      </trkpt>
      <trkpt lat="44.49819" lon="5.65934">
        <ele>1236.8000488281</ele>
        <time>2019-10-10T16:59:44Z</time>
      </trkpt>
      <trkpt lat="44.4979" lon="5.65941">
        <ele>1235.4000244141</ele>
        <time>2019-10-10T16:59:47Z</time>
      </trkpt>
      <trkpt lat="44.49741" lon="5.65938">
        <ele>1232.4000244141</ele>
        <time>2019-10-10T16:59:52Z</time>
      </trkpt>
      <trkpt lat="44.49685" lon="5.65954">
        <ele>1228.5999755859</ele>
        <time>2019-10-10T16:59:59Z</time>
      </trkpt>
      <trkpt lat="44.49672" lon="5.65973">
        <ele>1226.5999755859</ele>
        <time>2019-10-10T17:00:03Z</time>
      </trkpt>
      <trkpt lat="44.49672" lon="5.65972">
        <ele>1223</ele>
        <time>2019-10-10T17:00:38Z</time>
      </trkpt>
      <trkpt lat="44.49669" lon="5.6598">
        <ele>1223</ele>
        <time>2019-10-10T17:00:41Z</time>
      </trkpt>
      <trkpt lat="44.49668" lon="5.65986">
        <ele>1223</ele>
        <time>2019-10-10T17:00:43Z</time>
      </trkpt>
      <trkpt lat="44.49667" lon="5.66023">
        <ele>1222.8000488281</ele>
        <time>2019-10-10T17:00:48Z</time>
      </trkpt>
      <trkpt lat="44.49672" lon="5.66065">
        <ele>1223</ele>
        <time>2019-10-10T17:00:52Z</time>
      </trkpt>
      <trkpt lat="44.49681" lon="5.6611">
        <ele>1222.1999511719</ele>
        <time>2019-10-10T17:00:56Z</time>
      </trkpt>
      <trkpt lat="44.49687" lon="5.66131">
        <ele>1221.5999755859</ele>
        <time>2019-10-10T17:00:58Z</time>
      </trkpt>
      <trkpt lat="44.49724" lon="5.662">
        <ele>1218.4000244141</ele>
        <time>2019-10-10T17:01:04Z</time>
      </trkpt>
      <trkpt lat="44.4974" lon="5.66232">
        <ele>1215.8000488281</ele>
        <time>2019-10-10T17:01:07Z</time>
      </trkpt>
      <trkpt lat="44.49739" lon="5.66271">
        <ele>1213</ele>
        <time>2019-10-10T17:01:11Z</time>
      </trkpt>
      <trkpt lat="44.49728" lon="5.663">
        <ele>1210.5999755859</ele>
        <time>2019-10-10T17:01:14Z</time>
      </trkpt>
      <trkpt lat="44.49697" lon="5.66309">
        <ele>1207.8000488281</ele>
        <time>2019-10-10T17:01:18Z</time>
      </trkpt>
      <trkpt lat="44.49672" lon="5.66328">
        <ele>1206.8000488281</ele>
        <time>2019-10-10T17:01:21Z</time>
      </trkpt>
      <trkpt lat="44.49632" lon="5.66357">
        <ele>1204.1999511719</ele>
        <time>2019-10-10T17:01:26Z</time>
      </trkpt>
      <trkpt lat="44.49594" lon="5.66382">
        <ele>1202.1999511719</ele>
        <time>2019-10-10T17:01:30Z</time>
      </trkpt>
      <trkpt lat="44.49563" lon="5.66399">
        <ele>1198.5999755859</ele>
        <time>2019-10-10T17:01:34Z</time>
      </trkpt>
      <trkpt lat="44.49536" lon="5.66372">
        <ele>1195.1999511719</ele>
        <time>2019-10-10T17:01:39Z</time>
      </trkpt>
      <trkpt lat="44.495" lon="5.66342">
        <ele>1192.1999511719</ele>
        <time>2019-10-10T17:01:44Z</time>
      </trkpt>
      <trkpt lat="44.49468" lon="5.66329">
        <ele>1190.5999755859</ele>
        <time>2019-10-10T17:01:48Z</time>
      </trkpt>
      <trkpt lat="44.4942" lon="5.6632">
        <ele>1188.1999511719</ele>
        <time>2019-10-10T17:01:54Z</time>
      </trkpt>
      <trkpt lat="44.49342" lon="5.66323">
        <ele>1184</ele>
        <time>2019-10-10T17:02:02Z</time>
      </trkpt>
      <trkpt lat="44.49304" lon="5.66324">
        <ele>1183.1999511719</ele>
        <time>2019-10-10T17:02:06Z</time>
      </trkpt>
      <trkpt lat="44.49271" lon="5.6633">
        <ele>1181</ele>
        <time>2019-10-10T17:02:10Z</time>
      </trkpt>
      <trkpt lat="44.4924" lon="5.66328">
        <ele>1180.1999511719</ele>
        <time>2019-10-10T17:02:13Z</time>
      </trkpt>
      <trkpt lat="44.49202" lon="5.66336">
        <ele>1178.1999511719</ele>
        <time>2019-10-10T17:02:17Z</time>
      </trkpt>
      <trkpt lat="44.49185" lon="5.66347">
        <ele>1176.8000488281</ele>
        <time>2019-10-10T17:02:19Z</time>
      </trkpt>
      <trkpt lat="44.49161" lon="5.66348">
        <ele>1174.8000488281</ele>
        <time>2019-10-10T17:02:22Z</time>
      </trkpt>
      <trkpt lat="44.49146" lon="5.66343">
        <ele>1173.8000488281</ele>
        <time>2019-10-10T17:02:24Z</time>
      </trkpt>
      <trkpt lat="44.49132" lon="5.66346">
        <ele>1172.5999755859</ele>
        <time>2019-10-10T17:02:26Z</time>
      </trkpt>
      <trkpt lat="44.49111" lon="5.6636">
        <ele>1170.8000488281</ele>
        <time>2019-10-10T17:02:29Z</time>
      </trkpt>
      <trkpt lat="44.49089" lon="5.66392">
        <ele>1169.5999755859</ele>
        <time>2019-10-10T17:02:32Z</time>
      </trkpt>
      <trkpt lat="44.4905" lon="5.66421">
        <ele>1167.1999511719</ele>
        <time>2019-10-10T17:02:37Z</time>
      </trkpt>
      <trkpt lat="44.49034" lon="5.66433">
        <ele>1166.4000244141</ele>
        <time>2019-10-10T17:02:39Z</time>
      </trkpt>
      <trkpt lat="44.49002" lon="5.66451">
        <ele>1163.8000488281</ele>
        <time>2019-10-10T17:02:43Z</time>
      </trkpt>
      <trkpt lat="44.48965" lon="5.66456">
        <ele>1161.8000488281</ele>
        <time>2019-10-10T17:02:47Z</time>
      </trkpt>
      <trkpt lat="44.48948" lon="5.66455">
        <ele>1159.8000488281</ele>
        <time>2019-10-10T17:02:50Z</time>
      </trkpt>
      <trkpt lat="44.48939" lon="5.66442">
        <ele>1158.5999755859</ele>
        <time>2019-10-10T17:02:52Z</time>
      </trkpt>
      <trkpt lat="44.48955" lon="5.66424">
        <ele>1157</ele>
        <time>2019-10-10T17:02:55Z</time>
      </trkpt>
      <trkpt lat="44.48971" lon="5.66416">
        <ele>1156</ele>
        <time>2019-10-10T17:02:57Z</time>
      </trkpt>
      <trkpt lat="44.49002" lon="5.66392">
        <ele>1153.4000244141</ele>
        <time>2019-10-10T17:03:01Z</time>
      </trkpt>
      <trkpt lat="44.49021" lon="5.66365">
        <ele>1151.1999511719</ele>
        <time>2019-10-10T17:03:05Z</time>
      </trkpt>
      <trkpt lat="44.49064" lon="5.66351">
        <ele>1148.1999511719</ele>
        <time>2019-10-10T17:03:10Z</time>
      </trkpt>
      <trkpt lat="44.49093" lon="5.66319">
        <ele>1146.4000244141</ele>
        <time>2019-10-10T17:03:14Z</time>
      </trkpt>
      <trkpt lat="44.49107" lon="5.66301">
        <ele>1145.4000244141</ele>
        <time>2019-10-10T17:03:16Z</time>
      </trkpt>
      <trkpt lat="44.49138" lon="5.66275">
        <ele>1143.8000488281</ele>
        <time>2019-10-10T17:03:20Z</time>
      </trkpt>
      <trkpt lat="44.49174" lon="5.66254">
        <ele>1141.8000488281</ele>
        <time>2019-10-10T17:03:24Z</time>
      </trkpt>
      <trkpt lat="44.49205" lon="5.66235">
        <ele>1140</ele>
        <time>2019-10-10T17:03:28Z</time>
      </trkpt>
      <trkpt lat="44.49219" lon="5.66233">
        <ele>1138.8000488281</ele>
        <time>2019-10-10T17:03:30Z</time>
      </trkpt>
      <trkpt lat="44.49242" lon="5.66223">
        <ele>1137</ele>
        <time>2019-10-10T17:03:33Z</time>
      </trkpt>
      <trkpt lat="44.49256" lon="5.6621">
        <ele>1136</ele>
        <time>2019-10-10T17:03:35Z</time>
      </trkpt>
      <trkpt lat="44.49308" lon="5.66161">
        <ele>1132</ele>
        <time>2019-10-10T17:03:42Z</time>
      </trkpt>
      <trkpt lat="44.49323" lon="5.66151">
        <ele>1130.1999511719</ele>
        <time>2019-10-10T17:03:44Z</time>
      </trkpt>
      <trkpt lat="44.49372" lon="5.66128">
        <ele>1127.4000244141</ele>
        <time>2019-10-10T17:03:50Z</time>
      </trkpt>
      <trkpt lat="44.49416" lon="5.661">
        <ele>1124.4000244141</ele>
        <time>2019-10-10T17:03:55Z</time>
      </trkpt>
      <trkpt lat="44.49439" lon="5.6606">
        <ele>1122.5999755859</ele>
        <time>2019-10-10T17:03:59Z</time>
      </trkpt>
      <trkpt lat="44.49452" lon="5.66046">
        <ele>1121.4000244141</ele>
        <time>2019-10-10T17:04:01Z</time>
      </trkpt>
      <trkpt lat="44.49461" lon="5.66038">
        <ele>1119.5999755859</ele>
        <time>2019-10-10T17:04:04Z</time>
      </trkpt>
      <trkpt lat="44.4946" lon="5.66031">
        <ele>1118.1999511719</ele>
        <time>2019-10-10T17:04:07Z</time>
      </trkpt>
      <trkpt lat="44.4945" lon="5.66028">
        <ele>1117.5999755859</ele>
        <time>2019-10-10T17:04:09Z</time>
      </trkpt>
      <trkpt lat="44.49425" lon="5.66055">
        <ele>1116.4000244141</ele>
        <time>2019-10-10T17:04:13Z</time>
      </trkpt>
      <trkpt lat="44.4941" lon="5.66068">
        <ele>1115.4000244141</ele>
        <time>2019-10-10T17:04:15Z</time>
      </trkpt>
      <trkpt lat="44.49371" lon="5.6608">
        <ele>1113.8000488281</ele>
        <time>2019-10-10T17:04:19Z</time>
      </trkpt>
      <trkpt lat="44.49324" lon="5.66089">
        <ele>1111.5999755859</ele>
        <time>2019-10-10T17:04:23Z</time>
      </trkpt>
      <trkpt lat="44.49267" lon="5.6611">
        <ele>1107.4000244141</ele>
        <time>2019-10-10T17:04:28Z</time>
      </trkpt>
      <trkpt lat="44.49246" lon="5.66113">
        <ele>1105.5999755859</ele>
        <time>2019-10-10T17:04:30Z</time>
      </trkpt>
      <trkpt lat="44.49199" lon="5.66119">
        <ele>1101.8000488281</ele>
        <time>2019-10-10T17:04:34Z</time>
      </trkpt>
      <trkpt lat="44.49175" lon="5.66119">
        <ele>1100</ele>
        <time>2019-10-10T17:04:37Z</time>
      </trkpt>
      <trkpt lat="44.49118" lon="5.66114">
        <ele>1094.8000488281</ele>
        <time>2019-10-10T17:04:42Z</time>
      </trkpt>
      <trkpt lat="44.49081" lon="5.66117">
        <ele>1092.5999755859</ele>
        <time>2019-10-10T17:04:45Z</time>
      </trkpt>
      <trkpt lat="44.49047" lon="5.6612">
        <ele>1090</ele>
        <time>2019-10-10T17:04:48Z</time>
      </trkpt>
      <trkpt lat="44.49021" lon="5.66128">
        <ele>1087.5999755859</ele>
        <time>2019-10-10T17:04:51Z</time>
      </trkpt>
      <trkpt lat="44.49005" lon="5.6614">
        <ele>1085.5999755859</ele>
        <time>2019-10-10T17:04:53Z</time>
      </trkpt>
      <trkpt lat="44.4896" lon="5.66175">
        <ele>1080.5999755859</ele>
        <time>2019-10-10T17:04:58Z</time>
      </trkpt>
      <trkpt lat="44.48944" lon="5.66181">
        <ele>1079</ele>
        <time>2019-10-10T17:05:00Z</time>
      </trkpt>
      <trkpt lat="44.48899" lon="5.66179">
        <ele>1074.8000488281</ele>
        <time>2019-10-10T17:05:05Z</time>
      </trkpt>
      <trkpt lat="44.48871" lon="5.66178">
        <ele>1072.1999511719</ele>
        <time>2019-10-10T17:05:08Z</time>
      </trkpt>
      <trkpt lat="44.48789" lon="5.66184">
        <ele>1067.5999755859</ele>
        <time>2019-10-10T17:05:15Z</time>
      </trkpt>
      <trkpt lat="44.48755" lon="5.66189">
        <ele>1065.1999511719</ele>
        <time>2019-10-10T17:05:18Z</time>
      </trkpt>
      <trkpt lat="44.48703" lon="5.66185">
        <ele>1060.8000488281</ele>
        <time>2019-10-10T17:05:23Z</time>
      </trkpt>
      <trkpt lat="44.48683" lon="5.66184">
        <ele>1058.8000488281</ele>
        <time>2019-10-10T17:05:25Z</time>
      </trkpt>
      <trkpt lat="44.48636" lon="5.66178">
        <ele>1053.4000244141</ele>
        <time>2019-10-10T17:05:30Z</time>
      </trkpt>
      <trkpt lat="44.48602" lon="5.66163">
        <ele>1050.1999511719</ele>
        <time>2019-10-10T17:05:34Z</time>
      </trkpt>
      <trkpt lat="44.48584" lon="5.66164">
        <ele>1048</ele>
        <time>2019-10-10T17:05:37Z</time>
      </trkpt>
      <trkpt lat="44.48547" lon="5.6616">
        <ele>1043.5999755859</ele>
        <time>2019-10-10T17:05:43Z</time>
      </trkpt>
      <trkpt lat="44.48526" lon="5.6615">
        <ele>1041.1999511719</ele>
        <time>2019-10-10T17:05:47Z</time>
      </trkpt>
      <trkpt lat="44.48506" lon="5.6613">
        <ele>1037.5999755859</ele>
        <time>2019-10-10T17:05:53Z</time>
      </trkpt>
      <trkpt lat="44.48511" lon="5.66119">
        <ele>1036.4000244141</ele>
        <time>2019-10-10T17:05:55Z</time>
      </trkpt>
      <trkpt lat="44.48531" lon="5.6611">
        <ele>1034.5999755859</ele>
        <time>2019-10-10T17:05:59Z</time>
      </trkpt>
      <trkpt lat="44.48554" lon="5.66102">
        <ele>1033.5999755859</ele>
        <time>2019-10-10T17:06:03Z</time>
      </trkpt>
      <trkpt lat="44.48592" lon="5.66089">
        <ele>1032</ele>
        <time>2019-10-10T17:06:08Z</time>
      </trkpt>
      <trkpt lat="44.48627" lon="5.66081">
        <ele>1029.8000488281</ele>
        <time>2019-10-10T17:06:12Z</time>
      </trkpt>
      <trkpt lat="44.48673" lon="5.66077">
        <ele>1026</ele>
        <time>2019-10-10T17:06:17Z</time>
      </trkpt>
      <trkpt lat="44.48699" lon="5.66065">
        <ele>1023.5999755859</ele>
        <time>2019-10-10T17:06:20Z</time>
      </trkpt>
      <trkpt lat="44.48748" lon="5.66035">
        <ele>1020.5999755859</ele>
        <time>2019-10-10T17:06:26Z</time>
      </trkpt>
      <trkpt lat="44.48767" lon="5.66018">
        <ele>1018.5999755859</ele>
        <time>2019-10-10T17:06:29Z</time>
      </trkpt>
      <trkpt lat="44.48801" lon="5.65995">
        <ele>1013.799987793</ele>
        <time>2019-10-10T17:06:34Z</time>
      </trkpt>
      <trkpt lat="44.48811" lon="5.6597">
        <ele>1011.200012207</ele>
        <time>2019-10-10T17:06:37Z</time>
      </trkpt>
      <trkpt lat="44.48799" lon="5.65952">
        <ele>1009.799987793</ele>
        <time>2019-10-10T17:06:40Z</time>
      </trkpt>
      <trkpt lat="44.4877" lon="5.65946">
        <ele>1008.200012207</ele>
        <time>2019-10-10T17:06:44Z</time>
      </trkpt>
      <trkpt lat="44.48747" lon="5.65962">
        <ele>1006.799987793</ele>
        <time>2019-10-10T17:06:47Z</time>
      </trkpt>
      <trkpt lat="44.4871" lon="5.65972">
        <ele>1005.4000244141</ele>
        <time>2019-10-10T17:06:51Z</time>
      </trkpt>
      <trkpt lat="44.48691" lon="5.65971">
        <ele>1004.5999755859</ele>
        <time>2019-10-10T17:06:53Z</time>
      </trkpt>
      <trkpt lat="44.48656" lon="5.65955">
        <ele>1001.799987793</ele>
        <time>2019-10-10T17:06:57Z</time>
      </trkpt>
      <trkpt lat="44.48616" lon="5.65925">
        <ele>998.59997558594</ele>
        <time>2019-10-10T17:07:01Z</time>
      </trkpt>
      <trkpt lat="44.48572" lon="5.65876">
        <ele>995.20001220703</ele>
        <time>2019-10-10T17:07:06Z</time>
      </trkpt>
      <trkpt lat="44.4855" lon="5.65852">
        <ele>992.79998779297</ele>
        <time>2019-10-10T17:07:09Z</time>
      </trkpt>
      <trkpt lat="44.48528" lon="5.65835">
        <ele>989.79998779297</ele>
        <time>2019-10-10T17:07:13Z</time>
      </trkpt>
      <trkpt lat="44.48497" lon="5.65858">
        <ele>986.79998779297</ele>
        <time>2019-10-10T17:07:18Z</time>
      </trkpt>
      <trkpt lat="44.48475" lon="5.65869">
        <ele>985.59997558594</ele>
        <time>2019-10-10T17:07:21Z</time>
      </trkpt>
      <trkpt lat="44.48448" lon="5.65881">
        <ele>984.79998779297</ele>
        <time>2019-10-10T17:07:24Z</time>
      </trkpt>
      <trkpt lat="44.48415" lon="5.65891">
        <ele>982.40002441406</ele>
        <time>2019-10-10T17:07:28Z</time>
      </trkpt>
      <trkpt lat="44.48392" lon="5.6589">
        <ele>980.20001220703</ele>
        <time>2019-10-10T17:07:32Z</time>
      </trkpt>
      <trkpt lat="44.4838" lon="5.65877">
        <ele>979</ele>
        <time>2019-10-10T17:07:34Z</time>
      </trkpt>
      <trkpt lat="44.48364" lon="5.65855">
        <ele>976.79998779297</ele>
        <time>2019-10-10T17:07:38Z</time>
      </trkpt>
      <trkpt lat="44.48335" lon="5.65833">
        <ele>974.40002441406</ele>
        <time>2019-10-10T17:07:42Z</time>
      </trkpt>
      <trkpt lat="44.483" lon="5.65825">
        <ele>971.40002441406</ele>
        <time>2019-10-10T17:07:46Z</time>
      </trkpt>
      <trkpt lat="44.48274" lon="5.65822">
        <ele>969.40002441406</ele>
        <time>2019-10-10T17:07:49Z</time>
      </trkpt>
      <trkpt lat="44.4824" lon="5.65822">
        <ele>967.40002441406</ele>
        <time>2019-10-10T17:07:52Z</time>
      </trkpt>
      <trkpt lat="44.48216" lon="5.65832">
        <ele>965.20001220703</ele>
        <time>2019-10-10T17:07:55Z</time>
      </trkpt>
      <trkpt lat="44.48187" lon="5.65837">
        <ele>962.40002441406</ele>
        <time>2019-10-10T17:07:59Z</time>
      </trkpt>
      <trkpt lat="44.48167" lon="5.65841">
        <ele>960</ele>
        <time>2019-10-10T17:08:02Z</time>
      </trkpt>
      <trkpt lat="44.48143" lon="5.6585">
        <ele>958</ele>
        <time>2019-10-10T17:08:05Z</time>
      </trkpt>
      <trkpt lat="44.4813" lon="5.65847">
        <ele>957.59997558594</ele>
        <time>2019-10-10T17:08:07Z</time>
      </trkpt>
      <trkpt lat="44.4812" lon="5.65843">
        <ele>955</ele>
        <time>2019-10-10T17:08:10Z</time>
      </trkpt>
      <trkpt lat="44.481" lon="5.65856">
        <ele>952.40002441406</ele>
        <time>2019-10-10T17:08:13Z</time>
      </trkpt>
      <trkpt lat="44.4807" lon="5.65872">
        <ele>950.20001220703</ele>
        <time>2019-10-10T17:08:17Z</time>
      </trkpt>
      <trkpt lat="44.4804" lon="5.65883">
        <ele>947.59997558594</ele>
        <time>2019-10-10T17:08:21Z</time>
      </trkpt>
      <trkpt lat="44.48019" lon="5.65881">
        <ele>946</ele>
        <time>2019-10-10T17:08:23Z</time>
      </trkpt>
      <trkpt lat="44.47987" lon="5.65889">
        <ele>942.59997558594</ele>
        <time>2019-10-10T17:08:27Z</time>
      </trkpt>
      <trkpt lat="44.4795" lon="5.65899">
        <ele>939</ele>
        <time>2019-10-10T17:08:31Z</time>
      </trkpt>
      <trkpt lat="44.47899" lon="5.6589">
        <ele>935.20001220703</ele>
        <time>2019-10-10T17:08:38Z</time>
      </trkpt>
      <trkpt lat="44.47888" lon="5.65895">
        <ele>933.59997558594</ele>
        <time>2019-10-10T17:08:40Z</time>
      </trkpt>
      <trkpt lat="44.4788" lon="5.65925">
        <ele>931.59997558594</ele>
        <time>2019-10-10T17:08:44Z</time>
      </trkpt>
      <trkpt lat="44.47877" lon="5.65944">
        <ele>931</ele>
        <time>2019-10-10T17:08:46Z</time>
      </trkpt>
      <trkpt lat="44.47868" lon="5.65998">
        <ele>929</ele>
        <time>2019-10-10T17:08:51Z</time>
      </trkpt>
      <trkpt lat="44.47866" lon="5.66021">
        <ele>928</ele>
        <time>2019-10-10T17:08:53Z</time>
      </trkpt>
      <trkpt lat="44.47864" lon="5.66044">
        <ele>926.20001220703</ele>
        <time>2019-10-10T17:08:56Z</time>
      </trkpt>
      <trkpt lat="44.4785" lon="5.66067">
        <ele>923.40002441406</ele>
        <time>2019-10-10T17:09:00Z</time>
      </trkpt>
      <trkpt lat="44.47842" lon="5.66068">
        <ele>921.59997558594</ele>
        <time>2019-10-10T17:09:02Z</time>
      </trkpt>
      <trkpt lat="44.47822" lon="5.66029">
        <ele>917.59997558594</ele>
        <time>2019-10-10T17:09:07Z</time>
      </trkpt>
      <trkpt lat="44.47815" lon="5.66012">
        <ele>916.79998779297</ele>
        <time>2019-10-10T17:09:09Z</time>
      </trkpt>
      <trkpt lat="44.47794" lon="5.65977">
        <ele>915.40002441406</ele>
        <time>2019-10-10T17:09:13Z</time>
      </trkpt>
      <trkpt lat="44.47787" lon="5.65963">
        <ele>914.79998779297</ele>
        <time>2019-10-10T17:09:15Z</time>
      </trkpt>
      <trkpt lat="44.47756" lon="5.65945">
        <ele>911.79998779297</ele>
        <time>2019-10-10T17:09:20Z</time>
      </trkpt>
      <trkpt lat="44.47719" lon="5.65944">
        <ele>908.79998779297</ele>
        <time>2019-10-10T17:09:25Z</time>
      </trkpt>
      <trkpt lat="44.47703" lon="5.65929">
        <ele>907.59997558594</ele>
        <time>2019-10-10T17:09:28Z</time>
      </trkpt>
      <trkpt lat="44.47697" lon="5.65908">
        <ele>906.59997558594</ele>
        <time>2019-10-10T17:09:31Z</time>
      </trkpt>
      <trkpt lat="44.47705" lon="5.65889">
        <ele>903.79998779297</ele>
        <time>2019-10-10T17:09:35Z</time>
      </trkpt>
      <trkpt lat="44.47722" lon="5.65876">
        <ele>901.59997558594</ele>
        <time>2019-10-10T17:09:38Z</time>
      </trkpt>
      <trkpt lat="44.47724" lon="5.65842">
        <ele>898.79998779297</ele>
        <time>2019-10-10T17:09:43Z</time>
      </trkpt>
      <trkpt lat="44.47721" lon="5.65828">
        <ele>897</ele>
        <time>2019-10-10T17:09:47Z</time>
      </trkpt>
      <trkpt lat="44.47706" lon="5.65809">
        <ele>895</ele>
        <time>2019-10-10T17:09:52Z</time>
      </trkpt>
      <trkpt lat="44.47675" lon="5.65768">
        <ele>892.59997558594</ele>
        <time>2019-10-10T17:09:59Z</time>
      </trkpt>
      <trkpt lat="44.47664" lon="5.65757">
        <ele>892</ele>
        <time>2019-10-10T17:10:01Z</time>
      </trkpt>
      <trkpt lat="44.47644" lon="5.65737">
        <ele>889.79998779297</ele>
        <time>2019-10-10T17:10:05Z</time>
      </trkpt>
      <trkpt lat="44.47618" lon="5.65703">
        <ele>886.20001220703</ele>
        <time>2019-10-10T17:10:11Z</time>
      </trkpt>
      <trkpt lat="44.47591" lon="5.6565">
        <ele>884.40002441406</ele>
        <time>2019-10-10T17:10:18Z</time>
      </trkpt>
      <trkpt lat="44.47572" lon="5.65615">
        <ele>883.40002441406</ele>
        <time>2019-10-10T17:10:23Z</time>
      </trkpt>
      <trkpt lat="44.47554" lon="5.65582">
        <ele>883.20001220703</ele>
        <time>2019-10-10T17:10:29Z</time>
      </trkpt>
      <trkpt lat="44.47538" lon="5.65552">
        <ele>883.79998779297</ele>
        <time>2019-10-10T17:10:35Z</time>
      </trkpt>
      <trkpt lat="44.47524" lon="5.65538">
        <ele>884</ele>
        <time>2019-10-10T17:10:39Z</time>
      </trkpt>
      <trkpt lat="44.47513" lon="5.65542">
        <ele>884</ele>
        <time>2019-10-10T17:10:41Z</time>
      </trkpt>
      <trkpt lat="44.4748" lon="5.6558">
        <ele>883.40002441406</ele>
        <time>2019-10-10T17:10:46Z</time>
      </trkpt>
      <trkpt lat="44.47468" lon="5.65595">
        <ele>882.59997558594</ele>
        <time>2019-10-10T17:10:48Z</time>
      </trkpt>
      <trkpt lat="44.47444" lon="5.65624">
        <ele>880.40002441406</ele>
        <time>2019-10-10T17:10:51Z</time>
      </trkpt>
      <trkpt lat="44.47403" lon="5.65675">
        <ele>876.40002441406</ele>
        <time>2019-10-10T17:10:56Z</time>
      </trkpt>
      <trkpt lat="44.47367" lon="5.65719">
        <ele>872.20001220703</ele>
        <time>2019-10-10T17:11:00Z</time>
      </trkpt>
      <trkpt lat="44.47332" lon="5.65763">
        <ele>868.59997558594</ele>
        <time>2019-10-10T17:11:04Z</time>
      </trkpt>
      <trkpt lat="44.47303" lon="5.65802">
        <ele>866.79998779297</ele>
        <time>2019-10-10T17:11:07Z</time>
      </trkpt>
      <trkpt lat="44.47268" lon="5.65851">
        <ele>863</ele>
        <time>2019-10-10T17:11:11Z</time>
      </trkpt>
      <trkpt lat="44.47253" lon="5.65878">
        <ele>861</ele>
        <time>2019-10-10T17:11:13Z</time>
      </trkpt>
      <trkpt lat="44.47238" lon="5.65924">
        <ele>857.40002441406</ele>
        <time>2019-10-10T17:11:16Z</time>
      </trkpt>
      <trkpt lat="44.47221" lon="5.6599">
        <ele>852.79998779297</ele>
        <time>2019-10-10T17:11:20Z</time>
      </trkpt>
      <trkpt lat="44.47197" lon="5.66087">
        <ele>845.59997558594</ele>
        <time>2019-10-10T17:11:26Z</time>
      </trkpt>
      <trkpt lat="44.4718" lon="5.66153">
        <ele>843.59997558594</ele>
        <time>2019-10-10T17:11:31Z</time>
      </trkpt>
      <trkpt lat="44.47164" lon="5.66215">
        <ele>840</ele>
        <time>2019-10-10T17:11:36Z</time>
      </trkpt>
      <trkpt lat="44.47163" lon="5.66227">
        <ele>838.79998779297</ele>
        <time>2019-10-10T17:11:38Z</time>
      </trkpt>
      <trkpt lat="44.47173" lon="5.66257">
        <ele>836.59997558594</ele>
        <time>2019-10-10T17:11:42Z</time>
      </trkpt>
      <trkpt lat="44.47228" lon="5.6627">
        <ele>832.79998779297</ele>
        <time>2019-10-10T17:11:48Z</time>
      </trkpt>
      <trkpt lat="44.47244" lon="5.66277">
        <ele>831.20001220703</ele>
        <time>2019-10-10T17:11:51Z</time>
      </trkpt>
      <trkpt lat="44.47252" lon="5.66288">
        <ele>829.79998779297</ele>
        <time>2019-10-10T17:11:56Z</time>
      </trkpt>
      <trkpt lat="44.47254" lon="5.66299">
        <ele>828.59997558594</ele>
        <time>2019-10-10T17:11:59Z</time>
      </trkpt>
      <trkpt lat="44.47255" lon="5.66305">
        <ele>825.59997558594</ele>
        <time>2019-10-10T17:12:35Z</time>
      </trkpt>
      <trkpt lat="44.47259" lon="5.66325">
        <ele>825.59997558594</ele>
        <time>2019-10-10T17:12:39Z</time>
      </trkpt>
      <trkpt lat="44.47281" lon="5.66389">
        <ele>824.59997558594</ele>
        <time>2019-10-10T17:12:48Z</time>
      </trkpt>
      <trkpt lat="44.47276" lon="5.66411">
        <ele>824</ele>
        <time>2019-10-10T17:12:51Z</time>
      </trkpt>
      <trkpt lat="44.47257" lon="5.66445">
        <ele>823.59997558594</ele>
        <time>2019-10-10T17:12:55Z</time>
      </trkpt>
      <trkpt lat="44.47228" lon="5.66486">
        <ele>823</ele>
        <time>2019-10-10T17:13:00Z</time>
      </trkpt>
      <trkpt lat="44.47206" lon="5.66504">
        <ele>822.40002441406</ele>
        <time>2019-10-10T17:13:03Z</time>
      </trkpt>
      <trkpt lat="44.47179" lon="5.66527">
        <ele>820.79998779297</ele>
        <time>2019-10-10T17:13:07Z</time>
      </trkpt>
      <trkpt lat="44.47168" lon="5.66547">
        <ele>820.40002441406</ele>
        <time>2019-10-10T17:13:09Z</time>
      </trkpt>
      <trkpt lat="44.47144" lon="5.66588">
        <ele>819.40002441406</ele>
        <time>2019-10-10T17:13:14Z</time>
      </trkpt>
      <trkpt lat="44.47124" lon="5.66597">
        <ele>818.79998779297</ele>
        <time>2019-10-10T17:13:17Z</time>
      </trkpt>
      <trkpt lat="44.47092" lon="5.66609">
        <ele>818.59997558594</ele>
        <time>2019-10-10T17:13:22Z</time>
      </trkpt>
      <trkpt lat="44.4706" lon="5.66627">
        <ele>818.59997558594</ele>
        <time>2019-10-10T17:13:29Z</time>
      </trkpt>
      <trkpt lat="44.47026" lon="5.66659">
        <ele>820</ele>
        <time>2019-10-10T17:13:37Z</time>
      </trkpt>
      <trkpt lat="44.46998" lon="5.66699">
        <ele>820.40002441406</ele>
        <time>2019-10-10T17:13:45Z</time>
      </trkpt>
      <trkpt lat="44.46968" lon="5.66794">
        <ele>820.40002441406</ele>
        <time>2019-10-10T17:13:58Z</time>
      </trkpt>
      <trkpt lat="44.46948" lon="5.66823">
        <ele>820.40002441406</ele>
        <time>2019-10-10T17:14:03Z</time>
      </trkpt>
      <trkpt lat="44.46908" lon="5.66912">
        <ele>819.40002441406</ele>
        <time>2019-10-10T17:14:15Z</time>
      </trkpt>
      <trkpt lat="44.46902" lon="5.66944">
        <ele>819.20001220703</ele>
        <time>2019-10-10T17:14:18Z</time>
      </trkpt>
      <trkpt lat="44.46897" lon="5.67014">
        <ele>818.59997558594</ele>
        <time>2019-10-10T17:14:24Z</time>
      </trkpt>
      <trkpt lat="44.46891" lon="5.67057">
        <ele>817.59997558594</ele>
        <time>2019-10-10T17:14:27Z</time>
      </trkpt>
      <trkpt lat="44.46876" lon="5.67094">
        <ele>816.40002441406</ele>
        <time>2019-10-10T17:14:30Z</time>
      </trkpt>
      <trkpt lat="44.46851" lon="5.67139">
        <ele>814</ele>
        <time>2019-10-10T17:14:34Z</time>
      </trkpt>
      <trkpt lat="44.46833" lon="5.67174">
        <ele>812.59997558594</ele>
        <time>2019-10-10T17:14:37Z</time>
      </trkpt>
      <trkpt lat="44.46807" lon="5.67238">
        <ele>809.40002441406</ele>
        <time>2019-10-10T17:14:42Z</time>
      </trkpt>
      <trkpt lat="44.46785" lon="5.6729">
        <ele>807.20001220703</ele>
        <time>2019-10-10T17:14:46Z</time>
      </trkpt>
      <trkpt lat="44.46759" lon="5.67334">
        <ele>805.40002441406</ele>
        <time>2019-10-10T17:14:50Z</time>
      </trkpt>
      <trkpt lat="44.46739" lon="5.67367">
        <ele>804.20001220703</ele>
        <time>2019-10-10T17:14:53Z</time>
      </trkpt>
      <trkpt lat="44.4672" lon="5.67415">
        <ele>801.40002441406</ele>
        <time>2019-10-10T17:14:57Z</time>
      </trkpt>
      <trkpt lat="44.46711" lon="5.67439">
        <ele>800.59997558594</ele>
        <time>2019-10-10T17:14:59Z</time>
      </trkpt>
      <trkpt lat="44.46686" lon="5.67497">
        <ele>797.79998779297</ele>
        <time>2019-10-10T17:15:04Z</time>
      </trkpt>
      <trkpt lat="44.46666" lon="5.67524">
        <ele>796.79998779297</ele>
        <time>2019-10-10T17:15:07Z</time>
      </trkpt>
      <trkpt lat="44.46632" lon="5.67589">
        <ele>794.40002441406</ele>
        <time>2019-10-10T17:15:13Z</time>
      </trkpt>
      <trkpt lat="44.4662" lon="5.67632">
        <ele>793.20001220703</ele>
        <time>2019-10-10T17:15:17Z</time>
      </trkpt>
      <trkpt lat="44.46624" lon="5.67665">
        <ele>792.59997558594</ele>
        <time>2019-10-10T17:15:20Z</time>
      </trkpt>
      <trkpt lat="44.46628" lon="5.67702">
        <ele>792</ele>
        <time>2019-10-10T17:15:23Z</time>
      </trkpt>
      <trkpt lat="44.46628" lon="5.67739">
        <ele>791.40002441406</ele>
        <time>2019-10-10T17:15:26Z</time>
      </trkpt>
      <trkpt lat="44.46607" lon="5.67833">
        <ele>788.40002441406</ele>
        <time>2019-10-10T17:15:34Z</time>
      </trkpt>
      <trkpt lat="44.46596" lon="5.67866">
        <ele>787.20001220703</ele>
        <time>2019-10-10T17:15:37Z</time>
      </trkpt>
      <trkpt lat="44.4657" lon="5.67946">
        <ele>785.20001220703</ele>
        <time>2019-10-10T17:15:44Z</time>
      </trkpt>
      <trkpt lat="44.46558" lon="5.67987">
        <ele>784</ele>
        <time>2019-10-10T17:15:48Z</time>
      </trkpt>
      <trkpt lat="44.4656" lon="5.68045">
        <ele>783.20001220703</ele>
        <time>2019-10-10T17:15:54Z</time>
      </trkpt>
      <trkpt lat="44.46557" lon="5.68074">
        <ele>783.20001220703</ele>
        <time>2019-10-10T17:15:57Z</time>
      </trkpt>
      <trkpt lat="44.46532" lon="5.6816">
        <ele>783.20001220703</ele>
        <time>2019-10-10T17:16:07Z</time>
      </trkpt>
      <trkpt lat="44.46521" lon="5.68172">
        <ele>783.20001220703</ele>
        <time>2019-10-10T17:16:09Z</time>
      </trkpt>
      <trkpt lat="44.46499" lon="5.68199">
        <ele>783</ele>
        <time>2019-10-10T17:16:13Z</time>
      </trkpt>
      <trkpt lat="44.46489" lon="5.68239">
        <ele>782.20001220703</ele>
        <time>2019-10-10T17:16:17Z</time>
      </trkpt>
      <trkpt lat="44.46475" lon="5.68316">
        <ele>780.40002441406</ele>
        <time>2019-10-10T17:16:24Z</time>
      </trkpt>
      <trkpt lat="44.46466" lon="5.6838">
        <ele>778.79998779297</ele>
        <time>2019-10-10T17:16:30Z</time>
      </trkpt>
      <trkpt lat="44.46461" lon="5.68414">
        <ele>778</ele>
        <time>2019-10-10T17:16:35Z</time>
      </trkpt>
      <trkpt lat="44.4646" lon="5.68425">
        <ele>777</ele>
        <time>2019-10-10T17:17:14Z</time>
      </trkpt>
      <trkpt lat="44.46459" lon="5.68442">
        <ele>776.79998779297</ele>
        <time>2019-10-10T17:17:17Z</time>
      </trkpt>
      <trkpt lat="44.46459" lon="5.68496">
        <ele>776.40002441406</ele>
        <time>2019-10-10T17:17:23Z</time>
      </trkpt>
      <trkpt lat="44.46455" lon="5.68548">
        <ele>775.79998779297</ele>
        <time>2019-10-10T17:17:27Z</time>
      </trkpt>
      <trkpt lat="44.46444" lon="5.68616">
        <ele>774</ele>
        <time>2019-10-10T17:17:32Z</time>
      </trkpt>
      <trkpt lat="44.46434" lon="5.68699">
        <ele>770.59997558594</ele>
        <time>2019-10-10T17:17:38Z</time>
      </trkpt>
      <trkpt lat="44.46398" lon="5.68789">
        <ele>768</ele>
        <time>2019-10-10T17:17:45Z</time>
      </trkpt>
      <trkpt lat="44.46356" lon="5.68866">
        <ele>764.79998779297</ele>
        <time>2019-10-10T17:17:52Z</time>
      </trkpt>
      <trkpt lat="44.46314" lon="5.68937">
        <ele>762.59997558594</ele>
        <time>2019-10-10T17:17:59Z</time>
      </trkpt>
      <trkpt lat="44.46285" lon="5.68967">
        <ele>761.59997558594</ele>
        <time>2019-10-10T17:18:03Z</time>
      </trkpt>
      <trkpt lat="44.46244" lon="5.68998">
        <ele>759.79998779297</ele>
        <time>2019-10-10T17:18:08Z</time>
      </trkpt>
      <trkpt lat="44.46212" lon="5.69025">
        <ele>759</ele>
        <time>2019-10-10T17:18:12Z</time>
      </trkpt>
      <trkpt lat="44.46184" lon="5.69075">
        <ele>757.59997558594</ele>
        <time>2019-10-10T17:18:17Z</time>
      </trkpt>
      <trkpt lat="44.46163" lon="5.69123">
        <ele>756.40002441406</ele>
        <time>2019-10-10T17:18:21Z</time>
      </trkpt>
      <trkpt lat="44.46149" lon="5.69155">
        <ele>755.59997558594</ele>
        <time>2019-10-10T17:18:24Z</time>
      </trkpt>
      <trkpt lat="44.46099" lon="5.69261">
        <ele>753</ele>
        <time>2019-10-10T17:18:35Z</time>
      </trkpt>
      <trkpt lat="44.46086" lon="5.69278">
        <ele>752.59997558594</ele>
        <time>2019-10-10T17:18:37Z</time>
      </trkpt>
      <trkpt lat="44.46028" lon="5.69328">
        <ele>751.40002441406</ele>
        <time>2019-10-10T17:18:45Z</time>
      </trkpt>
      <trkpt lat="44.46002" lon="5.69375">
        <ele>750.79998779297</ele>
        <time>2019-10-10T17:18:50Z</time>
      </trkpt>
      <trkpt lat="44.45976" lon="5.69426">
        <ele>749.59997558594</ele>
        <time>2019-10-10T17:18:58Z</time>
      </trkpt>
      <trkpt lat="44.45962" lon="5.69427">
        <ele>749</ele>
        <time>2019-10-10T17:19:01Z</time>
      </trkpt>
      <trkpt lat="44.45947" lon="5.69416">
        <ele>749</ele>
        <time>2019-10-10T17:19:06Z</time>
      </trkpt>
      <trkpt lat="44.45938" lon="5.69419">
        <ele>749</ele>
        <time>2019-10-10T17:19:08Z</time>
      </trkpt>
      <trkpt lat="44.45918" lon="5.69423">
        <ele>746.79998779297</ele>
        <time>2019-10-10T17:19:22Z</time>
      </trkpt>
      <trkpt lat="44.45897" lon="5.69423">
        <ele>746.40002441406</ele>
        <time>2019-10-10T17:19:28Z</time>
      </trkpt>
      <trkpt lat="44.45848" lon="5.69409">
        <ele>745.59997558594</ele>
        <time>2019-10-10T17:19:36Z</time>
      </trkpt>
      <trkpt lat="44.45813" lon="5.69393">
        <ele>744.59997558594</ele>
        <time>2019-10-10T17:19:41Z</time>
      </trkpt>
      <trkpt lat="44.45794" lon="5.69394">
        <ele>744.40002441406</ele>
        <time>2019-10-10T17:19:44Z</time>
      </trkpt>
      <trkpt lat="44.45772" lon="5.69432">
        <ele>744</ele>
        <time>2019-10-10T17:19:50Z</time>
      </trkpt>
      <trkpt lat="44.45764" lon="5.69444">
        <ele>744</ele>
        <time>2019-10-10T17:19:52Z</time>
      </trkpt>
      <trkpt lat="44.45748" lon="5.69457">
        <ele>742.79998779297</ele>
        <time>2019-10-10T17:19:55Z</time>
      </trkpt>
      <trkpt lat="44.45733" lon="5.69455">
        <ele>742</ele>
        <time>2019-10-10T17:19:57Z</time>
      </trkpt>
      <trkpt lat="44.45696" lon="5.69388">
        <ele>738.79998779297</ele>
        <time>2019-10-10T17:20:05Z</time>
      </trkpt>
      <trkpt lat="44.45687" lon="5.6938">
        <ele>738.59997558594</ele>
        <time>2019-10-10T17:20:07Z</time>
      </trkpt>
      <trkpt lat="44.45506" lon="5.69339">
        <ele>729.59997558594</ele>
        <time>2019-10-10T17:20:31Z</time>
      </trkpt>
      <trkpt lat="44.45487" lon="5.69339">
        <ele>727.79998779297</ele>
        <time>2019-10-10T17:20:33Z</time>
      </trkpt>
      <trkpt lat="44.45417" lon="5.69328">
        <ele>726.20001220703</ele>
        <time>2019-10-10T17:20:42Z</time>
      </trkpt>
      <trkpt lat="44.45376" lon="5.69321">
        <ele>726</ele>
        <time>2019-10-10T17:20:47Z</time>
      </trkpt>
      <trkpt lat="44.4531" lon="5.69318">
        <ele>724.59997558594</ele>
        <time>2019-10-10T17:20:55Z</time>
      </trkpt>
      <trkpt lat="44.4529" lon="5.69329">
        <ele>724.40002441406</ele>
        <time>2019-10-10T17:20:58Z</time>
      </trkpt>
      <trkpt lat="44.45271" lon="5.69355">
        <ele>723.79998779297</ele>
        <time>2019-10-10T17:21:02Z</time>
      </trkpt>
      <trkpt lat="44.45235" lon="5.69395">
        <ele>723.79998779297</ele>
        <time>2019-10-10T17:21:08Z</time>
      </trkpt>
      <trkpt lat="44.45196" lon="5.69418">
        <ele>723</ele>
        <time>2019-10-10T17:21:14Z</time>
      </trkpt>
      <trkpt lat="44.45114" lon="5.69467">
        <ele>722</ele>
        <time>2019-10-10T17:21:27Z</time>
      </trkpt>
      <trkpt lat="44.45081" lon="5.69503">
        <ele>721.40002441406</ele>
        <time>2019-10-10T17:21:32Z</time>
      </trkpt>
      <trkpt lat="44.45053" lon="5.69526">
        <ele>720.79998779297</ele>
        <time>2019-10-10T17:21:36Z</time>
      </trkpt>
      <trkpt lat="44.45014" lon="5.69553">
        <ele>719.79998779297</ele>
        <time>2019-10-10T17:21:41Z</time>
      </trkpt>
      <trkpt lat="44.44933" lon="5.69641">
        <ele>716.40002441406</ele>
        <time>2019-10-10T17:21:53Z</time>
      </trkpt>
      <trkpt lat="44.44912" lon="5.69693">
        <ele>715.59997558594</ele>
        <time>2019-10-10T17:21:58Z</time>
      </trkpt>
      <trkpt lat="44.44875" lon="5.69788">
        <ele>714.59997558594</ele>
        <time>2019-10-10T17:22:08Z</time>
      </trkpt>
      <trkpt lat="44.44857" lon="5.69838">
        <ele>714</ele>
        <time>2019-10-10T17:22:13Z</time>
      </trkpt>
      <trkpt lat="44.44842" lon="5.69905">
        <ele>713.59997558594</ele>
        <time>2019-10-10T17:22:20Z</time>
      </trkpt>
      <trkpt lat="44.44822" lon="5.69929">
        <ele>713.40002441406</ele>
        <time>2019-10-10T17:22:24Z</time>
      </trkpt>
      <trkpt lat="44.44778" lon="5.69955">
        <ele>713.20001220703</ele>
        <time>2019-10-10T17:22:30Z</time>
      </trkpt>
      <trkpt lat="44.447" lon="5.70016">
        <ele>711.59997558594</ele>
        <time>2019-10-10T17:22:40Z</time>
      </trkpt>
      <trkpt lat="44.44639" lon="5.70065">
        <ele>709.59997558594</ele>
        <time>2019-10-10T17:22:48Z</time>
      </trkpt>
      <trkpt lat="44.4462" lon="5.70103">
        <ele>709.20001220703</ele>
        <time>2019-10-10T17:22:52Z</time>
      </trkpt>
      <trkpt lat="44.44616" lon="5.70121">
        <ele>709</ele>
        <time>2019-10-10T17:22:54Z</time>
      </trkpt>
      <trkpt lat="44.44606" lon="5.70204">
        <ele>707.79998779297</ele>
        <time>2019-10-10T17:23:01Z</time>
      </trkpt>
      <trkpt lat="44.44593" lon="5.70244">
        <ele>706.59997558594</ele>
        <time>2019-10-10T17:23:05Z</time>
      </trkpt>
      <trkpt lat="44.44571" lon="5.70274">
        <ele>705</ele>
        <time>2019-10-10T17:23:09Z</time>
      </trkpt>
      <trkpt lat="44.44535" lon="5.70312">
        <ele>703.59997558594</ele>
        <time>2019-10-10T17:23:14Z</time>
      </trkpt>
      <trkpt lat="44.44511" lon="5.70327">
        <ele>702.79998779297</ele>
        <time>2019-10-10T17:23:17Z</time>
      </trkpt>
      <trkpt lat="44.44482" lon="5.70332">
        <ele>702.20001220703</ele>
        <time>2019-10-10T17:23:20Z</time>
      </trkpt>
      <trkpt lat="44.44399" lon="5.70355">
        <ele>700</ele>
        <time>2019-10-10T17:23:30Z</time>
      </trkpt>
      <trkpt lat="44.44351" lon="5.70384">
        <ele>699.59997558594</ele>
        <time>2019-10-10T17:23:37Z</time>
      </trkpt>
      <trkpt lat="44.44338" lon="5.70407">
        <ele>699.59997558594</ele>
        <time>2019-10-10T17:23:41Z</time>
      </trkpt>
      <trkpt lat="44.44322" lon="5.70444">
        <ele>699.59997558594</ele>
        <time>2019-10-10T17:23:45Z</time>
      </trkpt>
      <trkpt lat="44.44308" lon="5.70458">
        <ele>699.59997558594</ele>
        <time>2019-10-10T17:23:47Z</time>
      </trkpt>
      <trkpt lat="44.44229" lon="5.70508">
        <ele>698</ele>
        <time>2019-10-10T17:23:59Z</time>
      </trkpt>
      <trkpt lat="44.44211" lon="5.70525">
        <ele>698</ele>
        <time>2019-10-10T17:24:02Z</time>
      </trkpt>
      <trkpt lat="44.44198" lon="5.70549">
        <ele>697.59997558594</ele>
        <time>2019-10-10T17:24:05Z</time>
      </trkpt>
      <trkpt lat="44.44178" lon="5.7059">
        <ele>697.20001220703</ele>
        <time>2019-10-10T17:24:10Z</time>
      </trkpt>
      <trkpt lat="44.44135" lon="5.70628">
        <ele>696.79998779297</ele>
        <time>2019-10-10T17:24:17Z</time>
      </trkpt>
      <trkpt lat="44.44108" lon="5.70636">
        <ele>696.20001220703</ele>
        <time>2019-10-10T17:24:21Z</time>
      </trkpt>
      <trkpt lat="44.43997" lon="5.70719">
        <ele>694.59997558594</ele>
        <time>2019-10-10T17:24:40Z</time>
      </trkpt>
      <trkpt lat="44.43981" lon="5.70761">
        <ele>694.40002441406</ele>
        <time>2019-10-10T17:24:45Z</time>
      </trkpt>
      <trkpt lat="44.43914" lon="5.70819">
        <ele>693.20001220703</ele>
        <time>2019-10-10T17:24:57Z</time>
      </trkpt>
      <trkpt lat="44.43857" lon="5.70857">
        <ele>693</ele>
        <time>2019-10-10T17:25:06Z</time>
      </trkpt>
      <trkpt lat="44.43746" lon="5.70956">
        <ele>691.79998779297</ele>
        <time>2019-10-10T17:25:25Z</time>
      </trkpt>
      <trkpt lat="44.43718" lon="5.70971">
        <ele>692.40002441406</ele>
        <time>2019-10-10T17:25:32Z</time>
      </trkpt>
      <trkpt lat="44.43702" lon="5.70978">
        <ele>693.20001220703</ele>
        <time>2019-10-10T17:25:35Z</time>
      </trkpt>
      <trkpt lat="44.43658" lon="5.70984">
        <ele>695.20001220703</ele>
        <time>2019-10-10T17:25:45Z</time>
      </trkpt>
      <trkpt lat="44.43621" lon="5.70991">
        <ele>695.59997558594</ele>
        <time>2019-10-10T17:25:53Z</time>
      </trkpt>
      <trkpt lat="44.4358" lon="5.71">
        <ele>695.40002441406</ele>
        <time>2019-10-10T17:26:00Z</time>
      </trkpt>
      <trkpt lat="44.43561" lon="5.71004">
        <ele>695</ele>
        <time>2019-10-10T17:26:03Z</time>
      </trkpt>
      <trkpt lat="44.43504" lon="5.71019">
        <ele>693.40002441406</ele>
        <time>2019-10-10T17:26:11Z</time>
      </trkpt>
      <trkpt lat="44.43476" lon="5.71032">
        <ele>693</ele>
        <time>2019-10-10T17:26:15Z</time>
      </trkpt>
      <trkpt lat="44.43423" lon="5.71057">
        <ele>691.59997558594</ele>
        <time>2019-10-10T17:26:21Z</time>
      </trkpt>
      <trkpt lat="44.43396" lon="5.71073">
        <ele>690.59997558594</ele>
        <time>2019-10-10T17:26:24Z</time>
      </trkpt>
      <trkpt lat="44.43361" lon="5.71093">
        <ele>688.79998779297</ele>
        <time>2019-10-10T17:26:28Z</time>
      </trkpt>
      <trkpt lat="44.43323" lon="5.71118">
        <ele>686.59997558594</ele>
        <time>2019-10-10T17:26:32Z</time>
      </trkpt>
      <trkpt lat="44.43279" lon="5.71169">
        <ele>681.79998779297</ele>
        <time>2019-10-10T17:26:38Z</time>
      </trkpt>
      <trkpt lat="44.43237" lon="5.71256">
        <ele>676.59997558594</ele>
        <time>2019-10-10T17:26:47Z</time>
      </trkpt>
      <trkpt lat="44.43214" lon="5.71295">
        <ele>674</ele>
        <time>2019-10-10T17:26:53Z</time>
      </trkpt>
      <trkpt lat="44.43207" lon="5.71307">
        <ele>673</ele>
        <time>2019-10-10T17:26:57Z</time>
      </trkpt>
      <trkpt lat="44.43203" lon="5.71313">
        <ele>672.79998779297</ele>
        <time>2019-10-10T17:27:02Z</time>
      </trkpt>
      <trkpt lat="44.43172" lon="5.71311">
        <ele>672.79998779297</ele>
        <time>2019-10-10T17:27:12Z</time>
      </trkpt>
      <trkpt lat="44.43156" lon="5.71321">
        <ele>672.79998779297</ele>
        <time>2019-10-10T17:27:16Z</time>
      </trkpt>
      <trkpt lat="44.43129" lon="5.71368">
        <ele>672.79998779297</ele>
        <time>2019-10-10T17:27:25Z</time>
      </trkpt>
      <trkpt lat="44.43113" lon="5.71406">
        <ele>672.79998779297</ele>
        <time>2019-10-10T17:27:31Z</time>
      </trkpt>
      <trkpt lat="44.43085" lon="5.7147">
        <ele>673.20001220703</ele>
        <time>2019-10-10T17:27:42Z</time>
      </trkpt>
      <trkpt lat="44.43065" lon="5.71512">
        <ele>673.79998779297</ele>
        <time>2019-10-10T17:27:51Z</time>
      </trkpt>
      <trkpt lat="44.43052" lon="5.71562">
        <ele>674.59997558594</ele>
        <time>2019-10-10T17:28:01Z</time>
      </trkpt>
      <trkpt lat="44.43044" lon="5.71593">
        <ele>674.59997558594</ele>
        <time>2019-10-10T17:28:06Z</time>
      </trkpt>
      <trkpt lat="44.43034" lon="5.71628">
        <ele>674.40002441406</ele>
        <time>2019-10-10T17:28:11Z</time>
      </trkpt>
      <trkpt lat="44.43013" lon="5.71687">
        <ele>673.40002441406</ele>
        <time>2019-10-10T17:28:18Z</time>
      </trkpt>
      <trkpt lat="44.43002" lon="5.7171">
        <ele>672.40002441406</ele>
        <time>2019-10-10T17:28:22Z</time>
      </trkpt>
      <trkpt lat="44.42983" lon="5.71728">
        <ele>671.40002441406</ele>
        <time>2019-10-10T17:28:27Z</time>
      </trkpt>
      <trkpt lat="44.42972" lon="5.71732">
        <ele>670.79998779297</ele>
        <time>2019-10-10T17:28:30Z</time>
      </trkpt>
      <trkpt lat="44.4294" lon="5.71725">
        <ele>668.20001220703</ele>
        <time>2019-10-10T17:28:46Z</time>
      </trkpt>
      <trkpt lat="44.42932" lon="5.71712">
        <ele>667.59997558594</ele>
        <time>2019-10-10T17:29:03Z</time>
      </trkpt>
      <trkpt lat="44.42915" lon="5.71692">
        <ele>667.59997558594</ele>
        <time>2019-10-10T17:29:08Z</time>
      </trkpt>
      <trkpt lat="44.42902" lon="5.71665">
        <ele>667.40002441406</ele>
        <time>2019-10-10T17:29:13Z</time>
      </trkpt>
      <trkpt lat="44.42892" lon="5.71644">
        <ele>667.20001220703</ele>
        <time>2019-10-10T17:29:17Z</time>
      </trkpt>
      <trkpt lat="44.42883" lon="5.71627">
        <ele>667.40002441406</ele>
        <time>2019-10-10T17:29:20Z</time>
      </trkpt>
      <trkpt lat="44.42867" lon="5.71598">
        <ele>667.59997558594</ele>
        <time>2019-10-10T17:29:26Z</time>
      </trkpt>
      <trkpt lat="44.42856" lon="5.71578">
        <ele>668.40002441406</ele>
        <time>2019-10-10T17:29:31Z</time>
      </trkpt>
      <trkpt lat="44.42846" lon="5.71554">
        <ele>669.20001220703</ele>
        <time>2019-10-10T17:29:36Z</time>
      </trkpt>
      <trkpt lat="44.42837" lon="5.71535">
        <ele>670.20001220703</ele>
        <time>2019-10-10T17:29:41Z</time>
      </trkpt>
      <trkpt lat="44.42826" lon="5.71497">
        <ele>672.40002441406</ele>
        <time>2019-10-10T17:29:53Z</time>
      </trkpt>
      <trkpt lat="44.42825" lon="5.71493">
        <ele>673.20001220703</ele>
        <time>2019-10-10T17:29:59Z</time>
      </trkpt>
      <trkpt lat="44.42825" lon="5.71492">
        <ele>673.59997558594</ele>
        <time>2019-10-10T17:30:03Z</time>
      </trkpt>
      <trkpt lat="44.42818" lon="5.71465">
        <ele>664.20001220703</ele>
        <time>2019-10-11T06:05:15Z</time>
      </trkpt>
      <trkpt lat="44.42814" lon="5.7145">
        <ele>664.20001220703</ele>
        <time>2019-10-11T06:05:19Z</time>
      </trkpt>
      <trkpt lat="44.428" lon="5.71379">
        <ele>664.20001220703</ele>
        <time>2019-10-11T06:05:32Z</time>
      </trkpt>
      <trkpt lat="44.4279" lon="5.7137">
        <ele>664.20001220703</ele>
        <time>2019-10-11T06:05:37Z</time>
      </trkpt>
      <trkpt lat="44.42786" lon="5.71382">
        <ele>663.79998779297</ele>
        <time>2019-10-11T06:05:42Z</time>
      </trkpt>
      <trkpt lat="44.42785" lon="5.71387">
        <ele>664</ele>
        <time>2019-10-11T06:05:44Z</time>
      </trkpt>
      <trkpt lat="44.42779" lon="5.71406">
        <ele>660.79998779297</ele>
        <time>2019-10-11T06:05:52Z</time>
      </trkpt>
      <trkpt lat="44.42778" lon="5.71409">
        <ele>658.79998779297</ele>
        <time>2019-10-11T06:05:55Z</time>
      </trkpt>
      <trkpt lat="44.42773" lon="5.71407">
        <ele>657.40002441406</ele>
        <time>2019-10-11T06:06:00Z</time>
      </trkpt>
      <trkpt lat="44.42773" lon="5.71405">
        <ele>656.79998779297</ele>
        <time>2019-10-11T06:06:02Z</time>
      </trkpt>
      <trkpt lat="44.42768" lon="5.71401">
        <ele>655.59997558594</ele>
        <time>2019-10-11T06:06:07Z</time>
      </trkpt>
      <trkpt lat="44.42765" lon="5.71401">
        <ele>655.20001220703</ele>
        <time>2019-10-11T06:06:09Z</time>
      </trkpt>
      <trkpt lat="44.42753" lon="5.71407">
        <ele>653.59997558594</ele>
        <time>2019-10-11T06:06:14Z</time>
      </trkpt>
      <trkpt lat="44.42719" lon="5.71382">
        <ele>651.59997558594</ele>
        <time>2019-10-11T06:06:25Z</time>
      </trkpt>
      <trkpt lat="44.42702" lon="5.71358">
        <ele>651.20001220703</ele>
        <time>2019-10-11T06:06:30Z</time>
      </trkpt>
      <trkpt lat="44.42662" lon="5.71303">
        <ele>651</ele>
        <time>2019-10-11T06:06:42Z</time>
      </trkpt>
      <trkpt lat="44.42634" lon="5.71264">
        <ele>650.79998779297</ele>
        <time>2019-10-11T06:06:50Z</time>
      </trkpt>
      <trkpt lat="44.42586" lon="5.71195">
        <ele>650.40002441406</ele>
        <time>2019-10-11T06:07:04Z</time>
      </trkpt>
      <trkpt lat="44.42559" lon="5.71157">
        <ele>650.40002441406</ele>
        <time>2019-10-11T06:07:12Z</time>
      </trkpt>
      <trkpt lat="44.42518" lon="5.71097">
        <ele>650.40002441406</ele>
        <time>2019-10-11T06:07:26Z</time>
      </trkpt>
      <trkpt lat="44.4251" lon="5.71082">
        <ele>650.40002441406</ele>
        <time>2019-10-11T06:07:30Z</time>
      </trkpt>
      <trkpt lat="44.42504" lon="5.71058">
        <ele>652.59997558594</ele>
        <time>2019-10-11T06:07:41Z</time>
      </trkpt>
      <trkpt lat="44.42504" lon="5.7105">
        <ele>653.40002441406</ele>
        <time>2019-10-11T06:07:45Z</time>
      </trkpt>
      <trkpt lat="44.42506" lon="5.71031">
        <ele>655.79998779297</ele>
        <time>2019-10-11T06:07:55Z</time>
      </trkpt>
      <trkpt lat="44.42498" lon="5.71026">
        <ele>657</ele>
        <time>2019-10-11T06:08:01Z</time>
      </trkpt>
      <trkpt lat="44.42481" lon="5.71014">
        <ele>657.40002441406</ele>
        <time>2019-10-11T06:08:08Z</time>
      </trkpt>
      <trkpt lat="44.42436" lon="5.70982">
        <ele>656.40002441406</ele>
        <time>2019-10-11T06:08:19Z</time>
      </trkpt>
      <trkpt lat="44.42419" lon="5.70977">
        <ele>656</ele>
        <time>2019-10-11T06:08:22Z</time>
      </trkpt>
      <trkpt lat="44.42386" lon="5.70978">
        <ele>655.20001220703</ele>
        <time>2019-10-11T06:08:28Z</time>
      </trkpt>
      <trkpt lat="44.42358" lon="5.70982">
        <ele>654.40002441406</ele>
        <time>2019-10-11T06:08:32Z</time>
      </trkpt>
      <trkpt lat="44.42311" lon="5.70991">
        <ele>652.79998779297</ele>
        <time>2019-10-11T06:08:38Z</time>
      </trkpt>
      <trkpt lat="44.4228" lon="5.71">
        <ele>651</ele>
        <time>2019-10-11T06:08:42Z</time>
      </trkpt>
      <trkpt lat="44.42209" lon="5.71016">
        <ele>648.20001220703</ele>
        <time>2019-10-11T06:08:52Z</time>
      </trkpt>
      <trkpt lat="44.42168" lon="5.71014">
        <ele>647.59997558594</ele>
        <time>2019-10-11T06:08:58Z</time>
      </trkpt>
      <trkpt lat="44.42083" lon="5.71009">
        <ele>645.79998779297</ele>
        <time>2019-10-11T06:09:12Z</time>
      </trkpt>
      <trkpt lat="44.42044" lon="5.71008">
        <ele>646</ele>
        <time>2019-10-11T06:09:19Z</time>
      </trkpt>
      <trkpt lat="44.41978" lon="5.71032">
        <ele>646.20001220703</ele>
        <time>2019-10-11T06:09:33Z</time>
      </trkpt>
      <trkpt lat="44.4194" lon="5.71064">
        <ele>645.79998779297</ele>
        <time>2019-10-11T06:09:41Z</time>
      </trkpt>
      <trkpt lat="44.41841" lon="5.71152">
        <ele>644</ele>
        <time>2019-10-11T06:10:02Z</time>
      </trkpt>
      <trkpt lat="44.41801" lon="5.71188">
        <ele>644.20001220703</ele>
        <time>2019-10-11T06:10:11Z</time>
      </trkpt>
      <trkpt lat="44.41756" lon="5.71211">
        <ele>644</ele>
        <time>2019-10-11T06:10:21Z</time>
      </trkpt>
      <trkpt lat="44.41667" lon="5.71193">
        <ele>645.40002441406</ele>
        <time>2019-10-11T06:10:41Z</time>
      </trkpt>
      <trkpt lat="44.41597" lon="5.712">
        <ele>644.20001220703</ele>
        <time>2019-10-11T06:10:53Z</time>
      </trkpt>
      <trkpt lat="44.41503" lon="5.71213">
        <ele>644</ele>
        <time>2019-10-11T06:11:11Z</time>
      </trkpt>
      <trkpt lat="44.41433" lon="5.71226">
        <ele>643.59997558594</ele>
        <time>2019-10-11T06:11:25Z</time>
      </trkpt>
      <trkpt lat="44.41314" lon="5.71271">
        <ele>642.79998779297</ele>
        <time>2019-10-11T06:11:48Z</time>
      </trkpt>
      <trkpt lat="44.41255" lon="5.7132">
        <ele>642.59997558594</ele>
        <time>2019-10-11T06:12:00Z</time>
      </trkpt>
      <trkpt lat="44.41154" lon="5.71398">
        <ele>641.20001220703</ele>
        <time>2019-10-11T06:12:21Z</time>
      </trkpt>
      <trkpt lat="44.41099" lon="5.71422">
        <ele>641.20001220703</ele>
        <time>2019-10-11T06:12:32Z</time>
      </trkpt>
      <trkpt lat="44.41073" lon="5.71434">
        <ele>641.40002441406</ele>
        <time>2019-10-11T06:12:38Z</time>
      </trkpt>
      <trkpt lat="44.41042" lon="5.71447">
        <ele>642.40002441406</ele>
        <time>2019-10-11T06:12:46Z</time>
      </trkpt>
      <trkpt lat="44.40995" lon="5.71465">
        <ele>645.40002441406</ele>
        <time>2019-10-11T06:12:59Z</time>
      </trkpt>
      <trkpt lat="44.40961" lon="5.71473">
        <ele>645.59997558594</ele>
        <time>2019-10-11T06:13:06Z</time>
      </trkpt>
      <trkpt lat="44.40918" lon="5.71483">
        <ele>645.20001220703</ele>
        <time>2019-10-11T06:13:13Z</time>
      </trkpt>
      <trkpt lat="44.40846" lon="5.715">
        <ele>643</ele>
        <time>2019-10-11T06:13:23Z</time>
      </trkpt>
      <trkpt lat="44.40798" lon="5.71513">
        <ele>641.79998779297</ele>
        <time>2019-10-11T06:13:30Z</time>
      </trkpt>
      <trkpt lat="44.40741" lon="5.71541">
        <ele>641.40002441406</ele>
        <time>2019-10-11T06:13:40Z</time>
      </trkpt>
      <trkpt lat="44.40712" lon="5.71571">
        <ele>642</ele>
        <time>2019-10-11T06:13:47Z</time>
      </trkpt>
      <trkpt lat="44.4068" lon="5.71606">
        <ele>644.20001220703</ele>
        <time>2019-10-11T06:13:57Z</time>
      </trkpt>
      <trkpt lat="44.40646" lon="5.71642">
        <ele>644.59997558594</ele>
        <time>2019-10-11T06:14:05Z</time>
      </trkpt>
      <trkpt lat="44.40593" lon="5.71705">
        <ele>642.59997558594</ele>
        <time>2019-10-11T06:14:16Z</time>
      </trkpt>
      <trkpt lat="44.40547" lon="5.71772">
        <ele>642.40002441406</ele>
        <time>2019-10-11T06:14:28Z</time>
      </trkpt>
      <trkpt lat="44.40492" lon="5.7185">
        <ele>642.20001220703</ele>
        <time>2019-10-11T06:14:42Z</time>
      </trkpt>
      <trkpt lat="44.40451" lon="5.71901">
        <ele>642.20001220703</ele>
        <time>2019-10-11T06:14:52Z</time>
      </trkpt>
      <trkpt lat="44.40347" lon="5.72013">
        <ele>640.59997558594</ele>
        <time>2019-10-11T06:15:13Z</time>
      </trkpt>
      <trkpt lat="44.40305" lon="5.72069">
        <ele>640.20001220703</ele>
        <time>2019-10-11T06:15:23Z</time>
      </trkpt>
      <trkpt lat="44.40244" lon="5.72148">
        <ele>640</ele>
        <time>2019-10-11T06:15:37Z</time>
      </trkpt>
      <trkpt lat="44.40179" lon="5.72214">
        <ele>639.59997558594</ele>
        <time>2019-10-11T06:15:50Z</time>
      </trkpt>
      <trkpt lat="44.40113" lon="5.72278">
        <ele>638.40002441406</ele>
        <time>2019-10-11T06:16:03Z</time>
      </trkpt>
      <trkpt lat="44.40051" lon="5.72334">
        <ele>638</ele>
        <time>2019-10-11T06:16:14Z</time>
      </trkpt>
      <trkpt lat="44.40013" lon="5.7237">
        <ele>636.79998779297</ele>
        <time>2019-10-11T06:16:21Z</time>
      </trkpt>
      <trkpt lat="44.39953" lon="5.72455">
        <ele>635</ele>
        <time>2019-10-11T06:16:34Z</time>
      </trkpt>
      <trkpt lat="44.39918" lon="5.72511">
        <ele>634.20001220703</ele>
        <time>2019-10-11T06:16:42Z</time>
      </trkpt>
      <trkpt lat="44.39836" lon="5.72626">
        <ele>634.20001220703</ele>
        <time>2019-10-11T06:17:01Z</time>
      </trkpt>
      <trkpt lat="44.39795" lon="5.72682">
        <ele>634.20001220703</ele>
        <time>2019-10-11T06:17:11Z</time>
      </trkpt>
      <trkpt lat="44.39777" lon="5.72707">
        <ele>634.20001220703</ele>
        <time>2019-10-11T06:17:15Z</time>
      </trkpt>
      <trkpt lat="44.39769" lon="5.72717">
        <ele>634.20001220703</ele>
        <time>2019-10-11T06:17:17Z</time>
      </trkpt>
      <trkpt lat="44.39674" lon="5.72833">
        <ele>634.20001220703</ele>
        <time>2019-10-11T06:17:40Z</time>
      </trkpt>
      <trkpt lat="44.3962" lon="5.72894">
        <ele>634.20001220703</ele>
        <time>2019-10-11T06:17:52Z</time>
      </trkpt>
      <trkpt lat="44.39572" lon="5.7294">
        <ele>634.20001220703</ele>
        <time>2019-10-11T06:18:02Z</time>
      </trkpt>
      <trkpt lat="44.39533" lon="5.7297">
        <ele>633.40002441406</ele>
        <time>2019-10-11T06:18:08Z</time>
      </trkpt>
      <trkpt lat="44.39495" lon="5.72985">
        <ele>632</ele>
        <time>2019-10-11T06:18:13Z</time>
      </trkpt>
      <trkpt lat="44.39463" lon="5.72998">
        <ele>631.20001220703</ele>
        <time>2019-10-11T06:18:17Z</time>
      </trkpt>
      <trkpt lat="44.39425" lon="5.73024">
        <ele>629.59997558594</ele>
        <time>2019-10-11T06:18:22Z</time>
      </trkpt>
      <trkpt lat="44.39338" lon="5.73061">
        <ele>625.79998779297</ele>
        <time>2019-10-11T06:18:33Z</time>
      </trkpt>
      <trkpt lat="44.39264" lon="5.73089">
        <ele>624</ele>
        <time>2019-10-11T06:18:44Z</time>
      </trkpt>
      <trkpt lat="44.39209" lon="5.73088">
        <ele>623.79998779297</ele>
        <time>2019-10-11T06:18:53Z</time>
      </trkpt>
      <trkpt lat="44.3913" lon="5.73029">
        <ele>623.20001220703</ele>
        <time>2019-10-11T06:19:08Z</time>
      </trkpt>
      <trkpt lat="44.39024" lon="5.73001">
        <ele>623.79998779297</ele>
        <time>2019-10-11T06:19:30Z</time>
      </trkpt>
      <trkpt lat="44.38997" lon="5.73018">
        <ele>623.59997558594</ele>
        <time>2019-10-11T06:19:35Z</time>
      </trkpt>
      <trkpt lat="44.38956" lon="5.73054">
        <ele>622.40002441406</ele>
        <time>2019-10-11T06:19:42Z</time>
      </trkpt>
      <trkpt lat="44.38895" lon="5.73107">
        <ele>619.20001220703</ele>
        <time>2019-10-11T06:19:52Z</time>
      </trkpt>
      <trkpt lat="44.38829" lon="5.7315">
        <ele>618.20001220703</ele>
        <time>2019-10-11T06:20:03Z</time>
      </trkpt>
      <trkpt lat="44.38775" lon="5.73189">
        <ele>617.79998779297</ele>
        <time>2019-10-11T06:20:13Z</time>
      </trkpt>
      <trkpt lat="44.38721" lon="5.73231">
        <ele>617</ele>
        <time>2019-10-11T06:20:23Z</time>
      </trkpt>
      <trkpt lat="44.38623" lon="5.733">
        <ele>616.20001220703</ele>
        <time>2019-10-11T06:20:41Z</time>
      </trkpt>
      <trkpt lat="44.38575" lon="5.73329">
        <ele>616</ele>
        <time>2019-10-11T06:20:51Z</time>
      </trkpt>
      <trkpt lat="44.38547" lon="5.73345">
        <ele>616.59997558594</ele>
        <time>2019-10-11T06:20:59Z</time>
      </trkpt>
      <trkpt lat="44.38527" lon="5.73351">
        <ele>618.20001220703</ele>
        <time>2019-10-11T06:21:06Z</time>
      </trkpt>
      <trkpt lat="44.38503" lon="5.73351">
        <ele>620</ele>
        <time>2019-10-11T06:21:15Z</time>
      </trkpt>
      <trkpt lat="44.38476" lon="5.73356">
        <ele>622</ele>
        <time>2019-10-11T06:21:26Z</time>
      </trkpt>
      <trkpt lat="44.38459" lon="5.73368">
        <ele>623.79998779297</ele>
        <time>2019-10-11T06:21:35Z</time>
      </trkpt>
      <trkpt lat="44.38437" lon="5.73403">
        <ele>625.79998779297</ele>
        <time>2019-10-11T06:21:50Z</time>
      </trkpt>
      <trkpt lat="44.38402" lon="5.73428">
        <ele>627</ele>
        <time>2019-10-11T06:22:03Z</time>
      </trkpt>
      <trkpt lat="44.3837" lon="5.73419">
        <ele>627</ele>
        <time>2019-10-11T06:22:10Z</time>
      </trkpt>
      <trkpt lat="44.38342" lon="5.73412">
        <ele>626.40002441406</ele>
        <time>2019-10-11T06:22:15Z</time>
      </trkpt>
      <trkpt lat="44.38315" lon="5.73407">
        <ele>626.20001220703</ele>
        <time>2019-10-11T06:22:20Z</time>
      </trkpt>
      <trkpt lat="44.38273" lon="5.73402">
        <ele>625</ele>
        <time>2019-10-11T06:22:27Z</time>
      </trkpt>
      <trkpt lat="44.38234" lon="5.73397">
        <ele>624.20001220703</ele>
        <time>2019-10-11T06:22:33Z</time>
      </trkpt>
      <trkpt lat="44.38172" lon="5.73384">
        <ele>622.40002441406</ele>
        <time>2019-10-11T06:22:41Z</time>
      </trkpt>
      <trkpt lat="44.38099" lon="5.73377">
        <ele>621.40002441406</ele>
        <time>2019-10-11T06:22:53Z</time>
      </trkpt>
      <trkpt lat="44.38075" lon="5.73374">
        <ele>621.79998779297</ele>
        <time>2019-10-11T06:22:58Z</time>
      </trkpt>
      <trkpt lat="44.38032" lon="5.73365">
        <ele>623.20001220703</ele>
        <time>2019-10-11T06:23:08Z</time>
      </trkpt>
      <trkpt lat="44.37973" lon="5.7335">
        <ele>624</ele>
        <time>2019-10-11T06:23:22Z</time>
      </trkpt>
      <trkpt lat="44.37948" lon="5.73344">
        <ele>623.20001220703</ele>
        <time>2019-10-11T06:23:30Z</time>
      </trkpt>
      <trkpt lat="44.37946" lon="5.73344">
        <ele>622.59997558594</ele>
        <time>2019-10-11T06:23:57Z</time>
      </trkpt>
      <trkpt lat="44.37941" lon="5.73357">
        <ele>622.59997558594</ele>
        <time>2019-10-11T06:24:02Z</time>
      </trkpt>
      <trkpt lat="44.37937" lon="5.73362">
        <ele>622.59997558594</ele>
        <time>2019-10-11T06:24:04Z</time>
      </trkpt>
      <trkpt lat="44.37887" lon="5.73424">
        <ele>620.59997558594</ele>
        <time>2019-10-11T06:24:17Z</time>
      </trkpt>
      <trkpt lat="44.37863" lon="5.73454">
        <ele>620.20001220703</ele>
        <time>2019-10-11T06:24:24Z</time>
      </trkpt>
      <trkpt lat="44.37837" lon="5.73484">
        <ele>619.79998779297</ele>
        <time>2019-10-11T06:24:30Z</time>
      </trkpt>
      <trkpt lat="44.37775" lon="5.73558">
        <ele>619</ele>
        <time>2019-10-11T06:24:45Z</time>
      </trkpt>
      <trkpt lat="44.37713" lon="5.73615">
        <ele>618.79998779297</ele>
        <time>2019-10-11T06:24:58Z</time>
      </trkpt>
      <trkpt lat="44.37612" lon="5.73674">
        <ele>618.40002441406</ele>
        <time>2019-10-11T06:25:18Z</time>
      </trkpt>
      <trkpt lat="44.37554" lon="5.73711">
        <ele>617.59997558594</ele>
        <time>2019-10-11T06:25:29Z</time>
      </trkpt>
      <trkpt lat="44.3753" lon="5.7375">
        <ele>617.20001220703</ele>
        <time>2019-10-11T06:25:36Z</time>
      </trkpt>
      <trkpt lat="44.37519" lon="5.73755">
        <ele>617.20001220703</ele>
        <time>2019-10-11T06:25:38Z</time>
      </trkpt>
      <trkpt lat="44.37489" lon="5.73766">
        <ele>617</ele>
        <time>2019-10-11T06:25:43Z</time>
      </trkpt>
      <trkpt lat="44.37481" lon="5.73775">
        <ele>617</ele>
        <time>2019-10-11T06:25:45Z</time>
      </trkpt>
      <trkpt lat="44.37445" lon="5.73801">
        <ele>616.40002441406</ele>
        <time>2019-10-11T06:25:53Z</time>
      </trkpt>
      <trkpt lat="44.37386" lon="5.73834">
        <ele>616.40002441406</ele>
        <time>2019-10-11T06:26:05Z</time>
      </trkpt>
      <trkpt lat="44.37312" lon="5.73868">
        <ele>615.59997558594</ele>
        <time>2019-10-11T06:26:19Z</time>
      </trkpt>
      <trkpt lat="44.37262" lon="5.73882">
        <ele>614.59997558594</ele>
        <time>2019-10-11T06:26:28Z</time>
      </trkpt>
      <trkpt lat="44.37236" lon="5.73889">
        <ele>614.20001220703</ele>
        <time>2019-10-11T06:26:32Z</time>
      </trkpt>
      <trkpt lat="44.37175" lon="5.7392">
        <ele>612.20001220703</ele>
        <time>2019-10-11T06:26:42Z</time>
      </trkpt>
      <trkpt lat="44.37166" lon="5.73935">
        <ele>611.59997558594</ele>
        <time>2019-10-11T06:26:44Z</time>
      </trkpt>
      <trkpt lat="44.37129" lon="5.74009">
        <ele>610.40002441406</ele>
        <time>2019-10-11T06:26:54Z</time>
      </trkpt>
      <trkpt lat="44.37108" lon="5.7405">
        <ele>610.59997558594</ele>
        <time>2019-10-11T06:27:01Z</time>
      </trkpt>
      <trkpt lat="44.37084" lon="5.74096">
        <ele>611.59997558594</ele>
        <time>2019-10-11T06:27:10Z</time>
      </trkpt>
      <trkpt lat="44.37058" lon="5.74145">
        <ele>612.20001220703</ele>
        <time>2019-10-11T06:27:19Z</time>
      </trkpt>
      <trkpt lat="44.37014" lon="5.7422">
        <ele>612</ele>
        <time>2019-10-11T06:27:32Z</time>
      </trkpt>
      <trkpt lat="44.36971" lon="5.74251">
        <ele>611.20001220703</ele>
        <time>2019-10-11T06:27:41Z</time>
      </trkpt>
      <trkpt lat="44.36921" lon="5.74271">
        <ele>610.79998779297</ele>
        <time>2019-10-11T06:27:50Z</time>
      </trkpt>
      <trkpt lat="44.36866" lon="5.74289">
        <ele>610.20001220703</ele>
        <time>2019-10-11T06:28:01Z</time>
      </trkpt>
      <trkpt lat="44.36802" lon="5.7432">
        <ele>610.20001220703</ele>
        <time>2019-10-11T06:28:16Z</time>
      </trkpt>
      <trkpt lat="44.36771" lon="5.74378">
        <ele>609.79998779297</ele>
        <time>2019-10-11T06:28:26Z</time>
      </trkpt>
      <trkpt lat="44.36735" lon="5.74416">
        <ele>609.40002441406</ele>
        <time>2019-10-11T06:28:37Z</time>
      </trkpt>
      <trkpt lat="44.36714" lon="5.74428">
        <ele>609</ele>
        <time>2019-10-11T06:28:45Z</time>
      </trkpt>
      <trkpt lat="44.3671" lon="5.74429">
        <ele>608.40002441406</ele>
        <time>2019-10-11T06:30:12Z</time>
      </trkpt>
      <trkpt lat="44.36689" lon="5.74441">
        <ele>608.40002441406</ele>
        <time>2019-10-11T06:30:20Z</time>
      </trkpt>
      <trkpt lat="44.3663" lon="5.74489">
        <ele>608.20001220703</ele>
        <time>2019-10-11T06:30:34Z</time>
      </trkpt>
      <trkpt lat="44.36568" lon="5.74556">
        <ele>607.79998779297</ele>
        <time>2019-10-11T06:30:49Z</time>
      </trkpt>
      <trkpt lat="44.3651" lon="5.74614">
        <ele>607.59997558594</ele>
        <time>2019-10-11T06:31:02Z</time>
      </trkpt>
      <trkpt lat="44.36437" lon="5.74667">
        <ele>606.59997558594</ele>
        <time>2019-10-11T06:31:17Z</time>
      </trkpt>
      <trkpt lat="44.36355" lon="5.74723">
        <ele>605.79998779297</ele>
        <time>2019-10-11T06:31:33Z</time>
      </trkpt>
      <trkpt lat="44.36305" lon="5.74769">
        <ele>605.79998779297</ele>
        <time>2019-10-11T06:31:44Z</time>
      </trkpt>
      <trkpt lat="44.36248" lon="5.74832">
        <ele>605.59997558594</ele>
        <time>2019-10-11T06:31:57Z</time>
      </trkpt>
      <trkpt lat="44.36159" lon="5.74916">
        <ele>604.59997558594</ele>
        <time>2019-10-11T06:32:16Z</time>
      </trkpt>
      <trkpt lat="44.36096" lon="5.7497">
        <ele>604.59997558594</ele>
        <time>2019-10-11T06:32:29Z</time>
      </trkpt>
      <trkpt lat="44.35985" lon="5.75044">
        <ele>604</ele>
        <time>2019-10-11T06:32:50Z</time>
      </trkpt>
      <trkpt lat="44.35908" lon="5.75107">
        <ele>603</ele>
        <time>2019-10-11T06:33:05Z</time>
      </trkpt>
      <trkpt lat="44.35825" lon="5.75169">
        <ele>602.20001220703</ele>
        <time>2019-10-11T06:33:21Z</time>
      </trkpt>
      <trkpt lat="44.35741" lon="5.75199">
        <ele>602</ele>
        <time>2019-10-11T06:33:36Z</time>
      </trkpt>
      <trkpt lat="44.35689" lon="5.75252">
        <ele>601.79998779297</ele>
        <time>2019-10-11T06:33:48Z</time>
      </trkpt>
      <trkpt lat="44.35605" lon="5.75335">
        <ele>601</ele>
        <time>2019-10-11T06:34:06Z</time>
      </trkpt>
      <trkpt lat="44.35568" lon="5.75355">
        <ele>600.59997558594</ele>
        <time>2019-10-11T06:34:12Z</time>
      </trkpt>
      <trkpt lat="44.35538" lon="5.75372">
        <ele>599.40002441406</ele>
        <time>2019-10-11T06:34:17Z</time>
      </trkpt>
      <trkpt lat="44.35518" lon="5.75384">
        <ele>598.79998779297</ele>
        <time>2019-10-11T06:34:20Z</time>
      </trkpt>
      <trkpt lat="44.35421" lon="5.75464">
        <ele>594</ele>
        <time>2019-10-11T06:34:34Z</time>
      </trkpt>
      <trkpt lat="44.35371" lon="5.75502">
        <ele>592</ele>
        <time>2019-10-11T06:34:42Z</time>
      </trkpt>
      <trkpt lat="44.35279" lon="5.75559">
        <ele>590.59997558594</ele>
        <time>2019-10-11T06:34:57Z</time>
      </trkpt>
      <trkpt lat="44.3521" lon="5.75607">
        <ele>589.79998779297</ele>
        <time>2019-10-11T06:35:09Z</time>
      </trkpt>
      <trkpt lat="44.35133" lon="5.7568">
        <ele>588.79998779297</ele>
        <time>2019-10-11T06:35:24Z</time>
      </trkpt>
      <trkpt lat="44.35086" lon="5.75726">
        <ele>589</ele>
        <time>2019-10-11T06:35:34Z</time>
      </trkpt>
      <trkpt lat="44.35027" lon="5.7578">
        <ele>588.79998779297</ele>
        <time>2019-10-11T06:35:46Z</time>
      </trkpt>
      <trkpt lat="44.34981" lon="5.75814">
        <ele>588.20001220703</ele>
        <time>2019-10-11T06:35:55Z</time>
      </trkpt>
      <trkpt lat="44.34917" lon="5.75869">
        <ele>587.79998779297</ele>
        <time>2019-10-11T06:36:08Z</time>
      </trkpt>
      <trkpt lat="44.34787" lon="5.7597">
        <ele>587</ele>
        <time>2019-10-11T06:36:33Z</time>
      </trkpt>
      <trkpt lat="44.34711" lon="5.76032">
        <ele>586.79998779297</ele>
        <time>2019-10-11T06:36:49Z</time>
      </trkpt>
      <trkpt lat="44.34667" lon="5.76063">
        <ele>587.40002441406</ele>
        <time>2019-10-11T06:37:01Z</time>
      </trkpt>
      <trkpt lat="44.34634" lon="5.76079">
        <ele>589.79998779297</ele>
        <time>2019-10-11T06:37:12Z</time>
      </trkpt>
      <trkpt lat="44.34595" lon="5.76103">
        <ele>591.40002441406</ele>
        <time>2019-10-11T06:37:26Z</time>
      </trkpt>
      <trkpt lat="44.34571" lon="5.76122">
        <ele>593.40002441406</ele>
        <time>2019-10-11T06:37:34Z</time>
      </trkpt>
      <trkpt lat="44.3452" lon="5.76158">
        <ele>595.40002441406</ele>
        <time>2019-10-11T06:37:50Z</time>
      </trkpt>
      <trkpt lat="44.34489" lon="5.76184">
        <ele>595.79998779297</ele>
        <time>2019-10-11T06:37:59Z</time>
      </trkpt>
      <trkpt lat="44.34463" lon="5.762">
        <ele>595.59997558594</ele>
        <time>2019-10-11T06:38:05Z</time>
      </trkpt>
      <trkpt lat="44.34438" lon="5.7621">
        <ele>595.20001220703</ele>
        <time>2019-10-11T06:38:09Z</time>
      </trkpt>
      <trkpt lat="44.34418" lon="5.76211">
        <ele>594.40002441406</ele>
        <time>2019-10-11T06:38:12Z</time>
      </trkpt>
      <trkpt lat="44.34403" lon="5.7621">
        <ele>593.79998779297</ele>
        <time>2019-10-11T06:38:15Z</time>
      </trkpt>
      <trkpt lat="44.34391" lon="5.76204">
        <ele>592.40002441406</ele>
        <time>2019-10-11T06:38:19Z</time>
      </trkpt>
      <trkpt lat="44.34391" lon="5.76204">
        <ele>590.40002441406</ele>
        <time>2019-10-11T06:38:34Z</time>
      </trkpt>
      <trkpt lat="44.34398" lon="5.76208">
        <ele>593.20001220703</ele>
        <time>2019-10-11T06:45:15Z</time>
      </trkpt>
      <trkpt lat="44.34366" lon="5.76194">
        <ele>593</ele>
        <time>2019-10-11T06:45:22Z</time>
      </trkpt>
      <trkpt lat="44.34327" lon="5.76171">
        <ele>591.20001220703</ele>
        <time>2019-10-11T06:45:30Z</time>
      </trkpt>
      <trkpt lat="44.34264" lon="5.76149">
        <ele>590.79998779297</ele>
        <time>2019-10-11T06:45:42Z</time>
      </trkpt>
      <trkpt lat="44.34235" lon="5.76146">
        <ele>591.79998779297</ele>
        <time>2019-10-11T06:45:50Z</time>
      </trkpt>
      <trkpt lat="44.34208" lon="5.76175">
        <ele>593.20001220703</ele>
        <time>2019-10-11T06:45:59Z</time>
      </trkpt>
      <trkpt lat="44.34182" lon="5.76207">
        <ele>593.20001220703</ele>
        <time>2019-10-11T06:46:07Z</time>
      </trkpt>
      <trkpt lat="44.34161" lon="5.7627">
        <ele>592.40002441406</ele>
        <time>2019-10-11T06:46:15Z</time>
      </trkpt>
      <trkpt lat="44.34156" lon="5.76287">
        <ele>592</ele>
        <time>2019-10-11T06:46:17Z</time>
      </trkpt>
      <trkpt lat="44.34144" lon="5.7633">
        <ele>590.59997558594</ele>
        <time>2019-10-11T06:46:22Z</time>
      </trkpt>
      <trkpt lat="44.34138" lon="5.76354">
        <ele>589.59997558594</ele>
        <time>2019-10-11T06:46:26Z</time>
      </trkpt>
      <trkpt lat="44.34127" lon="5.76383">
        <ele>588.40002441406</ele>
        <time>2019-10-11T06:46:33Z</time>
      </trkpt>
      <trkpt lat="44.34114" lon="5.76347">
        <ele>588.40002441406</ele>
        <time>2019-10-11T06:46:41Z</time>
      </trkpt>
      <trkpt lat="44.34107" lon="5.76326">
        <ele>588.40002441406</ele>
        <time>2019-10-11T06:46:45Z</time>
      </trkpt>
      <trkpt lat="44.34085" lon="5.7628">
        <ele>589.40002441406</ele>
        <time>2019-10-11T06:46:55Z</time>
      </trkpt>
      <trkpt lat="44.34073" lon="5.76253">
        <ele>590.20001220703</ele>
        <time>2019-10-11T06:47:00Z</time>
      </trkpt>
      <trkpt lat="44.34055" lon="5.76219">
        <ele>591.20001220703</ele>
        <time>2019-10-11T06:47:09Z</time>
      </trkpt>
      <trkpt lat="44.34037" lon="5.76183">
        <ele>592</ele>
        <time>2019-10-11T06:47:18Z</time>
      </trkpt>
      <trkpt lat="44.34016" lon="5.76141">
        <ele>592.59997558594</ele>
        <time>2019-10-11T06:47:30Z</time>
      </trkpt>
      <trkpt lat="44.33999" lon="5.76104">
        <ele>592.59997558594</ele>
        <time>2019-10-11T06:47:38Z</time>
      </trkpt>
      <trkpt lat="44.33963" lon="5.7603">
        <ele>593.40002441406</ele>
        <time>2019-10-11T06:47:55Z</time>
      </trkpt>
      <trkpt lat="44.33944" lon="5.75991">
        <ele>593.59997558594</ele>
        <time>2019-10-11T06:48:04Z</time>
      </trkpt>
      <trkpt lat="44.33911" lon="5.75923">
        <ele>594.59997558594</ele>
        <time>2019-10-11T06:48:21Z</time>
      </trkpt>
      <trkpt lat="44.33897" lon="5.75894">
        <ele>595.20001220703</ele>
        <time>2019-10-11T06:48:28Z</time>
      </trkpt>
      <trkpt lat="44.33869" lon="5.75841">
        <ele>596.20001220703</ele>
        <time>2019-10-11T06:48:39Z</time>
      </trkpt>
      <trkpt lat="44.33804" lon="5.75755">
        <ele>598.20001220703</ele>
        <time>2019-10-11T06:49:00Z</time>
      </trkpt>
      <trkpt lat="44.33766" lon="5.75714">
        <ele>598.59997558594</ele>
        <time>2019-10-11T06:49:11Z</time>
      </trkpt>
      <trkpt lat="44.33705" lon="5.75631">
        <ele>599.20001220703</ele>
        <time>2019-10-11T06:49:30Z</time>
      </trkpt>
      <trkpt lat="44.33684" lon="5.75586">
        <ele>598.79998779297</ele>
        <time>2019-10-11T06:49:38Z</time>
      </trkpt>
      <trkpt lat="44.33645" lon="5.755">
        <ele>598.79998779297</ele>
        <time>2019-10-11T06:49:53Z</time>
      </trkpt>
      <trkpt lat="44.33614" lon="5.75473">
        <ele>599</ele>
        <time>2019-10-11T06:50:01Z</time>
      </trkpt>
      <trkpt lat="44.33575" lon="5.75433">
        <ele>599.79998779297</ele>
        <time>2019-10-11T06:50:12Z</time>
      </trkpt>
      <trkpt lat="44.33535" lon="5.75387">
        <ele>601.79998779297</ele>
        <time>2019-10-11T06:50:27Z</time>
      </trkpt>
      <trkpt lat="44.33501" lon="5.75347">
        <ele>604.20001220703</ele>
        <time>2019-10-11T06:50:43Z</time>
      </trkpt>
      <trkpt lat="44.33485" lon="5.75329">
        <ele>605</ele>
        <time>2019-10-11T06:50:50Z</time>
      </trkpt>
      <trkpt lat="44.33438" lon="5.75276">
        <ele>607.59997558594</ele>
        <time>2019-10-11T06:51:09Z</time>
      </trkpt>
      <trkpt lat="44.33399" lon="5.75242">
        <ele>608.59997558594</ele>
        <time>2019-10-11T06:51:22Z</time>
      </trkpt>
      <trkpt lat="44.33353" lon="5.75207">
        <ele>609.40002441406</ele>
        <time>2019-10-11T06:51:35Z</time>
      </trkpt>
      <trkpt lat="44.33265" lon="5.75145">
        <ele>608.40002441406</ele>
        <time>2019-10-11T06:51:54Z</time>
      </trkpt>
      <trkpt lat="44.33213" lon="5.75108">
        <ele>608</ele>
        <time>2019-10-11T06:52:05Z</time>
      </trkpt>
      <trkpt lat="44.33185" lon="5.75089">
        <ele>609.20001220703</ele>
        <time>2019-10-11T06:52:13Z</time>
      </trkpt>
      <trkpt lat="44.33152" lon="5.75065">
        <ele>610.79998779297</ele>
        <time>2019-10-11T06:52:24Z</time>
      </trkpt>
      <trkpt lat="44.33118" lon="5.75017">
        <ele>612.79998779297</ele>
        <time>2019-10-11T06:52:40Z</time>
      </trkpt>
      <trkpt lat="44.33104" lon="5.74985">
        <ele>613.59997558594</ele>
        <time>2019-10-11T06:52:48Z</time>
      </trkpt>
      <trkpt lat="44.33058" lon="5.74877">
        <ele>614.59997558594</ele>
        <time>2019-10-11T06:53:11Z</time>
      </trkpt>
      <trkpt lat="44.33031" lon="5.74843">
        <ele>615.20001220703</ele>
        <time>2019-10-11T06:53:20Z</time>
      </trkpt>
      <trkpt lat="44.3295" lon="5.74756">
        <ele>615.59997558594</ele>
        <time>2019-10-11T06:53:44Z</time>
      </trkpt>
      <trkpt lat="44.32921" lon="5.74725">
        <ele>616</ele>
        <time>2019-10-11T06:53:52Z</time>
      </trkpt>
      <trkpt lat="44.32875" lon="5.74676">
        <ele>616.40002441406</ele>
        <time>2019-10-11T06:54:05Z</time>
      </trkpt>
      <trkpt lat="44.32843" lon="5.74643">
        <ele>617.40002441406</ele>
        <time>2019-10-11T06:54:15Z</time>
      </trkpt>
      <trkpt lat="44.32803" lon="5.74604">
        <ele>618.20001220703</ele>
        <time>2019-10-11T06:54:30Z</time>
      </trkpt>
      <trkpt lat="44.32799" lon="5.74601">
        <ele>618.20001220703</ele>
        <time>2019-10-11T06:54:33Z</time>
      </trkpt>
      <trkpt lat="44.32793" lon="5.74596">
        <ele>618.40002441406</ele>
        <time>2019-10-11T06:54:41Z</time>
      </trkpt>
      <trkpt lat="44.32791" lon="5.74594">
        <ele>617.40002441406</ele>
        <time>2019-10-11T06:58:54Z</time>
      </trkpt>
      <trkpt lat="44.32799" lon="5.74601">
        <ele>617.59997558594</ele>
        <time>2019-10-11T06:59:01Z</time>
      </trkpt>
      <trkpt lat="44.32772" lon="5.74578">
        <ele>617.40002441406</ele>
        <time>2019-10-11T06:59:12Z</time>
      </trkpt>
      <trkpt lat="44.32734" lon="5.74553">
        <ele>617.20001220703</ele>
        <time>2019-10-11T06:59:22Z</time>
      </trkpt>
      <trkpt lat="44.32699" lon="5.74529">
        <ele>617.59997558594</ele>
        <time>2019-10-11T06:59:32Z</time>
      </trkpt>
      <trkpt lat="44.32685" lon="5.74514">
        <ele>618</ele>
        <time>2019-10-11T06:59:37Z</time>
      </trkpt>
      <trkpt lat="44.32665" lon="5.74488">
        <ele>619.40002441406</ele>
        <time>2019-10-11T06:59:45Z</time>
      </trkpt>
      <trkpt lat="44.32643" lon="5.74457">
        <ele>620.40002441406</ele>
        <time>2019-10-11T06:59:54Z</time>
      </trkpt>
      <trkpt lat="44.32576" lon="5.74365">
        <ele>622.59997558594</ele>
        <time>2019-10-11T07:00:18Z</time>
      </trkpt>
      <trkpt lat="44.32532" lon="5.74308">
        <ele>623</ele>
        <time>2019-10-11T07:00:32Z</time>
      </trkpt>
      <trkpt lat="44.32465" lon="5.74222">
        <ele>623.79998779297</ele>
        <time>2019-10-11T07:00:52Z</time>
      </trkpt>
      <trkpt lat="44.32446" lon="5.74192">
        <ele>623.79998779297</ele>
        <time>2019-10-11T07:00:58Z</time>
      </trkpt>
      <trkpt lat="44.32432" lon="5.74163">
        <ele>623.79998779297</ele>
        <time>2019-10-11T07:01:02Z</time>
      </trkpt>
      <trkpt lat="44.32402" lon="5.74101">
        <ele>622.59997558594</ele>
        <time>2019-10-11T07:01:10Z</time>
      </trkpt>
      <trkpt lat="44.32367" lon="5.74034">
        <ele>621</ele>
        <time>2019-10-11T07:01:19Z</time>
      </trkpt>
      <trkpt lat="44.32344" lon="5.73991">
        <ele>621.20001220703</ele>
        <time>2019-10-11T07:01:27Z</time>
      </trkpt>
      <trkpt lat="44.32332" lon="5.73967">
        <ele>622.40002441406</ele>
        <time>2019-10-11T07:01:33Z</time>
      </trkpt>
      <trkpt lat="44.32309" lon="5.73923">
        <ele>624</ele>
        <time>2019-10-11T07:01:44Z</time>
      </trkpt>
      <trkpt lat="44.32291" lon="5.7388">
        <ele>625.59997558594</ele>
        <time>2019-10-11T07:01:55Z</time>
      </trkpt>
      <trkpt lat="44.3225" lon="5.73763">
        <ele>627</ele>
        <time>2019-10-11T07:02:18Z</time>
      </trkpt>
      <trkpt lat="44.32227" lon="5.73698">
        <ele>627.79998779297</ele>
        <time>2019-10-11T07:02:30Z</time>
      </trkpt>
      <trkpt lat="44.32189" lon="5.73591">
        <ele>628.20001220703</ele>
        <time>2019-10-11T07:02:49Z</time>
      </trkpt>
      <trkpt lat="44.32166" lon="5.73525">
        <ele>629.40002441406</ele>
        <time>2019-10-11T07:03:00Z</time>
      </trkpt>
      <trkpt lat="44.32133" lon="5.73431">
        <ele>630.59997558594</ele>
        <time>2019-10-11T07:03:16Z</time>
      </trkpt>
      <trkpt lat="44.32106" lon="5.73356">
        <ele>631.20001220703</ele>
        <time>2019-10-11T07:03:29Z</time>
      </trkpt>
      <trkpt lat="44.32083" lon="5.73287">
        <ele>631</ele>
        <time>2019-10-11T07:03:39Z</time>
      </trkpt>
      <trkpt lat="44.32061" lon="5.73164">
        <ele>631</ele>
        <time>2019-10-11T07:03:56Z</time>
      </trkpt>
      <trkpt lat="44.32054" lon="5.73106">
        <ele>631.79998779297</ele>
        <time>2019-10-11T07:04:05Z</time>
      </trkpt>
      <trkpt lat="44.3204" lon="5.73">
        <ele>632.79998779297</ele>
        <time>2019-10-11T07:04:21Z</time>
      </trkpt>
      <trkpt lat="44.32031" lon="5.72928">
        <ele>633</ele>
        <time>2019-10-11T07:04:32Z</time>
      </trkpt>
      <trkpt lat="44.32016" lon="5.72815">
        <ele>633.59997558594</ele>
        <time>2019-10-11T07:04:50Z</time>
      </trkpt>
      <trkpt lat="44.32011" lon="5.72771">
        <ele>634.59997558594</ele>
        <time>2019-10-11T07:04:58Z</time>
      </trkpt>
      <trkpt lat="44.31999" lon="5.72684">
        <ele>636.59997558594</ele>
        <time>2019-10-11T07:05:15Z</time>
      </trkpt>
      <trkpt lat="44.31992" lon="5.72627">
        <ele>637.59997558594</ele>
        <time>2019-10-11T07:05:27Z</time>
      </trkpt>
      <trkpt lat="44.31968" lon="5.7253">
        <ele>639.40002441406</ele>
        <time>2019-10-11T07:05:45Z</time>
      </trkpt>
      <trkpt lat="44.31947" lon="5.72483">
        <ele>639.79998779297</ele>
        <time>2019-10-11T07:05:54Z</time>
      </trkpt>
      <trkpt lat="44.31911" lon="5.72401">
        <ele>640.20001220703</ele>
        <time>2019-10-11T07:06:09Z</time>
      </trkpt>
      <trkpt lat="44.31893" lon="5.7236">
        <ele>640.79998779297</ele>
        <time>2019-10-11T07:06:18Z</time>
      </trkpt>
      <trkpt lat="44.31872" lon="5.72293">
        <ele>642.59997558594</ele>
        <time>2019-10-11T07:06:33Z</time>
      </trkpt>
      <trkpt lat="44.31855" lon="5.72211">
        <ele>643.40002441406</ele>
        <time>2019-10-11T07:06:47Z</time>
      </trkpt>
      <trkpt lat="44.31832" lon="5.72121">
        <ele>644.20001220703</ele>
        <time>2019-10-11T07:07:02Z</time>
      </trkpt>
      <trkpt lat="44.31781" lon="5.71968">
        <ele>645.40002441406</ele>
        <time>2019-10-11T07:07:29Z</time>
      </trkpt>
      <trkpt lat="44.31767" lon="5.71914">
        <ele>645.59997558594</ele>
        <time>2019-10-11T07:07:38Z</time>
      </trkpt>
      <trkpt lat="44.31756" lon="5.71829">
        <ele>645.59997558594</ele>
        <time>2019-10-11T07:07:52Z</time>
      </trkpt>
      <trkpt lat="44.31755" lon="5.71805">
        <ele>645.79998779297</ele>
        <time>2019-10-11T07:07:56Z</time>
      </trkpt>
      <trkpt lat="44.31751" lon="5.71746">
        <ele>647</ele>
        <time>2019-10-11T07:08:07Z</time>
      </trkpt>
      <trkpt lat="44.31738" lon="5.71691">
        <ele>648</ele>
        <time>2019-10-11T07:08:17Z</time>
      </trkpt>
      <trkpt lat="44.31697" lon="5.71624">
        <ele>648</ele>
        <time>2019-10-11T07:08:30Z</time>
      </trkpt>
      <trkpt lat="44.31654" lon="5.7152">
        <ele>647.40002441406</ele>
        <time>2019-10-11T07:08:48Z</time>
      </trkpt>
      <trkpt lat="44.31607" lon="5.71386">
        <ele>647.20001220703</ele>
        <time>2019-10-11T07:09:09Z</time>
      </trkpt>
      <trkpt lat="44.31595" lon="5.7133">
        <ele>647.79998779297</ele>
        <time>2019-10-11T07:09:19Z</time>
      </trkpt>
      <trkpt lat="44.31582" lon="5.71256">
        <ele>650.20001220703</ele>
        <time>2019-10-11T07:09:35Z</time>
      </trkpt>
      <trkpt lat="44.31575" lon="5.71214">
        <ele>651</ele>
        <time>2019-10-11T07:09:44Z</time>
      </trkpt>
      <trkpt lat="44.31562" lon="5.71159">
        <ele>652</ele>
        <time>2019-10-11T07:09:55Z</time>
      </trkpt>
      <trkpt lat="44.31543" lon="5.71087">
        <ele>653.20001220703</ele>
        <time>2019-10-11T07:10:10Z</time>
      </trkpt>
      <trkpt lat="44.31532" lon="5.71034">
        <ele>654.79998779297</ele>
        <time>2019-10-11T07:10:19Z</time>
      </trkpt>
      <trkpt lat="44.31544" lon="5.70911">
        <ele>656.40002441406</ele>
        <time>2019-10-11T07:10:40Z</time>
      </trkpt>
      <trkpt lat="44.31555" lon="5.70844">
        <ele>657</ele>
        <time>2019-10-11T07:10:51Z</time>
      </trkpt>
      <trkpt lat="44.31561" lon="5.70759">
        <ele>658.59997558594</ele>
        <time>2019-10-11T07:11:06Z</time>
      </trkpt>
      <trkpt lat="44.31559" lon="5.70735">
        <ele>659.59997558594</ele>
        <time>2019-10-11T07:11:11Z</time>
      </trkpt>
      <trkpt lat="44.31552" lon="5.70673">
        <ele>662</ele>
        <time>2019-10-11T07:11:24Z</time>
      </trkpt>
      <trkpt lat="44.31545" lon="5.70651">
        <ele>663</ele>
        <time>2019-10-11T07:11:29Z</time>
      </trkpt>
      <trkpt lat="44.31518" lon="5.70593">
        <ele>665.20001220703</ele>
        <time>2019-10-11T07:11:41Z</time>
      </trkpt>
      <trkpt lat="44.31498" lon="5.7055">
        <ele>666.40002441406</ele>
        <time>2019-10-11T07:11:51Z</time>
      </trkpt>
      <trkpt lat="44.31475" lon="5.70448">
        <ele>667.79998779297</ele>
        <time>2019-10-11T07:12:09Z</time>
      </trkpt>
      <trkpt lat="44.31459" lon="5.70409">
        <ele>668.40002441406</ele>
        <time>2019-10-11T07:12:17Z</time>
      </trkpt>
      <trkpt lat="44.3144" lon="5.70363">
        <ele>669.40002441406</ele>
        <time>2019-10-11T07:12:26Z</time>
      </trkpt>
      <trkpt lat="44.31425" lon="5.70305">
        <ele>670.59997558594</ele>
        <time>2019-10-11T07:12:38Z</time>
      </trkpt>
      <trkpt lat="44.31423" lon="5.70267">
        <ele>671.59997558594</ele>
        <time>2019-10-11T07:12:46Z</time>
      </trkpt>
      <trkpt lat="44.31418" lon="5.70202">
        <ele>673.79998779297</ele>
        <time>2019-10-11T07:12:59Z</time>
      </trkpt>
      <trkpt lat="44.31413" lon="5.70171">
        <ele>674.79998779297</ele>
        <time>2019-10-11T07:13:06Z</time>
      </trkpt>
      <trkpt lat="44.31387" lon="5.70098">
        <ele>676.79998779297</ele>
        <time>2019-10-11T07:13:22Z</time>
      </trkpt>
      <trkpt lat="44.31371" lon="5.70048">
        <ele>677.79998779297</ele>
        <time>2019-10-11T07:13:32Z</time>
      </trkpt>
      <trkpt lat="44.31356" lon="5.69958">
        <ele>678.40002441406</ele>
        <time>2019-10-11T07:13:47Z</time>
      </trkpt>
      <trkpt lat="44.31347" lon="5.69916">
        <ele>678</ele>
        <time>2019-10-11T07:13:53Z</time>
      </trkpt>
      <trkpt lat="44.31334" lon="5.69857">
        <ele>676.79998779297</ele>
        <time>2019-10-11T07:14:02Z</time>
      </trkpt>
      <trkpt lat="44.31323" lon="5.69798">
        <ele>676.59997558594</ele>
        <time>2019-10-11T07:14:11Z</time>
      </trkpt>
      <trkpt lat="44.31328" lon="5.69659">
        <ele>676.59997558594</ele>
        <time>2019-10-11T07:14:30Z</time>
      </trkpt>
      <trkpt lat="44.3133" lon="5.69618">
        <ele>676.79998779297</ele>
        <time>2019-10-11T07:14:36Z</time>
      </trkpt>
      <trkpt lat="44.31338" lon="5.69536">
        <ele>677.40002441406</ele>
        <time>2019-10-11T07:14:49Z</time>
      </trkpt>
      <trkpt lat="44.3135" lon="5.69481">
        <ele>677.20001220703</ele>
        <time>2019-10-11T07:14:58Z</time>
      </trkpt>
      <trkpt lat="44.31355" lon="5.69443">
        <ele>676.59997558594</ele>
        <time>2019-10-11T07:15:04Z</time>
      </trkpt>
      <trkpt lat="44.31359" lon="5.69411">
        <ele>676.40002441406</ele>
        <time>2019-10-11T07:15:09Z</time>
      </trkpt>
      <trkpt lat="44.31356" lon="5.69354">
        <ele>675.79998779297</ele>
        <time>2019-10-11T07:15:16Z</time>
      </trkpt>
      <trkpt lat="44.31352" lon="5.69291">
        <ele>675</ele>
        <time>2019-10-11T07:15:27Z</time>
      </trkpt>
      <trkpt lat="44.3135" lon="5.69269">
        <ele>674.59997558594</ele>
        <time>2019-10-11T07:15:32Z</time>
      </trkpt>
      <trkpt lat="44.3134" lon="5.69253">
        <ele>673.79998779297</ele>
        <time>2019-10-11T07:15:36Z</time>
      </trkpt>
      <trkpt lat="44.31328" lon="5.6924">
        <ele>673.79998779297</ele>
        <time>2019-10-11T07:15:39Z</time>
      </trkpt>
      <trkpt lat="44.31295" lon="5.692">
        <ele>671.59997558594</ele>
        <time>2019-10-11T07:15:47Z</time>
      </trkpt>
      <trkpt lat="44.31281" lon="5.69149">
        <ele>670.20001220703</ele>
        <time>2019-10-11T07:15:55Z</time>
      </trkpt>
      <trkpt lat="44.3128" lon="5.69118">
        <ele>669.79998779297</ele>
        <time>2019-10-11T07:16:00Z</time>
      </trkpt>
      <trkpt lat="44.3128" lon="5.69073">
        <ele>669.79998779297</ele>
        <time>2019-10-11T07:16:07Z</time>
      </trkpt>
      <trkpt lat="44.31283" lon="5.69031">
        <ele>670</ele>
        <time>2019-10-11T07:16:15Z</time>
      </trkpt>
      <trkpt lat="44.3129" lon="5.68988">
        <ele>671.20001220703</ele>
        <time>2019-10-11T07:16:24Z</time>
      </trkpt>
      <trkpt lat="44.31298" lon="5.68957">
        <ele>671.40002441406</ele>
        <time>2019-10-11T07:16:30Z</time>
      </trkpt>
      <trkpt lat="44.31348" lon="5.689">
        <ele>671.79998779297</ele>
        <time>2019-10-11T07:16:46Z</time>
      </trkpt>
      <trkpt lat="44.31387" lon="5.68873">
        <ele>672.20001220703</ele>
        <time>2019-10-11T07:16:59Z</time>
      </trkpt>
      <trkpt lat="44.31443" lon="5.68835">
        <ele>673</ele>
        <time>2019-10-11T07:17:15Z</time>
      </trkpt>
      <trkpt lat="44.31462" lon="5.68804">
        <ele>673.20001220703</ele>
        <time>2019-10-11T07:17:24Z</time>
      </trkpt>
      <trkpt lat="44.31476" lon="5.68764">
        <ele>674.79998779297</ele>
        <time>2019-10-11T07:17:35Z</time>
      </trkpt>
      <trkpt lat="44.31489" lon="5.68699">
        <ele>676</ele>
        <time>2019-10-11T07:17:50Z</time>
      </trkpt>
      <trkpt lat="44.31486" lon="5.68617">
        <ele>677</ele>
        <time>2019-10-11T07:18:07Z</time>
      </trkpt>
      <trkpt lat="44.3149" lon="5.68571">
        <ele>678</ele>
        <time>2019-10-11T07:18:16Z</time>
      </trkpt>
      <trkpt lat="44.31494" lon="5.68497">
        <ele>678.20001220703</ele>
        <time>2019-10-11T07:18:29Z</time>
      </trkpt>
      <trkpt lat="44.31492" lon="5.68486">
        <ele>678.20001220703</ele>
        <time>2019-10-11T07:18:31Z</time>
      </trkpt>
      <trkpt lat="44.31465" lon="5.68424">
        <ele>679</ele>
        <time>2019-10-11T07:18:43Z</time>
      </trkpt>
      <trkpt lat="44.31434" lon="5.68359">
        <ele>680.40002441406</ele>
        <time>2019-10-11T07:18:57Z</time>
      </trkpt>
      <trkpt lat="44.31417" lon="5.68319">
        <ele>680.59997558594</ele>
        <time>2019-10-11T07:19:05Z</time>
      </trkpt>
      <trkpt lat="44.31398" lon="5.68203">
        <ele>681.40002441406</ele>
        <time>2019-10-11T07:19:24Z</time>
      </trkpt>
      <trkpt lat="44.31402" lon="5.68146">
        <ele>682</ele>
        <time>2019-10-11T07:19:34Z</time>
      </trkpt>
      <trkpt lat="44.31404" lon="5.68105">
        <ele>682.59997558594</ele>
        <time>2019-10-11T07:19:42Z</time>
      </trkpt>
      <trkpt lat="44.31408" lon="5.68044">
        <ele>682.59997558594</ele>
        <time>2019-10-11T07:19:51Z</time>
      </trkpt>
      <trkpt lat="44.31411" lon="5.67882">
        <ele>681.59997558594</ele>
        <time>2019-10-11T07:20:12Z</time>
      </trkpt>
      <trkpt lat="44.31406" lon="5.67793">
        <ele>682</ele>
        <time>2019-10-11T07:20:24Z</time>
      </trkpt>
      <trkpt lat="44.31396" lon="5.6765">
        <ele>684.20001220703</ele>
        <time>2019-10-11T07:20:44Z</time>
      </trkpt>
      <trkpt lat="44.31384" lon="5.67543">
        <ele>684</ele>
        <time>2019-10-11T07:20:59Z</time>
      </trkpt>
      <trkpt lat="44.3137" lon="5.67499">
        <ele>684.20001220703</ele>
        <time>2019-10-11T07:21:07Z</time>
      </trkpt>
      <trkpt lat="44.31354" lon="5.67467">
        <ele>685.40002441406</ele>
        <time>2019-10-11T07:21:14Z</time>
      </trkpt>
      <trkpt lat="44.3133" lon="5.67418">
        <ele>687.20001220703</ele>
        <time>2019-10-11T07:21:25Z</time>
      </trkpt>
      <trkpt lat="44.31293" lon="5.67347">
        <ele>688.59997558594</ele>
        <time>2019-10-11T07:21:41Z</time>
      </trkpt>
      <trkpt lat="44.31247" lon="5.67284">
        <ele>689</ele>
        <time>2019-10-11T07:21:55Z</time>
      </trkpt>
      <trkpt lat="44.31192" lon="5.67221">
        <ele>690.40002441406</ele>
        <time>2019-10-11T07:22:11Z</time>
      </trkpt>
      <trkpt lat="44.31149" lon="5.67183">
        <ele>692.40002441406</ele>
        <time>2019-10-11T07:22:23Z</time>
      </trkpt>
      <trkpt lat="44.31091" lon="5.67148">
        <ele>692.79998779297</ele>
        <time>2019-10-11T07:22:37Z</time>
      </trkpt>
      <trkpt lat="44.31035" lon="5.67103">
        <ele>693</ele>
        <time>2019-10-11T07:22:51Z</time>
      </trkpt>
      <trkpt lat="44.30989" lon="5.67043">
        <ele>693.40002441406</ele>
        <time>2019-10-11T07:23:05Z</time>
      </trkpt>
      <trkpt lat="44.30968" lon="5.6701">
        <ele>693.59997558594</ele>
        <time>2019-10-11T07:23:12Z</time>
      </trkpt>
      <trkpt lat="44.3093" lon="5.66941">
        <ele>695</ele>
        <time>2019-10-11T07:23:26Z</time>
      </trkpt>
      <trkpt lat="44.30903" lon="5.66897">
        <ele>696</ele>
        <time>2019-10-11T07:23:36Z</time>
      </trkpt>
      <trkpt lat="44.30851" lon="5.66826">
        <ele>698</ele>
        <time>2019-10-11T07:23:54Z</time>
      </trkpt>
      <trkpt lat="44.30799" lon="5.66774">
        <ele>699.79998779297</ele>
        <time>2019-10-11T07:24:10Z</time>
      </trkpt>
      <trkpt lat="44.30747" lon="5.66732">
        <ele>700</ele>
        <time>2019-10-11T07:24:23Z</time>
      </trkpt>
      <trkpt lat="44.30697" lon="5.66712">
        <ele>700</ele>
        <time>2019-10-11T07:24:33Z</time>
      </trkpt>
      <trkpt lat="44.30659" lon="5.66677">
        <ele>700</ele>
        <time>2019-10-11T07:24:42Z</time>
      </trkpt>
      <trkpt lat="44.30596" lon="5.66596">
        <ele>700</ele>
        <time>2019-10-11T07:24:59Z</time>
      </trkpt>
      <trkpt lat="44.30559" lon="5.6656">
        <ele>701.20001220703</ele>
        <time>2019-10-11T07:25:09Z</time>
      </trkpt>
      <trkpt lat="44.30523" lon="5.66543">
        <ele>701.59997558594</ele>
        <time>2019-10-11T07:25:17Z</time>
      </trkpt>
      <trkpt lat="44.30469" lon="5.66548">
        <ele>701.59997558594</ele>
        <time>2019-10-11T07:25:27Z</time>
      </trkpt>
      <trkpt lat="44.30418" lon="5.66547">
        <ele>701.40002441406</ele>
        <time>2019-10-11T07:25:37Z</time>
      </trkpt>
      <trkpt lat="44.30402" lon="5.66536">
        <ele>701.59997558594</ele>
        <time>2019-10-11T07:25:41Z</time>
      </trkpt>
      <trkpt lat="44.30364" lon="5.66505">
        <ele>703</ele>
        <time>2019-10-11T07:25:52Z</time>
      </trkpt>
      <trkpt lat="44.30345" lon="5.66487">
        <ele>703.79998779297</ele>
        <time>2019-10-11T07:25:59Z</time>
      </trkpt>
      <trkpt lat="44.30304" lon="5.66427">
        <ele>706.40002441406</ele>
        <time>2019-10-11T07:26:16Z</time>
      </trkpt>
      <trkpt lat="44.30293" lon="5.66387">
        <ele>707.40002441406</ele>
        <time>2019-10-11T07:26:25Z</time>
      </trkpt>
      <trkpt lat="44.30283" lon="5.6633">
        <ele>708.79998779297</ele>
        <time>2019-10-11T07:26:38Z</time>
      </trkpt>
      <trkpt lat="44.30279" lon="5.66301">
        <ele>710</ele>
        <time>2019-10-11T07:26:46Z</time>
      </trkpt>
      <trkpt lat="44.30258" lon="5.66242">
        <ele>712.59997558594</ele>
        <time>2019-10-11T07:27:03Z</time>
      </trkpt>
      <trkpt lat="44.3024" lon="5.66209">
        <ele>713.40002441406</ele>
        <time>2019-10-11T07:27:12Z</time>
      </trkpt>
      <trkpt lat="44.3022" lon="5.66173">
        <ele>714.59997558594</ele>
        <time>2019-10-11T07:27:22Z</time>
      </trkpt>
      <trkpt lat="44.30177" lon="5.66075">
        <ele>716.59997558594</ele>
        <time>2019-10-11T07:27:45Z</time>
      </trkpt>
      <trkpt lat="44.30167" lon="5.66026">
        <ele>717.20001220703</ele>
        <time>2019-10-11T07:27:54Z</time>
      </trkpt>
      <trkpt lat="44.30141" lon="5.65942">
        <ele>718.40002441406</ele>
        <time>2019-10-11T07:28:09Z</time>
      </trkpt>
      <trkpt lat="44.30117" lon="5.65888">
        <ele>719.59997558594</ele>
        <time>2019-10-11T07:28:19Z</time>
      </trkpt>
      <trkpt lat="44.30088" lon="5.65815">
        <ele>721.40002441406</ele>
        <time>2019-10-11T07:28:35Z</time>
      </trkpt>
      <trkpt lat="44.30071" lon="5.65765">
        <ele>723</ele>
        <time>2019-10-11T07:28:46Z</time>
      </trkpt>
      <trkpt lat="44.30041" lon="5.65673">
        <ele>725</ele>
        <time>2019-10-11T07:29:05Z</time>
      </trkpt>
      <trkpt lat="44.30029" lon="5.65639">
        <ele>725.59997558594</ele>
        <time>2019-10-11T07:29:12Z</time>
      </trkpt>
      <trkpt lat="44.2999" lon="5.65542">
        <ele>728</ele>
        <time>2019-10-11T07:29:33Z</time>
      </trkpt>
      <trkpt lat="44.29963" lon="5.65475">
        <ele>729.20001220703</ele>
        <time>2019-10-11T07:29:47Z</time>
      </trkpt>
      <trkpt lat="44.29931" lon="5.65398">
        <ele>730.79998779297</ele>
        <time>2019-10-11T07:30:03Z</time>
      </trkpt>
      <trkpt lat="44.29909" lon="5.65346">
        <ele>731.40002441406</ele>
        <time>2019-10-11T07:30:14Z</time>
      </trkpt>
      <trkpt lat="44.29875" lon="5.6526">
        <ele>733.40002441406</ele>
        <time>2019-10-11T07:30:32Z</time>
      </trkpt>
      <trkpt lat="44.29835" lon="5.65173">
        <ele>735.20001220703</ele>
        <time>2019-10-11T07:30:50Z</time>
      </trkpt>
      <trkpt lat="44.29808" lon="5.65108">
        <ele>736.20001220703</ele>
        <time>2019-10-11T07:31:03Z</time>
      </trkpt>
      <trkpt lat="44.29762" lon="5.64998">
        <ele>737.40002441406</ele>
        <time>2019-10-11T07:31:24Z</time>
      </trkpt>
      <trkpt lat="44.29737" lon="5.64945">
        <ele>737.59997558594</ele>
        <time>2019-10-11T07:31:34Z</time>
      </trkpt>
      <trkpt lat="44.29689" lon="5.6482">
        <ele>739</ele>
        <time>2019-10-11T07:31:56Z</time>
      </trkpt>
      <trkpt lat="44.29677" lon="5.64773">
        <ele>739.40002441406</ele>
        <time>2019-10-11T07:32:04Z</time>
      </trkpt>
      <trkpt lat="44.29681" lon="5.64708">
        <ele>739.40002441406</ele>
        <time>2019-10-11T07:32:14Z</time>
      </trkpt>
      <trkpt lat="44.29679" lon="5.6468">
        <ele>739.20001220703</ele>
        <time>2019-10-11T07:32:18Z</time>
      </trkpt>
      <trkpt lat="44.29641" lon="5.6464">
        <ele>738.59997558594</ele>
        <time>2019-10-11T07:32:29Z</time>
      </trkpt>
      <trkpt lat="44.29631" lon="5.64622">
        <ele>739</ele>
        <time>2019-10-11T07:32:33Z</time>
      </trkpt>
      <trkpt lat="44.29618" lon="5.64579">
        <ele>740</ele>
        <time>2019-10-11T07:32:40Z</time>
      </trkpt>
      <trkpt lat="44.29609" lon="5.64531">
        <ele>740.40002441406</ele>
        <time>2019-10-11T07:32:48Z</time>
      </trkpt>
      <trkpt lat="44.296" lon="5.64488">
        <ele>741</ele>
        <time>2019-10-11T07:32:55Z</time>
      </trkpt>
      <trkpt lat="44.29573" lon="5.64406">
        <ele>741.79998779297</ele>
        <time>2019-10-11T07:33:09Z</time>
      </trkpt>
      <trkpt lat="44.29534" lon="5.64315">
        <ele>742.79998779297</ele>
        <time>2019-10-11T07:33:24Z</time>
      </trkpt>
      <trkpt lat="44.29506" lon="5.64258">
        <ele>742.59997558594</ele>
        <time>2019-10-11T07:33:34Z</time>
      </trkpt>
      <trkpt lat="44.29486" lon="5.64229">
        <ele>742.59997558594</ele>
        <time>2019-10-11T07:33:39Z</time>
      </trkpt>
      <trkpt lat="44.29468" lon="5.64199">
        <ele>741.59997558594</ele>
        <time>2019-10-11T07:33:45Z</time>
      </trkpt>
      <trkpt lat="44.29457" lon="5.64162">
        <ele>741.59997558594</ele>
        <time>2019-10-11T07:33:51Z</time>
      </trkpt>
      <trkpt lat="44.29446" lon="5.64066">
        <ele>740.59997558594</ele>
        <time>2019-10-11T07:34:04Z</time>
      </trkpt>
      <trkpt lat="44.29429" lon="5.64015">
        <ele>739.79998779297</ele>
        <time>2019-10-11T07:34:11Z</time>
      </trkpt>
      <trkpt lat="44.29348" lon="5.63896">
        <ele>739.79998779297</ele>
        <time>2019-10-11T07:34:31Z</time>
      </trkpt>
      <trkpt lat="44.29298" lon="5.63825">
        <ele>739.79998779297</ele>
        <time>2019-10-11T07:34:43Z</time>
      </trkpt>
      <trkpt lat="44.29273" lon="5.63756">
        <ele>739.79998779297</ele>
        <time>2019-10-11T07:34:54Z</time>
      </trkpt>
      <trkpt lat="44.29273" lon="5.63678">
        <ele>740.40002441406</ele>
        <time>2019-10-11T07:35:05Z</time>
      </trkpt>
      <trkpt lat="44.29262" lon="5.63624">
        <ele>741.20001220703</ele>
        <time>2019-10-11T07:35:14Z</time>
      </trkpt>
      <trkpt lat="44.29251" lon="5.63608">
        <ele>741.40002441406</ele>
        <time>2019-10-11T07:35:17Z</time>
      </trkpt>
      <trkpt lat="44.29213" lon="5.63545">
        <ele>742.40002441406</ele>
        <time>2019-10-11T07:35:29Z</time>
      </trkpt>
      <trkpt lat="44.29165" lon="5.63438">
        <ele>743.40002441406</ele>
        <time>2019-10-11T07:35:48Z</time>
      </trkpt>
      <trkpt lat="44.29156" lon="5.63383">
        <ele>744.40002441406</ele>
        <time>2019-10-11T07:35:57Z</time>
      </trkpt>
      <trkpt lat="44.29147" lon="5.63257">
        <ele>746.20001220703</ele>
        <time>2019-10-11T07:36:17Z</time>
      </trkpt>
      <trkpt lat="44.29156" lon="5.63195">
        <ele>746.59997558594</ele>
        <time>2019-10-11T07:36:27Z</time>
      </trkpt>
      <trkpt lat="44.29158" lon="5.63095">
        <ele>748.40002441406</ele>
        <time>2019-10-11T07:36:45Z</time>
      </trkpt>
      <trkpt lat="44.29155" lon="5.63049">
        <ele>749.79998779297</ele>
        <time>2019-10-11T07:36:54Z</time>
      </trkpt>
      <trkpt lat="44.29149" lon="5.6296">
        <ele>751.59997558594</ele>
        <time>2019-10-11T07:37:13Z</time>
      </trkpt>
      <trkpt lat="44.29138" lon="5.62889">
        <ele>753.40002441406</ele>
        <time>2019-10-11T07:37:27Z</time>
      </trkpt>
      <trkpt lat="44.29125" lon="5.62848">
        <ele>753.79998779297</ele>
        <time>2019-10-11T07:37:35Z</time>
      </trkpt>
      <trkpt lat="44.29099" lon="5.6281">
        <ele>754.79998779297</ele>
        <time>2019-10-11T07:37:44Z</time>
      </trkpt>
      <trkpt lat="44.2907" lon="5.62767">
        <ele>756.59997558594</ele>
        <time>2019-10-11T07:37:55Z</time>
      </trkpt>
      <trkpt lat="44.29041" lon="5.62696">
        <ele>757.79998779297</ele>
        <time>2019-10-11T07:38:08Z</time>
      </trkpt>
      <trkpt lat="44.29026" lon="5.6266">
        <ele>758</ele>
        <time>2019-10-11T07:38:14Z</time>
      </trkpt>
      <trkpt lat="44.2898" lon="5.62533">
        <ele>759</ele>
        <time>2019-10-11T07:38:35Z</time>
      </trkpt>
      <trkpt lat="44.28971" lon="5.62479">
        <ele>759.59997558594</ele>
        <time>2019-10-11T07:38:44Z</time>
      </trkpt>
      <trkpt lat="44.28956" lon="5.62412">
        <ele>760.40002441406</ele>
        <time>2019-10-11T07:38:57Z</time>
      </trkpt>
      <trkpt lat="44.28942" lon="5.62358">
        <ele>761</ele>
        <time>2019-10-11T07:39:09Z</time>
      </trkpt>
      <trkpt lat="44.28945" lon="5.62371">
        <ele>760.59997558594</ele>
        <time>2019-10-11T08:02:19Z</time>
      </trkpt>
      <trkpt lat="44.28946" lon="5.62365">
        <ele>760.59997558594</ele>
        <time>2019-10-11T08:02:23Z</time>
      </trkpt>
      <trkpt lat="44.2894" lon="5.62352">
        <ele>760.59997558594</ele>
        <time>2019-10-11T08:02:28Z</time>
      </trkpt>
      <trkpt lat="44.28927" lon="5.62297">
        <ele>761</ele>
        <time>2019-10-11T08:02:39Z</time>
      </trkpt>
      <trkpt lat="44.28919" lon="5.62264">
        <ele>761.59997558594</ele>
        <time>2019-10-11T08:02:46Z</time>
      </trkpt>
      <trkpt lat="44.28907" lon="5.62201">
        <ele>762.40002441406</ele>
        <time>2019-10-11T08:02:59Z</time>
      </trkpt>
      <trkpt lat="44.28896" lon="5.62105">
        <ele>764</ele>
        <time>2019-10-11T08:03:19Z</time>
      </trkpt>
      <trkpt lat="44.28907" lon="5.62033">
        <ele>766.20001220703</ele>
        <time>2019-10-11T08:03:36Z</time>
      </trkpt>
      <trkpt lat="44.28922" lon="5.61995">
        <ele>767.20001220703</ele>
        <time>2019-10-11T08:03:46Z</time>
      </trkpt>
      <trkpt lat="44.28979" lon="5.61929">
        <ele>768.79998779297</ele>
        <time>2019-10-11T08:04:07Z</time>
      </trkpt>
      <trkpt lat="44.29011" lon="5.61902">
        <ele>769</ele>
        <time>2019-10-11T08:04:17Z</time>
      </trkpt>
      <trkpt lat="44.29064" lon="5.6186">
        <ele>769.79998779297</ele>
        <time>2019-10-11T08:04:32Z</time>
      </trkpt>
      <trkpt lat="44.29104" lon="5.61829">
        <ele>770.79998779297</ele>
        <time>2019-10-11T08:04:44Z</time>
      </trkpt>
      <trkpt lat="44.29174" lon="5.61776">
        <ele>773</ele>
        <time>2019-10-11T08:05:06Z</time>
      </trkpt>
      <trkpt lat="44.29208" lon="5.61745">
        <ele>773.79998779297</ele>
        <time>2019-10-11T08:05:17Z</time>
      </trkpt>
      <trkpt lat="44.29227" lon="5.6169">
        <ele>774.79998779297</ele>
        <time>2019-10-11T08:05:29Z</time>
      </trkpt>
      <trkpt lat="44.29243" lon="5.61629">
        <ele>776.20001220703</ele>
        <time>2019-10-11T08:05:41Z</time>
      </trkpt>
      <trkpt lat="44.29251" lon="5.61594">
        <ele>776.40002441406</ele>
        <time>2019-10-11T08:05:50Z</time>
      </trkpt>
      <trkpt lat="44.29252" lon="5.61591">
        <ele>776.59997558594</ele>
        <time>2019-10-11T08:06:35Z</time>
      </trkpt>
      <trkpt lat="44.29255" lon="5.61582">
        <ele>776.59997558594</ele>
        <time>2019-10-11T08:06:40Z</time>
      </trkpt>
      <trkpt lat="44.29262" lon="5.6155">
        <ele>776.79998779297</ele>
        <time>2019-10-11T08:06:47Z</time>
      </trkpt>
      <trkpt lat="44.29271" lon="5.61514">
        <ele>776.79998779297</ele>
        <time>2019-10-11T08:06:54Z</time>
      </trkpt>
      <trkpt lat="44.29276" lon="5.61469">
        <ele>777.40002441406</ele>
        <time>2019-10-11T08:07:01Z</time>
      </trkpt>
      <trkpt lat="44.29277" lon="5.6142">
        <ele>777.79998779297</ele>
        <time>2019-10-11T08:07:09Z</time>
      </trkpt>
      <trkpt lat="44.29275" lon="5.61349">
        <ele>778.79998779297</ele>
        <time>2019-10-11T08:07:22Z</time>
      </trkpt>
      <trkpt lat="44.29273" lon="5.61283">
        <ele>780.20001220703</ele>
        <time>2019-10-11T08:07:35Z</time>
      </trkpt>
      <trkpt lat="44.29272" lon="5.61182">
        <ele>780.40002441406</ele>
        <time>2019-10-11T08:07:51Z</time>
      </trkpt>
      <trkpt lat="44.2927" lon="5.61144">
        <ele>780.20001220703</ele>
        <time>2019-10-11T08:07:57Z</time>
      </trkpt>
      <trkpt lat="44.29252" lon="5.61012">
        <ele>781</ele>
        <time>2019-10-11T08:08:18Z</time>
      </trkpt>
      <trkpt lat="44.29248" lon="5.6098">
        <ele>781</ele>
        <time>2019-10-11T08:08:23Z</time>
      </trkpt>
      <trkpt lat="44.29233" lon="5.60879">
        <ele>782.59997558594</ele>
        <time>2019-10-11T08:08:40Z</time>
      </trkpt>
      <trkpt lat="44.29225" lon="5.60815">
        <ele>783.20001220703</ele>
        <time>2019-10-11T08:08:52Z</time>
      </trkpt>
      <trkpt lat="44.29217" lon="5.6075">
        <ele>784.59997558594</ele>
        <time>2019-10-11T08:09:05Z</time>
      </trkpt>
      <trkpt lat="44.29215" lon="5.60702">
        <ele>785.59997558594</ele>
        <time>2019-10-11T08:09:15Z</time>
      </trkpt>
      <trkpt lat="44.29224" lon="5.60624">
        <ele>789</ele>
        <time>2019-10-11T08:09:34Z</time>
      </trkpt>
      <trkpt lat="44.29229" lon="5.60599">
        <ele>790.20001220703</ele>
        <time>2019-10-11T08:09:41Z</time>
      </trkpt>
      <trkpt lat="44.29239" lon="5.60552">
        <ele>791.59997558594</ele>
        <time>2019-10-11T08:09:52Z</time>
      </trkpt>
      <trkpt lat="44.29251" lon="5.60501">
        <ele>792.79998779297</ele>
        <time>2019-10-11T08:10:03Z</time>
      </trkpt>
      <trkpt lat="44.29254" lon="5.60455">
        <ele>793</ele>
        <time>2019-10-11T08:10:11Z</time>
      </trkpt>
      <trkpt lat="44.29246" lon="5.60408">
        <ele>793.59997558594</ele>
        <time>2019-10-11T08:10:20Z</time>
      </trkpt>
      <trkpt lat="44.29223" lon="5.60286">
        <ele>796.40002441406</ele>
        <time>2019-10-11T08:10:45Z</time>
      </trkpt>
      <trkpt lat="44.29194" lon="5.60206">
        <ele>797.59997558594</ele>
        <time>2019-10-11T08:11:01Z</time>
      </trkpt>
      <trkpt lat="44.29168" lon="5.60155">
        <ele>798.20001220703</ele>
        <time>2019-10-11T08:11:12Z</time>
      </trkpt>
      <trkpt lat="44.29133" lon="5.60076">
        <ele>799.40002441406</ele>
        <time>2019-10-11T08:11:28Z</time>
      </trkpt>
      <trkpt lat="44.29126" lon="5.60041">
        <ele>800.40002441406</ele>
        <time>2019-10-11T08:11:36Z</time>
      </trkpt>
      <trkpt lat="44.29125" lon="5.59985">
        <ele>802.20001220703</ele>
        <time>2019-10-11T08:11:48Z</time>
      </trkpt>
      <trkpt lat="44.29127" lon="5.59915">
        <ele>804.20001220703</ele>
        <time>2019-10-11T08:12:03Z</time>
      </trkpt>
      <trkpt lat="44.29131" lon="5.59877">
        <ele>805.40002441406</ele>
        <time>2019-10-11T08:12:12Z</time>
      </trkpt>
      <trkpt lat="44.2914" lon="5.59839">
        <ele>806.59997558594</ele>
        <time>2019-10-11T08:12:22Z</time>
      </trkpt>
      <trkpt lat="44.29146" lon="5.59823">
        <ele>807.79998779297</ele>
        <time>2019-10-11T08:12:27Z</time>
      </trkpt>
      <trkpt lat="44.29178" lon="5.59774">
        <ele>810.79998779297</ele>
        <time>2019-10-11T08:12:46Z</time>
      </trkpt>
      <trkpt lat="44.29213" lon="5.59731">
        <ele>812.20001220703</ele>
        <time>2019-10-11T08:13:00Z</time>
      </trkpt>
      <trkpt lat="44.29243" lon="5.59687">
        <ele>812.20001220703</ele>
        <time>2019-10-11T08:13:11Z</time>
      </trkpt>
      <trkpt lat="44.29252" lon="5.59674">
        <ele>812.20001220703</ele>
        <time>2019-10-11T08:13:14Z</time>
      </trkpt>
      <trkpt lat="44.29274" lon="5.59629">
        <ele>811.79998779297</ele>
        <time>2019-10-11T08:13:23Z</time>
      </trkpt>
      <trkpt lat="44.29276" lon="5.59611">
        <ele>811.79998779297</ele>
        <time>2019-10-11T08:13:28Z</time>
      </trkpt>
      <trkpt lat="44.29267" lon="5.59599">
        <ele>811.79998779297</ele>
        <time>2019-10-11T08:13:33Z</time>
      </trkpt>
      <trkpt lat="44.29245" lon="5.59586">
        <ele>812.79998779297</ele>
        <time>2019-10-11T08:13:44Z</time>
      </trkpt>
      <trkpt lat="44.29226" lon="5.59578">
        <ele>813</ele>
        <time>2019-10-11T08:13:51Z</time>
      </trkpt>
      <trkpt lat="44.29198" lon="5.59564">
        <ele>812.40002441406</ele>
        <time>2019-10-11T08:13:57Z</time>
      </trkpt>
      <trkpt lat="44.29173" lon="5.59568">
        <ele>811.59997558594</ele>
        <time>2019-10-11T08:14:02Z</time>
      </trkpt>
      <trkpt lat="44.29144" lon="5.59583">
        <ele>810.79998779297</ele>
        <time>2019-10-11T08:14:08Z</time>
      </trkpt>
      <trkpt lat="44.29135" lon="5.59593">
        <ele>810.59997558594</ele>
        <time>2019-10-11T08:14:10Z</time>
      </trkpt>
      <trkpt lat="44.29103" lon="5.59636">
        <ele>810</ele>
        <time>2019-10-11T08:14:17Z</time>
      </trkpt>
      <trkpt lat="44.2908" lon="5.59687">
        <ele>808</ele>
        <time>2019-10-11T08:14:24Z</time>
      </trkpt>
      <trkpt lat="44.29046" lon="5.59717">
        <ele>807.20001220703</ele>
        <time>2019-10-11T08:14:32Z</time>
      </trkpt>
      <trkpt lat="44.29027" lon="5.59709">
        <ele>807.20001220703</ele>
        <time>2019-10-11T08:14:36Z</time>
      </trkpt>
      <trkpt lat="44.29" lon="5.59695">
        <ele>807.59997558594</ele>
        <time>2019-10-11T08:14:43Z</time>
      </trkpt>
      <trkpt lat="44.28975" lon="5.59681">
        <ele>808.40002441406</ele>
        <time>2019-10-11T08:14:50Z</time>
      </trkpt>
      <trkpt lat="44.28959" lon="5.59673">
        <ele>809</ele>
        <time>2019-10-11T08:14:55Z</time>
      </trkpt>
      <trkpt lat="44.28933" lon="5.59659">
        <ele>810.20001220703</ele>
        <time>2019-10-11T08:15:04Z</time>
      </trkpt>
      <trkpt lat="44.28907" lon="5.59652">
        <ele>811.40002441406</ele>
        <time>2019-10-11T08:15:14Z</time>
      </trkpt>
      <trkpt lat="44.28888" lon="5.59662">
        <ele>812.40002441406</ele>
        <time>2019-10-11T08:15:21Z</time>
      </trkpt>
      <trkpt lat="44.28863" lon="5.59683">
        <ele>814.40002441406</ele>
        <time>2019-10-11T08:15:34Z</time>
      </trkpt>
      <trkpt lat="44.2884" lon="5.59689">
        <ele>815.79998779297</ele>
        <time>2019-10-11T08:15:44Z</time>
      </trkpt>
      <trkpt lat="44.2883" lon="5.59678">
        <ele>817.40002441406</ele>
        <time>2019-10-11T08:15:51Z</time>
      </trkpt>
      <trkpt lat="44.28806" lon="5.5965">
        <ele>820.20001220703</ele>
        <time>2019-10-11T08:16:08Z</time>
      </trkpt>
      <trkpt lat="44.28795" lon="5.59637">
        <ele>821.40002441406</ele>
        <time>2019-10-11T08:16:16Z</time>
      </trkpt>
      <trkpt lat="44.28777" lon="5.59615">
        <ele>823.20001220703</ele>
        <time>2019-10-11T08:16:28Z</time>
      </trkpt>
      <trkpt lat="44.28764" lon="5.59585">
        <ele>825.20001220703</ele>
        <time>2019-10-11T08:16:39Z</time>
      </trkpt>
      <trkpt lat="44.28754" lon="5.59542">
        <ele>827</ele>
        <time>2019-10-11T08:16:54Z</time>
      </trkpt>
      <trkpt lat="44.28746" lon="5.59528">
        <ele>827.79998779297</ele>
        <time>2019-10-11T08:17:01Z</time>
      </trkpt>
      <trkpt lat="44.28724" lon="5.59505">
        <ele>830.20001220703</ele>
        <time>2019-10-11T08:17:14Z</time>
      </trkpt>
      <trkpt lat="44.28708" lon="5.59499">
        <ele>831.40002441406</ele>
        <time>2019-10-11T08:17:22Z</time>
      </trkpt>
      <trkpt lat="44.28675" lon="5.59489">
        <ele>833.79998779297</ele>
        <time>2019-10-11T08:17:38Z</time>
      </trkpt>
      <trkpt lat="44.28665" lon="5.59485">
        <ele>834.40002441406</ele>
        <time>2019-10-11T08:17:43Z</time>
      </trkpt>
      <trkpt lat="44.28642" lon="5.59483">
        <ele>836</ele>
        <time>2019-10-11T08:17:53Z</time>
      </trkpt>
      <trkpt lat="44.28618" lon="5.59482">
        <ele>838.20001220703</ele>
        <time>2019-10-11T08:18:04Z</time>
      </trkpt>
      <trkpt lat="44.28589" lon="5.59478">
        <ele>840.20001220703</ele>
        <time>2019-10-11T08:18:17Z</time>
      </trkpt>
      <trkpt lat="44.28578" lon="5.59493">
        <ele>842.20001220703</ele>
        <time>2019-10-11T08:18:28Z</time>
      </trkpt>
      <trkpt lat="44.28588" lon="5.59498">
        <ele>842.79998779297</ele>
        <time>2019-10-11T08:18:33Z</time>
      </trkpt>
      <trkpt lat="44.28633" lon="5.595">
        <ele>844.40002441406</ele>
        <time>2019-10-11T08:18:48Z</time>
      </trkpt>
      <trkpt lat="44.28649" lon="5.59503">
        <ele>845.20001220703</ele>
        <time>2019-10-11T08:18:55Z</time>
      </trkpt>
      <trkpt lat="44.28681" lon="5.59523">
        <ele>846.40002441406</ele>
        <time>2019-10-11T08:19:08Z</time>
      </trkpt>
      <trkpt lat="44.28703" lon="5.59549">
        <ele>847.59997558594</ele>
        <time>2019-10-11T08:19:18Z</time>
      </trkpt>
      <trkpt lat="44.28699" lon="5.59589">
        <ele>849.40002441406</ele>
        <time>2019-10-11T08:19:30Z</time>
      </trkpt>
      <trkpt lat="44.28689" lon="5.59608">
        <ele>851</ele>
        <time>2019-10-11T08:19:38Z</time>
      </trkpt>
      <trkpt lat="44.28679" lon="5.59639">
        <ele>853</ele>
        <time>2019-10-11T08:19:49Z</time>
      </trkpt>
      <trkpt lat="44.28681" lon="5.59664">
        <ele>853.59997558594</ele>
        <time>2019-10-11T08:19:57Z</time>
      </trkpt>
      <trkpt lat="44.28689" lon="5.59706">
        <ele>856</ele>
        <time>2019-10-11T08:20:11Z</time>
      </trkpt>
      <trkpt lat="44.28698" lon="5.59737">
        <ele>857.20001220703</ele>
        <time>2019-10-11T08:20:22Z</time>
      </trkpt>
      <trkpt lat="44.28691" lon="5.59754">
        <ele>858.20001220703</ele>
        <time>2019-10-11T08:20:29Z</time>
      </trkpt>
      <trkpt lat="44.28684" lon="5.59735">
        <ele>859.40002441406</ele>
        <time>2019-10-11T08:20:35Z</time>
      </trkpt>
      <trkpt lat="44.28671" lon="5.59708">
        <ele>861.20001220703</ele>
        <time>2019-10-11T08:20:46Z</time>
      </trkpt>
      <trkpt lat="44.28659" lon="5.59681">
        <ele>862.79998779297</ele>
        <time>2019-10-11T08:20:57Z</time>
      </trkpt>
      <trkpt lat="44.28652" lon="5.59667">
        <ele>863.59997558594</ele>
        <time>2019-10-11T08:21:03Z</time>
      </trkpt>
      <trkpt lat="44.28618" lon="5.59644">
        <ele>866.20001220703</ele>
        <time>2019-10-11T08:21:22Z</time>
      </trkpt>
      <trkpt lat="44.28603" lon="5.59629">
        <ele>867.79998779297</ele>
        <time>2019-10-11T08:21:32Z</time>
      </trkpt>
      <trkpt lat="44.28593" lon="5.59607">
        <ele>869.59997558594</ele>
        <time>2019-10-11T08:21:42Z</time>
      </trkpt>
      <trkpt lat="44.28581" lon="5.59582">
        <ele>871.20001220703</ele>
        <time>2019-10-11T08:21:54Z</time>
      </trkpt>
      <trkpt lat="44.28565" lon="5.59575">
        <ele>872.59997558594</ele>
        <time>2019-10-11T08:22:04Z</time>
      </trkpt>
      <trkpt lat="44.28553" lon="5.59573">
        <ele>873.59997558594</ele>
        <time>2019-10-11T08:22:10Z</time>
      </trkpt>
      <trkpt lat="44.2853" lon="5.59574">
        <ele>875.59997558594</ele>
        <time>2019-10-11T08:22:22Z</time>
      </trkpt>
      <trkpt lat="44.28518" lon="5.59577">
        <ele>877</ele>
        <time>2019-10-11T08:22:29Z</time>
      </trkpt>
      <trkpt lat="44.28497" lon="5.59583">
        <ele>879</ele>
        <time>2019-10-11T08:22:41Z</time>
      </trkpt>
      <trkpt lat="44.28479" lon="5.59588">
        <ele>880.59997558594</ele>
        <time>2019-10-11T08:22:50Z</time>
      </trkpt>
      <trkpt lat="44.28463" lon="5.59593">
        <ele>881.79998779297</ele>
        <time>2019-10-11T08:22:59Z</time>
      </trkpt>
      <trkpt lat="44.28446" lon="5.59599">
        <ele>883.40002441406</ele>
        <time>2019-10-11T08:23:10Z</time>
      </trkpt>
      <trkpt lat="44.2844" lon="5.59601">
        <ele>886</ele>
        <time>2019-10-11T08:23:39Z</time>
      </trkpt>
      <trkpt lat="44.28424" lon="5.59606">
        <ele>886.20001220703</ele>
        <time>2019-10-11T08:23:48Z</time>
      </trkpt>
      <trkpt lat="44.28412" lon="5.59609">
        <ele>887</ele>
        <time>2019-10-11T08:23:54Z</time>
      </trkpt>
      <trkpt lat="44.28399" lon="5.59614">
        <ele>887.79998779297</ele>
        <time>2019-10-11T08:24:01Z</time>
      </trkpt>
      <trkpt lat="44.28372" lon="5.59613">
        <ele>890</ele>
        <time>2019-10-11T08:24:13Z</time>
      </trkpt>
      <trkpt lat="44.28352" lon="5.59608">
        <ele>891.40002441406</ele>
        <time>2019-10-11T08:24:23Z</time>
      </trkpt>
      <trkpt lat="44.28333" lon="5.59604">
        <ele>892.79998779297</ele>
        <time>2019-10-11T08:24:33Z</time>
      </trkpt>
      <trkpt lat="44.28302" lon="5.59597">
        <ele>895</ele>
        <time>2019-10-11T08:24:48Z</time>
      </trkpt>
      <trkpt lat="44.28286" lon="5.59599">
        <ele>896.79998779297</ele>
        <time>2019-10-11T08:24:58Z</time>
      </trkpt>
      <trkpt lat="44.28267" lon="5.59609">
        <ele>898.40002441406</ele>
        <time>2019-10-11T08:25:10Z</time>
      </trkpt>
      <trkpt lat="44.28258" lon="5.59626">
        <ele>900</ele>
        <time>2019-10-11T08:25:18Z</time>
      </trkpt>
      <trkpt lat="44.28246" lon="5.5966">
        <ele>902.40002441406</ele>
        <time>2019-10-11T08:25:32Z</time>
      </trkpt>
      <trkpt lat="44.28236" lon="5.59679">
        <ele>903.40002441406</ele>
        <time>2019-10-11T08:25:41Z</time>
      </trkpt>
      <trkpt lat="44.28227" lon="5.59692">
        <ele>904.59997558594</ele>
        <time>2019-10-11T08:25:48Z</time>
      </trkpt>
      <trkpt lat="44.28201" lon="5.59722">
        <ele>907.40002441406</ele>
        <time>2019-10-11T08:26:05Z</time>
      </trkpt>
      <trkpt lat="44.28186" lon="5.5974">
        <ele>908.59997558594</ele>
        <time>2019-10-11T08:26:15Z</time>
      </trkpt>
      <trkpt lat="44.28161" lon="5.59773">
        <ele>911.40002441406</ele>
        <time>2019-10-11T08:26:34Z</time>
      </trkpt>
      <trkpt lat="44.28149" lon="5.59791">
        <ele>913</ele>
        <time>2019-10-11T08:26:43Z</time>
      </trkpt>
      <trkpt lat="44.28126" lon="5.59808">
        <ele>914.79998779297</ele>
        <time>2019-10-11T08:26:56Z</time>
      </trkpt>
      <trkpt lat="44.28093" lon="5.59824">
        <ele>917.40002441406</ele>
        <time>2019-10-11T08:27:13Z</time>
      </trkpt>
      <trkpt lat="44.28075" lon="5.59841">
        <ele>918.59997558594</ele>
        <time>2019-10-11T08:27:23Z</time>
      </trkpt>
      <trkpt lat="44.28067" lon="5.59858">
        <ele>920.20001220703</ele>
        <time>2019-10-11T08:27:31Z</time>
      </trkpt>
      <trkpt lat="44.28049" lon="5.59879">
        <ele>922.20001220703</ele>
        <time>2019-10-11T08:27:43Z</time>
      </trkpt>
      <trkpt lat="44.28039" lon="5.59881">
        <ele>923.40002441406</ele>
        <time>2019-10-11T08:27:48Z</time>
      </trkpt>
      <trkpt lat="44.28007" lon="5.59889">
        <ele>925.40002441406</ele>
        <time>2019-10-11T08:28:03Z</time>
      </trkpt>
      <trkpt lat="44.27999" lon="5.59902">
        <ele>926.40002441406</ele>
        <time>2019-10-11T08:28:09Z</time>
      </trkpt>
      <trkpt lat="44.27992" lon="5.59928">
        <ele>928</ele>
        <time>2019-10-11T08:28:18Z</time>
      </trkpt>
      <trkpt lat="44.27984" lon="5.59963">
        <ele>930.20001220703</ele>
        <time>2019-10-11T08:28:32Z</time>
      </trkpt>
      <trkpt lat="44.27975" lon="5.59997">
        <ele>932</ele>
        <time>2019-10-11T08:28:46Z</time>
      </trkpt>
      <trkpt lat="44.27961" lon="5.60031">
        <ele>933.59997558594</ele>
        <time>2019-10-11T08:28:59Z</time>
      </trkpt>
      <trkpt lat="44.27945" lon="5.6004">
        <ele>934.40002441406</ele>
        <time>2019-10-11T08:29:07Z</time>
      </trkpt>
      <trkpt lat="44.27919" lon="5.6005">
        <ele>936.20001220703</ele>
        <time>2019-10-11T08:29:20Z</time>
      </trkpt>
      <trkpt lat="44.27898" lon="5.60064">
        <ele>938.40002441406</ele>
        <time>2019-10-11T08:29:31Z</time>
      </trkpt>
      <trkpt lat="44.27878" lon="5.60085">
        <ele>940</ele>
        <time>2019-10-11T08:29:42Z</time>
      </trkpt>
      <trkpt lat="44.2787" lon="5.60093">
        <ele>941.59997558594</ele>
        <time>2019-10-11T08:30:18Z</time>
      </trkpt>
      <trkpt lat="44.2786" lon="5.60104">
        <ele>942</ele>
        <time>2019-10-11T08:30:25Z</time>
      </trkpt>
      <trkpt lat="44.27845" lon="5.60119">
        <ele>943</ele>
        <time>2019-10-11T08:30:33Z</time>
      </trkpt>
      <trkpt lat="44.27823" lon="5.60136">
        <ele>944.40002441406</ele>
        <time>2019-10-11T08:30:44Z</time>
      </trkpt>
      <trkpt lat="44.27809" lon="5.6014">
        <ele>945</ele>
        <time>2019-10-11T08:30:49Z</time>
      </trkpt>
      <trkpt lat="44.27782" lon="5.60134">
        <ele>946.20001220703</ele>
        <time>2019-10-11T08:31:00Z</time>
      </trkpt>
      <trkpt lat="44.27756" lon="5.60133">
        <ele>947.40002441406</ele>
        <time>2019-10-11T08:31:12Z</time>
      </trkpt>
      <trkpt lat="44.27728" lon="5.60155">
        <ele>950</ele>
        <time>2019-10-11T08:31:27Z</time>
      </trkpt>
      <trkpt lat="44.27701" lon="5.60179">
        <ele>952.20001220703</ele>
        <time>2019-10-11T08:31:43Z</time>
      </trkpt>
      <trkpt lat="44.27698" lon="5.60203">
        <ele>953</ele>
        <time>2019-10-11T08:31:50Z</time>
      </trkpt>
      <trkpt lat="44.27716" lon="5.60222">
        <ele>954.59997558594</ele>
        <time>2019-10-11T08:31:59Z</time>
      </trkpt>
      <trkpt lat="44.27735" lon="5.60236">
        <ele>955.59997558594</ele>
        <time>2019-10-11T08:32:07Z</time>
      </trkpt>
      <trkpt lat="44.27739" lon="5.60264">
        <ele>956.79998779297</ele>
        <time>2019-10-11T08:32:16Z</time>
      </trkpt>
      <trkpt lat="44.27725" lon="5.60277">
        <ele>958.20001220703</ele>
        <time>2019-10-11T08:32:25Z</time>
      </trkpt>
      <trkpt lat="44.27713" lon="5.60314">
        <ele>960.59997558594</ele>
        <time>2019-10-11T08:32:39Z</time>
      </trkpt>
      <trkpt lat="44.27717" lon="5.6034">
        <ele>962</ele>
        <time>2019-10-11T08:32:48Z</time>
      </trkpt>
      <trkpt lat="44.2772" lon="5.60379">
        <ele>964.40002441406</ele>
        <time>2019-10-11T08:33:02Z</time>
      </trkpt>
      <trkpt lat="44.2772" lon="5.60406">
        <ele>965.59997558594</ele>
        <time>2019-10-11T08:33:11Z</time>
      </trkpt>
      <trkpt lat="44.27709" lon="5.60445">
        <ele>968.20001220703</ele>
        <time>2019-10-11T08:33:26Z</time>
      </trkpt>
      <trkpt lat="44.27687" lon="5.60469">
        <ele>970.40002441406</ele>
        <time>2019-10-11T08:33:40Z</time>
      </trkpt>
      <trkpt lat="44.27667" lon="5.60477">
        <ele>971.79998779297</ele>
        <time>2019-10-11T08:33:49Z</time>
      </trkpt>
      <trkpt lat="44.27643" lon="5.60477">
        <ele>973.59997558594</ele>
        <time>2019-10-11T08:34:01Z</time>
      </trkpt>
      <trkpt lat="44.27617" lon="5.60475">
        <ele>975.20001220703</ele>
        <time>2019-10-11T08:34:14Z</time>
      </trkpt>
      <trkpt lat="44.27585" lon="5.60475">
        <ele>977.59997558594</ele>
        <time>2019-10-11T08:34:31Z</time>
      </trkpt>
      <trkpt lat="44.27568" lon="5.6047">
        <ele>978.20001220703</ele>
        <time>2019-10-11T08:34:39Z</time>
      </trkpt>
      <trkpt lat="44.27545" lon="5.60455">
        <ele>980.40002441406</ele>
        <time>2019-10-11T08:34:52Z</time>
      </trkpt>
      <trkpt lat="44.27534" lon="5.60448">
        <ele>981.40002441406</ele>
        <time>2019-10-11T08:34:58Z</time>
      </trkpt>
      <trkpt lat="44.27513" lon="5.60434">
        <ele>983.59997558594</ele>
        <time>2019-10-11T08:35:10Z</time>
      </trkpt>
      <trkpt lat="44.27503" lon="5.60437">
        <ele>984.40002441406</ele>
        <time>2019-10-11T08:35:16Z</time>
      </trkpt>
      <trkpt lat="44.27505" lon="5.60462">
        <ele>985.40002441406</ele>
        <time>2019-10-11T08:35:24Z</time>
      </trkpt>
      <trkpt lat="44.27504" lon="5.60505">
        <ele>988.20001220703</ele>
        <time>2019-10-11T08:35:40Z</time>
      </trkpt>
      <trkpt lat="44.27493" lon="5.60546">
        <ele>990.79998779297</ele>
        <time>2019-10-11T08:35:56Z</time>
      </trkpt>
      <trkpt lat="44.2749" lon="5.6056">
        <ele>991.20001220703</ele>
        <time>2019-10-11T08:36:02Z</time>
      </trkpt>
      <trkpt lat="44.27485" lon="5.60585">
        <ele>992.59997558594</ele>
        <time>2019-10-11T08:36:10Z</time>
      </trkpt>
      <trkpt lat="44.27465" lon="5.60618">
        <ele>994.79998779297</ele>
        <time>2019-10-11T08:36:25Z</time>
      </trkpt>
      <trkpt lat="44.27454" lon="5.60623">
        <ele>995.79998779297</ele>
        <time>2019-10-11T08:36:31Z</time>
      </trkpt>
      <trkpt lat="44.27427" lon="5.60644">
        <ele>998.20001220703</ele>
        <time>2019-10-11T08:36:47Z</time>
      </trkpt>
      <trkpt lat="44.27425" lon="5.60658">
        <ele>999</ele>
        <time>2019-10-11T08:36:54Z</time>
      </trkpt>
      <trkpt lat="44.27422" lon="5.60689">
        <ele>1000.200012207</ele>
        <time>2019-10-11T08:37:02Z</time>
      </trkpt>
      <trkpt lat="44.27412" lon="5.60704">
        <ele>1001.5999755859</ele>
        <time>2019-10-11T08:37:09Z</time>
      </trkpt>
      <trkpt lat="44.27398" lon="5.60714">
        <ele>1003.4000244141</ele>
        <time>2019-10-11T08:37:19Z</time>
      </trkpt>
      <trkpt lat="44.27382" lon="5.60718">
        <ele>1004.4000244141</ele>
        <time>2019-10-11T08:37:28Z</time>
      </trkpt>
      <trkpt lat="44.27361" lon="5.60723">
        <ele>1006.5999755859</ele>
        <time>2019-10-11T08:37:39Z</time>
      </trkpt>
      <trkpt lat="44.27346" lon="5.60733">
        <ele>1008.200012207</ele>
        <time>2019-10-11T08:37:48Z</time>
      </trkpt>
      <trkpt lat="44.27323" lon="5.60766">
        <ele>1010.200012207</ele>
        <time>2019-10-11T08:38:04Z</time>
      </trkpt>
      <trkpt lat="44.27313" lon="5.60789">
        <ele>1012.200012207</ele>
        <time>2019-10-11T08:38:15Z</time>
      </trkpt>
      <trkpt lat="44.27305" lon="5.60806">
        <ele>1013.200012207</ele>
        <time>2019-10-11T08:38:22Z</time>
      </trkpt>
      <trkpt lat="44.27313" lon="5.60828">
        <ele>1015</ele>
        <time>2019-10-11T08:38:33Z</time>
      </trkpt>
      <trkpt lat="44.27323" lon="5.60846">
        <ele>1016.5999755859</ele>
        <time>2019-10-11T08:38:41Z</time>
      </trkpt>
      <trkpt lat="44.27315" lon="5.60868">
        <ele>1018.200012207</ele>
        <time>2019-10-11T08:38:49Z</time>
      </trkpt>
      <trkpt lat="44.27299" lon="5.6089">
        <ele>1020</ele>
        <time>2019-10-11T08:39:02Z</time>
      </trkpt>
      <trkpt lat="44.27291" lon="5.60911">
        <ele>1021.799987793</ele>
        <time>2019-10-11T08:39:13Z</time>
      </trkpt>
      <trkpt lat="44.27285" lon="5.60936">
        <ele>1023.5999755859</ele>
        <time>2019-10-11T08:39:23Z</time>
      </trkpt>
      <trkpt lat="44.27272" lon="5.60962">
        <ele>1025.1999511719</ele>
        <time>2019-10-11T08:39:35Z</time>
      </trkpt>
      <trkpt lat="44.27263" lon="5.60967">
        <ele>1027.5999755859</ele>
        <time>2019-10-11T08:40:40Z</time>
      </trkpt>
      <trkpt lat="44.27239" lon="5.60977">
        <ele>1028</ele>
        <time>2019-10-11T08:40:51Z</time>
      </trkpt>
      <trkpt lat="44.27226" lon="5.60982">
        <ele>1029</ele>
        <time>2019-10-11T08:40:57Z</time>
      </trkpt>
      <trkpt lat="44.27215" lon="5.60987">
        <ele>1029.5999755859</ele>
        <time>2019-10-11T08:41:03Z</time>
      </trkpt>
      <trkpt lat="44.27203" lon="5.60992">
        <ele>1030.4000244141</ele>
        <time>2019-10-11T08:41:09Z</time>
      </trkpt>
      <trkpt lat="44.27184" lon="5.61">
        <ele>1032.1999511719</ele>
        <time>2019-10-11T08:41:20Z</time>
      </trkpt>
      <trkpt lat="44.27158" lon="5.61014">
        <ele>1034.1999511719</ele>
        <time>2019-10-11T08:41:35Z</time>
      </trkpt>
      <trkpt lat="44.27147" lon="5.61023">
        <ele>1035.1999511719</ele>
        <time>2019-10-11T08:41:42Z</time>
      </trkpt>
      <trkpt lat="44.27124" lon="5.61035">
        <ele>1037.5999755859</ele>
        <time>2019-10-11T08:41:56Z</time>
      </trkpt>
      <trkpt lat="44.27092" lon="5.6105">
        <ele>1040</ele>
        <time>2019-10-11T08:42:13Z</time>
      </trkpt>
      <trkpt lat="44.27074" lon="5.6106">
        <ele>1042</ele>
        <time>2019-10-11T08:42:23Z</time>
      </trkpt>
      <trkpt lat="44.2706" lon="5.61065">
        <ele>1043.4000244141</ele>
        <time>2019-10-11T08:42:30Z</time>
      </trkpt>
      <trkpt lat="44.27037" lon="5.61072">
        <ele>1044.8000488281</ele>
        <time>2019-10-11T08:42:43Z</time>
      </trkpt>
      <trkpt lat="44.27009" lon="5.61084">
        <ele>1047.1999511719</ele>
        <time>2019-10-11T08:42:58Z</time>
      </trkpt>
      <trkpt lat="44.26982" lon="5.61105">
        <ele>1049.4000244141</ele>
        <time>2019-10-11T08:43:13Z</time>
      </trkpt>
      <trkpt lat="44.26968" lon="5.61116">
        <ele>1050.5999755859</ele>
        <time>2019-10-11T08:43:21Z</time>
      </trkpt>
      <trkpt lat="44.26946" lon="5.61135">
        <ele>1052.5999755859</ele>
        <time>2019-10-11T08:43:35Z</time>
      </trkpt>
      <trkpt lat="44.26921" lon="5.61158">
        <ele>1054.8000488281</ele>
        <time>2019-10-11T08:43:50Z</time>
      </trkpt>
      <trkpt lat="44.26911" lon="5.61169">
        <ele>1055.8000488281</ele>
        <time>2019-10-11T08:43:57Z</time>
      </trkpt>
      <trkpt lat="44.26891" lon="5.61188">
        <ele>1058</ele>
        <time>2019-10-11T08:44:10Z</time>
      </trkpt>
      <trkpt lat="44.2688" lon="5.61196">
        <ele>1059</ele>
        <time>2019-10-11T08:44:17Z</time>
      </trkpt>
      <trkpt lat="44.26861" lon="5.6121">
        <ele>1061.5999755859</ele>
        <time>2019-10-11T08:44:29Z</time>
      </trkpt>
      <trkpt lat="44.26852" lon="5.61218">
        <ele>1062.5999755859</ele>
        <time>2019-10-11T08:44:36Z</time>
      </trkpt>
      <trkpt lat="44.26829" lon="5.61243">
        <ele>1065.1999511719</ele>
        <time>2019-10-11T08:44:53Z</time>
      </trkpt>
      <trkpt lat="44.26818" lon="5.6126">
        <ele>1066.8000488281</ele>
        <time>2019-10-11T08:45:02Z</time>
      </trkpt>
      <trkpt lat="44.26805" lon="5.61285">
        <ele>1068.4000244141</ele>
        <time>2019-10-11T08:45:14Z</time>
      </trkpt>
      <trkpt lat="44.26793" lon="5.61304">
        <ele>1070</ele>
        <time>2019-10-11T08:45:23Z</time>
      </trkpt>
      <trkpt lat="44.26777" lon="5.61326">
        <ele>1072.1999511719</ele>
        <time>2019-10-11T08:45:36Z</time>
      </trkpt>
      <trkpt lat="44.26764" lon="5.61341">
        <ele>1074</ele>
        <time>2019-10-11T08:45:46Z</time>
      </trkpt>
      <trkpt lat="44.26745" lon="5.61362">
        <ele>1076</ele>
        <time>2019-10-11T08:46:00Z</time>
      </trkpt>
      <trkpt lat="44.26729" lon="5.61381">
        <ele>1077.4000244141</ele>
        <time>2019-10-11T08:46:12Z</time>
      </trkpt>
      <trkpt lat="44.26713" lon="5.61399">
        <ele>1079</ele>
        <time>2019-10-11T08:46:24Z</time>
      </trkpt>
      <trkpt lat="44.26698" lon="5.61416">
        <ele>1080.8000488281</ele>
        <time>2019-10-11T08:46:35Z</time>
      </trkpt>
      <trkpt lat="44.26683" lon="5.6143">
        <ele>1082.1999511719</ele>
        <time>2019-10-11T08:46:45Z</time>
      </trkpt>
      <trkpt lat="44.26676" lon="5.61435">
        <ele>1082.5999755859</ele>
        <time>2019-10-11T08:46:50Z</time>
      </trkpt>
      <trkpt lat="44.26677" lon="5.61435">
        <ele>1083.4000244141</ele>
        <time>2019-10-11T08:47:29Z</time>
      </trkpt>
      <trkpt lat="44.26675" lon="5.61437">
        <ele>1083.4000244141</ele>
        <time>2019-10-11T08:47:35Z</time>
      </trkpt>
      <trkpt lat="44.26661" lon="5.61447">
        <ele>1084.1999511719</ele>
        <time>2019-10-11T08:47:43Z</time>
      </trkpt>
      <trkpt lat="44.26645" lon="5.61457">
        <ele>1085.5999755859</ele>
        <time>2019-10-11T08:47:52Z</time>
      </trkpt>
      <trkpt lat="44.26642" lon="5.61459">
        <ele>1086</ele>
        <time>2019-10-11T08:47:54Z</time>
      </trkpt>
      <trkpt lat="44.26624" lon="5.61469">
        <ele>1087.5999755859</ele>
        <time>2019-10-11T08:48:04Z</time>
      </trkpt>
      <trkpt lat="44.26608" lon="5.61483">
        <ele>1089.4000244141</ele>
        <time>2019-10-11T08:48:14Z</time>
      </trkpt>
      <trkpt lat="44.26591" lon="5.61515">
        <ele>1091.4000244141</ele>
        <time>2019-10-11T08:48:28Z</time>
      </trkpt>
      <trkpt lat="44.26584" lon="5.61529">
        <ele>1092.4000244141</ele>
        <time>2019-10-11T08:48:34Z</time>
      </trkpt>
      <trkpt lat="44.2657" lon="5.61556">
        <ele>1094.8000488281</ele>
        <time>2019-10-11T08:48:47Z</time>
      </trkpt>
      <trkpt lat="44.26566" lon="5.61563">
        <ele>1096.4000244141</ele>
        <time>2019-10-11T08:49:35Z</time>
      </trkpt>
      <trkpt lat="44.26564" lon="5.61569">
        <ele>1096.5999755859</ele>
        <time>2019-10-11T08:49:38Z</time>
      </trkpt>
      <trkpt lat="44.26556" lon="5.61595">
        <ele>1096.8000488281</ele>
        <time>2019-10-11T08:49:48Z</time>
      </trkpt>
      <trkpt lat="44.26555" lon="5.61605">
        <ele>1097.4000244141</ele>
        <time>2019-10-11T08:49:51Z</time>
      </trkpt>
      <trkpt lat="44.26551" lon="5.61633">
        <ele>1098.5999755859</ele>
        <time>2019-10-11T08:50:00Z</time>
      </trkpt>
      <trkpt lat="44.26541" lon="5.61653">
        <ele>1099.5999755859</ele>
        <time>2019-10-11T08:50:09Z</time>
      </trkpt>
      <trkpt lat="44.26538" lon="5.61683">
        <ele>1101</ele>
        <time>2019-10-11T08:50:19Z</time>
      </trkpt>
      <trkpt lat="44.26541" lon="5.61717">
        <ele>1102.8000488281</ele>
        <time>2019-10-11T08:50:30Z</time>
      </trkpt>
      <trkpt lat="44.26547" lon="5.61761">
        <ele>1103.8000488281</ele>
        <time>2019-10-11T08:50:43Z</time>
      </trkpt>
      <trkpt lat="44.26542" lon="5.61792">
        <ele>1104.8000488281</ele>
        <time>2019-10-11T08:50:53Z</time>
      </trkpt>
      <trkpt lat="44.26535" lon="5.61805">
        <ele>1107</ele>
        <time>2019-10-11T08:51:03Z</time>
      </trkpt>
      <trkpt lat="44.26528" lon="5.61809">
        <ele>1108.1999511719</ele>
        <time>2019-10-11T08:51:09Z</time>
      </trkpt>
      <trkpt lat="44.26503" lon="5.6181">
        <ele>1109.5999755859</ele>
        <time>2019-10-11T08:51:21Z</time>
      </trkpt>
      <trkpt lat="44.26485" lon="5.61817">
        <ele>1110.8000488281</ele>
        <time>2019-10-11T08:51:30Z</time>
      </trkpt>
      <trkpt lat="44.26473" lon="5.61832">
        <ele>1111.8000488281</ele>
        <time>2019-10-11T08:51:38Z</time>
      </trkpt>
      <trkpt lat="44.26465" lon="5.61846">
        <ele>1113.5999755859</ele>
        <time>2019-10-11T08:51:49Z</time>
      </trkpt>
      <trkpt lat="44.26464" lon="5.61849">
        <ele>1114.1999511719</ele>
        <time>2019-10-11T08:52:37Z</time>
      </trkpt>
      <trkpt lat="44.2646" lon="5.61855">
        <ele>1114.4000244141</ele>
        <time>2019-10-11T08:52:42Z</time>
      </trkpt>
      <trkpt lat="44.26457" lon="5.61861">
        <ele>1114.5999755859</ele>
        <time>2019-10-11T08:52:46Z</time>
      </trkpt>
      <trkpt lat="44.26451" lon="5.61876">
        <ele>1115.5999755859</ele>
        <time>2019-10-11T08:52:52Z</time>
      </trkpt>
      <trkpt lat="44.26447" lon="5.61886">
        <ele>1116</ele>
        <time>2019-10-11T08:52:56Z</time>
      </trkpt>
      <trkpt lat="44.26438" lon="5.61908">
        <ele>1117.8000488281</ele>
        <time>2019-10-11T08:53:05Z</time>
      </trkpt>
      <trkpt lat="44.26432" lon="5.61926">
        <ele>1118.5999755859</ele>
        <time>2019-10-11T08:53:12Z</time>
      </trkpt>
      <trkpt lat="44.26426" lon="5.61948">
        <ele>1119.8000488281</ele>
        <time>2019-10-11T08:53:20Z</time>
      </trkpt>
      <trkpt lat="44.2642" lon="5.61967">
        <ele>1121</ele>
        <time>2019-10-11T08:53:28Z</time>
      </trkpt>
      <trkpt lat="44.26402" lon="5.61997">
        <ele>1123</ele>
        <time>2019-10-11T08:53:43Z</time>
      </trkpt>
      <trkpt lat="44.26389" lon="5.62007">
        <ele>1124.1999511719</ele>
        <time>2019-10-11T08:53:51Z</time>
      </trkpt>
      <trkpt lat="44.26359" lon="5.62031">
        <ele>1126.4000244141</ele>
        <time>2019-10-11T08:54:08Z</time>
      </trkpt>
      <trkpt lat="44.26341" lon="5.62048">
        <ele>1128.1999511719</ele>
        <time>2019-10-11T08:54:19Z</time>
      </trkpt>
      <trkpt lat="44.26322" lon="5.62068">
        <ele>1129.8000488281</ele>
        <time>2019-10-11T08:54:31Z</time>
      </trkpt>
      <trkpt lat="44.26303" lon="5.62089">
        <ele>1131.5999755859</ele>
        <time>2019-10-11T08:54:43Z</time>
      </trkpt>
      <trkpt lat="44.26293" lon="5.621">
        <ele>1132.4000244141</ele>
        <time>2019-10-11T08:54:49Z</time>
      </trkpt>
      <trkpt lat="44.26267" lon="5.62135">
        <ele>1135.4000244141</ele>
        <time>2019-10-11T08:55:06Z</time>
      </trkpt>
      <trkpt lat="44.26253" lon="5.62164">
        <ele>1137.1999511719</ele>
        <time>2019-10-11T08:55:18Z</time>
      </trkpt>
      <trkpt lat="44.26238" lon="5.62191">
        <ele>1138.8000488281</ele>
        <time>2019-10-11T08:55:30Z</time>
      </trkpt>
      <trkpt lat="44.26235" lon="5.62193">
        <ele>1139.8000488281</ele>
        <time>2019-10-11T08:55:35Z</time>
      </trkpt>
      <trkpt lat="44.26235" lon="5.62193">
        <ele>1140</ele>
        <time>2019-10-11T08:55:45Z</time>
      </trkpt>
      <trkpt lat="44.26235" lon="5.62193">
        <ele>1140</ele>
        <time>2019-10-11T08:56:15Z</time>
      </trkpt>
      <trkpt lat="44.26243" lon="5.62197">
        <ele>1140.1999511719</ele>
        <time>2019-10-11T08:56:23Z</time>
      </trkpt>
      <trkpt lat="44.26235" lon="5.62193">
        <ele>1140.1999511719</ele>
        <time>2019-10-11T08:58:58Z</time>
      </trkpt>
      <trkpt lat="44.26244" lon="5.62193">
        <ele>1140.1999511719</ele>
        <time>2019-10-11T08:59:04Z</time>
      </trkpt>
      <trkpt lat="44.26223" lon="5.62194">
        <ele>1140.1999511719</ele>
        <time>2019-10-11T08:59:12Z</time>
      </trkpt>
      <trkpt lat="44.26208" lon="5.62186">
        <ele>1140.1999511719</ele>
        <time>2019-10-11T08:59:16Z</time>
      </trkpt>
      <trkpt lat="44.26184" lon="5.62172">
        <ele>1139.5999755859</ele>
        <time>2019-10-11T08:59:21Z</time>
      </trkpt>
      <trkpt lat="44.26182" lon="5.62148">
        <ele>1137.5999755859</ele>
        <time>2019-10-11T08:59:27Z</time>
      </trkpt>
      <trkpt lat="44.26211" lon="5.62143">
        <ele>1135.5999755859</ele>
        <time>2019-10-11T08:59:34Z</time>
      </trkpt>
      <trkpt lat="44.26219" lon="5.62128">
        <ele>1135.1999511719</ele>
        <time>2019-10-11T08:59:36Z</time>
      </trkpt>
      <trkpt lat="44.26229" lon="5.62075">
        <ele>1133.5999755859</ele>
        <time>2019-10-11T08:59:41Z</time>
      </trkpt>
      <trkpt lat="44.26223" lon="5.62025">
        <ele>1132</ele>
        <time>2019-10-11T08:59:45Z</time>
      </trkpt>
      <trkpt lat="44.26208" lon="5.61961">
        <ele>1129.1999511719</ele>
        <time>2019-10-11T08:59:50Z</time>
      </trkpt>
      <trkpt lat="44.26201" lon="5.61939">
        <ele>1127.5999755859</ele>
        <time>2019-10-11T08:59:52Z</time>
      </trkpt>
      <trkpt lat="44.26192" lon="5.61906">
        <ele>1124.4000244141</ele>
        <time>2019-10-11T08:59:56Z</time>
      </trkpt>
      <trkpt lat="44.2619" lon="5.61881">
        <ele>1122.8000488281</ele>
        <time>2019-10-11T08:59:59Z</time>
      </trkpt>
      <trkpt lat="44.26179" lon="5.61834">
        <ele>1118.5999755859</ele>
        <time>2019-10-11T09:00:05Z</time>
      </trkpt>
      <trkpt lat="44.26165" lon="5.61808">
        <ele>1116</ele>
        <time>2019-10-11T09:00:10Z</time>
      </trkpt>
      <trkpt lat="44.26151" lon="5.61786">
        <ele>1114</ele>
        <time>2019-10-11T09:00:15Z</time>
      </trkpt>
      <trkpt lat="44.2613" lon="5.61752">
        <ele>1111.8000488281</ele>
        <time>2019-10-11T09:00:20Z</time>
      </trkpt>
      <trkpt lat="44.26118" lon="5.61738">
        <ele>1111.5999755859</ele>
        <time>2019-10-11T09:00:22Z</time>
      </trkpt>
      <trkpt lat="44.26088" lon="5.61717">
        <ele>1110.1999511719</ele>
        <time>2019-10-11T09:00:26Z</time>
      </trkpt>
      <trkpt lat="44.26061" lon="5.61712">
        <ele>1109</ele>
        <time>2019-10-11T09:00:29Z</time>
      </trkpt>
      <trkpt lat="44.26036" lon="5.6168">
        <ele>1106.5999755859</ele>
        <time>2019-10-11T09:00:33Z</time>
      </trkpt>
      <trkpt lat="44.26024" lon="5.61661">
        <ele>1104.5999755859</ele>
        <time>2019-10-11T09:00:35Z</time>
      </trkpt>
      <trkpt lat="44.26001" lon="5.61644">
        <ele>1102.1999511719</ele>
        <time>2019-10-11T09:00:38Z</time>
      </trkpt>
      <trkpt lat="44.25975" lon="5.61631">
        <ele>1099.4000244141</ele>
        <time>2019-10-11T09:00:41Z</time>
      </trkpt>
      <trkpt lat="44.2595" lon="5.61627">
        <ele>1097.8000488281</ele>
        <time>2019-10-11T09:00:44Z</time>
      </trkpt>
      <trkpt lat="44.25934" lon="5.61634">
        <ele>1096</ele>
        <time>2019-10-11T09:00:46Z</time>
      </trkpt>
      <trkpt lat="44.25904" lon="5.61662">
        <ele>1093.5999755859</ele>
        <time>2019-10-11T09:00:50Z</time>
      </trkpt>
      <trkpt lat="44.25878" lon="5.61685">
        <ele>1091.1999511719</ele>
        <time>2019-10-11T09:00:53Z</time>
      </trkpt>
      <trkpt lat="44.25839" lon="5.61698">
        <ele>1089</ele>
        <time>2019-10-11T09:00:56Z</time>
      </trkpt>
      <trkpt lat="44.25799" lon="5.61693">
        <ele>1085.4000244141</ele>
        <time>2019-10-11T09:01:01Z</time>
      </trkpt>
      <trkpt lat="44.25782" lon="5.61695">
        <ele>1083.4000244141</ele>
        <time>2019-10-11T09:01:03Z</time>
      </trkpt>
      <trkpt lat="44.25765" lon="5.61702">
        <ele>1081.1999511719</ele>
        <time>2019-10-11T09:01:06Z</time>
      </trkpt>
      <trkpt lat="44.25763" lon="5.61716">
        <ele>1079.4000244141</ele>
        <time>2019-10-11T09:01:08Z</time>
      </trkpt>
      <trkpt lat="44.25784" lon="5.61722">
        <ele>1075.5999755859</ele>
        <time>2019-10-11T09:01:13Z</time>
      </trkpt>
      <trkpt lat="44.2581" lon="5.61726">
        <ele>1074.8000488281</ele>
        <time>2019-10-11T09:01:15Z</time>
      </trkpt>
      <trkpt lat="44.25834" lon="5.61745">
        <ele>1072.4000244141</ele>
        <time>2019-10-11T09:01:19Z</time>
      </trkpt>
      <trkpt lat="44.25881" lon="5.61755">
        <ele>1070.1999511719</ele>
        <time>2019-10-11T09:01:23Z</time>
      </trkpt>
      <trkpt lat="44.25907" lon="5.61757">
        <ele>1067.8000488281</ele>
        <time>2019-10-11T09:01:27Z</time>
      </trkpt>
      <trkpt lat="44.2592" lon="5.61772">
        <ele>1066.4000244141</ele>
        <time>2019-10-11T09:01:29Z</time>
      </trkpt>
      <trkpt lat="44.25928" lon="5.61835">
        <ele>1063.1999511719</ele>
        <time>2019-10-11T09:01:33Z</time>
      </trkpt>
      <trkpt lat="44.25926" lon="5.61862">
        <ele>1061.4000244141</ele>
        <time>2019-10-11T09:01:35Z</time>
      </trkpt>
      <trkpt lat="44.25941" lon="5.61927">
        <ele>1058</ele>
        <time>2019-10-11T09:01:41Z</time>
      </trkpt>
      <trkpt lat="44.25947" lon="5.61948">
        <ele>1057</ele>
        <time>2019-10-11T09:01:43Z</time>
      </trkpt>
      <trkpt lat="44.25936" lon="5.61967">
        <ele>1055.1999511719</ele>
        <time>2019-10-11T09:01:45Z</time>
      </trkpt>
      <trkpt lat="44.25922" lon="5.61985">
        <ele>1052.5999755859</ele>
        <time>2019-10-11T09:01:48Z</time>
      </trkpt>
      <trkpt lat="44.25912" lon="5.62006">
        <ele>1051.8000488281</ele>
        <time>2019-10-11T09:01:50Z</time>
      </trkpt>
      <trkpt lat="44.25881" lon="5.62066">
        <ele>1048.4000244141</ele>
        <time>2019-10-11T09:01:55Z</time>
      </trkpt>
      <trkpt lat="44.25859" lon="5.62104">
        <ele>1046</ele>
        <time>2019-10-11T09:01:58Z</time>
      </trkpt>
      <trkpt lat="44.25821" lon="5.62143">
        <ele>1042.1999511719</ele>
        <time>2019-10-11T09:02:02Z</time>
      </trkpt>
      <trkpt lat="44.25803" lon="5.62159">
        <ele>1041.1999511719</ele>
        <time>2019-10-11T09:02:04Z</time>
      </trkpt>
      <trkpt lat="44.25776" lon="5.62167">
        <ele>1038.1999511719</ele>
        <time>2019-10-11T09:02:07Z</time>
      </trkpt>
      <trkpt lat="44.25756" lon="5.62163">
        <ele>1036.1999511719</ele>
        <time>2019-10-11T09:02:09Z</time>
      </trkpt>
      <trkpt lat="44.25727" lon="5.62157">
        <ele>1032.1999511719</ele>
        <time>2019-10-11T09:02:12Z</time>
      </trkpt>
      <trkpt lat="44.25718" lon="5.62161">
        <ele>1029.8000488281</ele>
        <time>2019-10-11T09:02:14Z</time>
      </trkpt>
      <trkpt lat="44.25703" lon="5.62181">
        <ele>1026.4000244141</ele>
        <time>2019-10-11T09:02:17Z</time>
      </trkpt>
      <trkpt lat="44.25685" lon="5.62211">
        <ele>1022.200012207</ele>
        <time>2019-10-11T09:02:22Z</time>
      </trkpt>
      <trkpt lat="44.25678" lon="5.6222">
        <ele>1020.799987793</ele>
        <time>2019-10-11T09:02:24Z</time>
      </trkpt>
      <trkpt lat="44.25671" lon="5.62199">
        <ele>1018.200012207</ele>
        <time>2019-10-11T09:02:28Z</time>
      </trkpt>
      <trkpt lat="44.25677" lon="5.62182">
        <ele>1017.799987793</ele>
        <time>2019-10-11T09:02:30Z</time>
      </trkpt>
      <trkpt lat="44.25684" lon="5.6215">
        <ele>1016.5999755859</ele>
        <time>2019-10-11T09:02:33Z</time>
      </trkpt>
      <trkpt lat="44.25691" lon="5.62111">
        <ele>1015.200012207</ele>
        <time>2019-10-11T09:02:36Z</time>
      </trkpt>
      <trkpt lat="44.25709" lon="5.62046">
        <ele>1012.799987793</ele>
        <time>2019-10-11T09:02:41Z</time>
      </trkpt>
      <trkpt lat="44.2572" lon="5.62024">
        <ele>1011.4000244141</ele>
        <time>2019-10-11T09:02:43Z</time>
      </trkpt>
      <trkpt lat="44.25736" lon="5.61995">
        <ele>1008.5999755859</ele>
        <time>2019-10-11T09:02:46Z</time>
      </trkpt>
      <trkpt lat="44.25737" lon="5.61961">
        <ele>1005</ele>
        <time>2019-10-11T09:02:50Z</time>
      </trkpt>
      <trkpt lat="44.25686" lon="5.61977">
        <ele>1000.4000244141</ele>
        <time>2019-10-11T09:02:56Z</time>
      </trkpt>
      <trkpt lat="44.2566" lon="5.61986">
        <ele>997.79998779297</ele>
        <time>2019-10-11T09:03:00Z</time>
      </trkpt>
      <trkpt lat="44.25639" lon="5.61991">
        <ele>996.40002441406</ele>
        <time>2019-10-11T09:03:03Z</time>
      </trkpt>
      <trkpt lat="44.25624" lon="5.61992">
        <ele>995.20001220703</ele>
        <time>2019-10-11T09:03:05Z</time>
      </trkpt>
      <trkpt lat="44.25591" lon="5.61985">
        <ele>992.59997558594</ele>
        <time>2019-10-11T09:03:09Z</time>
      </trkpt>
      <trkpt lat="44.25548" lon="5.61997">
        <ele>989.40002441406</ele>
        <time>2019-10-11T09:03:13Z</time>
      </trkpt>
      <trkpt lat="44.25522" lon="5.62005">
        <ele>987.79998779297</ele>
        <time>2019-10-11T09:03:16Z</time>
      </trkpt>
      <trkpt lat="44.25501" lon="5.62006">
        <ele>985.79998779297</ele>
        <time>2019-10-11T09:03:20Z</time>
      </trkpt>
      <trkpt lat="44.25495" lon="5.62012">
        <ele>984</ele>
        <time>2019-10-11T09:03:22Z</time>
      </trkpt>
      <trkpt lat="44.25494" lon="5.62018">
        <ele>980.59997558594</ele>
        <time>2019-10-11T09:03:26Z</time>
      </trkpt>
      <trkpt lat="44.25502" lon="5.62022">
        <ele>975.59997558594</ele>
        <time>2019-10-11T09:04:24Z</time>
      </trkpt>
      <trkpt lat="44.25522" lon="5.62027">
        <ele>975.59997558594</ele>
        <time>2019-10-11T09:04:29Z</time>
      </trkpt>
      <trkpt lat="44.25546" lon="5.62028">
        <ele>975.20001220703</ele>
        <time>2019-10-11T09:04:33Z</time>
      </trkpt>
      <trkpt lat="44.25557" lon="5.62032">
        <ele>974.79998779297</ele>
        <time>2019-10-11T09:04:36Z</time>
      </trkpt>
      <trkpt lat="44.25555" lon="5.62045">
        <ele>973.59997558594</ele>
        <time>2019-10-11T09:04:39Z</time>
      </trkpt>
      <trkpt lat="44.25529" lon="5.62052">
        <ele>971.59997558594</ele>
        <time>2019-10-11T09:04:43Z</time>
      </trkpt>
      <trkpt lat="44.25503" lon="5.62052">
        <ele>970.59997558594</ele>
        <time>2019-10-11T09:04:46Z</time>
      </trkpt>
      <trkpt lat="44.25458" lon="5.62034">
        <ele>968.40002441406</ele>
        <time>2019-10-11T09:04:51Z</time>
      </trkpt>
      <trkpt lat="44.25431" lon="5.62017">
        <ele>965.79998779297</ele>
        <time>2019-10-11T09:04:54Z</time>
      </trkpt>
      <trkpt lat="44.25404" lon="5.62003">
        <ele>963.40002441406</ele>
        <time>2019-10-11T09:04:57Z</time>
      </trkpt>
      <trkpt lat="44.25363" lon="5.62016">
        <ele>960.20001220703</ele>
        <time>2019-10-11T09:05:02Z</time>
      </trkpt>
      <trkpt lat="44.25337" lon="5.62032">
        <ele>957.59997558594</ele>
        <time>2019-10-11T09:05:05Z</time>
      </trkpt>
      <trkpt lat="44.25287" lon="5.62039">
        <ele>953.40002441406</ele>
        <time>2019-10-11T09:05:10Z</time>
      </trkpt>
      <trkpt lat="44.25258" lon="5.62043">
        <ele>951.40002441406</ele>
        <time>2019-10-11T09:05:13Z</time>
      </trkpt>
      <trkpt lat="44.25234" lon="5.6205">
        <ele>949.20001220703</ele>
        <time>2019-10-11T09:05:16Z</time>
      </trkpt>
      <trkpt lat="44.2522" lon="5.62052">
        <ele>947.40002441406</ele>
        <time>2019-10-11T09:05:18Z</time>
      </trkpt>
      <trkpt lat="44.25188" lon="5.62045">
        <ele>944.40002441406</ele>
        <time>2019-10-11T09:05:22Z</time>
      </trkpt>
      <trkpt lat="44.25163" lon="5.62041">
        <ele>941.40002441406</ele>
        <time>2019-10-11T09:05:26Z</time>
      </trkpt>
      <trkpt lat="44.25122" lon="5.62043">
        <ele>936</ele>
        <time>2019-10-11T09:05:35Z</time>
      </trkpt>
      <trkpt lat="44.25111" lon="5.62045">
        <ele>934.40002441406</ele>
        <time>2019-10-11T09:05:38Z</time>
      </trkpt>
      <trkpt lat="44.25113" lon="5.62047">
        <ele>930.40002441406</ele>
        <time>2019-10-11T09:06:16Z</time>
      </trkpt>
      <trkpt lat="44.25098" lon="5.62047">
        <ele>930.59997558594</ele>
        <time>2019-10-11T09:06:23Z</time>
      </trkpt>
      <trkpt lat="44.25089" lon="5.62047">
        <ele>930.40002441406</ele>
        <time>2019-10-11T09:06:25Z</time>
      </trkpt>
      <trkpt lat="44.25069" lon="5.62076">
        <ele>930</ele>
        <time>2019-10-11T09:06:30Z</time>
      </trkpt>
      <trkpt lat="44.25065" lon="5.621">
        <ele>929.20001220703</ele>
        <time>2019-10-11T09:06:34Z</time>
      </trkpt>
      <trkpt lat="44.25053" lon="5.62174">
        <ele>929.20001220703</ele>
        <time>2019-10-11T09:06:47Z</time>
      </trkpt>
      <trkpt lat="44.25048" lon="5.62203">
        <ele>929.20001220703</ele>
        <time>2019-10-11T09:06:51Z</time>
      </trkpt>
      <trkpt lat="44.25033" lon="5.62258">
        <ele>928.79998779297</ele>
        <time>2019-10-11T09:06:58Z</time>
      </trkpt>
      <trkpt lat="44.25024" lon="5.62296">
        <ele>928.20001220703</ele>
        <time>2019-10-11T09:07:02Z</time>
      </trkpt>
      <trkpt lat="44.25006" lon="5.62371">
        <ele>926.59997558594</ele>
        <time>2019-10-11T09:07:09Z</time>
      </trkpt>
      <trkpt lat="44.24988" lon="5.6241">
        <ele>924.59997558594</ele>
        <time>2019-10-11T09:07:13Z</time>
      </trkpt>
      <trkpt lat="44.24975" lon="5.62436">
        <ele>923</ele>
        <time>2019-10-11T09:07:16Z</time>
      </trkpt>
      <trkpt lat="44.24945" lon="5.62448">
        <ele>920.59997558594</ele>
        <time>2019-10-11T09:07:20Z</time>
      </trkpt>
      <trkpt lat="44.249" lon="5.6246">
        <ele>917.20001220703</ele>
        <time>2019-10-11T09:07:26Z</time>
      </trkpt>
      <trkpt lat="44.24891" lon="5.62474">
        <ele>915.59997558594</ele>
        <time>2019-10-11T09:07:29Z</time>
      </trkpt>
      <trkpt lat="44.2489" lon="5.6249">
        <ele>914.59997558594</ele>
        <time>2019-10-11T09:07:31Z</time>
      </trkpt>
      <trkpt lat="44.24897" lon="5.62542">
        <ele>912.79998779297</ele>
        <time>2019-10-11T09:07:36Z</time>
      </trkpt>
      <trkpt lat="44.24902" lon="5.62579">
        <ele>911.40002441406</ele>
        <time>2019-10-11T09:07:39Z</time>
      </trkpt>
      <trkpt lat="44.24925" lon="5.62665">
        <ele>906.20001220703</ele>
        <time>2019-10-11T09:07:47Z</time>
      </trkpt>
      <trkpt lat="44.24926" lon="5.62685">
        <ele>904.59997558594</ele>
        <time>2019-10-11T09:07:50Z</time>
      </trkpt>
      <trkpt lat="44.24898" lon="5.62676">
        <ele>902.59997558594</ele>
        <time>2019-10-11T09:07:55Z</time>
      </trkpt>
      <trkpt lat="44.24882" lon="5.62666">
        <ele>901.20001220703</ele>
        <time>2019-10-11T09:07:58Z</time>
      </trkpt>
      <trkpt lat="44.24855" lon="5.62649">
        <ele>900.20001220703</ele>
        <time>2019-10-11T09:08:02Z</time>
      </trkpt>
      <trkpt lat="44.24839" lon="5.6264">
        <ele>899.79998779297</ele>
        <time>2019-10-11T09:08:04Z</time>
      </trkpt>
      <trkpt lat="44.24813" lon="5.62628">
        <ele>898.79998779297</ele>
        <time>2019-10-11T09:08:07Z</time>
      </trkpt>
      <trkpt lat="44.24796" lon="5.62619">
        <ele>897.59997558594</ele>
        <time>2019-10-11T09:08:09Z</time>
      </trkpt>
      <trkpt lat="44.24771" lon="5.62605">
        <ele>894.59997558594</ele>
        <time>2019-10-11T09:08:12Z</time>
      </trkpt>
      <trkpt lat="44.24754" lon="5.62592">
        <ele>892.20001220703</ele>
        <time>2019-10-11T09:08:14Z</time>
      </trkpt>
      <trkpt lat="44.2473" lon="5.62575">
        <ele>888.40002441406</ele>
        <time>2019-10-11T09:08:17Z</time>
      </trkpt>
      <trkpt lat="44.24705" lon="5.62564">
        <ele>883.79998779297</ele>
        <time>2019-10-11T09:08:21Z</time>
      </trkpt>
      <trkpt lat="44.24691" lon="5.62579">
        <ele>881.40002441406</ele>
        <time>2019-10-11T09:08:24Z</time>
      </trkpt>
      <trkpt lat="44.24683" lon="5.62594">
        <ele>878.59997558594</ele>
        <time>2019-10-11T09:08:27Z</time>
      </trkpt>
      <trkpt lat="44.24681" lon="5.62608">
        <ele>876.20001220703</ele>
        <time>2019-10-11T09:08:29Z</time>
      </trkpt>
      <trkpt lat="44.24681" lon="5.62635">
        <ele>873.59997558594</ele>
        <time>2019-10-11T09:08:32Z</time>
      </trkpt>
      <trkpt lat="44.24685" lon="5.62657">
        <ele>872.40002441406</ele>
        <time>2019-10-11T09:08:34Z</time>
      </trkpt>
      <trkpt lat="44.24701" lon="5.62717">
        <ele>869</ele>
        <time>2019-10-11T09:08:39Z</time>
      </trkpt>
      <trkpt lat="44.24712" lon="5.62753">
        <ele>866.20001220703</ele>
        <time>2019-10-11T09:08:42Z</time>
      </trkpt>
      <trkpt lat="44.24727" lon="5.62803">
        <ele>861.59997558594</ele>
        <time>2019-10-11T09:08:46Z</time>
      </trkpt>
      <trkpt lat="44.24734" lon="5.62827">
        <ele>859.40002441406</ele>
        <time>2019-10-11T09:08:48Z</time>
      </trkpt>
      <trkpt lat="44.24742" lon="5.62861">
        <ele>857.20001220703</ele>
        <time>2019-10-11T09:08:51Z</time>
      </trkpt>
      <trkpt lat="44.24741" lon="5.62885">
        <ele>854.79998779297</ele>
        <time>2019-10-11T09:08:53Z</time>
      </trkpt>
      <trkpt lat="44.24739" lon="5.62923">
        <ele>849.79998779297</ele>
        <time>2019-10-11T09:08:57Z</time>
      </trkpt>
      <trkpt lat="44.24746" lon="5.62944">
        <ele>847.40002441406</ele>
        <time>2019-10-11T09:08:59Z</time>
      </trkpt>
      <trkpt lat="44.24759" lon="5.62976">
        <ele>843.59997558594</ele>
        <time>2019-10-11T09:09:02Z</time>
      </trkpt>
      <trkpt lat="44.24769" lon="5.63009">
        <ele>840.40002441406</ele>
        <time>2019-10-11T09:09:05Z</time>
      </trkpt>
      <trkpt lat="44.24757" lon="5.63017">
        <ele>836.79998779297</ele>
        <time>2019-10-11T09:09:08Z</time>
      </trkpt>
      <trkpt lat="44.24743" lon="5.62999">
        <ele>833.59997558594</ele>
        <time>2019-10-11T09:09:11Z</time>
      </trkpt>
      <trkpt lat="44.24732" lon="5.62985">
        <ele>830.59997558594</ele>
        <time>2019-10-11T09:09:14Z</time>
      </trkpt>
      <trkpt lat="44.24701" lon="5.62953">
        <ele>826.59997558594</ele>
        <time>2019-10-11T09:09:20Z</time>
      </trkpt>
      <trkpt lat="44.24696" lon="5.62955">
        <ele>825.59997558594</ele>
        <time>2019-10-11T09:09:22Z</time>
      </trkpt>
      <trkpt lat="44.24696" lon="5.62984">
        <ele>822.59997558594</ele>
        <time>2019-10-11T09:09:26Z</time>
      </trkpt>
      <trkpt lat="44.24699" lon="5.63045">
        <ele>819.40002441406</ele>
        <time>2019-10-11T09:09:30Z</time>
      </trkpt>
      <trkpt lat="44.24699" lon="5.631">
        <ele>815.59997558594</ele>
        <time>2019-10-11T09:09:35Z</time>
      </trkpt>
      <trkpt lat="44.24702" lon="5.63121">
        <ele>814</ele>
        <time>2019-10-11T09:09:37Z</time>
      </trkpt>
      <trkpt lat="44.24723" lon="5.63171">
        <ele>810.20001220703</ele>
        <time>2019-10-11T09:09:42Z</time>
      </trkpt>
      <trkpt lat="44.24731" lon="5.63204">
        <ele>807.79998779297</ele>
        <time>2019-10-11T09:09:45Z</time>
      </trkpt>
      <trkpt lat="44.24733" lon="5.63226">
        <ele>806</ele>
        <time>2019-10-11T09:09:48Z</time>
      </trkpt>
      <trkpt lat="44.24729" lon="5.63294">
        <ele>803.40002441406</ele>
        <time>2019-10-11T09:09:55Z</time>
      </trkpt>
      <trkpt lat="44.2473" lon="5.63312">
        <ele>803</ele>
        <time>2019-10-11T09:09:57Z</time>
      </trkpt>
      <trkpt lat="44.24741" lon="5.63362">
        <ele>802.79998779297</ele>
        <time>2019-10-11T09:10:02Z</time>
      </trkpt>
      <trkpt lat="44.2474" lon="5.63396">
        <ele>802.40002441406</ele>
        <time>2019-10-11T09:10:05Z</time>
      </trkpt>
      <trkpt lat="44.24739" lon="5.63454">
        <ele>799.40002441406</ele>
        <time>2019-10-11T09:10:10Z</time>
      </trkpt>
      <trkpt lat="44.24744" lon="5.63504">
        <ele>796</ele>
        <time>2019-10-11T09:10:14Z</time>
      </trkpt>
      <trkpt lat="44.24735" lon="5.63566">
        <ele>792.79998779297</ele>
        <time>2019-10-11T09:10:19Z</time>
      </trkpt>
      <trkpt lat="44.24725" lon="5.63618">
        <ele>788.40002441406</ele>
        <time>2019-10-11T09:10:24Z</time>
      </trkpt>
      <trkpt lat="44.24725" lon="5.63646">
        <ele>787.79998779297</ele>
        <time>2019-10-11T09:10:28Z</time>
      </trkpt>
      <trkpt lat="44.24737" lon="5.63663">
        <ele>787.40002441406</ele>
        <time>2019-10-11T09:10:32Z</time>
      </trkpt>
      <trkpt lat="44.24737" lon="5.63663">
        <ele>787</ele>
        <time>2019-10-11T09:10:39Z</time>
      </trkpt>
      <trkpt lat="44.24736" lon="5.63662">
        <ele>786.40002441406</ele>
        <time>2019-10-11T09:10:41Z</time>
      </trkpt>
      <trkpt lat="44.24732" lon="5.63658">
        <ele>786</ele>
        <time>2019-10-11T09:10:45Z</time>
      </trkpt>
      <trkpt lat="44.24726" lon="5.6365">
        <ele>786.20001220703</ele>
        <time>2019-10-11T09:10:53Z</time>
      </trkpt>
      <trkpt lat="44.24724" lon="5.63642">
        <ele>786.59997558594</ele>
        <time>2019-10-11T09:11:07Z</time>
      </trkpt>
      <trkpt lat="44.24711" lon="5.63637">
        <ele>786.79998779297</ele>
        <time>2019-10-11T09:11:13Z</time>
      </trkpt>
      <trkpt lat="44.24704" lon="5.63647">
        <ele>786.59997558594</ele>
        <time>2019-10-11T09:11:16Z</time>
      </trkpt>
      <trkpt lat="44.24674" lon="5.63691">
        <ele>786</ele>
        <time>2019-10-11T09:11:25Z</time>
      </trkpt>
      <trkpt lat="44.24659" lon="5.63711">
        <ele>783.79998779297</ele>
        <time>2019-10-11T09:11:30Z</time>
      </trkpt>
      <trkpt lat="44.2464" lon="5.63739">
        <ele>780.79998779297</ele>
        <time>2019-10-11T09:11:37Z</time>
      </trkpt>
      <trkpt lat="44.24619" lon="5.63774">
        <ele>778.40002441406</ele>
        <time>2019-10-11T09:11:43Z</time>
      </trkpt>
      <trkpt lat="44.24594" lon="5.63816">
        <ele>775.20001220703</ele>
        <time>2019-10-11T09:11:50Z</time>
      </trkpt>
      <trkpt lat="44.24584" lon="5.63833">
        <ele>773.59997558594</ele>
        <time>2019-10-11T09:11:54Z</time>
      </trkpt>
      <trkpt lat="44.24572" lon="5.63846">
        <ele>772</ele>
        <time>2019-10-11T09:11:58Z</time>
      </trkpt>
      <trkpt lat="44.24556" lon="5.63863">
        <ele>769.59997558594</ele>
        <time>2019-10-11T09:12:04Z</time>
      </trkpt>
      <trkpt lat="44.2454" lon="5.63881">
        <ele>767.40002441406</ele>
        <time>2019-10-11T09:12:09Z</time>
      </trkpt>
      <trkpt lat="44.24522" lon="5.63899">
        <ele>766</ele>
        <time>2019-10-11T09:12:13Z</time>
      </trkpt>
      <trkpt lat="44.24505" lon="5.63915">
        <ele>764.20001220703</ele>
        <time>2019-10-11T09:12:17Z</time>
      </trkpt>
      <trkpt lat="44.24486" lon="5.63936">
        <ele>760</ele>
        <time>2019-10-11T09:12:22Z</time>
      </trkpt>
      <trkpt lat="44.24479" lon="5.63944">
        <ele>758.59997558594</ele>
        <time>2019-10-11T09:12:24Z</time>
      </trkpt>
      <trkpt lat="44.24467" lon="5.63961">
        <ele>754.79998779297</ele>
        <time>2019-10-11T09:12:29Z</time>
      </trkpt>
      <trkpt lat="44.24463" lon="5.63966">
        <ele>751.40002441406</ele>
        <time>2019-10-11T09:12:33Z</time>
      </trkpt>
      <trkpt lat="44.24472" lon="5.63974">
        <ele>748.59997558594</ele>
        <time>2019-10-11T09:12:39Z</time>
      </trkpt>
      <trkpt lat="44.24482" lon="5.6397">
        <ele>747.40002441406</ele>
        <time>2019-10-11T09:12:44Z</time>
      </trkpt>
      <trkpt lat="44.24492" lon="5.63966">
        <ele>747.20001220703</ele>
        <time>2019-10-11T09:12:48Z</time>
      </trkpt>
      <trkpt lat="44.24516" lon="5.63958">
        <ele>747.79998779297</ele>
        <time>2019-10-11T09:12:56Z</time>
      </trkpt>
      <trkpt lat="44.24535" lon="5.63953">
        <ele>748.59997558594</ele>
        <time>2019-10-11T09:13:01Z</time>
      </trkpt>
      <trkpt lat="44.24553" lon="5.63957">
        <ele>748.79998779297</ele>
        <time>2019-10-11T09:13:06Z</time>
      </trkpt>
      <trkpt lat="44.24589" lon="5.63974">
        <ele>749</ele>
        <time>2019-10-11T09:13:16Z</time>
      </trkpt>
      <trkpt lat="44.24612" lon="5.63988">
        <ele>748.79998779297</ele>
        <time>2019-10-11T09:13:21Z</time>
      </trkpt>
      <trkpt lat="44.24627" lon="5.63997">
        <ele>748.40002441406</ele>
        <time>2019-10-11T09:13:24Z</time>
      </trkpt>
      <trkpt lat="44.24673" lon="5.64036">
        <ele>747.79998779297</ele>
        <time>2019-10-11T09:13:33Z</time>
      </trkpt>
      <trkpt lat="44.24682" lon="5.64055">
        <ele>747.40002441406</ele>
        <time>2019-10-11T09:13:36Z</time>
      </trkpt>
      <trkpt lat="44.24693" lon="5.64125">
        <ele>745.59997558594</ele>
        <time>2019-10-11T09:13:45Z</time>
      </trkpt>
      <trkpt lat="44.24705" lon="5.6415">
        <ele>745.40002441406</ele>
        <time>2019-10-11T09:13:49Z</time>
      </trkpt>
      <trkpt lat="44.24738" lon="5.64185">
        <ele>745.40002441406</ele>
        <time>2019-10-11T09:13:57Z</time>
      </trkpt>
      <trkpt lat="44.24772" lon="5.64213">
        <ele>745.79998779297</ele>
        <time>2019-10-11T09:14:07Z</time>
      </trkpt>
      <trkpt lat="44.24797" lon="5.64235">
        <ele>746.59997558594</ele>
        <time>2019-10-11T09:14:16Z</time>
      </trkpt>
      <trkpt lat="44.2483" lon="5.64264">
        <ele>747.79998779297</ele>
        <time>2019-10-11T09:14:28Z</time>
      </trkpt>
      <trkpt lat="44.24868" lon="5.643">
        <ele>749.59997558594</ele>
        <time>2019-10-11T09:14:43Z</time>
      </trkpt>
      <trkpt lat="44.24889" lon="5.6432">
        <ele>750.40002441406</ele>
        <time>2019-10-11T09:14:52Z</time>
      </trkpt>
      <trkpt lat="44.24918" lon="5.6434">
        <ele>752</ele>
        <time>2019-10-11T09:15:04Z</time>
      </trkpt>
      <trkpt lat="44.24937" lon="5.64352">
        <ele>752.79998779297</ele>
        <time>2019-10-11T09:15:12Z</time>
      </trkpt>
      <trkpt lat="44.24953" lon="5.64361">
        <ele>754</ele>
        <time>2019-10-11T09:15:19Z</time>
      </trkpt>
      <trkpt lat="44.24982" lon="5.64378">
        <ele>756.20001220703</ele>
        <time>2019-10-11T09:15:32Z</time>
      </trkpt>
      <trkpt lat="44.24999" lon="5.64388">
        <ele>757</ele>
        <time>2019-10-11T09:15:40Z</time>
      </trkpt>
      <trkpt lat="44.25003" lon="5.64391">
        <ele>758</ele>
        <time>2019-10-11T09:15:46Z</time>
      </trkpt>
      <trkpt lat="44.24989" lon="5.64431">
        <ele>759.40002441406</ele>
        <time>2019-10-11T09:15:57Z</time>
      </trkpt>
      <trkpt lat="44.24971" lon="5.64474">
        <ele>760.40002441406</ele>
        <time>2019-10-11T09:16:11Z</time>
      </trkpt>
      <trkpt lat="44.24969" lon="5.64481">
        <ele>761.20001220703</ele>
        <time>2019-10-11T09:16:15Z</time>
      </trkpt>
      <trkpt lat="44.24967" lon="5.64489">
        <ele>762.40002441406</ele>
        <time>2019-10-11T09:16:46Z</time>
      </trkpt>
      <trkpt lat="44.24966" lon="5.64498">
        <ele>762.40002441406</ele>
        <time>2019-10-11T09:16:49Z</time>
      </trkpt>
      <trkpt lat="44.24965" lon="5.64512">
        <ele>763.20001220703</ele>
        <time>2019-10-11T09:16:55Z</time>
      </trkpt>
      <trkpt lat="44.24966" lon="5.64528">
        <ele>765</ele>
        <time>2019-10-11T09:17:02Z</time>
      </trkpt>
      <trkpt lat="44.24967" lon="5.64546">
        <ele>766.79998779297</ele>
        <time>2019-10-11T09:17:10Z</time>
      </trkpt>
      <trkpt lat="44.24968" lon="5.64557">
        <ele>768</ele>
        <time>2019-10-11T09:17:16Z</time>
      </trkpt>
      <trkpt lat="44.24968" lon="5.64575">
        <ele>770</ele>
        <time>2019-10-11T09:17:24Z</time>
      </trkpt>
      <trkpt lat="44.24969" lon="5.64606">
        <ele>771.79998779297</ele>
        <time>2019-10-11T09:17:36Z</time>
      </trkpt>
      <trkpt lat="44.24969" lon="5.64636">
        <ele>773.20001220703</ele>
        <time>2019-10-11T09:17:46Z</time>
      </trkpt>
      <trkpt lat="44.24968" lon="5.64679">
        <ele>774.20001220703</ele>
        <time>2019-10-11T09:17:59Z</time>
      </trkpt>
      <trkpt lat="44.24967" lon="5.64693">
        <ele>774.40002441406</ele>
        <time>2019-10-11T09:18:03Z</time>
      </trkpt>
      <trkpt lat="44.24962" lon="5.64721">
        <ele>775.59997558594</ele>
        <time>2019-10-11T09:18:15Z</time>
      </trkpt>
      <trkpt lat="44.2496" lon="5.6473">
        <ele>775.79998779297</ele>
        <time>2019-10-11T09:18:18Z</time>
      </trkpt>
      <trkpt lat="44.24949" lon="5.64771">
        <ele>776.20001220703</ele>
        <time>2019-10-11T09:18:29Z</time>
      </trkpt>
      <trkpt lat="44.24943" lon="5.64791">
        <ele>776.40002441406</ele>
        <time>2019-10-11T09:18:34Z</time>
      </trkpt>
      <trkpt lat="44.24928" lon="5.64844">
        <ele>777.20001220703</ele>
        <time>2019-10-11T09:18:48Z</time>
      </trkpt>
      <trkpt lat="44.24918" lon="5.64887">
        <ele>777.59997558594</ele>
        <time>2019-10-11T09:19:02Z</time>
      </trkpt>
      <trkpt lat="44.2491" lon="5.64933">
        <ele>779</ele>
        <time>2019-10-11T09:19:16Z</time>
      </trkpt>
      <trkpt lat="44.24902" lon="5.64967">
        <ele>779.79998779297</ele>
        <time>2019-10-11T09:19:27Z</time>
      </trkpt>
      <trkpt lat="44.24891" lon="5.64998">
        <ele>781.20001220703</ele>
        <time>2019-10-11T09:19:39Z</time>
      </trkpt>
      <trkpt lat="44.24889" lon="5.65014">
        <ele>781.79998779297</ele>
        <time>2019-10-11T09:19:46Z</time>
      </trkpt>
      <trkpt lat="44.24893" lon="5.65004">
        <ele>783</ele>
        <time>2019-10-11T09:21:25Z</time>
      </trkpt>
      <trkpt lat="44.24906" lon="5.64952">
        <ele>781.79998779297</ele>
        <time>2019-10-11T09:21:39Z</time>
      </trkpt>
      <trkpt lat="44.24911" lon="5.64927">
        <ele>781.20001220703</ele>
        <time>2019-10-11T09:21:45Z</time>
      </trkpt>
      <trkpt lat="44.24925" lon="5.64854">
        <ele>779.20001220703</ele>
        <time>2019-10-11T09:22:01Z</time>
      </trkpt>
      <trkpt lat="44.2493" lon="5.64835">
        <ele>778.59997558594</ele>
        <time>2019-10-11T09:22:06Z</time>
      </trkpt>
      <trkpt lat="44.24952" lon="5.64762">
        <ele>776.79998779297</ele>
        <time>2019-10-11T09:22:26Z</time>
      </trkpt>
      <trkpt lat="44.24959" lon="5.64732">
        <ele>776.59997558594</ele>
        <time>2019-10-11T09:22:34Z</time>
      </trkpt>
      <trkpt lat="44.24966" lon="5.64702">
        <ele>776.59997558594</ele>
        <time>2019-10-11T09:22:42Z</time>
      </trkpt>
      <trkpt lat="44.24967" lon="5.64689">
        <ele>776.59997558594</ele>
        <time>2019-10-11T09:22:46Z</time>
      </trkpt>
      <trkpt lat="44.24969" lon="5.64637">
        <ele>775</ele>
        <time>2019-10-11T09:22:58Z</time>
      </trkpt>
      <trkpt lat="44.24969" lon="5.64611">
        <ele>774.79998779297</ele>
        <time>2019-10-11T09:23:06Z</time>
      </trkpt>
      <trkpt lat="44.24969" lon="5.64586">
        <ele>774.20001220703</ele>
        <time>2019-10-11T09:23:13Z</time>
      </trkpt>
      <trkpt lat="44.24968" lon="5.64567">
        <ele>774</ele>
        <time>2019-10-11T09:23:17Z</time>
      </trkpt>
      <trkpt lat="44.24967" lon="5.64542">
        <ele>773</ele>
        <time>2019-10-11T09:23:22Z</time>
      </trkpt>
      <trkpt lat="44.24965" lon="5.64507">
        <ele>770.59997558594</ele>
        <time>2019-10-11T09:23:29Z</time>
      </trkpt>
      <trkpt lat="44.24966" lon="5.64495">
        <ele>768.79998779297</ele>
        <time>2019-10-11T09:23:33Z</time>
      </trkpt>
      <trkpt lat="44.24972" lon="5.64472">
        <ele>766.40002441406</ele>
        <time>2019-10-11T09:23:38Z</time>
      </trkpt>
      <trkpt lat="44.24977" lon="5.64455">
        <ele>765</ele>
        <time>2019-10-11T09:23:41Z</time>
      </trkpt>
      <trkpt lat="44.24991" lon="5.64428">
        <ele>763</ele>
        <time>2019-10-11T09:23:46Z</time>
      </trkpt>
      <trkpt lat="44.25003" lon="5.64391">
        <ele>760.40002441406</ele>
        <time>2019-10-11T09:23:54Z</time>
      </trkpt>
      <trkpt lat="44.24991" lon="5.64384">
        <ele>760</ele>
        <time>2019-10-11T09:24:00Z</time>
      </trkpt>
      <trkpt lat="44.24972" lon="5.64372">
        <ele>759.59997558594</ele>
        <time>2019-10-11T09:24:05Z</time>
      </trkpt>
      <trkpt lat="44.24932" lon="5.64349">
        <ele>757.40002441406</ele>
        <time>2019-10-11T09:24:16Z</time>
      </trkpt>
      <trkpt lat="44.24899" lon="5.64329">
        <ele>756.40002441406</ele>
        <time>2019-10-11T09:24:22Z</time>
      </trkpt>
      <trkpt lat="44.2484" lon="5.64273">
        <ele>754</ele>
        <time>2019-10-11T09:24:31Z</time>
      </trkpt>
      <trkpt lat="44.24787" lon="5.64227">
        <ele>751.59997558594</ele>
        <time>2019-10-11T09:24:40Z</time>
      </trkpt>
      <trkpt lat="44.24754" lon="5.64198">
        <ele>750.59997558594</ele>
        <time>2019-10-11T09:24:45Z</time>
      </trkpt>
      <trkpt lat="44.24697" lon="5.64137">
        <ele>748.20001220703</ele>
        <time>2019-10-11T09:24:55Z</time>
      </trkpt>
      <trkpt lat="44.24693" lon="5.64122">
        <ele>747.59997558594</ele>
        <time>2019-10-11T09:24:58Z</time>
      </trkpt>
      <trkpt lat="44.2469" lon="5.64094">
        <ele>746.40002441406</ele>
        <time>2019-10-11T09:25:03Z</time>
      </trkpt>
      <trkpt lat="44.24684" lon="5.64064">
        <ele>746.20001220703</ele>
        <time>2019-10-11T09:25:09Z</time>
      </trkpt>
      <trkpt lat="44.24663" lon="5.64026">
        <ele>746.20001220703</ele>
        <time>2019-10-11T09:25:16Z</time>
      </trkpt>
      <trkpt lat="44.24641" lon="5.64006">
        <ele>746.20001220703</ele>
        <time>2019-10-11T09:25:22Z</time>
      </trkpt>
      <trkpt lat="44.24619" lon="5.63992">
        <ele>747</ele>
        <time>2019-10-11T09:25:28Z</time>
      </trkpt>
      <trkpt lat="44.24604" lon="5.63983">
        <ele>747.59997558594</ele>
        <time>2019-10-11T09:25:32Z</time>
      </trkpt>
      <trkpt lat="44.24581" lon="5.6397">
        <ele>749</ele>
        <time>2019-10-11T09:25:39Z</time>
      </trkpt>
      <trkpt lat="44.24534" lon="5.63953">
        <ele>750.20001220703</ele>
        <time>2019-10-11T09:25:50Z</time>
      </trkpt>
      <trkpt lat="44.24509" lon="5.63961">
        <ele>750.79998779297</ele>
        <time>2019-10-11T09:25:56Z</time>
      </trkpt>
      <trkpt lat="44.24491" lon="5.63967">
        <ele>750.79998779297</ele>
        <time>2019-10-11T09:26:00Z</time>
      </trkpt>
      <trkpt lat="44.24476" lon="5.63972">
        <ele>750.59997558594</ele>
        <time>2019-10-11T09:26:04Z</time>
      </trkpt>
      <trkpt lat="44.24445" lon="5.63983">
        <ele>750</ele>
        <time>2019-10-11T09:26:11Z</time>
      </trkpt>
      <trkpt lat="44.24435" lon="5.63987">
        <ele>749</ele>
        <time>2019-10-11T09:26:15Z</time>
      </trkpt>
      <trkpt lat="44.24427" lon="5.6399">
        <ele>745.79998779297</ele>
        <time>2019-10-11T09:27:05Z</time>
      </trkpt>
      <trkpt lat="44.2441" lon="5.63996">
        <ele>745.79998779297</ele>
        <time>2019-10-11T09:27:08Z</time>
      </trkpt>
      <trkpt lat="44.24368" lon="5.64014">
        <ele>744.79998779297</ele>
        <time>2019-10-11T09:27:16Z</time>
      </trkpt>
      <trkpt lat="44.24356" lon="5.64019">
        <ele>744</ele>
        <time>2019-10-11T09:27:18Z</time>
      </trkpt>
      <trkpt lat="44.24342" lon="5.64017">
        <ele>743.20001220703</ele>
        <time>2019-10-11T09:27:22Z</time>
      </trkpt>
      <trkpt lat="44.2434" lon="5.64009">
        <ele>742.59997558594</ele>
        <time>2019-10-11T09:27:24Z</time>
      </trkpt>
      <trkpt lat="44.24354" lon="5.63987">
        <ele>740.40002441406</ele>
        <time>2019-10-11T09:27:28Z</time>
      </trkpt>
      <trkpt lat="44.24379" lon="5.63958">
        <ele>738.20001220703</ele>
        <time>2019-10-11T09:27:32Z</time>
      </trkpt>
      <trkpt lat="44.24394" lon="5.63926">
        <ele>736.79998779297</ele>
        <time>2019-10-11T09:27:35Z</time>
      </trkpt>
      <trkpt lat="44.24409" lon="5.63875">
        <ele>735</ele>
        <time>2019-10-11T09:27:39Z</time>
      </trkpt>
      <trkpt lat="44.24422" lon="5.63805">
        <ele>732</ele>
        <time>2019-10-11T09:27:44Z</time>
      </trkpt>
      <trkpt lat="44.24415" lon="5.63782">
        <ele>730.59997558594</ele>
        <time>2019-10-11T09:27:46Z</time>
      </trkpt>
      <trkpt lat="44.24406" lon="5.63764">
        <ele>730</ele>
        <time>2019-10-11T09:27:48Z</time>
      </trkpt>
      <trkpt lat="44.24386" lon="5.63741">
        <ele>727.20001220703</ele>
        <time>2019-10-11T09:27:52Z</time>
      </trkpt>
      <trkpt lat="44.24362" lon="5.63727">
        <ele>725.20001220703</ele>
        <time>2019-10-11T09:27:55Z</time>
      </trkpt>
      <trkpt lat="44.24308" lon="5.63727">
        <ele>721.59997558594</ele>
        <time>2019-10-11T09:28:01Z</time>
      </trkpt>
      <trkpt lat="44.24286" lon="5.63719">
        <ele>720.40002441406</ele>
        <time>2019-10-11T09:28:04Z</time>
      </trkpt>
      <trkpt lat="44.24248" lon="5.63677">
        <ele>718</ele>
        <time>2019-10-11T09:28:09Z</time>
      </trkpt>
      <trkpt lat="44.24229" lon="5.63642">
        <ele>716.40002441406</ele>
        <time>2019-10-11T09:28:13Z</time>
      </trkpt>
      <trkpt lat="44.2421" lon="5.63577">
        <ele>712.40002441406</ele>
        <time>2019-10-11T09:28:19Z</time>
      </trkpt>
      <trkpt lat="44.24204" lon="5.63557">
        <ele>711</ele>
        <time>2019-10-11T09:28:22Z</time>
      </trkpt>
      <trkpt lat="44.24188" lon="5.63532">
        <ele>709.20001220703</ele>
        <time>2019-10-11T09:28:26Z</time>
      </trkpt>
      <trkpt lat="44.24176" lon="5.63531">
        <ele>708.20001220703</ele>
        <time>2019-10-11T09:28:28Z</time>
      </trkpt>
      <trkpt lat="44.24144" lon="5.63556">
        <ele>705.20001220703</ele>
        <time>2019-10-11T09:28:33Z</time>
      </trkpt>
      <trkpt lat="44.24119" lon="5.63566">
        <ele>703</ele>
        <time>2019-10-11T09:28:37Z</time>
      </trkpt>
      <trkpt lat="44.24109" lon="5.63569">
        <ele>702.59997558594</ele>
        <time>2019-10-11T09:28:39Z</time>
      </trkpt>
      <trkpt lat="44.24106" lon="5.63591">
        <ele>700</ele>
        <time>2019-10-11T09:28:44Z</time>
      </trkpt>
      <trkpt lat="44.24136" lon="5.63637">
        <ele>697.20001220703</ele>
        <time>2019-10-11T09:28:52Z</time>
      </trkpt>
      <trkpt lat="44.24147" lon="5.63662">
        <ele>697.20001220703</ele>
        <time>2019-10-11T09:28:56Z</time>
      </trkpt>
      <trkpt lat="44.24151" lon="5.63673">
        <ele>697.40002441406</ele>
        <time>2019-10-11T09:28:59Z</time>
      </trkpt>
      <trkpt lat="44.24161" lon="5.63702">
        <ele>697.40002441406</ele>
        <time>2019-10-11T09:29:04Z</time>
      </trkpt>
      <trkpt lat="44.24175" lon="5.6374">
        <ele>697.59997558594</ele>
        <time>2019-10-11T09:29:10Z</time>
      </trkpt>
      <trkpt lat="44.24199" lon="5.63831">
        <ele>696.79998779297</ele>
        <time>2019-10-11T09:29:22Z</time>
      </trkpt>
      <trkpt lat="44.24197" lon="5.63862">
        <ele>696.59997558594</ele>
        <time>2019-10-11T09:29:26Z</time>
      </trkpt>
      <trkpt lat="44.24184" lon="5.63892">
        <ele>696.40002441406</ele>
        <time>2019-10-11T09:29:31Z</time>
      </trkpt>
      <trkpt lat="44.24127" lon="5.6398">
        <ele>696</ele>
        <time>2019-10-11T09:29:44Z</time>
      </trkpt>
      <trkpt lat="44.24088" lon="5.64082">
        <ele>695.20001220703</ele>
        <time>2019-10-11T09:29:58Z</time>
      </trkpt>
      <trkpt lat="44.2407" lon="5.64131">
        <ele>695.20001220703</ele>
        <time>2019-10-11T09:30:06Z</time>
      </trkpt>
      <trkpt lat="44.24029" lon="5.64218">
        <ele>695.20001220703</ele>
        <time>2019-10-11T09:30:18Z</time>
      </trkpt>
      <trkpt lat="44.24024" lon="5.6427">
        <ele>695.20001220703</ele>
        <time>2019-10-11T09:30:25Z</time>
      </trkpt>
      <trkpt lat="44.24034" lon="5.64322">
        <ele>695.20001220703</ele>
        <time>2019-10-11T09:30:32Z</time>
      </trkpt>
      <trkpt lat="44.24066" lon="5.64405">
        <ele>695</ele>
        <time>2019-10-11T09:30:45Z</time>
      </trkpt>
      <trkpt lat="44.24139" lon="5.64492">
        <ele>694.79998779297</ele>
        <time>2019-10-11T09:31:01Z</time>
      </trkpt>
      <trkpt lat="44.24204" lon="5.64581">
        <ele>694.20001220703</ele>
        <time>2019-10-11T09:31:16Z</time>
      </trkpt>
      <trkpt lat="44.24243" lon="5.6468">
        <ele>694</ele>
        <time>2019-10-11T09:31:30Z</time>
      </trkpt>
      <trkpt lat="44.2425" lon="5.64737">
        <ele>693.79998779297</ele>
        <time>2019-10-11T09:31:38Z</time>
      </trkpt>
      <trkpt lat="44.24252" lon="5.64771">
        <ele>693.79998779297</ele>
        <time>2019-10-11T09:31:43Z</time>
      </trkpt>
      <trkpt lat="44.24279" lon="5.6484">
        <ele>693.59997558594</ele>
        <time>2019-10-11T09:31:52Z</time>
      </trkpt>
      <trkpt lat="44.24294" lon="5.64866">
        <ele>693.40002441406</ele>
        <time>2019-10-11T09:31:56Z</time>
      </trkpt>
      <trkpt lat="44.24322" lon="5.64941">
        <ele>692.79998779297</ele>
        <time>2019-10-11T09:32:06Z</time>
      </trkpt>
      <trkpt lat="44.24351" lon="5.6506">
        <ele>692.79998779297</ele>
        <time>2019-10-11T09:32:21Z</time>
      </trkpt>
      <trkpt lat="44.24343" lon="5.6519">
        <ele>693</ele>
        <time>2019-10-11T09:32:36Z</time>
      </trkpt>
      <trkpt lat="44.24327" lon="5.65282">
        <ele>692.79998779297</ele>
        <time>2019-10-11T09:32:47Z</time>
      </trkpt>
      <trkpt lat="44.24328" lon="5.65327">
        <ele>692.59997558594</ele>
        <time>2019-10-11T09:32:53Z</time>
      </trkpt>
      <trkpt lat="44.24358" lon="5.65402">
        <ele>691.79998779297</ele>
        <time>2019-10-11T09:33:01Z</time>
      </trkpt>
      <trkpt lat="44.24415" lon="5.65512">
        <ele>689.59997558594</ele>
        <time>2019-10-11T09:33:15Z</time>
      </trkpt>
      <trkpt lat="44.24443" lon="5.65569">
        <ele>689.20001220703</ele>
        <time>2019-10-11T09:33:23Z</time>
      </trkpt>
      <trkpt lat="44.24475" lon="5.65654">
        <ele>688.40002441406</ele>
        <time>2019-10-11T09:33:33Z</time>
      </trkpt>
      <trkpt lat="44.24488" lon="5.65712">
        <ele>687.79998779297</ele>
        <time>2019-10-11T09:33:39Z</time>
      </trkpt>
      <trkpt lat="44.24478" lon="5.65759">
        <ele>687.59997558594</ele>
        <time>2019-10-11T09:33:43Z</time>
      </trkpt>
      <trkpt lat="44.24424" lon="5.65825">
        <ele>686.59997558594</ele>
        <time>2019-10-11T09:33:52Z</time>
      </trkpt>
      <trkpt lat="44.24395" lon="5.65856">
        <ele>686.20001220703</ele>
        <time>2019-10-11T09:33:57Z</time>
      </trkpt>
      <trkpt lat="44.24374" lon="5.65898">
        <ele>685.20001220703</ele>
        <time>2019-10-11T09:34:02Z</time>
      </trkpt>
      <trkpt lat="44.2437" lon="5.65928">
        <ele>685</ele>
        <time>2019-10-11T09:34:05Z</time>
      </trkpt>
      <trkpt lat="44.24376" lon="5.65966">
        <ele>683.79998779297</ele>
        <time>2019-10-11T09:34:09Z</time>
      </trkpt>
      <trkpt lat="44.24387" lon="5.65994">
        <ele>683.20001220703</ele>
        <time>2019-10-11T09:34:12Z</time>
      </trkpt>
      <trkpt lat="44.24412" lon="5.6604">
        <ele>682.20001220703</ele>
        <time>2019-10-11T09:34:17Z</time>
      </trkpt>
      <trkpt lat="44.2442" lon="5.66083">
        <ele>681.20001220703</ele>
        <time>2019-10-11T09:34:21Z</time>
      </trkpt>
      <trkpt lat="44.24431" lon="5.66183">
        <ele>678.79998779297</ele>
        <time>2019-10-11T09:34:31Z</time>
      </trkpt>
      <trkpt lat="44.24472" lon="5.66256">
        <ele>678.40002441406</ele>
        <time>2019-10-11T09:34:41Z</time>
      </trkpt>
      <trkpt lat="44.24496" lon="5.66298">
        <ele>678.20001220703</ele>
        <time>2019-10-11T09:34:47Z</time>
      </trkpt>
      <trkpt lat="44.24539" lon="5.66352">
        <ele>677.79998779297</ele>
        <time>2019-10-11T09:34:56Z</time>
      </trkpt>
      <trkpt lat="44.24588" lon="5.66366">
        <ele>677.59997558594</ele>
        <time>2019-10-11T09:35:04Z</time>
      </trkpt>
      <trkpt lat="44.24636" lon="5.66363">
        <ele>677.20001220703</ele>
        <time>2019-10-11T09:35:12Z</time>
      </trkpt>
      <trkpt lat="44.24668" lon="5.66368">
        <ele>676.20001220703</ele>
        <time>2019-10-11T09:35:16Z</time>
      </trkpt>
      <trkpt lat="44.24694" lon="5.6639">
        <ele>675.20001220703</ele>
        <time>2019-10-11T09:35:21Z</time>
      </trkpt>
      <trkpt lat="44.24701" lon="5.66406">
        <ele>675</ele>
        <time>2019-10-11T09:35:24Z</time>
      </trkpt>
      <trkpt lat="44.24705" lon="5.66489">
        <ele>674.59997558594</ele>
        <time>2019-10-11T09:35:32Z</time>
      </trkpt>
      <trkpt lat="44.24694" lon="5.66526">
        <ele>674.40002441406</ele>
        <time>2019-10-11T09:35:36Z</time>
      </trkpt>
      <trkpt lat="44.24665" lon="5.66572">
        <ele>673.79998779297</ele>
        <time>2019-10-11T09:35:42Z</time>
      </trkpt>
      <trkpt lat="44.24641" lon="5.66616">
        <ele>673.40002441406</ele>
        <time>2019-10-11T09:35:48Z</time>
      </trkpt>
      <trkpt lat="44.2464" lon="5.66633">
        <ele>673.40002441406</ele>
        <time>2019-10-11T09:35:51Z</time>
      </trkpt>
      <trkpt lat="44.24658" lon="5.66655">
        <ele>672.79998779297</ele>
        <time>2019-10-11T09:35:55Z</time>
      </trkpt>
      <trkpt lat="44.24692" lon="5.66664">
        <ele>672.79998779297</ele>
        <time>2019-10-11T09:35:59Z</time>
      </trkpt>
      <trkpt lat="44.24767" lon="5.66699">
        <ele>672.20001220703</ele>
        <time>2019-10-11T09:36:12Z</time>
      </trkpt>
      <trkpt lat="44.24787" lon="5.6674">
        <ele>672.20001220703</ele>
        <time>2019-10-11T09:36:16Z</time>
      </trkpt>
      <trkpt lat="44.24791" lon="5.66781">
        <ele>672</ele>
        <time>2019-10-11T09:36:20Z</time>
      </trkpt>
      <trkpt lat="44.24789" lon="5.66812">
        <ele>671.40002441406</ele>
        <time>2019-10-11T09:36:23Z</time>
      </trkpt>
      <trkpt lat="44.24752" lon="5.66915">
        <ele>670.40002441406</ele>
        <time>2019-10-11T09:36:35Z</time>
      </trkpt>
      <trkpt lat="44.24717" lon="5.67007">
        <ele>669</ele>
        <time>2019-10-11T09:36:46Z</time>
      </trkpt>
      <trkpt lat="44.247" lon="5.67134">
        <ele>667.59997558594</ele>
        <time>2019-10-11T09:37:00Z</time>
      </trkpt>
      <trkpt lat="44.24695" lon="5.6716">
        <ele>667.59997558594</ele>
        <time>2019-10-11T09:37:03Z</time>
      </trkpt>
      <trkpt lat="44.24665" lon="5.67222">
        <ele>667.20001220703</ele>
        <time>2019-10-11T09:37:11Z</time>
      </trkpt>
      <trkpt lat="44.24633" lon="5.6733">
        <ele>666.59997558594</ele>
        <time>2019-10-11T09:37:24Z</time>
      </trkpt>
      <trkpt lat="44.246" lon="5.67416">
        <ele>666</ele>
        <time>2019-10-11T09:37:35Z</time>
      </trkpt>
      <trkpt lat="44.24546" lon="5.67516">
        <ele>666.20001220703</ele>
        <time>2019-10-11T09:37:50Z</time>
      </trkpt>
      <trkpt lat="44.24541" lon="5.67584">
        <ele>666.40002441406</ele>
        <time>2019-10-11T09:37:58Z</time>
      </trkpt>
      <trkpt lat="44.24542" lon="5.67628">
        <ele>666.40002441406</ele>
        <time>2019-10-11T09:38:03Z</time>
      </trkpt>
      <trkpt lat="44.24534" lon="5.67685">
        <ele>665.40002441406</ele>
        <time>2019-10-11T09:38:10Z</time>
      </trkpt>
      <trkpt lat="44.24521" lon="5.67784">
        <ele>665</ele>
        <time>2019-10-11T09:38:22Z</time>
      </trkpt>
      <trkpt lat="44.24519" lon="5.67846">
        <ele>665.20001220703</ele>
        <time>2019-10-11T09:38:29Z</time>
      </trkpt>
      <trkpt lat="44.2452" lon="5.67946">
        <ele>664.59997558594</ele>
        <time>2019-10-11T09:38:39Z</time>
      </trkpt>
      <trkpt lat="44.24531" lon="5.68089">
        <ele>663</ele>
        <time>2019-10-11T09:38:53Z</time>
      </trkpt>
      <trkpt lat="44.24566" lon="5.68233">
        <ele>661.40002441406</ele>
        <time>2019-10-11T09:39:09Z</time>
      </trkpt>
      <trkpt lat="44.24578" lon="5.68286">
        <ele>661.20001220703</ele>
        <time>2019-10-11T09:39:15Z</time>
      </trkpt>
      <trkpt lat="44.24608" lon="5.6841">
        <ele>660.40002441406</ele>
        <time>2019-10-11T09:39:29Z</time>
      </trkpt>
      <trkpt lat="44.24613" lon="5.68435">
        <ele>660.20001220703</ele>
        <time>2019-10-11T09:39:32Z</time>
      </trkpt>
      <trkpt lat="44.2462" lon="5.68555">
        <ele>660</ele>
        <time>2019-10-11T09:39:45Z</time>
      </trkpt>
      <trkpt lat="44.24623" lon="5.68636">
        <ele>658.79998779297</ele>
        <time>2019-10-11T09:39:54Z</time>
      </trkpt>
      <trkpt lat="44.24631" lon="5.68717">
        <ele>658.40002441406</ele>
        <time>2019-10-11T09:40:02Z</time>
      </trkpt>
      <trkpt lat="44.24646" lon="5.68862">
        <ele>657.40002441406</ele>
        <time>2019-10-11T09:40:17Z</time>
      </trkpt>
      <trkpt lat="44.24654" lon="5.68936">
        <ele>657.20001220703</ele>
        <time>2019-10-11T09:40:25Z</time>
      </trkpt>
      <trkpt lat="44.24669" lon="5.69075">
        <ele>656.40002441406</ele>
        <time>2019-10-11T09:40:40Z</time>
      </trkpt>
      <trkpt lat="44.24685" lon="5.69143">
        <ele>656</ele>
        <time>2019-10-11T09:40:48Z</time>
      </trkpt>
      <trkpt lat="44.24754" lon="5.69301">
        <ele>655</ele>
        <time>2019-10-11T09:41:08Z</time>
      </trkpt>
      <trkpt lat="44.24777" lon="5.69361">
        <ele>654.79998779297</ele>
        <time>2019-10-11T09:41:16Z</time>
      </trkpt>
      <trkpt lat="44.24794" lon="5.69439">
        <ele>655</ele>
        <time>2019-10-11T09:41:27Z</time>
      </trkpt>
      <trkpt lat="44.24797" lon="5.6949">
        <ele>655.59997558594</ele>
        <time>2019-10-11T09:41:34Z</time>
      </trkpt>
      <trkpt lat="44.24768" lon="5.69632">
        <ele>654.59997558594</ele>
        <time>2019-10-11T09:41:51Z</time>
      </trkpt>
      <trkpt lat="44.24742" lon="5.69715">
        <ele>654</ele>
        <time>2019-10-11T09:42:01Z</time>
      </trkpt>
      <trkpt lat="44.24732" lon="5.69765">
        <ele>654</ele>
        <time>2019-10-11T09:42:07Z</time>
      </trkpt>
      <trkpt lat="44.24717" lon="5.69873">
        <ele>653.40002441406</ele>
        <time>2019-10-11T09:42:20Z</time>
      </trkpt>
      <trkpt lat="44.24724" lon="5.69905">
        <ele>653.40002441406</ele>
        <time>2019-10-11T09:42:24Z</time>
      </trkpt>
      <trkpt lat="44.2477" lon="5.70008">
        <ele>652.79998779297</ele>
        <time>2019-10-11T09:42:38Z</time>
      </trkpt>
      <trkpt lat="44.24796" lon="5.70043">
        <ele>652.40002441406</ele>
        <time>2019-10-11T09:42:44Z</time>
      </trkpt>
      <trkpt lat="44.24838" lon="5.70096">
        <ele>652</ele>
        <time>2019-10-11T09:42:53Z</time>
      </trkpt>
      <trkpt lat="44.24847" lon="5.70121">
        <ele>651.79998779297</ele>
        <time>2019-10-11T09:42:56Z</time>
      </trkpt>
      <trkpt lat="44.24855" lon="5.70219">
        <ele>651</ele>
        <time>2019-10-11T09:43:07Z</time>
      </trkpt>
      <trkpt lat="44.24851" lon="5.70254">
        <ele>650.79998779297</ele>
        <time>2019-10-11T09:43:11Z</time>
      </trkpt>
      <trkpt lat="44.24825" lon="5.70318">
        <ele>650.40002441406</ele>
        <time>2019-10-11T09:43:19Z</time>
      </trkpt>
      <trkpt lat="44.24802" lon="5.70363">
        <ele>650</ele>
        <time>2019-10-11T09:43:26Z</time>
      </trkpt>
      <trkpt lat="44.24773" lon="5.70449">
        <ele>650</ele>
        <time>2019-10-11T09:43:38Z</time>
      </trkpt>
      <trkpt lat="44.24757" lon="5.70478">
        <ele>650</ele>
        <time>2019-10-11T09:43:43Z</time>
      </trkpt>
      <trkpt lat="44.24733" lon="5.70504">
        <ele>650.40002441406</ele>
        <time>2019-10-11T09:43:49Z</time>
      </trkpt>
      <trkpt lat="44.24707" lon="5.70534">
        <ele>651.40002441406</ele>
        <time>2019-10-11T09:43:57Z</time>
      </trkpt>
      <trkpt lat="44.24693" lon="5.70553">
        <ele>652</ele>
        <time>2019-10-11T09:44:02Z</time>
      </trkpt>
      <trkpt lat="44.24697" lon="5.70583">
        <ele>652.59997558594</ele>
        <time>2019-10-11T09:44:08Z</time>
      </trkpt>
      <trkpt lat="44.24712" lon="5.70594">
        <ele>653</ele>
        <time>2019-10-11T09:44:12Z</time>
      </trkpt>
      <trkpt lat="44.24745" lon="5.70628">
        <ele>654.20001220703</ele>
        <time>2019-10-11T09:44:22Z</time>
      </trkpt>
      <trkpt lat="44.24752" lon="5.70655">
        <ele>654.59997558594</ele>
        <time>2019-10-11T09:44:27Z</time>
      </trkpt>
      <trkpt lat="44.24742" lon="5.70678">
        <ele>655.79998779297</ele>
        <time>2019-10-11T09:44:33Z</time>
      </trkpt>
      <trkpt lat="44.24723" lon="5.70685">
        <ele>657</ele>
        <time>2019-10-11T09:44:39Z</time>
      </trkpt>
      <trkpt lat="44.2469" lon="5.70689">
        <ele>658.79998779297</ele>
        <time>2019-10-11T09:44:50Z</time>
      </trkpt>
      <trkpt lat="44.24664" lon="5.70692">
        <ele>660.59997558594</ele>
        <time>2019-10-11T09:45:00Z</time>
      </trkpt>
      <trkpt lat="44.24635" lon="5.70696">
        <ele>662.20001220703</ele>
        <time>2019-10-11T09:45:11Z</time>
      </trkpt>
      <trkpt lat="44.24627" lon="5.70701">
        <ele>662.79998779297</ele>
        <time>2019-10-11T09:45:15Z</time>
      </trkpt>
      <trkpt lat="44.24624" lon="5.70721">
        <ele>664.40002441406</ele>
        <time>2019-10-11T09:45:21Z</time>
      </trkpt>
      <trkpt lat="44.24637" lon="5.70752">
        <ele>666.40002441406</ele>
        <time>2019-10-11T09:45:30Z</time>
      </trkpt>
      <trkpt lat="44.24661" lon="5.708">
        <ele>667.79998779297</ele>
        <time>2019-10-11T09:45:43Z</time>
      </trkpt>
      <trkpt lat="44.24688" lon="5.70826">
        <ele>668.40002441406</ele>
        <time>2019-10-11T09:45:52Z</time>
      </trkpt>
      <trkpt lat="44.24702" lon="5.70835">
        <ele>668.20001220703</ele>
        <time>2019-10-11T09:45:56Z</time>
      </trkpt>
      <trkpt lat="44.24722" lon="5.70847">
        <ele>668</ele>
        <time>2019-10-11T09:46:01Z</time>
      </trkpt>
      <trkpt lat="44.24743" lon="5.70861">
        <ele>668</ele>
        <time>2019-10-11T09:46:05Z</time>
      </trkpt>
      <trkpt lat="44.24792" lon="5.70904">
        <ele>666.40002441406</ele>
        <time>2019-10-11T09:46:15Z</time>
      </trkpt>
      <trkpt lat="44.24869" lon="5.70991">
        <ele>665.59997558594</ele>
        <time>2019-10-11T09:46:32Z</time>
      </trkpt>
      <trkpt lat="44.24918" lon="5.71056">
        <ele>664.79998779297</ele>
        <time>2019-10-11T09:46:43Z</time>
      </trkpt>
      <trkpt lat="44.24937" lon="5.71082">
        <ele>664.40002441406</ele>
        <time>2019-10-11T09:46:47Z</time>
      </trkpt>
      <trkpt lat="44.24969" lon="5.71125">
        <ele>663.59997558594</ele>
        <time>2019-10-11T09:46:53Z</time>
      </trkpt>
      <trkpt lat="44.24996" lon="5.71163">
        <ele>662.40002441406</ele>
        <time>2019-10-11T09:46:58Z</time>
      </trkpt>
      <trkpt lat="44.25018" lon="5.71195">
        <ele>661.40002441406</ele>
        <time>2019-10-11T09:47:02Z</time>
      </trkpt>
      <trkpt lat="44.2504" lon="5.71244">
        <ele>659.20001220703</ele>
        <time>2019-10-11T09:47:07Z</time>
      </trkpt>
      <trkpt lat="44.25057" lon="5.71286">
        <ele>657.40002441406</ele>
        <time>2019-10-11T09:47:11Z</time>
      </trkpt>
      <trkpt lat="44.25075" lon="5.7133">
        <ele>656.20001220703</ele>
        <time>2019-10-11T09:47:15Z</time>
      </trkpt>
      <trkpt lat="44.25093" lon="5.71373">
        <ele>654.79998779297</ele>
        <time>2019-10-11T09:47:19Z</time>
      </trkpt>
      <trkpt lat="44.25119" lon="5.71422">
        <ele>653.40002441406</ele>
        <time>2019-10-11T09:47:25Z</time>
      </trkpt>
      <trkpt lat="44.25131" lon="5.71439">
        <ele>653.20001220703</ele>
        <time>2019-10-11T09:47:28Z</time>
      </trkpt>
      <trkpt lat="44.25159" lon="5.71467">
        <ele>653.40002441406</ele>
        <time>2019-10-11T09:47:34Z</time>
      </trkpt>
      <trkpt lat="44.25179" lon="5.71488">
        <ele>653.79998779297</ele>
        <time>2019-10-11T09:47:38Z</time>
      </trkpt>
      <trkpt lat="44.25217" lon="5.71527">
        <ele>654</ele>
        <time>2019-10-11T09:47:46Z</time>
      </trkpt>
      <trkpt lat="44.25252" lon="5.71564">
        <ele>654.20001220703</ele>
        <time>2019-10-11T09:47:53Z</time>
      </trkpt>
      <trkpt lat="44.25326" lon="5.71651">
        <ele>654</ele>
        <time>2019-10-11T09:48:07Z</time>
      </trkpt>
      <trkpt lat="44.25353" lon="5.71677">
        <ele>653.40002441406</ele>
        <time>2019-10-11T09:48:12Z</time>
      </trkpt>
      <trkpt lat="44.25384" lon="5.71699">
        <ele>653</ele>
        <time>2019-10-11T09:48:18Z</time>
      </trkpt>
      <trkpt lat="44.2541" lon="5.71713">
        <ele>653</ele>
        <time>2019-10-11T09:48:23Z</time>
      </trkpt>
      <trkpt lat="44.25494" lon="5.71765">
        <ele>652.59997558594</ele>
        <time>2019-10-11T09:48:38Z</time>
      </trkpt>
      <trkpt lat="44.25589" lon="5.71843">
        <ele>652.40002441406</ele>
        <time>2019-10-11T09:48:56Z</time>
      </trkpt>
      <trkpt lat="44.25641" lon="5.71887">
        <ele>652.20001220703</ele>
        <time>2019-10-11T09:49:05Z</time>
      </trkpt>
      <trkpt lat="44.2573" lon="5.71949">
        <ele>650.79998779297</ele>
        <time>2019-10-11T09:49:20Z</time>
      </trkpt>
      <trkpt lat="44.25796" lon="5.71999">
        <ele>650.40002441406</ele>
        <time>2019-10-11T09:49:31Z</time>
      </trkpt>
      <trkpt lat="44.25904" lon="5.7208">
        <ele>649.20001220703</ele>
        <time>2019-10-11T09:49:50Z</time>
      </trkpt>
      <trkpt lat="44.25957" lon="5.72168">
        <ele>649.20001220703</ele>
        <time>2019-10-11T09:50:04Z</time>
      </trkpt>
      <trkpt lat="44.26033" lon="5.72324">
        <ele>651</ele>
        <time>2019-10-11T09:50:29Z</time>
      </trkpt>
      <trkpt lat="44.26065" lon="5.72389">
        <ele>650.79998779297</ele>
        <time>2019-10-11T09:50:38Z</time>
      </trkpt>
      <trkpt lat="44.26099" lon="5.72515">
        <ele>650.40002441406</ele>
        <time>2019-10-11T09:50:54Z</time>
      </trkpt>
      <trkpt lat="44.26107" lon="5.72548">
        <ele>651</ele>
        <time>2019-10-11T09:50:59Z</time>
      </trkpt>
      <trkpt lat="44.26121" lon="5.72605">
        <ele>651.59997558594</ele>
        <time>2019-10-11T09:51:08Z</time>
      </trkpt>
      <trkpt lat="44.26136" lon="5.72667">
        <ele>652.40002441406</ele>
        <time>2019-10-11T09:51:17Z</time>
      </trkpt>
      <trkpt lat="44.26144" lon="5.727">
        <ele>652.59997558594</ele>
        <time>2019-10-11T09:51:21Z</time>
      </trkpt>
      <trkpt lat="44.26157" lon="5.72752">
        <ele>652.20001220703</ele>
        <time>2019-10-11T09:51:27Z</time>
      </trkpt>
      <trkpt lat="44.2616" lon="5.72771">
        <ele>651.79998779297</ele>
        <time>2019-10-11T09:51:29Z</time>
      </trkpt>
      <trkpt lat="44.26163" lon="5.72831">
        <ele>650.40002441406</ele>
        <time>2019-10-11T09:51:35Z</time>
      </trkpt>
      <trkpt lat="44.26162" lon="5.72863">
        <ele>649.79998779297</ele>
        <time>2019-10-11T09:51:38Z</time>
      </trkpt>
      <trkpt lat="44.26157" lon="5.72949">
        <ele>647.79998779297</ele>
        <time>2019-10-11T09:51:46Z</time>
      </trkpt>
      <trkpt lat="44.26156" lon="5.72984">
        <ele>646.20001220703</ele>
        <time>2019-10-11T09:51:49Z</time>
      </trkpt>
      <trkpt lat="44.26156" lon="5.73063">
        <ele>644.20001220703</ele>
        <time>2019-10-11T09:51:56Z</time>
      </trkpt>
      <trkpt lat="44.26161" lon="5.73107">
        <ele>642</ele>
        <time>2019-10-11T09:52:01Z</time>
      </trkpt>
      <trkpt lat="44.2617" lon="5.73136">
        <ele>640.79998779297</ele>
        <time>2019-10-11T09:52:05Z</time>
      </trkpt>
      <trkpt lat="44.26186" lon="5.73191">
        <ele>639</ele>
        <time>2019-10-11T09:52:14Z</time>
      </trkpt>
      <trkpt lat="44.2619" lon="5.73203">
        <ele>638.79998779297</ele>
        <time>2019-10-11T09:52:19Z</time>
      </trkpt>
      <trkpt lat="44.26208" lon="5.73214">
        <ele>638.59997558594</ele>
        <time>2019-10-11T09:52:24Z</time>
      </trkpt>
      <trkpt lat="44.26188" lon="5.73199">
        <ele>638.59997558594</ele>
        <time>2019-10-11T09:52:33Z</time>
      </trkpt>
      <trkpt lat="44.26186" lon="5.73192">
        <ele>639</ele>
        <time>2019-10-11T09:52:47Z</time>
      </trkpt>
      <trkpt lat="44.26242" lon="5.73359">
        <ele>639.40002441406</ele>
        <time>2019-10-11T11:03:49Z</time>
      </trkpt>
      <trkpt lat="44.26264" lon="5.7345">
        <ele>639.59997558594</ele>
        <time>2019-10-11T11:03:59Z</time>
      </trkpt>
      <trkpt lat="44.26271" lon="5.73502">
        <ele>638.79998779297</ele>
        <time>2019-10-11T11:04:07Z</time>
      </trkpt>
      <trkpt lat="44.26286" lon="5.73604">
        <ele>638.59997558594</ele>
        <time>2019-10-11T11:04:21Z</time>
      </trkpt>
      <trkpt lat="44.26289" lon="5.7362">
        <ele>638.20001220703</ele>
        <time>2019-10-11T11:05:12Z</time>
      </trkpt>
      <trkpt lat="44.26295" lon="5.73663">
        <ele>638.20001220703</ele>
        <time>2019-10-11T11:05:20Z</time>
      </trkpt>
      <trkpt lat="44.26303" lon="5.73721">
        <ele>638.40002441406</ele>
        <time>2019-10-11T11:05:29Z</time>
      </trkpt>
      <trkpt lat="44.26304" lon="5.73725">
        <ele>638</ele>
        <time>2019-10-11T11:05:46Z</time>
      </trkpt>
      <trkpt lat="44.26306" lon="5.7374">
        <ele>638</ele>
        <time>2019-10-11T11:05:51Z</time>
      </trkpt>
      <trkpt lat="44.26314" lon="5.73821">
        <ele>638.20001220703</ele>
        <time>2019-10-11T11:06:04Z</time>
      </trkpt>
      <trkpt lat="44.26316" lon="5.73854">
        <ele>638.20001220703</ele>
        <time>2019-10-11T11:06:09Z</time>
      </trkpt>
      <trkpt lat="44.26319" lon="5.73924">
        <ele>639.40002441406</ele>
        <time>2019-10-11T11:06:20Z</time>
      </trkpt>
      <trkpt lat="44.26321" lon="5.73956">
        <ele>640</ele>
        <time>2019-10-11T11:06:25Z</time>
      </trkpt>
      <trkpt lat="44.26326" lon="5.74044">
        <ele>640.59997558594</ele>
        <time>2019-10-11T11:06:38Z</time>
      </trkpt>
      <trkpt lat="44.26337" lon="5.74203">
        <ele>640.40002441406</ele>
        <time>2019-10-11T11:06:59Z</time>
      </trkpt>
      <trkpt lat="44.2634" lon="5.74241">
        <ele>640.40002441406</ele>
        <time>2019-10-11T11:07:04Z</time>
      </trkpt>
      <trkpt lat="44.26344" lon="5.74292">
        <ele>640.40002441406</ele>
        <time>2019-10-11T11:07:12Z</time>
      </trkpt>
      <trkpt lat="44.26346" lon="5.74318">
        <ele>640</ele>
        <time>2019-10-11T11:07:16Z</time>
      </trkpt>
      <trkpt lat="44.26354" lon="5.7436">
        <ele>639.79998779297</ele>
        <time>2019-10-11T11:07:23Z</time>
      </trkpt>
      <trkpt lat="44.26356" lon="5.74371">
        <ele>639.59997558594</ele>
        <time>2019-10-11T11:07:27Z</time>
      </trkpt>
      <trkpt lat="44.26362" lon="5.744">
        <ele>637.79998779297</ele>
        <time>2019-10-11T11:07:59Z</time>
      </trkpt>
      <trkpt lat="44.26364" lon="5.74423">
        <ele>637.59997558594</ele>
        <time>2019-10-11T11:08:02Z</time>
      </trkpt>
      <trkpt lat="44.26354" lon="5.74454">
        <ele>637.20001220703</ele>
        <time>2019-10-11T11:08:06Z</time>
      </trkpt>
      <trkpt lat="44.26321" lon="5.74511">
        <ele>634.79998779297</ele>
        <time>2019-10-11T11:08:14Z</time>
      </trkpt>
      <trkpt lat="44.26283" lon="5.74601">
        <ele>633.79998779297</ele>
        <time>2019-10-11T11:08:25Z</time>
      </trkpt>
      <trkpt lat="44.26278" lon="5.74627">
        <ele>633.59997558594</ele>
        <time>2019-10-11T11:08:28Z</time>
      </trkpt>
      <trkpt lat="44.26285" lon="5.74651">
        <ele>633.20001220703</ele>
        <time>2019-10-11T11:08:31Z</time>
      </trkpt>
      <trkpt lat="44.26309" lon="5.74712">
        <ele>632.20001220703</ele>
        <time>2019-10-11T11:08:38Z</time>
      </trkpt>
      <trkpt lat="44.2633" lon="5.74766">
        <ele>631</ele>
        <time>2019-10-11T11:08:44Z</time>
      </trkpt>
      <trkpt lat="44.26367" lon="5.74837">
        <ele>628.20001220703</ele>
        <time>2019-10-11T11:08:52Z</time>
      </trkpt>
      <trkpt lat="44.26384" lon="5.74877">
        <ele>627.20001220703</ele>
        <time>2019-10-11T11:08:56Z</time>
      </trkpt>
      <trkpt lat="44.26399" lon="5.74932">
        <ele>625.59997558594</ele>
        <time>2019-10-11T11:09:01Z</time>
      </trkpt>
      <trkpt lat="44.26417" lon="5.74974">
        <ele>624.40002441406</ele>
        <time>2019-10-11T11:09:05Z</time>
      </trkpt>
      <trkpt lat="44.26465" lon="5.7506">
        <ele>622</ele>
        <time>2019-10-11T11:09:14Z</time>
      </trkpt>
      <trkpt lat="44.26519" lon="5.75146">
        <ele>620.79998779297</ele>
        <time>2019-10-11T11:09:25Z</time>
      </trkpt>
      <trkpt lat="44.2658" lon="5.75258">
        <ele>619.59997558594</ele>
        <time>2019-10-11T11:09:39Z</time>
      </trkpt>
      <trkpt lat="44.26626" lon="5.75376">
        <ele>618.20001220703</ele>
        <time>2019-10-11T11:09:52Z</time>
      </trkpt>
      <trkpt lat="44.26674" lon="5.7552">
        <ele>617.20001220703</ele>
        <time>2019-10-11T11:10:09Z</time>
      </trkpt>
      <trkpt lat="44.26683" lon="5.75601">
        <ele>617.59997558594</ele>
        <time>2019-10-11T11:10:19Z</time>
      </trkpt>
      <trkpt lat="44.26692" lon="5.75621">
        <ele>617.79998779297</ele>
        <time>2019-10-11T11:10:23Z</time>
      </trkpt>
      <trkpt lat="44.26721" lon="5.75658">
        <ele>619.20001220703</ele>
        <time>2019-10-11T11:10:32Z</time>
      </trkpt>
      <trkpt lat="44.26722" lon="5.75673">
        <ele>619.40002441406</ele>
        <time>2019-10-11T11:10:35Z</time>
      </trkpt>
      <trkpt lat="44.26694" lon="5.75724">
        <ele>619.40002441406</ele>
        <time>2019-10-11T11:10:43Z</time>
      </trkpt>
      <trkpt lat="44.2669" lon="5.7578">
        <ele>619</ele>
        <time>2019-10-11T11:10:49Z</time>
      </trkpt>
      <trkpt lat="44.26713" lon="5.75894">
        <ele>617.40002441406</ele>
        <time>2019-10-11T11:11:03Z</time>
      </trkpt>
      <trkpt lat="44.2674" lon="5.75956">
        <ele>617.40002441406</ele>
        <time>2019-10-11T11:11:11Z</time>
      </trkpt>
      <trkpt lat="44.26821" lon="5.76063">
        <ele>617.20001220703</ele>
        <time>2019-10-11T11:11:28Z</time>
      </trkpt>
      <trkpt lat="44.26856" lon="5.76125">
        <ele>617.40002441406</ele>
        <time>2019-10-11T11:11:37Z</time>
      </trkpt>
      <trkpt lat="44.26866" lon="5.76216">
        <ele>617.40002441406</ele>
        <time>2019-10-11T11:11:47Z</time>
      </trkpt>
      <trkpt lat="44.26853" lon="5.76255">
        <ele>617.59997558594</ele>
        <time>2019-10-11T11:11:52Z</time>
      </trkpt>
      <trkpt lat="44.26829" lon="5.7628">
        <ele>617.59997558594</ele>
        <time>2019-10-11T11:11:57Z</time>
      </trkpt>
      <trkpt lat="44.26757" lon="5.76307">
        <ele>617.59997558594</ele>
        <time>2019-10-11T11:12:08Z</time>
      </trkpt>
      <trkpt lat="44.26663" lon="5.76353">
        <ele>617.79998779297</ele>
        <time>2019-10-11T11:12:23Z</time>
      </trkpt>
      <trkpt lat="44.26574" lon="5.76383">
        <ele>617.79998779297</ele>
        <time>2019-10-11T11:12:37Z</time>
      </trkpt>
      <trkpt lat="44.26563" lon="5.76397">
        <ele>617.79998779297</ele>
        <time>2019-10-11T11:12:40Z</time>
      </trkpt>
      <trkpt lat="44.2654" lon="5.76458">
        <ele>617.79998779297</ele>
        <time>2019-10-11T11:12:49Z</time>
      </trkpt>
      <trkpt lat="44.26544" lon="5.76473">
        <ele>617.59997558594</ele>
        <time>2019-10-11T11:12:52Z</time>
      </trkpt>
      <trkpt lat="44.26587" lon="5.76501">
        <ele>617.59997558594</ele>
        <time>2019-10-11T11:12:59Z</time>
      </trkpt>
      <trkpt lat="44.26598" lon="5.76517">
        <ele>617.40002441406</ele>
        <time>2019-10-11T11:13:01Z</time>
      </trkpt>
      <trkpt lat="44.26611" lon="5.7654">
        <ele>617</ele>
        <time>2019-10-11T11:13:05Z</time>
      </trkpt>
      <trkpt lat="44.26611" lon="5.76543">
        <ele>614.59997558594</ele>
        <time>2019-10-11T11:13:33Z</time>
      </trkpt>
      <trkpt lat="44.26615" lon="5.76558">
        <ele>614.59997558594</ele>
        <time>2019-10-11T11:13:38Z</time>
      </trkpt>
      <trkpt lat="44.26634" lon="5.76597">
        <ele>614.40002441406</ele>
        <time>2019-10-11T11:13:44Z</time>
      </trkpt>
      <trkpt lat="44.2662" lon="5.76671">
        <ele>614.20001220703</ele>
        <time>2019-10-11T11:13:52Z</time>
      </trkpt>
      <trkpt lat="44.26607" lon="5.76695">
        <ele>614</ele>
        <time>2019-10-11T11:13:55Z</time>
      </trkpt>
      <trkpt lat="44.26568" lon="5.76734">
        <ele>613</ele>
        <time>2019-10-11T11:14:01Z</time>
      </trkpt>
      <trkpt lat="44.26548" lon="5.76773">
        <ele>611.79998779297</ele>
        <time>2019-10-11T11:14:05Z</time>
      </trkpt>
      <trkpt lat="44.2654" lon="5.76796">
        <ele>611.40002441406</ele>
        <time>2019-10-11T11:14:07Z</time>
      </trkpt>
      <trkpt lat="44.26513" lon="5.76828">
        <ele>610.20001220703</ele>
        <time>2019-10-11T11:14:11Z</time>
      </trkpt>
      <trkpt lat="44.26478" lon="5.76844">
        <ele>609</ele>
        <time>2019-10-11T11:14:15Z</time>
      </trkpt>
      <trkpt lat="44.26456" lon="5.76862">
        <ele>607.20001220703</ele>
        <time>2019-10-11T11:14:19Z</time>
      </trkpt>
      <trkpt lat="44.26458" lon="5.76881">
        <ele>606.20001220703</ele>
        <time>2019-10-11T11:14:21Z</time>
      </trkpt>
      <trkpt lat="44.26472" lon="5.76892">
        <ele>605.59997558594</ele>
        <time>2019-10-11T11:14:24Z</time>
      </trkpt>
      <trkpt lat="44.26487" lon="5.76897">
        <ele>604</ele>
        <time>2019-10-11T11:14:28Z</time>
      </trkpt>
      <trkpt lat="44.2651" lon="5.769">
        <ele>599.59997558594</ele>
        <time>2019-10-11T11:14:44Z</time>
      </trkpt>
      <trkpt lat="44.26512" lon="5.76901">
        <ele>599.40002441406</ele>
        <time>2019-10-11T11:14:47Z</time>
      </trkpt>
      <trkpt lat="44.26484" lon="5.76897">
        <ele>599.20001220703</ele>
        <time>2019-10-11T11:14:56Z</time>
      </trkpt>
      <trkpt lat="44.2647" lon="5.7689">
        <ele>599.59997558594</ele>
        <time>2019-10-11T11:15:05Z</time>
      </trkpt>
      <trkpt lat="44.2648" lon="5.76896">
        <ele>600.59997558594</ele>
        <time>2019-10-11T11:15:28Z</time>
      </trkpt>
      <trkpt lat="44.2647" lon="5.76932">
        <ele>600.79998779297</ele>
        <time>2019-10-11T11:15:33Z</time>
      </trkpt>
      <trkpt lat="44.26475" lon="5.76927">
        <ele>600.79998779297</ele>
        <time>2019-10-11T11:15:38Z</time>
      </trkpt>
      <trkpt lat="44.26492" lon="5.76886">
        <ele>600.59997558594</ele>
        <time>2019-10-11T11:16:09Z</time>
      </trkpt>
      <trkpt lat="44.26497" lon="5.76898">
        <ele>600.59997558594</ele>
        <time>2019-10-11T11:16:12Z</time>
      </trkpt>
      <trkpt lat="44.2651" lon="5.769">
        <ele>599.79998779297</ele>
        <time>2019-10-11T11:16:37Z</time>
      </trkpt>
      <trkpt lat="44.26539" lon="5.76906">
        <ele>599.59997558594</ele>
        <time>2019-10-11T11:16:43Z</time>
      </trkpt>
      <trkpt lat="44.26645" lon="5.76925">
        <ele>597.40002441406</ele>
        <time>2019-10-11T11:16:58Z</time>
      </trkpt>
      <trkpt lat="44.26683" lon="5.76944">
        <ele>597.40002441406</ele>
        <time>2019-10-11T11:17:04Z</time>
      </trkpt>
      <trkpt lat="44.26707" lon="5.76979">
        <ele>597.20001220703</ele>
        <time>2019-10-11T11:17:09Z</time>
      </trkpt>
      <trkpt lat="44.26711" lon="5.77018">
        <ele>597.20001220703</ele>
        <time>2019-10-11T11:17:13Z</time>
      </trkpt>
      <trkpt lat="44.26706" lon="5.77078">
        <ele>597.20001220703</ele>
        <time>2019-10-11T11:17:20Z</time>
      </trkpt>
      <trkpt lat="44.26696" lon="5.77097">
        <ele>597.20001220703</ele>
        <time>2019-10-11T11:17:23Z</time>
      </trkpt>
      <trkpt lat="44.26644" lon="5.77171">
        <ele>597.59997558594</ele>
        <time>2019-10-11T11:17:36Z</time>
      </trkpt>
      <trkpt lat="44.26597" lon="5.77222">
        <ele>597.40002441406</ele>
        <time>2019-10-11T11:17:46Z</time>
      </trkpt>
      <trkpt lat="44.26591" lon="5.77242">
        <ele>597.59997558594</ele>
        <time>2019-10-11T11:17:49Z</time>
      </trkpt>
      <trkpt lat="44.26603" lon="5.77264">
        <ele>597.59997558594</ele>
        <time>2019-10-11T11:17:53Z</time>
      </trkpt>
      <trkpt lat="44.26654" lon="5.77318">
        <ele>597.40002441406</ele>
        <time>2019-10-11T11:18:03Z</time>
      </trkpt>
      <trkpt lat="44.2671" lon="5.7744">
        <ele>597.40002441406</ele>
        <time>2019-10-11T11:18:20Z</time>
      </trkpt>
      <trkpt lat="44.26755" lon="5.77521">
        <ele>597.59997558594</ele>
        <time>2019-10-11T11:18:32Z</time>
      </trkpt>
      <trkpt lat="44.26798" lon="5.77552">
        <ele>598</ele>
        <time>2019-10-11T11:18:41Z</time>
      </trkpt>
      <trkpt lat="44.2681" lon="5.77547">
        <ele>598</ele>
        <time>2019-10-11T11:18:43Z</time>
      </trkpt>
      <trkpt lat="44.26894" lon="5.7749">
        <ele>598</ele>
        <time>2019-10-11T11:18:58Z</time>
      </trkpt>
      <trkpt lat="44.26955" lon="5.77453">
        <ele>598</ele>
        <time>2019-10-11T11:19:09Z</time>
      </trkpt>
      <trkpt lat="44.27001" lon="5.77439">
        <ele>597.79998779297</ele>
        <time>2019-10-11T11:19:18Z</time>
      </trkpt>
      <trkpt lat="44.2703" lon="5.77457">
        <ele>597.79998779297</ele>
        <time>2019-10-11T11:19:23Z</time>
      </trkpt>
      <trkpt lat="44.27046" lon="5.77486">
        <ele>597.59997558594</ele>
        <time>2019-10-11T11:19:28Z</time>
      </trkpt>
      <trkpt lat="44.27076" lon="5.77493">
        <ele>597.59997558594</ele>
        <time>2019-10-11T11:19:33Z</time>
      </trkpt>
      <trkpt lat="44.27097" lon="5.77529">
        <ele>597.20001220703</ele>
        <time>2019-10-11T11:19:38Z</time>
      </trkpt>
      <trkpt lat="44.27115" lon="5.7758">
        <ele>596.40002441406</ele>
        <time>2019-10-11T11:19:44Z</time>
      </trkpt>
      <trkpt lat="44.27121" lon="5.77635">
        <ele>595.79998779297</ele>
        <time>2019-10-11T11:19:49Z</time>
      </trkpt>
      <trkpt lat="44.27145" lon="5.77696">
        <ele>594.79998779297</ele>
        <time>2019-10-11T11:19:57Z</time>
      </trkpt>
      <trkpt lat="44.27169" lon="5.77714">
        <ele>594.40002441406</ele>
        <time>2019-10-11T11:20:01Z</time>
      </trkpt>
      <trkpt lat="44.2724" lon="5.77744">
        <ele>593</ele>
        <time>2019-10-11T11:20:12Z</time>
      </trkpt>
      <trkpt lat="44.27285" lon="5.77737">
        <ele>592.20001220703</ele>
        <time>2019-10-11T11:20:18Z</time>
      </trkpt>
      <trkpt lat="44.27299" lon="5.77759">
        <ele>591.20001220703</ele>
        <time>2019-10-11T11:20:22Z</time>
      </trkpt>
      <trkpt lat="44.27297" lon="5.77768">
        <ele>591</ele>
        <time>2019-10-11T11:20:24Z</time>
      </trkpt>
      <trkpt lat="44.27309" lon="5.77811">
        <ele>590.40002441406</ele>
        <time>2019-10-11T11:20:28Z</time>
      </trkpt>
      <trkpt lat="44.27365" lon="5.77866">
        <ele>589.59997558594</ele>
        <time>2019-10-11T11:20:38Z</time>
      </trkpt>
      <trkpt lat="44.27406" lon="5.77931">
        <ele>589.20001220703</ele>
        <time>2019-10-11T11:20:47Z</time>
      </trkpt>
      <trkpt lat="44.27411" lon="5.78002">
        <ele>588.79998779297</ele>
        <time>2019-10-11T11:20:54Z</time>
      </trkpt>
      <trkpt lat="44.27424" lon="5.78041">
        <ele>588.40002441406</ele>
        <time>2019-10-11T11:20:59Z</time>
      </trkpt>
      <trkpt lat="44.27464" lon="5.7809">
        <ele>587.79998779297</ele>
        <time>2019-10-11T11:21:07Z</time>
      </trkpt>
      <trkpt lat="44.27543" lon="5.7819">
        <ele>586.79998779297</ele>
        <time>2019-10-11T11:21:22Z</time>
      </trkpt>
      <trkpt lat="44.2755" lon="5.78228">
        <ele>586.40002441406</ele>
        <time>2019-10-11T11:21:26Z</time>
      </trkpt>
      <trkpt lat="44.27549" lon="5.78247">
        <ele>586.20001220703</ele>
        <time>2019-10-11T11:21:28Z</time>
      </trkpt>
      <trkpt lat="44.27531" lon="5.78282">
        <ele>586</ele>
        <time>2019-10-11T11:21:33Z</time>
      </trkpt>
      <trkpt lat="44.27497" lon="5.78304">
        <ele>585.59997558594</ele>
        <time>2019-10-11T11:21:38Z</time>
      </trkpt>
      <trkpt lat="44.27467" lon="5.78352">
        <ele>585</ele>
        <time>2019-10-11T11:21:45Z</time>
      </trkpt>
      <trkpt lat="44.2747" lon="5.78367">
        <ele>585</ele>
        <time>2019-10-11T11:21:47Z</time>
      </trkpt>
      <trkpt lat="44.275" lon="5.78402">
        <ele>584.20001220703</ele>
        <time>2019-10-11T11:21:53Z</time>
      </trkpt>
      <trkpt lat="44.2753" lon="5.78418">
        <ele>583.40002441406</ele>
        <time>2019-10-11T11:21:57Z</time>
      </trkpt>
      <trkpt lat="44.27578" lon="5.78406">
        <ele>582.59997558594</ele>
        <time>2019-10-11T11:22:03Z</time>
      </trkpt>
      <trkpt lat="44.27613" lon="5.78382">
        <ele>582</ele>
        <time>2019-10-11T11:22:08Z</time>
      </trkpt>
      <trkpt lat="44.27702" lon="5.78308">
        <ele>579.79998779297</ele>
        <time>2019-10-11T11:22:21Z</time>
      </trkpt>
      <trkpt lat="44.27767" lon="5.78236">
        <ele>578</ele>
        <time>2019-10-11T11:22:32Z</time>
      </trkpt>
      <trkpt lat="44.27792" lon="5.78212">
        <ele>577.40002441406</ele>
        <time>2019-10-11T11:22:36Z</time>
      </trkpt>
      <trkpt lat="44.27844" lon="5.78184">
        <ele>576.20001220703</ele>
        <time>2019-10-11T11:22:43Z</time>
      </trkpt>
      <trkpt lat="44.27855" lon="5.78186">
        <ele>575.59997558594</ele>
        <time>2019-10-11T11:22:45Z</time>
      </trkpt>
      <trkpt lat="44.27882" lon="5.78201">
        <ele>574.59997558594</ele>
        <time>2019-10-11T11:22:49Z</time>
      </trkpt>
      <trkpt lat="44.27896" lon="5.78227">
        <ele>574</ele>
        <time>2019-10-11T11:22:52Z</time>
      </trkpt>
      <trkpt lat="44.27952" lon="5.78416">
        <ele>571.59997558594</ele>
        <time>2019-10-11T11:23:10Z</time>
      </trkpt>
      <trkpt lat="44.27956" lon="5.78439">
        <ele>571.59997558594</ele>
        <time>2019-10-11T11:23:12Z</time>
      </trkpt>
      <trkpt lat="44.27957" lon="5.78607">
        <ele>570.79998779297</ele>
        <time>2019-10-11T11:23:29Z</time>
      </trkpt>
      <trkpt lat="44.27929" lon="5.78678">
        <ele>569.79998779297</ele>
        <time>2019-10-11T11:23:38Z</time>
      </trkpt>
      <trkpt lat="44.27933" lon="5.78726">
        <ele>569.79998779297</ele>
        <time>2019-10-11T11:23:44Z</time>
      </trkpt>
      <trkpt lat="44.27945" lon="5.78771">
        <ele>570</ele>
        <time>2019-10-11T11:23:51Z</time>
      </trkpt>
      <trkpt lat="44.27964" lon="5.78916">
        <ele>571</ele>
        <time>2019-10-11T11:24:10Z</time>
      </trkpt>
      <trkpt lat="44.27952" lon="5.78973">
        <ele>571.40002441406</ele>
        <time>2019-10-11T11:24:19Z</time>
      </trkpt>
      <trkpt lat="44.27929" lon="5.78996">
        <ele>571.79998779297</ele>
        <time>2019-10-11T11:24:24Z</time>
      </trkpt>
      <trkpt lat="44.27884" lon="5.79016">
        <ele>572.40002441406</ele>
        <time>2019-10-11T11:24:32Z</time>
      </trkpt>
      <trkpt lat="44.27855" lon="5.79013">
        <ele>573</ele>
        <time>2019-10-11T11:24:37Z</time>
      </trkpt>
      <trkpt lat="44.27821" lon="5.79002">
        <ele>573.59997558594</ele>
        <time>2019-10-11T11:24:43Z</time>
      </trkpt>
      <trkpt lat="44.27804" lon="5.79031">
        <ele>573.79998779297</ele>
        <time>2019-10-11T11:24:50Z</time>
      </trkpt>
      <trkpt lat="44.27812" lon="5.79059">
        <ele>573.79998779297</ele>
        <time>2019-10-11T11:24:54Z</time>
      </trkpt>
      <trkpt lat="44.27836" lon="5.79086">
        <ele>574</ele>
        <time>2019-10-11T11:24:59Z</time>
      </trkpt>
      <trkpt lat="44.27847" lon="5.79126">
        <ele>573.59997558594</ele>
        <time>2019-10-11T11:25:04Z</time>
      </trkpt>
      <trkpt lat="44.27853" lon="5.79135">
        <ele>573.40002441406</ele>
        <time>2019-10-11T11:25:06Z</time>
      </trkpt>
      <trkpt lat="44.27862" lon="5.79152">
        <ele>572.79998779297</ele>
        <time>2019-10-11T11:25:09Z</time>
      </trkpt>
      <trkpt lat="44.27865" lon="5.79176">
        <ele>572.20001220703</ele>
        <time>2019-10-11T11:25:12Z</time>
      </trkpt>
      <trkpt lat="44.2784" lon="5.79275">
        <ele>570</ele>
        <time>2019-10-11T11:25:23Z</time>
      </trkpt>
      <trkpt lat="44.27823" lon="5.79311">
        <ele>569.40002441406</ele>
        <time>2019-10-11T11:25:27Z</time>
      </trkpt>
      <trkpt lat="44.27773" lon="5.79336">
        <ele>568.20001220703</ele>
        <time>2019-10-11T11:25:34Z</time>
      </trkpt>
      <trkpt lat="44.27742" lon="5.79354">
        <ele>567</ele>
        <time>2019-10-11T11:25:38Z</time>
      </trkpt>
      <trkpt lat="44.27724" lon="5.79388">
        <ele>566</ele>
        <time>2019-10-11T11:25:42Z</time>
      </trkpt>
      <trkpt lat="44.27697" lon="5.7946">
        <ele>564.20001220703</ele>
        <time>2019-10-11T11:25:50Z</time>
      </trkpt>
      <trkpt lat="44.27687" lon="5.79514">
        <ele>562.59997558594</ele>
        <time>2019-10-11T11:25:55Z</time>
      </trkpt>
      <trkpt lat="44.27677" lon="5.79617">
        <ele>560.79998779297</ele>
        <time>2019-10-11T11:26:04Z</time>
      </trkpt>
      <trkpt lat="44.27677" lon="5.79664">
        <ele>559.59997558594</ele>
        <time>2019-10-11T11:26:08Z</time>
      </trkpt>
      <trkpt lat="44.27668" lon="5.79772">
        <ele>557.40002441406</ele>
        <time>2019-10-11T11:26:17Z</time>
      </trkpt>
      <trkpt lat="44.27654" lon="5.79822">
        <ele>556.20001220703</ele>
        <time>2019-10-11T11:26:22Z</time>
      </trkpt>
      <trkpt lat="44.2762" lon="5.79951">
        <ele>555.40002441406</ele>
        <time>2019-10-11T11:26:36Z</time>
      </trkpt>
      <trkpt lat="44.27604" lon="5.80006">
        <ele>555</ele>
        <time>2019-10-11T11:26:42Z</time>
      </trkpt>
      <trkpt lat="44.27545" lon="5.80131">
        <ele>554</ele>
        <time>2019-10-11T11:26:57Z</time>
      </trkpt>
      <trkpt lat="44.27514" lon="5.80182">
        <ele>552.79998779297</ele>
        <time>2019-10-11T11:27:04Z</time>
      </trkpt>
      <trkpt lat="44.27483" lon="5.80231">
        <ele>551.79998779297</ele>
        <time>2019-10-11T11:27:11Z</time>
      </trkpt>
      <trkpt lat="44.27463" lon="5.8028">
        <ele>551.40002441406</ele>
        <time>2019-10-11T11:27:17Z</time>
      </trkpt>
      <trkpt lat="44.27448" lon="5.80318">
        <ele>550.79998779297</ele>
        <time>2019-10-11T11:27:21Z</time>
      </trkpt>
      <trkpt lat="44.27412" lon="5.80438">
        <ele>547.79998779297</ele>
        <time>2019-10-11T11:27:32Z</time>
      </trkpt>
      <trkpt lat="44.27385" lon="5.80491">
        <ele>546</ele>
        <time>2019-10-11T11:27:38Z</time>
      </trkpt>
      <trkpt lat="44.27349" lon="5.80557">
        <ele>545.79998779297</ele>
        <time>2019-10-11T11:27:46Z</time>
      </trkpt>
      <trkpt lat="44.27332" lon="5.80609">
        <ele>545.59997558594</ele>
        <time>2019-10-11T11:27:52Z</time>
      </trkpt>
      <trkpt lat="44.27331" lon="5.80647">
        <ele>545.20001220703</ele>
        <time>2019-10-11T11:27:56Z</time>
      </trkpt>
      <trkpt lat="44.27323" lon="5.80697">
        <ele>544.79998779297</ele>
        <time>2019-10-11T11:28:01Z</time>
      </trkpt>
      <trkpt lat="44.27303" lon="5.8073">
        <ele>544.20001220703</ele>
        <time>2019-10-11T11:28:05Z</time>
      </trkpt>
      <trkpt lat="44.27285" lon="5.80779">
        <ele>543.40002441406</ele>
        <time>2019-10-11T11:28:10Z</time>
      </trkpt>
      <trkpt lat="44.27271" lon="5.80827">
        <ele>542</ele>
        <time>2019-10-11T11:28:15Z</time>
      </trkpt>
      <trkpt lat="44.27253" lon="5.80892">
        <ele>540.40002441406</ele>
        <time>2019-10-11T11:28:22Z</time>
      </trkpt>
      <trkpt lat="44.27236" lon="5.80971">
        <ele>539.40002441406</ele>
        <time>2019-10-11T11:28:30Z</time>
      </trkpt>
      <trkpt lat="44.27227" lon="5.81026">
        <ele>538.59997558594</ele>
        <time>2019-10-11T11:28:36Z</time>
      </trkpt>
      <trkpt lat="44.27222" lon="5.81067">
        <ele>538.20001220703</ele>
        <time>2019-10-11T11:28:41Z</time>
      </trkpt>
      <trkpt lat="44.27223" lon="5.81137">
        <ele>538</ele>
        <time>2019-10-11T11:28:51Z</time>
      </trkpt>
      <trkpt lat="44.27224" lon="5.81149">
        <ele>537.79998779297</ele>
        <time>2019-10-11T11:28:57Z</time>
      </trkpt>
      <trkpt lat="44.27199" lon="5.81131">
        <ele>537.59997558594</ele>
        <time>2019-10-11T11:29:04Z</time>
      </trkpt>
      <trkpt lat="44.27191" lon="5.81123">
        <ele>537.40002441406</ele>
        <time>2019-10-11T11:29:06Z</time>
      </trkpt>
      <trkpt lat="44.27157" lon="5.81088">
        <ele>536.59997558594</ele>
        <time>2019-10-11T11:29:14Z</time>
      </trkpt>
      <trkpt lat="44.27143" lon="5.81072">
        <ele>536.20001220703</ele>
        <time>2019-10-11T11:29:17Z</time>
      </trkpt>
      <trkpt lat="44.27119" lon="5.81025">
        <ele>535.59997558594</ele>
        <time>2019-10-11T11:29:22Z</time>
      </trkpt>
      <trkpt lat="44.27095" lon="5.81014">
        <ele>534.59997558594</ele>
        <time>2019-10-11T11:29:25Z</time>
      </trkpt>
      <trkpt lat="44.27055" lon="5.80979">
        <ele>531.40002441406</ele>
        <time>2019-10-11T11:29:35Z</time>
      </trkpt>
      <trkpt lat="44.27063" lon="5.80992">
        <ele>531.59997558594</ele>
        <time>2019-10-11T11:29:41Z</time>
      </trkpt>
      <trkpt lat="44.27053" lon="5.80977">
        <ele>531.20001220703</ele>
        <time>2019-10-11T11:30:21Z</time>
      </trkpt>
      <trkpt lat="44.27005" lon="5.80908">
        <ele>531.59997558594</ele>
        <time>2019-10-11T11:30:38Z</time>
      </trkpt>
      <trkpt lat="44.26967" lon="5.80859">
        <ele>532.79998779297</ele>
        <time>2019-10-11T11:31:24Z</time>
      </trkpt>
      <trkpt lat="44.26962" lon="5.80857">
        <ele>532.79998779297</ele>
        <time>2019-10-11T11:31:27Z</time>
      </trkpt>
      <trkpt lat="44.26952" lon="5.80853">
        <ele>533</ele>
        <time>2019-10-11T11:31:32Z</time>
      </trkpt>
      <trkpt lat="44.26947" lon="5.80852">
        <ele>533.40002441406</ele>
        <time>2019-10-11T11:31:38Z</time>
      </trkpt>
      <trkpt lat="44.26943" lon="5.8085">
        <ele>533.59997558594</ele>
        <time>2019-10-11T11:34:36Z</time>
      </trkpt>
      <trkpt lat="44.26938" lon="5.80848">
        <ele>534.40002441406</ele>
        <time>2019-10-11T11:34:46Z</time>
      </trkpt>
      <trkpt lat="44.26928" lon="5.80845">
        <ele>534.40002441406</ele>
        <time>2019-10-11T11:34:51Z</time>
      </trkpt>
      <trkpt lat="44.26911" lon="5.80836">
        <ele>535.20001220703</ele>
        <time>2019-10-11T11:34:57Z</time>
      </trkpt>
      <trkpt lat="44.26898" lon="5.80827">
        <ele>536.20001220703</ele>
        <time>2019-10-11T11:35:02Z</time>
      </trkpt>
      <trkpt lat="44.26879" lon="5.80852">
        <ele>538.40002441406</ele>
        <time>2019-10-11T11:35:12Z</time>
      </trkpt>
      <trkpt lat="44.26865" lon="5.80881">
        <ele>538.59997558594</ele>
        <time>2019-10-11T11:35:17Z</time>
      </trkpt>
      <trkpt lat="44.26827" lon="5.80917">
        <ele>537.20001220703</ele>
        <time>2019-10-11T11:35:25Z</time>
      </trkpt>
      <trkpt lat="44.2681" lon="5.80926">
        <ele>536.59997558594</ele>
        <time>2019-10-11T11:35:29Z</time>
      </trkpt>
      <trkpt lat="44.26773" lon="5.80948">
        <ele>535.79998779297</ele>
        <time>2019-10-11T11:35:37Z</time>
      </trkpt>
      <trkpt lat="44.26764" lon="5.80959">
        <ele>535.59997558594</ele>
        <time>2019-10-11T11:35:39Z</time>
      </trkpt>
      <trkpt lat="44.26749" lon="5.80985">
        <ele>535</ele>
        <time>2019-10-11T11:35:43Z</time>
      </trkpt>
      <trkpt lat="44.26721" lon="5.81102">
        <ele>533.40002441406</ele>
        <time>2019-10-11T11:35:56Z</time>
      </trkpt>
      <trkpt lat="44.26721" lon="5.81133">
        <ele>533.40002441406</ele>
        <time>2019-10-11T11:36:00Z</time>
      </trkpt>
      <trkpt lat="44.26693" lon="5.81199">
        <ele>534.59997558594</ele>
        <time>2019-10-11T11:36:11Z</time>
      </trkpt>
      <trkpt lat="44.26686" lon="5.81228">
        <ele>535.40002441406</ele>
        <time>2019-10-11T11:36:16Z</time>
      </trkpt>
      <trkpt lat="44.26661" lon="5.81276">
        <ele>536</ele>
        <time>2019-10-11T11:36:26Z</time>
      </trkpt>
      <trkpt lat="44.26645" lon="5.81302">
        <ele>536.79998779297</ele>
        <time>2019-10-11T11:36:33Z</time>
      </trkpt>
      <trkpt lat="44.26627" lon="5.81332">
        <ele>539.59997558594</ele>
        <time>2019-10-11T11:36:43Z</time>
      </trkpt>
      <trkpt lat="44.26614" lon="5.81357">
        <ele>540.40002441406</ele>
        <time>2019-10-11T11:36:48Z</time>
      </trkpt>
      <trkpt lat="44.26585" lon="5.81417">
        <ele>539.20001220703</ele>
        <time>2019-10-11T11:36:58Z</time>
      </trkpt>
      <trkpt lat="44.26575" lon="5.81439">
        <ele>538.79998779297</ele>
        <time>2019-10-11T11:37:02Z</time>
      </trkpt>
      <trkpt lat="44.26564" lon="5.81464">
        <ele>538.20001220703</ele>
        <time>2019-10-11T11:37:07Z</time>
      </trkpt>
      <trkpt lat="44.2655" lon="5.81497">
        <ele>537.79998779297</ele>
        <time>2019-10-11T11:37:14Z</time>
      </trkpt>
      <trkpt lat="44.26544" lon="5.8151">
        <ele>537.59997558594</ele>
        <time>2019-10-11T11:37:17Z</time>
      </trkpt>
      <trkpt lat="44.26521" lon="5.81563">
        <ele>535.20001220703</ele>
        <time>2019-10-11T11:37:27Z</time>
      </trkpt>
      <trkpt lat="44.2651" lon="5.81582">
        <ele>534</ele>
        <time>2019-10-11T11:37:31Z</time>
      </trkpt>
      <trkpt lat="44.26479" lon="5.81596">
        <ele>531.79998779297</ele>
        <time>2019-10-11T11:37:40Z</time>
      </trkpt>
      <trkpt lat="44.2646" lon="5.816">
        <ele>531</ele>
        <time>2019-10-11T11:37:44Z</time>
      </trkpt>
      <trkpt lat="44.26446" lon="5.81609">
        <ele>530.20001220703</ele>
        <time>2019-10-11T11:37:47Z</time>
      </trkpt>
      <trkpt lat="44.26435" lon="5.81624">
        <ele>528.59997558594</ele>
        <time>2019-10-11T11:37:50Z</time>
      </trkpt>
      <trkpt lat="44.26422" lon="5.81648">
        <ele>527</ele>
        <time>2019-10-11T11:37:54Z</time>
      </trkpt>
      <trkpt lat="44.26405" lon="5.81677">
        <ele>525.40002441406</ele>
        <time>2019-10-11T11:38:00Z</time>
      </trkpt>
      <trkpt lat="44.26389" lon="5.817">
        <ele>525</ele>
        <time>2019-10-11T11:38:05Z</time>
      </trkpt>
      <trkpt lat="44.26377" lon="5.81724">
        <ele>524.20001220703</ele>
        <time>2019-10-11T11:38:10Z</time>
      </trkpt>
      <trkpt lat="44.26358" lon="5.81771">
        <ele>523.59997558594</ele>
        <time>2019-10-11T11:38:17Z</time>
      </trkpt>
      <trkpt lat="44.26352" lon="5.81791">
        <ele>523.40002441406</ele>
        <time>2019-10-11T11:38:20Z</time>
      </trkpt>
      <trkpt lat="44.26345" lon="5.81823">
        <ele>523.40002441406</ele>
        <time>2019-10-11T11:38:25Z</time>
      </trkpt>
      <trkpt lat="44.26343" lon="5.81849">
        <ele>523</ele>
        <time>2019-10-11T11:38:30Z</time>
      </trkpt>
      <trkpt lat="44.26329" lon="5.81866">
        <ele>522.79998779297</ele>
        <time>2019-10-11T11:38:35Z</time>
      </trkpt>
      <trkpt lat="44.26309" lon="5.81907">
        <ele>522.59997558594</ele>
        <time>2019-10-11T11:38:42Z</time>
      </trkpt>
      <trkpt lat="44.26283" lon="5.81953">
        <ele>522.40002441406</ele>
        <time>2019-10-11T11:38:50Z</time>
      </trkpt>
      <trkpt lat="44.26272" lon="5.81992">
        <ele>522.40002441406</ele>
        <time>2019-10-11T11:38:56Z</time>
      </trkpt>
      <trkpt lat="44.26268" lon="5.82042">
        <ele>522.79998779297</ele>
        <time>2019-10-11T11:39:03Z</time>
      </trkpt>
      <trkpt lat="44.26269" lon="5.82157">
        <ele>524</ele>
        <time>2019-10-11T11:39:20Z</time>
      </trkpt>
      <trkpt lat="44.26264" lon="5.82182">
        <ele>524</ele>
        <time>2019-10-11T11:39:26Z</time>
      </trkpt>
      <trkpt lat="44.26235" lon="5.82249">
        <ele>524.20001220703</ele>
        <time>2019-10-11T11:39:39Z</time>
      </trkpt>
      <trkpt lat="44.26166" lon="5.82284">
        <ele>524.79998779297</ele>
        <time>2019-10-11T11:39:53Z</time>
      </trkpt>
      <trkpt lat="44.26095" lon="5.8232">
        <ele>525.59997558594</ele>
        <time>2019-10-11T11:40:07Z</time>
      </trkpt>
      <trkpt lat="44.26039" lon="5.82335">
        <ele>526.20001220703</ele>
        <time>2019-10-11T11:40:18Z</time>
      </trkpt>
      <trkpt lat="44.25989" lon="5.8234">
        <ele>527.40002441406</ele>
        <time>2019-10-11T11:40:29Z</time>
      </trkpt>
      <trkpt lat="44.25878" lon="5.82357">
        <ele>528</ele>
        <time>2019-10-11T11:40:50Z</time>
      </trkpt>
      <trkpt lat="44.25845" lon="5.8237">
        <ele>528.20001220703</ele>
        <time>2019-10-11T11:40:56Z</time>
      </trkpt>
      <trkpt lat="44.25797" lon="5.82404">
        <ele>528</ele>
        <time>2019-10-11T11:41:05Z</time>
      </trkpt>
      <trkpt lat="44.25746" lon="5.82452">
        <ele>527</ele>
        <time>2019-10-11T11:41:16Z</time>
      </trkpt>
      <trkpt lat="44.2567" lon="5.82535">
        <ele>525.59997558594</ele>
        <time>2019-10-11T11:41:31Z</time>
      </trkpt>
      <trkpt lat="44.25637" lon="5.82582">
        <ele>525</ele>
        <time>2019-10-11T11:41:38Z</time>
      </trkpt>
      <trkpt lat="44.25573" lon="5.82699">
        <ele>523.40002441406</ele>
        <time>2019-10-11T11:41:52Z</time>
      </trkpt>
      <trkpt lat="44.25538" lon="5.8279">
        <ele>522.59997558594</ele>
        <time>2019-10-11T11:42:02Z</time>
      </trkpt>
      <trkpt lat="44.25496" lon="5.82955">
        <ele>520</ele>
        <time>2019-10-11T11:42:20Z</time>
      </trkpt>
      <trkpt lat="44.25494" lon="5.82959">
        <ele>519.20001220703</ele>
        <time>2019-10-11T11:42:23Z</time>
      </trkpt>
      <trkpt lat="44.25486" lon="5.8299">
        <ele>518.40002441406</ele>
        <time>2019-10-11T11:42:35Z</time>
      </trkpt>
      <trkpt lat="44.25484" lon="5.82996">
        <ele>518.79998779297</ele>
        <time>2019-10-11T11:43:26Z</time>
      </trkpt>
      <trkpt lat="44.25447" lon="5.83087">
        <ele>519</ele>
        <time>2019-10-11T11:43:44Z</time>
      </trkpt>
      <trkpt lat="44.25423" lon="5.83128">
        <ele>519</ele>
        <time>2019-10-11T11:43:51Z</time>
      </trkpt>
      <trkpt lat="44.25404" lon="5.83153">
        <ele>519.59997558594</ele>
        <time>2019-10-11T11:43:56Z</time>
      </trkpt>
      <trkpt lat="44.25375" lon="5.83186">
        <ele>520.20001220703</ele>
        <time>2019-10-11T11:44:03Z</time>
      </trkpt>
      <trkpt lat="44.25333" lon="5.83229">
        <ele>521.20001220703</ele>
        <time>2019-10-11T11:44:13Z</time>
      </trkpt>
      <trkpt lat="44.25291" lon="5.83271">
        <ele>522.40002441406</ele>
        <time>2019-10-11T11:44:24Z</time>
      </trkpt>
      <trkpt lat="44.25263" lon="5.83295">
        <ele>523.40002441406</ele>
        <time>2019-10-11T11:44:32Z</time>
      </trkpt>
      <trkpt lat="44.25206" lon="5.83342">
        <ele>526.40002441406</ele>
        <time>2019-10-11T11:44:49Z</time>
      </trkpt>
      <trkpt lat="44.25171" lon="5.83374">
        <ele>527.79998779297</ele>
        <time>2019-10-11T11:45:00Z</time>
      </trkpt>
      <trkpt lat="44.25128" lon="5.83425">
        <ele>529.59997558594</ele>
        <time>2019-10-11T11:45:15Z</time>
      </trkpt>
      <trkpt lat="44.2509" lon="5.83511">
        <ele>531.20001220703</ele>
        <time>2019-10-11T11:45:31Z</time>
      </trkpt>
      <trkpt lat="44.25072" lon="5.83589">
        <ele>531.40002441406</ele>
        <time>2019-10-11T11:45:43Z</time>
      </trkpt>
      <trkpt lat="44.25057" lon="5.83662">
        <ele>531.79998779297</ele>
        <time>2019-10-11T11:45:54Z</time>
      </trkpt>
      <trkpt lat="44.2504" lon="5.83742">
        <ele>532.79998779297</ele>
        <time>2019-10-11T11:46:06Z</time>
      </trkpt>
      <trkpt lat="44.25025" lon="5.83814">
        <ele>534.20001220703</ele>
        <time>2019-10-11T11:46:18Z</time>
      </trkpt>
      <trkpt lat="44.25009" lon="5.83892">
        <ele>535.59997558594</ele>
        <time>2019-10-11T11:46:31Z</time>
      </trkpt>
      <trkpt lat="44.24988" lon="5.83969">
        <ele>537.20001220703</ele>
        <time>2019-10-11T11:46:44Z</time>
      </trkpt>
      <trkpt lat="44.24959" lon="5.84011">
        <ele>538.20001220703</ele>
        <time>2019-10-11T11:46:53Z</time>
      </trkpt>
      <trkpt lat="44.24912" lon="5.84055">
        <ele>539.59997558594</ele>
        <time>2019-10-11T11:47:05Z</time>
      </trkpt>
      <trkpt lat="44.24881" lon="5.84082">
        <ele>540.59997558594</ele>
        <time>2019-10-11T11:47:13Z</time>
      </trkpt>
      <trkpt lat="44.24841" lon="5.84115">
        <ele>541.40002441406</ele>
        <time>2019-10-11T11:47:24Z</time>
      </trkpt>
      <trkpt lat="44.24825" lon="5.84128">
        <ele>541.40002441406</ele>
        <time>2019-10-11T11:47:30Z</time>
      </trkpt>
      <trkpt lat="44.24812" lon="5.84139">
        <ele>542</ele>
        <time>2019-10-11T11:48:19Z</time>
      </trkpt>
      <trkpt lat="44.24804" lon="5.84145">
        <ele>542</ele>
        <time>2019-10-11T11:48:23Z</time>
      </trkpt>
      <trkpt lat="44.24771" lon="5.84173">
        <ele>542</ele>
        <time>2019-10-11T11:48:32Z</time>
      </trkpt>
      <trkpt lat="44.24722" lon="5.84214">
        <ele>542</ele>
        <time>2019-10-11T11:48:44Z</time>
      </trkpt>
      <trkpt lat="44.24672" lon="5.84255">
        <ele>541.79998779297</ele>
        <time>2019-10-11T11:48:54Z</time>
      </trkpt>
      <trkpt lat="44.24619" lon="5.84297">
        <ele>541.20001220703</ele>
        <time>2019-10-11T11:49:04Z</time>
      </trkpt>
      <trkpt lat="44.24553" lon="5.84349">
        <ele>540.79998779297</ele>
        <time>2019-10-11T11:49:16Z</time>
      </trkpt>
      <trkpt lat="44.24511" lon="5.84382">
        <ele>540.20001220703</ele>
        <time>2019-10-11T11:49:23Z</time>
      </trkpt>
      <trkpt lat="44.24486" lon="5.84401">
        <ele>540</ele>
        <time>2019-10-11T11:49:27Z</time>
      </trkpt>
      <trkpt lat="44.24467" lon="5.84416">
        <ele>539.59997558594</ele>
        <time>2019-10-11T11:49:30Z</time>
      </trkpt>
      <trkpt lat="44.24414" lon="5.84458">
        <ele>538.40002441406</ele>
        <time>2019-10-11T11:49:38Z</time>
      </trkpt>
      <trkpt lat="44.24324" lon="5.8453">
        <ele>535.79998779297</ele>
        <time>2019-10-11T11:49:51Z</time>
      </trkpt>
      <trkpt lat="44.24302" lon="5.84547">
        <ele>535.20001220703</ele>
        <time>2019-10-11T11:49:54Z</time>
      </trkpt>
      <trkpt lat="44.24257" lon="5.84584">
        <ele>534</ele>
        <time>2019-10-11T11:50:00Z</time>
      </trkpt>
      <trkpt lat="44.24225" lon="5.84609">
        <ele>532.79998779297</ele>
        <time>2019-10-11T11:50:04Z</time>
      </trkpt>
      <trkpt lat="44.2414" lon="5.84677">
        <ele>530.20001220703</ele>
        <time>2019-10-11T11:50:15Z</time>
      </trkpt>
      <trkpt lat="44.24081" lon="5.84725">
        <ele>528.59997558594</ele>
        <time>2019-10-11T11:50:23Z</time>
      </trkpt>
      <trkpt lat="44.24025" lon="5.8477">
        <ele>527.40002441406</ele>
        <time>2019-10-11T11:50:31Z</time>
      </trkpt>
      <trkpt lat="44.23952" lon="5.84828">
        <ele>526</ele>
        <time>2019-10-11T11:50:42Z</time>
      </trkpt>
      <trkpt lat="44.23906" lon="5.84865">
        <ele>525.40002441406</ele>
        <time>2019-10-11T11:50:49Z</time>
      </trkpt>
      <trkpt lat="44.23888" lon="5.8488">
        <ele>524.79998779297</ele>
        <time>2019-10-11T11:50:52Z</time>
      </trkpt>
      <trkpt lat="44.23838" lon="5.84919">
        <ele>524.20001220703</ele>
        <time>2019-10-11T11:51:00Z</time>
      </trkpt>
      <trkpt lat="44.23771" lon="5.84974">
        <ele>523.79998779297</ele>
        <time>2019-10-11T11:51:11Z</time>
      </trkpt>
      <trkpt lat="44.23689" lon="5.85039">
        <ele>523</ele>
        <time>2019-10-11T11:51:25Z</time>
      </trkpt>
      <trkpt lat="44.23641" lon="5.8509">
        <ele>523.40002441406</ele>
        <time>2019-10-11T11:51:35Z</time>
      </trkpt>
      <trkpt lat="44.2363" lon="5.85108">
        <ele>523.40002441406</ele>
        <time>2019-10-11T11:51:38Z</time>
      </trkpt>
      <trkpt lat="44.23604" lon="5.85112">
        <ele>523.59997558594</ele>
        <time>2019-10-11T11:51:44Z</time>
      </trkpt>
      <trkpt lat="44.23579" lon="5.85126">
        <ele>523.79998779297</ele>
        <time>2019-10-11T11:51:48Z</time>
      </trkpt>
      <trkpt lat="44.23556" lon="5.85146">
        <ele>524</ele>
        <time>2019-10-11T11:51:53Z</time>
      </trkpt>
      <trkpt lat="44.23533" lon="5.85165">
        <ele>524.20001220703</ele>
        <time>2019-10-11T11:51:58Z</time>
      </trkpt>
      <trkpt lat="44.23487" lon="5.85203">
        <ele>525.40002441406</ele>
        <time>2019-10-11T11:52:09Z</time>
      </trkpt>
      <trkpt lat="44.2348" lon="5.8521">
        <ele>525.59997558594</ele>
        <time>2019-10-11T11:52:11Z</time>
      </trkpt>
      <trkpt lat="44.23393" lon="5.85282">
        <ele>526.79998779297</ele>
        <time>2019-10-11T11:52:31Z</time>
      </trkpt>
      <trkpt lat="44.23347" lon="5.85318">
        <ele>526.59997558594</ele>
        <time>2019-10-11T11:52:39Z</time>
      </trkpt>
      <trkpt lat="44.23332" lon="5.85331">
        <ele>526.59997558594</ele>
        <time>2019-10-11T11:52:42Z</time>
      </trkpt>
      <trkpt lat="44.23325" lon="5.85357">
        <ele>526.20001220703</ele>
        <time>2019-10-11T11:52:45Z</time>
      </trkpt>
      <trkpt lat="44.23318" lon="5.854">
        <ele>525.59997558594</ele>
        <time>2019-10-11T11:52:49Z</time>
      </trkpt>
      <trkpt lat="44.23311" lon="5.85447">
        <ele>524.40002441406</ele>
        <time>2019-10-11T11:52:53Z</time>
      </trkpt>
      <trkpt lat="44.23304" lon="5.85496">
        <ele>521.20001220703</ele>
        <time>2019-10-11T11:52:59Z</time>
      </trkpt>
      <trkpt lat="44.23288" lon="5.85501">
        <ele>518.59997558594</ele>
        <time>2019-10-11T11:53:03Z</time>
      </trkpt>
      <trkpt lat="44.23277" lon="5.85504">
        <ele>517.59997558594</ele>
        <time>2019-10-11T11:53:05Z</time>
      </trkpt>
      <trkpt lat="44.23213" lon="5.8553">
        <ele>515.20001220703</ele>
        <time>2019-10-11T11:53:16Z</time>
      </trkpt>
      <trkpt lat="44.23205" lon="5.85538">
        <ele>515.20001220703</ele>
        <time>2019-10-11T11:53:18Z</time>
      </trkpt>
      <trkpt lat="44.2319" lon="5.85554">
        <ele>515.59997558594</ele>
        <time>2019-10-11T11:53:25Z</time>
      </trkpt>
      <trkpt lat="44.23182" lon="5.85566">
        <ele>516.59997558594</ele>
        <time>2019-10-11T11:53:30Z</time>
      </trkpt>
      <trkpt lat="44.2317" lon="5.85585">
        <ele>517.40002441406</ele>
        <time>2019-10-11T11:53:37Z</time>
      </trkpt>
      <trkpt lat="44.23161" lon="5.85599">
        <ele>518.79998779297</ele>
        <time>2019-10-11T11:53:43Z</time>
      </trkpt>
      <trkpt lat="44.23153" lon="5.8561">
        <ele>520.20001220703</ele>
        <time>2019-10-11T11:53:48Z</time>
      </trkpt>
      <trkpt lat="44.23116" lon="5.8565">
        <ele>522</ele>
        <time>2019-10-11T11:54:03Z</time>
      </trkpt>
      <trkpt lat="44.23107" lon="5.85658">
        <ele>521.79998779297</ele>
        <time>2019-10-11T11:54:07Z</time>
      </trkpt>
      <trkpt lat="44.23099" lon="5.85664">
        <ele>521.59997558594</ele>
        <time>2019-10-11T11:54:12Z</time>
      </trkpt>
      <trkpt lat="44.23085" lon="5.85674">
        <ele>521.40002441406</ele>
        <time>2019-10-11T11:54:17Z</time>
      </trkpt>
      <trkpt lat="44.23054" lon="5.85697">
        <ele>521.40002441406</ele>
        <time>2019-10-11T11:54:25Z</time>
      </trkpt>
      <trkpt lat="44.23016" lon="5.85724">
        <ele>521.40002441406</ele>
        <time>2019-10-11T11:54:33Z</time>
      </trkpt>
      <trkpt lat="44.22962" lon="5.85762">
        <ele>521.40002441406</ele>
        <time>2019-10-11T11:54:45Z</time>
      </trkpt>
      <trkpt lat="44.22949" lon="5.85768">
        <ele>521.40002441406</ele>
        <time>2019-10-11T11:54:52Z</time>
      </trkpt>
      <trkpt lat="44.22907" lon="5.85788">
        <ele>521.20001220703</ele>
        <time>2019-10-11T11:55:05Z</time>
      </trkpt>
      <trkpt lat="44.22883" lon="5.85801">
        <ele>521.20001220703</ele>
        <time>2019-10-11T11:55:10Z</time>
      </trkpt>
      <trkpt lat="44.22817" lon="5.85836">
        <ele>520.79998779297</ele>
        <time>2019-10-11T11:55:24Z</time>
      </trkpt>
      <trkpt lat="44.22792" lon="5.85847">
        <ele>521</ele>
        <time>2019-10-11T11:55:29Z</time>
      </trkpt>
      <trkpt lat="44.22689" lon="5.85896">
        <ele>520.79998779297</ele>
        <time>2019-10-11T11:55:48Z</time>
      </trkpt>
      <trkpt lat="44.22629" lon="5.85925">
        <ele>520.59997558594</ele>
        <time>2019-10-11T11:55:58Z</time>
      </trkpt>
      <trkpt lat="44.22569" lon="5.85954">
        <ele>520.20001220703</ele>
        <time>2019-10-11T11:56:08Z</time>
      </trkpt>
      <trkpt lat="44.22447" lon="5.86014">
        <ele>519.79998779297</ele>
        <time>2019-10-11T11:56:27Z</time>
      </trkpt>
      <trkpt lat="44.22415" lon="5.8603">
        <ele>519.79998779297</ele>
        <time>2019-10-11T11:56:32Z</time>
      </trkpt>
      <trkpt lat="44.22288" lon="5.86092">
        <ele>518.79998779297</ele>
        <time>2019-10-11T11:56:51Z</time>
      </trkpt>
      <trkpt lat="44.22236" lon="5.86119">
        <ele>518.79998779297</ele>
        <time>2019-10-11T11:56:59Z</time>
      </trkpt>
      <trkpt lat="44.22161" lon="5.86155">
        <ele>518.20001220703</ele>
        <time>2019-10-11T11:57:10Z</time>
      </trkpt>
      <trkpt lat="44.22109" lon="5.86185">
        <ele>518</ele>
        <time>2019-10-11T11:57:18Z</time>
      </trkpt>
      <trkpt lat="44.22059" lon="5.86241">
        <ele>517.79998779297</ele>
        <time>2019-10-11T11:57:27Z</time>
      </trkpt>
      <trkpt lat="44.22041" lon="5.86268">
        <ele>517.40002441406</ele>
        <time>2019-10-11T11:57:31Z</time>
      </trkpt>
      <trkpt lat="44.22006" lon="5.86317">
        <ele>516.79998779297</ele>
        <time>2019-10-11T11:57:39Z</time>
      </trkpt>
      <trkpt lat="44.21973" lon="5.86362">
        <ele>516.40002441406</ele>
        <time>2019-10-11T11:57:46Z</time>
      </trkpt>
      <trkpt lat="44.21915" lon="5.86441">
        <ele>515.20001220703</ele>
        <time>2019-10-11T11:57:57Z</time>
      </trkpt>
      <trkpt lat="44.21877" lon="5.86492">
        <ele>514.79998779297</ele>
        <time>2019-10-11T11:58:04Z</time>
      </trkpt>
      <trkpt lat="44.21855" lon="5.86522">
        <ele>514.40002441406</ele>
        <time>2019-10-11T11:58:08Z</time>
      </trkpt>
      <trkpt lat="44.21813" lon="5.86581">
        <ele>513.40002441406</ele>
        <time>2019-10-11T11:58:15Z</time>
      </trkpt>
      <trkpt lat="44.21793" lon="5.86609">
        <ele>512.59997558594</ele>
        <time>2019-10-11T11:58:18Z</time>
      </trkpt>
      <trkpt lat="44.21751" lon="5.86671">
        <ele>510.39999389648</ele>
        <time>2019-10-11T11:58:24Z</time>
      </trkpt>
      <trkpt lat="44.21738" lon="5.86693">
        <ele>509.39999389648</ele>
        <time>2019-10-11T11:58:26Z</time>
      </trkpt>
      <trkpt lat="44.2172" lon="5.86728">
        <ele>508.20001220703</ele>
        <time>2019-10-11T11:58:29Z</time>
      </trkpt>
      <trkpt lat="44.21702" lon="5.86764">
        <ele>507</ele>
        <time>2019-10-11T11:58:32Z</time>
      </trkpt>
      <trkpt lat="44.21683" lon="5.86799">
        <ele>506</ele>
        <time>2019-10-11T11:58:35Z</time>
      </trkpt>
      <trkpt lat="44.21655" lon="5.86842">
        <ele>504</ele>
        <time>2019-10-11T11:58:39Z</time>
      </trkpt>
      <trkpt lat="44.21606" lon="5.86898">
        <ele>501.39999389648</ele>
        <time>2019-10-11T11:58:45Z</time>
      </trkpt>
      <trkpt lat="44.21543" lon="5.86973">
        <ele>499</ele>
        <time>2019-10-11T11:58:53Z</time>
      </trkpt>
      <trkpt lat="44.2152" lon="5.87">
        <ele>498.20001220703</ele>
        <time>2019-10-11T11:58:56Z</time>
      </trkpt>
      <trkpt lat="44.21466" lon="5.87064">
        <ele>497.20001220703</ele>
        <time>2019-10-11T11:59:04Z</time>
      </trkpt>
      <trkpt lat="44.21386" lon="5.87155">
        <ele>496.39999389648</ele>
        <time>2019-10-11T11:59:16Z</time>
      </trkpt>
      <trkpt lat="44.21358" lon="5.87187">
        <ele>495.60000610352</ele>
        <time>2019-10-11T11:59:20Z</time>
      </trkpt>
      <trkpt lat="44.2133" lon="5.87219">
        <ele>494.79998779297</ele>
        <time>2019-10-11T11:59:24Z</time>
      </trkpt>
      <trkpt lat="44.21217" lon="5.87347">
        <ele>492</ele>
        <time>2019-10-11T11:59:41Z</time>
      </trkpt>
      <trkpt lat="44.21154" lon="5.87416">
        <ele>490.79998779297</ele>
        <time>2019-10-11T11:59:51Z</time>
      </trkpt>
      <trkpt lat="44.21092" lon="5.87488">
        <ele>490.60000610352</ele>
        <time>2019-10-11T12:00:03Z</time>
      </trkpt>
      <trkpt lat="44.21073" lon="5.8751">
        <ele>491.20001220703</ele>
        <time>2019-10-11T12:00:07Z</time>
      </trkpt>
      <trkpt lat="44.2106" lon="5.87525">
        <ele>491.39999389648</ele>
        <time>2019-10-11T12:00:10Z</time>
      </trkpt>
      <trkpt lat="44.21051" lon="5.87534">
        <ele>491.79998779297</ele>
        <time>2019-10-11T12:00:12Z</time>
      </trkpt>
      <trkpt lat="44.21007" lon="5.87584">
        <ele>492.79998779297</ele>
        <time>2019-10-11T12:00:22Z</time>
      </trkpt>
      <trkpt lat="44.20969" lon="5.87629">
        <ele>493.20001220703</ele>
        <time>2019-10-11T12:00:30Z</time>
      </trkpt>
      <trkpt lat="44.20887" lon="5.87727">
        <ele>494</ele>
        <time>2019-10-11T12:00:48Z</time>
      </trkpt>
      <trkpt lat="44.20851" lon="5.87787">
        <ele>494.39999389648</ele>
        <time>2019-10-11T12:00:58Z</time>
      </trkpt>
      <trkpt lat="44.2082" lon="5.87852">
        <ele>495</ele>
        <time>2019-10-11T12:01:08Z</time>
      </trkpt>
      <trkpt lat="44.20796" lon="5.87933">
        <ele>495.20001220703</ele>
        <time>2019-10-11T12:01:18Z</time>
      </trkpt>
      <trkpt lat="44.20783" lon="5.87983">
        <ele>495</ele>
        <time>2019-10-11T12:01:24Z</time>
      </trkpt>
      <trkpt lat="44.20767" lon="5.88047">
        <ele>494.20001220703</ele>
        <time>2019-10-11T12:01:31Z</time>
      </trkpt>
      <trkpt lat="44.20741" lon="5.8815">
        <ele>493.60000610352</ele>
        <time>2019-10-11T12:01:42Z</time>
      </trkpt>
      <trkpt lat="44.20729" lon="5.88198">
        <ele>493.20001220703</ele>
        <time>2019-10-11T12:01:47Z</time>
      </trkpt>
      <trkpt lat="44.20713" lon="5.88263">
        <ele>492.60000610352</ele>
        <time>2019-10-11T12:01:54Z</time>
      </trkpt>
      <trkpt lat="44.2068" lon="5.88396">
        <ele>491.39999389648</ele>
        <time>2019-10-11T12:02:08Z</time>
      </trkpt>
      <trkpt lat="44.20659" lon="5.8848">
        <ele>491</ele>
        <time>2019-10-11T12:02:17Z</time>
      </trkpt>
      <trkpt lat="44.20633" lon="5.88583">
        <ele>490.60000610352</ele>
        <time>2019-10-11T12:02:29Z</time>
      </trkpt>
      <trkpt lat="44.20616" lon="5.88647">
        <ele>490.20001220703</ele>
        <time>2019-10-11T12:02:36Z</time>
      </trkpt>
      <trkpt lat="44.20596" lon="5.88726">
        <ele>489.39999389648</ele>
        <time>2019-10-11T12:02:44Z</time>
      </trkpt>
      <trkpt lat="44.20584" lon="5.88776">
        <ele>489.20001220703</ele>
        <time>2019-10-11T12:02:49Z</time>
      </trkpt>
      <trkpt lat="44.20541" lon="5.88946">
        <ele>487.60000610352</ele>
        <time>2019-10-11T12:03:07Z</time>
      </trkpt>
      <trkpt lat="44.20518" lon="5.89036">
        <ele>487</ele>
        <time>2019-10-11T12:03:18Z</time>
      </trkpt>
      <trkpt lat="44.20513" lon="5.89055">
        <ele>486.60000610352</ele>
        <time>2019-10-11T12:03:20Z</time>
      </trkpt>
      <trkpt lat="44.20487" lon="5.89158">
        <ele>486</ele>
        <time>2019-10-11T12:03:31Z</time>
      </trkpt>
      <trkpt lat="44.2048" lon="5.89185">
        <ele>485.79998779297</ele>
        <time>2019-10-11T12:03:34Z</time>
      </trkpt>
      <trkpt lat="44.20445" lon="5.89323">
        <ele>485.60000610352</ele>
        <time>2019-10-11T12:03:50Z</time>
      </trkpt>
      <trkpt lat="44.20433" lon="5.89371">
        <ele>486</ele>
        <time>2019-10-11T12:03:56Z</time>
      </trkpt>
      <trkpt lat="44.20427" lon="5.89394">
        <ele>486.20001220703</ele>
        <time>2019-10-11T12:03:59Z</time>
      </trkpt>
      <trkpt lat="44.2042" lon="5.89424">
        <ele>486.79998779297</ele>
        <time>2019-10-11T12:04:03Z</time>
      </trkpt>
      <trkpt lat="44.20409" lon="5.89465">
        <ele>487.20001220703</ele>
        <time>2019-10-11T12:04:09Z</time>
      </trkpt>
      <trkpt lat="44.20401" lon="5.89499">
        <ele>487.79998779297</ele>
        <time>2019-10-11T12:04:14Z</time>
      </trkpt>
      <trkpt lat="44.2038" lon="5.89576">
        <ele>489</ele>
        <time>2019-10-11T12:04:25Z</time>
      </trkpt>
      <trkpt lat="44.20358" lon="5.8966">
        <ele>489.39999389648</ele>
        <time>2019-10-11T12:04:36Z</time>
      </trkpt>
      <trkpt lat="44.20323" lon="5.89792">
        <ele>489.39999389648</ele>
        <time>2019-10-11T12:04:52Z</time>
      </trkpt>
      <trkpt lat="44.20298" lon="5.89888">
        <ele>489.39999389648</ele>
        <time>2019-10-11T12:05:03Z</time>
      </trkpt>
      <trkpt lat="44.20276" lon="5.89975">
        <ele>489.39999389648</ele>
        <time>2019-10-11T12:05:13Z</time>
      </trkpt>
      <trkpt lat="44.20257" lon="5.90123">
        <ele>489.60000610352</ele>
        <time>2019-10-11T12:05:30Z</time>
      </trkpt>
      <trkpt lat="44.2025" lon="5.90208">
        <ele>491</ele>
        <time>2019-10-11T12:05:41Z</time>
      </trkpt>
      <trkpt lat="44.20236" lon="5.9034">
        <ele>491.79998779297</ele>
        <time>2019-10-11T12:05:57Z</time>
      </trkpt>
      <trkpt lat="44.20237" lon="5.90356">
        <ele>491.79998779297</ele>
        <time>2019-10-11T12:05:59Z</time>
      </trkpt>
      <trkpt lat="44.2024" lon="5.90422">
        <ele>491.20001220703</ele>
        <time>2019-10-11T12:06:07Z</time>
      </trkpt>
      <trkpt lat="44.20243" lon="5.90461">
        <ele>490.60000610352</ele>
        <time>2019-10-11T12:06:12Z</time>
      </trkpt>
      <trkpt lat="44.20244" lon="5.90502">
        <ele>489.79998779297</ele>
        <time>2019-10-11T12:06:17Z</time>
      </trkpt>
      <trkpt lat="44.20236" lon="5.90569">
        <ele>489.39999389648</ele>
        <time>2019-10-11T12:06:26Z</time>
      </trkpt>
      <trkpt lat="44.20204" lon="5.90634">
        <ele>489.20001220703</ele>
        <time>2019-10-11T12:06:36Z</time>
      </trkpt>
      <trkpt lat="44.20139" lon="5.90715">
        <ele>488</ele>
        <time>2019-10-11T12:06:47Z</time>
      </trkpt>
      <trkpt lat="44.20095" lon="5.90775">
        <ele>487</ele>
        <time>2019-10-11T12:06:56Z</time>
      </trkpt>
      <trkpt lat="44.20063" lon="5.90851">
        <ele>486.60000610352</ele>
        <time>2019-10-11T12:07:05Z</time>
      </trkpt>
      <trkpt lat="44.2003" lon="5.90943">
        <ele>486.79998779297</ele>
        <time>2019-10-11T12:07:17Z</time>
      </trkpt>
      <trkpt lat="44.20031" lon="5.90948">
        <ele>486.60000610352</ele>
        <time>2019-10-11T12:07:22Z</time>
      </trkpt>
      <trkpt lat="44.20032" lon="5.90939">
        <ele>486</ele>
        <time>2019-10-11T12:07:27Z</time>
      </trkpt>
      <trkpt lat="44.20033" lon="5.90935">
        <ele>485.79998779297</ele>
        <time>2019-10-11T12:08:07Z</time>
      </trkpt>
      <trkpt lat="44.20026" lon="5.90942">
        <ele>485.79998779297</ele>
        <time>2019-10-11T12:08:13Z</time>
      </trkpt>
      <trkpt lat="44.20016" lon="5.90986">
        <ele>485.79998779297</ele>
        <time>2019-10-11T12:08:20Z</time>
      </trkpt>
      <trkpt lat="44.20004" lon="5.91022">
        <ele>485.39999389648</ele>
        <time>2019-10-11T12:08:24Z</time>
      </trkpt>
      <trkpt lat="44.19991" lon="5.91138">
        <ele>483.60000610352</ele>
        <time>2019-10-11T12:08:35Z</time>
      </trkpt>
      <trkpt lat="44.20001" lon="5.91215">
        <ele>482.20001220703</ele>
        <time>2019-10-11T12:08:42Z</time>
      </trkpt>
      <trkpt lat="44.2002" lon="5.91343">
        <ele>480.20001220703</ele>
        <time>2019-10-11T12:08:53Z</time>
      </trkpt>
      <trkpt lat="44.20029" lon="5.914">
        <ele>479.60000610352</ele>
        <time>2019-10-11T12:08:58Z</time>
      </trkpt>
      <trkpt lat="44.2004" lon="5.91466">
        <ele>479</ele>
        <time>2019-10-11T12:09:04Z</time>
      </trkpt>
      <trkpt lat="44.20046" lon="5.91509">
        <ele>478.60000610352</ele>
        <time>2019-10-11T12:09:08Z</time>
      </trkpt>
      <trkpt lat="44.20055" lon="5.91563">
        <ele>477.79998779297</ele>
        <time>2019-10-11T12:09:13Z</time>
      </trkpt>
      <trkpt lat="44.20058" lon="5.91583">
        <ele>477.79998779297</ele>
        <time>2019-10-11T12:09:15Z</time>
      </trkpt>
      <trkpt lat="44.20064" lon="5.9162">
        <ele>477.60000610352</ele>
        <time>2019-10-11T12:09:19Z</time>
      </trkpt>
      <trkpt lat="44.20087" lon="5.91776">
        <ele>477.20001220703</ele>
        <time>2019-10-11T12:09:36Z</time>
      </trkpt>
      <trkpt lat="44.2009" lon="5.9185">
        <ele>477</ele>
        <time>2019-10-11T12:09:44Z</time>
      </trkpt>
      <trkpt lat="44.20094" lon="5.91962">
        <ele>477</ele>
        <time>2019-10-11T12:09:56Z</time>
      </trkpt>
      <trkpt lat="44.20097" lon="5.92021">
        <ele>476.39999389648</ele>
        <time>2019-10-11T12:10:02Z</time>
      </trkpt>
      <trkpt lat="44.20104" lon="5.9218">
        <ele>474.79998779297</ele>
        <time>2019-10-11T12:10:18Z</time>
      </trkpt>
      <trkpt lat="44.20105" lon="5.92296">
        <ele>474.60000610352</ele>
        <time>2019-10-11T12:10:30Z</time>
      </trkpt>
      <trkpt lat="44.20082" lon="5.92435">
        <ele>474.60000610352</ele>
        <time>2019-10-11T12:10:47Z</time>
      </trkpt>
      <trkpt lat="44.20065" lon="5.925">
        <ele>475</ele>
        <time>2019-10-11T12:10:56Z</time>
      </trkpt>
      <trkpt lat="44.20049" lon="5.92566">
        <ele>475.39999389648</ele>
        <time>2019-10-11T12:11:04Z</time>
      </trkpt>
      <trkpt lat="44.20039" lon="5.92633">
        <ele>475.60000610352</ele>
        <time>2019-10-11T12:11:12Z</time>
      </trkpt>
      <trkpt lat="44.20021" lon="5.92769">
        <ele>476.39999389648</ele>
        <time>2019-10-11T12:11:30Z</time>
      </trkpt>
      <trkpt lat="44.20018" lon="5.92923">
        <ele>476.39999389648</ele>
        <time>2019-10-11T12:11:49Z</time>
      </trkpt>
      <trkpt lat="44.20017" lon="5.93009">
        <ele>476.39999389648</ele>
        <time>2019-10-11T12:11:59Z</time>
      </trkpt>
      <trkpt lat="44.2002" lon="5.93088">
        <ele>476.60000610352</ele>
        <time>2019-10-11T12:12:08Z</time>
      </trkpt>
      <trkpt lat="44.20023" lon="5.93105">
        <ele>476.79998779297</ele>
        <time>2019-10-11T12:12:10Z</time>
      </trkpt>
      <trkpt lat="44.20031" lon="5.93167">
        <ele>476.60000610352</ele>
        <time>2019-10-11T12:12:17Z</time>
      </trkpt>
      <trkpt lat="44.20039" lon="5.93246">
        <ele>475.39999389648</ele>
        <time>2019-10-11T12:12:26Z</time>
      </trkpt>
      <trkpt lat="44.20042" lon="5.93331">
        <ele>475.60000610352</ele>
        <time>2019-10-11T12:12:36Z</time>
      </trkpt>
      <trkpt lat="44.20044" lon="5.93446">
        <ele>476.79998779297</ele>
        <time>2019-10-11T12:12:50Z</time>
      </trkpt>
      <trkpt lat="44.20046" lon="5.935">
        <ele>477.20001220703</ele>
        <time>2019-10-11T12:12:57Z</time>
      </trkpt>
      <trkpt lat="44.20047" lon="5.93544">
        <ele>477.79998779297</ele>
        <time>2019-10-11T12:13:03Z</time>
      </trkpt>
      <trkpt lat="44.20048" lon="5.9357">
        <ele>478.39999389648</ele>
        <time>2019-10-11T12:13:07Z</time>
      </trkpt>
      <trkpt lat="44.2005" lon="5.93606">
        <ele>479.39999389648</ele>
        <time>2019-10-11T12:13:13Z</time>
      </trkpt>
      <trkpt lat="44.20054" lon="5.93674">
        <ele>481</ele>
        <time>2019-10-11T12:13:24Z</time>
      </trkpt>
      <trkpt lat="44.20057" lon="5.93742">
        <ele>482.60000610352</ele>
        <time>2019-10-11T12:13:35Z</time>
      </trkpt>
      <trkpt lat="44.20062" lon="5.93792">
        <ele>484</ele>
        <time>2019-10-11T12:13:44Z</time>
      </trkpt>
      <trkpt lat="44.20064" lon="5.93814">
        <ele>484.20001220703</ele>
        <time>2019-10-11T12:13:51Z</time>
      </trkpt>
      <trkpt lat="44.20063" lon="5.93805">
        <ele>484.39999389648</ele>
        <time>2019-10-11T12:13:57Z</time>
      </trkpt>
      <trkpt lat="44.20066" lon="5.93801">
        <ele>484.60000610352</ele>
        <time>2019-10-11T12:14:26Z</time>
      </trkpt>
      <trkpt lat="44.20064" lon="5.93812">
        <ele>484.60000610352</ele>
        <time>2019-10-11T12:14:29Z</time>
      </trkpt>
      <trkpt lat="44.20067" lon="5.9385">
        <ele>484.60000610352</ele>
        <time>2019-10-11T12:14:35Z</time>
      </trkpt>
      <trkpt lat="44.20073" lon="5.93899">
        <ele>484.60000610352</ele>
        <time>2019-10-11T12:14:41Z</time>
      </trkpt>
      <trkpt lat="44.20079" lon="5.9396">
        <ele>483.39999389648</ele>
        <time>2019-10-11T12:14:47Z</time>
      </trkpt>
      <trkpt lat="44.20081" lon="5.94037">
        <ele>480.60000610352</ele>
        <time>2019-10-11T12:14:54Z</time>
      </trkpt>
      <trkpt lat="44.20082" lon="5.94078">
        <ele>479.39999389648</ele>
        <time>2019-10-11T12:14:59Z</time>
      </trkpt>
      <trkpt lat="44.20083" lon="5.94122">
        <ele>479.60000610352</ele>
        <time>2019-10-11T12:15:06Z</time>
      </trkpt>
      <trkpt lat="44.20082" lon="5.94155">
        <ele>481</ele>
        <time>2019-10-11T12:15:12Z</time>
      </trkpt>
      <trkpt lat="44.20082" lon="5.94172">
        <ele>482.20001220703</ele>
        <time>2019-10-11T12:15:16Z</time>
      </trkpt>
      <trkpt lat="44.20081" lon="5.94192">
        <ele>483.39999389648</ele>
        <time>2019-10-11T12:15:21Z</time>
      </trkpt>
      <trkpt lat="44.20081" lon="5.94217">
        <ele>484.20001220703</ele>
        <time>2019-10-11T12:15:27Z</time>
      </trkpt>
      <trkpt lat="44.20075" lon="5.94238">
        <ele>486</ele>
        <time>2019-10-11T12:15:38Z</time>
      </trkpt>
      <trkpt lat="44.20059" lon="5.94264">
        <ele>486.60000610352</ele>
        <time>2019-10-11T12:15:46Z</time>
      </trkpt>
      <trkpt lat="44.20056" lon="5.94294">
        <ele>486.79998779297</ele>
        <time>2019-10-11T12:15:54Z</time>
      </trkpt>
      <trkpt lat="44.20044" lon="5.94338">
        <ele>487.20001220703</ele>
        <time>2019-10-11T12:16:03Z</time>
      </trkpt>
      <trkpt lat="44.20036" lon="5.94361">
        <ele>488.20001220703</ele>
        <time>2019-10-11T12:16:09Z</time>
      </trkpt>
      <trkpt lat="44.20025" lon="5.94382">
        <ele>489.60000610352</ele>
        <time>2019-10-11T12:16:15Z</time>
      </trkpt>
      <trkpt lat="44.20008" lon="5.94407">
        <ele>491</ele>
        <time>2019-10-11T12:16:23Z</time>
      </trkpt>
      <trkpt lat="44.19975" lon="5.94456">
        <ele>492.39999389648</ele>
        <time>2019-10-11T12:16:38Z</time>
      </trkpt>
      <trkpt lat="44.19956" lon="5.94481">
        <ele>493.39999389648</ele>
        <time>2019-10-11T12:16:46Z</time>
      </trkpt>
      <trkpt lat="44.19909" lon="5.94502">
        <ele>493.79998779297</ele>
        <time>2019-10-11T12:16:59Z</time>
      </trkpt>
      <trkpt lat="44.19909" lon="5.94502">
        <ele>493.39999389648</ele>
        <time>2019-10-11T12:17:03Z</time>
      </trkpt>
      <trkpt lat="44.19891" lon="5.94496">
        <ele>493.20001220703</ele>
        <time>2019-10-11T12:17:09Z</time>
      </trkpt>
      <trkpt lat="44.19883" lon="5.94497">
        <ele>493.39999389648</ele>
        <time>2019-10-11T12:18:47Z</time>
      </trkpt>
      <trkpt lat="44.19873" lon="5.94498">
        <ele>493.39999389648</ele>
        <time>2019-10-11T12:18:52Z</time>
      </trkpt>
      <trkpt lat="44.19833" lon="5.94498">
        <ele>493</ele>
        <time>2019-10-11T12:19:04Z</time>
      </trkpt>
      <trkpt lat="44.19812" lon="5.94495">
        <ele>492</ele>
        <time>2019-10-11T12:19:11Z</time>
      </trkpt>
      <trkpt lat="44.19767" lon="5.94484">
        <ele>491.79998779297</ele>
        <time>2019-10-11T12:19:28Z</time>
      </trkpt>
      <trkpt lat="44.19753" lon="5.94474">
        <ele>492.20001220703</ele>
        <time>2019-10-11T12:19:37Z</time>
      </trkpt>
      <trkpt lat="44.19755" lon="5.94476">
        <ele>492.60000610352</ele>
        <time>2019-10-11T12:20:05Z</time>
      </trkpt>
      <trkpt lat="44.19753" lon="5.94467">
        <ele>492.60000610352</ele>
        <time>2019-10-11T12:20:09Z</time>
      </trkpt>
      <trkpt lat="44.19781" lon="5.94489">
        <ele>492.39999389648</ele>
        <time>2019-10-11T12:20:17Z</time>
      </trkpt>
      <trkpt lat="44.19783" lon="5.94506">
        <ele>491.79998779297</ele>
        <time>2019-10-11T12:20:24Z</time>
      </trkpt>
      <trkpt lat="44.19783" lon="5.94506">
        <ele>491.60000610352</ele>
        <time>2019-10-11T12:20:36Z</time>
      </trkpt>
      <trkpt lat="44.19823" lon="5.94497">
        <ele>492</ele>
        <time>2019-10-11T12:20:42Z</time>
      </trkpt>
      <trkpt lat="44.19783" lon="5.94506">
        <ele>492.20001220703</ele>
        <time>2019-10-11T12:20:52Z</time>
      </trkpt>
      <trkpt lat="44.19852" lon="5.94499">
        <ele>492.60000610352</ele>
        <time>2019-10-11T12:21:00Z</time>
      </trkpt>
      <trkpt lat="44.19877" lon="5.94498">
        <ele>493</ele>
        <time>2019-10-11T12:21:06Z</time>
      </trkpt>
      <trkpt lat="44.19904" lon="5.94497">
        <ele>493.79998779297</ele>
        <time>2019-10-11T12:21:13Z</time>
      </trkpt>
      <trkpt lat="44.19931" lon="5.94504">
        <ele>494.20001220703</ele>
        <time>2019-10-11T12:21:21Z</time>
      </trkpt>
      <trkpt lat="44.19958" lon="5.94478">
        <ele>495</ele>
        <time>2019-10-11T12:21:34Z</time>
      </trkpt>
      <trkpt lat="44.19972" lon="5.9446">
        <ele>494.79998779297</ele>
        <time>2019-10-11T12:21:39Z</time>
      </trkpt>
      <trkpt lat="44.19982" lon="5.94446">
        <ele>494.60000610352</ele>
        <time>2019-10-11T12:21:43Z</time>
      </trkpt>
      <trkpt lat="44.20003" lon="5.94415">
        <ele>493.79998779297</ele>
        <time>2019-10-11T12:21:50Z</time>
      </trkpt>
      <trkpt lat="44.20025" lon="5.94382">
        <ele>493</ele>
        <time>2019-10-11T12:21:57Z</time>
      </trkpt>
      <trkpt lat="44.20029" lon="5.94366">
        <ele>492.39999389648</ele>
        <time>2019-10-11T12:22:03Z</time>
      </trkpt>
      <trkpt lat="44.20034" lon="5.94344">
        <ele>492.20001220703</ele>
        <time>2019-10-11T12:22:07Z</time>
      </trkpt>
      <trkpt lat="44.20049" lon="5.94299">
        <ele>491.39999389648</ele>
        <time>2019-10-11T12:22:13Z</time>
      </trkpt>
      <trkpt lat="44.20073" lon="5.94281">
        <ele>488.39999389648</ele>
        <time>2019-10-11T12:22:22Z</time>
      </trkpt>
      <trkpt lat="44.20085" lon="5.94262">
        <ele>487.79998779297</ele>
        <time>2019-10-11T12:22:27Z</time>
      </trkpt>
      <trkpt lat="44.20084" lon="5.94233">
        <ele>487.60000610352</ele>
        <time>2019-10-11T12:22:32Z</time>
      </trkpt>
      <trkpt lat="44.20082" lon="5.94172">
        <ele>487.20001220703</ele>
        <time>2019-10-11T12:22:40Z</time>
      </trkpt>
      <trkpt lat="44.20083" lon="5.9412">
        <ele>486.39999389648</ele>
        <time>2019-10-11T12:22:46Z</time>
      </trkpt>
      <trkpt lat="44.20083" lon="5.94116">
        <ele>483.79998779297</ele>
        <time>2019-10-11T12:23:19Z</time>
      </trkpt>
      <trkpt lat="44.20083" lon="5.9413">
        <ele>484</ele>
        <time>2019-10-11T12:23:25Z</time>
      </trkpt>
      <trkpt lat="44.20082" lon="5.94182">
        <ele>484.79998779297</ele>
        <time>2019-10-11T12:23:39Z</time>
      </trkpt>
      <trkpt lat="44.20081" lon="5.94208">
        <ele>485.39999389648</ele>
        <time>2019-10-11T12:23:44Z</time>
      </trkpt>
      <trkpt lat="44.20085" lon="5.94239">
        <ele>486.39999389648</ele>
        <time>2019-10-11T12:23:52Z</time>
      </trkpt>
      <trkpt lat="44.20083" lon="5.94285">
        <ele>487.79998779297</ele>
        <time>2019-10-11T12:24:05Z</time>
      </trkpt>
      <trkpt lat="44.20083" lon="5.94306">
        <ele>488</ele>
        <time>2019-10-11T12:24:11Z</time>
      </trkpt>
      <trkpt lat="44.20083" lon="5.94315">
        <ele>488</ele>
        <time>2019-10-11T12:24:13Z</time>
      </trkpt>
      <trkpt lat="44.20074" lon="5.94349">
        <ele>487.60000610352</ele>
        <time>2019-10-11T12:24:20Z</time>
      </trkpt>
      <trkpt lat="44.20066" lon="5.94377">
        <ele>487</ele>
        <time>2019-10-11T12:24:24Z</time>
      </trkpt>
      <trkpt lat="44.20056" lon="5.9441">
        <ele>486.20001220703</ele>
        <time>2019-10-11T12:24:29Z</time>
      </trkpt>
      <trkpt lat="44.20027" lon="5.94453">
        <ele>484.60000610352</ele>
        <time>2019-10-11T12:24:35Z</time>
      </trkpt>
      <trkpt lat="44.19972" lon="5.94482">
        <ele>482.60000610352</ele>
        <time>2019-10-11T12:24:44Z</time>
      </trkpt>
      <trkpt lat="44.19944" lon="5.94538">
        <ele>481.20001220703</ele>
        <time>2019-10-11T12:24:54Z</time>
      </trkpt>
      <trkpt lat="44.19945" lon="5.94549">
        <ele>481.20001220703</ele>
        <time>2019-10-11T12:24:56Z</time>
      </trkpt>
      <trkpt lat="44.19959" lon="5.94617">
        <ele>481.79998779297</ele>
        <time>2019-10-11T12:25:07Z</time>
      </trkpt>
      <trkpt lat="44.19961" lon="5.94622">
        <ele>482</ele>
        <time>2019-10-11T12:25:09Z</time>
      </trkpt>
      <trkpt lat="44.19998" lon="5.94619">
        <ele>482.20001220703</ele>
        <time>2019-10-11T12:25:20Z</time>
      </trkpt>
      <trkpt lat="44.20015" lon="5.94616">
        <ele>482.60000610352</ele>
        <time>2019-10-11T12:25:25Z</time>
      </trkpt>
      <trkpt lat="44.20112" lon="5.94651">
        <ele>484</ele>
        <time>2019-10-11T12:25:47Z</time>
      </trkpt>
      <trkpt lat="44.20199" lon="5.94656">
        <ele>484</ele>
        <time>2019-10-11T12:26:04Z</time>
      </trkpt>
      <trkpt lat="44.20229" lon="5.94633">
        <ele>484</ele>
        <time>2019-10-11T12:26:11Z</time>
      </trkpt>
      <trkpt lat="44.20278" lon="5.94585">
        <ele>483.60000610352</ele>
        <time>2019-10-11T12:26:22Z</time>
      </trkpt>
      <trkpt lat="44.20339" lon="5.94547">
        <ele>482.79998779297</ele>
        <time>2019-10-11T12:26:34Z</time>
      </trkpt>
      <trkpt lat="44.20349" lon="5.94547">
        <ele>482.60000610352</ele>
        <time>2019-10-11T12:26:36Z</time>
      </trkpt>
      <trkpt lat="44.2035" lon="5.94561">
        <ele>482.39999389648</ele>
        <time>2019-10-11T12:26:41Z</time>
      </trkpt>
      <trkpt lat="44.20333" lon="5.9459">
        <ele>482.60000610352</ele>
        <time>2019-10-11T12:26:51Z</time>
      </trkpt>
      <trkpt lat="44.20326" lon="5.94597">
        <ele>483.20001220703</ele>
        <time>2019-10-11T12:26:56Z</time>
      </trkpt>
      <trkpt lat="44.20315" lon="5.94605">
        <ele>484.60000610352</ele>
        <time>2019-10-11T12:27:21Z</time>
      </trkpt>
      <trkpt lat="44.20305" lon="5.94611">
        <ele>485</ele>
        <time>2019-10-11T12:27:25Z</time>
      </trkpt>
      <trkpt lat="44.20286" lon="5.94622">
        <ele>486.20001220703</ele>
        <time>2019-10-11T12:27:32Z</time>
      </trkpt>
      <trkpt lat="44.20277" lon="5.94627">
        <ele>487.20001220703</ele>
        <time>2019-10-11T12:27:36Z</time>
      </trkpt>
      <trkpt lat="44.20264" lon="5.94636">
        <ele>488.20001220703</ele>
        <time>2019-10-11T12:27:42Z</time>
      </trkpt>
      <trkpt lat="44.20259" lon="5.94641">
        <ele>488.79998779297</ele>
        <time>2019-10-11T12:27:45Z</time>
      </trkpt>
      <trkpt lat="44.20264" lon="5.94657">
        <ele>491</ele>
        <time>2019-10-11T12:27:54Z</time>
      </trkpt>
      <trkpt lat="44.20269" lon="5.94658">
        <ele>491.60000610352</ele>
        <time>2019-10-11T12:27:57Z</time>
      </trkpt>
      <trkpt lat="44.20313" lon="5.9464">
        <ele>493.39999389648</ele>
        <time>2019-10-11T12:28:12Z</time>
      </trkpt>
      <trkpt lat="44.20337" lon="5.9463">
        <ele>493.60000610352</ele>
        <time>2019-10-11T12:28:20Z</time>
      </trkpt>
      <trkpt lat="44.20359" lon="5.94621">
        <ele>494.20001220703</ele>
        <time>2019-10-11T12:28:28Z</time>
      </trkpt>
      <trkpt lat="44.20413" lon="5.94626">
        <ele>496</ele>
        <time>2019-10-11T12:28:47Z</time>
      </trkpt>
      <trkpt lat="44.20446" lon="5.94653">
        <ele>497</ele>
        <time>2019-10-11T12:28:58Z</time>
      </trkpt>
      <trkpt lat="44.20501" lon="5.94703">
        <ele>499.39999389648</ele>
        <time>2019-10-11T12:29:17Z</time>
      </trkpt>
      <trkpt lat="44.20535" lon="5.94754">
        <ele>499.79998779297</ele>
        <time>2019-10-11T12:29:29Z</time>
      </trkpt>
      <trkpt lat="44.20572" lon="5.94806">
        <ele>500.79998779297</ele>
        <time>2019-10-11T12:29:42Z</time>
      </trkpt>
      <trkpt lat="44.20586" lon="5.94811">
        <ele>500.79998779297</ele>
        <time>2019-10-11T12:29:45Z</time>
      </trkpt>
      <trkpt lat="44.20606" lon="5.94809">
        <ele>501</ele>
        <time>2019-10-11T12:29:50Z</time>
      </trkpt>
      <trkpt lat="44.20614" lon="5.94817">
        <ele>500.39999389648</ele>
        <time>2019-10-11T12:29:53Z</time>
      </trkpt>
      <trkpt lat="44.2064" lon="5.94827">
        <ele>500.20001220703</ele>
        <time>2019-10-11T12:30:00Z</time>
      </trkpt>
      <trkpt lat="44.20654" lon="5.94804">
        <ele>500</ele>
        <time>2019-10-11T12:30:05Z</time>
      </trkpt>
      <trkpt lat="44.20655" lon="5.94781">
        <ele>500</ele>
        <time>2019-10-11T12:30:09Z</time>
      </trkpt>
      <trkpt lat="44.20645" lon="5.94756">
        <ele>500</ele>
        <time>2019-10-11T12:30:14Z</time>
      </trkpt>
      <trkpt lat="44.20632" lon="5.94723">
        <ele>500.20001220703</ele>
        <time>2019-10-11T12:30:20Z</time>
      </trkpt>
      <trkpt lat="44.20642" lon="5.94698">
        <ele>501</ele>
        <time>2019-10-11T12:30:25Z</time>
      </trkpt>
      <trkpt lat="44.20653" lon="5.94694">
        <ele>501.39999389648</ele>
        <time>2019-10-11T12:30:29Z</time>
      </trkpt>
      <trkpt lat="44.20692" lon="5.94716">
        <ele>502.60000610352</ele>
        <time>2019-10-11T12:30:41Z</time>
      </trkpt>
      <trkpt lat="44.20721" lon="5.94758">
        <ele>504</ele>
        <time>2019-10-11T12:30:52Z</time>
      </trkpt>
      <trkpt lat="44.20746" lon="5.9477">
        <ele>505.39999389648</ele>
        <time>2019-10-11T12:31:02Z</time>
      </trkpt>
      <trkpt lat="44.2077" lon="5.94776">
        <ele>507.60000610352</ele>
        <time>2019-10-11T12:31:14Z</time>
      </trkpt>
      <trkpt lat="44.20805" lon="5.94781">
        <ele>510.20001220703</ele>
        <time>2019-10-11T12:31:30Z</time>
      </trkpt>
      <trkpt lat="44.20816" lon="5.94783">
        <ele>511</ele>
        <time>2019-10-11T12:31:35Z</time>
      </trkpt>
      <trkpt lat="44.2083" lon="5.94785">
        <ele>511.60000610352</ele>
        <time>2019-10-11T12:31:41Z</time>
      </trkpt>
      <trkpt lat="44.20857" lon="5.94789">
        <ele>514</ele>
        <time>2019-10-11T12:31:52Z</time>
      </trkpt>
      <trkpt lat="44.2088" lon="5.94793">
        <ele>515.20001220703</ele>
        <time>2019-10-11T12:32:03Z</time>
      </trkpt>
      <trkpt lat="44.20902" lon="5.948">
        <ele>516.79998779297</ele>
        <time>2019-10-11T12:32:12Z</time>
      </trkpt>
      <trkpt lat="44.2094" lon="5.94812">
        <ele>519.59997558594</ele>
        <time>2019-10-11T12:32:28Z</time>
      </trkpt>
      <trkpt lat="44.20955" lon="5.94815">
        <ele>520.59997558594</ele>
        <time>2019-10-11T12:32:35Z</time>
      </trkpt>
      <trkpt lat="44.20979" lon="5.94817">
        <ele>522.20001220703</ele>
        <time>2019-10-11T12:32:46Z</time>
      </trkpt>
      <trkpt lat="44.21011" lon="5.94821">
        <ele>524.40002441406</ele>
        <time>2019-10-11T12:33:00Z</time>
      </trkpt>
      <trkpt lat="44.21017" lon="5.9483">
        <ele>525</ele>
        <time>2019-10-11T12:33:04Z</time>
      </trkpt>
      <trkpt lat="44.21007" lon="5.94855">
        <ele>526.40002441406</ele>
        <time>2019-10-11T12:33:13Z</time>
      </trkpt>
      <trkpt lat="44.2099" lon="5.9487">
        <ele>529</ele>
        <time>2019-10-11T12:33:22Z</time>
      </trkpt>
      <trkpt lat="44.20953" lon="5.94884">
        <ele>531</ele>
        <time>2019-10-11T12:33:38Z</time>
      </trkpt>
      <trkpt lat="44.20933" lon="5.94902">
        <ele>533</ele>
        <time>2019-10-11T12:33:49Z</time>
      </trkpt>
      <trkpt lat="44.2091" lon="5.9491">
        <ele>534</ele>
        <time>2019-10-11T12:33:59Z</time>
      </trkpt>
      <trkpt lat="44.20895" lon="5.94923">
        <ele>535.40002441406</ele>
        <time>2019-10-11T12:34:07Z</time>
      </trkpt>
      <trkpt lat="44.20879" lon="5.94963">
        <ele>538</ele>
        <time>2019-10-11T12:34:22Z</time>
      </trkpt>
      <trkpt lat="44.20869" lon="5.94991">
        <ele>539.20001220703</ele>
        <time>2019-10-11T12:34:31Z</time>
      </trkpt>
      <trkpt lat="44.2086" lon="5.95027">
        <ele>541.20001220703</ele>
        <time>2019-10-11T12:34:43Z</time>
      </trkpt>
      <trkpt lat="44.20866" lon="5.95047">
        <ele>542.40002441406</ele>
        <time>2019-10-11T12:34:51Z</time>
      </trkpt>
      <trkpt lat="44.20878" lon="5.95051">
        <ele>543.79998779297</ele>
        <time>2019-10-11T12:34:58Z</time>
      </trkpt>
      <trkpt lat="44.20903" lon="5.95029">
        <ele>546.59997558594</ele>
        <time>2019-10-11T12:35:12Z</time>
      </trkpt>
      <trkpt lat="44.20913" lon="5.95002">
        <ele>547.59997558594</ele>
        <time>2019-10-11T12:35:21Z</time>
      </trkpt>
      <trkpt lat="44.20932" lon="5.95002">
        <ele>549.20001220703</ele>
        <time>2019-10-11T12:35:30Z</time>
      </trkpt>
      <trkpt lat="44.20952" lon="5.95008">
        <ele>551</ele>
        <time>2019-10-11T12:35:38Z</time>
      </trkpt>
      <trkpt lat="44.20977" lon="5.95">
        <ele>552.59997558594</ele>
        <time>2019-10-11T12:35:49Z</time>
      </trkpt>
      <trkpt lat="44.20994" lon="5.94997">
        <ele>553.59997558594</ele>
        <time>2019-10-11T12:35:56Z</time>
      </trkpt>
      <trkpt lat="44.2101" lon="5.95015">
        <ele>555</ele>
        <time>2019-10-11T12:36:04Z</time>
      </trkpt>
      <trkpt lat="44.2103" lon="5.95037">
        <ele>556.79998779297</ele>
        <time>2019-10-11T12:36:14Z</time>
      </trkpt>
      <trkpt lat="44.21057" lon="5.95058">
        <ele>559.40002441406</ele>
        <time>2019-10-11T12:36:27Z</time>
      </trkpt>
      <trkpt lat="44.21055" lon="5.95066">
        <ele>559.79998779297</ele>
        <time>2019-10-11T12:36:31Z</time>
      </trkpt>
      <trkpt lat="44.21032" lon="5.95073">
        <ele>561.59997558594</ele>
        <time>2019-10-11T12:36:41Z</time>
      </trkpt>
      <trkpt lat="44.21015" lon="5.95078">
        <ele>562.59997558594</ele>
        <time>2019-10-11T12:36:48Z</time>
      </trkpt>
      <trkpt lat="44.21011" lon="5.9508">
        <ele>563.40002441406</ele>
        <time>2019-10-11T12:36:53Z</time>
      </trkpt>
      <trkpt lat="44.2101" lon="5.9508">
        <ele>564.20001220703</ele>
        <time>2019-10-11T12:37:02Z</time>
      </trkpt>
      <trkpt lat="44.21006" lon="5.95085">
        <ele>564</ele>
        <time>2019-10-11T12:37:09Z</time>
      </trkpt>
      <trkpt lat="44.21007" lon="5.95082">
        <ele>566</ele>
        <time>2019-10-11T12:42:56Z</time>
      </trkpt>
      <trkpt lat="44.21001" lon="5.95094">
        <ele>566.20001220703</ele>
        <time>2019-10-11T12:43:03Z</time>
      </trkpt>
      <trkpt lat="44.20987" lon="5.95119">
        <ele>566.79998779297</ele>
        <time>2019-10-11T12:43:12Z</time>
      </trkpt>
      <trkpt lat="44.20982" lon="5.95131">
        <ele>567.59997558594</ele>
        <time>2019-10-11T12:43:16Z</time>
      </trkpt>
      <trkpt lat="44.20971" lon="5.95158">
        <ele>569.40002441406</ele>
        <time>2019-10-11T12:43:26Z</time>
      </trkpt>
      <trkpt lat="44.20969" lon="5.95172">
        <ele>570.20001220703</ele>
        <time>2019-10-11T12:43:30Z</time>
      </trkpt>
      <trkpt lat="44.20972" lon="5.95223">
        <ele>572.59997558594</ele>
        <time>2019-10-11T12:43:47Z</time>
      </trkpt>
      <trkpt lat="44.20974" lon="5.95245">
        <ele>573.40002441406</ele>
        <time>2019-10-11T12:43:54Z</time>
      </trkpt>
      <trkpt lat="44.20966" lon="5.95285">
        <ele>575.79998779297</ele>
        <time>2019-10-11T12:44:09Z</time>
      </trkpt>
      <trkpt lat="44.20957" lon="5.95328">
        <ele>577.40002441406</ele>
        <time>2019-10-11T12:44:21Z</time>
      </trkpt>
      <trkpt lat="44.20954" lon="5.95345">
        <ele>577.59997558594</ele>
        <time>2019-10-11T12:44:26Z</time>
      </trkpt>
      <trkpt lat="44.20945" lon="5.9539">
        <ele>580.40002441406</ele>
        <time>2019-10-11T12:44:40Z</time>
      </trkpt>
      <trkpt lat="44.20937" lon="5.95423">
        <ele>582</ele>
        <time>2019-10-11T12:44:51Z</time>
      </trkpt>
      <trkpt lat="44.20924" lon="5.95464">
        <ele>584.59997558594</ele>
        <time>2019-10-11T12:45:06Z</time>
      </trkpt>
      <trkpt lat="44.2092" lon="5.95489">
        <ele>586</ele>
        <time>2019-10-11T12:45:14Z</time>
      </trkpt>
      <trkpt lat="44.20928" lon="5.95537">
        <ele>588.20001220703</ele>
        <time>2019-10-11T12:45:29Z</time>
      </trkpt>
      <trkpt lat="44.2094" lon="5.95565">
        <ele>589.79998779297</ele>
        <time>2019-10-11T12:45:39Z</time>
      </trkpt>
      <trkpt lat="44.20953" lon="5.95608">
        <ele>591.40002441406</ele>
        <time>2019-10-11T12:45:53Z</time>
      </trkpt>
      <trkpt lat="44.20954" lon="5.95653">
        <ele>593.40002441406</ele>
        <time>2019-10-11T12:46:05Z</time>
      </trkpt>
      <trkpt lat="44.20942" lon="5.95712">
        <ele>597.20001220703</ele>
        <time>2019-10-11T12:46:26Z</time>
      </trkpt>
      <trkpt lat="44.20936" lon="5.95733">
        <ele>598.20001220703</ele>
        <time>2019-10-11T12:46:34Z</time>
      </trkpt>
      <trkpt lat="44.20928" lon="5.9577">
        <ele>600.59997558594</ele>
        <time>2019-10-11T12:46:48Z</time>
      </trkpt>
      <trkpt lat="44.20922" lon="5.958">
        <ele>602.40002441406</ele>
        <time>2019-10-11T12:46:59Z</time>
      </trkpt>
      <trkpt lat="44.20923" lon="5.95828">
        <ele>604</ele>
        <time>2019-10-11T12:47:09Z</time>
      </trkpt>
      <trkpt lat="44.20926" lon="5.95854">
        <ele>606.40002441406</ele>
        <time>2019-10-11T12:47:18Z</time>
      </trkpt>
      <trkpt lat="44.20932" lon="5.95868">
        <ele>606.59997558594</ele>
        <time>2019-10-11T12:47:24Z</time>
      </trkpt>
      <trkpt lat="44.20962" lon="5.95876">
        <ele>609.40002441406</ele>
        <time>2019-10-11T12:47:39Z</time>
      </trkpt>
      <trkpt lat="44.2097" lon="5.95874">
        <ele>609.79998779297</ele>
        <time>2019-10-11T12:47:43Z</time>
      </trkpt>
      <trkpt lat="44.20996" lon="5.95864">
        <ele>612</ele>
        <time>2019-10-11T12:47:55Z</time>
      </trkpt>
      <trkpt lat="44.21021" lon="5.95845">
        <ele>614</ele>
        <time>2019-10-11T12:48:07Z</time>
      </trkpt>
      <trkpt lat="44.2103" lon="5.9582">
        <ele>614.79998779297</ele>
        <time>2019-10-11T12:48:15Z</time>
      </trkpt>
      <trkpt lat="44.21034" lon="5.95792">
        <ele>615</ele>
        <time>2019-10-11T12:48:21Z</time>
      </trkpt>
      <trkpt lat="44.21042" lon="5.95755">
        <ele>616.40002441406</ele>
        <time>2019-10-11T12:48:33Z</time>
      </trkpt>
      <trkpt lat="44.21052" lon="5.95748">
        <ele>617.20001220703</ele>
        <time>2019-10-11T12:48:38Z</time>
      </trkpt>
      <trkpt lat="44.2108" lon="5.95741">
        <ele>620.20001220703</ele>
        <time>2019-10-11T12:48:52Z</time>
      </trkpt>
      <trkpt lat="44.21094" lon="5.95731">
        <ele>621.20001220703</ele>
        <time>2019-10-11T12:48:59Z</time>
      </trkpt>
      <trkpt lat="44.21114" lon="5.95706">
        <ele>623.40002441406</ele>
        <time>2019-10-11T12:49:12Z</time>
      </trkpt>
      <trkpt lat="44.21125" lon="5.95687">
        <ele>624.40002441406</ele>
        <time>2019-10-11T12:49:20Z</time>
      </trkpt>
      <trkpt lat="44.21136" lon="5.95658">
        <ele>626</ele>
        <time>2019-10-11T12:49:30Z</time>
      </trkpt>
      <trkpt lat="44.21142" lon="5.95626">
        <ele>627.79998779297</ele>
        <time>2019-10-11T12:49:41Z</time>
      </trkpt>
      <trkpt lat="44.21152" lon="5.95604">
        <ele>629.79998779297</ele>
        <time>2019-10-11T12:49:50Z</time>
      </trkpt>
      <trkpt lat="44.21181" lon="5.95582">
        <ele>632.59997558594</ele>
        <time>2019-10-11T12:50:05Z</time>
      </trkpt>
      <trkpt lat="44.21192" lon="5.95563">
        <ele>633</ele>
        <time>2019-10-11T12:50:13Z</time>
      </trkpt>
      <trkpt lat="44.2121" lon="5.95547">
        <ele>635.40002441406</ele>
        <time>2019-10-11T12:50:23Z</time>
      </trkpt>
      <trkpt lat="44.21219" lon="5.95545">
        <ele>636.20001220703</ele>
        <time>2019-10-11T12:50:27Z</time>
      </trkpt>
      <trkpt lat="44.21265" lon="5.95538">
        <ele>638.79998779297</ele>
        <time>2019-10-11T12:50:48Z</time>
      </trkpt>
      <trkpt lat="44.21281" lon="5.95547">
        <ele>639.40002441406</ele>
        <time>2019-10-11T12:50:55Z</time>
      </trkpt>
      <trkpt lat="44.2128" lon="5.95574">
        <ele>640.59997558594</ele>
        <time>2019-10-11T12:51:05Z</time>
      </trkpt>
      <trkpt lat="44.21273" lon="5.956">
        <ele>642.79998779297</ele>
        <time>2019-10-11T12:51:15Z</time>
      </trkpt>
      <trkpt lat="44.21261" lon="5.95636">
        <ele>644.20001220703</ele>
        <time>2019-10-11T12:51:28Z</time>
      </trkpt>
      <trkpt lat="44.21252" lon="5.95702">
        <ele>647.79998779297</ele>
        <time>2019-10-11T12:51:49Z</time>
      </trkpt>
      <trkpt lat="44.21247" lon="5.95718">
        <ele>648.59997558594</ele>
        <time>2019-10-11T12:51:55Z</time>
      </trkpt>
      <trkpt lat="44.21229" lon="5.95768">
        <ele>651</ele>
        <time>2019-10-11T12:52:14Z</time>
      </trkpt>
      <trkpt lat="44.21221" lon="5.95792">
        <ele>652</ele>
        <time>2019-10-11T12:52:22Z</time>
      </trkpt>
      <trkpt lat="44.2121" lon="5.95824">
        <ele>653.79998779297</ele>
        <time>2019-10-11T12:52:33Z</time>
      </trkpt>
      <trkpt lat="44.21202" lon="5.95858">
        <ele>655.79998779297</ele>
        <time>2019-10-11T12:52:44Z</time>
      </trkpt>
      <trkpt lat="44.21195" lon="5.95902">
        <ele>657.79998779297</ele>
        <time>2019-10-11T12:52:59Z</time>
      </trkpt>
      <trkpt lat="44.21191" lon="5.95936">
        <ele>659.59997558594</ele>
        <time>2019-10-11T12:53:11Z</time>
      </trkpt>
      <trkpt lat="44.21184" lon="5.95987">
        <ele>661.59997558594</ele>
        <time>2019-10-11T12:53:27Z</time>
      </trkpt>
      <trkpt lat="44.21179" lon="5.96025">
        <ele>664.20001220703</ele>
        <time>2019-10-11T12:53:40Z</time>
      </trkpt>
      <trkpt lat="44.21177" lon="5.96061">
        <ele>666.20001220703</ele>
        <time>2019-10-11T12:53:52Z</time>
      </trkpt>
      <trkpt lat="44.21177" lon="5.96078">
        <ele>667.40002441406</ele>
        <time>2019-10-11T12:53:59Z</time>
      </trkpt>
      <trkpt lat="44.21177" lon="5.96103">
        <ele>669.59997558594</ele>
        <time>2019-10-11T12:54:09Z</time>
      </trkpt>
      <trkpt lat="44.21174" lon="5.9613">
        <ele>672</ele>
        <time>2019-10-11T12:54:21Z</time>
      </trkpt>
      <trkpt lat="44.21167" lon="5.96159">
        <ele>674.40002441406</ele>
        <time>2019-10-11T12:54:34Z</time>
      </trkpt>
      <trkpt lat="44.21165" lon="5.96186">
        <ele>676</ele>
        <time>2019-10-11T12:54:45Z</time>
      </trkpt>
      <trkpt lat="44.21165" lon="5.96219">
        <ele>677</ele>
        <time>2019-10-11T12:54:56Z</time>
      </trkpt>
      <trkpt lat="44.21163" lon="5.96254">
        <ele>678</ele>
        <time>2019-10-11T12:55:07Z</time>
      </trkpt>
      <trkpt lat="44.21154" lon="5.96289">
        <ele>679.20001220703</ele>
        <time>2019-10-11T12:55:19Z</time>
      </trkpt>
      <trkpt lat="44.2115" lon="5.96337">
        <ele>681</ele>
        <time>2019-10-11T12:55:33Z</time>
      </trkpt>
      <trkpt lat="44.21148" lon="5.96367">
        <ele>681.79998779297</ele>
        <time>2019-10-11T12:55:42Z</time>
      </trkpt>
      <trkpt lat="44.21133" lon="5.96411">
        <ele>684.40002441406</ele>
        <time>2019-10-11T12:55:57Z</time>
      </trkpt>
      <trkpt lat="44.21124" lon="5.96434">
        <ele>685.59997558594</ele>
        <time>2019-10-11T12:56:06Z</time>
      </trkpt>
      <trkpt lat="44.21106" lon="5.96482">
        <ele>688.20001220703</ele>
        <time>2019-10-11T12:56:25Z</time>
      </trkpt>
      <trkpt lat="44.21101" lon="5.96503">
        <ele>689</ele>
        <time>2019-10-11T12:56:32Z</time>
      </trkpt>
      <trkpt lat="44.21104" lon="5.96548">
        <ele>692</ele>
        <time>2019-10-11T12:56:47Z</time>
      </trkpt>
      <trkpt lat="44.2111" lon="5.96564">
        <ele>692.20001220703</ele>
        <time>2019-10-11T12:56:53Z</time>
      </trkpt>
      <trkpt lat="44.2111" lon="5.96607">
        <ele>694.59997558594</ele>
        <time>2019-10-11T12:57:08Z</time>
      </trkpt>
      <trkpt lat="44.21094" lon="5.96626">
        <ele>696.20001220703</ele>
        <time>2019-10-11T12:57:18Z</time>
      </trkpt>
      <trkpt lat="44.21084" lon="5.96635">
        <ele>696.59997558594</ele>
        <time>2019-10-11T12:57:23Z</time>
      </trkpt>
      <trkpt lat="44.21061" lon="5.96689">
        <ele>700.20001220703</ele>
        <time>2019-10-11T12:57:44Z</time>
      </trkpt>
      <trkpt lat="44.21059" lon="5.96747">
        <ele>702</ele>
        <time>2019-10-11T12:58:04Z</time>
      </trkpt>
      <trkpt lat="44.21059" lon="5.96761">
        <ele>702.20001220703</ele>
        <time>2019-10-11T12:58:47Z</time>
      </trkpt>
      <trkpt lat="44.21055" lon="5.96787">
        <ele>702.59997558594</ele>
        <time>2019-10-11T12:58:55Z</time>
      </trkpt>
      <trkpt lat="44.21046" lon="5.96815">
        <ele>704</ele>
        <time>2019-10-11T12:59:04Z</time>
      </trkpt>
      <trkpt lat="44.21033" lon="5.96833">
        <ele>705.59997558594</ele>
        <time>2019-10-11T12:59:11Z</time>
      </trkpt>
      <trkpt lat="44.21024" lon="5.96846">
        <ele>707.20001220703</ele>
        <time>2019-10-11T12:59:18Z</time>
      </trkpt>
      <trkpt lat="44.21017" lon="5.96869">
        <ele>708.40002441406</ele>
        <time>2019-10-11T12:59:25Z</time>
      </trkpt>
      <trkpt lat="44.21034" lon="5.96919">
        <ele>710.79998779297</ele>
        <time>2019-10-11T12:59:41Z</time>
      </trkpt>
      <trkpt lat="44.21047" lon="5.9695">
        <ele>711.59997558594</ele>
        <time>2019-10-11T12:59:51Z</time>
      </trkpt>
      <trkpt lat="44.21044" lon="5.96993">
        <ele>713.59997558594</ele>
        <time>2019-10-11T13:00:05Z</time>
      </trkpt>
      <trkpt lat="44.21023" lon="5.97001">
        <ele>714.40002441406</ele>
        <time>2019-10-11T13:00:12Z</time>
      </trkpt>
      <trkpt lat="44.20993" lon="5.97014">
        <ele>715.59997558594</ele>
        <time>2019-10-11T13:00:22Z</time>
      </trkpt>
      <trkpt lat="44.20978" lon="5.97027">
        <ele>716.20001220703</ele>
        <time>2019-10-11T13:00:29Z</time>
      </trkpt>
      <trkpt lat="44.20963" lon="5.97044">
        <ele>717.59997558594</ele>
        <time>2019-10-11T13:00:38Z</time>
      </trkpt>
      <trkpt lat="44.20932" lon="5.97081">
        <ele>720.59997558594</ele>
        <time>2019-10-11T13:00:56Z</time>
      </trkpt>
      <trkpt lat="44.20925" lon="5.97082">
        <ele>720.79998779297</ele>
        <time>2019-10-11T13:00:59Z</time>
      </trkpt>
      <trkpt lat="44.20896" lon="5.97104">
        <ele>723.79998779297</ele>
        <time>2019-10-11T13:01:15Z</time>
      </trkpt>
      <trkpt lat="44.20883" lon="5.97134">
        <ele>725.40002441406</ele>
        <time>2019-10-11T13:01:26Z</time>
      </trkpt>
      <trkpt lat="44.20849" lon="5.97161">
        <ele>728.20001220703</ele>
        <time>2019-10-11T13:01:42Z</time>
      </trkpt>
      <trkpt lat="44.20839" lon="5.97157">
        <ele>728.79998779297</ele>
        <time>2019-10-11T13:01:46Z</time>
      </trkpt>
      <trkpt lat="44.20811" lon="5.97172">
        <ele>730.79998779297</ele>
        <time>2019-10-11T13:02:00Z</time>
      </trkpt>
      <trkpt lat="44.20791" lon="5.97188">
        <ele>732</ele>
        <time>2019-10-11T13:02:09Z</time>
      </trkpt>
      <trkpt lat="44.20773" lon="5.97215">
        <ele>733.79998779297</ele>
        <time>2019-10-11T13:02:20Z</time>
      </trkpt>
      <trkpt lat="44.20761" lon="5.9724">
        <ele>734.59997558594</ele>
        <time>2019-10-11T13:02:29Z</time>
      </trkpt>
      <trkpt lat="44.20753" lon="5.9725">
        <ele>736.20001220703</ele>
        <time>2019-10-11T13:02:33Z</time>
      </trkpt>
      <trkpt lat="44.20736" lon="5.97257">
        <ele>737.79998779297</ele>
        <time>2019-10-11T13:02:41Z</time>
      </trkpt>
      <trkpt lat="44.20716" lon="5.97259">
        <ele>740.59997558594</ele>
        <time>2019-10-11T13:02:50Z</time>
      </trkpt>
      <trkpt lat="44.20688" lon="5.97246">
        <ele>742</ele>
        <time>2019-10-11T13:03:02Z</time>
      </trkpt>
      <trkpt lat="44.2067" lon="5.97235">
        <ele>744</ele>
        <time>2019-10-11T13:03:11Z</time>
      </trkpt>
      <trkpt lat="44.20636" lon="5.97226">
        <ele>746</ele>
        <time>2019-10-11T13:03:27Z</time>
      </trkpt>
      <trkpt lat="44.20617" lon="5.97222">
        <ele>747.20001220703</ele>
        <time>2019-10-11T13:03:36Z</time>
      </trkpt>
      <trkpt lat="44.20585" lon="5.97214">
        <ele>748.40002441406</ele>
        <time>2019-10-11T13:03:51Z</time>
      </trkpt>
      <trkpt lat="44.20577" lon="5.97209">
        <ele>749.40002441406</ele>
        <time>2019-10-11T13:03:56Z</time>
      </trkpt>
      <trkpt lat="44.20568" lon="5.97187">
        <ele>751</ele>
        <time>2019-10-11T13:04:04Z</time>
      </trkpt>
      <trkpt lat="44.20572" lon="5.97154">
        <ele>753.20001220703</ele>
        <time>2019-10-11T13:04:15Z</time>
      </trkpt>
      <trkpt lat="44.2056" lon="5.97125">
        <ele>755.59997558594</ele>
        <time>2019-10-11T13:04:28Z</time>
      </trkpt>
      <trkpt lat="44.20551" lon="5.97109">
        <ele>757</ele>
        <time>2019-10-11T13:04:35Z</time>
      </trkpt>
      <trkpt lat="44.20539" lon="5.97084">
        <ele>759</ele>
        <time>2019-10-11T13:04:46Z</time>
      </trkpt>
      <trkpt lat="44.20531" lon="5.97051">
        <ele>760.40002441406</ele>
        <time>2019-10-11T13:04:59Z</time>
      </trkpt>
      <trkpt lat="44.20525" lon="5.97034">
        <ele>761</ele>
        <time>2019-10-11T13:05:07Z</time>
      </trkpt>
      <trkpt lat="44.20515" lon="5.97024">
        <ele>764.20001220703</ele>
        <time>2019-10-11T13:05:55Z</time>
      </trkpt>
      <trkpt lat="44.20514" lon="5.97034">
        <ele>764</ele>
        <time>2019-10-11T13:05:58Z</time>
      </trkpt>
      <trkpt lat="44.20514" lon="5.97055">
        <ele>764.40002441406</ele>
        <time>2019-10-11T13:06:06Z</time>
      </trkpt>
      <trkpt lat="44.20517" lon="5.97079">
        <ele>765.20001220703</ele>
        <time>2019-10-11T13:06:13Z</time>
      </trkpt>
      <trkpt lat="44.20517" lon="5.97092">
        <ele>765.79998779297</ele>
        <time>2019-10-11T13:06:18Z</time>
      </trkpt>
      <trkpt lat="44.20517" lon="5.97108">
        <ele>766.40002441406</ele>
        <time>2019-10-11T13:06:24Z</time>
      </trkpt>
      <trkpt lat="44.20517" lon="5.97129">
        <ele>770</ele>
        <time>2019-10-11T13:06:33Z</time>
      </trkpt>
      <trkpt lat="44.20521" lon="5.9716">
        <ele>770.59997558594</ele>
        <time>2019-10-11T13:06:46Z</time>
      </trkpt>
      <trkpt lat="44.20516" lon="5.97191">
        <ele>771.59997558594</ele>
        <time>2019-10-11T13:07:00Z</time>
      </trkpt>
      <trkpt lat="44.2051" lon="5.97212">
        <ele>772.79998779297</ele>
        <time>2019-10-11T13:07:09Z</time>
      </trkpt>
      <trkpt lat="44.20502" lon="5.97231">
        <ele>775</ele>
        <time>2019-10-11T13:07:19Z</time>
      </trkpt>
      <trkpt lat="44.20494" lon="5.97253">
        <ele>776.79998779297</ele>
        <time>2019-10-11T13:07:29Z</time>
      </trkpt>
      <trkpt lat="44.20492" lon="5.97268">
        <ele>777.40002441406</ele>
        <time>2019-10-11T13:07:35Z</time>
      </trkpt>
      <trkpt lat="44.20494" lon="5.97299">
        <ele>778.59997558594</ele>
        <time>2019-10-11T13:07:48Z</time>
      </trkpt>
      <trkpt lat="44.20497" lon="5.97311">
        <ele>779.59997558594</ele>
        <time>2019-10-11T13:07:53Z</time>
      </trkpt>
      <trkpt lat="44.20516" lon="5.9733">
        <ele>782.20001220703</ele>
        <time>2019-10-11T13:08:04Z</time>
      </trkpt>
      <trkpt lat="44.20525" lon="5.97329">
        <ele>783.59997558594</ele>
        <time>2019-10-11T13:08:09Z</time>
      </trkpt>
      <trkpt lat="44.20558" lon="5.97335">
        <ele>785.59997558594</ele>
        <time>2019-10-11T13:08:26Z</time>
      </trkpt>
      <trkpt lat="44.20565" lon="5.97342">
        <ele>786.20001220703</ele>
        <time>2019-10-11T13:08:31Z</time>
      </trkpt>
      <trkpt lat="44.20588" lon="5.97371">
        <ele>788.79998779297</ele>
        <time>2019-10-11T13:08:48Z</time>
      </trkpt>
      <trkpt lat="44.20593" lon="5.97391">
        <ele>790</ele>
        <time>2019-10-11T13:08:57Z</time>
      </trkpt>
      <trkpt lat="44.20599" lon="5.97418">
        <ele>791.59997558594</ele>
        <time>2019-10-11T13:09:07Z</time>
      </trkpt>
      <trkpt lat="44.20606" lon="5.9743">
        <ele>792.40002441406</ele>
        <time>2019-10-11T13:09:12Z</time>
      </trkpt>
      <trkpt lat="44.20631" lon="5.97436">
        <ele>796.20001220703</ele>
        <time>2019-10-11T13:09:24Z</time>
      </trkpt>
      <trkpt lat="44.20644" lon="5.97437">
        <ele>797</ele>
        <time>2019-10-11T13:09:30Z</time>
      </trkpt>
      <trkpt lat="44.20664" lon="5.97439">
        <ele>797.59997558594</ele>
        <time>2019-10-11T13:09:40Z</time>
      </trkpt>
      <trkpt lat="44.20703" lon="5.97433">
        <ele>799.40002441406</ele>
        <time>2019-10-11T13:10:00Z</time>
      </trkpt>
      <trkpt lat="44.20713" lon="5.97436">
        <ele>800</ele>
        <time>2019-10-11T13:10:05Z</time>
      </trkpt>
      <trkpt lat="44.20715" lon="5.97452">
        <ele>801.20001220703</ele>
        <time>2019-10-11T13:10:12Z</time>
      </trkpt>
      <trkpt lat="44.20714" lon="5.97455">
        <ele>801.79998779297</ele>
        <time>2019-10-11T13:10:14Z</time>
      </trkpt>
      <trkpt lat="44.20672" lon="5.97464">
        <ele>805.79998779297</ele>
        <time>2019-10-11T13:10:33Z</time>
      </trkpt>
      <trkpt lat="44.20655" lon="5.9747">
        <ele>806.20001220703</ele>
        <time>2019-10-11T13:10:41Z</time>
      </trkpt>
      <trkpt lat="44.20633" lon="5.97481">
        <ele>807.79998779297</ele>
        <time>2019-10-11T13:10:52Z</time>
      </trkpt>
      <trkpt lat="44.20613" lon="5.97491">
        <ele>809.79998779297</ele>
        <time>2019-10-11T13:11:02Z</time>
      </trkpt>
      <trkpt lat="44.20594" lon="5.97501">
        <ele>811.79998779297</ele>
        <time>2019-10-11T13:11:13Z</time>
      </trkpt>
      <trkpt lat="44.20575" lon="5.97511">
        <ele>812.79998779297</ele>
        <time>2019-10-11T13:11:22Z</time>
      </trkpt>
      <trkpt lat="44.20557" lon="5.97533">
        <ele>814.59997558594</ele>
        <time>2019-10-11T13:11:33Z</time>
      </trkpt>
      <trkpt lat="44.20567" lon="5.97559">
        <ele>816.20001220703</ele>
        <time>2019-10-11T13:11:43Z</time>
      </trkpt>
      <trkpt lat="44.20584" lon="5.9757">
        <ele>817.40002441406</ele>
        <time>2019-10-11T13:11:52Z</time>
      </trkpt>
      <trkpt lat="44.20596" lon="5.97576">
        <ele>818.79998779297</ele>
        <time>2019-10-11T13:12:45Z</time>
      </trkpt>
      <trkpt lat="44.20614" lon="5.97586">
        <ele>819</ele>
        <time>2019-10-11T13:12:51Z</time>
      </trkpt>
      <trkpt lat="44.20639" lon="5.97604">
        <ele>820</ele>
        <time>2019-10-11T13:13:01Z</time>
      </trkpt>
      <trkpt lat="44.20644" lon="5.97614">
        <ele>820</ele>
        <time>2019-10-11T13:13:04Z</time>
      </trkpt>
      <trkpt lat="44.20657" lon="5.97664">
        <ele>821.20001220703</ele>
        <time>2019-10-11T13:13:18Z</time>
      </trkpt>
      <trkpt lat="44.20666" lon="5.97708">
        <ele>821.20001220703</ele>
        <time>2019-10-11T13:13:30Z</time>
      </trkpt>
      <trkpt lat="44.20676" lon="5.97753">
        <ele>821.59997558594</ele>
        <time>2019-10-11T13:13:42Z</time>
      </trkpt>
      <trkpt lat="44.20702" lon="5.97783">
        <ele>823.40002441406</ele>
        <time>2019-10-11T13:13:55Z</time>
      </trkpt>
      <trkpt lat="44.20753" lon="5.97804">
        <ele>825</ele>
        <time>2019-10-11T13:14:15Z</time>
      </trkpt>
      <trkpt lat="44.20776" lon="5.97815">
        <ele>826.40002441406</ele>
        <time>2019-10-11T13:14:24Z</time>
      </trkpt>
      <trkpt lat="44.20812" lon="5.97833">
        <ele>828</ele>
        <time>2019-10-11T13:14:39Z</time>
      </trkpt>
      <trkpt lat="44.20837" lon="5.97845">
        <ele>829.20001220703</ele>
        <time>2019-10-11T13:14:48Z</time>
      </trkpt>
      <trkpt lat="44.20853" lon="5.97866">
        <ele>830.59997558594</ele>
        <time>2019-10-11T13:14:56Z</time>
      </trkpt>
      <trkpt lat="44.20867" lon="5.979">
        <ele>832.40002441406</ele>
        <time>2019-10-11T13:15:07Z</time>
      </trkpt>
      <trkpt lat="44.20882" lon="5.97926">
        <ele>834</ele>
        <time>2019-10-11T13:15:18Z</time>
      </trkpt>
      <trkpt lat="44.20916" lon="5.97968">
        <ele>835.79998779297</ele>
        <time>2019-10-11T13:15:37Z</time>
      </trkpt>
      <trkpt lat="44.20939" lon="5.97998">
        <ele>837</ele>
        <time>2019-10-11T13:15:48Z</time>
      </trkpt>
      <trkpt lat="44.20964" lon="5.98028">
        <ele>838</ele>
        <time>2019-10-11T13:16:00Z</time>
      </trkpt>
      <trkpt lat="44.20984" lon="5.98026">
        <ele>838.59997558594</ele>
        <time>2019-10-11T13:16:07Z</time>
      </trkpt>
      <trkpt lat="44.21023" lon="5.98043">
        <ele>840</ele>
        <time>2019-10-11T13:16:22Z</time>
      </trkpt>
      <trkpt lat="44.2103" lon="5.98077">
        <ele>841</ele>
        <time>2019-10-11T13:16:30Z</time>
      </trkpt>
      <trkpt lat="44.21054" lon="5.98116">
        <ele>843</ele>
        <time>2019-10-11T13:16:44Z</time>
      </trkpt>
      <trkpt lat="44.21068" lon="5.98111">
        <ele>844</ele>
        <time>2019-10-11T13:16:50Z</time>
      </trkpt>
      <trkpt lat="44.2108" lon="5.98057">
        <ele>846</ele>
        <time>2019-10-11T13:17:04Z</time>
      </trkpt>
      <trkpt lat="44.21101" lon="5.98019">
        <ele>847.20001220703</ele>
        <time>2019-10-11T13:17:15Z</time>
      </trkpt>
      <trkpt lat="44.21141" lon="5.97992">
        <ele>849</ele>
        <time>2019-10-11T13:17:30Z</time>
      </trkpt>
      <trkpt lat="44.21188" lon="5.9801">
        <ele>849.59997558594</ele>
        <time>2019-10-11T13:17:44Z</time>
      </trkpt>
      <trkpt lat="44.21223" lon="5.98024">
        <ele>851.20001220703</ele>
        <time>2019-10-11T13:17:57Z</time>
      </trkpt>
      <trkpt lat="44.2127" lon="5.98058">
        <ele>853</ele>
        <time>2019-10-11T13:18:15Z</time>
      </trkpt>
      <trkpt lat="44.21276" lon="5.98091">
        <ele>853.20001220703</ele>
        <time>2019-10-11T13:18:22Z</time>
      </trkpt>
      <trkpt lat="44.21257" lon="5.9819">
        <ele>854.40002441406</ele>
        <time>2019-10-11T13:18:40Z</time>
      </trkpt>
      <trkpt lat="44.2127" lon="5.98228">
        <ele>854.59997558594</ele>
        <time>2019-10-11T13:18:51Z</time>
      </trkpt>
      <trkpt lat="44.21315" lon="5.9825">
        <ele>855.20001220703</ele>
        <time>2019-10-11T13:19:04Z</time>
      </trkpt>
      <trkpt lat="44.21323" lon="5.98256">
        <ele>855</ele>
        <time>2019-10-11T13:19:06Z</time>
      </trkpt>
      <trkpt lat="44.21377" lon="5.98369">
        <ele>855.79998779297</ele>
        <time>2019-10-11T13:19:27Z</time>
      </trkpt>
      <trkpt lat="44.21394" lon="5.9839">
        <ele>855.79998779297</ele>
        <time>2019-10-11T13:19:32Z</time>
      </trkpt>
      <trkpt lat="44.21458" lon="5.98433">
        <ele>856.59997558594</ele>
        <time>2019-10-11T13:19:48Z</time>
      </trkpt>
      <trkpt lat="44.21519" lon="5.98473">
        <ele>857.59997558594</ele>
        <time>2019-10-11T13:20:03Z</time>
      </trkpt>
      <trkpt lat="44.21633" lon="5.98501">
        <ele>858.40002441406</ele>
        <time>2019-10-11T13:20:29Z</time>
      </trkpt>
      <trkpt lat="44.21681" lon="5.98488">
        <ele>859.20001220703</ele>
        <time>2019-10-11T13:20:39Z</time>
      </trkpt>
      <trkpt lat="44.21705" lon="5.98485">
        <ele>859</ele>
        <time>2019-10-11T13:20:44Z</time>
      </trkpt>
      <trkpt lat="44.21711" lon="5.98505">
        <ele>859.20001220703</ele>
        <time>2019-10-11T13:20:48Z</time>
      </trkpt>
      <trkpt lat="44.21713" lon="5.98553">
        <ele>859.20001220703</ele>
        <time>2019-10-11T13:20:55Z</time>
      </trkpt>
      <trkpt lat="44.21736" lon="5.98574">
        <ele>859.40002441406</ele>
        <time>2019-10-11T13:21:01Z</time>
      </trkpt>
      <trkpt lat="44.21768" lon="5.98596">
        <ele>859.59997558594</ele>
        <time>2019-10-11T13:21:08Z</time>
      </trkpt>
      <trkpt lat="44.21787" lon="5.98657">
        <ele>860</ele>
        <time>2019-10-11T13:21:20Z</time>
      </trkpt>
      <trkpt lat="44.21824" lon="5.98706">
        <ele>860.40002441406</ele>
        <time>2019-10-11T13:21:32Z</time>
      </trkpt>
      <trkpt lat="44.21865" lon="5.98734">
        <ele>861.20001220703</ele>
        <time>2019-10-11T13:21:42Z</time>
      </trkpt>
      <trkpt lat="44.21877" lon="5.98751">
        <ele>861.40002441406</ele>
        <time>2019-10-11T13:21:46Z</time>
      </trkpt>
      <trkpt lat="44.21888" lon="5.98792">
        <ele>861.79998779297</ele>
        <time>2019-10-11T13:21:52Z</time>
      </trkpt>
      <trkpt lat="44.21892" lon="5.98825">
        <ele>862</ele>
        <time>2019-10-11T13:21:57Z</time>
      </trkpt>
      <trkpt lat="44.21937" lon="5.98937">
        <ele>864</ele>
        <time>2019-10-11T13:22:19Z</time>
      </trkpt>
      <trkpt lat="44.21952" lon="5.98959">
        <ele>865.20001220703</ele>
        <time>2019-10-11T13:22:25Z</time>
      </trkpt>
      <trkpt lat="44.22024" lon="5.99011">
        <ele>867.40002441406</ele>
        <time>2019-10-11T13:22:45Z</time>
      </trkpt>
      <trkpt lat="44.22035" lon="5.99018">
        <ele>867.40002441406</ele>
        <time>2019-10-11T13:22:48Z</time>
      </trkpt>
      <trkpt lat="44.22049" lon="5.9903">
        <ele>867.20001220703</ele>
        <time>2019-10-11T13:22:52Z</time>
      </trkpt>
      <trkpt lat="44.22095" lon="5.99059">
        <ele>868.40002441406</ele>
        <time>2019-10-11T13:23:04Z</time>
      </trkpt>
      <trkpt lat="44.22117" lon="5.99063">
        <ele>869</ele>
        <time>2019-10-11T13:23:10Z</time>
      </trkpt>
      <trkpt lat="44.22148" lon="5.99119">
        <ele>870.79998779297</ele>
        <time>2019-10-11T13:23:25Z</time>
      </trkpt>
      <trkpt lat="44.22173" lon="5.99147">
        <ele>872</ele>
        <time>2019-10-11T13:23:34Z</time>
      </trkpt>
      <trkpt lat="44.22222" lon="5.99212">
        <ele>874.59997558594</ele>
        <time>2019-10-11T13:23:53Z</time>
      </trkpt>
      <trkpt lat="44.22243" lon="5.99243">
        <ele>875.40002441406</ele>
        <time>2019-10-11T13:24:01Z</time>
      </trkpt>
      <trkpt lat="44.22269" lon="5.99285">
        <ele>877</ele>
        <time>2019-10-11T13:24:13Z</time>
      </trkpt>
      <trkpt lat="44.22287" lon="5.99305">
        <ele>878</ele>
        <time>2019-10-11T13:24:19Z</time>
      </trkpt>
      <trkpt lat="44.22357" lon="5.99322">
        <ele>881</ele>
        <time>2019-10-11T13:24:39Z</time>
      </trkpt>
      <trkpt lat="44.22369" lon="5.99359">
        <ele>881.59997558594</ele>
        <time>2019-10-11T13:24:48Z</time>
      </trkpt>
      <trkpt lat="44.22358" lon="5.99401">
        <ele>882.20001220703</ele>
        <time>2019-10-11T13:24:56Z</time>
      </trkpt>
      <trkpt lat="44.2236" lon="5.99431">
        <ele>883</ele>
        <time>2019-10-11T13:25:02Z</time>
      </trkpt>
      <trkpt lat="44.22372" lon="5.99449">
        <ele>884.40002441406</ele>
        <time>2019-10-11T13:25:09Z</time>
      </trkpt>
      <trkpt lat="44.22406" lon="5.99475">
        <ele>887</ele>
        <time>2019-10-11T13:25:24Z</time>
      </trkpt>
      <trkpt lat="44.22418" lon="5.99492">
        <ele>888.20001220703</ele>
        <time>2019-10-11T13:25:31Z</time>
      </trkpt>
      <trkpt lat="44.22426" lon="5.99515">
        <ele>889.59997558594</ele>
        <time>2019-10-11T13:25:41Z</time>
      </trkpt>
      <trkpt lat="44.22438" lon="5.99525">
        <ele>891</ele>
        <time>2019-10-11T13:25:48Z</time>
      </trkpt>
      <trkpt lat="44.22456" lon="5.99517">
        <ele>892.59997558594</ele>
        <time>2019-10-11T13:25:57Z</time>
      </trkpt>
      <trkpt lat="44.22472" lon="5.99503">
        <ele>893.59997558594</ele>
        <time>2019-10-11T13:26:05Z</time>
      </trkpt>
      <trkpt lat="44.22493" lon="5.99488">
        <ele>895.20001220703</ele>
        <time>2019-10-11T13:26:17Z</time>
      </trkpt>
      <trkpt lat="44.22505" lon="5.99481">
        <ele>896.59997558594</ele>
        <time>2019-10-11T13:26:23Z</time>
      </trkpt>
      <trkpt lat="44.2254" lon="5.99504">
        <ele>899.40002441406</ele>
        <time>2019-10-11T13:26:40Z</time>
      </trkpt>
      <trkpt lat="44.2255" lon="5.99518">
        <ele>900.40002441406</ele>
        <time>2019-10-11T13:30:50Z</time>
      </trkpt>
      <trkpt lat="44.22558" lon="5.9953">
        <ele>900.59997558594</ele>
        <time>2019-10-11T13:30:57Z</time>
      </trkpt>
      <trkpt lat="44.2257" lon="5.99544">
        <ele>901.40002441406</ele>
        <time>2019-10-11T13:31:04Z</time>
      </trkpt>
      <trkpt lat="44.22582" lon="5.99558">
        <ele>902.20001220703</ele>
        <time>2019-10-11T13:31:11Z</time>
      </trkpt>
      <trkpt lat="44.22605" lon="5.99595">
        <ele>904.20001220703</ele>
        <time>2019-10-11T13:31:27Z</time>
      </trkpt>
      <trkpt lat="44.22613" lon="5.99618">
        <ele>905.40002441406</ele>
        <time>2019-10-11T13:31:36Z</time>
      </trkpt>
      <trkpt lat="44.22625" lon="5.99645">
        <ele>907.40002441406</ele>
        <time>2019-10-11T13:31:48Z</time>
      </trkpt>
      <trkpt lat="44.22637" lon="5.99665">
        <ele>908.20001220703</ele>
        <time>2019-10-11T13:31:56Z</time>
      </trkpt>
      <trkpt lat="44.22645" lon="5.9969">
        <ele>910</ele>
        <time>2019-10-11T13:32:06Z</time>
      </trkpt>
      <trkpt lat="44.22655" lon="5.99714">
        <ele>911.40002441406</ele>
        <time>2019-10-11T13:32:16Z</time>
      </trkpt>
      <trkpt lat="44.22672" lon="5.99756">
        <ele>913.59997558594</ele>
        <time>2019-10-11T13:32:33Z</time>
      </trkpt>
      <trkpt lat="44.22677" lon="5.99781">
        <ele>914.40002441406</ele>
        <time>2019-10-11T13:32:41Z</time>
      </trkpt>
      <trkpt lat="44.22682" lon="5.99821">
        <ele>915.79998779297</ele>
        <time>2019-10-11T13:32:55Z</time>
      </trkpt>
      <trkpt lat="44.22688" lon="5.99846">
        <ele>917.40002441406</ele>
        <time>2019-10-11T13:33:04Z</time>
      </trkpt>
      <trkpt lat="44.22708" lon="5.99895">
        <ele>919.59997558594</ele>
        <time>2019-10-11T13:33:22Z</time>
      </trkpt>
      <trkpt lat="44.2272" lon="5.99924">
        <ele>920.79998779297</ele>
        <time>2019-10-11T13:33:32Z</time>
      </trkpt>
      <trkpt lat="44.2273" lon="5.99948">
        <ele>921.59997558594</ele>
        <time>2019-10-11T13:33:41Z</time>
      </trkpt>
      <trkpt lat="44.22751" lon="5.99982">
        <ele>923.40002441406</ele>
        <time>2019-10-11T13:33:55Z</time>
      </trkpt>
      <trkpt lat="44.22764" lon="6.00011">
        <ele>925</ele>
        <time>2019-10-11T13:34:06Z</time>
      </trkpt>
      <trkpt lat="44.22774" lon="6.00047">
        <ele>926.59997558594</ele>
        <time>2019-10-11T13:34:19Z</time>
      </trkpt>
      <trkpt lat="44.22786" lon="6.00073">
        <ele>927.40002441406</ele>
        <time>2019-10-11T13:34:29Z</time>
      </trkpt>
      <trkpt lat="44.22808" lon="6.00106">
        <ele>929.20001220703</ele>
        <time>2019-10-11T13:34:43Z</time>
      </trkpt>
      <trkpt lat="44.22811" lon="6.00121">
        <ele>929.79998779297</ele>
        <time>2019-10-11T13:34:47Z</time>
      </trkpt>
      <trkpt lat="44.22818" lon="6.00158">
        <ele>932.20001220703</ele>
        <time>2019-10-11T13:35:00Z</time>
      </trkpt>
      <trkpt lat="44.22833" lon="6.00188">
        <ele>934.20001220703</ele>
        <time>2019-10-11T13:35:12Z</time>
      </trkpt>
      <trkpt lat="44.22849" lon="6.00234">
        <ele>935.40002441406</ele>
        <time>2019-10-11T13:35:27Z</time>
      </trkpt>
      <trkpt lat="44.22862" lon="6.0025">
        <ele>936.59997558594</ele>
        <time>2019-10-11T13:35:34Z</time>
      </trkpt>
      <trkpt lat="44.22873" lon="6.00284">
        <ele>938.20001220703</ele>
        <time>2019-10-11T13:35:46Z</time>
      </trkpt>
      <trkpt lat="44.2288" lon="6.00308">
        <ele>939.20001220703</ele>
        <time>2019-10-11T13:35:54Z</time>
      </trkpt>
      <trkpt lat="44.22909" lon="6.00326">
        <ele>942.20001220703</ele>
        <time>2019-10-11T13:36:09Z</time>
      </trkpt>
      <trkpt lat="44.22918" lon="6.00331">
        <ele>943.20001220703</ele>
        <time>2019-10-11T13:36:15Z</time>
      </trkpt>
      <trkpt lat="44.22925" lon="6.00344">
        <ele>944.59997558594</ele>
        <time>2019-10-11T13:36:22Z</time>
      </trkpt>
      <trkpt lat="44.22937" lon="6.00372">
        <ele>947</ele>
        <time>2019-10-11T13:36:35Z</time>
      </trkpt>
      <trkpt lat="44.22942" lon="6.00383">
        <ele>947.59997558594</ele>
        <time>2019-10-11T13:36:40Z</time>
      </trkpt>
      <trkpt lat="44.22951" lon="6.00406">
        <ele>949.79998779297</ele>
        <time>2019-10-11T13:36:51Z</time>
      </trkpt>
      <trkpt lat="44.22957" lon="6.00416">
        <ele>951</ele>
        <time>2019-10-11T13:36:56Z</time>
      </trkpt>
      <trkpt lat="44.22975" lon="6.00445">
        <ele>953.59997558594</ele>
        <time>2019-10-11T13:37:11Z</time>
      </trkpt>
      <trkpt lat="44.22981" lon="6.00457">
        <ele>954.59997558594</ele>
        <time>2019-10-11T13:37:17Z</time>
      </trkpt>
      <trkpt lat="44.22994" lon="6.00478">
        <ele>956.59997558594</ele>
        <time>2019-10-11T13:37:29Z</time>
      </trkpt>
      <trkpt lat="44.23003" lon="6.00491">
        <ele>957.59997558594</ele>
        <time>2019-10-11T13:37:35Z</time>
      </trkpt>
      <trkpt lat="44.23019" lon="6.00514">
        <ele>960.40002441406</ele>
        <time>2019-10-11T13:37:48Z</time>
      </trkpt>
      <trkpt lat="44.23029" lon="6.0053">
        <ele>961.59997558594</ele>
        <time>2019-10-11T13:37:56Z</time>
      </trkpt>
      <trkpt lat="44.2304" lon="6.00549">
        <ele>963.40002441406</ele>
        <time>2019-10-11T13:38:06Z</time>
      </trkpt>
      <trkpt lat="44.23045" lon="6.00557">
        <ele>964.40002441406</ele>
        <time>2019-10-11T13:38:11Z</time>
      </trkpt>
      <trkpt lat="44.23059" lon="6.00573">
        <ele>966.59997558594</ele>
        <time>2019-10-11T13:38:20Z</time>
      </trkpt>
      <trkpt lat="44.23076" lon="6.00591">
        <ele>968.20001220703</ele>
        <time>2019-10-11T13:38:33Z</time>
      </trkpt>
      <trkpt lat="44.23094" lon="6.00611">
        <ele>970.20001220703</ele>
        <time>2019-10-11T13:38:47Z</time>
      </trkpt>
      <trkpt lat="44.23112" lon="6.00631">
        <ele>972.40002441406</ele>
        <time>2019-10-11T13:39:00Z</time>
      </trkpt>
      <trkpt lat="44.23123" lon="6.00647">
        <ele>974</ele>
        <time>2019-10-11T13:39:09Z</time>
      </trkpt>
      <trkpt lat="44.23141" lon="6.00681">
        <ele>976.79998779297</ele>
        <time>2019-10-11T13:39:25Z</time>
      </trkpt>
      <trkpt lat="44.23146" lon="6.00692">
        <ele>977.79998779297</ele>
        <time>2019-10-11T13:39:31Z</time>
      </trkpt>
      <trkpt lat="44.2316" lon="6.00719">
        <ele>980.40002441406</ele>
        <time>2019-10-11T13:39:45Z</time>
      </trkpt>
      <trkpt lat="44.23165" lon="6.00729">
        <ele>981</ele>
        <time>2019-10-11T13:39:50Z</time>
      </trkpt>
      <trkpt lat="44.23178" lon="6.00759">
        <ele>983.20001220703</ele>
        <time>2019-10-11T13:40:01Z</time>
      </trkpt>
      <trkpt lat="44.23189" lon="6.00786">
        <ele>984.79998779297</ele>
        <time>2019-10-11T13:40:11Z</time>
      </trkpt>
      <trkpt lat="44.23199" lon="6.00807">
        <ele>986.79998779297</ele>
        <time>2019-10-11T13:40:21Z</time>
      </trkpt>
      <trkpt lat="44.23211" lon="6.00823">
        <ele>988.20001220703</ele>
        <time>2019-10-11T13:40:28Z</time>
      </trkpt>
      <trkpt lat="44.23215" lon="6.00827">
        <ele>990.20001220703</ele>
        <time>2019-10-11T13:40:37Z</time>
      </trkpt>
      <trkpt lat="44.23225" lon="6.00833">
        <ele>991.79998779297</ele>
        <time>2019-10-11T13:48:19Z</time>
      </trkpt>
      <trkpt lat="44.23255" lon="6.00832">
        <ele>992.20001220703</ele>
        <time>2019-10-11T13:48:25Z</time>
      </trkpt>
      <trkpt lat="44.23254" lon="6.00832">
        <ele>994</ele>
        <time>2019-10-11T13:48:58Z</time>
      </trkpt>
      <trkpt lat="44.23251" lon="6.00833">
        <ele>994</ele>
        <time>2019-10-11T13:49:02Z</time>
      </trkpt>
      <trkpt lat="44.23277" lon="6.00825">
        <ele>994.40002441406</ele>
        <time>2019-10-11T13:49:14Z</time>
      </trkpt>
      <trkpt lat="44.23284" lon="6.00822">
        <ele>995</ele>
        <time>2019-10-11T13:49:17Z</time>
      </trkpt>
      <trkpt lat="44.23306" lon="6.00817">
        <ele>996</ele>
        <time>2019-10-11T13:49:29Z</time>
      </trkpt>
      <trkpt lat="44.23317" lon="6.00818">
        <ele>996.59997558594</ele>
        <time>2019-10-11T13:49:37Z</time>
      </trkpt>
      <trkpt lat="44.23334" lon="6.00831">
        <ele>998.59997558594</ele>
        <time>2019-10-11T13:49:51Z</time>
      </trkpt>
      <trkpt lat="44.23345" lon="6.00842">
        <ele>999.20001220703</ele>
        <time>2019-10-11T13:49:58Z</time>
      </trkpt>
      <trkpt lat="44.23357" lon="6.00856">
        <ele>1000.200012207</ele>
        <time>2019-10-11T13:50:07Z</time>
      </trkpt>
      <trkpt lat="44.23379" lon="6.0088">
        <ele>1002.5999755859</ele>
        <time>2019-10-11T13:50:22Z</time>
      </trkpt>
      <trkpt lat="44.2339" lon="6.00885">
        <ele>1002.799987793</ele>
        <time>2019-10-11T13:50:30Z</time>
      </trkpt>
      <trkpt lat="44.23407" lon="6.00891">
        <ele>1003</ele>
        <time>2019-10-11T13:50:44Z</time>
      </trkpt>
      <trkpt lat="44.23427" lon="6.00898">
        <ele>1003.5999755859</ele>
        <time>2019-10-11T13:50:53Z</time>
      </trkpt>
      <trkpt lat="44.23479" lon="6.00917">
        <ele>1004.4000244141</ele>
        <time>2019-10-11T13:51:07Z</time>
      </trkpt>
      <trkpt lat="44.23495" lon="6.00948">
        <ele>1005</ele>
        <time>2019-10-11T13:51:18Z</time>
      </trkpt>
      <trkpt lat="44.23497" lon="6.00968">
        <ele>1005.799987793</ele>
        <time>2019-10-11T13:51:26Z</time>
      </trkpt>
      <trkpt lat="44.23499" lon="6.00996">
        <ele>1006</ele>
        <time>2019-10-11T13:51:36Z</time>
      </trkpt>
      <trkpt lat="44.23503" lon="6.01056">
        <ele>1006.799987793</ele>
        <time>2019-10-11T13:51:50Z</time>
      </trkpt>
      <trkpt lat="44.23504" lon="6.01071">
        <ele>1006.799987793</ele>
        <time>2019-10-11T13:51:53Z</time>
      </trkpt>
      <trkpt lat="44.23509" lon="6.01123">
        <ele>1007.799987793</ele>
        <time>2019-10-11T13:52:09Z</time>
      </trkpt>
      <trkpt lat="44.2352" lon="6.01175">
        <ele>1008.5999755859</ele>
        <time>2019-10-11T13:52:22Z</time>
      </trkpt>
      <trkpt lat="44.23537" lon="6.01205">
        <ele>1009.200012207</ele>
        <time>2019-10-11T13:52:31Z</time>
      </trkpt>
      <trkpt lat="44.23553" lon="6.01227">
        <ele>1010</ele>
        <time>2019-10-11T13:52:39Z</time>
      </trkpt>
      <trkpt lat="44.23579" lon="6.01263">
        <ele>1011.200012207</ele>
        <time>2019-10-11T13:52:52Z</time>
      </trkpt>
      <trkpt lat="44.23598" lon="6.01294">
        <ele>1012.200012207</ele>
        <time>2019-10-11T13:53:02Z</time>
      </trkpt>
      <trkpt lat="44.23616" lon="6.01335">
        <ele>1013.4000244141</ele>
        <time>2019-10-11T13:53:13Z</time>
      </trkpt>
      <trkpt lat="44.23645" lon="6.014">
        <ele>1014.799987793</ele>
        <time>2019-10-11T13:53:30Z</time>
      </trkpt>
      <trkpt lat="44.23664" lon="6.01442">
        <ele>1014.799987793</ele>
        <time>2019-10-11T13:53:40Z</time>
      </trkpt>
      <trkpt lat="44.23673" lon="6.01512">
        <ele>1015</ele>
        <time>2019-10-11T13:53:53Z</time>
      </trkpt>
      <trkpt lat="44.23657" lon="6.01563">
        <ele>1015.4000244141</ele>
        <time>2019-10-11T13:54:05Z</time>
      </trkpt>
      <trkpt lat="44.23638" lon="6.01606">
        <ele>1016.200012207</ele>
        <time>2019-10-11T13:54:17Z</time>
      </trkpt>
      <trkpt lat="44.23633" lon="6.01617">
        <ele>1016.4000244141</ele>
        <time>2019-10-11T13:54:20Z</time>
      </trkpt>
      <trkpt lat="44.23615" lon="6.01664">
        <ele>1017.4000244141</ele>
        <time>2019-10-11T13:54:33Z</time>
      </trkpt>
      <trkpt lat="44.23611" lon="6.01717">
        <ele>1018.200012207</ele>
        <time>2019-10-11T13:54:44Z</time>
      </trkpt>
      <trkpt lat="44.23623" lon="6.01787">
        <ele>1019.799987793</ele>
        <time>2019-10-11T13:55:01Z</time>
      </trkpt>
      <trkpt lat="44.23615" lon="6.01832">
        <ele>1020.4000244141</ele>
        <time>2019-10-11T13:55:12Z</time>
      </trkpt>
      <trkpt lat="44.23603" lon="6.01886">
        <ele>1021.5999755859</ele>
        <time>2019-10-11T13:55:26Z</time>
      </trkpt>
      <trkpt lat="44.23591" lon="6.01942">
        <ele>1023</ele>
        <time>2019-10-11T13:55:41Z</time>
      </trkpt>
      <trkpt lat="44.23589" lon="6.01991">
        <ele>1024</ele>
        <time>2019-10-11T13:55:53Z</time>
      </trkpt>
      <trkpt lat="44.23587" lon="6.02049">
        <ele>1025.1999511719</ele>
        <time>2019-10-11T13:56:05Z</time>
      </trkpt>
      <trkpt lat="44.23581" lon="6.02087">
        <ele>1025.5999755859</ele>
        <time>2019-10-11T13:56:13Z</time>
      </trkpt>
      <trkpt lat="44.23562" lon="6.0213">
        <ele>1025.4000244141</ele>
        <time>2019-10-11T13:56:21Z</time>
      </trkpt>
      <trkpt lat="44.23544" lon="6.02158">
        <ele>1025</ele>
        <time>2019-10-11T13:56:26Z</time>
      </trkpt>
      <trkpt lat="44.23511" lon="6.02201">
        <ele>1024</ele>
        <time>2019-10-11T13:56:36Z</time>
      </trkpt>
      <trkpt lat="44.23478" lon="6.02249">
        <ele>1023.799987793</ele>
        <time>2019-10-11T13:56:46Z</time>
      </trkpt>
      <trkpt lat="44.23448" lon="6.02312">
        <ele>1024.5999755859</ele>
        <time>2019-10-11T13:56:58Z</time>
      </trkpt>
      <trkpt lat="44.2344" lon="6.0233">
        <ele>1024.8000488281</ele>
        <time>2019-10-11T13:57:02Z</time>
      </trkpt>
      <trkpt lat="44.23425" lon="6.02371">
        <ele>1025.1999511719</ele>
        <time>2019-10-11T13:57:11Z</time>
      </trkpt>
      <trkpt lat="44.234" lon="6.02442">
        <ele>1026.1999511719</ele>
        <time>2019-10-11T13:57:25Z</time>
      </trkpt>
      <trkpt lat="44.23399" lon="6.025">
        <ele>1027.1999511719</ele>
        <time>2019-10-11T13:57:37Z</time>
      </trkpt>
      <trkpt lat="44.23413" lon="6.02548">
        <ele>1027.4000244141</ele>
        <time>2019-10-11T13:57:45Z</time>
      </trkpt>
      <trkpt lat="44.23418" lon="6.02596">
        <ele>1028.1999511719</ele>
        <time>2019-10-11T13:57:55Z</time>
      </trkpt>
      <trkpt lat="44.23422" lon="6.02655">
        <ele>1029.5999755859</ele>
        <time>2019-10-11T13:58:08Z</time>
      </trkpt>
      <trkpt lat="44.2343" lon="6.0274">
        <ele>1030.5999755859</ele>
        <time>2019-10-11T13:58:25Z</time>
      </trkpt>
      <trkpt lat="44.23436" lon="6.02806">
        <ele>1032.5999755859</ele>
        <time>2019-10-11T13:58:43Z</time>
      </trkpt>
      <trkpt lat="44.2344" lon="6.02848">
        <ele>1033.8000488281</ele>
        <time>2019-10-11T13:58:54Z</time>
      </trkpt>
      <trkpt lat="44.23441" lon="6.02946">
        <ele>1036.1999511719</ele>
        <time>2019-10-11T13:59:16Z</time>
      </trkpt>
      <trkpt lat="44.23441" lon="6.02993">
        <ele>1036.5999755859</ele>
        <time>2019-10-11T13:59:26Z</time>
      </trkpt>
      <trkpt lat="44.23447" lon="6.03067">
        <ele>1037.5999755859</ele>
        <time>2019-10-11T13:59:42Z</time>
      </trkpt>
      <trkpt lat="44.23456" lon="6.03101">
        <ele>1038.8000488281</ele>
        <time>2019-10-11T13:59:52Z</time>
      </trkpt>
      <trkpt lat="44.2347" lon="6.0316">
        <ele>1040</ele>
        <time>2019-10-11T14:00:07Z</time>
      </trkpt>
      <trkpt lat="44.23477" lon="6.03192">
        <ele>1040.8000488281</ele>
        <time>2019-10-11T14:00:16Z</time>
      </trkpt>
      <trkpt lat="44.23482" lon="6.03237">
        <ele>1042.1999511719</ele>
        <time>2019-10-11T14:00:27Z</time>
      </trkpt>
      <trkpt lat="44.2348" lon="6.03268">
        <ele>1043.5999755859</ele>
        <time>2019-10-11T14:00:35Z</time>
      </trkpt>
      <trkpt lat="44.23468" lon="6.0334">
        <ele>1046.4000244141</ele>
        <time>2019-10-11T14:00:54Z</time>
      </trkpt>
      <trkpt lat="44.23465" lon="6.0337">
        <ele>1047.1999511719</ele>
        <time>2019-10-11T14:01:02Z</time>
      </trkpt>
      <trkpt lat="44.23462" lon="6.03432">
        <ele>1049.4000244141</ele>
        <time>2019-10-11T14:01:18Z</time>
      </trkpt>
      <trkpt lat="44.23475" lon="6.03459">
        <ele>1049.8000488281</ele>
        <time>2019-10-11T14:01:27Z</time>
      </trkpt>
      <trkpt lat="44.23488" lon="6.03456">
        <ele>1049.5999755859</ele>
        <time>2019-10-11T14:01:31Z</time>
      </trkpt>
      <trkpt lat="44.23514" lon="6.03447">
        <ele>1049.4000244141</ele>
        <time>2019-10-11T14:01:37Z</time>
      </trkpt>
      <trkpt lat="44.23535" lon="6.03446">
        <ele>1049</ele>
        <time>2019-10-11T14:01:41Z</time>
      </trkpt>
      <trkpt lat="44.23602" lon="6.03476">
        <ele>1047.4000244141</ele>
        <time>2019-10-11T14:01:55Z</time>
      </trkpt>
      <trkpt lat="44.23629" lon="6.03508">
        <ele>1047.4000244141</ele>
        <time>2019-10-11T14:02:02Z</time>
      </trkpt>
      <trkpt lat="44.2366" lon="6.03556">
        <ele>1047.5999755859</ele>
        <time>2019-10-11T14:02:11Z</time>
      </trkpt>
      <trkpt lat="44.23689" lon="6.03599">
        <ele>1048.5999755859</ele>
        <time>2019-10-11T14:02:21Z</time>
      </trkpt>
      <trkpt lat="44.23739" lon="6.03632">
        <ele>1049</ele>
        <time>2019-10-11T14:02:35Z</time>
      </trkpt>
      <trkpt lat="44.23748" lon="6.03634">
        <ele>1049.1999511719</ele>
        <time>2019-10-11T14:02:38Z</time>
      </trkpt>
      <trkpt lat="44.23783" lon="6.03639">
        <ele>1051.1999511719</ele>
        <time>2019-10-11T14:02:49Z</time>
      </trkpt>
      <trkpt lat="44.23809" lon="6.03642">
        <ele>1052.5999755859</ele>
        <time>2019-10-11T14:02:57Z</time>
      </trkpt>
      <trkpt lat="44.23823" lon="6.03646">
        <ele>1054</ele>
        <time>2019-10-11T14:03:03Z</time>
      </trkpt>
      <trkpt lat="44.23843" lon="6.03654">
        <ele>1055.1999511719</ele>
        <time>2019-10-11T14:03:12Z</time>
      </trkpt>
      <trkpt lat="44.23858" lon="6.03661">
        <ele>1056.4000244141</ele>
        <time>2019-10-11T14:03:20Z</time>
      </trkpt>
      <trkpt lat="44.23891" lon="6.0368">
        <ele>1058.5999755859</ele>
        <time>2019-10-11T14:03:35Z</time>
      </trkpt>
      <trkpt lat="44.23911" lon="6.03699">
        <ele>1059.4000244141</ele>
        <time>2019-10-11T14:03:44Z</time>
      </trkpt>
      <trkpt lat="44.23934" lon="6.03727">
        <ele>1060.4000244141</ele>
        <time>2019-10-11T14:03:56Z</time>
      </trkpt>
      <trkpt lat="44.23953" lon="6.03748">
        <ele>1061.5999755859</ele>
        <time>2019-10-11T14:04:05Z</time>
      </trkpt>
      <trkpt lat="44.2399" lon="6.03769">
        <ele>1063.8000488281</ele>
        <time>2019-10-11T14:04:22Z</time>
      </trkpt>
      <trkpt lat="44.24016" lon="6.03783">
        <ele>1064.5999755859</ele>
        <time>2019-10-11T14:04:31Z</time>
      </trkpt>
      <trkpt lat="44.24049" lon="6.03807">
        <ele>1066.1999511719</ele>
        <time>2019-10-11T14:04:44Z</time>
      </trkpt>
      <trkpt lat="44.24082" lon="6.03831">
        <ele>1067.5999755859</ele>
        <time>2019-10-11T14:04:56Z</time>
      </trkpt>
      <trkpt lat="44.24116" lon="6.03864">
        <ele>1068.8000488281</ele>
        <time>2019-10-11T14:05:08Z</time>
      </trkpt>
      <trkpt lat="44.24137" lon="6.03888">
        <ele>1069.8000488281</ele>
        <time>2019-10-11T14:05:16Z</time>
      </trkpt>
      <trkpt lat="44.24154" lon="6.03905">
        <ele>1069.8000488281</ele>
        <time>2019-10-11T14:05:22Z</time>
      </trkpt>
      <trkpt lat="44.24166" lon="6.0393">
        <ele>1069.8000488281</ele>
        <time>2019-10-11T14:05:27Z</time>
      </trkpt>
      <trkpt lat="44.24176" lon="6.03967">
        <ele>1070</ele>
        <time>2019-10-11T14:05:34Z</time>
      </trkpt>
      <trkpt lat="44.24196" lon="6.04071">
        <ele>1071.1999511719</ele>
        <time>2019-10-11T14:05:51Z</time>
      </trkpt>
      <trkpt lat="44.2421" lon="6.04133">
        <ele>1072</ele>
        <time>2019-10-11T14:06:01Z</time>
      </trkpt>
      <trkpt lat="44.24225" lon="6.04227">
        <ele>1072.5999755859</ele>
        <time>2019-10-11T14:06:17Z</time>
      </trkpt>
      <trkpt lat="44.24231" lon="6.0428">
        <ele>1073.1999511719</ele>
        <time>2019-10-11T14:06:27Z</time>
      </trkpt>
      <trkpt lat="44.24235" lon="6.04328">
        <ele>1074.1999511719</ele>
        <time>2019-10-11T14:06:36Z</time>
      </trkpt>
      <trkpt lat="44.24239" lon="6.04361">
        <ele>1076.1999511719</ele>
        <time>2019-10-11T14:07:49Z</time>
      </trkpt>
      <trkpt lat="44.24242" lon="6.04379">
        <ele>1076.1999511719</ele>
        <time>2019-10-11T14:07:54Z</time>
      </trkpt>
      <trkpt lat="44.24255" lon="6.04427">
        <ele>1076.8000488281</ele>
        <time>2019-10-11T14:08:06Z</time>
      </trkpt>
      <trkpt lat="44.24262" lon="6.0445">
        <ele>1077.4000244141</ele>
        <time>2019-10-11T14:08:12Z</time>
      </trkpt>
      <trkpt lat="44.24268" lon="6.04467">
        <ele>1077.8000488281</ele>
        <time>2019-10-11T14:08:17Z</time>
      </trkpt>
      <trkpt lat="44.24275" lon="6.04492">
        <ele>1078.4000244141</ele>
        <time>2019-10-11T14:08:23Z</time>
      </trkpt>
      <trkpt lat="44.24295" lon="6.04552">
        <ele>1080.4000244141</ele>
        <time>2019-10-11T14:08:42Z</time>
      </trkpt>
      <trkpt lat="44.24307" lon="6.04593">
        <ele>1081.4000244141</ele>
        <time>2019-10-11T14:08:53Z</time>
      </trkpt>
      <trkpt lat="44.24316" lon="6.04623">
        <ele>1082</ele>
        <time>2019-10-11T14:09:01Z</time>
      </trkpt>
      <trkpt lat="44.24325" lon="6.04652">
        <ele>1083.8000488281</ele>
        <time>2019-10-11T14:09:47Z</time>
      </trkpt>
      <trkpt lat="44.24331" lon="6.04673">
        <ele>1084</ele>
        <time>2019-10-11T14:09:52Z</time>
      </trkpt>
      <trkpt lat="44.24337" lon="6.04694">
        <ele>1084</ele>
        <time>2019-10-11T14:09:58Z</time>
      </trkpt>
      <trkpt lat="44.24353" lon="6.04744">
        <ele>1086</ele>
        <time>2019-10-11T14:10:11Z</time>
      </trkpt>
      <trkpt lat="44.24366" lon="6.0479">
        <ele>1086.8000488281</ele>
        <time>2019-10-11T14:10:21Z</time>
      </trkpt>
      <trkpt lat="44.24381" lon="6.04839">
        <ele>1088</ele>
        <time>2019-10-11T14:10:34Z</time>
      </trkpt>
      <trkpt lat="44.24388" lon="6.04861">
        <ele>1088.8000488281</ele>
        <time>2019-10-11T14:10:41Z</time>
      </trkpt>
      <trkpt lat="44.24401" lon="6.04905">
        <ele>1090</ele>
        <time>2019-10-11T14:10:53Z</time>
      </trkpt>
      <trkpt lat="44.24412" lon="6.04942">
        <ele>1092</ele>
        <time>2019-10-11T14:11:04Z</time>
      </trkpt>
      <trkpt lat="44.24428" lon="6.04994">
        <ele>1093.5999755859</ele>
        <time>2019-10-11T14:11:20Z</time>
      </trkpt>
      <trkpt lat="44.24433" lon="6.05013">
        <ele>1094.1999511719</ele>
        <time>2019-10-11T14:11:26Z</time>
      </trkpt>
      <trkpt lat="44.24437" lon="6.05024">
        <ele>1094.1999511719</ele>
        <time>2019-10-11T14:11:29Z</time>
      </trkpt>
      <trkpt lat="44.2445" lon="6.05077">
        <ele>1096.5999755859</ele>
        <time>2019-10-11T14:11:45Z</time>
      </trkpt>
      <trkpt lat="44.24462" lon="6.05115">
        <ele>1098.8000488281</ele>
        <time>2019-10-11T14:11:59Z</time>
      </trkpt>
      <trkpt lat="44.2447" lon="6.05139">
        <ele>1100.1999511719</ele>
        <time>2019-10-11T14:12:08Z</time>
      </trkpt>
      <trkpt lat="44.24476" lon="6.05158">
        <ele>1101.5999755859</ele>
        <time>2019-10-11T14:12:15Z</time>
      </trkpt>
      <trkpt lat="44.24482" lon="6.05174">
        <ele>1102.8000488281</ele>
        <time>2019-10-11T14:12:22Z</time>
      </trkpt>
      <trkpt lat="44.24486" lon="6.05193">
        <ele>1104.5999755859</ele>
        <time>2019-10-11T14:12:29Z</time>
      </trkpt>
      <trkpt lat="44.245" lon="6.05244">
        <ele>1106.8000488281</ele>
        <time>2019-10-11T14:12:47Z</time>
      </trkpt>
      <trkpt lat="44.24505" lon="6.05254">
        <ele>1107</ele>
        <time>2019-10-11T14:12:51Z</time>
      </trkpt>
      <trkpt lat="44.24511" lon="6.05268">
        <ele>1108.1999511719</ele>
        <time>2019-10-11T14:13:01Z</time>
      </trkpt>
      <trkpt lat="44.24518" lon="6.05272">
        <ele>1109.1999511719</ele>
        <time>2019-10-11T14:13:58Z</time>
      </trkpt>
      <trkpt lat="44.24514" lon="6.05284">
        <ele>1109</ele>
        <time>2019-10-11T14:14:08Z</time>
      </trkpt>
      <trkpt lat="44.24515" lon="6.05308">
        <ele>1109</ele>
        <time>2019-10-11T14:14:14Z</time>
      </trkpt>
      <trkpt lat="44.24516" lon="6.05324">
        <ele>1109.4000244141</ele>
        <time>2019-10-11T14:14:19Z</time>
      </trkpt>
      <trkpt lat="44.24507" lon="6.05363">
        <ele>1110.5999755859</ele>
        <time>2019-10-11T14:14:28Z</time>
      </trkpt>
      <trkpt lat="44.24481" lon="6.0543">
        <ele>1110.8000488281</ele>
        <time>2019-10-11T14:14:43Z</time>
      </trkpt>
      <trkpt lat="44.24469" lon="6.05469">
        <ele>1111.1999511719</ele>
        <time>2019-10-11T14:14:51Z</time>
      </trkpt>
      <trkpt lat="44.24469" lon="6.05507">
        <ele>1111.4000244141</ele>
        <time>2019-10-11T14:14:57Z</time>
      </trkpt>
      <trkpt lat="44.2446" lon="6.0559">
        <ele>1111.4000244141</ele>
        <time>2019-10-11T14:15:13Z</time>
      </trkpt>
      <trkpt lat="44.2445" lon="6.05615">
        <ele>1111.4000244141</ele>
        <time>2019-10-11T14:15:18Z</time>
      </trkpt>
      <trkpt lat="44.24427" lon="6.05676">
        <ele>1111.4000244141</ele>
        <time>2019-10-11T14:15:29Z</time>
      </trkpt>
      <trkpt lat="44.24419" lon="6.05705">
        <ele>1111.1999511719</ele>
        <time>2019-10-11T14:15:33Z</time>
      </trkpt>
      <trkpt lat="44.24429" lon="6.05767">
        <ele>1110.5999755859</ele>
        <time>2019-10-11T14:15:42Z</time>
      </trkpt>
      <trkpt lat="44.24424" lon="6.05792">
        <ele>1110.4000244141</ele>
        <time>2019-10-11T14:15:46Z</time>
      </trkpt>
      <trkpt lat="44.2441" lon="6.05817">
        <ele>1110.8000488281</ele>
        <time>2019-10-11T14:15:53Z</time>
      </trkpt>
      <trkpt lat="44.24404" lon="6.05827">
        <ele>1111.8000488281</ele>
        <time>2019-10-11T14:15:57Z</time>
      </trkpt>
      <trkpt lat="44.24395" lon="6.0584">
        <ele>1112.8000488281</ele>
        <time>2019-10-11T14:16:02Z</time>
      </trkpt>
      <trkpt lat="44.2438" lon="6.05866">
        <ele>1114.5999755859</ele>
        <time>2019-10-11T14:16:13Z</time>
      </trkpt>
      <trkpt lat="44.2437" lon="6.05892">
        <ele>1115.8000488281</ele>
        <time>2019-10-11T14:16:21Z</time>
      </trkpt>
      <trkpt lat="44.24358" lon="6.05951">
        <ele>1118.5999755859</ele>
        <time>2019-10-11T14:16:38Z</time>
      </trkpt>
      <trkpt lat="44.24353" lon="6.05978">
        <ele>1119.4000244141</ele>
        <time>2019-10-11T14:16:45Z</time>
      </trkpt>
      <trkpt lat="44.24347" lon="6.0604">
        <ele>1121.8000488281</ele>
        <time>2019-10-11T14:17:03Z</time>
      </trkpt>
      <trkpt lat="44.2435" lon="6.06076">
        <ele>1123.5999755859</ele>
        <time>2019-10-11T14:17:13Z</time>
      </trkpt>
      <trkpt lat="44.24357" lon="6.06116">
        <ele>1125</ele>
        <time>2019-10-11T14:17:25Z</time>
      </trkpt>
      <trkpt lat="44.2436" lon="6.0614">
        <ele>1126</ele>
        <time>2019-10-11T14:17:32Z</time>
      </trkpt>
      <trkpt lat="44.24364" lon="6.062">
        <ele>1128.4000244141</ele>
        <time>2019-10-11T14:17:48Z</time>
      </trkpt>
      <trkpt lat="44.24355" lon="6.06231">
        <ele>1129.5999755859</ele>
        <time>2019-10-11T14:17:57Z</time>
      </trkpt>
      <trkpt lat="44.24341" lon="6.06275">
        <ele>1131.1999511719</ele>
        <time>2019-10-11T14:18:10Z</time>
      </trkpt>
      <trkpt lat="44.24333" lon="6.063">
        <ele>1133</ele>
        <time>2019-10-11T14:18:19Z</time>
      </trkpt>
      <trkpt lat="44.24326" lon="6.06332">
        <ele>1134</ele>
        <time>2019-10-11T14:18:29Z</time>
      </trkpt>
      <trkpt lat="44.24323" lon="6.06382">
        <ele>1136.5999755859</ele>
        <time>2019-10-11T14:18:44Z</time>
      </trkpt>
      <trkpt lat="44.2432" lon="6.06412">
        <ele>1137.4000244141</ele>
        <time>2019-10-11T14:18:52Z</time>
      </trkpt>
      <trkpt lat="44.24309" lon="6.06458">
        <ele>1139</ele>
        <time>2019-10-11T14:19:05Z</time>
      </trkpt>
      <trkpt lat="44.24301" lon="6.06488">
        <ele>1140.4000244141</ele>
        <time>2019-10-11T14:19:14Z</time>
      </trkpt>
      <trkpt lat="44.24291" lon="6.06548">
        <ele>1143</ele>
        <time>2019-10-11T14:19:31Z</time>
      </trkpt>
      <trkpt lat="44.24287" lon="6.06584">
        <ele>1143.4000244141</ele>
        <time>2019-10-11T14:19:38Z</time>
      </trkpt>
      <trkpt lat="44.24284" lon="6.06617">
        <ele>1143.4000244141</ele>
        <time>2019-10-11T14:19:44Z</time>
      </trkpt>
      <trkpt lat="44.24281" lon="6.06642">
        <ele>1143.1999511719</ele>
        <time>2019-10-11T14:19:49Z</time>
      </trkpt>
      <trkpt lat="44.24278" lon="6.06717">
        <ele>1142.4000244141</ele>
        <time>2019-10-11T14:19:59Z</time>
      </trkpt>
      <trkpt lat="44.24278" lon="6.06745">
        <ele>1142</ele>
        <time>2019-10-11T14:20:03Z</time>
      </trkpt>
      <trkpt lat="44.24259" lon="6.06823">
        <ele>1141.1999511719</ele>
        <time>2019-10-11T14:20:15Z</time>
      </trkpt>
      <trkpt lat="44.24233" lon="6.06856">
        <ele>1141</ele>
        <time>2019-10-11T14:20:22Z</time>
      </trkpt>
      <trkpt lat="44.24212" lon="6.06891">
        <ele>1141</ele>
        <time>2019-10-11T14:20:57Z</time>
      </trkpt>
      <trkpt lat="44.24209" lon="6.06899">
        <ele>1140.8000488281</ele>
        <time>2019-10-11T14:20:59Z</time>
      </trkpt>
      <trkpt lat="44.24207" lon="6.06903">
        <ele>1140.8000488281</ele>
        <time>2019-10-11T14:21:02Z</time>
      </trkpt>
      <trkpt lat="44.24197" lon="6.0695">
        <ele>1141</ele>
        <time>2019-10-11T14:21:10Z</time>
      </trkpt>
      <trkpt lat="44.2418" lon="6.07025">
        <ele>1141.1999511719</ele>
        <time>2019-10-11T14:21:22Z</time>
      </trkpt>
      <trkpt lat="44.24174" lon="6.0706">
        <ele>1141.4000244141</ele>
        <time>2019-10-11T14:21:28Z</time>
      </trkpt>
      <trkpt lat="44.24169" lon="6.07094">
        <ele>1141.8000488281</ele>
        <time>2019-10-11T14:21:34Z</time>
      </trkpt>
      <trkpt lat="44.24189" lon="6.07189">
        <ele>1143.1999511719</ele>
        <time>2019-10-11T14:21:52Z</time>
      </trkpt>
      <trkpt lat="44.24204" lon="6.07231">
        <ele>1144.4000244141</ele>
        <time>2019-10-11T14:22:02Z</time>
      </trkpt>
      <trkpt lat="44.24213" lon="6.07303">
        <ele>1146.8000488281</ele>
        <time>2019-10-11T14:22:21Z</time>
      </trkpt>
      <trkpt lat="44.24211" lon="6.07334">
        <ele>1147.8000488281</ele>
        <time>2019-10-11T14:22:30Z</time>
      </trkpt>
      <trkpt lat="44.24208" lon="6.07391">
        <ele>1150</ele>
        <time>2019-10-11T14:22:47Z</time>
      </trkpt>
      <trkpt lat="44.24207" lon="6.07413">
        <ele>1150.8000488281</ele>
        <time>2019-10-11T14:22:54Z</time>
      </trkpt>
      <trkpt lat="44.24205" lon="6.07441">
        <ele>1152.5999755859</ele>
        <time>2019-10-11T14:23:05Z</time>
      </trkpt>
      <trkpt lat="44.24203" lon="6.07473">
        <ele>1155</ele>
        <time>2019-10-11T14:23:17Z</time>
      </trkpt>
      <trkpt lat="44.24204" lon="6.07498">
        <ele>1156.4000244141</ele>
        <time>2019-10-11T14:23:26Z</time>
      </trkpt>
      <trkpt lat="44.24204" lon="6.07526">
        <ele>1157.5999755859</ele>
        <time>2019-10-11T14:23:36Z</time>
      </trkpt>
      <trkpt lat="44.24205" lon="6.07556">
        <ele>1159.5999755859</ele>
        <time>2019-10-11T14:23:46Z</time>
      </trkpt>
      <trkpt lat="44.24199" lon="6.07602">
        <ele>1161.8000488281</ele>
        <time>2019-10-11T14:24:01Z</time>
      </trkpt>
      <trkpt lat="44.24195" lon="6.07631">
        <ele>1163.1999511719</ele>
        <time>2019-10-11T14:24:11Z</time>
      </trkpt>
      <trkpt lat="44.24191" lon="6.0767">
        <ele>1165.4000244141</ele>
        <time>2019-10-11T14:24:25Z</time>
      </trkpt>
      <trkpt lat="44.24188" lon="6.07698">
        <ele>1166.5999755859</ele>
        <time>2019-10-11T14:24:35Z</time>
      </trkpt>
      <trkpt lat="44.24187" lon="6.0774">
        <ele>1169</ele>
        <time>2019-10-11T14:24:50Z</time>
      </trkpt>
      <trkpt lat="44.24185" lon="6.07774">
        <ele>1170.5999755859</ele>
        <time>2019-10-11T14:25:02Z</time>
      </trkpt>
      <trkpt lat="44.2418" lon="6.07813">
        <ele>1172.5999755859</ele>
        <time>2019-10-11T14:25:15Z</time>
      </trkpt>
      <trkpt lat="44.24174" lon="6.07846">
        <ele>1174.4000244141</ele>
        <time>2019-10-11T14:25:27Z</time>
      </trkpt>
      <trkpt lat="44.24161" lon="6.07876">
        <ele>1176.5999755859</ele>
        <time>2019-10-11T14:25:39Z</time>
      </trkpt>
      <trkpt lat="44.24155" lon="6.07904">
        <ele>1177.8000488281</ele>
        <time>2019-10-11T14:25:48Z</time>
      </trkpt>
      <trkpt lat="44.24161" lon="6.07921">
        <ele>1178.5999755859</ele>
        <time>2019-10-11T14:25:55Z</time>
      </trkpt>
      <trkpt lat="44.24194" lon="6.07942">
        <ele>1181.1999511719</ele>
        <time>2019-10-11T14:26:13Z</time>
      </trkpt>
      <trkpt lat="44.24203" lon="6.07947">
        <ele>1182.4000244141</ele>
        <time>2019-10-11T14:26:20Z</time>
      </trkpt>
      <trkpt lat="44.24218" lon="6.07958">
        <ele>1184.1999511719</ele>
        <time>2019-10-11T14:26:29Z</time>
      </trkpt>
      <trkpt lat="44.24229" lon="6.07973">
        <ele>1185.1999511719</ele>
        <time>2019-10-11T14:26:36Z</time>
      </trkpt>
      <trkpt lat="44.24239" lon="6.08014">
        <ele>1187.4000244141</ele>
        <time>2019-10-11T14:26:48Z</time>
      </trkpt>
      <trkpt lat="44.24232" lon="6.08028">
        <ele>1188</ele>
        <time>2019-10-11T14:26:53Z</time>
      </trkpt>
      <trkpt lat="44.2421" lon="6.08055">
        <ele>1190.8000488281</ele>
        <time>2019-10-11T14:27:06Z</time>
      </trkpt>
      <trkpt lat="44.24194" lon="6.08073">
        <ele>1192.4000244141</ele>
        <time>2019-10-11T14:27:14Z</time>
      </trkpt>
      <trkpt lat="44.24175" lon="6.08143">
        <ele>1194.8000488281</ele>
        <time>2019-10-11T14:27:34Z</time>
      </trkpt>
      <trkpt lat="44.24178" lon="6.08167">
        <ele>1196</ele>
        <time>2019-10-11T14:27:42Z</time>
      </trkpt>
      <trkpt lat="44.2419" lon="6.0817">
        <ele>1196.8000488281</ele>
        <time>2019-10-11T14:27:50Z</time>
      </trkpt>
      <trkpt lat="44.24194" lon="6.08168">
        <ele>1196.5999755859</ele>
        <time>2019-10-11T14:28:17Z</time>
      </trkpt>
      <trkpt lat="44.24202" lon="6.08162">
        <ele>1196.8000488281</ele>
        <time>2019-10-11T14:28:22Z</time>
      </trkpt>
      <trkpt lat="44.24225" lon="6.08147">
        <ele>1196.5999755859</ele>
        <time>2019-10-11T14:28:29Z</time>
      </trkpt>
      <trkpt lat="44.24235" lon="6.08151">
        <ele>1197</ele>
        <time>2019-10-11T14:28:34Z</time>
      </trkpt>
      <trkpt lat="44.24259" lon="6.08225">
        <ele>1198.1999511719</ele>
        <time>2019-10-11T14:28:49Z</time>
      </trkpt>
      <trkpt lat="44.24281" lon="6.08274">
        <ele>1199</ele>
        <time>2019-10-11T14:29:01Z</time>
      </trkpt>
      <trkpt lat="44.24305" lon="6.08283">
        <ele>1199</ele>
        <time>2019-10-11T14:29:09Z</time>
      </trkpt>
      <trkpt lat="44.24318" lon="6.08293">
        <ele>1199</ele>
        <time>2019-10-11T14:29:12Z</time>
      </trkpt>
      <trkpt lat="44.24352" lon="6.08348">
        <ele>1196.4000244141</ele>
        <time>2019-10-11T14:29:22Z</time>
      </trkpt>
      <trkpt lat="44.24379" lon="6.08363">
        <ele>1195.4000244141</ele>
        <time>2019-10-11T14:29:28Z</time>
      </trkpt>
      <trkpt lat="44.24394" lon="6.08375">
        <ele>1195.4000244141</ele>
        <time>2019-10-11T14:29:31Z</time>
      </trkpt>
      <trkpt lat="44.24407" lon="6.08414">
        <ele>1195</ele>
        <time>2019-10-11T14:29:36Z</time>
      </trkpt>
      <trkpt lat="44.24422" lon="6.08461">
        <ele>1193.8000488281</ele>
        <time>2019-10-11T14:29:42Z</time>
      </trkpt>
      <trkpt lat="44.24421" lon="6.08493">
        <ele>1193.4000244141</ele>
        <time>2019-10-11T14:29:45Z</time>
      </trkpt>
      <trkpt lat="44.24408" lon="6.08555">
        <ele>1192.4000244141</ele>
        <time>2019-10-11T14:29:53Z</time>
      </trkpt>
      <trkpt lat="44.24408" lon="6.08573">
        <ele>1192.1999511719</ele>
        <time>2019-10-11T14:29:56Z</time>
      </trkpt>
      <trkpt lat="44.24409" lon="6.08592">
        <ele>1192.5999755859</ele>
        <time>2019-10-11T14:29:59Z</time>
      </trkpt>
      <trkpt lat="44.24426" lon="6.08637">
        <ele>1193.4000244141</ele>
        <time>2019-10-11T14:30:07Z</time>
      </trkpt>
      <trkpt lat="44.24434" lon="6.08667">
        <ele>1194.1999511719</ele>
        <time>2019-10-11T14:30:14Z</time>
      </trkpt>
      <trkpt lat="44.24443" lon="6.0872">
        <ele>1196.4000244141</ele>
        <time>2019-10-11T14:30:29Z</time>
      </trkpt>
      <trkpt lat="44.24453" lon="6.08744">
        <ele>1197.5999755859</ele>
        <time>2019-10-11T14:30:39Z</time>
      </trkpt>
      <trkpt lat="44.24465" lon="6.08769">
        <ele>1200.1999511719</ele>
        <time>2019-10-11T14:30:51Z</time>
      </trkpt>
      <trkpt lat="44.24467" lon="6.08778">
        <ele>1201.1999511719</ele>
        <time>2019-10-11T14:30:55Z</time>
      </trkpt>
      <trkpt lat="44.24458" lon="6.0883">
        <ele>1203.4000244141</ele>
        <time>2019-10-11T14:31:12Z</time>
      </trkpt>
      <trkpt lat="44.24448" lon="6.08846">
        <ele>1204</ele>
        <time>2019-10-11T14:31:18Z</time>
      </trkpt>
      <trkpt lat="44.24438" lon="6.08865">
        <ele>1204.8000488281</ele>
        <time>2019-10-11T14:31:24Z</time>
      </trkpt>
      <trkpt lat="44.2443" lon="6.08898">
        <ele>1205.8000488281</ele>
        <time>2019-10-11T14:31:33Z</time>
      </trkpt>
      <trkpt lat="44.24424" lon="6.08943">
        <ele>1208</ele>
        <time>2019-10-11T14:31:46Z</time>
      </trkpt>
      <trkpt lat="44.24423" lon="6.08972">
        <ele>1209</ele>
        <time>2019-10-11T14:31:56Z</time>
      </trkpt>
      <trkpt lat="44.24422" lon="6.08987">
        <ele>1210.4000244141</ele>
        <time>2019-10-11T14:32:02Z</time>
      </trkpt>
      <trkpt lat="44.24418" lon="6.09008">
        <ele>1211.8000488281</ele>
        <time>2019-10-11T14:32:11Z</time>
      </trkpt>
      <trkpt lat="44.2441" lon="6.09028">
        <ele>1213.1999511719</ele>
        <time>2019-10-11T14:32:20Z</time>
      </trkpt>
      <trkpt lat="44.24398" lon="6.09071">
        <ele>1215.8000488281</ele>
        <time>2019-10-11T14:32:36Z</time>
      </trkpt>
      <trkpt lat="44.24406" lon="6.09092">
        <ele>1216.1999511719</ele>
        <time>2019-10-11T14:32:45Z</time>
      </trkpt>
      <trkpt lat="44.2441" lon="6.091">
        <ele>1216.5999755859</ele>
        <time>2019-10-11T14:33:19Z</time>
      </trkpt>
      <trkpt lat="44.24436" lon="6.09138">
        <ele>1217.1999511719</ele>
        <time>2019-10-11T14:33:32Z</time>
      </trkpt>
      <trkpt lat="44.24482" lon="6.09213">
        <ele>1218.5999755859</ele>
        <time>2019-10-11T14:33:53Z</time>
      </trkpt>
      <trkpt lat="44.24488" lon="6.09225">
        <ele>1219</ele>
        <time>2019-10-11T14:33:56Z</time>
      </trkpt>
      <trkpt lat="44.24514" lon="6.0927">
        <ele>1219.8000488281</ele>
        <time>2019-10-11T14:34:08Z</time>
      </trkpt>
      <trkpt lat="44.24539" lon="6.09308">
        <ele>1220.5999755859</ele>
        <time>2019-10-11T14:34:19Z</time>
      </trkpt>
      <trkpt lat="44.24571" lon="6.09356">
        <ele>1222.1999511719</ele>
        <time>2019-10-11T14:34:33Z</time>
      </trkpt>
      <trkpt lat="44.24587" lon="6.09379">
        <ele>1223.8000488281</ele>
        <time>2019-10-11T14:34:41Z</time>
      </trkpt>
      <trkpt lat="44.24588" lon="6.09381">
        <ele>1224.1999511719</ele>
        <time>2019-10-11T14:35:18Z</time>
      </trkpt>
      <trkpt lat="44.24598" lon="6.09396">
        <ele>1224.4000244141</ele>
        <time>2019-10-11T14:35:25Z</time>
      </trkpt>
      <trkpt lat="44.2462" lon="6.09425">
        <ele>1225</ele>
        <time>2019-10-11T14:35:33Z</time>
      </trkpt>
      <trkpt lat="44.24671" lon="6.09493">
        <ele>1225.5999755859</ele>
        <time>2019-10-11T14:35:52Z</time>
      </trkpt>
      <trkpt lat="44.24682" lon="6.09512">
        <ele>1225.4000244141</ele>
        <time>2019-10-11T14:35:56Z</time>
      </trkpt>
      <trkpt lat="44.24686" lon="6.09531">
        <ele>1225.4000244141</ele>
        <time>2019-10-11T14:35:59Z</time>
      </trkpt>
      <trkpt lat="44.24682" lon="6.09551">
        <ele>1224.8000488281</ele>
        <time>2019-10-11T14:36:02Z</time>
      </trkpt>
      <trkpt lat="44.24666" lon="6.09603">
        <ele>1224</ele>
        <time>2019-10-11T14:36:09Z</time>
      </trkpt>
      <trkpt lat="44.24662" lon="6.09635">
        <ele>1223.4000244141</ele>
        <time>2019-10-11T14:36:13Z</time>
      </trkpt>
      <trkpt lat="44.24673" lon="6.09688">
        <ele>1221.8000488281</ele>
        <time>2019-10-11T14:36:19Z</time>
      </trkpt>
      <trkpt lat="44.24678" lon="6.09737">
        <ele>1220.4000244141</ele>
        <time>2019-10-11T14:36:24Z</time>
      </trkpt>
      <trkpt lat="44.24682" lon="6.09781">
        <ele>1219.5999755859</ele>
        <time>2019-10-11T14:36:28Z</time>
      </trkpt>
      <trkpt lat="44.24685" lon="6.09827">
        <ele>1218.5999755859</ele>
        <time>2019-10-11T14:36:32Z</time>
      </trkpt>
      <trkpt lat="44.24693" lon="6.0989">
        <ele>1216</ele>
        <time>2019-10-11T14:36:38Z</time>
      </trkpt>
      <trkpt lat="44.24704" lon="6.09922">
        <ele>1214.8000488281</ele>
        <time>2019-10-11T14:36:41Z</time>
      </trkpt>
      <trkpt lat="44.24711" lon="6.09944">
        <ele>1213.8000488281</ele>
        <time>2019-10-11T14:36:43Z</time>
      </trkpt>
      <trkpt lat="44.24695" lon="6.0999">
        <ele>1212.1999511719</ele>
        <time>2019-10-11T14:36:48Z</time>
      </trkpt>
      <trkpt lat="44.24671" lon="6.10041">
        <ele>1210.4000244141</ele>
        <time>2019-10-11T14:36:54Z</time>
      </trkpt>
      <trkpt lat="44.24659" lon="6.10123">
        <ele>1210.1999511719</ele>
        <time>2019-10-11T14:37:06Z</time>
      </trkpt>
      <trkpt lat="44.24651" lon="6.10185">
        <ele>1210.4000244141</ele>
        <time>2019-10-11T14:37:15Z</time>
      </trkpt>
      <trkpt lat="44.24643" lon="6.10276">
        <ele>1209</ele>
        <time>2019-10-11T14:37:25Z</time>
      </trkpt>
      <trkpt lat="44.2464" lon="6.10332">
        <ele>1208</ele>
        <time>2019-10-11T14:37:30Z</time>
      </trkpt>
      <trkpt lat="44.24636" lon="6.10408">
        <ele>1205.5999755859</ele>
        <time>2019-10-11T14:37:36Z</time>
      </trkpt>
      <trkpt lat="44.24633" lon="6.10436">
        <ele>1204.5999755859</ele>
        <time>2019-10-11T14:37:38Z</time>
      </trkpt>
      <trkpt lat="44.24616" lon="6.1054">
        <ele>1200.8000488281</ele>
        <time>2019-10-11T14:37:45Z</time>
      </trkpt>
      <trkpt lat="44.24602" lon="6.10598">
        <ele>1198</ele>
        <time>2019-10-11T14:37:49Z</time>
      </trkpt>
      <trkpt lat="44.24579" lon="6.10698">
        <ele>1193.5999755859</ele>
        <time>2019-10-11T14:37:56Z</time>
      </trkpt>
      <trkpt lat="44.24578" lon="6.10718">
        <ele>1192</ele>
        <time>2019-10-11T14:37:58Z</time>
      </trkpt>
      <trkpt lat="44.24592" lon="6.10769">
        <ele>1190.4000244141</ele>
        <time>2019-10-11T14:38:03Z</time>
      </trkpt>
      <trkpt lat="44.2459" lon="6.10808">
        <ele>1190</ele>
        <time>2019-10-11T14:38:08Z</time>
      </trkpt>
      <trkpt lat="44.24589" lon="6.10825">
        <ele>1190</ele>
        <time>2019-10-11T14:38:11Z</time>
      </trkpt>
      <trkpt lat="44.2459" lon="6.10854">
        <ele>1190.8000488281</ele>
        <time>2019-10-11T14:38:17Z</time>
      </trkpt>
      <trkpt lat="44.24591" lon="6.10882">
        <ele>1192.8000488281</ele>
        <time>2019-10-11T14:38:23Z</time>
      </trkpt>
      <trkpt lat="44.24584" lon="6.10909">
        <ele>1193</ele>
        <time>2019-10-11T14:38:28Z</time>
      </trkpt>
      <trkpt lat="44.24573" lon="6.10947">
        <ele>1193.1999511719</ele>
        <time>2019-10-11T14:38:33Z</time>
      </trkpt>
      <trkpt lat="44.24569" lon="6.10964">
        <ele>1189</ele>
        <time>2019-10-11T14:39:21Z</time>
      </trkpt>
      <trkpt lat="44.24566" lon="6.10979">
        <ele>1188.8000488281</ele>
        <time>2019-10-11T14:39:24Z</time>
      </trkpt>
      <trkpt lat="44.24562" lon="6.11029">
        <ele>1188.4000244141</ele>
        <time>2019-10-11T14:39:30Z</time>
      </trkpt>
      <trkpt lat="44.24545" lon="6.11083">
        <ele>1187</ele>
        <time>2019-10-11T14:39:35Z</time>
      </trkpt>
      <trkpt lat="44.24527" lon="6.11131">
        <ele>1185.1999511719</ele>
        <time>2019-10-11T14:39:39Z</time>
      </trkpt>
      <trkpt lat="44.24513" lon="6.11173">
        <ele>1183.5999755859</ele>
        <time>2019-10-11T14:39:42Z</time>
      </trkpt>
      <trkpt lat="44.24498" lon="6.11207">
        <ele>1181.5999755859</ele>
        <time>2019-10-11T14:39:45Z</time>
      </trkpt>
      <trkpt lat="44.24447" lon="6.11273">
        <ele>1177.1999511719</ele>
        <time>2019-10-11T14:39:52Z</time>
      </trkpt>
      <trkpt lat="44.24431" lon="6.11291">
        <ele>1176</ele>
        <time>2019-10-11T14:39:54Z</time>
      </trkpt>
      <trkpt lat="44.24399" lon="6.11328">
        <ele>1173.8000488281</ele>
        <time>2019-10-11T14:39:58Z</time>
      </trkpt>
      <trkpt lat="44.24392" lon="6.11346">
        <ele>1172.5999755859</ele>
        <time>2019-10-11T14:40:00Z</time>
      </trkpt>
      <trkpt lat="44.24392" lon="6.11377">
        <ele>1169.5999755859</ele>
        <time>2019-10-11T14:40:03Z</time>
      </trkpt>
      <trkpt lat="44.24394" lon="6.1141">
        <ele>1166.4000244141</ele>
        <time>2019-10-11T14:40:06Z</time>
      </trkpt>
      <trkpt lat="44.2439" lon="6.11443">
        <ele>1164.1999511719</ele>
        <time>2019-10-11T14:40:09Z</time>
      </trkpt>
      <trkpt lat="44.24383" lon="6.1146">
        <ele>1163.4000244141</ele>
        <time>2019-10-11T14:40:11Z</time>
      </trkpt>
      <trkpt lat="44.24344" lon="6.11513">
        <ele>1159.8000488281</ele>
        <time>2019-10-11T14:40:17Z</time>
      </trkpt>
      <trkpt lat="44.24332" lon="6.11531">
        <ele>1158.4000244141</ele>
        <time>2019-10-11T14:40:19Z</time>
      </trkpt>
      <trkpt lat="44.24306" lon="6.11558">
        <ele>1153.8000488281</ele>
        <time>2019-10-11T14:40:25Z</time>
      </trkpt>
      <trkpt lat="44.24302" lon="6.1156">
        <ele>1149</ele>
        <time>2019-10-11T14:40:54Z</time>
      </trkpt>
      <trkpt lat="44.24294" lon="6.11563">
        <ele>1148.8000488281</ele>
        <time>2019-10-11T14:40:59Z</time>
      </trkpt>
      <trkpt lat="44.24288" lon="6.11566">
        <ele>1148.8000488281</ele>
        <time>2019-10-11T14:41:01Z</time>
      </trkpt>
      <trkpt lat="44.24295" lon="6.11587">
        <ele>1148.4000244141</ele>
        <time>2019-10-11T14:41:05Z</time>
      </trkpt>
      <trkpt lat="44.24315" lon="6.1157">
        <ele>1148.4000244141</ele>
        <time>2019-10-11T14:41:08Z</time>
      </trkpt>
      <trkpt lat="44.24334" lon="6.11555">
        <ele>1147.4000244141</ele>
        <time>2019-10-11T14:41:11Z</time>
      </trkpt>
      <trkpt lat="44.24381" lon="6.11545">
        <ele>1145.4000244141</ele>
        <time>2019-10-11T14:41:17Z</time>
      </trkpt>
      <trkpt lat="44.24414" lon="6.11543">
        <ele>1143.5999755859</ele>
        <time>2019-10-11T14:41:21Z</time>
      </trkpt>
      <trkpt lat="44.24419" lon="6.11561">
        <ele>1141.8000488281</ele>
        <time>2019-10-11T14:41:26Z</time>
      </trkpt>
      <trkpt lat="44.24408" lon="6.11568">
        <ele>1140.4000244141</ele>
        <time>2019-10-11T14:41:28Z</time>
      </trkpt>
      <trkpt lat="44.2437" lon="6.11583">
        <ele>1137.5999755859</ele>
        <time>2019-10-11T14:41:33Z</time>
      </trkpt>
      <trkpt lat="44.24349" lon="6.11607">
        <ele>1136</ele>
        <time>2019-10-11T14:41:36Z</time>
      </trkpt>
      <trkpt lat="44.2432" lon="6.11641">
        <ele>1134.4000244141</ele>
        <time>2019-10-11T14:41:40Z</time>
      </trkpt>
      <trkpt lat="44.24282" lon="6.11687">
        <ele>1132.1999511719</ele>
        <time>2019-10-11T14:41:45Z</time>
      </trkpt>
      <trkpt lat="44.24249" lon="6.11739">
        <ele>1129</ele>
        <time>2019-10-11T14:41:50Z</time>
      </trkpt>
      <trkpt lat="44.24227" lon="6.11784">
        <ele>1127.4000244141</ele>
        <time>2019-10-11T14:41:54Z</time>
      </trkpt>
      <trkpt lat="44.24213" lon="6.11797">
        <ele>1126</ele>
        <time>2019-10-11T14:41:56Z</time>
      </trkpt>
      <trkpt lat="44.24178" lon="6.11817">
        <ele>1123</ele>
        <time>2019-10-11T14:42:00Z</time>
      </trkpt>
      <trkpt lat="44.24152" lon="6.11835">
        <ele>1121.1999511719</ele>
        <time>2019-10-11T14:42:03Z</time>
      </trkpt>
      <trkpt lat="44.24128" lon="6.11859">
        <ele>1119.5999755859</ele>
        <time>2019-10-11T14:42:06Z</time>
      </trkpt>
      <trkpt lat="44.24107" lon="6.11887">
        <ele>1117.5999755859</ele>
        <time>2019-10-11T14:42:09Z</time>
      </trkpt>
      <trkpt lat="44.2406" lon="6.1198">
        <ele>1113.4000244141</ele>
        <time>2019-10-11T14:42:19Z</time>
      </trkpt>
      <trkpt lat="44.2403" lon="6.12031">
        <ele>1112.5999755859</ele>
        <time>2019-10-11T14:42:25Z</time>
      </trkpt>
      <trkpt lat="44.23982" lon="6.12112">
        <ele>1110.5999755859</ele>
        <time>2019-10-11T14:42:35Z</time>
      </trkpt>
      <trkpt lat="44.23961" lon="6.12146">
        <ele>1110</ele>
        <time>2019-10-11T14:42:41Z</time>
      </trkpt>
      <trkpt lat="44.23936" lon="6.12181">
        <ele>1110</ele>
        <time>2019-10-11T14:42:49Z</time>
      </trkpt>
      <trkpt lat="44.23914" lon="6.12207">
        <ele>1110.1999511719</ele>
        <time>2019-10-11T14:42:55Z</time>
      </trkpt>
      <trkpt lat="44.23901" lon="6.1222">
        <ele>1110.4000244141</ele>
        <time>2019-10-11T14:42:59Z</time>
      </trkpt>
      <trkpt lat="44.23885" lon="6.12236">
        <ele>1111</ele>
        <time>2019-10-11T14:43:05Z</time>
      </trkpt>
      <trkpt lat="44.23867" lon="6.12254">
        <ele>1111.8000488281</ele>
        <time>2019-10-11T14:43:13Z</time>
      </trkpt>
      <trkpt lat="44.23848" lon="6.12276">
        <ele>1113</ele>
        <time>2019-10-11T14:43:22Z</time>
      </trkpt>
      <trkpt lat="44.23837" lon="6.12305">
        <ele>1114.8000488281</ele>
        <time>2019-10-11T14:43:34Z</time>
      </trkpt>
      <trkpt lat="44.2384" lon="6.12343">
        <ele>1116.1999511719</ele>
        <time>2019-10-11T14:43:45Z</time>
      </trkpt>
      <trkpt lat="44.23842" lon="6.12359">
        <ele>1117</ele>
        <time>2019-10-11T14:43:50Z</time>
      </trkpt>
      <trkpt lat="44.23849" lon="6.12402">
        <ele>1120.1999511719</ele>
        <time>2019-10-11T14:44:06Z</time>
      </trkpt>
      <trkpt lat="44.23852" lon="6.12422">
        <ele>1121</ele>
        <time>2019-10-11T14:44:13Z</time>
      </trkpt>
      <trkpt lat="44.23853" lon="6.12458">
        <ele>1122.5999755859</ele>
        <time>2019-10-11T14:44:25Z</time>
      </trkpt>
      <trkpt lat="44.23853" lon="6.12487">
        <ele>1124</ele>
        <time>2019-10-11T14:44:35Z</time>
      </trkpt>
      <trkpt lat="44.23851" lon="6.12551">
        <ele>1126.4000244141</ele>
        <time>2019-10-11T14:44:55Z</time>
      </trkpt>
      <trkpt lat="44.23846" lon="6.12583">
        <ele>1128</ele>
        <time>2019-10-11T14:45:05Z</time>
      </trkpt>
      <trkpt lat="44.23834" lon="6.12638">
        <ele>1128.8000488281</ele>
        <time>2019-10-11T14:45:18Z</time>
      </trkpt>
      <trkpt lat="44.23831" lon="6.12651">
        <ele>1128.8000488281</ele>
        <time>2019-10-11T14:45:21Z</time>
      </trkpt>
      <trkpt lat="44.23827" lon="6.12669">
        <ele>1129.1999511719</ele>
        <time>2019-10-11T14:45:26Z</time>
      </trkpt>
      <trkpt lat="44.23827" lon="6.12703">
        <ele>1129.1999511719</ele>
        <time>2019-10-11T14:45:32Z</time>
      </trkpt>
      <trkpt lat="44.2383" lon="6.12722">
        <ele>1128.5999755859</ele>
        <time>2019-10-11T14:45:37Z</time>
      </trkpt>
      <trkpt lat="44.23823" lon="6.12797">
        <ele>1126.5999755859</ele>
        <time>2019-10-11T14:45:51Z</time>
      </trkpt>
      <trkpt lat="44.23817" lon="6.12849">
        <ele>1126</ele>
        <time>2019-10-11T14:45:58Z</time>
      </trkpt>
      <trkpt lat="44.23791" lon="6.12884">
        <ele>1125.4000244141</ele>
        <time>2019-10-11T14:46:06Z</time>
      </trkpt>
      <trkpt lat="44.23771" lon="6.12884">
        <ele>1125</ele>
        <time>2019-10-11T14:46:10Z</time>
      </trkpt>
      <trkpt lat="44.23733" lon="6.12868">
        <ele>1124.4000244141</ele>
        <time>2019-10-11T14:46:17Z</time>
      </trkpt>
      <trkpt lat="44.23702" lon="6.12859">
        <ele>1124.1999511719</ele>
        <time>2019-10-11T14:46:24Z</time>
      </trkpt>
      <trkpt lat="44.2367" lon="6.12866">
        <ele>1124.4000244141</ele>
        <time>2019-10-11T14:46:32Z</time>
      </trkpt>
      <trkpt lat="44.23653" lon="6.12875">
        <ele>1124.8000488281</ele>
        <time>2019-10-11T14:46:38Z</time>
      </trkpt>
      <trkpt lat="44.23612" lon="6.12912">
        <ele>1126</ele>
        <time>2019-10-11T14:46:53Z</time>
      </trkpt>
      <trkpt lat="44.23595" lon="6.12924">
        <ele>1126.5999755859</ele>
        <time>2019-10-11T14:46:58Z</time>
      </trkpt>
      <trkpt lat="44.23557" lon="6.1295">
        <ele>1128</ele>
        <time>2019-10-11T14:47:11Z</time>
      </trkpt>
      <trkpt lat="44.23529" lon="6.12976">
        <ele>1129</ele>
        <time>2019-10-11T14:47:22Z</time>
      </trkpt>
      <trkpt lat="44.23516" lon="6.12988">
        <ele>1129.4000244141</ele>
        <time>2019-10-11T14:47:27Z</time>
      </trkpt>
      <trkpt lat="44.23512" lon="6.12991">
        <ele>1129.1999511719</ele>
        <time>2019-10-11T14:48:08Z</time>
      </trkpt>
      <trkpt lat="44.23507" lon="6.12994">
        <ele>1129.1999511719</ele>
        <time>2019-10-11T14:48:10Z</time>
      </trkpt>
      <trkpt lat="44.2348" lon="6.13005">
        <ele>1129.4000244141</ele>
        <time>2019-10-11T14:48:19Z</time>
      </trkpt>
      <trkpt lat="44.23461" lon="6.13011">
        <ele>1130.1999511719</ele>
        <time>2019-10-11T14:48:25Z</time>
      </trkpt>
      <trkpt lat="44.23445" lon="6.13017">
        <ele>1131.1999511719</ele>
        <time>2019-10-11T14:48:30Z</time>
      </trkpt>
      <trkpt lat="44.23436" lon="6.1302">
        <ele>1131.8000488281</ele>
        <time>2019-10-11T14:48:34Z</time>
      </trkpt>
      <trkpt lat="44.23402" lon="6.13026">
        <ele>1132.8000488281</ele>
        <time>2019-10-11T14:48:45Z</time>
      </trkpt>
      <trkpt lat="44.2338" lon="6.13026">
        <ele>1133.1999511719</ele>
        <time>2019-10-11T14:48:53Z</time>
      </trkpt>
      <trkpt lat="44.23334" lon="6.13031">
        <ele>1134.1999511719</ele>
        <time>2019-10-11T14:49:07Z</time>
      </trkpt>
      <trkpt lat="44.23296" lon="6.13031">
        <ele>1136.1999511719</ele>
        <time>2019-10-11T14:49:19Z</time>
      </trkpt>
      <trkpt lat="44.23257" lon="6.13031">
        <ele>1136.5999755859</ele>
        <time>2019-10-11T14:49:30Z</time>
      </trkpt>
      <trkpt lat="44.23208" lon="6.13033">
        <ele>1137.1999511719</ele>
        <time>2019-10-11T14:49:43Z</time>
      </trkpt>
      <trkpt lat="44.23179" lon="6.13036">
        <ele>1138.4000244141</ele>
        <time>2019-10-11T14:49:53Z</time>
      </trkpt>
      <trkpt lat="44.23125" lon="6.13057">
        <ele>1141</ele>
        <time>2019-10-11T14:50:13Z</time>
      </trkpt>
      <trkpt lat="44.23095" lon="6.13073">
        <ele>1142.1999511719</ele>
        <time>2019-10-11T14:50:24Z</time>
      </trkpt>
      <trkpt lat="44.23074" lon="6.13084">
        <ele>1143.4000244141</ele>
        <time>2019-10-11T14:50:33Z</time>
      </trkpt>
      <trkpt lat="44.23046" lon="6.13098">
        <ele>1144.5999755859</ele>
        <time>2019-10-11T14:50:44Z</time>
      </trkpt>
      <trkpt lat="44.23007" lon="6.13132">
        <ele>1146.5999755859</ele>
        <time>2019-10-11T14:51:02Z</time>
      </trkpt>
      <trkpt lat="44.22979" lon="6.1316">
        <ele>1148</ele>
        <time>2019-10-11T14:51:14Z</time>
      </trkpt>
      <trkpt lat="44.22943" lon="6.13194">
        <ele>1149.8000488281</ele>
        <time>2019-10-11T14:51:31Z</time>
      </trkpt>
      <trkpt lat="44.22921" lon="6.1321">
        <ele>1151.1999511719</ele>
        <time>2019-10-11T14:51:41Z</time>
      </trkpt>
      <trkpt lat="44.22872" lon="6.13257">
        <ele>1153.4000244141</ele>
        <time>2019-10-11T14:52:03Z</time>
      </trkpt>
      <trkpt lat="44.22855" lon="6.13264">
        <ele>1154</ele>
        <time>2019-10-11T14:52:09Z</time>
      </trkpt>
      <trkpt lat="44.22821" lon="6.13286">
        <ele>1156.5999755859</ele>
        <time>2019-10-11T14:52:24Z</time>
      </trkpt>
      <trkpt lat="44.22808" lon="6.13305">
        <ele>1157.8000488281</ele>
        <time>2019-10-11T14:52:34Z</time>
      </trkpt>
      <trkpt lat="44.22798" lon="6.13328">
        <ele>1158.5999755859</ele>
        <time>2019-10-11T14:52:42Z</time>
      </trkpt>
      <trkpt lat="44.22782" lon="6.13358">
        <ele>1160</ele>
        <time>2019-10-11T14:52:53Z</time>
      </trkpt>
      <trkpt lat="44.22767" lon="6.13374">
        <ele>1161.4000244141</ele>
        <time>2019-10-11T14:53:01Z</time>
      </trkpt>
      <trkpt lat="44.22744" lon="6.13397">
        <ele>1162.8000488281</ele>
        <time>2019-10-11T14:53:12Z</time>
      </trkpt>
      <trkpt lat="44.22724" lon="6.13422">
        <ele>1164.4000244141</ele>
        <time>2019-10-11T14:53:24Z</time>
      </trkpt>
      <trkpt lat="44.22704" lon="6.1343">
        <ele>1165.5999755859</ele>
        <time>2019-10-11T14:53:33Z</time>
      </trkpt>
      <trkpt lat="44.22705" lon="6.13416">
        <ele>1167</ele>
        <time>2019-10-11T14:53:39Z</time>
      </trkpt>
      <trkpt lat="44.22719" lon="6.13396">
        <ele>1168.5999755859</ele>
        <time>2019-10-11T14:53:50Z</time>
      </trkpt>
      <trkpt lat="44.22732" lon="6.1338">
        <ele>1170.4000244141</ele>
        <time>2019-10-11T14:53:59Z</time>
      </trkpt>
      <trkpt lat="44.22741" lon="6.13353">
        <ele>1171.8000488281</ele>
        <time>2019-10-11T14:54:11Z</time>
      </trkpt>
      <trkpt lat="44.22744" lon="6.13335">
        <ele>1173.4000244141</ele>
        <time>2019-10-11T14:54:20Z</time>
      </trkpt>
      <trkpt lat="44.22751" lon="6.13307">
        <ele>1175.5999755859</ele>
        <time>2019-10-11T14:54:34Z</time>
      </trkpt>
      <trkpt lat="44.22754" lon="6.133">
        <ele>1176.1999511719</ele>
        <time>2019-10-11T14:54:37Z</time>
      </trkpt>
      <trkpt lat="44.22762" lon="6.13277">
        <ele>1178</ele>
        <time>2019-10-11T14:54:47Z</time>
      </trkpt>
      <trkpt lat="44.22763" lon="6.13254">
        <ele>1179.5999755859</ele>
        <time>2019-10-11T14:54:58Z</time>
      </trkpt>
      <trkpt lat="44.22755" lon="6.13253">
        <ele>1181.1999511719</ele>
        <time>2019-10-11T14:55:04Z</time>
      </trkpt>
      <trkpt lat="44.2274" lon="6.13276">
        <ele>1182.4000244141</ele>
        <time>2019-10-11T14:55:16Z</time>
      </trkpt>
      <trkpt lat="44.22735" lon="6.13287">
        <ele>1182.5999755859</ele>
        <time>2019-10-11T14:55:21Z</time>
      </trkpt>
      <trkpt lat="44.22725" lon="6.13304">
        <ele>1183.4000244141</ele>
        <time>2019-10-11T14:55:28Z</time>
      </trkpt>
      <trkpt lat="44.22719" lon="6.13313">
        <ele>1184.4000244141</ele>
        <time>2019-10-11T14:56:41Z</time>
      </trkpt>
      <trkpt lat="44.22705" lon="6.1333">
        <ele>1185</ele>
        <time>2019-10-11T14:56:50Z</time>
      </trkpt>
      <trkpt lat="44.22695" lon="6.13341">
        <ele>1186.4000244141</ele>
        <time>2019-10-11T14:56:58Z</time>
      </trkpt>
      <trkpt lat="44.22687" lon="6.13351">
        <ele>1187</ele>
        <time>2019-10-11T14:57:03Z</time>
      </trkpt>
      <trkpt lat="44.22677" lon="6.13364">
        <ele>1188.1999511719</ele>
        <time>2019-10-11T14:57:11Z</time>
      </trkpt>
      <trkpt lat="44.22658" lon="6.13389">
        <ele>1190.4000244141</ele>
        <time>2019-10-11T14:57:26Z</time>
      </trkpt>
      <trkpt lat="44.22644" lon="6.13409">
        <ele>1192.1999511719</ele>
        <time>2019-10-11T14:57:38Z</time>
      </trkpt>
      <trkpt lat="44.2263" lon="6.13421">
        <ele>1193.5999755859</ele>
        <time>2019-10-11T14:57:47Z</time>
      </trkpt>
      <trkpt lat="44.22608" lon="6.13427">
        <ele>1195.1999511719</ele>
        <time>2019-10-11T14:57:58Z</time>
      </trkpt>
      <trkpt lat="44.22598" lon="6.13424">
        <ele>1196.8000488281</ele>
        <time>2019-10-11T14:58:06Z</time>
      </trkpt>
      <trkpt lat="44.2258" lon="6.13414">
        <ele>1198.5999755859</ele>
        <time>2019-10-11T14:58:18Z</time>
      </trkpt>
      <trkpt lat="44.22572" lon="6.13411">
        <ele>1199.5999755859</ele>
        <time>2019-10-11T14:58:24Z</time>
      </trkpt>
      <trkpt lat="44.22556" lon="6.13422">
        <ele>1202.4000244141</ele>
        <time>2019-10-11T14:58:39Z</time>
      </trkpt>
      <trkpt lat="44.22557" lon="6.13441">
        <ele>1203.4000244141</ele>
        <time>2019-10-11T14:58:47Z</time>
      </trkpt>
      <trkpt lat="44.22555" lon="6.13471">
        <ele>1205.4000244141</ele>
        <time>2019-10-11T14:59:01Z</time>
      </trkpt>
      <trkpt lat="44.22549" lon="6.13484">
        <ele>1206.8000488281</ele>
        <time>2019-10-11T14:59:10Z</time>
      </trkpt>
      <trkpt lat="44.22538" lon="6.135">
        <ele>1208.8000488281</ele>
        <time>2019-10-11T14:59:21Z</time>
      </trkpt>
      <trkpt lat="44.22523" lon="6.13529">
        <ele>1210.8000488281</ele>
        <time>2019-10-11T14:59:36Z</time>
      </trkpt>
      <trkpt lat="44.22514" lon="6.13547">
        <ele>1212.4000244141</ele>
        <time>2019-10-11T14:59:46Z</time>
      </trkpt>
      <trkpt lat="44.22504" lon="6.13567">
        <ele>1214.1999511719</ele>
        <time>2019-10-11T14:59:59Z</time>
      </trkpt>
      <trkpt lat="44.22487" lon="6.13593">
        <ele>1216.5999755859</ele>
        <time>2019-10-11T15:00:14Z</time>
      </trkpt>
      <trkpt lat="44.22481" lon="6.13603">
        <ele>1217.8000488281</ele>
        <time>2019-10-11T15:00:20Z</time>
      </trkpt>
      <trkpt lat="44.22467" lon="6.13618">
        <ele>1219</ele>
        <time>2019-10-11T15:00:29Z</time>
      </trkpt>
      <trkpt lat="44.22447" lon="6.13632">
        <ele>1221.4000244141</ele>
        <time>2019-10-11T15:00:43Z</time>
      </trkpt>
      <trkpt lat="44.22436" lon="6.13634">
        <ele>1222.5999755859</ele>
        <time>2019-10-11T15:00:50Z</time>
      </trkpt>
      <trkpt lat="44.22412" lon="6.13627">
        <ele>1225</ele>
        <time>2019-10-11T15:01:04Z</time>
      </trkpt>
      <trkpt lat="44.22402" lon="6.13623">
        <ele>1226.4000244141</ele>
        <time>2019-10-11T15:01:12Z</time>
      </trkpt>
      <trkpt lat="44.22389" lon="6.13623">
        <ele>1227.4000244141</ele>
        <time>2019-10-11T15:01:19Z</time>
      </trkpt>
      <trkpt lat="44.22374" lon="6.13626">
        <ele>1228.5999755859</ele>
        <time>2019-10-11T15:01:27Z</time>
      </trkpt>
      <trkpt lat="44.22361" lon="6.13632">
        <ele>1230</ele>
        <time>2019-10-11T15:01:37Z</time>
      </trkpt>
      <trkpt lat="44.22351" lon="6.13638">
        <ele>1231.1999511719</ele>
        <time>2019-10-11T15:01:45Z</time>
      </trkpt>
      <trkpt lat="44.22327" lon="6.1366">
        <ele>1233.8000488281</ele>
        <time>2019-10-11T15:02:01Z</time>
      </trkpt>
      <trkpt lat="44.22314" lon="6.13672">
        <ele>1234.5999755859</ele>
        <time>2019-10-11T15:02:09Z</time>
      </trkpt>
      <trkpt lat="44.22303" lon="6.13676">
        <ele>1236</ele>
        <time>2019-10-11T15:02:16Z</time>
      </trkpt>
      <trkpt lat="44.22293" lon="6.13676">
        <ele>1236.8000488281</ele>
        <time>2019-10-11T15:02:21Z</time>
      </trkpt>
      <trkpt lat="44.22283" lon="6.13671">
        <ele>1238.4000244141</ele>
        <time>2019-10-11T15:02:28Z</time>
      </trkpt>
      <trkpt lat="44.2227" lon="6.13651">
        <ele>1240.4000244141</ele>
        <time>2019-10-11T15:02:42Z</time>
      </trkpt>
      <trkpt lat="44.22254" lon="6.13634">
        <ele>1242</ele>
        <time>2019-10-11T15:02:50Z</time>
      </trkpt>
      <trkpt lat="44.22244" lon="6.13647">
        <ele>1243</ele>
        <time>2019-10-11T15:02:57Z</time>
      </trkpt>
      <trkpt lat="44.22245" lon="6.1366">
        <ele>1243.4000244141</ele>
        <time>2019-10-11T15:03:03Z</time>
      </trkpt>
      <trkpt lat="44.2225" lon="6.13685">
        <ele>1245</ele>
        <time>2019-10-11T15:03:13Z</time>
      </trkpt>
      <trkpt lat="44.2225" lon="6.13705">
        <ele>1246.4000244141</ele>
        <time>2019-10-11T15:03:22Z</time>
      </trkpt>
      <trkpt lat="44.22242" lon="6.13731">
        <ele>1248.4000244141</ele>
        <time>2019-10-11T15:03:34Z</time>
      </trkpt>
      <trkpt lat="44.22232" lon="6.1374">
        <ele>1250</ele>
        <time>2019-10-11T15:03:41Z</time>
      </trkpt>
      <trkpt lat="44.22209" lon="6.13759">
        <ele>1252.5999755859</ele>
        <time>2019-10-11T15:03:55Z</time>
      </trkpt>
      <trkpt lat="44.22193" lon="6.13777">
        <ele>1254.4000244141</ele>
        <time>2019-10-11T15:04:06Z</time>
      </trkpt>
      <trkpt lat="44.2218" lon="6.13793">
        <ele>1256.1999511719</ele>
        <time>2019-10-11T15:04:16Z</time>
      </trkpt>
      <trkpt lat="44.22163" lon="6.1381">
        <ele>1258.4000244141</ele>
        <time>2019-10-11T15:04:28Z</time>
      </trkpt>
      <trkpt lat="44.22148" lon="6.13823">
        <ele>1259.8000488281</ele>
        <time>2019-10-11T15:04:37Z</time>
      </trkpt>
      <trkpt lat="44.22132" lon="6.13838">
        <ele>1261.1999511719</ele>
        <time>2019-10-11T15:04:47Z</time>
      </trkpt>
      <trkpt lat="44.22114" lon="6.13854">
        <ele>1262.8000488281</ele>
        <time>2019-10-11T15:04:58Z</time>
      </trkpt>
      <trkpt lat="44.221" lon="6.13869">
        <ele>1264.1999511719</ele>
        <time>2019-10-11T15:05:08Z</time>
      </trkpt>
      <trkpt lat="44.22088" lon="6.13882">
        <ele>1265.4000244141</ele>
        <time>2019-10-11T15:05:16Z</time>
      </trkpt>
      <trkpt lat="44.2207" lon="6.13902">
        <ele>1267.1999511719</ele>
        <time>2019-10-11T15:05:29Z</time>
      </trkpt>
      <trkpt lat="44.22055" lon="6.13925">
        <ele>1268.5999755859</ele>
        <time>2019-10-11T15:05:38Z</time>
      </trkpt>
      <trkpt lat="44.2204" lon="6.13953">
        <ele>1270</ele>
        <time>2019-10-11T15:05:49Z</time>
      </trkpt>
      <trkpt lat="44.22025" lon="6.1398">
        <ele>1271.4000244141</ele>
        <time>2019-10-11T15:05:59Z</time>
      </trkpt>
      <trkpt lat="44.22006" lon="6.14012">
        <ele>1273.1999511719</ele>
        <time>2019-10-11T15:06:13Z</time>
      </trkpt>
      <trkpt lat="44.21994" lon="6.14036">
        <ele>1274.1999511719</ele>
        <time>2019-10-11T15:06:22Z</time>
      </trkpt>
      <trkpt lat="44.21982" lon="6.14053">
        <ele>1276</ele>
        <time>2019-10-11T15:06:30Z</time>
      </trkpt>
      <trkpt lat="44.21974" lon="6.14054">
        <ele>1276.5999755859</ele>
        <time>2019-10-11T15:06:34Z</time>
      </trkpt>
      <trkpt lat="44.21958" lon="6.1403">
        <ele>1279</ele>
        <time>2019-10-11T15:06:44Z</time>
      </trkpt>
      <trkpt lat="44.21934" lon="6.13993">
        <ele>1280.1999511719</ele>
        <time>2019-10-11T15:06:58Z</time>
      </trkpt>
      <trkpt lat="44.21922" lon="6.13989">
        <ele>1280.4000244141</ele>
        <time>2019-10-11T15:07:02Z</time>
      </trkpt>
      <trkpt lat="44.21899" lon="6.14004">
        <ele>1280.5999755859</ele>
        <time>2019-10-11T15:07:12Z</time>
      </trkpt>
      <trkpt lat="44.21894" lon="6.14013">
        <ele>1280.8000488281</ele>
        <time>2019-10-11T15:07:16Z</time>
      </trkpt>
      <trkpt lat="44.21882" lon="6.14045">
        <ele>1281.1999511719</ele>
        <time>2019-10-11T15:07:26Z</time>
      </trkpt>
      <trkpt lat="44.21877" lon="6.14059">
        <ele>1281.8000488281</ele>
        <time>2019-10-11T15:07:30Z</time>
      </trkpt>
      <trkpt lat="44.21866" lon="6.14089">
        <ele>1283.5999755859</ele>
        <time>2019-10-11T15:07:43Z</time>
      </trkpt>
      <trkpt lat="44.21858" lon="6.1411">
        <ele>1284.5999755859</ele>
        <time>2019-10-11T15:07:50Z</time>
      </trkpt>
      <trkpt lat="44.21848" lon="6.14136">
        <ele>1285.4000244141</ele>
        <time>2019-10-11T15:07:58Z</time>
      </trkpt>
      <trkpt lat="44.2183" lon="6.14183">
        <ele>1286.5999755859</ele>
        <time>2019-10-11T15:08:10Z</time>
      </trkpt>
      <trkpt lat="44.21805" lon="6.14212">
        <ele>1287.1999511719</ele>
        <time>2019-10-11T15:08:17Z</time>
      </trkpt>
      <trkpt lat="44.21785" lon="6.14219">
        <ele>1287.8000488281</ele>
        <time>2019-10-11T15:08:23Z</time>
      </trkpt>
      <trkpt lat="44.21752" lon="6.14213">
        <ele>1288.1999511719</ele>
        <time>2019-10-11T15:08:31Z</time>
      </trkpt>
      <trkpt lat="44.2174" lon="6.14211">
        <ele>1288.4000244141</ele>
        <time>2019-10-11T15:08:35Z</time>
      </trkpt>
      <trkpt lat="44.21732" lon="6.14219">
        <ele>1289</ele>
        <time>2019-10-11T15:08:38Z</time>
      </trkpt>
      <trkpt lat="44.21722" lon="6.14236">
        <ele>1289.4000244141</ele>
        <time>2019-10-11T15:08:42Z</time>
      </trkpt>
      <trkpt lat="44.21702" lon="6.14279">
        <ele>1289.5999755859</ele>
        <time>2019-10-11T15:08:51Z</time>
      </trkpt>
      <trkpt lat="44.21671" lon="6.14342">
        <ele>1289.1999511719</ele>
        <time>2019-10-11T15:09:05Z</time>
      </trkpt>
      <trkpt lat="44.21655" lon="6.14374">
        <ele>1289</ele>
        <time>2019-10-11T15:09:12Z</time>
      </trkpt>
      <trkpt lat="44.21617" lon="6.14409">
        <ele>1289.4000244141</ele>
        <time>2019-10-11T15:09:24Z</time>
      </trkpt>
      <trkpt lat="44.21606" lon="6.1442">
        <ele>1289.5999755859</ele>
        <time>2019-10-11T15:09:27Z</time>
      </trkpt>
      <trkpt lat="44.21596" lon="6.14436">
        <ele>1289.8000488281</ele>
        <time>2019-10-11T15:09:31Z</time>
      </trkpt>
      <trkpt lat="44.21605" lon="6.14477">
        <ele>1290.4000244141</ele>
        <time>2019-10-11T15:09:39Z</time>
      </trkpt>
      <trkpt lat="44.21611" lon="6.14538">
        <ele>1291.4000244141</ele>
        <time>2019-10-11T15:09:52Z</time>
      </trkpt>
      <trkpt lat="44.216" lon="6.14572">
        <ele>1292</ele>
        <time>2019-10-11T15:10:00Z</time>
      </trkpt>
      <trkpt lat="44.21568" lon="6.14646">
        <ele>1293</ele>
        <time>2019-10-11T15:10:17Z</time>
      </trkpt>
      <trkpt lat="44.21546" lon="6.14682">
        <ele>1293</ele>
        <time>2019-10-11T15:10:25Z</time>
      </trkpt>
      <trkpt lat="44.21533" lon="6.14702">
        <ele>1292.5999755859</ele>
        <time>2019-10-11T15:10:31Z</time>
      </trkpt>
      <trkpt lat="44.21527" lon="6.14711">
        <ele>1291.8000488281</ele>
        <time>2019-10-11T15:18:54Z</time>
      </trkpt>
      <trkpt lat="44.21527" lon="6.14711">
        <ele>1291.8000488281</ele>
        <time>2019-10-11T15:18:57Z</time>
      </trkpt>
      <trkpt lat="44.2152" lon="6.14733">
        <ele>1291.8000488281</ele>
        <time>2019-10-11T15:19:03Z</time>
      </trkpt>
      <trkpt lat="44.21515" lon="6.14748">
        <ele>1291.5999755859</ele>
        <time>2019-10-11T15:19:06Z</time>
      </trkpt>
      <trkpt lat="44.21511" lon="6.14789">
        <ele>1291</ele>
        <time>2019-10-11T15:19:11Z</time>
      </trkpt>
      <trkpt lat="44.21509" lon="6.14814">
        <ele>1290.4000244141</ele>
        <time>2019-10-11T15:19:14Z</time>
      </trkpt>
      <trkpt lat="44.21494" lon="6.14831">
        <ele>1289.4000244141</ele>
        <time>2019-10-11T15:19:17Z</time>
      </trkpt>
      <trkpt lat="44.21475" lon="6.14843">
        <ele>1288.4000244141</ele>
        <time>2019-10-11T15:19:20Z</time>
      </trkpt>
      <trkpt lat="44.21452" lon="6.14852">
        <ele>1287.5999755859</ele>
        <time>2019-10-11T15:19:24Z</time>
      </trkpt>
      <trkpt lat="44.21427" lon="6.14823">
        <ele>1286.1999511719</ele>
        <time>2019-10-11T15:19:28Z</time>
      </trkpt>
      <trkpt lat="44.21391" lon="6.14802">
        <ele>1284.1999511719</ele>
        <time>2019-10-11T15:19:33Z</time>
      </trkpt>
      <trkpt lat="44.21371" lon="6.14805">
        <ele>1282.8000488281</ele>
        <time>2019-10-11T15:19:36Z</time>
      </trkpt>
      <trkpt lat="44.21339" lon="6.14827">
        <ele>1280</ele>
        <time>2019-10-11T15:19:41Z</time>
      </trkpt>
      <trkpt lat="44.21308" lon="6.14856">
        <ele>1277.1999511719</ele>
        <time>2019-10-11T15:19:45Z</time>
      </trkpt>
      <trkpt lat="44.21282" lon="6.14872">
        <ele>1275.4000244141</ele>
        <time>2019-10-11T15:19:48Z</time>
      </trkpt>
      <trkpt lat="44.21238" lon="6.14924">
        <ele>1273.4000244141</ele>
        <time>2019-10-11T15:19:54Z</time>
      </trkpt>
      <trkpt lat="44.21221" lon="6.14933">
        <ele>1272.8000488281</ele>
        <time>2019-10-11T15:19:56Z</time>
      </trkpt>
      <trkpt lat="44.21183" lon="6.14935">
        <ele>1270.4000244141</ele>
        <time>2019-10-11T15:20:00Z</time>
      </trkpt>
      <trkpt lat="44.21171" lon="6.14956">
        <ele>1269</ele>
        <time>2019-10-11T15:20:03Z</time>
      </trkpt>
      <trkpt lat="44.21151" lon="6.14983">
        <ele>1268</ele>
        <time>2019-10-11T15:20:08Z</time>
      </trkpt>
      <trkpt lat="44.21137" lon="6.14994">
        <ele>1268</ele>
        <time>2019-10-11T15:20:11Z</time>
      </trkpt>
      <trkpt lat="44.21104" lon="6.15017">
        <ele>1268.8000488281</ele>
        <time>2019-10-11T15:20:19Z</time>
      </trkpt>
      <trkpt lat="44.21095" lon="6.1502">
        <ele>1268.5999755859</ele>
        <time>2019-10-11T15:20:21Z</time>
      </trkpt>
      <trkpt lat="44.21081" lon="6.15011">
        <ele>1269</ele>
        <time>2019-10-11T15:20:25Z</time>
      </trkpt>
      <trkpt lat="44.21061" lon="6.14989">
        <ele>1269</ele>
        <time>2019-10-11T15:20:30Z</time>
      </trkpt>
      <trkpt lat="44.21024" lon="6.14958">
        <ele>1268.8000488281</ele>
        <time>2019-10-11T15:20:39Z</time>
      </trkpt>
      <trkpt lat="44.21012" lon="6.14982">
        <ele>1268.8000488281</ele>
        <time>2019-10-11T15:20:43Z</time>
      </trkpt>
      <trkpt lat="44.21007" lon="6.15009">
        <ele>1269.1999511719</ele>
        <time>2019-10-11T15:20:48Z</time>
      </trkpt>
      <trkpt lat="44.20992" lon="6.15057">
        <ele>1270.1999511719</ele>
        <time>2019-10-11T15:21:00Z</time>
      </trkpt>
      <trkpt lat="44.20972" lon="6.15078">
        <ele>1270.5999755859</ele>
        <time>2019-10-11T15:21:05Z</time>
      </trkpt>
      <trkpt lat="44.20906" lon="6.15072">
        <ele>1271.1999511719</ele>
        <time>2019-10-11T15:21:18Z</time>
      </trkpt>
      <trkpt lat="44.20897" lon="6.15067">
        <ele>1271.4000244141</ele>
        <time>2019-10-11T15:21:20Z</time>
      </trkpt>
      <trkpt lat="44.20863" lon="6.15044">
        <ele>1272.1999511719</ele>
        <time>2019-10-11T15:21:29Z</time>
      </trkpt>
      <trkpt lat="44.20842" lon="6.15042">
        <ele>1272.8000488281</ele>
        <time>2019-10-11T15:21:34Z</time>
      </trkpt>
      <trkpt lat="44.2077" lon="6.15039">
        <ele>1274.4000244141</ele>
        <time>2019-10-11T15:21:53Z</time>
      </trkpt>
      <trkpt lat="44.20764" lon="6.15047">
        <ele>1275.1999511719</ele>
        <time>2019-10-11T15:21:57Z</time>
      </trkpt>
      <trkpt lat="44.20749" lon="6.15085">
        <ele>1275.4000244141</ele>
        <time>2019-10-11T15:22:05Z</time>
      </trkpt>
      <trkpt lat="44.20742" lon="6.15111">
        <ele>1275.4000244141</ele>
        <time>2019-10-11T15:22:09Z</time>
      </trkpt>
      <trkpt lat="44.20722" lon="6.15154">
        <ele>1275</ele>
        <time>2019-10-11T15:22:14Z</time>
      </trkpt>
      <trkpt lat="44.2071" lon="6.15163">
        <ele>1274.4000244141</ele>
        <time>2019-10-11T15:22:16Z</time>
      </trkpt>
      <trkpt lat="44.20687" lon="6.15167">
        <ele>1273.8000488281</ele>
        <time>2019-10-11T15:22:19Z</time>
      </trkpt>
      <trkpt lat="44.20667" lon="6.15154">
        <ele>1272.1999511719</ele>
        <time>2019-10-11T15:22:24Z</time>
      </trkpt>
      <trkpt lat="44.20663" lon="6.15151">
        <ele>1270.8000488281</ele>
        <time>2019-10-11T15:22:27Z</time>
      </trkpt>
      <trkpt lat="44.20662" lon="6.1515">
        <ele>1268.8000488281</ele>
        <time>2019-10-11T15:23:07Z</time>
      </trkpt>
      <trkpt lat="44.20657" lon="6.15144">
        <ele>1268.8000488281</ele>
        <time>2019-10-11T15:23:10Z</time>
      </trkpt>
      <trkpt lat="44.20641" lon="6.15137">
        <ele>1268.8000488281</ele>
        <time>2019-10-11T15:23:14Z</time>
      </trkpt>
      <trkpt lat="44.20618" lon="6.15134">
        <ele>1268.1999511719</ele>
        <time>2019-10-11T15:23:18Z</time>
      </trkpt>
      <trkpt lat="44.20576" lon="6.1512">
        <ele>1267</ele>
        <time>2019-10-11T15:23:25Z</time>
      </trkpt>
      <trkpt lat="44.20559" lon="6.15096">
        <ele>1266.5999755859</ele>
        <time>2019-10-11T15:23:29Z</time>
      </trkpt>
      <trkpt lat="44.20541" lon="6.15042">
        <ele>1265.4000244141</ele>
        <time>2019-10-11T15:23:36Z</time>
      </trkpt>
      <trkpt lat="44.20515" lon="6.14999">
        <ele>1264.4000244141</ele>
        <time>2019-10-11T15:23:42Z</time>
      </trkpt>
      <trkpt lat="44.2048" lon="6.14978">
        <ele>1263.1999511719</ele>
        <time>2019-10-11T15:23:47Z</time>
      </trkpt>
      <trkpt lat="44.20467" lon="6.14954">
        <ele>1262.1999511719</ele>
        <time>2019-10-11T15:23:50Z</time>
      </trkpt>
      <trkpt lat="44.20448" lon="6.14905">
        <ele>1260.5999755859</ele>
        <time>2019-10-11T15:23:55Z</time>
      </trkpt>
      <trkpt lat="44.20429" lon="6.14876">
        <ele>1259.4000244141</ele>
        <time>2019-10-11T15:24:00Z</time>
      </trkpt>
      <trkpt lat="44.20422" lon="6.14882">
        <ele>1258.5999755859</ele>
        <time>2019-10-11T15:24:02Z</time>
      </trkpt>
      <trkpt lat="44.20429" lon="6.14895">
        <ele>1257.1999511719</ele>
        <time>2019-10-11T15:24:05Z</time>
      </trkpt>
      <trkpt lat="44.2044" lon="6.1491">
        <ele>1256.5999755859</ele>
        <time>2019-10-11T15:24:07Z</time>
      </trkpt>
      <trkpt lat="44.20456" lon="6.14968">
        <ele>1255.1999511719</ele>
        <time>2019-10-11T15:24:12Z</time>
      </trkpt>
      <trkpt lat="44.20467" lon="6.15006">
        <ele>1253.5999755859</ele>
        <time>2019-10-11T15:24:15Z</time>
      </trkpt>
      <trkpt lat="44.20493" lon="6.15057">
        <ele>1249.8000488281</ele>
        <time>2019-10-11T15:24:20Z</time>
      </trkpt>
      <trkpt lat="44.20506" lon="6.1507">
        <ele>1248.4000244141</ele>
        <time>2019-10-11T15:24:22Z</time>
      </trkpt>
      <trkpt lat="44.20517" lon="6.15094">
        <ele>1244.4000244141</ele>
        <time>2019-10-11T15:24:27Z</time>
      </trkpt>
      <trkpt lat="44.20515" lon="6.15096">
        <ele>1243.1999511719</ele>
        <time>2019-10-11T15:24:29Z</time>
      </trkpt>
      <trkpt lat="44.20494" lon="6.15088">
        <ele>1238.1999511719</ele>
        <time>2019-10-11T15:24:34Z</time>
      </trkpt>
      <trkpt lat="44.20471" lon="6.15065">
        <ele>1236.1999511719</ele>
        <time>2019-10-11T15:24:38Z</time>
      </trkpt>
      <trkpt lat="44.20448" lon="6.15029">
        <ele>1235.5999755859</ele>
        <time>2019-10-11T15:24:42Z</time>
      </trkpt>
      <trkpt lat="44.20427" lon="6.15003">
        <ele>1234.4000244141</ele>
        <time>2019-10-11T15:24:45Z</time>
      </trkpt>
      <trkpt lat="44.20409" lon="6.14991">
        <ele>1233.5999755859</ele>
        <time>2019-10-11T15:24:47Z</time>
      </trkpt>
      <trkpt lat="44.20365" lon="6.14977">
        <ele>1230.1999511719</ele>
        <time>2019-10-11T15:24:52Z</time>
      </trkpt>
      <trkpt lat="44.2035" lon="6.14988">
        <ele>1228.8000488281</ele>
        <time>2019-10-11T15:24:54Z</time>
      </trkpt>
      <trkpt lat="44.2031" lon="6.1502">
        <ele>1223.8000488281</ele>
        <time>2019-10-11T15:25:00Z</time>
      </trkpt>
      <trkpt lat="44.20288" lon="6.15019">
        <ele>1222.1999511719</ele>
        <time>2019-10-11T15:25:03Z</time>
      </trkpt>
      <trkpt lat="44.20256" lon="6.15052">
        <ele>1218</ele>
        <time>2019-10-11T15:25:09Z</time>
      </trkpt>
      <trkpt lat="44.20249" lon="6.15068">
        <ele>1217.5999755859</ele>
        <time>2019-10-11T15:25:11Z</time>
      </trkpt>
      <trkpt lat="44.20211" lon="6.15101">
        <ele>1218.4000244141</ele>
        <time>2019-10-11T15:25:24Z</time>
      </trkpt>
      <trkpt lat="44.20207" lon="6.15103">
        <ele>1219</ele>
        <time>2019-10-11T15:25:49Z</time>
      </trkpt>
      <trkpt lat="44.20195" lon="6.1511">
        <ele>1219.1999511719</ele>
        <time>2019-10-11T15:25:55Z</time>
      </trkpt>
      <trkpt lat="44.20181" lon="6.15104">
        <ele>1219.1999511719</ele>
        <time>2019-10-11T15:25:59Z</time>
      </trkpt>
      <trkpt lat="44.2016" lon="6.15096">
        <ele>1220.8000488281</ele>
        <time>2019-10-11T15:26:10Z</time>
      </trkpt>
      <trkpt lat="44.2015" lon="6.151">
        <ele>1221.1999511719</ele>
        <time>2019-10-11T15:26:14Z</time>
      </trkpt>
      <trkpt lat="44.20141" lon="6.15106">
        <ele>1221.8000488281</ele>
        <time>2019-10-11T15:26:18Z</time>
      </trkpt>
      <trkpt lat="44.20126" lon="6.15108">
        <ele>1223.4000244141</ele>
        <time>2019-10-11T15:26:25Z</time>
      </trkpt>
      <trkpt lat="44.20126" lon="6.15108">
        <ele>1224.4000244141</ele>
        <time>2019-10-11T15:26:29Z</time>
      </trkpt>
      <trkpt lat="44.2013" lon="6.1511">
        <ele>1225</ele>
        <time>2019-10-11T15:28:41Z</time>
      </trkpt>
      <trkpt lat="44.20125" lon="6.15107">
        <ele>1225</ele>
        <time>2019-10-11T15:28:44Z</time>
      </trkpt>
      <trkpt lat="44.20113" lon="6.15069">
        <ele>1224.8000488281</ele>
        <time>2019-10-11T15:28:52Z</time>
      </trkpt>
      <trkpt lat="44.20107" lon="6.15043">
        <ele>1224.8000488281</ele>
        <time>2019-10-11T15:28:56Z</time>
      </trkpt>
      <trkpt lat="44.20093" lon="6.14969">
        <ele>1223.1999511719</ele>
        <time>2019-10-11T15:29:05Z</time>
      </trkpt>
      <trkpt lat="44.20083" lon="6.14929">
        <ele>1222</ele>
        <time>2019-10-11T15:29:09Z</time>
      </trkpt>
      <trkpt lat="44.2006" lon="6.14862">
        <ele>1220.1999511719</ele>
        <time>2019-10-11T15:29:15Z</time>
      </trkpt>
      <trkpt lat="44.20046" lon="6.14817">
        <ele>1218</ele>
        <time>2019-10-11T15:29:19Z</time>
      </trkpt>
      <trkpt lat="44.20036" lon="6.14768">
        <ele>1215.1999511719</ele>
        <time>2019-10-11T15:29:23Z</time>
      </trkpt>
      <trkpt lat="44.20027" lon="6.14721">
        <ele>1212.5999755859</ele>
        <time>2019-10-11T15:29:27Z</time>
      </trkpt>
      <trkpt lat="44.20014" lon="6.14678">
        <ele>1209.8000488281</ele>
        <time>2019-10-11T15:29:31Z</time>
      </trkpt>
      <trkpt lat="44.19998" lon="6.1464">
        <ele>1207.8000488281</ele>
        <time>2019-10-11T15:29:35Z</time>
      </trkpt>
      <trkpt lat="44.19985" lon="6.14627">
        <ele>1206.8000488281</ele>
        <time>2019-10-11T15:29:37Z</time>
      </trkpt>
      <trkpt lat="44.19953" lon="6.14602">
        <ele>1205</ele>
        <time>2019-10-11T15:29:41Z</time>
      </trkpt>
      <trkpt lat="44.19915" lon="6.14581">
        <ele>1202.8000488281</ele>
        <time>2019-10-11T15:29:45Z</time>
      </trkpt>
      <trkpt lat="44.19864" lon="6.14548">
        <ele>1199.4000244141</ele>
        <time>2019-10-11T15:29:50Z</time>
      </trkpt>
      <trkpt lat="44.19841" lon="6.14545">
        <ele>1198</ele>
        <time>2019-10-11T15:29:52Z</time>
      </trkpt>
      <trkpt lat="44.19815" lon="6.14537">
        <ele>1195</ele>
        <time>2019-10-11T15:29:56Z</time>
      </trkpt>
      <trkpt lat="44.19811" lon="6.14519">
        <ele>1191.8000488281</ele>
        <time>2019-10-11T15:30:00Z</time>
      </trkpt>
      <trkpt lat="44.19811" lon="6.14455">
        <ele>1187.8000488281</ele>
        <time>2019-10-11T15:30:07Z</time>
      </trkpt>
      <trkpt lat="44.19808" lon="6.14398">
        <ele>1186.4000244141</ele>
        <time>2019-10-11T15:30:13Z</time>
      </trkpt>
      <trkpt lat="44.19822" lon="6.14335">
        <ele>1185.4000244141</ele>
        <time>2019-10-11T15:30:20Z</time>
      </trkpt>
      <trkpt lat="44.1983" lon="6.14313">
        <ele>1185.4000244141</ele>
        <time>2019-10-11T15:30:23Z</time>
      </trkpt>
      <trkpt lat="44.19853" lon="6.14282">
        <ele>1185.5999755859</ele>
        <time>2019-10-11T15:30:29Z</time>
      </trkpt>
      <trkpt lat="44.1987" lon="6.1426">
        <ele>1186.1999511719</ele>
        <time>2019-10-11T15:30:34Z</time>
      </trkpt>
      <trkpt lat="44.19882" lon="6.14245">
        <ele>1186.5999755859</ele>
        <time>2019-10-11T15:30:38Z</time>
      </trkpt>
      <trkpt lat="44.19903" lon="6.14216">
        <ele>1187.4000244141</ele>
        <time>2019-10-11T15:30:45Z</time>
      </trkpt>
      <trkpt lat="44.19923" lon="6.14197">
        <ele>1187.8000488281</ele>
        <time>2019-10-11T15:30:49Z</time>
      </trkpt>
      <trkpt lat="44.19924" lon="6.14174">
        <ele>1188.1999511719</ele>
        <time>2019-10-11T15:30:53Z</time>
      </trkpt>
      <trkpt lat="44.19911" lon="6.14165">
        <ele>1188.4000244141</ele>
        <time>2019-10-11T15:30:56Z</time>
      </trkpt>
      <trkpt lat="44.1989" lon="6.14153">
        <ele>1188.8000488281</ele>
        <time>2019-10-11T15:31:02Z</time>
      </trkpt>
      <trkpt lat="44.19874" lon="6.14117">
        <ele>1189.4000244141</ele>
        <time>2019-10-11T15:31:09Z</time>
      </trkpt>
      <trkpt lat="44.19849" lon="6.13984">
        <ele>1190.4000244141</ele>
        <time>2019-10-11T15:31:29Z</time>
      </trkpt>
      <trkpt lat="44.19849" lon="6.13915">
        <ele>1191.1999511719</ele>
        <time>2019-10-11T15:31:40Z</time>
      </trkpt>
      <trkpt lat="44.19869" lon="6.13889">
        <ele>1191.4000244141</ele>
        <time>2019-10-11T15:31:45Z</time>
      </trkpt>
      <trkpt lat="44.19867" lon="6.13874">
        <ele>1191.4000244141</ele>
        <time>2019-10-11T15:31:47Z</time>
      </trkpt>
      <trkpt lat="44.19849" lon="6.13811">
        <ele>1191.4000244141</ele>
        <time>2019-10-11T15:31:56Z</time>
      </trkpt>
      <trkpt lat="44.19859" lon="6.13738">
        <ele>1191.4000244141</ele>
        <time>2019-10-11T15:32:05Z</time>
      </trkpt>
      <trkpt lat="44.19879" lon="6.13671">
        <ele>1191.1999511719</ele>
        <time>2019-10-11T15:32:14Z</time>
      </trkpt>
      <trkpt lat="44.19869" lon="6.13651">
        <ele>1191</ele>
        <time>2019-10-11T15:32:18Z</time>
      </trkpt>
      <trkpt lat="44.19857" lon="6.13652">
        <ele>1191</ele>
        <time>2019-10-11T15:32:21Z</time>
      </trkpt>
      <trkpt lat="44.1978" lon="6.13643">
        <ele>1191.1999511719</ele>
        <time>2019-10-11T15:32:35Z</time>
      </trkpt>
      <trkpt lat="44.19749" lon="6.13613">
        <ele>1192</ele>
        <time>2019-10-11T15:32:43Z</time>
      </trkpt>
      <trkpt lat="44.19731" lon="6.1358">
        <ele>1192.5999755859</ele>
        <time>2019-10-11T15:32:50Z</time>
      </trkpt>
      <trkpt lat="44.19735" lon="6.13558">
        <ele>1192.8000488281</ele>
        <time>2019-10-11T15:32:53Z</time>
      </trkpt>
      <trkpt lat="44.19751" lon="6.13507">
        <ele>1192</ele>
        <time>2019-10-11T15:33:00Z</time>
      </trkpt>
      <trkpt lat="44.19748" lon="6.13501">
        <ele>1191.5999755859</ele>
        <time>2019-10-11T15:33:03Z</time>
      </trkpt>
      <trkpt lat="44.19742" lon="6.135">
        <ele>1190.4000244141</ele>
        <time>2019-10-11T15:33:07Z</time>
      </trkpt>
      <trkpt lat="44.1974" lon="6.13525">
        <ele>1189.5999755859</ele>
        <time>2019-10-11T15:33:11Z</time>
      </trkpt>
      <trkpt lat="44.19731" lon="6.13545">
        <ele>1189</ele>
        <time>2019-10-11T15:33:14Z</time>
      </trkpt>
      <trkpt lat="44.19724" lon="6.13563">
        <ele>1188.5999755859</ele>
        <time>2019-10-11T15:33:16Z</time>
      </trkpt>
      <trkpt lat="44.19711" lon="6.13595">
        <ele>1187.5999755859</ele>
        <time>2019-10-11T15:33:19Z</time>
      </trkpt>
      <trkpt lat="44.19698" lon="6.13639">
        <ele>1185.1999511719</ele>
        <time>2019-10-11T15:33:23Z</time>
      </trkpt>
      <trkpt lat="44.19687" lon="6.13659">
        <ele>1183.4000244141</ele>
        <time>2019-10-11T15:33:25Z</time>
      </trkpt>
      <trkpt lat="44.19654" lon="6.13708">
        <ele>1179.8000488281</ele>
        <time>2019-10-11T15:33:30Z</time>
      </trkpt>
      <trkpt lat="44.19644" lon="6.13728">
        <ele>1178.1999511719</ele>
        <time>2019-10-11T15:33:32Z</time>
      </trkpt>
      <trkpt lat="44.19632" lon="6.13762">
        <ele>1172.4000244141</ele>
        <time>2019-10-11T15:33:38Z</time>
      </trkpt>
      <trkpt lat="44.19639" lon="6.13773">
        <ele>1170.4000244141</ele>
        <time>2019-10-11T15:33:40Z</time>
      </trkpt>
      <trkpt lat="44.1965" lon="6.13795">
        <ele>1166.8000488281</ele>
        <time>2019-10-11T15:33:44Z</time>
      </trkpt>
      <trkpt lat="44.19635" lon="6.13795">
        <ele>1164</ele>
        <time>2019-10-11T15:33:49Z</time>
      </trkpt>
      <trkpt lat="44.19617" lon="6.13774">
        <ele>1162.5999755859</ele>
        <time>2019-10-11T15:33:53Z</time>
      </trkpt>
      <trkpt lat="44.19613" lon="6.13747">
        <ele>1160.8000488281</ele>
        <time>2019-10-11T15:33:56Z</time>
      </trkpt>
      <trkpt lat="44.19624" lon="6.13719">
        <ele>1159.8000488281</ele>
        <time>2019-10-11T15:33:59Z</time>
      </trkpt>
      <trkpt lat="44.19636" lon="6.13686">
        <ele>1158.1999511719</ele>
        <time>2019-10-11T15:34:02Z</time>
      </trkpt>
      <trkpt lat="44.19633" lon="6.13637">
        <ele>1156.1999511719</ele>
        <time>2019-10-11T15:34:06Z</time>
      </trkpt>
      <trkpt lat="44.19615" lon="6.13569">
        <ele>1153.4000244141</ele>
        <time>2019-10-11T15:34:11Z</time>
      </trkpt>
      <trkpt lat="44.19602" lon="6.13524">
        <ele>1150.8000488281</ele>
        <time>2019-10-11T15:34:15Z</time>
      </trkpt>
      <trkpt lat="44.19576" lon="6.13506">
        <ele>1148.4000244141</ele>
        <time>2019-10-11T15:34:19Z</time>
      </trkpt>
      <trkpt lat="44.19557" lon="6.135">
        <ele>1146.5999755859</ele>
        <time>2019-10-11T15:34:21Z</time>
      </trkpt>
      <trkpt lat="44.19536" lon="6.13486">
        <ele>1144.1999511719</ele>
        <time>2019-10-11T15:34:24Z</time>
      </trkpt>
      <trkpt lat="44.19534" lon="6.13457">
        <ele>1142.1999511719</ele>
        <time>2019-10-11T15:34:27Z</time>
      </trkpt>
      <trkpt lat="44.19529" lon="6.13426">
        <ele>1140.1999511719</ele>
        <time>2019-10-11T15:34:30Z</time>
      </trkpt>
      <trkpt lat="44.19521" lon="6.13394">
        <ele>1138.1999511719</ele>
        <time>2019-10-11T15:34:33Z</time>
      </trkpt>
      <trkpt lat="44.19498" lon="6.13363">
        <ele>1135.5999755859</ele>
        <time>2019-10-11T15:34:37Z</time>
      </trkpt>
      <trkpt lat="44.19475" lon="6.13347">
        <ele>1133</ele>
        <time>2019-10-11T15:34:40Z</time>
      </trkpt>
      <trkpt lat="44.19435" lon="6.1332">
        <ele>1130.4000244141</ele>
        <time>2019-10-11T15:34:45Z</time>
      </trkpt>
      <trkpt lat="44.19421" lon="6.13308">
        <ele>1129.4000244141</ele>
        <time>2019-10-11T15:34:47Z</time>
      </trkpt>
      <trkpt lat="44.19391" lon="6.13283">
        <ele>1126.4000244141</ele>
        <time>2019-10-11T15:34:51Z</time>
      </trkpt>
      <trkpt lat="44.19374" lon="6.13281">
        <ele>1124.5999755859</ele>
        <time>2019-10-11T15:34:53Z</time>
      </trkpt>
      <trkpt lat="44.19349" lon="6.13273">
        <ele>1122</ele>
        <time>2019-10-11T15:34:56Z</time>
      </trkpt>
      <trkpt lat="44.19341" lon="6.13253">
        <ele>1119.5999755859</ele>
        <time>2019-10-11T15:34:59Z</time>
      </trkpt>
      <trkpt lat="44.19321" lon="6.13214">
        <ele>1117.1999511719</ele>
        <time>2019-10-11T15:35:02Z</time>
      </trkpt>
      <trkpt lat="44.193" lon="6.13192">
        <ele>1114</ele>
        <time>2019-10-11T15:35:06Z</time>
      </trkpt>
      <trkpt lat="44.19285" lon="6.13163">
        <ele>1112.4000244141</ele>
        <time>2019-10-11T15:35:10Z</time>
      </trkpt>
      <trkpt lat="44.19264" lon="6.13094">
        <ele>1107.5999755859</ele>
        <time>2019-10-11T15:35:16Z</time>
      </trkpt>
      <trkpt lat="44.19253" lon="6.13058">
        <ele>1105.4000244141</ele>
        <time>2019-10-11T15:35:20Z</time>
      </trkpt>
      <trkpt lat="44.19248" lon="6.13054">
        <ele>1103.5999755859</ele>
        <time>2019-10-11T15:35:23Z</time>
      </trkpt>
      <trkpt lat="44.19243" lon="6.13069">
        <ele>1102.1999511719</ele>
        <time>2019-10-11T15:35:25Z</time>
      </trkpt>
      <trkpt lat="44.19241" lon="6.13126">
        <ele>1099.5999755859</ele>
        <time>2019-10-11T15:35:30Z</time>
      </trkpt>
      <trkpt lat="44.19232" lon="6.13148">
        <ele>1099</ele>
        <time>2019-10-11T15:35:32Z</time>
      </trkpt>
      <trkpt lat="44.19214" lon="6.13193">
        <ele>1096.5999755859</ele>
        <time>2019-10-11T15:35:36Z</time>
      </trkpt>
      <trkpt lat="44.19208" lon="6.13227">
        <ele>1094.8000488281</ele>
        <time>2019-10-11T15:35:39Z</time>
      </trkpt>
      <trkpt lat="44.19217" lon="6.1325">
        <ele>1092.8000488281</ele>
        <time>2019-10-11T15:35:42Z</time>
      </trkpt>
      <trkpt lat="44.1925" lon="6.13283">
        <ele>1088.8000488281</ele>
        <time>2019-10-11T15:35:48Z</time>
      </trkpt>
      <trkpt lat="44.19255" lon="6.13309">
        <ele>1087</ele>
        <time>2019-10-11T15:35:51Z</time>
      </trkpt>
      <trkpt lat="44.19255" lon="6.13343">
        <ele>1085</ele>
        <time>2019-10-11T15:35:54Z</time>
      </trkpt>
      <trkpt lat="44.19255" lon="6.13374">
        <ele>1083.8000488281</ele>
        <time>2019-10-11T15:35:57Z</time>
      </trkpt>
      <trkpt lat="44.19243" lon="6.13396">
        <ele>1082</ele>
        <time>2019-10-11T15:36:00Z</time>
      </trkpt>
      <trkpt lat="44.19224" lon="6.13425">
        <ele>1080.4000244141</ele>
        <time>2019-10-11T15:36:03Z</time>
      </trkpt>
      <trkpt lat="44.19211" lon="6.13461">
        <ele>1078</ele>
        <time>2019-10-11T15:36:06Z</time>
      </trkpt>
      <trkpt lat="44.19193" lon="6.1351">
        <ele>1074.8000488281</ele>
        <time>2019-10-11T15:36:10Z</time>
      </trkpt>
      <trkpt lat="44.19172" lon="6.13575">
        <ele>1070.4000244141</ele>
        <time>2019-10-11T15:36:15Z</time>
      </trkpt>
      <trkpt lat="44.19161" lon="6.13627">
        <ele>1066.8000488281</ele>
        <time>2019-10-11T15:36:19Z</time>
      </trkpt>
      <trkpt lat="44.19144" lon="6.13677">
        <ele>1064.4000244141</ele>
        <time>2019-10-11T15:36:23Z</time>
      </trkpt>
      <trkpt lat="44.1913" lon="6.13713">
        <ele>1061.5999755859</ele>
        <time>2019-10-11T15:36:26Z</time>
      </trkpt>
      <trkpt lat="44.19119" lon="6.13748">
        <ele>1058.8000488281</ele>
        <time>2019-10-11T15:36:29Z</time>
      </trkpt>
      <trkpt lat="44.19107" lon="6.13796">
        <ele>1055.1999511719</ele>
        <time>2019-10-11T15:36:33Z</time>
      </trkpt>
      <trkpt lat="44.191" lon="6.1384">
        <ele>1052</ele>
        <time>2019-10-11T15:36:37Z</time>
      </trkpt>
      <trkpt lat="44.19107" lon="6.13868">
        <ele>1049.4000244141</ele>
        <time>2019-10-11T15:36:40Z</time>
      </trkpt>
      <trkpt lat="44.19115" lon="6.139">
        <ele>1046.5999755859</ele>
        <time>2019-10-11T15:36:43Z</time>
      </trkpt>
      <trkpt lat="44.19122" lon="6.13995">
        <ele>1043.1999511719</ele>
        <time>2019-10-11T15:36:50Z</time>
      </trkpt>
      <trkpt lat="44.19126" lon="6.1404">
        <ele>1041</ele>
        <time>2019-10-11T15:36:53Z</time>
      </trkpt>
      <trkpt lat="44.19131" lon="6.14104">
        <ele>1038.1999511719</ele>
        <time>2019-10-11T15:36:57Z</time>
      </trkpt>
      <trkpt lat="44.19131" lon="6.14185">
        <ele>1034.4000244141</ele>
        <time>2019-10-11T15:37:01Z</time>
      </trkpt>
      <trkpt lat="44.19129" lon="6.14238">
        <ele>1030.5999755859</ele>
        <time>2019-10-11T15:37:05Z</time>
      </trkpt>
      <trkpt lat="44.19127" lon="6.14248">
        <ele>1028.5999755859</ele>
        <time>2019-10-11T15:37:07Z</time>
      </trkpt>
      <trkpt lat="44.19115" lon="6.14265">
        <ele>1025.4000244141</ele>
        <time>2019-10-11T15:37:10Z</time>
      </trkpt>
      <trkpt lat="44.191" lon="6.14235">
        <ele>1022.200012207</ele>
        <time>2019-10-11T15:37:13Z</time>
      </trkpt>
      <trkpt lat="44.1909" lon="6.14218">
        <ele>1021.200012207</ele>
        <time>2019-10-11T15:37:15Z</time>
      </trkpt>
      <trkpt lat="44.19051" lon="6.14177">
        <ele>1016.799987793</ele>
        <time>2019-10-11T15:37:21Z</time>
      </trkpt>
      <trkpt lat="44.19024" lon="6.14156">
        <ele>1015</ele>
        <time>2019-10-11T15:37:24Z</time>
      </trkpt>
      <trkpt lat="44.18989" lon="6.14149">
        <ele>1012.799987793</ele>
        <time>2019-10-11T15:37:27Z</time>
      </trkpt>
      <trkpt lat="44.18967" lon="6.14144">
        <ele>1011.200012207</ele>
        <time>2019-10-11T15:37:29Z</time>
      </trkpt>
      <trkpt lat="44.18929" lon="6.1415">
        <ele>1007.4000244141</ele>
        <time>2019-10-11T15:37:33Z</time>
      </trkpt>
      <trkpt lat="44.18891" lon="6.14171">
        <ele>1002.799987793</ele>
        <time>2019-10-11T15:37:37Z</time>
      </trkpt>
      <trkpt lat="44.1884" lon="6.14198">
        <ele>998.20001220703</ele>
        <time>2019-10-11T15:37:43Z</time>
      </trkpt>
      <trkpt lat="44.18822" lon="6.14201">
        <ele>996.40002441406</ele>
        <time>2019-10-11T15:37:45Z</time>
      </trkpt>
      <trkpt lat="44.18778" lon="6.14199">
        <ele>992</ele>
        <time>2019-10-11T15:37:50Z</time>
      </trkpt>
      <trkpt lat="44.18766" lon="6.1419">
        <ele>990.20001220703</ele>
        <time>2019-10-11T15:37:52Z</time>
      </trkpt>
      <trkpt lat="44.18757" lon="6.14157">
        <ele>986.79998779297</ele>
        <time>2019-10-11T15:37:56Z</time>
      </trkpt>
      <trkpt lat="44.18747" lon="6.14136">
        <ele>985.20001220703</ele>
        <time>2019-10-11T15:37:58Z</time>
      </trkpt>
      <trkpt lat="44.18721" lon="6.14093">
        <ele>982.40002441406</ele>
        <time>2019-10-11T15:38:03Z</time>
      </trkpt>
      <trkpt lat="44.18718" lon="6.14073">
        <ele>981.59997558594</ele>
        <time>2019-10-11T15:38:05Z</time>
      </trkpt>
      <trkpt lat="44.1872" lon="6.14048">
        <ele>980.20001220703</ele>
        <time>2019-10-11T15:38:07Z</time>
      </trkpt>
      <trkpt lat="44.18721" lon="6.13979">
        <ele>977</ele>
        <time>2019-10-11T15:38:12Z</time>
      </trkpt>
      <trkpt lat="44.18708" lon="6.13921">
        <ele>974</ele>
        <time>2019-10-11T15:38:16Z</time>
      </trkpt>
      <trkpt lat="44.18691" lon="6.13887">
        <ele>971.79998779297</ele>
        <time>2019-10-11T15:38:19Z</time>
      </trkpt>
      <trkpt lat="44.18666" lon="6.13852">
        <ele>967.79998779297</ele>
        <time>2019-10-11T15:38:23Z</time>
      </trkpt>
      <trkpt lat="44.18632" lon="6.13819">
        <ele>963.79998779297</ele>
        <time>2019-10-11T15:38:28Z</time>
      </trkpt>
      <trkpt lat="44.18618" lon="6.13818">
        <ele>962.59997558594</ele>
        <time>2019-10-11T15:38:31Z</time>
      </trkpt>
      <trkpt lat="44.18608" lon="6.13836">
        <ele>960.40002441406</ele>
        <time>2019-10-11T15:38:34Z</time>
      </trkpt>
      <trkpt lat="44.18598" lon="6.13848">
        <ele>958.40002441406</ele>
        <time>2019-10-11T15:38:37Z</time>
      </trkpt>
      <trkpt lat="44.18577" lon="6.13848">
        <ele>955.40002441406</ele>
        <time>2019-10-11T15:38:41Z</time>
      </trkpt>
      <trkpt lat="44.18556" lon="6.13853">
        <ele>953.59997558594</ele>
        <time>2019-10-11T15:38:44Z</time>
      </trkpt>
      <trkpt lat="44.1853" lon="6.13877">
        <ele>952.20001220703</ele>
        <time>2019-10-11T15:38:48Z</time>
      </trkpt>
      <trkpt lat="44.18509" lon="6.139">
        <ele>951</ele>
        <time>2019-10-11T15:38:51Z</time>
      </trkpt>
      <trkpt lat="44.18467" lon="6.13926">
        <ele>949</ele>
        <time>2019-10-11T15:38:55Z</time>
      </trkpt>
      <trkpt lat="44.18439" lon="6.13935">
        <ele>945.79998779297</ele>
        <time>2019-10-11T15:38:59Z</time>
      </trkpt>
      <trkpt lat="44.18414" lon="6.13946">
        <ele>943.59997558594</ele>
        <time>2019-10-11T15:39:02Z</time>
      </trkpt>
      <trkpt lat="44.18392" lon="6.13966">
        <ele>941.20001220703</ele>
        <time>2019-10-11T15:39:05Z</time>
      </trkpt>
      <trkpt lat="44.18378" lon="6.13995">
        <ele>938.40002441406</ele>
        <time>2019-10-11T15:39:08Z</time>
      </trkpt>
      <trkpt lat="44.18353" lon="6.14033">
        <ele>934.59997558594</ele>
        <time>2019-10-11T15:39:13Z</time>
      </trkpt>
      <trkpt lat="44.18332" lon="6.14052">
        <ele>932.40002441406</ele>
        <time>2019-10-11T15:39:16Z</time>
      </trkpt>
      <trkpt lat="44.18295" lon="6.1408">
        <ele>929.59997558594</ele>
        <time>2019-10-11T15:39:21Z</time>
      </trkpt>
      <trkpt lat="44.18289" lon="6.1408">
        <ele>928.59997558594</ele>
        <time>2019-10-11T15:39:23Z</time>
      </trkpt>
      <trkpt lat="44.18274" lon="6.14057">
        <ele>926</ele>
        <time>2019-10-11T15:39:27Z</time>
      </trkpt>
      <trkpt lat="44.18277" lon="6.14036">
        <ele>924.20001220703</ele>
        <time>2019-10-11T15:39:29Z</time>
      </trkpt>
      <trkpt lat="44.18285" lon="6.14003">
        <ele>922.20001220703</ele>
        <time>2019-10-11T15:39:32Z</time>
      </trkpt>
      <trkpt lat="44.18272" lon="6.13966">
        <ele>920.20001220703</ele>
        <time>2019-10-11T15:39:36Z</time>
      </trkpt>
      <trkpt lat="44.18247" lon="6.13944">
        <ele>918.59997558594</ele>
        <time>2019-10-11T15:39:39Z</time>
      </trkpt>
      <trkpt lat="44.18213" lon="6.13916">
        <ele>916.20001220703</ele>
        <time>2019-10-11T15:39:43Z</time>
      </trkpt>
      <trkpt lat="44.18184" lon="6.13906">
        <ele>914.59997558594</ele>
        <time>2019-10-11T15:39:46Z</time>
      </trkpt>
      <trkpt lat="44.1813" lon="6.13889">
        <ele>910.79998779297</ele>
        <time>2019-10-11T15:39:52Z</time>
      </trkpt>
      <trkpt lat="44.18095" lon="6.13889">
        <ele>909.20001220703</ele>
        <time>2019-10-11T15:39:56Z</time>
      </trkpt>
      <trkpt lat="44.18076" lon="6.13914">
        <ele>908.20001220703</ele>
        <time>2019-10-11T15:39:59Z</time>
      </trkpt>
      <trkpt lat="44.18055" lon="6.13956">
        <ele>906.40002441406</ele>
        <time>2019-10-11T15:40:03Z</time>
      </trkpt>
      <trkpt lat="44.18036" lon="6.1401">
        <ele>903.79998779297</ele>
        <time>2019-10-11T15:40:08Z</time>
      </trkpt>
      <trkpt lat="44.18016" lon="6.14029">
        <ele>902.40002441406</ele>
        <time>2019-10-11T15:40:11Z</time>
      </trkpt>
      <trkpt lat="44.1799" lon="6.14046">
        <ele>901</ele>
        <time>2019-10-11T15:40:14Z</time>
      </trkpt>
      <trkpt lat="44.17962" lon="6.14065">
        <ele>899.59997558594</ele>
        <time>2019-10-11T15:40:17Z</time>
      </trkpt>
      <trkpt lat="44.17922" lon="6.14079">
        <ele>896.59997558594</ele>
        <time>2019-10-11T15:40:21Z</time>
      </trkpt>
      <trkpt lat="44.17873" lon="6.14104">
        <ele>892.59997558594</ele>
        <time>2019-10-11T15:40:26Z</time>
      </trkpt>
      <trkpt lat="44.17831" lon="6.14113">
        <ele>890</ele>
        <time>2019-10-11T15:40:31Z</time>
      </trkpt>
      <trkpt lat="44.178" lon="6.14118">
        <ele>889.40002441406</ele>
        <time>2019-10-11T15:40:36Z</time>
      </trkpt>
      <trkpt lat="44.17785" lon="6.14129">
        <ele>889.40002441406</ele>
        <time>2019-10-11T15:40:39Z</time>
      </trkpt>
      <trkpt lat="44.17769" lon="6.14158">
        <ele>889</ele>
        <time>2019-10-11T15:40:43Z</time>
      </trkpt>
      <trkpt lat="44.17752" lon="6.14188">
        <ele>888.79998779297</ele>
        <time>2019-10-11T15:40:47Z</time>
      </trkpt>
      <trkpt lat="44.17731" lon="6.142">
        <ele>888.40002441406</ele>
        <time>2019-10-11T15:40:50Z</time>
      </trkpt>
      <trkpt lat="44.17691" lon="6.14226">
        <ele>887</ele>
        <time>2019-10-11T15:40:55Z</time>
      </trkpt>
      <trkpt lat="44.1765" lon="6.1427">
        <ele>884.79998779297</ele>
        <time>2019-10-11T15:41:01Z</time>
      </trkpt>
      <trkpt lat="44.17638" lon="6.14303">
        <ele>883.79998779297</ele>
        <time>2019-10-11T15:41:04Z</time>
      </trkpt>
      <trkpt lat="44.17635" lon="6.14349">
        <ele>882.20001220703</ele>
        <time>2019-10-11T15:41:08Z</time>
      </trkpt>
      <trkpt lat="44.17621" lon="6.14377">
        <ele>881.20001220703</ele>
        <time>2019-10-11T15:41:11Z</time>
      </trkpt>
      <trkpt lat="44.17586" lon="6.14424">
        <ele>878</ele>
        <time>2019-10-11T15:41:16Z</time>
      </trkpt>
      <trkpt lat="44.17554" lon="6.14456">
        <ele>874.79998779297</ele>
        <time>2019-10-11T15:41:20Z</time>
      </trkpt>
      <trkpt lat="44.17489" lon="6.1453">
        <ele>870.20001220703</ele>
        <time>2019-10-11T15:41:29Z</time>
      </trkpt>
      <trkpt lat="44.17474" lon="6.14563">
        <ele>869</ele>
        <time>2019-10-11T15:41:32Z</time>
      </trkpt>
      <trkpt lat="44.17459" lon="6.146">
        <ele>868.20001220703</ele>
        <time>2019-10-11T15:41:35Z</time>
      </trkpt>
      <trkpt lat="44.17437" lon="6.14684">
        <ele>865</ele>
        <time>2019-10-11T15:41:42Z</time>
      </trkpt>
      <trkpt lat="44.17439" lon="6.14718">
        <ele>863.40002441406</ele>
        <time>2019-10-11T15:41:45Z</time>
      </trkpt>
      <trkpt lat="44.17405" lon="6.1475">
        <ele>862</ele>
        <time>2019-10-11T15:41:51Z</time>
      </trkpt>
      <trkpt lat="44.17388" lon="6.14747">
        <ele>861.40002441406</ele>
        <time>2019-10-11T15:41:53Z</time>
      </trkpt>
      <trkpt lat="44.17354" lon="6.14755">
        <ele>859.20001220703</ele>
        <time>2019-10-11T15:41:57Z</time>
      </trkpt>
      <trkpt lat="44.1733" lon="6.14762">
        <ele>858</ele>
        <time>2019-10-11T15:42:00Z</time>
      </trkpt>
      <trkpt lat="44.17295" lon="6.14754">
        <ele>856.59997558594</ele>
        <time>2019-10-11T15:42:04Z</time>
      </trkpt>
      <trkpt lat="44.17262" lon="6.14739">
        <ele>854.79998779297</ele>
        <time>2019-10-11T15:42:08Z</time>
      </trkpt>
      <trkpt lat="44.17238" lon="6.14712">
        <ele>852.20001220703</ele>
        <time>2019-10-11T15:42:12Z</time>
      </trkpt>
      <trkpt lat="44.17223" lon="6.14711">
        <ele>850.40002441406</ele>
        <time>2019-10-11T15:42:14Z</time>
      </trkpt>
      <trkpt lat="44.17197" lon="6.14709">
        <ele>848.79998779297</ele>
        <time>2019-10-11T15:42:17Z</time>
      </trkpt>
      <trkpt lat="44.17173" lon="6.1472">
        <ele>846.79998779297</ele>
        <time>2019-10-11T15:42:20Z</time>
      </trkpt>
      <trkpt lat="44.17147" lon="6.1474">
        <ele>844.40002441406</ele>
        <time>2019-10-11T15:42:23Z</time>
      </trkpt>
      <trkpt lat="44.1711" lon="6.14739">
        <ele>841.59997558594</ele>
        <time>2019-10-11T15:42:27Z</time>
      </trkpt>
      <trkpt lat="44.1708" lon="6.14741">
        <ele>838.40002441406</ele>
        <time>2019-10-11T15:42:30Z</time>
      </trkpt>
      <trkpt lat="44.17044" lon="6.14765">
        <ele>835.59997558594</ele>
        <time>2019-10-11T15:42:34Z</time>
      </trkpt>
      <trkpt lat="44.17019" lon="6.14777">
        <ele>833.20001220703</ele>
        <time>2019-10-11T15:42:37Z</time>
      </trkpt>
      <trkpt lat="44.16977" lon="6.14771">
        <ele>830</ele>
        <time>2019-10-11T15:42:42Z</time>
      </trkpt>
      <trkpt lat="44.1696" lon="6.14776">
        <ele>828.40002441406</ele>
        <time>2019-10-11T15:42:44Z</time>
      </trkpt>
      <trkpt lat="44.16934" lon="6.14793">
        <ele>826.20001220703</ele>
        <time>2019-10-11T15:42:47Z</time>
      </trkpt>
      <trkpt lat="44.16904" lon="6.14796">
        <ele>824.20001220703</ele>
        <time>2019-10-11T15:42:50Z</time>
      </trkpt>
      <trkpt lat="44.16867" lon="6.14794">
        <ele>821.40002441406</ele>
        <time>2019-10-11T15:42:54Z</time>
      </trkpt>
      <trkpt lat="44.1685" lon="6.14801">
        <ele>819.59997558594</ele>
        <time>2019-10-11T15:42:56Z</time>
      </trkpt>
      <trkpt lat="44.16825" lon="6.1481">
        <ele>817</ele>
        <time>2019-10-11T15:42:59Z</time>
      </trkpt>
      <trkpt lat="44.16809" lon="6.14805">
        <ele>815.20001220703</ele>
        <time>2019-10-11T15:43:01Z</time>
      </trkpt>
      <trkpt lat="44.16779" lon="6.1479">
        <ele>812</ele>
        <time>2019-10-11T15:43:05Z</time>
      </trkpt>
      <trkpt lat="44.16744" lon="6.14771">
        <ele>808.79998779297</ele>
        <time>2019-10-11T15:43:11Z</time>
      </trkpt>
      <trkpt lat="44.16733" lon="6.14766">
        <ele>806.79998779297</ele>
        <time>2019-10-11T15:43:14Z</time>
      </trkpt>
      <trkpt lat="44.16718" lon="6.14751">
        <ele>804.20001220703</ele>
        <time>2019-10-11T15:43:18Z</time>
      </trkpt>
      <trkpt lat="44.16708" lon="6.14732">
        <ele>803</ele>
        <time>2019-10-11T15:43:21Z</time>
      </trkpt>
      <trkpt lat="44.16696" lon="6.147">
        <ele>800.79998779297</ele>
        <time>2019-10-11T15:43:26Z</time>
      </trkpt>
      <trkpt lat="44.16695" lon="6.14694">
        <ele>799.79998779297</ele>
        <time>2019-10-11T15:43:28Z</time>
      </trkpt>
      <trkpt lat="44.16695" lon="6.1469">
        <ele>796.20001220703</ele>
        <time>2019-10-11T15:43:40Z</time>
      </trkpt>
      <trkpt lat="44.1669" lon="6.14649">
        <ele>795.79998779297</ele>
        <time>2019-10-11T15:43:48Z</time>
      </trkpt>
      <trkpt lat="44.16684" lon="6.14596">
        <ele>795.20001220703</ele>
        <time>2019-10-11T15:43:54Z</time>
      </trkpt>
      <trkpt lat="44.1667" lon="6.14559">
        <ele>794.40002441406</ele>
        <time>2019-10-11T15:43:58Z</time>
      </trkpt>
      <trkpt lat="44.16647" lon="6.14496">
        <ele>792</ele>
        <time>2019-10-11T15:44:04Z</time>
      </trkpt>
      <trkpt lat="44.16635" lon="6.14449">
        <ele>790</ele>
        <time>2019-10-11T15:44:09Z</time>
      </trkpt>
      <trkpt lat="44.16607" lon="6.14449">
        <ele>787.79998779297</ele>
        <time>2019-10-11T15:44:13Z</time>
      </trkpt>
      <trkpt lat="44.16575" lon="6.1447">
        <ele>786.40002441406</ele>
        <time>2019-10-11T15:44:18Z</time>
      </trkpt>
      <trkpt lat="44.16549" lon="6.14489">
        <ele>786</ele>
        <time>2019-10-11T15:44:22Z</time>
      </trkpt>
      <trkpt lat="44.16521" lon="6.14545">
        <ele>784.59997558594</ele>
        <time>2019-10-11T15:44:28Z</time>
      </trkpt>
      <trkpt lat="44.16506" lon="6.1458">
        <ele>782.79998779297</ele>
        <time>2019-10-11T15:44:32Z</time>
      </trkpt>
      <trkpt lat="44.16466" lon="6.14611">
        <ele>781</ele>
        <time>2019-10-11T15:44:39Z</time>
      </trkpt>
      <trkpt lat="44.16433" lon="6.14613">
        <ele>780.59997558594</ele>
        <time>2019-10-11T15:44:44Z</time>
      </trkpt>
      <trkpt lat="44.16364" lon="6.14593">
        <ele>779.40002441406</ele>
        <time>2019-10-11T15:44:54Z</time>
      </trkpt>
      <trkpt lat="44.16343" lon="6.14587">
        <ele>778.40002441406</ele>
        <time>2019-10-11T15:44:57Z</time>
      </trkpt>
      <trkpt lat="44.16288" lon="6.14573">
        <ele>777.20001220703</ele>
        <time>2019-10-11T15:45:05Z</time>
      </trkpt>
      <trkpt lat="44.16243" lon="6.14565">
        <ele>775.79998779297</ele>
        <time>2019-10-11T15:45:11Z</time>
      </trkpt>
      <trkpt lat="44.16153" lon="6.14564">
        <ele>772.20001220703</ele>
        <time>2019-10-11T15:45:23Z</time>
      </trkpt>
      <trkpt lat="44.1612" lon="6.14559">
        <ele>771</ele>
        <time>2019-10-11T15:45:27Z</time>
      </trkpt>
      <trkpt lat="44.16063" lon="6.14536">
        <ele>768.79998779297</ele>
        <time>2019-10-11T15:45:34Z</time>
      </trkpt>
      <trkpt lat="44.16023" lon="6.1452">
        <ele>766.79998779297</ele>
        <time>2019-10-11T15:45:39Z</time>
      </trkpt>
      <trkpt lat="44.15968" lon="6.14499">
        <ele>764.79998779297</ele>
        <time>2019-10-11T15:45:46Z</time>
      </trkpt>
      <trkpt lat="44.15916" lon="6.14478">
        <ele>762.40002441406</ele>
        <time>2019-10-11T15:45:53Z</time>
      </trkpt>
      <trkpt lat="44.15885" lon="6.14464">
        <ele>761.40002441406</ele>
        <time>2019-10-11T15:45:58Z</time>
      </trkpt>
      <trkpt lat="44.15827" lon="6.14424">
        <ele>760.59997558594</ele>
        <time>2019-10-11T15:46:07Z</time>
      </trkpt>
      <trkpt lat="44.15792" lon="6.14408">
        <ele>758.79998779297</ele>
        <time>2019-10-11T15:46:12Z</time>
      </trkpt>
      <trkpt lat="44.15733" lon="6.14395">
        <ele>757.20001220703</ele>
        <time>2019-10-11T15:46:21Z</time>
      </trkpt>
      <trkpt lat="44.15698" lon="6.14385">
        <ele>756.79998779297</ele>
        <time>2019-10-11T15:46:27Z</time>
      </trkpt>
      <trkpt lat="44.15629" lon="6.14334">
        <ele>757</ele>
        <time>2019-10-11T15:46:42Z</time>
      </trkpt>
      <trkpt lat="44.15619" lon="6.14321">
        <ele>757.20001220703</ele>
        <time>2019-10-11T15:46:45Z</time>
      </trkpt>
      <trkpt lat="44.15584" lon="6.14304">
        <ele>758.20001220703</ele>
        <time>2019-10-11T15:46:54Z</time>
      </trkpt>
      <trkpt lat="44.15545" lon="6.14304">
        <ele>758.79998779297</ele>
        <time>2019-10-11T15:47:03Z</time>
      </trkpt>
      <trkpt lat="44.15486" lon="6.14317">
        <ele>758.79998779297</ele>
        <time>2019-10-11T15:47:15Z</time>
      </trkpt>
      <trkpt lat="44.15459" lon="6.14315">
        <ele>758.59997558594</ele>
        <time>2019-10-11T15:47:19Z</time>
      </trkpt>
      <trkpt lat="44.15437" lon="6.14312">
        <ele>757.79998779297</ele>
        <time>2019-10-11T15:47:22Z</time>
      </trkpt>
      <trkpt lat="44.15379" lon="6.14295">
        <ele>755.40002441406</ele>
        <time>2019-10-11T15:47:30Z</time>
      </trkpt>
      <trkpt lat="44.15336" lon="6.1427">
        <ele>753.40002441406</ele>
        <time>2019-10-11T15:47:36Z</time>
      </trkpt>
      <trkpt lat="44.15246" lon="6.14212">
        <ele>751.79998779297</ele>
        <time>2019-10-11T15:47:50Z</time>
      </trkpt>
      <trkpt lat="44.15171" lon="6.14184">
        <ele>750.59997558594</ele>
        <time>2019-10-11T15:48:02Z</time>
      </trkpt>
      <trkpt lat="44.15141" lon="6.14169">
        <ele>750</ele>
        <time>2019-10-11T15:48:07Z</time>
      </trkpt>
      <trkpt lat="44.15104" lon="6.14135">
        <ele>749.40002441406</ele>
        <time>2019-10-11T15:48:13Z</time>
      </trkpt>
      <trkpt lat="44.15046" lon="6.14077">
        <ele>746.59997558594</ele>
        <time>2019-10-11T15:48:22Z</time>
      </trkpt>
      <trkpt lat="44.15026" lon="6.1406">
        <ele>745.40002441406</ele>
        <time>2019-10-11T15:48:25Z</time>
      </trkpt>
      <trkpt lat="44.14951" lon="6.14008">
        <ele>741.20001220703</ele>
        <time>2019-10-11T15:48:37Z</time>
      </trkpt>
      <trkpt lat="44.14933" lon="6.13981">
        <ele>741.20001220703</ele>
        <time>2019-10-11T15:48:41Z</time>
      </trkpt>
      <trkpt lat="44.14875" lon="6.13901">
        <ele>740.40002441406</ele>
        <time>2019-10-11T15:48:53Z</time>
      </trkpt>
      <trkpt lat="44.14829" lon="6.13854">
        <ele>740</ele>
        <time>2019-10-11T15:49:01Z</time>
      </trkpt>
      <trkpt lat="44.14773" lon="6.13827">
        <ele>738.59997558594</ele>
        <time>2019-10-11T15:49:09Z</time>
      </trkpt>
      <trkpt lat="44.14751" lon="6.13829">
        <ele>737.40002441406</ele>
        <time>2019-10-11T15:49:12Z</time>
      </trkpt>
      <trkpt lat="44.14719" lon="6.13832">
        <ele>736.59997558594</ele>
        <time>2019-10-11T15:49:16Z</time>
      </trkpt>
      <trkpt lat="44.14652" lon="6.13839">
        <ele>734.20001220703</ele>
        <time>2019-10-11T15:49:24Z</time>
      </trkpt>
      <trkpt lat="44.14621" lon="6.13839">
        <ele>732.79998779297</ele>
        <time>2019-10-11T15:49:28Z</time>
      </trkpt>
      <trkpt lat="44.14547" lon="6.13833">
        <ele>730.79998779297</ele>
        <time>2019-10-11T15:49:37Z</time>
      </trkpt>
      <trkpt lat="44.14528" lon="6.13828">
        <ele>730.20001220703</ele>
        <time>2019-10-11T15:49:41Z</time>
      </trkpt>
      <trkpt lat="44.1451" lon="6.13821">
        <ele>728.40002441406</ele>
        <time>2019-10-11T15:50:21Z</time>
      </trkpt>
      <trkpt lat="44.14509" lon="6.1382">
        <ele>728</ele>
        <time>2019-10-11T15:50:26Z</time>
      </trkpt>
      <trkpt lat="44.14512" lon="6.13832">
        <ele>727.40002441406</ele>
        <time>2019-10-11T15:53:53Z</time>
      </trkpt>
      <trkpt lat="44.14523" lon="6.13881">
        <ele>727.20001220703</ele>
        <time>2019-10-11T15:53:56Z</time>
      </trkpt>
      <trkpt lat="44.14535" lon="6.13936">
        <ele>726.59997558594</ele>
        <time>2019-10-11T15:54:03Z</time>
      </trkpt>
      <trkpt lat="44.14545" lon="6.13984">
        <ele>725.79998779297</ele>
        <time>2019-10-11T15:54:09Z</time>
      </trkpt>
      <trkpt lat="44.14541" lon="6.14064">
        <ele>725.40002441406</ele>
        <time>2019-10-11T15:54:19Z</time>
      </trkpt>
      <trkpt lat="44.14538" lon="6.14105">
        <ele>725.59997558594</ele>
        <time>2019-10-11T15:54:25Z</time>
      </trkpt>
      <trkpt lat="44.14538" lon="6.14124">
        <ele>725.79998779297</ele>
        <time>2019-10-11T15:54:28Z</time>
      </trkpt>
      <trkpt lat="44.14522" lon="6.14138">
        <ele>726.40002441406</ele>
        <time>2019-10-11T15:54:35Z</time>
      </trkpt>
      <trkpt lat="44.14508" lon="6.14136">
        <ele>726.40002441406</ele>
        <time>2019-10-11T15:54:38Z</time>
      </trkpt>
      <trkpt lat="44.1449" lon="6.14137">
        <ele>726.40002441406</ele>
        <time>2019-10-11T15:54:42Z</time>
      </trkpt>
      <trkpt lat="44.14479" lon="6.14138">
        <ele>726.20001220703</ele>
        <time>2019-10-11T15:54:45Z</time>
      </trkpt>
      <trkpt lat="44.14445" lon="6.1413">
        <ele>725.79998779297</ele>
        <time>2019-10-11T15:54:51Z</time>
      </trkpt>
      <trkpt lat="44.14431" lon="6.14118">
        <ele>725.59997558594</ele>
        <time>2019-10-11T15:54:54Z</time>
      </trkpt>
      <trkpt lat="44.14408" lon="6.14099">
        <ele>724.79998779297</ele>
        <time>2019-10-11T15:54:59Z</time>
      </trkpt>
      <trkpt lat="44.14396" lon="6.14095">
        <ele>724.79998779297</ele>
        <time>2019-10-11T15:55:01Z</time>
      </trkpt>
      <trkpt lat="44.14358" lon="6.14084">
        <ele>724.40002441406</ele>
        <time>2019-10-11T15:55:09Z</time>
      </trkpt>
      <trkpt lat="44.14336" lon="6.1408">
        <ele>724.20001220703</ele>
        <time>2019-10-11T15:55:13Z</time>
      </trkpt>
      <trkpt lat="44.14291" lon="6.14068">
        <ele>724</ele>
        <time>2019-10-11T15:55:21Z</time>
      </trkpt>
      <trkpt lat="44.14256" lon="6.14054">
        <ele>722.79998779297</ele>
        <time>2019-10-11T15:55:26Z</time>
      </trkpt>
      <trkpt lat="44.14227" lon="6.14045">
        <ele>721.79998779297</ele>
        <time>2019-10-11T15:55:30Z</time>
      </trkpt>
      <trkpt lat="44.14156" lon="6.14035">
        <ele>720.59997558594</ele>
        <time>2019-10-11T15:55:40Z</time>
      </trkpt>
      <trkpt lat="44.1412" lon="6.14029">
        <ele>720.40002441406</ele>
        <time>2019-10-11T15:55:45Z</time>
      </trkpt>
      <trkpt lat="44.14045" lon="6.14028">
        <ele>719.20001220703</ele>
        <time>2019-10-11T15:55:55Z</time>
      </trkpt>
      <trkpt lat="44.13993" lon="6.14022">
        <ele>719.79998779297</ele>
        <time>2019-10-11T15:56:07Z</time>
      </trkpt>
      <trkpt lat="44.13891" lon="6.14019">
        <ele>719.79998779297</ele>
        <time>2019-10-11T15:56:25Z</time>
      </trkpt>
      <trkpt lat="44.13857" lon="6.14025">
        <ele>718.79998779297</ele>
        <time>2019-10-11T15:56:30Z</time>
      </trkpt>
      <trkpt lat="44.13768" lon="6.14051">
        <ele>717.79998779297</ele>
        <time>2019-10-11T15:56:44Z</time>
      </trkpt>
      <trkpt lat="44.13747" lon="6.14066">
        <ele>717.20001220703</ele>
        <time>2019-10-11T15:56:48Z</time>
      </trkpt>
      <trkpt lat="44.13719" lon="6.1414">
        <ele>717.20001220703</ele>
        <time>2019-10-11T15:57:01Z</time>
      </trkpt>
      <trkpt lat="44.1371" lon="6.14164">
        <ele>718.20001220703</ele>
        <time>2019-10-11T15:57:07Z</time>
      </trkpt>
      <trkpt lat="44.13683" lon="6.14218">
        <ele>720.79998779297</ele>
        <time>2019-10-11T15:57:21Z</time>
      </trkpt>
      <trkpt lat="44.13665" lon="6.14246">
        <ele>721.20001220703</ele>
        <time>2019-10-11T15:57:29Z</time>
      </trkpt>
      <trkpt lat="44.1365" lon="6.14265">
        <ele>722.20001220703</ele>
        <time>2019-10-11T15:57:36Z</time>
      </trkpt>
      <trkpt lat="44.13613" lon="6.14315">
        <ele>724.59997558594</ele>
        <time>2019-10-11T15:57:54Z</time>
      </trkpt>
      <trkpt lat="44.13597" lon="6.14351">
        <ele>725.59997558594</ele>
        <time>2019-10-11T15:58:04Z</time>
      </trkpt>
      <trkpt lat="44.13583" lon="6.14386">
        <ele>726.59997558594</ele>
        <time>2019-10-11T15:58:13Z</time>
      </trkpt>
      <trkpt lat="44.13562" lon="6.1444">
        <ele>728.79998779297</ele>
        <time>2019-10-11T15:58:28Z</time>
      </trkpt>
      <trkpt lat="44.1355" lon="6.14472">
        <ele>730.40002441406</ele>
        <time>2019-10-11T15:58:38Z</time>
      </trkpt>
      <trkpt lat="44.13538" lon="6.14503">
        <ele>732.20001220703</ele>
        <time>2019-10-11T15:58:47Z</time>
      </trkpt>
      <trkpt lat="44.13525" lon="6.14537">
        <ele>733.79998779297</ele>
        <time>2019-10-11T15:58:57Z</time>
      </trkpt>
      <trkpt lat="44.13515" lon="6.14563">
        <ele>734.79998779297</ele>
        <time>2019-10-11T15:59:05Z</time>
      </trkpt>
      <trkpt lat="44.13498" lon="6.1461">
        <ele>737.59997558594</ele>
        <time>2019-10-11T15:59:21Z</time>
      </trkpt>
      <trkpt lat="44.13488" lon="6.14637">
        <ele>739.20001220703</ele>
        <time>2019-10-11T15:59:31Z</time>
      </trkpt>
      <trkpt lat="44.13477" lon="6.14668">
        <ele>740.59997558594</ele>
        <time>2019-10-11T15:59:41Z</time>
      </trkpt>
      <trkpt lat="44.13468" lon="6.14694">
        <ele>742.20001220703</ele>
        <time>2019-10-11T15:59:50Z</time>
      </trkpt>
      <trkpt lat="44.13447" lon="6.14752">
        <ele>744.79998779297</ele>
        <time>2019-10-11T16:00:06Z</time>
      </trkpt>
      <trkpt lat="44.13438" lon="6.14777">
        <ele>745</ele>
        <time>2019-10-11T16:00:11Z</time>
      </trkpt>
      <trkpt lat="44.1343" lon="6.14798">
        <ele>745</ele>
        <time>2019-10-11T16:00:15Z</time>
      </trkpt>
      <trkpt lat="44.13416" lon="6.14814">
        <ele>745</ele>
        <time>2019-10-11T16:00:20Z</time>
      </trkpt>
      <trkpt lat="44.13395" lon="6.1482">
        <ele>745.59997558594</ele>
        <time>2019-10-11T16:00:25Z</time>
      </trkpt>
      <trkpt lat="44.13375" lon="6.14839">
        <ele>745.59997558594</ele>
        <time>2019-10-11T16:00:30Z</time>
      </trkpt>
      <trkpt lat="44.13367" lon="6.14865">
        <ele>746</ele>
        <time>2019-10-11T16:00:35Z</time>
      </trkpt>
      <trkpt lat="44.13364" lon="6.14919">
        <ele>747.40002441406</ele>
        <time>2019-10-11T16:00:44Z</time>
      </trkpt>
      <trkpt lat="44.13362" lon="6.14973">
        <ele>748</ele>
        <time>2019-10-11T16:00:53Z</time>
      </trkpt>
      <trkpt lat="44.13357" lon="6.1503">
        <ele>748.79998779297</ele>
        <time>2019-10-11T16:01:03Z</time>
      </trkpt>
      <trkpt lat="44.13353" lon="6.15054">
        <ele>749.59997558594</ele>
        <time>2019-10-11T16:01:09Z</time>
      </trkpt>
      <trkpt lat="44.13345" lon="6.151">
        <ele>752</ele>
        <time>2019-10-11T16:01:21Z</time>
      </trkpt>
      <trkpt lat="44.13342" lon="6.15119">
        <ele>752.59997558594</ele>
        <time>2019-10-11T16:01:26Z</time>
      </trkpt>
      <trkpt lat="44.13333" lon="6.15164">
        <ele>754.40002441406</ele>
        <time>2019-10-11T16:01:38Z</time>
      </trkpt>
      <trkpt lat="44.13321" lon="6.15188">
        <ele>755.40002441406</ele>
        <time>2019-10-11T16:01:45Z</time>
      </trkpt>
      <trkpt lat="44.13311" lon="6.15209">
        <ele>756.40002441406</ele>
        <time>2019-10-11T16:01:52Z</time>
      </trkpt>
      <trkpt lat="44.13299" lon="6.15268">
        <ele>758.59997558594</ele>
        <time>2019-10-11T16:02:08Z</time>
      </trkpt>
      <trkpt lat="44.13289" lon="6.15294">
        <ele>759.59997558594</ele>
        <time>2019-10-11T16:02:16Z</time>
      </trkpt>
      <trkpt lat="44.13264" lon="6.15338">
        <ele>761.40002441406</ele>
        <time>2019-10-11T16:02:30Z</time>
      </trkpt>
      <trkpt lat="44.13246" lon="6.15344">
        <ele>762</ele>
        <time>2019-10-11T16:02:36Z</time>
      </trkpt>
      <trkpt lat="44.13216" lon="6.15345">
        <ele>763.79998779297</ele>
        <time>2019-10-11T16:02:48Z</time>
      </trkpt>
      <trkpt lat="44.1321" lon="6.15345">
        <ele>764.40002441406</ele>
        <time>2019-10-11T16:02:52Z</time>
      </trkpt>
      <trkpt lat="44.13183" lon="6.15351">
        <ele>767.59997558594</ele>
        <time>2019-10-11T16:03:07Z</time>
      </trkpt>
      <trkpt lat="44.1317" lon="6.1537">
        <ele>768.79998779297</ele>
        <time>2019-10-11T16:03:14Z</time>
      </trkpt>
      <trkpt lat="44.13159" lon="6.15381">
        <ele>769.59997558594</ele>
        <time>2019-10-11T16:03:20Z</time>
      </trkpt>
      <trkpt lat="44.13152" lon="6.15387">
        <ele>769.79998779297</ele>
        <time>2019-10-11T16:03:23Z</time>
      </trkpt>
      <trkpt lat="44.13122" lon="6.15399">
        <ele>770.79998779297</ele>
        <time>2019-10-11T16:03:33Z</time>
      </trkpt>
      <trkpt lat="44.13099" lon="6.15405">
        <ele>772.79998779297</ele>
        <time>2019-10-11T16:03:44Z</time>
      </trkpt>
      <trkpt lat="44.13081" lon="6.15409">
        <ele>773.40002441406</ele>
        <time>2019-10-11T16:03:51Z</time>
      </trkpt>
      <trkpt lat="44.1305" lon="6.1542">
        <ele>775.59997558594</ele>
        <time>2019-10-11T16:04:05Z</time>
      </trkpt>
      <trkpt lat="44.13037" lon="6.1543">
        <ele>776.40002441406</ele>
        <time>2019-10-11T16:04:12Z</time>
      </trkpt>
      <trkpt lat="44.1301" lon="6.15447">
        <ele>778.59997558594</ele>
        <time>2019-10-11T16:04:23Z</time>
      </trkpt>
      <trkpt lat="44.12988" lon="6.15441">
        <ele>780.20001220703</ele>
        <time>2019-10-11T16:04:31Z</time>
      </trkpt>
      <trkpt lat="44.12984" lon="6.15419">
        <ele>781.20001220703</ele>
        <time>2019-10-11T16:04:38Z</time>
      </trkpt>
      <trkpt lat="44.12993" lon="6.15395">
        <ele>782.20001220703</ele>
        <time>2019-10-11T16:04:45Z</time>
      </trkpt>
      <trkpt lat="44.13035" lon="6.1537">
        <ele>783.40002441406</ele>
        <time>2019-10-11T16:04:59Z</time>
      </trkpt>
      <trkpt lat="44.13058" lon="6.15372">
        <ele>784.20001220703</ele>
        <time>2019-10-11T16:05:06Z</time>
      </trkpt>
      <trkpt lat="44.13081" lon="6.15355">
        <ele>785.59997558594</ele>
        <time>2019-10-11T16:05:14Z</time>
      </trkpt>
      <trkpt lat="44.13099" lon="6.15323">
        <ele>787</ele>
        <time>2019-10-11T16:05:22Z</time>
      </trkpt>
      <trkpt lat="44.13124" lon="6.15288">
        <ele>788.79998779297</ele>
        <time>2019-10-11T16:05:33Z</time>
      </trkpt>
      <trkpt lat="44.13135" lon="6.15267">
        <ele>789.59997558594</ele>
        <time>2019-10-11T16:05:40Z</time>
      </trkpt>
      <trkpt lat="44.13131" lon="6.15209">
        <ele>791</ele>
        <time>2019-10-11T16:05:51Z</time>
      </trkpt>
      <trkpt lat="44.13132" lon="6.15178">
        <ele>791.79998779297</ele>
        <time>2019-10-11T16:05:59Z</time>
      </trkpt>
      <trkpt lat="44.13138" lon="6.15157">
        <ele>793</ele>
        <time>2019-10-11T16:06:06Z</time>
      </trkpt>
      <trkpt lat="44.13148" lon="6.15123">
        <ele>795</ele>
        <time>2019-10-11T16:06:16Z</time>
      </trkpt>
      <trkpt lat="44.13149" lon="6.151">
        <ele>796.40002441406</ele>
        <time>2019-10-11T16:06:24Z</time>
      </trkpt>
      <trkpt lat="44.13137" lon="6.15068">
        <ele>798.40002441406</ele>
        <time>2019-10-11T16:06:34Z</time>
      </trkpt>
      <trkpt lat="44.13111" lon="6.15044">
        <ele>800.40002441406</ele>
        <time>2019-10-11T16:06:46Z</time>
      </trkpt>
      <trkpt lat="44.13084" lon="6.15038">
        <ele>801.59997558594</ele>
        <time>2019-10-11T16:06:56Z</time>
      </trkpt>
      <trkpt lat="44.13065" lon="6.15032">
        <ele>803</ele>
        <time>2019-10-11T16:07:03Z</time>
      </trkpt>
      <trkpt lat="44.13047" lon="6.15009">
        <ele>804.40002441406</ele>
        <time>2019-10-11T16:07:14Z</time>
      </trkpt>
      <trkpt lat="44.1304" lon="6.1499">
        <ele>805.59997558594</ele>
        <time>2019-10-11T16:07:20Z</time>
      </trkpt>
      <trkpt lat="44.13026" lon="6.1495">
        <ele>807.79998779297</ele>
        <time>2019-10-11T16:07:33Z</time>
      </trkpt>
      <trkpt lat="44.13019" lon="6.14924">
        <ele>808.79998779297</ele>
        <time>2019-10-11T16:07:40Z</time>
      </trkpt>
      <trkpt lat="44.13016" lon="6.14913">
        <ele>809.79998779297</ele>
        <time>2019-10-11T16:07:46Z</time>
      </trkpt>
      <trkpt lat="44.13015" lon="6.14908">
        <ele>810.79998779297</ele>
        <time>2019-10-11T16:07:51Z</time>
      </trkpt>
      <trkpt lat="44.13014" lon="6.14896">
        <ele>811.59997558594</ele>
        <time>2019-10-11T16:12:05Z</time>
      </trkpt>
      <trkpt lat="44.13011" lon="6.14874">
        <ele>811.79998779297</ele>
        <time>2019-10-11T16:12:13Z</time>
      </trkpt>
      <trkpt lat="44.13009" lon="6.14855">
        <ele>812</ele>
        <time>2019-10-11T16:12:19Z</time>
      </trkpt>
      <trkpt lat="44.13007" lon="6.14833">
        <ele>813</ele>
        <time>2019-10-11T16:12:26Z</time>
      </trkpt>
      <trkpt lat="44.13005" lon="6.14819">
        <ele>814</ele>
        <time>2019-10-11T16:12:31Z</time>
      </trkpt>
      <trkpt lat="44.13001" lon="6.14794">
        <ele>815.20001220703</ele>
        <time>2019-10-11T16:12:39Z</time>
      </trkpt>
      <trkpt lat="44.12989" lon="6.14786">
        <ele>816</ele>
        <time>2019-10-11T16:12:46Z</time>
      </trkpt>
      <trkpt lat="44.12979" lon="6.14793">
        <ele>817.79998779297</ele>
        <time>2019-10-11T16:12:55Z</time>
      </trkpt>
      <trkpt lat="44.12971" lon="6.14813">
        <ele>819.20001220703</ele>
        <time>2019-10-11T16:13:04Z</time>
      </trkpt>
      <trkpt lat="44.1295" lon="6.1487">
        <ele>822</ele>
        <time>2019-10-11T16:13:28Z</time>
      </trkpt>
      <trkpt lat="44.1294" lon="6.14897">
        <ele>823.79998779297</ele>
        <time>2019-10-11T16:13:38Z</time>
      </trkpt>
      <trkpt lat="44.12929" lon="6.14932">
        <ele>825.40002441406</ele>
        <time>2019-10-11T16:13:50Z</time>
      </trkpt>
      <trkpt lat="44.12924" lon="6.14958">
        <ele>826.40002441406</ele>
        <time>2019-10-11T16:13:59Z</time>
      </trkpt>
      <trkpt lat="44.12922" lon="6.1497">
        <ele>827.20001220703</ele>
        <time>2019-10-11T16:14:05Z</time>
      </trkpt>
      <trkpt lat="44.12919" lon="6.14979">
        <ele>827.79998779297</ele>
        <time>2019-10-11T16:14:47Z</time>
      </trkpt>
      <trkpt lat="44.12919" lon="6.14984">
        <ele>827.79998779297</ele>
        <time>2019-10-11T16:14:50Z</time>
      </trkpt>
      <trkpt lat="44.12921" lon="6.15008">
        <ele>828</ele>
        <time>2019-10-11T16:15:00Z</time>
      </trkpt>
      <trkpt lat="44.12921" lon="6.15032">
        <ele>829.20001220703</ele>
        <time>2019-10-11T16:15:08Z</time>
      </trkpt>
      <trkpt lat="44.12921" lon="6.15056">
        <ele>830.20001220703</ele>
        <time>2019-10-11T16:15:16Z</time>
      </trkpt>
      <trkpt lat="44.12919" lon="6.15079">
        <ele>831</ele>
        <time>2019-10-11T16:15:23Z</time>
      </trkpt>
      <trkpt lat="44.12907" lon="6.15094">
        <ele>832.20001220703</ele>
        <time>2019-10-11T16:15:33Z</time>
      </trkpt>
      <trkpt lat="44.12889" lon="6.15102">
        <ele>833.59997558594</ele>
        <time>2019-10-11T16:15:43Z</time>
      </trkpt>
      <trkpt lat="44.12868" lon="6.15102">
        <ele>835</ele>
        <time>2019-10-11T16:15:53Z</time>
      </trkpt>
      <trkpt lat="44.12849" lon="6.15096">
        <ele>836.59997558594</ele>
        <time>2019-10-11T16:16:01Z</time>
      </trkpt>
      <trkpt lat="44.12829" lon="6.15086">
        <ele>838.20001220703</ele>
        <time>2019-10-11T16:16:10Z</time>
      </trkpt>
      <trkpt lat="44.1281" lon="6.15078">
        <ele>840.20001220703</ele>
        <time>2019-10-11T16:16:18Z</time>
      </trkpt>
      <trkpt lat="44.12794" lon="6.15076">
        <ele>841.59997558594</ele>
        <time>2019-10-11T16:16:25Z</time>
      </trkpt>
      <trkpt lat="44.12775" lon="6.15078">
        <ele>842.20001220703</ele>
        <time>2019-10-11T16:16:34Z</time>
      </trkpt>
      <trkpt lat="44.12755" lon="6.15081">
        <ele>843.20001220703</ele>
        <time>2019-10-11T16:16:42Z</time>
      </trkpt>
      <trkpt lat="44.12715" lon="6.15093">
        <ele>845</ele>
        <time>2019-10-11T16:16:58Z</time>
      </trkpt>
      <trkpt lat="44.12693" lon="6.15101">
        <ele>845.79998779297</ele>
        <time>2019-10-11T16:17:06Z</time>
      </trkpt>
      <trkpt lat="44.12652" lon="6.15136">
        <ele>847.79998779297</ele>
        <time>2019-10-11T16:17:23Z</time>
      </trkpt>
      <trkpt lat="44.12632" lon="6.15145">
        <ele>849</ele>
        <time>2019-10-11T16:17:31Z</time>
      </trkpt>
      <trkpt lat="44.12596" lon="6.15174">
        <ele>851.20001220703</ele>
        <time>2019-10-11T16:17:48Z</time>
      </trkpt>
      <trkpt lat="44.12553" lon="6.15179">
        <ele>853.59997558594</ele>
        <time>2019-10-11T16:18:02Z</time>
      </trkpt>
      <trkpt lat="44.12539" lon="6.15158">
        <ele>854.59997558594</ele>
        <time>2019-10-11T16:18:10Z</time>
      </trkpt>
      <trkpt lat="44.12544" lon="6.15118">
        <ele>856.79998779297</ele>
        <time>2019-10-11T16:18:22Z</time>
      </trkpt>
      <trkpt lat="44.12551" lon="6.15097">
        <ele>857.79998779297</ele>
        <time>2019-10-11T16:18:29Z</time>
      </trkpt>
      <trkpt lat="44.12554" lon="6.15065">
        <ele>859.40002441406</ele>
        <time>2019-10-11T16:18:39Z</time>
      </trkpt>
      <trkpt lat="44.12558" lon="6.15044">
        <ele>861</ele>
        <time>2019-10-11T16:19:13Z</time>
      </trkpt>
      <trkpt lat="44.12562" lon="6.15033">
        <ele>861</ele>
        <time>2019-10-11T16:19:17Z</time>
      </trkpt>
      <trkpt lat="44.12577" lon="6.15013">
        <ele>861.40002441406</ele>
        <time>2019-10-11T16:19:26Z</time>
      </trkpt>
      <trkpt lat="44.12595" lon="6.14997">
        <ele>863</ele>
        <time>2019-10-11T16:19:36Z</time>
      </trkpt>
      <trkpt lat="44.12608" lon="6.14982">
        <ele>864.20001220703</ele>
        <time>2019-10-11T16:19:43Z</time>
      </trkpt>
      <trkpt lat="44.1264" lon="6.14946">
        <ele>866.20001220703</ele>
        <time>2019-10-11T16:20:00Z</time>
      </trkpt>
      <trkpt lat="44.12659" lon="6.14925">
        <ele>867.59997558594</ele>
        <time>2019-10-11T16:20:10Z</time>
      </trkpt>
      <trkpt lat="44.12674" lon="6.14897">
        <ele>869.40002441406</ele>
        <time>2019-10-11T16:20:21Z</time>
      </trkpt>
      <trkpt lat="44.12682" lon="6.1487">
        <ele>870.79998779297</ele>
        <time>2019-10-11T16:20:30Z</time>
      </trkpt>
      <trkpt lat="44.12701" lon="6.14822">
        <ele>872.59997558594</ele>
        <time>2019-10-11T16:20:46Z</time>
      </trkpt>
      <trkpt lat="44.12711" lon="6.14798">
        <ele>873.79998779297</ele>
        <time>2019-10-11T16:20:54Z</time>
      </trkpt>
      <trkpt lat="44.12726" lon="6.14752">
        <ele>875.59997558594</ele>
        <time>2019-10-11T16:21:09Z</time>
      </trkpt>
      <trkpt lat="44.12735" lon="6.14723">
        <ele>877</ele>
        <time>2019-10-11T16:21:18Z</time>
      </trkpt>
      <trkpt lat="44.12753" lon="6.14678">
        <ele>879</ele>
        <time>2019-10-11T16:21:32Z</time>
      </trkpt>
      <trkpt lat="44.12762" lon="6.14642">
        <ele>880.59997558594</ele>
        <time>2019-10-11T16:21:42Z</time>
      </trkpt>
      <trkpt lat="44.12758" lon="6.14611">
        <ele>881.40002441406</ele>
        <time>2019-10-11T16:21:49Z</time>
      </trkpt>
      <trkpt lat="44.12762" lon="6.14552">
        <ele>882.40002441406</ele>
        <time>2019-10-11T16:22:02Z</time>
      </trkpt>
      <trkpt lat="44.12752" lon="6.14521">
        <ele>883.20001220703</ele>
        <time>2019-10-11T16:22:08Z</time>
      </trkpt>
      <trkpt lat="44.12715" lon="6.14493">
        <ele>883.79998779297</ele>
        <time>2019-10-11T16:22:17Z</time>
      </trkpt>
      <trkpt lat="44.12692" lon="6.14476">
        <ele>884</ele>
        <time>2019-10-11T16:22:23Z</time>
      </trkpt>
      <trkpt lat="44.12616" lon="6.14433">
        <ele>883.79998779297</ele>
        <time>2019-10-11T16:22:41Z</time>
      </trkpt>
      <trkpt lat="44.12611" lon="6.14436">
        <ele>883.79998779297</ele>
        <time>2019-10-11T16:22:43Z</time>
      </trkpt>
      <trkpt lat="44.126" lon="6.14448">
        <ele>884</ele>
        <time>2019-10-11T16:22:47Z</time>
      </trkpt>
      <trkpt lat="44.12585" lon="6.14465">
        <ele>883.79998779297</ele>
        <time>2019-10-11T16:22:52Z</time>
      </trkpt>
      <trkpt lat="44.1254" lon="6.14468">
        <ele>884.20001220703</ele>
        <time>2019-10-11T16:23:01Z</time>
      </trkpt>
      <trkpt lat="44.12513" lon="6.14442">
        <ele>884.59997558594</ele>
        <time>2019-10-11T16:23:07Z</time>
      </trkpt>
      <trkpt lat="44.12485" lon="6.14396">
        <ele>884.59997558594</ele>
        <time>2019-10-11T16:23:15Z</time>
      </trkpt>
      <trkpt lat="44.12465" lon="6.14365">
        <ele>884.59997558594</ele>
        <time>2019-10-11T16:23:21Z</time>
      </trkpt>
      <trkpt lat="44.12458" lon="6.14358">
        <ele>884.59997558594</ele>
        <time>2019-10-11T16:23:23Z</time>
      </trkpt>
      <trkpt lat="44.12424" lon="6.1435">
        <ele>884.59997558594</ele>
        <time>2019-10-11T16:23:31Z</time>
      </trkpt>
      <trkpt lat="44.12413" lon="6.14355">
        <ele>884.79998779297</ele>
        <time>2019-10-11T16:23:34Z</time>
      </trkpt>
      <trkpt lat="44.12383" lon="6.14369">
        <ele>885</ele>
        <time>2019-10-11T16:23:44Z</time>
      </trkpt>
      <trkpt lat="44.1237" lon="6.14375">
        <ele>886</ele>
        <time>2019-10-11T16:23:49Z</time>
      </trkpt>
      <trkpt lat="44.12346" lon="6.14386">
        <ele>887</ele>
        <time>2019-10-11T16:23:57Z</time>
      </trkpt>
      <trkpt lat="44.12327" lon="6.14396">
        <ele>887.79998779297</ele>
        <time>2019-10-11T16:24:03Z</time>
      </trkpt>
      <trkpt lat="44.12282" lon="6.1441">
        <ele>890.40002441406</ele>
        <time>2019-10-11T16:24:17Z</time>
      </trkpt>
      <trkpt lat="44.12236" lon="6.14402">
        <ele>891.40002441406</ele>
        <time>2019-10-11T16:24:28Z</time>
      </trkpt>
      <trkpt lat="44.12205" lon="6.14395">
        <ele>891.40002441406</ele>
        <time>2019-10-11T16:24:35Z</time>
      </trkpt>
      <trkpt lat="44.1217" lon="6.14387">
        <ele>891.79998779297</ele>
        <time>2019-10-11T16:24:43Z</time>
      </trkpt>
      <trkpt lat="44.1213" lon="6.14378">
        <ele>892</ele>
        <time>2019-10-11T16:24:52Z</time>
      </trkpt>
      <trkpt lat="44.12057" lon="6.1436">
        <ele>893.40002441406</ele>
        <time>2019-10-11T16:25:08Z</time>
      </trkpt>
      <trkpt lat="44.12023" lon="6.14352">
        <ele>893.59997558594</ele>
        <time>2019-10-11T16:25:16Z</time>
      </trkpt>
      <trkpt lat="44.11962" lon="6.1434">
        <ele>895.59997558594</ele>
        <time>2019-10-11T16:25:30Z</time>
      </trkpt>
      <trkpt lat="44.11911" lon="6.14344">
        <ele>896.20001220703</ele>
        <time>2019-10-11T16:25:41Z</time>
      </trkpt>
      <trkpt lat="44.11879" lon="6.14348">
        <ele>896.20001220703</ele>
        <time>2019-10-11T16:25:47Z</time>
      </trkpt>
      <trkpt lat="44.11847" lon="6.14351">
        <ele>895.20001220703</ele>
        <time>2019-10-11T16:25:53Z</time>
      </trkpt>
      <trkpt lat="44.11793" lon="6.14367">
        <ele>895</ele>
        <time>2019-10-11T16:26:04Z</time>
      </trkpt>
      <trkpt lat="44.11772" lon="6.1439">
        <ele>894.79998779297</ele>
        <time>2019-10-11T16:26:09Z</time>
      </trkpt>
      <trkpt lat="44.11717" lon="6.14438">
        <ele>894.59997558594</ele>
        <time>2019-10-11T16:26:21Z</time>
      </trkpt>
      <trkpt lat="44.11689" lon="6.1447">
        <ele>894.20001220703</ele>
        <time>2019-10-11T16:26:28Z</time>
      </trkpt>
      <trkpt lat="44.11653" lon="6.14487">
        <ele>894.20001220703</ele>
        <time>2019-10-11T16:26:35Z</time>
      </trkpt>
      <trkpt lat="44.11643" lon="6.1451">
        <ele>894.40002441406</ele>
        <time>2019-10-11T16:26:39Z</time>
      </trkpt>
      <trkpt lat="44.11609" lon="6.14569">
        <ele>894.20001220703</ele>
        <time>2019-10-11T16:26:50Z</time>
      </trkpt>
      <trkpt lat="44.11571" lon="6.14604">
        <ele>894</ele>
        <time>2019-10-11T16:26:58Z</time>
      </trkpt>
      <trkpt lat="44.11531" lon="6.14668">
        <ele>893.79998779297</ele>
        <time>2019-10-11T16:27:09Z</time>
      </trkpt>
      <trkpt lat="44.11519" lon="6.14696">
        <ele>893.79998779297</ele>
        <time>2019-10-11T16:27:14Z</time>
      </trkpt>
      <trkpt lat="44.11488" lon="6.14723">
        <ele>894</ele>
        <time>2019-10-11T16:27:22Z</time>
      </trkpt>
      <trkpt lat="44.11449" lon="6.14744">
        <ele>894.59997558594</ele>
        <time>2019-10-11T16:27:31Z</time>
      </trkpt>
      <trkpt lat="44.11415" lon="6.14752">
        <ele>894.79998779297</ele>
        <time>2019-10-11T16:27:37Z</time>
      </trkpt>
      <trkpt lat="44.11369" lon="6.14713">
        <ele>895</ele>
        <time>2019-10-11T16:27:46Z</time>
      </trkpt>
      <trkpt lat="44.11345" lon="6.1469">
        <ele>894.59997558594</ele>
        <time>2019-10-11T16:27:52Z</time>
      </trkpt>
      <trkpt lat="44.11303" lon="6.14675">
        <ele>894.40002441406</ele>
        <time>2019-10-11T16:27:59Z</time>
      </trkpt>
      <trkpt lat="44.11246" lon="6.14653">
        <ele>893.79998779297</ele>
        <time>2019-10-11T16:28:09Z</time>
      </trkpt>
      <trkpt lat="44.11187" lon="6.14637">
        <ele>893.20001220703</ele>
        <time>2019-10-11T16:28:20Z</time>
      </trkpt>
      <trkpt lat="44.11162" lon="6.14633">
        <ele>892.79998779297</ele>
        <time>2019-10-11T16:28:26Z</time>
      </trkpt>
      <trkpt lat="44.11151" lon="6.14629">
        <ele>893</ele>
        <time>2019-10-11T16:28:54Z</time>
      </trkpt>
      <trkpt lat="44.11141" lon="6.14629">
        <ele>892.79998779297</ele>
        <time>2019-10-11T16:28:58Z</time>
      </trkpt>
      <trkpt lat="44.11123" lon="6.14628">
        <ele>892.59997558594</ele>
        <time>2019-10-11T16:29:02Z</time>
      </trkpt>
      <trkpt lat="44.11116" lon="6.14619">
        <ele>892.79998779297</ele>
        <time>2019-10-11T16:29:04Z</time>
      </trkpt>
      <trkpt lat="44.11112" lon="6.14582">
        <ele>892.20001220703</ele>
        <time>2019-10-11T16:29:08Z</time>
      </trkpt>
      <trkpt lat="44.11116" lon="6.14558">
        <ele>892.20001220703</ele>
        <time>2019-10-11T16:29:11Z</time>
      </trkpt>
      <trkpt lat="44.11122" lon="6.14552">
        <ele>891.40002441406</ele>
        <time>2019-10-11T16:29:13Z</time>
      </trkpt>
      <trkpt lat="44.11137" lon="6.14517">
        <ele>890.59997558594</ele>
        <time>2019-10-11T16:29:16Z</time>
      </trkpt>
      <trkpt lat="44.11133" lon="6.14493">
        <ele>889.79998779297</ele>
        <time>2019-10-11T16:29:19Z</time>
      </trkpt>
      <trkpt lat="44.11092" lon="6.14463">
        <ele>887.79998779297</ele>
        <time>2019-10-11T16:29:28Z</time>
      </trkpt>
      <trkpt lat="44.11082" lon="6.14456">
        <ele>887.79998779297</ele>
        <time>2019-10-11T16:29:30Z</time>
      </trkpt>
      <trkpt lat="44.11045" lon="6.14421">
        <ele>887.59997558594</ele>
        <time>2019-10-11T16:29:37Z</time>
      </trkpt>
      <trkpt lat="44.11032" lon="6.14414">
        <ele>887</ele>
        <time>2019-10-11T16:29:39Z</time>
      </trkpt>
      <trkpt lat="44.11008" lon="6.1441">
        <ele>886.40002441406</ele>
        <time>2019-10-11T16:29:42Z</time>
      </trkpt>
      <trkpt lat="44.10983" lon="6.14403">
        <ele>885.59997558594</ele>
        <time>2019-10-11T16:29:45Z</time>
      </trkpt>
      <trkpt lat="44.10942" lon="6.14383">
        <ele>884</ele>
        <time>2019-10-11T16:29:50Z</time>
      </trkpt>
      <trkpt lat="44.10924" lon="6.14387">
        <ele>883</ele>
        <time>2019-10-11T16:29:52Z</time>
      </trkpt>
      <trkpt lat="44.10897" lon="6.14402">
        <ele>882</ele>
        <time>2019-10-11T16:29:55Z</time>
      </trkpt>
      <trkpt lat="44.10832" lon="6.14441">
        <ele>878.79998779297</ele>
        <time>2019-10-11T16:30:02Z</time>
      </trkpt>
      <trkpt lat="44.10812" lon="6.14443">
        <ele>878</ele>
        <time>2019-10-11T16:30:04Z</time>
      </trkpt>
      <trkpt lat="44.10765" lon="6.14417">
        <ele>875.20001220703</ele>
        <time>2019-10-11T16:30:09Z</time>
      </trkpt>
      <trkpt lat="44.10745" lon="6.14432">
        <ele>873.20001220703</ele>
        <time>2019-10-11T16:30:12Z</time>
      </trkpt>
      <trkpt lat="44.10719" lon="6.14456">
        <ele>870.40002441406</ele>
        <time>2019-10-11T16:30:16Z</time>
      </trkpt>
      <trkpt lat="44.10704" lon="6.14448">
        <ele>869.59997558594</ele>
        <time>2019-10-11T16:30:18Z</time>
      </trkpt>
      <trkpt lat="44.10664" lon="6.14447">
        <ele>867.79998779297</ele>
        <time>2019-10-11T16:30:23Z</time>
      </trkpt>
      <trkpt lat="44.10632" lon="6.14468">
        <ele>866.40002441406</ele>
        <time>2019-10-11T16:30:27Z</time>
      </trkpt>
      <trkpt lat="44.10586" lon="6.14484">
        <ele>864.79998779297</ele>
        <time>2019-10-11T16:30:32Z</time>
      </trkpt>
      <trkpt lat="44.10547" lon="6.14499">
        <ele>862.40002441406</ele>
        <time>2019-10-11T16:30:36Z</time>
      </trkpt>
      <trkpt lat="44.10498" lon="6.14516">
        <ele>860</ele>
        <time>2019-10-11T16:30:41Z</time>
      </trkpt>
      <trkpt lat="44.10446" lon="6.14526">
        <ele>857.20001220703</ele>
        <time>2019-10-11T16:30:46Z</time>
      </trkpt>
      <trkpt lat="44.10414" lon="6.14527">
        <ele>855.59997558594</ele>
        <time>2019-10-11T16:30:49Z</time>
      </trkpt>
      <trkpt lat="44.10381" lon="6.14556">
        <ele>854.20001220703</ele>
        <time>2019-10-11T16:30:53Z</time>
      </trkpt>
      <trkpt lat="44.10363" lon="6.14594">
        <ele>852.79998779297</ele>
        <time>2019-10-11T16:30:56Z</time>
      </trkpt>
      <trkpt lat="44.10354" lon="6.14634">
        <ele>851</ele>
        <time>2019-10-11T16:30:59Z</time>
      </trkpt>
      <trkpt lat="44.10349" lon="6.14679">
        <ele>849.40002441406</ele>
        <time>2019-10-11T16:31:02Z</time>
      </trkpt>
      <trkpt lat="44.1034" lon="6.14747">
        <ele>846.79998779297</ele>
        <time>2019-10-11T16:31:07Z</time>
      </trkpt>
      <trkpt lat="44.10333" lon="6.14765">
        <ele>845.59997558594</ele>
        <time>2019-10-11T16:31:09Z</time>
      </trkpt>
      <trkpt lat="44.10325" lon="6.14778">
        <ele>843.79998779297</ele>
        <time>2019-10-11T16:31:12Z</time>
      </trkpt>
      <trkpt lat="44.10306" lon="6.14785">
        <ele>840.59997558594</ele>
        <time>2019-10-11T16:31:16Z</time>
      </trkpt>
      <trkpt lat="44.10273" lon="6.14796">
        <ele>837.59997558594</ele>
        <time>2019-10-11T16:31:23Z</time>
      </trkpt>
      <trkpt lat="44.10275" lon="6.14796">
        <ele>833</ele>
        <time>2019-10-11T16:32:50Z</time>
      </trkpt>
      <trkpt lat="44.10257" lon="6.14801">
        <ele>833</ele>
        <time>2019-10-11T16:32:54Z</time>
      </trkpt>
      <trkpt lat="44.10238" lon="6.14814">
        <ele>833</ele>
        <time>2019-10-11T16:32:57Z</time>
      </trkpt>
      <trkpt lat="44.10172" lon="6.14892">
        <ele>830.79998779297</ele>
        <time>2019-10-11T16:33:08Z</time>
      </trkpt>
      <trkpt lat="44.10151" lon="6.14909">
        <ele>830</ele>
        <time>2019-10-11T16:33:11Z</time>
      </trkpt>
      <trkpt lat="44.10144" lon="6.14927">
        <ele>829.40002441406</ele>
        <time>2019-10-11T16:33:13Z</time>
      </trkpt>
      <trkpt lat="44.10141" lon="6.14962">
        <ele>829.20001220703</ele>
        <time>2019-10-11T16:33:16Z</time>
      </trkpt>
      <trkpt lat="44.10134" lon="6.15001">
        <ele>828.59997558594</ele>
        <time>2019-10-11T16:33:19Z</time>
      </trkpt>
      <trkpt lat="44.10113" lon="6.15029">
        <ele>827.59997558594</ele>
        <time>2019-10-11T16:33:22Z</time>
      </trkpt>
      <trkpt lat="44.10083" lon="6.15049">
        <ele>825.40002441406</ele>
        <time>2019-10-11T16:33:26Z</time>
      </trkpt>
      <trkpt lat="44.10046" lon="6.15085">
        <ele>822</ele>
        <time>2019-10-11T16:33:31Z</time>
      </trkpt>
      <trkpt lat="44.10039" lon="6.15108">
        <ele>821.20001220703</ele>
        <time>2019-10-11T16:33:33Z</time>
      </trkpt>
      <trkpt lat="44.1002" lon="6.15189">
        <ele>817.40002441406</ele>
        <time>2019-10-11T16:33:42Z</time>
      </trkpt>
      <trkpt lat="44.10019" lon="6.15195">
        <ele>816.20001220703</ele>
        <time>2019-10-11T16:34:20Z</time>
      </trkpt>
      <trkpt lat="44.10006" lon="6.15246">
        <ele>816</ele>
        <time>2019-10-11T16:34:29Z</time>
      </trkpt>
      <trkpt lat="44.09997" lon="6.1527">
        <ele>815.79998779297</ele>
        <time>2019-10-11T16:34:32Z</time>
      </trkpt>
      <trkpt lat="44.09963" lon="6.15363">
        <ele>813.79998779297</ele>
        <time>2019-10-11T16:34:42Z</time>
      </trkpt>
      <trkpt lat="44.09939" lon="6.15428">
        <ele>811.59997558594</ele>
        <time>2019-10-11T16:34:49Z</time>
      </trkpt>
      <trkpt lat="44.09927" lon="6.15475">
        <ele>811.40002441406</ele>
        <time>2019-10-11T16:34:54Z</time>
      </trkpt>
      <trkpt lat="44.09918" lon="6.15504">
        <ele>811.20001220703</ele>
        <time>2019-10-11T16:34:57Z</time>
      </trkpt>
      <trkpt lat="44.09908" lon="6.15522">
        <ele>810.79998779297</ele>
        <time>2019-10-11T16:34:59Z</time>
      </trkpt>
      <trkpt lat="44.0987" lon="6.15555">
        <ele>809.59997558594</ele>
        <time>2019-10-11T16:35:04Z</time>
      </trkpt>
      <trkpt lat="44.09834" lon="6.15571">
        <ele>808.40002441406</ele>
        <time>2019-10-11T16:35:08Z</time>
      </trkpt>
      <trkpt lat="44.09789" lon="6.15589">
        <ele>805.40002441406</ele>
        <time>2019-10-11T16:35:13Z</time>
      </trkpt>
      <trkpt lat="44.09765" lon="6.15591">
        <ele>803.59997558594</ele>
        <time>2019-10-11T16:35:16Z</time>
      </trkpt>
      <trkpt lat="44.09746" lon="6.15594">
        <ele>801.20001220703</ele>
        <time>2019-10-11T16:35:20Z</time>
      </trkpt>
      <trkpt lat="44.09759" lon="6.15605">
        <ele>799.59997558594</ele>
        <time>2019-10-11T16:35:23Z</time>
      </trkpt>
      <trkpt lat="44.09812" lon="6.15605">
        <ele>796.20001220703</ele>
        <time>2019-10-11T16:35:31Z</time>
      </trkpt>
      <trkpt lat="44.09861" lon="6.15608">
        <ele>794.40002441406</ele>
        <time>2019-10-11T16:35:37Z</time>
      </trkpt>
      <trkpt lat="44.09912" lon="6.15603">
        <ele>792</ele>
        <time>2019-10-11T16:35:43Z</time>
      </trkpt>
      <trkpt lat="44.09929" lon="6.15595">
        <ele>791.20001220703</ele>
        <time>2019-10-11T16:35:45Z</time>
      </trkpt>
      <trkpt lat="44.09946" lon="6.15585">
        <ele>790.40002441406</ele>
        <time>2019-10-11T16:35:47Z</time>
      </trkpt>
      <trkpt lat="44.10004" lon="6.15535">
        <ele>787.40002441406</ele>
        <time>2019-10-11T16:35:54Z</time>
      </trkpt>
      <trkpt lat="44.10052" lon="6.15514">
        <ele>785.40002441406</ele>
        <time>2019-10-11T16:35:59Z</time>
      </trkpt>
      <trkpt lat="44.10091" lon="6.15491">
        <ele>783.40002441406</ele>
        <time>2019-10-11T16:36:03Z</time>
      </trkpt>
      <trkpt lat="44.10128" lon="6.15457">
        <ele>781</ele>
        <time>2019-10-11T16:36:07Z</time>
      </trkpt>
      <trkpt lat="44.10146" lon="6.15436">
        <ele>778.20001220703</ele>
        <time>2019-10-11T16:36:11Z</time>
      </trkpt>
      <trkpt lat="44.10152" lon="6.1544">
        <ele>776.59997558594</ele>
        <time>2019-10-11T16:36:13Z</time>
      </trkpt>
      <trkpt lat="44.10148" lon="6.15458">
        <ele>774.79998779297</ele>
        <time>2019-10-11T16:36:16Z</time>
      </trkpt>
      <trkpt lat="44.10128" lon="6.15495">
        <ele>772.40002441406</ele>
        <time>2019-10-11T16:36:21Z</time>
      </trkpt>
      <trkpt lat="44.10102" lon="6.15542">
        <ele>769.79998779297</ele>
        <time>2019-10-11T16:36:26Z</time>
      </trkpt>
      <trkpt lat="44.10079" lon="6.15585">
        <ele>768.79998779297</ele>
        <time>2019-10-11T16:36:30Z</time>
      </trkpt>
      <trkpt lat="44.10055" lon="6.15637">
        <ele>766.59997558594</ele>
        <time>2019-10-11T16:36:34Z</time>
      </trkpt>
      <trkpt lat="44.10041" lon="6.15678">
        <ele>764.59997558594</ele>
        <time>2019-10-11T16:36:37Z</time>
      </trkpt>
      <trkpt lat="44.10024" lon="6.15726">
        <ele>761.20001220703</ele>
        <time>2019-10-11T16:36:41Z</time>
      </trkpt>
      <trkpt lat="44.10008" lon="6.15737">
        <ele>759.59997558594</ele>
        <time>2019-10-11T16:36:43Z</time>
      </trkpt>
      <trkpt lat="44.0997" lon="6.15762">
        <ele>757.79998779297</ele>
        <time>2019-10-11T16:36:47Z</time>
      </trkpt>
      <trkpt lat="44.09921" lon="6.15807">
        <ele>754.79998779297</ele>
        <time>2019-10-11T16:36:52Z</time>
      </trkpt>
      <trkpt lat="44.09898" lon="6.15842">
        <ele>752.59997558594</ele>
        <time>2019-10-11T16:36:55Z</time>
      </trkpt>
      <trkpt lat="44.09843" lon="6.15923">
        <ele>746.59997558594</ele>
        <time>2019-10-11T16:37:03Z</time>
      </trkpt>
      <trkpt lat="44.09814" lon="6.1594">
        <ele>745.20001220703</ele>
        <time>2019-10-11T16:37:07Z</time>
      </trkpt>
      <trkpt lat="44.09778" lon="6.15951">
        <ele>744.79998779297</ele>
        <time>2019-10-11T16:37:11Z</time>
      </trkpt>
      <trkpt lat="44.09761" lon="6.15963">
        <ele>744.20001220703</ele>
        <time>2019-10-11T16:37:13Z</time>
      </trkpt>
      <trkpt lat="44.09737" lon="6.15985">
        <ele>743.20001220703</ele>
        <time>2019-10-11T16:37:16Z</time>
      </trkpt>
      <trkpt lat="44.09707" lon="6.16015">
        <ele>741.59997558594</ele>
        <time>2019-10-11T16:37:20Z</time>
      </trkpt>
      <trkpt lat="44.09662" lon="6.16057">
        <ele>738.59997558594</ele>
        <time>2019-10-11T16:37:26Z</time>
      </trkpt>
      <trkpt lat="44.09641" lon="6.16078">
        <ele>737</ele>
        <time>2019-10-11T16:37:29Z</time>
      </trkpt>
      <trkpt lat="44.09619" lon="6.1615">
        <ele>732</ele>
        <time>2019-10-11T16:37:35Z</time>
      </trkpt>
      <trkpt lat="44.09614" lon="6.16195">
        <ele>728.59997558594</ele>
        <time>2019-10-11T16:37:40Z</time>
      </trkpt>
      <trkpt lat="44.09597" lon="6.16223">
        <ele>725.59997558594</ele>
        <time>2019-10-11T16:37:44Z</time>
      </trkpt>
      <trkpt lat="44.09573" lon="6.16231">
        <ele>723.20001220703</ele>
        <time>2019-10-11T16:37:48Z</time>
      </trkpt>
      <trkpt lat="44.09554" lon="6.16212">
        <ele>721.59997558594</ele>
        <time>2019-10-11T16:37:52Z</time>
      </trkpt>
      <trkpt lat="44.0953" lon="6.16183">
        <ele>720.20001220703</ele>
        <time>2019-10-11T16:38:03Z</time>
      </trkpt>
      <trkpt lat="44.09526" lon="6.16179">
        <ele>720.20001220703</ele>
        <time>2019-10-11T16:38:05Z</time>
      </trkpt>
      <trkpt lat="44.09485" lon="6.16173">
        <ele>719.59997558594</ele>
        <time>2019-10-11T16:38:16Z</time>
      </trkpt>
      <trkpt lat="44.09453" lon="6.16181">
        <ele>718.40002441406</ele>
        <time>2019-10-11T16:38:25Z</time>
      </trkpt>
      <trkpt lat="44.09449" lon="6.16181">
        <ele>716.79998779297</ele>
        <time>2019-10-11T16:38:42Z</time>
      </trkpt>
      <trkpt lat="44.09438" lon="6.16183">
        <ele>716.59997558594</ele>
        <time>2019-10-11T16:38:47Z</time>
      </trkpt>
      <trkpt lat="44.09407" lon="6.16187">
        <ele>715.79998779297</ele>
        <time>2019-10-11T16:38:54Z</time>
      </trkpt>
      <trkpt lat="44.09387" lon="6.16185">
        <ele>715.20001220703</ele>
        <time>2019-10-11T16:38:57Z</time>
      </trkpt>
      <trkpt lat="44.09358" lon="6.16167">
        <ele>714.40002441406</ele>
        <time>2019-10-11T16:39:01Z</time>
      </trkpt>
      <trkpt lat="44.09319" lon="6.16142">
        <ele>713</ele>
        <time>2019-10-11T16:39:06Z</time>
      </trkpt>
      <trkpt lat="44.09284" lon="6.16114">
        <ele>711.40002441406</ele>
        <time>2019-10-11T16:39:10Z</time>
      </trkpt>
      <trkpt lat="44.09223" lon="6.16078">
        <ele>707.59997558594</ele>
        <time>2019-10-11T16:39:16Z</time>
      </trkpt>
      <trkpt lat="44.09184" lon="6.16047">
        <ele>705</ele>
        <time>2019-10-11T16:39:20Z</time>
      </trkpt>
      <trkpt lat="44.09152" lon="6.16006">
        <ele>702.20001220703</ele>
        <time>2019-10-11T16:39:24Z</time>
      </trkpt>
      <trkpt lat="44.09126" lon="6.15977">
        <ele>700.20001220703</ele>
        <time>2019-10-11T16:39:27Z</time>
      </trkpt>
      <trkpt lat="44.09078" lon="6.15912">
        <ele>696.79998779297</ele>
        <time>2019-10-11T16:39:33Z</time>
      </trkpt>
      <trkpt lat="44.09064" lon="6.15891">
        <ele>695</ele>
        <time>2019-10-11T16:39:35Z</time>
      </trkpt>
      <trkpt lat="44.09026" lon="6.15846">
        <ele>691</ele>
        <time>2019-10-11T16:39:40Z</time>
      </trkpt>
      <trkpt lat="44.08983" lon="6.15812">
        <ele>688.20001220703</ele>
        <time>2019-10-11T16:39:45Z</time>
      </trkpt>
      <trkpt lat="44.08949" lon="6.15815">
        <ele>685.79998779297</ele>
        <time>2019-10-11T16:39:49Z</time>
      </trkpt>
      <trkpt lat="44.08911" lon="6.15838">
        <ele>683</ele>
        <time>2019-10-11T16:39:54Z</time>
      </trkpt>
      <trkpt lat="44.08842" lon="6.15878">
        <ele>681.79998779297</ele>
        <time>2019-10-11T16:40:03Z</time>
      </trkpt>
      <trkpt lat="44.08828" lon="6.15893">
        <ele>681.40002441406</ele>
        <time>2019-10-11T16:40:05Z</time>
      </trkpt>
      <trkpt lat="44.08816" lon="6.15937">
        <ele>680.59997558594</ele>
        <time>2019-10-11T16:40:09Z</time>
      </trkpt>
      <trkpt lat="44.08818" lon="6.16006">
        <ele>679</ele>
        <time>2019-10-11T16:40:14Z</time>
      </trkpt>
      <trkpt lat="44.0882" lon="6.16034">
        <ele>678.20001220703</ele>
        <time>2019-10-11T16:40:16Z</time>
      </trkpt>
      <trkpt lat="44.08831" lon="6.16105">
        <ele>675</ele>
        <time>2019-10-11T16:40:22Z</time>
      </trkpt>
      <trkpt lat="44.0884" lon="6.16156">
        <ele>672.79998779297</ele>
        <time>2019-10-11T16:40:27Z</time>
      </trkpt>
      <trkpt lat="44.08846" lon="6.16235">
        <ele>670.20001220703</ele>
        <time>2019-10-11T16:40:34Z</time>
      </trkpt>
      <trkpt lat="44.08839" lon="6.16267">
        <ele>669.40002441406</ele>
        <time>2019-10-11T16:40:37Z</time>
      </trkpt>
      <trkpt lat="44.08822" lon="6.16313">
        <ele>668.20001220703</ele>
        <time>2019-10-11T16:40:41Z</time>
      </trkpt>
      <trkpt lat="44.08809" lon="6.16331">
        <ele>667.59997558594</ele>
        <time>2019-10-11T16:40:43Z</time>
      </trkpt>
      <trkpt lat="44.08765" lon="6.16392">
        <ele>665.40002441406</ele>
        <time>2019-10-11T16:40:49Z</time>
      </trkpt>
      <trkpt lat="44.08762" lon="6.16421">
        <ele>664.20001220703</ele>
        <time>2019-10-11T16:40:51Z</time>
      </trkpt>
      <trkpt lat="44.08757" lon="6.16495">
        <ele>661.40002441406</ele>
        <time>2019-10-11T16:40:56Z</time>
      </trkpt>
      <trkpt lat="44.08749" lon="6.16524">
        <ele>660.40002441406</ele>
        <time>2019-10-11T16:40:58Z</time>
      </trkpt>
      <trkpt lat="44.08725" lon="6.16569">
        <ele>658.40002441406</ele>
        <time>2019-10-11T16:41:02Z</time>
      </trkpt>
      <trkpt lat="44.08706" lon="6.1658">
        <ele>657</ele>
        <time>2019-10-11T16:41:04Z</time>
      </trkpt>
      <trkpt lat="44.08672" lon="6.16587">
        <ele>654.20001220703</ele>
        <time>2019-10-11T16:41:07Z</time>
      </trkpt>
      <trkpt lat="44.08633" lon="6.16612">
        <ele>650.79998779297</ele>
        <time>2019-10-11T16:41:11Z</time>
      </trkpt>
      <trkpt lat="44.08614" lon="6.16628">
        <ele>649</ele>
        <time>2019-10-11T16:41:13Z</time>
      </trkpt>
      <trkpt lat="44.08583" lon="6.16676">
        <ele>646.20001220703</ele>
        <time>2019-10-11T16:41:17Z</time>
      </trkpt>
      <trkpt lat="44.08566" lon="6.16733">
        <ele>643.40002441406</ele>
        <time>2019-10-11T16:41:21Z</time>
      </trkpt>
      <trkpt lat="44.08531" lon="6.16862">
        <ele>638.40002441406</ele>
        <time>2019-10-11T16:41:30Z</time>
      </trkpt>
      <trkpt lat="44.0852" lon="6.1689">
        <ele>637.20001220703</ele>
        <time>2019-10-11T16:41:32Z</time>
      </trkpt>
      <trkpt lat="44.08482" lon="6.16985">
        <ele>632.79998779297</ele>
        <time>2019-10-11T16:41:39Z</time>
      </trkpt>
      <trkpt lat="44.08471" lon="6.17013">
        <ele>631.59997558594</ele>
        <time>2019-10-11T16:41:41Z</time>
      </trkpt>
      <trkpt lat="44.08445" lon="6.17081">
        <ele>628.40002441406</ele>
        <time>2019-10-11T16:41:46Z</time>
      </trkpt>
      <trkpt lat="44.08427" lon="6.17123">
        <ele>626.40002441406</ele>
        <time>2019-10-11T16:41:49Z</time>
      </trkpt>
      <trkpt lat="44.08391" lon="6.17206">
        <ele>622.79998779297</ele>
        <time>2019-10-11T16:41:55Z</time>
      </trkpt>
      <trkpt lat="44.08374" lon="6.17245">
        <ele>620.20001220703</ele>
        <time>2019-10-11T16:41:58Z</time>
      </trkpt>
      <trkpt lat="44.08352" lon="6.17297">
        <ele>617.20001220703</ele>
        <time>2019-10-11T16:42:02Z</time>
      </trkpt>
      <trkpt lat="44.08328" lon="6.17355">
        <ele>614.20001220703</ele>
        <time>2019-10-11T16:42:07Z</time>
      </trkpt>
      <trkpt lat="44.08319" lon="6.17377">
        <ele>613.40002441406</ele>
        <time>2019-10-11T16:42:09Z</time>
      </trkpt>
      <trkpt lat="44.0828" lon="6.17435">
        <ele>610.59997558594</ele>
        <time>2019-10-11T16:42:16Z</time>
      </trkpt>
      <trkpt lat="44.08265" lon="6.17444">
        <ele>609.59997558594</ele>
        <time>2019-10-11T16:42:18Z</time>
      </trkpt>
      <trkpt lat="44.08232" lon="6.17457">
        <ele>607.40002441406</ele>
        <time>2019-10-11T16:42:22Z</time>
      </trkpt>
      <trkpt lat="44.08202" lon="6.17458">
        <ele>606.40002441406</ele>
        <time>2019-10-11T16:42:25Z</time>
      </trkpt>
      <trkpt lat="44.08163" lon="6.1746">
        <ele>604.40002441406</ele>
        <time>2019-10-11T16:42:30Z</time>
      </trkpt>
      <trkpt lat="44.08112" lon="6.1746">
        <ele>602.20001220703</ele>
        <time>2019-10-11T16:42:34Z</time>
      </trkpt>
      <trkpt lat="44.07985" lon="6.1748">
        <ele>596.59997558594</ele>
        <time>2019-10-11T16:42:48Z</time>
      </trkpt>
      <trkpt lat="44.07951" lon="6.17492">
        <ele>595.20001220703</ele>
        <time>2019-10-11T16:42:52Z</time>
      </trkpt>
      <trkpt lat="44.07885" lon="6.17514">
        <ele>592.79998779297</ele>
        <time>2019-10-11T16:43:00Z</time>
      </trkpt>
      <trkpt lat="44.07852" lon="6.17526">
        <ele>591.20001220703</ele>
        <time>2019-10-11T16:43:04Z</time>
      </trkpt>
      <trkpt lat="44.07803" lon="6.17541">
        <ele>589.59997558594</ele>
        <time>2019-10-11T16:43:10Z</time>
      </trkpt>
      <trkpt lat="44.07745" lon="6.17554">
        <ele>587</ele>
        <time>2019-10-11T16:43:17Z</time>
      </trkpt>
      <trkpt lat="44.07709" lon="6.17561">
        <ele>586.20001220703</ele>
        <time>2019-10-11T16:43:21Z</time>
      </trkpt>
      <trkpt lat="44.07636" lon="6.17573">
        <ele>583.20001220703</ele>
        <time>2019-10-11T16:43:29Z</time>
      </trkpt>
      <trkpt lat="44.07584" lon="6.17586">
        <ele>581.20001220703</ele>
        <time>2019-10-11T16:43:35Z</time>
      </trkpt>
      <trkpt lat="44.07549" lon="6.17619">
        <ele>579</ele>
        <time>2019-10-11T16:43:40Z</time>
      </trkpt>
      <trkpt lat="44.07507" lon="6.1767">
        <ele>577.59997558594</ele>
        <time>2019-10-11T16:43:47Z</time>
      </trkpt>
      <trkpt lat="44.07466" lon="6.177">
        <ele>576.20001220703</ele>
        <time>2019-10-11T16:43:53Z</time>
      </trkpt>
      <trkpt lat="44.07412" lon="6.17733">
        <ele>574.40002441406</ele>
        <time>2019-10-11T16:44:00Z</time>
      </trkpt>
      <trkpt lat="44.07368" lon="6.1776">
        <ele>572.40002441406</ele>
        <time>2019-10-11T16:44:06Z</time>
      </trkpt>
      <trkpt lat="44.07341" lon="6.1779">
        <ele>571</ele>
        <time>2019-10-11T16:44:10Z</time>
      </trkpt>
      <trkpt lat="44.07278" lon="6.17888">
        <ele>567.79998779297</ele>
        <time>2019-10-11T16:44:22Z</time>
      </trkpt>
      <trkpt lat="44.07234" lon="6.17969">
        <ele>567.20001220703</ele>
        <time>2019-10-11T16:44:35Z</time>
      </trkpt>
      <trkpt lat="44.07227" lon="6.17978">
        <ele>567.20001220703</ele>
        <time>2019-10-11T16:44:39Z</time>
      </trkpt>
      <trkpt lat="44.0721" lon="6.1799">
        <ele>566.79998779297</ele>
        <time>2019-10-11T16:44:44Z</time>
      </trkpt>
      <trkpt lat="44.07207" lon="6.1802">
        <ele>566.40002441406</ele>
        <time>2019-10-11T16:44:48Z</time>
      </trkpt>
      <trkpt lat="44.07229" lon="6.18038">
        <ele>566.20001220703</ele>
        <time>2019-10-11T16:44:55Z</time>
      </trkpt>
      <trkpt lat="44.07243" lon="6.18054">
        <ele>566</ele>
        <time>2019-10-11T16:44:59Z</time>
      </trkpt>
      <trkpt lat="44.07265" lon="6.18085">
        <ele>565.79998779297</ele>
        <time>2019-10-11T16:45:05Z</time>
      </trkpt>
      <trkpt lat="44.07291" lon="6.1812">
        <ele>565.79998779297</ele>
        <time>2019-10-11T16:45:13Z</time>
      </trkpt>
      <trkpt lat="44.07353" lon="6.18197">
        <ele>565</ele>
        <time>2019-10-11T16:45:26Z</time>
      </trkpt>
      <trkpt lat="44.07418" lon="6.18277">
        <ele>564.40002441406</ele>
        <time>2019-10-11T16:45:40Z</time>
      </trkpt>
      <trkpt lat="44.07519" lon="6.18402">
        <ele>564.59997558594</ele>
        <time>2019-10-11T16:46:05Z</time>
      </trkpt>
      <trkpt lat="44.07568" lon="6.18464">
        <ele>565.20001220703</ele>
        <time>2019-10-11T16:46:17Z</time>
      </trkpt>
      <trkpt lat="44.07629" lon="6.18542">
        <ele>565.59997558594</ele>
        <time>2019-10-11T16:46:33Z</time>
      </trkpt>
      <trkpt lat="44.07677" lon="6.18623">
        <ele>566.40002441406</ele>
        <time>2019-10-11T16:46:48Z</time>
      </trkpt>
      <trkpt lat="44.07697" lon="6.18671">
        <ele>566.40002441406</ele>
        <time>2019-10-11T16:46:56Z</time>
      </trkpt>
      <trkpt lat="44.07687" lon="6.18701">
        <ele>566.59997558594</ele>
        <time>2019-10-11T16:47:01Z</time>
      </trkpt>
      <trkpt lat="44.07685" lon="6.18718">
        <ele>566.59997558594</ele>
        <time>2019-10-11T16:47:03Z</time>
      </trkpt>
      <trkpt lat="44.0771" lon="6.18734">
        <ele>566.59997558594</ele>
        <time>2019-10-11T16:47:08Z</time>
      </trkpt>
      <trkpt lat="44.07729" lon="6.18747">
        <ele>566.79998779297</ele>
        <time>2019-10-11T16:47:13Z</time>
      </trkpt>
      <trkpt lat="44.07746" lon="6.18758">
        <ele>567.20001220703</ele>
        <time>2019-10-11T16:47:17Z</time>
      </trkpt>
      <trkpt lat="44.07764" lon="6.18793">
        <ele>567.40002441406</ele>
        <time>2019-10-11T16:47:23Z</time>
      </trkpt>
      <trkpt lat="44.07841" lon="6.1895">
        <ele>568.20001220703</ele>
        <time>2019-10-11T16:47:49Z</time>
      </trkpt>
      <trkpt lat="44.0786" lon="6.18991">
        <ele>569</ele>
        <time>2019-10-11T16:47:56Z</time>
      </trkpt>
      <trkpt lat="44.07897" lon="6.19079">
        <ele>569.79998779297</ele>
        <time>2019-10-11T16:48:10Z</time>
      </trkpt>
      <trkpt lat="44.07914" lon="6.19125">
        <ele>570</ele>
        <time>2019-10-11T16:48:17Z</time>
      </trkpt>
      <trkpt lat="44.07952" lon="6.19223">
        <ele>570</ele>
        <time>2019-10-11T16:48:32Z</time>
      </trkpt>
      <trkpt lat="44.07959" lon="6.19243">
        <ele>570.20001220703</ele>
        <time>2019-10-11T16:48:35Z</time>
      </trkpt>
      <trkpt lat="44.07972" lon="6.19278">
        <ele>570.20001220703</ele>
        <time>2019-10-11T16:48:41Z</time>
      </trkpt>
      <trkpt lat="44.07982" lon="6.19302">
        <ele>570.40002441406</ele>
        <time>2019-10-11T16:48:47Z</time>
      </trkpt>
      <trkpt lat="44.07975" lon="6.19333">
        <ele>570.79998779297</ele>
        <time>2019-10-11T16:48:53Z</time>
      </trkpt>
      <trkpt lat="44.08002" lon="6.19361">
        <ele>571.79998779297</ele>
        <time>2019-10-11T16:49:02Z</time>
      </trkpt>
      <trkpt lat="44.0801" lon="6.19365">
        <ele>572.20001220703</ele>
        <time>2019-10-11T16:49:04Z</time>
      </trkpt>
      <trkpt lat="44.08026" lon="6.19409">
        <ele>574.20001220703</ele>
        <time>2019-10-11T16:49:14Z</time>
      </trkpt>
      <trkpt lat="44.0804" lon="6.1944">
        <ele>575.59997558594</ele>
        <time>2019-10-11T16:49:22Z</time>
      </trkpt>
      <trkpt lat="44.08064" lon="6.19495">
        <ele>577.59997558594</ele>
        <time>2019-10-11T16:49:36Z</time>
      </trkpt>
      <trkpt lat="44.08072" lon="6.19514">
        <ele>578.59997558594</ele>
        <time>2019-10-11T16:49:41Z</time>
      </trkpt>
      <trkpt lat="44.0809" lon="6.19559">
        <ele>580.79998779297</ele>
        <time>2019-10-11T16:49:56Z</time>
      </trkpt>
      <trkpt lat="44.08106" lon="6.196">
        <ele>582</ele>
        <time>2019-10-11T16:50:07Z</time>
      </trkpt>
      <trkpt lat="44.0811" lon="6.19609">
        <ele>582.40002441406</ele>
        <time>2019-10-11T16:50:12Z</time>
      </trkpt>
      <trkpt lat="44.08114" lon="6.19619">
        <ele>582.40002441406</ele>
        <time>2019-10-11T16:51:48Z</time>
      </trkpt>
      <trkpt lat="44.08142" lon="6.19715">
        <ele>583</ele>
        <time>2019-10-11T16:52:06Z</time>
      </trkpt>
      <trkpt lat="44.08147" lon="6.19729">
        <ele>583</ele>
        <time>2019-10-11T16:52:08Z</time>
      </trkpt>
      <trkpt lat="44.08159" lon="6.19774">
        <ele>583.20001220703</ele>
        <time>2019-10-11T16:52:15Z</time>
      </trkpt>
      <trkpt lat="44.08185" lon="6.19872">
        <ele>583.79998779297</ele>
        <time>2019-10-11T16:52:31Z</time>
      </trkpt>
      <trkpt lat="44.08196" lon="6.19912">
        <ele>584.59997558594</ele>
        <time>2019-10-11T16:52:38Z</time>
      </trkpt>
      <trkpt lat="44.08224" lon="6.20004">
        <ele>586.20001220703</ele>
        <time>2019-10-11T16:52:52Z</time>
      </trkpt>
      <trkpt lat="44.08247" lon="6.20082">
        <ele>587</ele>
        <time>2019-10-11T16:53:04Z</time>
      </trkpt>
      <trkpt lat="44.08262" lon="6.20138">
        <ele>586.79998779297</ele>
        <time>2019-10-11T16:53:12Z</time>
      </trkpt>
      <trkpt lat="44.08271" lon="6.20165">
        <ele>586.59997558594</ele>
        <time>2019-10-11T16:53:16Z</time>
      </trkpt>
      <trkpt lat="44.08295" lon="6.20241">
        <ele>586.40002441406</ele>
        <time>2019-10-11T16:53:27Z</time>
      </trkpt>
      <trkpt lat="44.08306" lon="6.20277">
        <ele>586.79998779297</ele>
        <time>2019-10-11T16:53:32Z</time>
      </trkpt>
      <trkpt lat="44.08317" lon="6.20312">
        <ele>587.40002441406</ele>
        <time>2019-10-11T16:53:38Z</time>
      </trkpt>
      <trkpt lat="44.08326" lon="6.20338">
        <ele>588.59997558594</ele>
        <time>2019-10-11T16:53:43Z</time>
      </trkpt>
      <trkpt lat="44.08357" lon="6.20431">
        <ele>591.20001220703</ele>
        <time>2019-10-11T16:54:00Z</time>
      </trkpt>
      <trkpt lat="44.08371" lon="6.20469">
        <ele>591.20001220703</ele>
        <time>2019-10-11T16:54:06Z</time>
      </trkpt>
      <trkpt lat="44.0838" lon="6.20497">
        <ele>591</ele>
        <time>2019-10-11T16:54:10Z</time>
      </trkpt>
      <trkpt lat="44.08388" lon="6.20524">
        <ele>590.59997558594</ele>
        <time>2019-10-11T16:54:14Z</time>
      </trkpt>
      <trkpt lat="44.08394" lon="6.2054">
        <ele>590.20001220703</ele>
        <time>2019-10-11T16:54:17Z</time>
      </trkpt>
      <trkpt lat="44.08403" lon="6.20569">
        <ele>589.79998779297</ele>
        <time>2019-10-11T16:54:23Z</time>
      </trkpt>
      <trkpt lat="44.08409" lon="6.20586">
        <ele>589.40002441406</ele>
        <time>2019-10-11T16:54:26Z</time>
      </trkpt>
      <trkpt lat="44.08421" lon="6.2063">
        <ele>589.40002441406</ele>
        <time>2019-10-11T16:54:32Z</time>
      </trkpt>
      <trkpt lat="44.08455" lon="6.20737">
        <ele>589.20001220703</ele>
        <time>2019-10-11T16:54:47Z</time>
      </trkpt>
      <trkpt lat="44.08469" lon="6.20784">
        <ele>589.40002441406</ele>
        <time>2019-10-11T16:54:56Z</time>
      </trkpt>
      <trkpt lat="44.08475" lon="6.20803">
        <ele>589.40002441406</ele>
        <time>2019-10-11T16:55:00Z</time>
      </trkpt>
      <trkpt lat="44.08496" lon="6.20865">
        <ele>590.40002441406</ele>
        <time>2019-10-11T16:55:12Z</time>
      </trkpt>
      <trkpt lat="44.08509" lon="6.20891">
        <ele>591.59997558594</ele>
        <time>2019-10-11T16:55:19Z</time>
      </trkpt>
      <trkpt lat="44.08524" lon="6.20943">
        <ele>593.20001220703</ele>
        <time>2019-10-11T16:55:32Z</time>
      </trkpt>
      <trkpt lat="44.08538" lon="6.21004">
        <ele>593.59997558594</ele>
        <time>2019-10-11T16:55:44Z</time>
      </trkpt>
      <trkpt lat="44.08562" lon="6.21078">
        <ele>593.79998779297</ele>
        <time>2019-10-11T16:55:55Z</time>
      </trkpt>
      <trkpt lat="44.08571" lon="6.21106">
        <ele>593.59997558594</ele>
        <time>2019-10-11T16:55:59Z</time>
      </trkpt>
      <trkpt lat="44.08584" lon="6.21148">
        <ele>593.40002441406</ele>
        <time>2019-10-11T16:56:05Z</time>
      </trkpt>
      <trkpt lat="44.08602" lon="6.21208">
        <ele>594</ele>
        <time>2019-10-11T16:56:15Z</time>
      </trkpt>
      <trkpt lat="44.08615" lon="6.21247">
        <ele>595</ele>
        <time>2019-10-11T16:56:23Z</time>
      </trkpt>
      <trkpt lat="44.0863" lon="6.21296">
        <ele>596.20001220703</ele>
        <time>2019-10-11T16:56:33Z</time>
      </trkpt>
      <trkpt lat="44.08643" lon="6.21341">
        <ele>597.20001220703</ele>
        <time>2019-10-11T16:56:43Z</time>
      </trkpt>
      <trkpt lat="44.08667" lon="6.21422">
        <ele>599</ele>
        <time>2019-10-11T16:56:58Z</time>
      </trkpt>
      <trkpt lat="44.08678" lon="6.21456">
        <ele>599.79998779297</ele>
        <time>2019-10-11T16:57:05Z</time>
      </trkpt>
      <trkpt lat="44.08691" lon="6.2152">
        <ele>601.40002441406</ele>
        <time>2019-10-11T16:57:19Z</time>
      </trkpt>
      <trkpt lat="44.08702" lon="6.21552">
        <ele>602</ele>
        <time>2019-10-11T16:57:27Z</time>
      </trkpt>
      <trkpt lat="44.08727" lon="6.21605">
        <ele>602.20001220703</ele>
        <time>2019-10-11T16:57:35Z</time>
      </trkpt>
      <trkpt lat="44.08733" lon="6.21623">
        <ele>602.20001220703</ele>
        <time>2019-10-11T16:57:38Z</time>
      </trkpt>
      <trkpt lat="44.08754" lon="6.21709">
        <ele>600.79998779297</ele>
        <time>2019-10-11T16:57:50Z</time>
      </trkpt>
      <trkpt lat="44.08765" lon="6.2179">
        <ele>599.79998779297</ele>
        <time>2019-10-11T16:58:00Z</time>
      </trkpt>
      <trkpt lat="44.08776" lon="6.21871">
        <ele>599</ele>
        <time>2019-10-11T16:58:10Z</time>
      </trkpt>
      <trkpt lat="44.0878" lon="6.21904">
        <ele>598.40002441406</ele>
        <time>2019-10-11T16:58:14Z</time>
      </trkpt>
      <trkpt lat="44.0879" lon="6.21972">
        <ele>597.59997558594</ele>
        <time>2019-10-11T16:58:22Z</time>
      </trkpt>
      <trkpt lat="44.08802" lon="6.22069">
        <ele>597.20001220703</ele>
        <time>2019-10-11T16:58:33Z</time>
      </trkpt>
      <trkpt lat="44.08809" lon="6.22121">
        <ele>597</ele>
        <time>2019-10-11T16:58:39Z</time>
      </trkpt>
      <trkpt lat="44.08823" lon="6.22231">
        <ele>596.79998779297</ele>
        <time>2019-10-11T16:58:52Z</time>
      </trkpt>
      <trkpt lat="44.08825" lon="6.22246">
        <ele>596.79998779297</ele>
        <time>2019-10-11T16:58:54Z</time>
      </trkpt>
      <trkpt lat="44.08835" lon="6.22318">
        <ele>597</ele>
        <time>2019-10-11T16:59:03Z</time>
      </trkpt>
      <trkpt lat="44.08844" lon="6.22387">
        <ele>597.79998779297</ele>
        <time>2019-10-11T16:59:12Z</time>
      </trkpt>
      <trkpt lat="44.08853" lon="6.22464">
        <ele>598.79998779297</ele>
        <time>2019-10-11T16:59:23Z</time>
      </trkpt>
      <trkpt lat="44.0886" lon="6.22503">
        <ele>598.79998779297</ele>
        <time>2019-10-11T16:59:29Z</time>
      </trkpt>
      <trkpt lat="44.08874" lon="6.2256">
        <ele>599</ele>
        <time>2019-10-11T16:59:40Z</time>
      </trkpt>
      <trkpt lat="44.08911" lon="6.22644">
        <ele>599.20001220703</ele>
        <time>2019-10-11T16:59:53Z</time>
      </trkpt>
      <trkpt lat="44.08916" lon="6.22656">
        <ele>599.20001220703</ele>
        <time>2019-10-11T16:59:57Z</time>
      </trkpt>
      <trkpt lat="44.08929" lon="6.22695">
        <ele>599.59997558594</ele>
        <time>2019-10-11T17:00:05Z</time>
      </trkpt>
      <trkpt lat="44.08948" lon="6.22744">
        <ele>600.20001220703</ele>
        <time>2019-10-11T17:00:16Z</time>
      </trkpt>
      <trkpt lat="44.08953" lon="6.22762">
        <ele>600.59997558594</ele>
        <time>2019-10-11T17:00:21Z</time>
      </trkpt>
      <trkpt lat="44.08953" lon="6.22762">
        <ele>600.79998779297</ele>
        <time>2019-10-11T17:00:27Z</time>
      </trkpt>
      <trkpt lat="44.08946" lon="6.22775">
        <ele>601</ele>
        <time>2019-10-11T17:00:35Z</time>
      </trkpt>
      <trkpt lat="44.0894" lon="6.22793">
        <ele>600.79998779297</ele>
        <time>2019-10-11T17:00:39Z</time>
      </trkpt>
      <trkpt lat="44.08941" lon="6.229">
        <ele>601</ele>
        <time>2019-10-11T17:00:57Z</time>
      </trkpt>
      <trkpt lat="44.08936" lon="6.22951">
        <ele>601.40002441406</ele>
        <time>2019-10-11T17:01:06Z</time>
      </trkpt>
      <trkpt lat="44.08936" lon="6.22963">
        <ele>600.59997558594</ele>
        <time>2019-10-11T17:01:16Z</time>
      </trkpt>
      <trkpt lat="44.08937" lon="6.22973">
        <ele>600.59997558594</ele>
        <time>2019-10-11T17:01:19Z</time>
      </trkpt>
      <trkpt lat="44.08945" lon="6.23006">
        <ele>600.40002441406</ele>
        <time>2019-10-11T17:01:24Z</time>
      </trkpt>
      <trkpt lat="44.08962" lon="6.23027">
        <ele>600.59997558594</ele>
        <time>2019-10-11T17:01:29Z</time>
      </trkpt>
      <trkpt lat="44.09005" lon="6.23058">
        <ele>601</ele>
        <time>2019-10-11T17:01:39Z</time>
      </trkpt>
      <trkpt lat="44.09062" lon="6.23103">
        <ele>602.20001220703</ele>
        <time>2019-10-11T17:01:55Z</time>
      </trkpt>
      <trkpt lat="44.09084" lon="6.23121">
        <ele>602.59997558594</ele>
        <time>2019-10-11T17:02:03Z</time>
      </trkpt>
      <trkpt lat="44.0909" lon="6.23148">
        <ele>602.59997558594</ele>
        <time>2019-10-11T17:02:11Z</time>
      </trkpt>
      <trkpt lat="44.09092" lon="6.23165">
        <ele>602.59997558594</ele>
        <time>2019-10-11T17:02:16Z</time>
      </trkpt>
      <trkpt lat="44.09091" lon="6.23191">
        <ele>602</ele>
        <time>2019-10-11T17:02:23Z</time>
      </trkpt>
      <trkpt lat="44.09083" lon="6.23227">
        <ele>601.20001220703</ele>
        <time>2019-10-11T17:02:31Z</time>
      </trkpt>
      <trkpt lat="44.09073" lon="6.23282">
        <ele>601</ele>
        <time>2019-10-11T17:02:44Z</time>
      </trkpt>
      <trkpt lat="44.09069" lon="6.233">
        <ele>601.79998779297</ele>
        <time>2019-10-11T17:02:53Z</time>
      </trkpt>
      <trkpt lat="44.09067" lon="6.23307">
        <ele>602</ele>
        <time>2019-10-11T17:03:02Z</time>
      </trkpt>
      <trkpt lat="44.09072" lon="6.23308">
        <ele>602</ele>
        <time>2019-10-11T17:03:06Z</time>
      </trkpt>
      <trkpt lat="44.09077" lon="6.2331">
        <ele>601.79998779297</ele>
        <time>2019-10-11T17:03:17Z</time>
      </trkpt>
      <trkpt lat="44.09071" lon="6.23308">
        <ele>600.79998779297</ele>
        <time>2019-10-11T17:05:44Z</time>
      </trkpt>
      <trkpt lat="44.0907" lon="6.23295">
        <ele>600.79998779297</ele>
        <time>2019-10-11T17:05:55Z</time>
      </trkpt>
      <trkpt lat="44.09074" lon="6.23272">
        <ele>601</ele>
        <time>2019-10-11T17:06:00Z</time>
      </trkpt>
      <trkpt lat="44.09078" lon="6.23252">
        <ele>601</ele>
        <time>2019-10-11T17:06:04Z</time>
      </trkpt>
      <trkpt lat="44.09087" lon="6.23207">
        <ele>600.40002441406</ele>
        <time>2019-10-11T17:06:13Z</time>
      </trkpt>
      <trkpt lat="44.09095" lon="6.23176">
        <ele>600.40002441406</ele>
        <time>2019-10-11T17:06:20Z</time>
      </trkpt>
      <trkpt lat="44.09115" lon="6.23165">
        <ele>600.79998779297</ele>
        <time>2019-10-11T17:06:30Z</time>
      </trkpt>
      <trkpt lat="44.09125" lon="6.23185">
        <ele>601</ele>
        <time>2019-10-11T17:06:40Z</time>
      </trkpt>
      <trkpt lat="44.09137" lon="6.23209">
        <ele>600.79998779297</ele>
        <time>2019-10-11T17:06:49Z</time>
      </trkpt>
      <trkpt lat="44.0915" lon="6.23238">
        <ele>600.79998779297</ele>
        <time>2019-10-11T17:06:58Z</time>
      </trkpt>
      <trkpt lat="44.09164" lon="6.23267">
        <ele>600.79998779297</ele>
        <time>2019-10-11T17:07:08Z</time>
      </trkpt>
      <trkpt lat="44.0917" lon="6.23279">
        <ele>600.79998779297</ele>
        <time>2019-10-11T17:07:12Z</time>
      </trkpt>
      <trkpt lat="44.09176" lon="6.23294">
        <ele>600.59997558594</ele>
        <time>2019-10-11T17:07:18Z</time>
      </trkpt>
      <trkpt lat="44.09182" lon="6.23309">
        <ele>601</ele>
        <time>2019-10-11T17:07:25Z</time>
      </trkpt>
      <trkpt lat="44.09187" lon="6.23323">
        <ele>601.20001220703</ele>
        <time>2019-10-11T17:07:35Z</time>
      </trkpt>
      <trkpt lat="44.09113" lon="6.23119">
        <ele>599.59997558594</ele>
        <time>2019-10-12T05:43:33Z</time>
      </trkpt>
      <trkpt lat="44.09105" lon="6.23112">
        <ele>600.20001220703</ele>
        <time>2019-10-12T05:43:38Z</time>
      </trkpt>
      <trkpt lat="44.09104" lon="6.231">
        <ele>601</ele>
        <time>2019-10-12T05:43:47Z</time>
      </trkpt>
      <trkpt lat="44.09103" lon="6.23087">
        <ele>601.20001220703</ele>
        <time>2019-10-12T05:43:52Z</time>
      </trkpt>
      <trkpt lat="44.09104" lon="6.23074">
        <ele>601.20001220703</ele>
        <time>2019-10-12T05:43:55Z</time>
      </trkpt>
      <trkpt lat="44.09105" lon="6.23057">
        <ele>601.40002441406</ele>
        <time>2019-10-12T05:43:59Z</time>
      </trkpt>
      <trkpt lat="44.09111" lon="6.2298">
        <ele>602.59997558594</ele>
        <time>2019-10-12T05:44:13Z</time>
      </trkpt>
      <trkpt lat="44.09115" lon="6.22894">
        <ele>603</ele>
        <time>2019-10-12T05:44:26Z</time>
      </trkpt>
      <trkpt lat="44.09101" lon="6.22858">
        <ele>602.79998779297</ele>
        <time>2019-10-12T05:44:33Z</time>
      </trkpt>
      <trkpt lat="44.0908" lon="6.22848">
        <ele>602.20001220703</ele>
        <time>2019-10-12T05:44:37Z</time>
      </trkpt>
      <trkpt lat="44.09013" lon="6.2283">
        <ele>600.59997558594</ele>
        <time>2019-10-12T05:44:47Z</time>
      </trkpt>
      <trkpt lat="44.08982" lon="6.22814">
        <ele>599.79998779297</ele>
        <time>2019-10-12T05:44:52Z</time>
      </trkpt>
      <trkpt lat="44.08967" lon="6.22782">
        <ele>599.79998779297</ele>
        <time>2019-10-12T05:44:57Z</time>
      </trkpt>
      <trkpt lat="44.08936" lon="6.22696">
        <ele>600</ele>
        <time>2019-10-12T05:45:09Z</time>
      </trkpt>
      <trkpt lat="44.08897" lon="6.22566">
        <ele>599.40002441406</ele>
        <time>2019-10-12T05:45:25Z</time>
      </trkpt>
      <trkpt lat="44.08905" lon="6.22547">
        <ele>599.40002441406</ele>
        <time>2019-10-12T05:45:28Z</time>
      </trkpt>
      <trkpt lat="44.08897" lon="6.2251">
        <ele>599.40002441406</ele>
        <time>2019-10-12T05:45:33Z</time>
      </trkpt>
      <trkpt lat="44.08866" lon="6.22493">
        <ele>599.59997558594</ele>
        <time>2019-10-12T05:45:39Z</time>
      </trkpt>
      <trkpt lat="44.08857" lon="6.22465">
        <ele>599.59997558594</ele>
        <time>2019-10-12T05:45:43Z</time>
      </trkpt>
      <trkpt lat="44.08842" lon="6.22373">
        <ele>599</ele>
        <time>2019-10-12T05:45:54Z</time>
      </trkpt>
      <trkpt lat="44.08831" lon="6.22295">
        <ele>598.79998779297</ele>
        <time>2019-10-12T05:46:03Z</time>
      </trkpt>
      <trkpt lat="44.08823" lon="6.22227">
        <ele>598.40002441406</ele>
        <time>2019-10-12T05:46:11Z</time>
      </trkpt>
      <trkpt lat="44.08814" lon="6.22159">
        <ele>598</ele>
        <time>2019-10-12T05:46:19Z</time>
      </trkpt>
      <trkpt lat="44.08803" lon="6.22073">
        <ele>597.79998779297</ele>
        <time>2019-10-12T05:46:30Z</time>
      </trkpt>
      <trkpt lat="44.08792" lon="6.21989">
        <ele>597.79998779297</ele>
        <time>2019-10-12T05:46:39Z</time>
      </trkpt>
      <trkpt lat="44.08776" lon="6.21869">
        <ele>598.79998779297</ele>
        <time>2019-10-12T05:46:52Z</time>
      </trkpt>
      <trkpt lat="44.08768" lon="6.21809">
        <ele>599.59997558594</ele>
        <time>2019-10-12T05:46:59Z</time>
      </trkpt>
      <trkpt lat="44.08749" lon="6.21684">
        <ele>601.20001220703</ele>
        <time>2019-10-12T05:47:15Z</time>
      </trkpt>
      <trkpt lat="44.08734" lon="6.21629">
        <ele>601.79998779297</ele>
        <time>2019-10-12T05:47:23Z</time>
      </trkpt>
      <trkpt lat="44.08711" lon="6.21559">
        <ele>603.40002441406</ele>
        <time>2019-10-12T05:47:35Z</time>
      </trkpt>
      <trkpt lat="44.08706" lon="6.21531">
        <ele>603.79998779297</ele>
        <time>2019-10-12T05:47:40Z</time>
      </trkpt>
      <trkpt lat="44.08677" lon="6.21456">
        <ele>603.59997558594</ele>
        <time>2019-10-12T05:47:51Z</time>
      </trkpt>
      <trkpt lat="44.0866" lon="6.21387">
        <ele>603</ele>
        <time>2019-10-12T05:47:59Z</time>
      </trkpt>
      <trkpt lat="44.08644" lon="6.21344">
        <ele>602</ele>
        <time>2019-10-12T05:48:04Z</time>
      </trkpt>
      <trkpt lat="44.08626" lon="6.21284">
        <ele>600.59997558594</ele>
        <time>2019-10-12T05:48:11Z</time>
      </trkpt>
      <trkpt lat="44.0862" lon="6.21266">
        <ele>600</ele>
        <time>2019-10-12T05:48:13Z</time>
      </trkpt>
      <trkpt lat="44.08603" lon="6.21208">
        <ele>598.59997558594</ele>
        <time>2019-10-12T05:48:19Z</time>
      </trkpt>
      <trkpt lat="44.08591" lon="6.21173">
        <ele>597.59997558594</ele>
        <time>2019-10-12T05:48:23Z</time>
      </trkpt>
      <trkpt lat="44.08559" lon="6.21068">
        <ele>595</ele>
        <time>2019-10-12T05:48:34Z</time>
      </trkpt>
      <trkpt lat="44.08545" lon="6.21026">
        <ele>594.20001220703</ele>
        <time>2019-10-12T05:48:40Z</time>
      </trkpt>
      <trkpt lat="44.0854" lon="6.21008">
        <ele>593.59997558594</ele>
        <time>2019-10-12T05:48:53Z</time>
      </trkpt>
      <trkpt lat="44.08539" lon="6.21005">
        <ele>593.79998779297</ele>
        <time>2019-10-12T05:48:55Z</time>
      </trkpt>
      <trkpt lat="44.08534" lon="6.2099">
        <ele>593.59997558594</ele>
        <time>2019-10-12T05:49:00Z</time>
      </trkpt>
      <trkpt lat="44.08513" lon="6.20928">
        <ele>594.20001220703</ele>
        <time>2019-10-12T05:49:15Z</time>
      </trkpt>
      <trkpt lat="44.08503" lon="6.20881">
        <ele>594.40002441406</ele>
        <time>2019-10-12T05:49:21Z</time>
      </trkpt>
      <trkpt lat="44.0848" lon="6.2082">
        <ele>593</ele>
        <time>2019-10-12T05:49:29Z</time>
      </trkpt>
      <trkpt lat="44.08468" lon="6.2078">
        <ele>591.40002441406</ele>
        <time>2019-10-12T05:49:37Z</time>
      </trkpt>
      <trkpt lat="44.08459" lon="6.20777">
        <ele>589.59997558594</ele>
        <time>2019-10-12T05:50:38Z</time>
      </trkpt>
      <trkpt lat="44.0847" lon="6.20786">
        <ele>589.79998779297</ele>
        <time>2019-10-12T05:50:40Z</time>
      </trkpt>
      <trkpt lat="44.08479" lon="6.20815">
        <ele>589.79998779297</ele>
        <time>2019-10-12T05:50:45Z</time>
      </trkpt>
      <trkpt lat="44.08498" lon="6.2087">
        <ele>590.59997558594</ele>
        <time>2019-10-12T05:50:55Z</time>
      </trkpt>
      <trkpt lat="44.08512" lon="6.20897">
        <ele>591.59997558594</ele>
        <time>2019-10-12T05:51:01Z</time>
      </trkpt>
      <trkpt lat="44.08521" lon="6.20923">
        <ele>592.59997558594</ele>
        <time>2019-10-12T05:51:07Z</time>
      </trkpt>
      <trkpt lat="44.08548" lon="6.21036">
        <ele>594</ele>
        <time>2019-10-12T05:51:27Z</time>
      </trkpt>
      <trkpt lat="44.08554" lon="6.21053">
        <ele>594</ele>
        <time>2019-10-12T05:51:30Z</time>
      </trkpt>
      <trkpt lat="44.08564" lon="6.21086">
        <ele>593.40002441406</ele>
        <time>2019-10-12T05:51:36Z</time>
      </trkpt>
      <trkpt lat="44.08581" lon="6.21137">
        <ele>593.40002441406</ele>
        <time>2019-10-12T05:51:46Z</time>
      </trkpt>
      <trkpt lat="44.08597" lon="6.21189">
        <ele>593.79998779297</ele>
        <time>2019-10-12T05:51:55Z</time>
      </trkpt>
      <trkpt lat="44.08615" lon="6.21246">
        <ele>595</ele>
        <time>2019-10-12T05:52:05Z</time>
      </trkpt>
      <trkpt lat="44.08632" lon="6.21301">
        <ele>596.40002441406</ele>
        <time>2019-10-12T05:52:15Z</time>
      </trkpt>
      <trkpt lat="44.08644" lon="6.21344">
        <ele>597.59997558594</ele>
        <time>2019-10-12T05:52:23Z</time>
      </trkpt>
      <trkpt lat="44.08656" lon="6.2139">
        <ele>598.59997558594</ele>
        <time>2019-10-12T05:52:31Z</time>
      </trkpt>
      <trkpt lat="44.08673" lon="6.21442">
        <ele>600</ele>
        <time>2019-10-12T05:52:41Z</time>
      </trkpt>
      <trkpt lat="44.08691" lon="6.21527">
        <ele>601.59997558594</ele>
        <time>2019-10-12T05:52:57Z</time>
      </trkpt>
      <trkpt lat="44.08677" lon="6.21543">
        <ele>601.79998779297</ele>
        <time>2019-10-12T05:53:02Z</time>
      </trkpt>
      <trkpt lat="44.08655" lon="6.2156">
        <ele>601.79998779297</ele>
        <time>2019-10-12T05:53:07Z</time>
      </trkpt>
      <trkpt lat="44.08626" lon="6.21568">
        <ele>601.59997558594</ele>
        <time>2019-10-12T05:53:12Z</time>
      </trkpt>
      <trkpt lat="44.08605" lon="6.21566">
        <ele>601</ele>
        <time>2019-10-12T05:53:15Z</time>
      </trkpt>
      <trkpt lat="44.08569" lon="6.21578">
        <ele>599.59997558594</ele>
        <time>2019-10-12T05:53:20Z</time>
      </trkpt>
      <trkpt lat="44.08535" lon="6.21594">
        <ele>598.20001220703</ele>
        <time>2019-10-12T05:53:25Z</time>
      </trkpt>
      <trkpt lat="44.08521" lon="6.216">
        <ele>598</ele>
        <time>2019-10-12T05:53:27Z</time>
      </trkpt>
      <trkpt lat="44.08467" lon="6.21633">
        <ele>596.40002441406</ele>
        <time>2019-10-12T05:53:35Z</time>
      </trkpt>
      <trkpt lat="44.08443" lon="6.21656">
        <ele>595.20001220703</ele>
        <time>2019-10-12T05:53:39Z</time>
      </trkpt>
      <trkpt lat="44.08413" lon="6.21685">
        <ele>593.20001220703</ele>
        <time>2019-10-12T05:53:44Z</time>
      </trkpt>
      <trkpt lat="44.08353" lon="6.21729">
        <ele>591</ele>
        <time>2019-10-12T05:53:54Z</time>
      </trkpt>
      <trkpt lat="44.08303" lon="6.21748">
        <ele>589.79998779297</ele>
        <time>2019-10-12T05:54:03Z</time>
      </trkpt>
      <trkpt lat="44.08276" lon="6.21741">
        <ele>589.40002441406</ele>
        <time>2019-10-12T05:54:09Z</time>
      </trkpt>
      <trkpt lat="44.0826" lon="6.21708">
        <ele>588.59997558594</ele>
        <time>2019-10-12T05:54:14Z</time>
      </trkpt>
      <trkpt lat="44.08247" lon="6.21708">
        <ele>588.40002441406</ele>
        <time>2019-10-12T05:54:17Z</time>
      </trkpt>
      <trkpt lat="44.08226" lon="6.21726">
        <ele>588.40002441406</ele>
        <time>2019-10-12T05:54:21Z</time>
      </trkpt>
      <trkpt lat="44.08186" lon="6.21742">
        <ele>588.40002441406</ele>
        <time>2019-10-12T05:54:29Z</time>
      </trkpt>
      <trkpt lat="44.08116" lon="6.2176">
        <ele>588.20001220703</ele>
        <time>2019-10-12T05:54:42Z</time>
      </trkpt>
      <trkpt lat="44.08058" lon="6.21769">
        <ele>587.59997558594</ele>
        <time>2019-10-12T05:54:52Z</time>
      </trkpt>
      <trkpt lat="44.07986" lon="6.21766">
        <ele>586.79998779297</ele>
        <time>2019-10-12T05:55:04Z</time>
      </trkpt>
      <trkpt lat="44.07957" lon="6.21763">
        <ele>587</ele>
        <time>2019-10-12T05:55:11Z</time>
      </trkpt>
      <trkpt lat="44.07935" lon="6.21756">
        <ele>588.79998779297</ele>
        <time>2019-10-12T05:55:17Z</time>
      </trkpt>
      <trkpt lat="44.07915" lon="6.21735">
        <ele>590.20001220703</ele>
        <time>2019-10-12T05:55:26Z</time>
      </trkpt>
      <trkpt lat="44.07906" lon="6.21699">
        <ele>592.20001220703</ele>
        <time>2019-10-12T05:55:36Z</time>
      </trkpt>
      <trkpt lat="44.07925" lon="6.21625">
        <ele>593.59997558594</ele>
        <time>2019-10-12T05:55:53Z</time>
      </trkpt>
      <trkpt lat="44.07946" lon="6.21622">
        <ele>594</ele>
        <time>2019-10-12T05:55:59Z</time>
      </trkpt>
      <trkpt lat="44.07967" lon="6.2159">
        <ele>594.40002441406</ele>
        <time>2019-10-12T05:56:05Z</time>
      </trkpt>
      <trkpt lat="44.07963" lon="6.21575">
        <ele>594.59997558594</ele>
        <time>2019-10-12T05:56:08Z</time>
      </trkpt>
      <trkpt lat="44.07951" lon="6.2155">
        <ele>594.59997558594</ele>
        <time>2019-10-12T05:56:13Z</time>
      </trkpt>
      <trkpt lat="44.07946" lon="6.21514">
        <ele>594.79998779297</ele>
        <time>2019-10-12T05:56:19Z</time>
      </trkpt>
      <trkpt lat="44.07903" lon="6.21448">
        <ele>595.59997558594</ele>
        <time>2019-10-12T05:56:34Z</time>
      </trkpt>
      <trkpt lat="44.07884" lon="6.21411">
        <ele>596.59997558594</ele>
        <time>2019-10-12T05:56:42Z</time>
      </trkpt>
      <trkpt lat="44.0788" lon="6.21374">
        <ele>597</ele>
        <time>2019-10-12T05:56:49Z</time>
      </trkpt>
      <trkpt lat="44.07876" lon="6.21329">
        <ele>597.59997558594</ele>
        <time>2019-10-12T05:56:57Z</time>
      </trkpt>
      <trkpt lat="44.07864" lon="6.21283">
        <ele>598.40002441406</ele>
        <time>2019-10-12T05:57:05Z</time>
      </trkpt>
      <trkpt lat="44.07824" lon="6.21188">
        <ele>599.40002441406</ele>
        <time>2019-10-12T05:57:22Z</time>
      </trkpt>
      <trkpt lat="44.07795" lon="6.21128">
        <ele>600.20001220703</ele>
        <time>2019-10-12T05:57:33Z</time>
      </trkpt>
      <trkpt lat="44.07738" lon="6.21024">
        <ele>601.40002441406</ele>
        <time>2019-10-12T05:57:53Z</time>
      </trkpt>
      <trkpt lat="44.07723" lon="6.20986">
        <ele>602</ele>
        <time>2019-10-12T05:58:00Z</time>
      </trkpt>
      <trkpt lat="44.07676" lon="6.20953">
        <ele>602.79998779297</ele>
        <time>2019-10-12T05:58:12Z</time>
      </trkpt>
      <trkpt lat="44.0765" lon="6.20958">
        <ele>603.59997558594</ele>
        <time>2019-10-12T05:58:18Z</time>
      </trkpt>
      <trkpt lat="44.07578" lon="6.21008">
        <ele>604.59997558594</ele>
        <time>2019-10-12T05:58:35Z</time>
      </trkpt>
      <trkpt lat="44.07562" lon="6.21008">
        <ele>604.59997558594</ele>
        <time>2019-10-12T05:58:39Z</time>
      </trkpt>
      <trkpt lat="44.07505" lon="6.20974">
        <ele>605.20001220703</ele>
        <time>2019-10-12T05:58:53Z</time>
      </trkpt>
      <trkpt lat="44.07452" lon="6.20963">
        <ele>606</ele>
        <time>2019-10-12T05:59:04Z</time>
      </trkpt>
      <trkpt lat="44.07409" lon="6.20983">
        <ele>606.40002441406</ele>
        <time>2019-10-12T05:59:13Z</time>
      </trkpt>
      <trkpt lat="44.07359" lon="6.21">
        <ele>607.20001220703</ele>
        <time>2019-10-12T05:59:24Z</time>
      </trkpt>
      <trkpt lat="44.0732" lon="6.21002">
        <ele>607.79998779297</ele>
        <time>2019-10-12T05:59:32Z</time>
      </trkpt>
      <trkpt lat="44.0725" lon="6.20945">
        <ele>609</ele>
        <time>2019-10-12T05:59:50Z</time>
      </trkpt>
      <trkpt lat="44.07212" lon="6.20927">
        <ele>609.59997558594</ele>
        <time>2019-10-12T05:59:59Z</time>
      </trkpt>
      <trkpt lat="44.07148" lon="6.20913">
        <ele>611</ele>
        <time>2019-10-12T06:00:13Z</time>
      </trkpt>
      <trkpt lat="44.07085" lon="6.20897">
        <ele>612.59997558594</ele>
        <time>2019-10-12T06:00:27Z</time>
      </trkpt>
      <trkpt lat="44.07018" lon="6.20875">
        <ele>614</ele>
        <time>2019-10-12T06:00:42Z</time>
      </trkpt>
      <trkpt lat="44.06988" lon="6.20864">
        <ele>615</ele>
        <time>2019-10-12T06:00:50Z</time>
      </trkpt>
      <trkpt lat="44.06938" lon="6.20866">
        <ele>617</ele>
        <time>2019-10-12T06:01:04Z</time>
      </trkpt>
      <trkpt lat="44.06899" lon="6.20871">
        <ele>618.40002441406</ele>
        <time>2019-10-12T06:01:14Z</time>
      </trkpt>
      <trkpt lat="44.06832" lon="6.20859">
        <ele>621.40002441406</ele>
        <time>2019-10-12T06:01:33Z</time>
      </trkpt>
      <trkpt lat="44.06799" lon="6.20853">
        <ele>623</ele>
        <time>2019-10-12T06:01:43Z</time>
      </trkpt>
      <trkpt lat="44.06758" lon="6.20847">
        <ele>624.79998779297</ele>
        <time>2019-10-12T06:01:55Z</time>
      </trkpt>
      <trkpt lat="44.06727" lon="6.20842">
        <ele>626.20001220703</ele>
        <time>2019-10-12T06:02:04Z</time>
      </trkpt>
      <trkpt lat="44.0669" lon="6.20839">
        <ele>628.20001220703</ele>
        <time>2019-10-12T06:02:15Z</time>
      </trkpt>
      <trkpt lat="44.06636" lon="6.20844">
        <ele>630.59997558594</ele>
        <time>2019-10-12T06:02:31Z</time>
      </trkpt>
      <trkpt lat="44.06605" lon="6.20849">
        <ele>632</ele>
        <time>2019-10-12T06:02:40Z</time>
      </trkpt>
      <trkpt lat="44.06553" lon="6.20855">
        <ele>633.59997558594</ele>
        <time>2019-10-12T06:02:55Z</time>
      </trkpt>
      <trkpt lat="44.06515" lon="6.20854">
        <ele>635.20001220703</ele>
        <time>2019-10-12T06:03:06Z</time>
      </trkpt>
      <trkpt lat="44.06464" lon="6.20847">
        <ele>637.40002441406</ele>
        <time>2019-10-12T06:03:21Z</time>
      </trkpt>
      <trkpt lat="44.06422" lon="6.20841">
        <ele>639.40002441406</ele>
        <time>2019-10-12T06:03:33Z</time>
      </trkpt>
      <trkpt lat="44.06377" lon="6.20832">
        <ele>641.20001220703</ele>
        <time>2019-10-12T06:03:46Z</time>
      </trkpt>
      <trkpt lat="44.0634" lon="6.20819">
        <ele>643</ele>
        <time>2019-10-12T06:03:57Z</time>
      </trkpt>
      <trkpt lat="44.0629" lon="6.20786">
        <ele>645.20001220703</ele>
        <time>2019-10-12T06:04:13Z</time>
      </trkpt>
      <trkpt lat="44.06249" lon="6.20756">
        <ele>647.40002441406</ele>
        <time>2019-10-12T06:04:26Z</time>
      </trkpt>
      <trkpt lat="44.06199" lon="6.20725">
        <ele>649.79998779297</ele>
        <time>2019-10-12T06:04:41Z</time>
      </trkpt>
      <trkpt lat="44.06163" lon="6.20712">
        <ele>651.40002441406</ele>
        <time>2019-10-12T06:04:51Z</time>
      </trkpt>
      <trkpt lat="44.06109" lon="6.20703">
        <ele>653.40002441406</ele>
        <time>2019-10-12T06:05:06Z</time>
      </trkpt>
      <trkpt lat="44.06067" lon="6.20699">
        <ele>655.20001220703</ele>
        <time>2019-10-12T06:05:18Z</time>
      </trkpt>
      <trkpt lat="44.06033" lon="6.20695">
        <ele>656.20001220703</ele>
        <time>2019-10-12T06:05:28Z</time>
      </trkpt>
      <trkpt lat="44.0598" lon="6.20689">
        <ele>658.40002441406</ele>
        <time>2019-10-12T06:05:43Z</time>
      </trkpt>
      <trkpt lat="44.05939" lon="6.20685">
        <ele>660</ele>
        <time>2019-10-12T06:05:55Z</time>
      </trkpt>
      <trkpt lat="44.05886" lon="6.20679">
        <ele>661.79998779297</ele>
        <time>2019-10-12T06:06:10Z</time>
      </trkpt>
      <trkpt lat="44.05847" lon="6.20676">
        <ele>663.59997558594</ele>
        <time>2019-10-12T06:06:21Z</time>
      </trkpt>
      <trkpt lat="44.05803" lon="6.20672">
        <ele>665.59997558594</ele>
        <time>2019-10-12T06:06:34Z</time>
      </trkpt>
      <trkpt lat="44.05772" lon="6.20672">
        <ele>667</ele>
        <time>2019-10-12T06:06:43Z</time>
      </trkpt>
      <trkpt lat="44.05726" lon="6.20674">
        <ele>669.40002441406</ele>
        <time>2019-10-12T06:06:58Z</time>
      </trkpt>
      <trkpt lat="44.05725" lon="6.20674">
        <ele>669.20001220703</ele>
        <time>2019-10-12T06:12:27Z</time>
      </trkpt>
      <trkpt lat="44.05698" lon="6.20678">
        <ele>669.40002441406</ele>
        <time>2019-10-12T06:12:37Z</time>
      </trkpt>
      <trkpt lat="44.05687" lon="6.20679">
        <ele>669.79998779297</ele>
        <time>2019-10-12T06:12:42Z</time>
      </trkpt>
      <trkpt lat="44.05669" lon="6.20683">
        <ele>670.59997558594</ele>
        <time>2019-10-12T06:12:49Z</time>
      </trkpt>
      <trkpt lat="44.05641" lon="6.20689">
        <ele>672</ele>
        <time>2019-10-12T06:12:59Z</time>
      </trkpt>
      <trkpt lat="44.05611" lon="6.20698">
        <ele>673.20001220703</ele>
        <time>2019-10-12T06:13:10Z</time>
      </trkpt>
      <trkpt lat="44.05576" lon="6.20708">
        <ele>674.40002441406</ele>
        <time>2019-10-12T06:13:21Z</time>
      </trkpt>
      <trkpt lat="44.05546" lon="6.20721">
        <ele>672.79998779297</ele>
        <time>2019-10-12T06:13:31Z</time>
      </trkpt>
      <trkpt lat="44.05494" lon="6.20742">
        <ele>677.40002441406</ele>
        <time>2019-10-12T06:13:49Z</time>
      </trkpt>
      <trkpt lat="44.05465" lon="6.20754">
        <ele>678.59997558594</ele>
        <time>2019-10-12T06:13:59Z</time>
      </trkpt>
      <trkpt lat="44.0542" lon="6.2076">
        <ele>680</ele>
        <time>2019-10-12T06:14:13Z</time>
      </trkpt>
      <trkpt lat="44.05374" lon="6.20744">
        <ele>681.79998779297</ele>
        <time>2019-10-12T06:14:28Z</time>
      </trkpt>
      <trkpt lat="44.05333" lon="6.20713">
        <ele>684</ele>
        <time>2019-10-12T06:14:44Z</time>
      </trkpt>
      <trkpt lat="44.0531" lon="6.20691">
        <ele>685.40002441406</ele>
        <time>2019-10-12T06:14:54Z</time>
      </trkpt>
      <trkpt lat="44.05283" lon="6.20667">
        <ele>687.40002441406</ele>
        <time>2019-10-12T06:15:07Z</time>
      </trkpt>
      <trkpt lat="44.05254" lon="6.2065">
        <ele>688.79998779297</ele>
        <time>2019-10-12T06:15:19Z</time>
      </trkpt>
      <trkpt lat="44.05219" lon="6.20639">
        <ele>690.79998779297</ele>
        <time>2019-10-12T06:15:32Z</time>
      </trkpt>
      <trkpt lat="44.05173" lon="6.20644">
        <ele>692.59997558594</ele>
        <time>2019-10-12T06:15:47Z</time>
      </trkpt>
      <trkpt lat="44.05119" lon="6.2065">
        <ele>693.59997558594</ele>
        <time>2019-10-12T06:16:03Z</time>
      </trkpt>
      <trkpt lat="44.05066" lon="6.20617">
        <ele>695.20001220703</ele>
        <time>2019-10-12T06:16:19Z</time>
      </trkpt>
      <trkpt lat="44.05038" lon="6.20589">
        <ele>696</ele>
        <time>2019-10-12T06:16:29Z</time>
      </trkpt>
      <trkpt lat="44.04983" lon="6.20534">
        <ele>698.40002441406</ele>
        <time>2019-10-12T06:16:48Z</time>
      </trkpt>
      <trkpt lat="44.04961" lon="6.20511">
        <ele>699.20001220703</ele>
        <time>2019-10-12T06:16:56Z</time>
      </trkpt>
      <trkpt lat="44.04929" lon="6.20463">
        <ele>701</ele>
        <time>2019-10-12T06:17:09Z</time>
      </trkpt>
      <trkpt lat="44.04911" lon="6.20429">
        <ele>701.79998779297</ele>
        <time>2019-10-12T06:17:18Z</time>
      </trkpt>
      <trkpt lat="44.04879" lon="6.20383">
        <ele>703.40002441406</ele>
        <time>2019-10-12T06:17:32Z</time>
      </trkpt>
      <trkpt lat="44.04842" lon="6.20359">
        <ele>705</ele>
        <time>2019-10-12T06:17:44Z</time>
      </trkpt>
      <trkpt lat="44.04801" lon="6.20338">
        <ele>706.40002441406</ele>
        <time>2019-10-12T06:17:57Z</time>
      </trkpt>
      <trkpt lat="44.04777" lon="6.20319">
        <ele>707.79998779297</ele>
        <time>2019-10-12T06:18:05Z</time>
      </trkpt>
      <trkpt lat="44.04758" lon="6.20277">
        <ele>709.40002441406</ele>
        <time>2019-10-12T06:18:16Z</time>
      </trkpt>
      <trkpt lat="44.04754" lon="6.20244">
        <ele>710.79998779297</ele>
        <time>2019-10-12T06:18:25Z</time>
      </trkpt>
      <trkpt lat="44.04765" lon="6.20194">
        <ele>712</ele>
        <time>2019-10-12T06:18:37Z</time>
      </trkpt>
      <trkpt lat="44.04787" lon="6.20144">
        <ele>713.40002441406</ele>
        <time>2019-10-12T06:18:50Z</time>
      </trkpt>
      <trkpt lat="44.04802" lon="6.20105">
        <ele>714.40002441406</ele>
        <time>2019-10-12T06:19:00Z</time>
      </trkpt>
      <trkpt lat="44.04793" lon="6.1999">
        <ele>716.40002441406</ele>
        <time>2019-10-12T06:19:22Z</time>
      </trkpt>
      <trkpt lat="44.04752" lon="6.1994">
        <ele>716.79998779297</ele>
        <time>2019-10-12T06:19:34Z</time>
      </trkpt>
      <trkpt lat="44.04696" lon="6.19926">
        <ele>717</ele>
        <time>2019-10-12T06:19:49Z</time>
      </trkpt>
      <trkpt lat="44.04664" lon="6.1994">
        <ele>717.20001220703</ele>
        <time>2019-10-12T06:19:57Z</time>
      </trkpt>
      <trkpt lat="44.04568" lon="6.2006">
        <ele>717.79998779297</ele>
        <time>2019-10-12T06:20:25Z</time>
      </trkpt>
      <trkpt lat="44.04517" lon="6.20117">
        <ele>718.20001220703</ele>
        <time>2019-10-12T06:20:38Z</time>
      </trkpt>
      <trkpt lat="44.04466" lon="6.20174">
        <ele>718.59997558594</ele>
        <time>2019-10-12T06:20:51Z</time>
      </trkpt>
      <trkpt lat="44.04388" lon="6.20259">
        <ele>718.79998779297</ele>
        <time>2019-10-12T06:21:11Z</time>
      </trkpt>
      <trkpt lat="44.04315" lon="6.20345">
        <ele>719</ele>
        <time>2019-10-12T06:21:32Z</time>
      </trkpt>
      <trkpt lat="44.0426" lon="6.20414">
        <ele>719.40002441406</ele>
        <time>2019-10-12T06:21:48Z</time>
      </trkpt>
      <trkpt lat="44.04203" lon="6.20457">
        <ele>719.59997558594</ele>
        <time>2019-10-12T06:22:01Z</time>
      </trkpt>
      <trkpt lat="44.04081" lon="6.20519">
        <ele>721</ele>
        <time>2019-10-12T06:22:28Z</time>
      </trkpt>
      <trkpt lat="44.04059" lon="6.20563">
        <ele>721.40002441406</ele>
        <time>2019-10-12T06:22:36Z</time>
      </trkpt>
      <trkpt lat="44.04038" lon="6.20726">
        <ele>722.20001220703</ele>
        <time>2019-10-12T06:22:59Z</time>
      </trkpt>
      <trkpt lat="44.04015" lon="6.20809">
        <ele>721.79998779297</ele>
        <time>2019-10-12T06:23:11Z</time>
      </trkpt>
      <trkpt lat="44.03928" lon="6.20911">
        <ele>721.59997558594</ele>
        <time>2019-10-12T06:23:32Z</time>
      </trkpt>
      <trkpt lat="44.03903" lon="6.20921">
        <ele>721.79998779297</ele>
        <time>2019-10-12T06:23:37Z</time>
      </trkpt>
      <trkpt lat="44.03843" lon="6.20923">
        <ele>722.59997558594</ele>
        <time>2019-10-12T06:23:49Z</time>
      </trkpt>
      <trkpt lat="44.03804" lon="6.20906">
        <ele>723.59997558594</ele>
        <time>2019-10-12T06:23:58Z</time>
      </trkpt>
      <trkpt lat="44.03747" lon="6.20847">
        <ele>725.59997558594</ele>
        <time>2019-10-12T06:24:15Z</time>
      </trkpt>
      <trkpt lat="44.03721" lon="6.20806">
        <ele>726.20001220703</ele>
        <time>2019-10-12T06:24:24Z</time>
      </trkpt>
      <trkpt lat="44.03695" lon="6.20756">
        <ele>727.40002441406</ele>
        <time>2019-10-12T06:24:35Z</time>
      </trkpt>
      <trkpt lat="44.03669" lon="6.20709">
        <ele>728.79998779297</ele>
        <time>2019-10-12T06:24:46Z</time>
      </trkpt>
      <trkpt lat="44.03611" lon="6.20656">
        <ele>729.59997558594</ele>
        <time>2019-10-12T06:25:02Z</time>
      </trkpt>
      <trkpt lat="44.03522" lon="6.20637">
        <ele>730</ele>
        <time>2019-10-12T06:25:20Z</time>
      </trkpt>
      <trkpt lat="44.0346" lon="6.20632">
        <ele>730.59997558594</ele>
        <time>2019-10-12T06:25:33Z</time>
      </trkpt>
      <trkpt lat="44.03432" lon="6.20628">
        <ele>732</ele>
        <time>2019-10-12T06:25:41Z</time>
      </trkpt>
      <trkpt lat="44.03389" lon="6.20621">
        <ele>734.59997558594</ele>
        <time>2019-10-12T06:25:54Z</time>
      </trkpt>
      <trkpt lat="44.03356" lon="6.20617">
        <ele>736.20001220703</ele>
        <time>2019-10-12T06:26:04Z</time>
      </trkpt>
      <trkpt lat="44.03335" lon="6.20613">
        <ele>736.79998779297</ele>
        <time>2019-10-12T06:26:10Z</time>
      </trkpt>
      <trkpt lat="44.03283" lon="6.20601">
        <ele>738.59997558594</ele>
        <time>2019-10-12T06:26:24Z</time>
      </trkpt>
      <trkpt lat="44.03263" lon="6.20592">
        <ele>739</ele>
        <time>2019-10-12T06:26:30Z</time>
      </trkpt>
      <trkpt lat="44.03239" lon="6.20581">
        <ele>739.40002441406</ele>
        <time>2019-10-12T06:26:38Z</time>
      </trkpt>
      <trkpt lat="44.03232" lon="6.20578">
        <ele>739.20001220703</ele>
        <time>2019-10-12T06:26:41Z</time>
      </trkpt>
      <trkpt lat="44.03243" lon="6.20589">
        <ele>739.40002441406</ele>
        <time>2019-10-12T06:26:47Z</time>
      </trkpt>
      <trkpt lat="44.0326" lon="6.20596">
        <ele>739.79998779297</ele>
        <time>2019-10-12T06:27:37Z</time>
      </trkpt>
      <trkpt lat="44.03259" lon="6.2058">
        <ele>739.79998779297</ele>
        <time>2019-10-12T06:27:42Z</time>
      </trkpt>
      <trkpt lat="44.03244" lon="6.20584">
        <ele>739.79998779297</ele>
        <time>2019-10-12T06:27:45Z</time>
      </trkpt>
      <trkpt lat="44.03188" lon="6.20557">
        <ele>739.59997558594</ele>
        <time>2019-10-12T06:27:58Z</time>
      </trkpt>
      <trkpt lat="44.03134" lon="6.20531">
        <ele>738</ele>
        <time>2019-10-12T06:28:10Z</time>
      </trkpt>
      <trkpt lat="44.0311" lon="6.20523">
        <ele>737.40002441406</ele>
        <time>2019-10-12T06:28:14Z</time>
      </trkpt>
      <trkpt lat="44.03057" lon="6.20512">
        <ele>736.20001220703</ele>
        <time>2019-10-12T06:28:21Z</time>
      </trkpt>
      <trkpt lat="44.03032" lon="6.20511">
        <ele>735.20001220703</ele>
        <time>2019-10-12T06:28:24Z</time>
      </trkpt>
      <trkpt lat="44.02987" lon="6.20519">
        <ele>733</ele>
        <time>2019-10-12T06:28:29Z</time>
      </trkpt>
      <trkpt lat="44.0295" lon="6.20534">
        <ele>731.40002441406</ele>
        <time>2019-10-12T06:28:33Z</time>
      </trkpt>
      <trkpt lat="44.02906" lon="6.20566">
        <ele>728.59997558594</ele>
        <time>2019-10-12T06:28:38Z</time>
      </trkpt>
      <trkpt lat="44.02889" lon="6.20581">
        <ele>727.79998779297</ele>
        <time>2019-10-12T06:28:40Z</time>
      </trkpt>
      <trkpt lat="44.02841" lon="6.20616">
        <ele>725.40002441406</ele>
        <time>2019-10-12T06:28:45Z</time>
      </trkpt>
      <trkpt lat="44.02799" lon="6.20635">
        <ele>722.59997558594</ele>
        <time>2019-10-12T06:28:49Z</time>
      </trkpt>
      <trkpt lat="44.02755" lon="6.20646">
        <ele>719.79998779297</ele>
        <time>2019-10-12T06:28:53Z</time>
      </trkpt>
      <trkpt lat="44.02711" lon="6.20659">
        <ele>717.20001220703</ele>
        <time>2019-10-12T06:28:57Z</time>
      </trkpt>
      <trkpt lat="44.0268" lon="6.20674">
        <ele>715.20001220703</ele>
        <time>2019-10-12T06:29:00Z</time>
      </trkpt>
      <trkpt lat="44.02629" lon="6.20707">
        <ele>712.20001220703</ele>
        <time>2019-10-12T06:29:05Z</time>
      </trkpt>
      <trkpt lat="44.02588" lon="6.20737">
        <ele>709.20001220703</ele>
        <time>2019-10-12T06:29:09Z</time>
      </trkpt>
      <trkpt lat="44.02536" lon="6.20775">
        <ele>706.20001220703</ele>
        <time>2019-10-12T06:29:14Z</time>
      </trkpt>
      <trkpt lat="44.02494" lon="6.20805">
        <ele>703.40002441406</ele>
        <time>2019-10-12T06:29:18Z</time>
      </trkpt>
      <trkpt lat="44.02456" lon="6.20843">
        <ele>700.40002441406</ele>
        <time>2019-10-12T06:29:22Z</time>
      </trkpt>
      <trkpt lat="44.02422" lon="6.20886">
        <ele>697.20001220703</ele>
        <time>2019-10-12T06:29:26Z</time>
      </trkpt>
      <trkpt lat="44.02381" lon="6.2095">
        <ele>693</ele>
        <time>2019-10-12T06:29:31Z</time>
      </trkpt>
      <trkpt lat="44.02366" lon="6.20978">
        <ele>691.20001220703</ele>
        <time>2019-10-12T06:29:33Z</time>
      </trkpt>
      <trkpt lat="44.02323" lon="6.21038">
        <ele>688.20001220703</ele>
        <time>2019-10-12T06:29:38Z</time>
      </trkpt>
      <trkpt lat="44.02304" lon="6.21056">
        <ele>686.59997558594</ele>
        <time>2019-10-12T06:29:40Z</time>
      </trkpt>
      <trkpt lat="44.0227" lon="6.21074">
        <ele>684.40002441406</ele>
        <time>2019-10-12T06:29:43Z</time>
      </trkpt>
      <trkpt lat="44.02247" lon="6.21077">
        <ele>682.40002441406</ele>
        <time>2019-10-12T06:29:45Z</time>
      </trkpt>
      <trkpt lat="44.02223" lon="6.21076">
        <ele>680.79998779297</ele>
        <time>2019-10-12T06:29:47Z</time>
      </trkpt>
      <trkpt lat="44.0219" lon="6.21062">
        <ele>678</ele>
        <time>2019-10-12T06:29:50Z</time>
      </trkpt>
      <trkpt lat="44.02162" lon="6.21034">
        <ele>675.79998779297</ele>
        <time>2019-10-12T06:29:53Z</time>
      </trkpt>
      <trkpt lat="44.02127" lon="6.2099">
        <ele>672.79998779297</ele>
        <time>2019-10-12T06:29:57Z</time>
      </trkpt>
      <trkpt lat="44.02102" lon="6.20956">
        <ele>670.59997558594</ele>
        <time>2019-10-12T06:30:00Z</time>
      </trkpt>
      <trkpt lat="44.02056" lon="6.20914">
        <ele>667.79998779297</ele>
        <time>2019-10-12T06:30:05Z</time>
      </trkpt>
      <trkpt lat="44.02036" lon="6.20905">
        <ele>666.59997558594</ele>
        <time>2019-10-12T06:30:07Z</time>
      </trkpt>
      <trkpt lat="44.01992" lon="6.20903">
        <ele>664</ele>
        <time>2019-10-12T06:30:11Z</time>
      </trkpt>
      <trkpt lat="44.01951" lon="6.2092">
        <ele>661.59997558594</ele>
        <time>2019-10-12T06:30:15Z</time>
      </trkpt>
      <trkpt lat="44.01894" lon="6.2097">
        <ele>657.20001220703</ele>
        <time>2019-10-12T06:30:21Z</time>
      </trkpt>
      <trkpt lat="44.01862" lon="6.21011">
        <ele>654.59997558594</ele>
        <time>2019-10-12T06:30:25Z</time>
      </trkpt>
      <trkpt lat="44.01821" lon="6.21064">
        <ele>652</ele>
        <time>2019-10-12T06:30:30Z</time>
      </trkpt>
      <trkpt lat="44.01788" lon="6.21107">
        <ele>649.59997558594</ele>
        <time>2019-10-12T06:30:34Z</time>
      </trkpt>
      <trkpt lat="44.01752" lon="6.21144">
        <ele>647</ele>
        <time>2019-10-12T06:30:38Z</time>
      </trkpt>
      <trkpt lat="44.01714" lon="6.21179">
        <ele>644.40002441406</ele>
        <time>2019-10-12T06:30:42Z</time>
      </trkpt>
      <trkpt lat="44.01676" lon="6.21211">
        <ele>641.59997558594</ele>
        <time>2019-10-12T06:30:46Z</time>
      </trkpt>
      <trkpt lat="44.01619" lon="6.21253">
        <ele>637.59997558594</ele>
        <time>2019-10-12T06:30:52Z</time>
      </trkpt>
      <trkpt lat="44.0159" lon="6.21271">
        <ele>635.40002441406</ele>
        <time>2019-10-12T06:30:56Z</time>
      </trkpt>
      <trkpt lat="44.01549" lon="6.21294">
        <ele>630.40002441406</ele>
        <time>2019-10-12T06:31:03Z</time>
      </trkpt>
      <trkpt lat="44.01514" lon="6.21308">
        <ele>627.79998779297</ele>
        <time>2019-10-12T06:31:08Z</time>
      </trkpt>
      <trkpt lat="44.01494" lon="6.21313">
        <ele>626.40002441406</ele>
        <time>2019-10-12T06:31:12Z</time>
      </trkpt>
      <trkpt lat="44.01486" lon="6.21313">
        <ele>621.59997558594</ele>
        <time>2019-10-12T06:31:41Z</time>
      </trkpt>
      <trkpt lat="44.01473" lon="6.21297">
        <ele>621.59997558594</ele>
        <time>2019-10-12T06:31:47Z</time>
      </trkpt>
      <trkpt lat="44.01465" lon="6.21258">
        <ele>621.20001220703</ele>
        <time>2019-10-12T06:31:52Z</time>
      </trkpt>
      <trkpt lat="44.01459" lon="6.21213">
        <ele>620</ele>
        <time>2019-10-12T06:31:57Z</time>
      </trkpt>
      <trkpt lat="44.01454" lon="6.21173">
        <ele>618.79998779297</ele>
        <time>2019-10-12T06:32:01Z</time>
      </trkpt>
      <trkpt lat="44.01433" lon="6.21076">
        <ele>616.59997558594</ele>
        <time>2019-10-12T06:32:11Z</time>
      </trkpt>
      <trkpt lat="44.01412" lon="6.21046">
        <ele>616.20001220703</ele>
        <time>2019-10-12T06:32:16Z</time>
      </trkpt>
      <trkpt lat="44.01389" lon="6.21028">
        <ele>616.20001220703</ele>
        <time>2019-10-12T06:32:20Z</time>
      </trkpt>
      <trkpt lat="44.01333" lon="6.21024">
        <ele>614.79998779297</ele>
        <time>2019-10-12T06:32:28Z</time>
      </trkpt>
      <trkpt lat="44.01297" lon="6.21018">
        <ele>613</ele>
        <time>2019-10-12T06:32:33Z</time>
      </trkpt>
      <trkpt lat="44.0125" lon="6.20976">
        <ele>611</ele>
        <time>2019-10-12T06:32:41Z</time>
      </trkpt>
      <trkpt lat="44.01195" lon="6.20888">
        <ele>610.79998779297</ele>
        <time>2019-10-12T06:32:54Z</time>
      </trkpt>
      <trkpt lat="44.0116" lon="6.20795">
        <ele>610.79998779297</ele>
        <time>2019-10-12T06:33:06Z</time>
      </trkpt>
      <trkpt lat="44.01157" lon="6.20764">
        <ele>610.59997558594</ele>
        <time>2019-10-12T06:33:09Z</time>
      </trkpt>
      <trkpt lat="44.01147" lon="6.20745">
        <ele>610</ele>
        <time>2019-10-12T06:33:12Z</time>
      </trkpt>
      <trkpt lat="44.01128" lon="6.20734">
        <ele>609.40002441406</ele>
        <time>2019-10-12T06:33:15Z</time>
      </trkpt>
      <trkpt lat="44.01084" lon="6.20709">
        <ele>607.40002441406</ele>
        <time>2019-10-12T06:33:21Z</time>
      </trkpt>
      <trkpt lat="44.01046" lon="6.20677">
        <ele>606</ele>
        <time>2019-10-12T06:33:26Z</time>
      </trkpt>
      <trkpt lat="44.00972" lon="6.20587">
        <ele>602.59997558594</ele>
        <time>2019-10-12T06:33:38Z</time>
      </trkpt>
      <trkpt lat="44.00937" lon="6.20555">
        <ele>601.59997558594</ele>
        <time>2019-10-12T06:33:43Z</time>
      </trkpt>
      <trkpt lat="44.00899" lon="6.20517">
        <ele>600</ele>
        <time>2019-10-12T06:33:48Z</time>
      </trkpt>
      <trkpt lat="44.00838" lon="6.20448">
        <ele>596.20001220703</ele>
        <time>2019-10-12T06:33:56Z</time>
      </trkpt>
      <trkpt lat="44.00797" lon="6.20392">
        <ele>593.40002441406</ele>
        <time>2019-10-12T06:34:02Z</time>
      </trkpt>
      <trkpt lat="44.00744" lon="6.20319">
        <ele>591.59997558594</ele>
        <time>2019-10-12T06:34:10Z</time>
      </trkpt>
      <trkpt lat="44.00698" lon="6.20261">
        <ele>590.20001220703</ele>
        <time>2019-10-12T06:34:17Z</time>
      </trkpt>
      <trkpt lat="44.00582" lon="6.20127">
        <ele>587.79998779297</ele>
        <time>2019-10-12T06:34:37Z</time>
      </trkpt>
      <trkpt lat="44.00562" lon="6.20096">
        <ele>587.79998779297</ele>
        <time>2019-10-12T06:34:42Z</time>
      </trkpt>
      <trkpt lat="44.00553" lon="6.20078">
        <ele>587.79998779297</ele>
        <time>2019-10-12T06:34:45Z</time>
      </trkpt>
      <trkpt lat="44.00526" lon="6.2007">
        <ele>588</ele>
        <time>2019-10-12T06:34:50Z</time>
      </trkpt>
      <trkpt lat="44.00469" lon="6.2001">
        <ele>588.59997558594</ele>
        <time>2019-10-12T06:35:04Z</time>
      </trkpt>
      <trkpt lat="44.00421" lon="6.19979">
        <ele>589.40002441406</ele>
        <time>2019-10-12T06:35:15Z</time>
      </trkpt>
      <trkpt lat="44.00356" lon="6.19938">
        <ele>589.79998779297</ele>
        <time>2019-10-12T06:35:30Z</time>
      </trkpt>
      <trkpt lat="44.00317" lon="6.19915">
        <ele>590.59997558594</ele>
        <time>2019-10-12T06:35:39Z</time>
      </trkpt>
      <trkpt lat="44.00236" lon="6.19886">
        <ele>592.20001220703</ele>
        <time>2019-10-12T06:35:56Z</time>
      </trkpt>
      <trkpt lat="44.00166" lon="6.19842">
        <ele>591.59997558594</ele>
        <time>2019-10-12T06:36:09Z</time>
      </trkpt>
      <trkpt lat="44.00127" lon="6.19818">
        <ele>591.40002441406</ele>
        <time>2019-10-12T06:36:16Z</time>
      </trkpt>
      <trkpt lat="44.00072" lon="6.19791">
        <ele>591.20001220703</ele>
        <time>2019-10-12T06:36:26Z</time>
      </trkpt>
      <trkpt lat="44.00064" lon="6.19787">
        <ele>590.79998779297</ele>
        <time>2019-10-12T06:36:29Z</time>
      </trkpt>
      <trkpt lat="44.00051" lon="6.19781">
        <ele>589.79998779297</ele>
        <time>2019-10-12T06:37:22Z</time>
      </trkpt>
      <trkpt lat="43.99998" lon="6.19758">
        <ele>589.40002441406</ele>
        <time>2019-10-12T06:37:32Z</time>
      </trkpt>
      <trkpt lat="43.99945" lon="6.19732">
        <ele>588.79998779297</ele>
        <time>2019-10-12T06:37:40Z</time>
      </trkpt>
      <trkpt lat="43.99877" lon="6.19698">
        <ele>587.40002441406</ele>
        <time>2019-10-12T06:37:52Z</time>
      </trkpt>
      <trkpt lat="43.99841" lon="6.19684">
        <ele>587</ele>
        <time>2019-10-12T06:37:58Z</time>
      </trkpt>
      <trkpt lat="43.99817" lon="6.1967">
        <ele>586.79998779297</ele>
        <time>2019-10-12T06:38:03Z</time>
      </trkpt>
      <trkpt lat="43.99812" lon="6.19672">
        <ele>585</ele>
        <time>2019-10-12T06:38:51Z</time>
      </trkpt>
      <trkpt lat="43.99791" lon="6.19667">
        <ele>584.79998779297</ele>
        <time>2019-10-12T06:38:58Z</time>
      </trkpt>
      <trkpt lat="43.9975" lon="6.19656">
        <ele>584.20001220703</ele>
        <time>2019-10-12T06:39:06Z</time>
      </trkpt>
      <trkpt lat="43.99708" lon="6.19649">
        <ele>582.79998779297</ele>
        <time>2019-10-12T06:39:13Z</time>
      </trkpt>
      <trkpt lat="43.99673" lon="6.19641">
        <ele>582.20001220703</ele>
        <time>2019-10-12T06:39:18Z</time>
      </trkpt>
      <trkpt lat="43.9961" lon="6.19614">
        <ele>580.20001220703</ele>
        <time>2019-10-12T06:39:26Z</time>
      </trkpt>
      <trkpt lat="43.99549" lon="6.19577">
        <ele>577.59997558594</ele>
        <time>2019-10-12T06:39:36Z</time>
      </trkpt>
      <trkpt lat="43.9952" lon="6.19558">
        <ele>577.59997558594</ele>
        <time>2019-10-12T06:39:41Z</time>
      </trkpt>
      <trkpt lat="43.99451" lon="6.19532">
        <ele>576.79998779297</ele>
        <time>2019-10-12T06:39:51Z</time>
      </trkpt>
      <trkpt lat="43.99389" lon="6.19541">
        <ele>575.20001220703</ele>
        <time>2019-10-12T06:39:59Z</time>
      </trkpt>
      <trkpt lat="43.99346" lon="6.19559">
        <ele>574</ele>
        <time>2019-10-12T06:40:05Z</time>
      </trkpt>
      <trkpt lat="43.99287" lon="6.19571">
        <ele>572.59997558594</ele>
        <time>2019-10-12T06:40:13Z</time>
      </trkpt>
      <trkpt lat="43.99257" lon="6.19568">
        <ele>571.79998779297</ele>
        <time>2019-10-12T06:40:17Z</time>
      </trkpt>
      <trkpt lat="43.99201" lon="6.19561">
        <ele>570</ele>
        <time>2019-10-12T06:40:24Z</time>
      </trkpt>
      <trkpt lat="43.99167" lon="6.19557">
        <ele>569</ele>
        <time>2019-10-12T06:40:28Z</time>
      </trkpt>
      <trkpt lat="43.99108" lon="6.19552">
        <ele>566.79998779297</ele>
        <time>2019-10-12T06:40:35Z</time>
      </trkpt>
      <trkpt lat="43.99061" lon="6.19555">
        <ele>565.20001220703</ele>
        <time>2019-10-12T06:40:41Z</time>
      </trkpt>
      <trkpt lat="43.99049" lon="6.19562">
        <ele>564.59997558594</ele>
        <time>2019-10-12T06:40:43Z</time>
      </trkpt>
      <trkpt lat="43.9904" lon="6.19591">
        <ele>563.40002441406</ele>
        <time>2019-10-12T06:40:47Z</time>
      </trkpt>
      <trkpt lat="43.99043" lon="6.19619">
        <ele>562.79998779297</ele>
        <time>2019-10-12T06:40:50Z</time>
      </trkpt>
      <trkpt lat="43.99046" lon="6.19652">
        <ele>562.20001220703</ele>
        <time>2019-10-12T06:41:40Z</time>
      </trkpt>
      <trkpt lat="43.99047" lon="6.19664">
        <ele>562.20001220703</ele>
        <time>2019-10-12T06:41:44Z</time>
      </trkpt>
      <trkpt lat="43.9905" lon="6.19721">
        <ele>562.20001220703</ele>
        <time>2019-10-12T06:41:53Z</time>
      </trkpt>
      <trkpt lat="43.9905" lon="6.19745">
        <ele>562.20001220703</ele>
        <time>2019-10-12T06:41:56Z</time>
      </trkpt>
      <trkpt lat="43.99043" lon="6.1981">
        <ele>562.40002441406</ele>
        <time>2019-10-12T06:42:04Z</time>
      </trkpt>
      <trkpt lat="43.99026" lon="6.19849">
        <ele>561.59997558594</ele>
        <time>2019-10-12T06:42:09Z</time>
      </trkpt>
      <trkpt lat="43.9899" lon="6.19875">
        <ele>560.20001220703</ele>
        <time>2019-10-12T06:42:15Z</time>
      </trkpt>
      <trkpt lat="43.98953" lon="6.19884">
        <ele>559.79998779297</ele>
        <time>2019-10-12T06:42:21Z</time>
      </trkpt>
      <trkpt lat="43.98879" lon="6.19869">
        <ele>559.59997558594</ele>
        <time>2019-10-12T06:42:33Z</time>
      </trkpt>
      <trkpt lat="43.98822" lon="6.19849">
        <ele>559</ele>
        <time>2019-10-12T06:42:42Z</time>
      </trkpt>
      <trkpt lat="43.98769" lon="6.1983">
        <ele>557.79998779297</ele>
        <time>2019-10-12T06:42:50Z</time>
      </trkpt>
      <trkpt lat="43.98708" lon="6.19809">
        <ele>557</ele>
        <time>2019-10-12T06:42:59Z</time>
      </trkpt>
      <trkpt lat="43.98646" lon="6.19787">
        <ele>555.20001220703</ele>
        <time>2019-10-12T06:43:08Z</time>
      </trkpt>
      <trkpt lat="43.98512" lon="6.19741">
        <ele>553.59997558594</ele>
        <time>2019-10-12T06:43:28Z</time>
      </trkpt>
      <trkpt lat="43.9845" lon="6.1972">
        <ele>553.59997558594</ele>
        <time>2019-10-12T06:43:40Z</time>
      </trkpt>
      <trkpt lat="43.98411" lon="6.19708">
        <ele>554.40002441406</ele>
        <time>2019-10-12T06:43:48Z</time>
      </trkpt>
      <trkpt lat="43.98375" lon="6.19701">
        <ele>555</ele>
        <time>2019-10-12T06:43:55Z</time>
      </trkpt>
      <trkpt lat="43.9826" lon="6.19687">
        <ele>553.79998779297</ele>
        <time>2019-10-12T06:44:13Z</time>
      </trkpt>
      <trkpt lat="43.98196" lon="6.1968">
        <ele>552.20001220703</ele>
        <time>2019-10-12T06:44:22Z</time>
      </trkpt>
      <trkpt lat="43.98134" lon="6.19673">
        <ele>551</ele>
        <time>2019-10-12T06:44:31Z</time>
      </trkpt>
      <trkpt lat="43.98037" lon="6.19683">
        <ele>550.20001220703</ele>
        <time>2019-10-12T06:44:47Z</time>
      </trkpt>
      <trkpt lat="43.97949" lon="6.197">
        <ele>549.20001220703</ele>
        <time>2019-10-12T06:45:00Z</time>
      </trkpt>
      <trkpt lat="43.97887" lon="6.19701">
        <ele>548.20001220703</ele>
        <time>2019-10-12T06:45:10Z</time>
      </trkpt>
      <trkpt lat="43.97833" lon="6.1969">
        <ele>548.59997558594</ele>
        <time>2019-10-12T06:45:21Z</time>
      </trkpt>
      <trkpt lat="43.97758" lon="6.1965">
        <ele>548.40002441406</ele>
        <time>2019-10-12T06:45:35Z</time>
      </trkpt>
      <trkpt lat="43.97723" lon="6.19612">
        <ele>548</ele>
        <time>2019-10-12T06:45:43Z</time>
      </trkpt>
      <trkpt lat="43.97649" lon="6.19538">
        <ele>547.40002441406</ele>
        <time>2019-10-12T06:45:58Z</time>
      </trkpt>
      <trkpt lat="43.9761" lon="6.19519">
        <ele>546.79998779297</ele>
        <time>2019-10-12T06:46:04Z</time>
      </trkpt>
      <trkpt lat="43.97521" lon="6.19476">
        <ele>544.20001220703</ele>
        <time>2019-10-12T06:46:18Z</time>
      </trkpt>
      <trkpt lat="43.97465" lon="6.19447">
        <ele>543.59997558594</ele>
        <time>2019-10-12T06:46:27Z</time>
      </trkpt>
      <trkpt lat="43.97394" lon="6.19415">
        <ele>542.79998779297</ele>
        <time>2019-10-12T06:46:39Z</time>
      </trkpt>
      <trkpt lat="43.97354" lon="6.19392">
        <ele>543</ele>
        <time>2019-10-12T06:46:47Z</time>
      </trkpt>
      <trkpt lat="43.97307" lon="6.19357">
        <ele>543.59997558594</ele>
        <time>2019-10-12T06:46:58Z</time>
      </trkpt>
      <trkpt lat="43.97284" lon="6.19339">
        <ele>544.40002441406</ele>
        <time>2019-10-12T06:47:05Z</time>
      </trkpt>
      <trkpt lat="43.97251" lon="6.19315">
        <ele>546.20001220703</ele>
        <time>2019-10-12T06:47:16Z</time>
      </trkpt>
      <trkpt lat="43.97187" lon="6.19278">
        <ele>547.79998779297</ele>
        <time>2019-10-12T06:47:34Z</time>
      </trkpt>
      <trkpt lat="43.97142" lon="6.19255">
        <ele>547.79998779297</ele>
        <time>2019-10-12T06:47:44Z</time>
      </trkpt>
      <trkpt lat="43.9712" lon="6.19246">
        <ele>547.40002441406</ele>
        <time>2019-10-12T06:47:48Z</time>
      </trkpt>
      <trkpt lat="43.97087" lon="6.19232">
        <ele>547</ele>
        <time>2019-10-12T06:47:53Z</time>
      </trkpt>
      <trkpt lat="43.97039" lon="6.19211">
        <ele>545.40002441406</ele>
        <time>2019-10-12T06:47:59Z</time>
      </trkpt>
      <trkpt lat="43.97005" lon="6.19196">
        <ele>543.59997558594</ele>
        <time>2019-10-12T06:48:03Z</time>
      </trkpt>
      <trkpt lat="43.96955" lon="6.19175">
        <ele>541</ele>
        <time>2019-10-12T06:48:09Z</time>
      </trkpt>
      <trkpt lat="43.96897" lon="6.19152">
        <ele>538.59997558594</ele>
        <time>2019-10-12T06:48:17Z</time>
      </trkpt>
      <trkpt lat="43.96834" lon="6.19122">
        <ele>538.59997558594</ele>
        <time>2019-10-12T06:48:27Z</time>
      </trkpt>
      <trkpt lat="43.96811" lon="6.1911">
        <ele>538.59997558594</ele>
        <time>2019-10-12T06:48:31Z</time>
      </trkpt>
      <trkpt lat="43.96741" lon="6.19072">
        <ele>539</ele>
        <time>2019-10-12T06:48:44Z</time>
      </trkpt>
      <trkpt lat="43.96679" lon="6.19033">
        <ele>539.20001220703</ele>
        <time>2019-10-12T06:48:56Z</time>
      </trkpt>
      <trkpt lat="43.96584" lon="6.18972">
        <ele>540.40002441406</ele>
        <time>2019-10-12T06:49:15Z</time>
      </trkpt>
      <trkpt lat="43.96538" lon="6.18942">
        <ele>540.79998779297</ele>
        <time>2019-10-12T06:49:24Z</time>
      </trkpt>
      <trkpt lat="43.96463" lon="6.18909">
        <ele>541.20001220703</ele>
        <time>2019-10-12T06:49:37Z</time>
      </trkpt>
      <trkpt lat="43.96422" lon="6.18893">
        <ele>540.59997558594</ele>
        <time>2019-10-12T06:49:43Z</time>
      </trkpt>
      <trkpt lat="43.96392" lon="6.18881">
        <ele>539.59997558594</ele>
        <time>2019-10-12T06:49:47Z</time>
      </trkpt>
      <trkpt lat="43.96354" lon="6.18862">
        <ele>538.40002441406</ele>
        <time>2019-10-12T06:49:52Z</time>
      </trkpt>
      <trkpt lat="43.9633" lon="6.18846">
        <ele>537</ele>
        <time>2019-10-12T06:49:55Z</time>
      </trkpt>
      <trkpt lat="43.96259" lon="6.18799">
        <ele>533.79998779297</ele>
        <time>2019-10-12T06:50:05Z</time>
      </trkpt>
      <trkpt lat="43.96194" lon="6.18765">
        <ele>533.40002441406</ele>
        <time>2019-10-12T06:50:16Z</time>
      </trkpt>
      <trkpt lat="43.9613" lon="6.18722">
        <ele>533.79998779297</ele>
        <time>2019-10-12T06:50:28Z</time>
      </trkpt>
      <trkpt lat="43.96098" lon="6.18688">
        <ele>534.40002441406</ele>
        <time>2019-10-12T06:50:36Z</time>
      </trkpt>
      <trkpt lat="43.96062" lon="6.18652">
        <ele>535.40002441406</ele>
        <time>2019-10-12T06:50:45Z</time>
      </trkpt>
      <trkpt lat="43.96018" lon="6.18608">
        <ele>535.59997558594</ele>
        <time>2019-10-12T06:50:55Z</time>
      </trkpt>
      <trkpt lat="43.95971" lon="6.18562">
        <ele>535</ele>
        <time>2019-10-12T06:51:04Z</time>
      </trkpt>
      <trkpt lat="43.95944" lon="6.18538">
        <ele>534.20001220703</ele>
        <time>2019-10-12T06:51:08Z</time>
      </trkpt>
      <trkpt lat="43.95914" lon="6.18513">
        <ele>533</ele>
        <time>2019-10-12T06:51:12Z</time>
      </trkpt>
      <trkpt lat="43.95871" lon="6.18477">
        <ele>530.59997558594</ele>
        <time>2019-10-12T06:51:18Z</time>
      </trkpt>
      <trkpt lat="43.95843" lon="6.18455">
        <ele>528.79998779297</ele>
        <time>2019-10-12T06:51:22Z</time>
      </trkpt>
      <trkpt lat="43.95767" lon="6.18394">
        <ele>527.59997558594</ele>
        <time>2019-10-12T06:51:35Z</time>
      </trkpt>
      <trkpt lat="43.95723" lon="6.18356">
        <ele>528</ele>
        <time>2019-10-12T06:51:44Z</time>
      </trkpt>
      <trkpt lat="43.95662" lon="6.183">
        <ele>527.79998779297</ele>
        <time>2019-10-12T06:51:55Z</time>
      </trkpt>
      <trkpt lat="43.95583" lon="6.18229">
        <ele>525.79998779297</ele>
        <time>2019-10-12T06:52:08Z</time>
      </trkpt>
      <trkpt lat="43.95509" lon="6.18177">
        <ele>525.79998779297</ele>
        <time>2019-10-12T06:52:22Z</time>
      </trkpt>
      <trkpt lat="43.9547" lon="6.1815">
        <ele>525.79998779297</ele>
        <time>2019-10-12T06:52:29Z</time>
      </trkpt>
      <trkpt lat="43.95416" lon="6.18112">
        <ele>525</ele>
        <time>2019-10-12T06:52:38Z</time>
      </trkpt>
      <trkpt lat="43.95388" lon="6.18093">
        <ele>524</ele>
        <time>2019-10-12T06:52:43Z</time>
      </trkpt>
      <trkpt lat="43.95321" lon="6.18049">
        <ele>524.20001220703</ele>
        <time>2019-10-12T06:52:56Z</time>
      </trkpt>
      <trkpt lat="43.95254" lon="6.17985">
        <ele>523.59997558594</ele>
        <time>2019-10-12T06:53:09Z</time>
      </trkpt>
      <trkpt lat="43.95198" lon="6.17928">
        <ele>523</ele>
        <time>2019-10-12T06:53:20Z</time>
      </trkpt>
      <trkpt lat="43.95135" lon="6.17864">
        <ele>521</ele>
        <time>2019-10-12T06:53:32Z</time>
      </trkpt>
      <trkpt lat="43.95102" lon="6.17831">
        <ele>520.59997558594</ele>
        <time>2019-10-12T06:53:38Z</time>
      </trkpt>
      <trkpt lat="43.95043" lon="6.17778">
        <ele>520</ele>
        <time>2019-10-12T06:53:48Z</time>
      </trkpt>
      <trkpt lat="43.95005" lon="6.17746">
        <ele>519.40002441406</ele>
        <time>2019-10-12T06:53:54Z</time>
      </trkpt>
      <trkpt lat="43.94938" lon="6.17699">
        <ele>517</ele>
        <time>2019-10-12T06:54:04Z</time>
      </trkpt>
      <trkpt lat="43.94842" lon="6.17652">
        <ele>515</ele>
        <time>2019-10-12T06:54:18Z</time>
      </trkpt>
      <trkpt lat="43.94741" lon="6.17569">
        <ele>513.40002441406</ele>
        <time>2019-10-12T06:54:35Z</time>
      </trkpt>
      <trkpt lat="43.947" lon="6.17517">
        <ele>513.20001220703</ele>
        <time>2019-10-12T06:54:43Z</time>
      </trkpt>
      <trkpt lat="43.94648" lon="6.17445">
        <ele>512</ele>
        <time>2019-10-12T06:54:53Z</time>
      </trkpt>
      <trkpt lat="43.94576" lon="6.17368">
        <ele>510.20001220703</ele>
        <time>2019-10-12T06:55:07Z</time>
      </trkpt>
      <trkpt lat="43.94499" lon="6.17321">
        <ele>509.79998779297</ele>
        <time>2019-10-12T06:55:20Z</time>
      </trkpt>
      <trkpt lat="43.94461" lon="6.17285">
        <ele>509.60000610352</ele>
        <time>2019-10-12T06:55:27Z</time>
      </trkpt>
      <trkpt lat="43.94411" lon="6.17191">
        <ele>509.79998779297</ele>
        <time>2019-10-12T06:55:40Z</time>
      </trkpt>
      <trkpt lat="43.94374" lon="6.17127">
        <ele>509.79998779297</ele>
        <time>2019-10-12T06:55:49Z</time>
      </trkpt>
      <trkpt lat="43.94287" lon="6.17013">
        <ele>509.79998779297</ele>
        <time>2019-10-12T06:56:09Z</time>
      </trkpt>
      <trkpt lat="43.94265" lon="6.16992">
        <ele>509.79998779297</ele>
        <time>2019-10-12T06:56:15Z</time>
      </trkpt>
      <trkpt lat="43.94247" lon="6.16978">
        <ele>510.39999389648</ele>
        <time>2019-10-12T06:56:20Z</time>
      </trkpt>
      <trkpt lat="43.9421" lon="6.1696">
        <ele>513</ele>
        <time>2019-10-12T06:56:32Z</time>
      </trkpt>
      <trkpt lat="43.94182" lon="6.16952">
        <ele>514</ele>
        <time>2019-10-12T06:56:40Z</time>
      </trkpt>
      <trkpt lat="43.94139" lon="6.16922">
        <ele>514.40002441406</ele>
        <time>2019-10-12T06:56:51Z</time>
      </trkpt>
      <trkpt lat="43.94123" lon="6.16887">
        <ele>514.40002441406</ele>
        <time>2019-10-12T06:56:56Z</time>
      </trkpt>
      <trkpt lat="43.94117" lon="6.16852">
        <ele>514</ele>
        <time>2019-10-12T06:57:00Z</time>
      </trkpt>
      <trkpt lat="43.94109" lon="6.16806">
        <ele>513.20001220703</ele>
        <time>2019-10-12T06:57:05Z</time>
      </trkpt>
      <trkpt lat="43.94084" lon="6.1674">
        <ele>512.20001220703</ele>
        <time>2019-10-12T06:57:14Z</time>
      </trkpt>
      <trkpt lat="43.9406" lon="6.16673">
        <ele>511.60000610352</ele>
        <time>2019-10-12T06:57:23Z</time>
      </trkpt>
      <trkpt lat="43.94026" lon="6.16542">
        <ele>510.20001220703</ele>
        <time>2019-10-12T06:57:38Z</time>
      </trkpt>
      <trkpt lat="43.94" lon="6.16488">
        <ele>509.79998779297</ele>
        <time>2019-10-12T06:57:45Z</time>
      </trkpt>
      <trkpt lat="43.93966" lon="6.16428">
        <ele>509.20001220703</ele>
        <time>2019-10-12T06:57:53Z</time>
      </trkpt>
      <trkpt lat="43.93929" lon="6.16379">
        <ele>508.39999389648</ele>
        <time>2019-10-12T06:58:00Z</time>
      </trkpt>
      <trkpt lat="43.93841" lon="6.16296">
        <ele>506.60000610352</ele>
        <time>2019-10-12T06:58:15Z</time>
      </trkpt>
      <trkpt lat="43.93789" lon="6.16243">
        <ele>506</ele>
        <time>2019-10-12T06:58:24Z</time>
      </trkpt>
      <trkpt lat="43.93721" lon="6.16139">
        <ele>505</ele>
        <time>2019-10-12T06:58:38Z</time>
      </trkpt>
      <trkpt lat="43.93688" lon="6.16087">
        <ele>504.60000610352</ele>
        <time>2019-10-12T06:58:45Z</time>
      </trkpt>
      <trkpt lat="43.93646" lon="6.16023">
        <ele>503.79998779297</ele>
        <time>2019-10-12T06:58:54Z</time>
      </trkpt>
      <trkpt lat="43.93571" lon="6.15886">
        <ele>503.79998779297</ele>
        <time>2019-10-12T06:59:14Z</time>
      </trkpt>
      <trkpt lat="43.93542" lon="6.15822">
        <ele>504.39999389648</ele>
        <time>2019-10-12T06:59:23Z</time>
      </trkpt>
      <trkpt lat="43.93509" lon="6.15753">
        <ele>504.20001220703</ele>
        <time>2019-10-12T06:59:32Z</time>
      </trkpt>
      <trkpt lat="43.93487" lon="6.15717">
        <ele>503.60000610352</ele>
        <time>2019-10-12T06:59:37Z</time>
      </trkpt>
      <trkpt lat="43.93446" lon="6.15671">
        <ele>502.39999389648</ele>
        <time>2019-10-12T06:59:44Z</time>
      </trkpt>
      <trkpt lat="43.93432" lon="6.15659">
        <ele>502.20001220703</ele>
        <time>2019-10-12T06:59:46Z</time>
      </trkpt>
      <trkpt lat="43.93374" lon="6.15607">
        <ele>500.20001220703</ele>
        <time>2019-10-12T06:59:54Z</time>
      </trkpt>
      <trkpt lat="43.93347" lon="6.15579">
        <ele>499</ele>
        <time>2019-10-12T06:59:58Z</time>
      </trkpt>
      <trkpt lat="43.93315" lon="6.15537">
        <ele>497.60000610352</ele>
        <time>2019-10-12T07:00:04Z</time>
      </trkpt>
      <trkpt lat="43.93259" lon="6.15462">
        <ele>497.79998779297</ele>
        <time>2019-10-12T07:00:16Z</time>
      </trkpt>
      <trkpt lat="43.93234" lon="6.15434">
        <ele>498.39999389648</ele>
        <time>2019-10-12T07:00:21Z</time>
      </trkpt>
      <trkpt lat="43.93188" lon="6.15385">
        <ele>498.60000610352</ele>
        <time>2019-10-12T07:00:29Z</time>
      </trkpt>
      <trkpt lat="43.9313" lon="6.15302">
        <ele>496.39999389648</ele>
        <time>2019-10-12T07:00:40Z</time>
      </trkpt>
      <trkpt lat="43.9308" lon="6.15203">
        <ele>495</ele>
        <time>2019-10-12T07:00:52Z</time>
      </trkpt>
      <trkpt lat="43.93058" lon="6.15116">
        <ele>495.20001220703</ele>
        <time>2019-10-12T07:01:03Z</time>
      </trkpt>
      <trkpt lat="43.93043" lon="6.15051">
        <ele>496</ele>
        <time>2019-10-12T07:01:12Z</time>
      </trkpt>
      <trkpt lat="43.93031" lon="6.15">
        <ele>496.79998779297</ele>
        <time>2019-10-12T07:01:19Z</time>
      </trkpt>
      <trkpt lat="43.93006" lon="6.14887">
        <ele>497.79998779297</ele>
        <time>2019-10-12T07:01:33Z</time>
      </trkpt>
      <trkpt lat="43.9299" lon="6.14817">
        <ele>497.39999389648</ele>
        <time>2019-10-12T07:01:41Z</time>
      </trkpt>
      <trkpt lat="43.92963" lon="6.14733">
        <ele>496.20001220703</ele>
        <time>2019-10-12T07:01:50Z</time>
      </trkpt>
      <trkpt lat="43.92918" lon="6.14674">
        <ele>495.60000610352</ele>
        <time>2019-10-12T07:01:58Z</time>
      </trkpt>
      <trkpt lat="43.92864" lon="6.14506">
        <ele>494.60000610352</ele>
        <time>2019-10-12T07:02:16Z</time>
      </trkpt>
      <trkpt lat="43.92863" lon="6.1449">
        <ele>494.79998779297</ele>
        <time>2019-10-12T07:02:18Z</time>
      </trkpt>
      <trkpt lat="43.92861" lon="6.14456">
        <ele>495.20001220703</ele>
        <time>2019-10-12T07:02:23Z</time>
      </trkpt>
      <trkpt lat="43.92859" lon="6.14403">
        <ele>497</ele>
        <time>2019-10-12T07:02:31Z</time>
      </trkpt>
      <trkpt lat="43.9285" lon="6.14344">
        <ele>498.39999389648</ele>
        <time>2019-10-12T07:02:40Z</time>
      </trkpt>
      <trkpt lat="43.92813" lon="6.14254">
        <ele>499</ele>
        <time>2019-10-12T07:02:54Z</time>
      </trkpt>
      <trkpt lat="43.92795" lon="6.14232">
        <ele>498.79998779297</ele>
        <time>2019-10-12T07:02:58Z</time>
      </trkpt>
      <trkpt lat="43.92764" lon="6.14202">
        <ele>498</ele>
        <time>2019-10-12T07:03:04Z</time>
      </trkpt>
      <trkpt lat="43.92726" lon="6.14167">
        <ele>497</ele>
        <time>2019-10-12T07:03:11Z</time>
      </trkpt>
      <trkpt lat="43.9269" lon="6.1414">
        <ele>496.39999389648</ele>
        <time>2019-10-12T07:03:17Z</time>
      </trkpt>
      <trkpt lat="43.92656" lon="6.14124">
        <ele>495.79998779297</ele>
        <time>2019-10-12T07:03:22Z</time>
      </trkpt>
      <trkpt lat="43.92614" lon="6.14115">
        <ele>495</ele>
        <time>2019-10-12T07:03:28Z</time>
      </trkpt>
      <trkpt lat="43.92556" lon="6.14107">
        <ele>493.20001220703</ele>
        <time>2019-10-12T07:03:36Z</time>
      </trkpt>
      <trkpt lat="43.92498" lon="6.14099">
        <ele>492.20001220703</ele>
        <time>2019-10-12T07:03:44Z</time>
      </trkpt>
      <trkpt lat="43.92438" lon="6.14084">
        <ele>490.79998779297</ele>
        <time>2019-10-12T07:03:52Z</time>
      </trkpt>
      <trkpt lat="43.92426" lon="6.14073">
        <ele>490.39999389648</ele>
        <time>2019-10-12T07:03:54Z</time>
      </trkpt>
      <trkpt lat="43.9239" lon="6.14029">
        <ele>489.79998779297</ele>
        <time>2019-10-12T07:04:01Z</time>
      </trkpt>
      <trkpt lat="43.92362" lon="6.13994">
        <ele>489.79998779297</ele>
        <time>2019-10-12T07:04:07Z</time>
      </trkpt>
      <trkpt lat="43.92307" lon="6.13928">
        <ele>490</ele>
        <time>2019-10-12T07:04:19Z</time>
      </trkpt>
      <trkpt lat="43.92271" lon="6.13888">
        <ele>489.20001220703</ele>
        <time>2019-10-12T07:04:25Z</time>
      </trkpt>
      <trkpt lat="43.92228" lon="6.13823">
        <ele>487.20001220703</ele>
        <time>2019-10-12T07:04:33Z</time>
      </trkpt>
      <trkpt lat="43.92215" lon="6.13761">
        <ele>485.60000610352</ele>
        <time>2019-10-12T07:04:40Z</time>
      </trkpt>
      <trkpt lat="43.92205" lon="6.13693">
        <ele>485.39999389648</ele>
        <time>2019-10-12T07:04:48Z</time>
      </trkpt>
      <trkpt lat="43.92198" lon="6.13643">
        <ele>485.20001220703</ele>
        <time>2019-10-12T07:04:54Z</time>
      </trkpt>
      <trkpt lat="43.92186" lon="6.13575">
        <ele>485.20001220703</ele>
        <time>2019-10-12T07:05:03Z</time>
      </trkpt>
      <trkpt lat="43.92176" lon="6.1353">
        <ele>484.79998779297</ele>
        <time>2019-10-12T07:05:09Z</time>
      </trkpt>
      <trkpt lat="43.9216" lon="6.13493">
        <ele>484.39999389648</ele>
        <time>2019-10-12T07:05:16Z</time>
      </trkpt>
      <trkpt lat="43.92151" lon="6.13486">
        <ele>484.39999389648</ele>
        <time>2019-10-12T07:05:23Z</time>
      </trkpt>
      <trkpt lat="43.92146" lon="6.13484">
        <ele>485.39999389648</ele>
        <time>2019-10-12T07:05:29Z</time>
      </trkpt>
      <trkpt lat="43.92141" lon="6.13481">
        <ele>486.60000610352</ele>
        <time>2019-10-12T07:13:00Z</time>
      </trkpt>
      <trkpt lat="43.9213" lon="6.13473">
        <ele>486.60000610352</ele>
        <time>2019-10-12T07:13:05Z</time>
      </trkpt>
      <trkpt lat="43.92092" lon="6.13444">
        <ele>486.79998779297</ele>
        <time>2019-10-12T07:13:18Z</time>
      </trkpt>
      <trkpt lat="43.92046" lon="6.13404">
        <ele>486.20001220703</ele>
        <time>2019-10-12T07:13:32Z</time>
      </trkpt>
      <trkpt lat="43.92007" lon="6.13381">
        <ele>486</ele>
        <time>2019-10-12T07:13:42Z</time>
      </trkpt>
      <trkpt lat="43.91998" lon="6.13384">
        <ele>486</ele>
        <time>2019-10-12T07:13:45Z</time>
      </trkpt>
      <trkpt lat="43.91984" lon="6.13399">
        <ele>486.79998779297</ele>
        <time>2019-10-12T07:13:52Z</time>
      </trkpt>
      <trkpt lat="43.91977" lon="6.13408">
        <ele>487.39999389648</ele>
        <time>2019-10-12T07:13:56Z</time>
      </trkpt>
      <trkpt lat="43.91963" lon="6.13428">
        <ele>488.79998779297</ele>
        <time>2019-10-12T07:14:04Z</time>
      </trkpt>
      <trkpt lat="43.91953" lon="6.13441">
        <ele>490</ele>
        <time>2019-10-12T07:14:10Z</time>
      </trkpt>
      <trkpt lat="43.91936" lon="6.13465">
        <ele>491.39999389648</ele>
        <time>2019-10-12T07:14:21Z</time>
      </trkpt>
      <trkpt lat="43.91924" lon="6.13482">
        <ele>493</ele>
        <time>2019-10-12T07:14:29Z</time>
      </trkpt>
      <trkpt lat="43.91914" lon="6.1349">
        <ele>493.79998779297</ele>
        <time>2019-10-12T07:14:34Z</time>
      </trkpt>
      <trkpt lat="43.9187" lon="6.13511">
        <ele>496.60000610352</ele>
        <time>2019-10-12T07:14:51Z</time>
      </trkpt>
      <trkpt lat="43.91845" lon="6.13513">
        <ele>497</ele>
        <time>2019-10-12T07:14:59Z</time>
      </trkpt>
      <trkpt lat="43.91802" lon="6.13501">
        <ele>498</ele>
        <time>2019-10-12T07:15:13Z</time>
      </trkpt>
      <trkpt lat="43.9177" lon="6.13489">
        <ele>498.79998779297</ele>
        <time>2019-10-12T07:15:23Z</time>
      </trkpt>
      <trkpt lat="43.9173" lon="6.13467">
        <ele>500</ele>
        <time>2019-10-12T07:15:38Z</time>
      </trkpt>
      <trkpt lat="43.91704" lon="6.13441">
        <ele>501.20001220703</ele>
        <time>2019-10-12T07:15:48Z</time>
      </trkpt>
      <trkpt lat="43.91672" lon="6.13419">
        <ele>502.79998779297</ele>
        <time>2019-10-12T07:16:00Z</time>
      </trkpt>
      <trkpt lat="43.91655" lon="6.13423">
        <ele>504</ele>
        <time>2019-10-12T07:16:07Z</time>
      </trkpt>
      <trkpt lat="43.9164" lon="6.13432">
        <ele>505.20001220703</ele>
        <time>2019-10-12T07:16:15Z</time>
      </trkpt>
      <trkpt lat="43.9163" lon="6.13439">
        <ele>506.39999389648</ele>
        <time>2019-10-12T07:16:22Z</time>
      </trkpt>
      <trkpt lat="43.91592" lon="6.13456">
        <ele>508.39999389648</ele>
        <time>2019-10-12T07:16:37Z</time>
      </trkpt>
      <trkpt lat="43.91569" lon="6.13461">
        <ele>509.60000610352</ele>
        <time>2019-10-12T07:16:46Z</time>
      </trkpt>
      <trkpt lat="43.91517" lon="6.13481">
        <ele>512.20001220703</ele>
        <time>2019-10-12T07:17:08Z</time>
      </trkpt>
      <trkpt lat="43.91497" lon="6.13502">
        <ele>513.20001220703</ele>
        <time>2019-10-12T07:17:17Z</time>
      </trkpt>
      <trkpt lat="43.91478" lon="6.13532">
        <ele>514.40002441406</ele>
        <time>2019-10-12T07:17:28Z</time>
      </trkpt>
      <trkpt lat="43.91465" lon="6.13559">
        <ele>515.40002441406</ele>
        <time>2019-10-12T07:17:38Z</time>
      </trkpt>
      <trkpt lat="43.91452" lon="6.13602">
        <ele>517</ele>
        <time>2019-10-12T07:17:52Z</time>
      </trkpt>
      <trkpt lat="43.91446" lon="6.13641">
        <ele>518.59997558594</ele>
        <time>2019-10-12T07:18:03Z</time>
      </trkpt>
      <trkpt lat="43.91444" lon="6.13663">
        <ele>519.40002441406</ele>
        <time>2019-10-12T07:18:10Z</time>
      </trkpt>
      <trkpt lat="43.91439" lon="6.13707">
        <ele>521.59997558594</ele>
        <time>2019-10-12T07:18:22Z</time>
      </trkpt>
      <trkpt lat="43.91436" lon="6.13726">
        <ele>522</ele>
        <time>2019-10-12T07:18:27Z</time>
      </trkpt>
      <trkpt lat="43.91419" lon="6.13769">
        <ele>524.59997558594</ele>
        <time>2019-10-12T07:18:41Z</time>
      </trkpt>
      <trkpt lat="43.91402" lon="6.13787">
        <ele>526</ele>
        <time>2019-10-12T07:18:48Z</time>
      </trkpt>
      <trkpt lat="43.91359" lon="6.13807">
        <ele>529.40002441406</ele>
        <time>2019-10-12T07:19:06Z</time>
      </trkpt>
      <trkpt lat="43.91347" lon="6.13811">
        <ele>530</ele>
        <time>2019-10-12T07:19:11Z</time>
      </trkpt>
      <trkpt lat="43.91317" lon="6.13822">
        <ele>532.40002441406</ele>
        <time>2019-10-12T07:19:25Z</time>
      </trkpt>
      <trkpt lat="43.913" lon="6.13828">
        <ele>533.59997558594</ele>
        <time>2019-10-12T07:19:34Z</time>
      </trkpt>
      <trkpt lat="43.91283" lon="6.13837">
        <ele>534.40002441406</ele>
        <time>2019-10-12T07:19:42Z</time>
      </trkpt>
      <trkpt lat="43.91253" lon="6.1385">
        <ele>536.20001220703</ele>
        <time>2019-10-12T07:19:55Z</time>
      </trkpt>
      <trkpt lat="43.91241" lon="6.13847">
        <ele>537.20001220703</ele>
        <time>2019-10-12T07:20:02Z</time>
      </trkpt>
      <trkpt lat="43.91226" lon="6.13832">
        <ele>539.20001220703</ele>
        <time>2019-10-12T07:20:13Z</time>
      </trkpt>
      <trkpt lat="43.91217" lon="6.13819">
        <ele>540.40002441406</ele>
        <time>2019-10-12T07:20:20Z</time>
      </trkpt>
      <trkpt lat="43.91197" lon="6.13813">
        <ele>543</ele>
        <time>2019-10-12T07:20:32Z</time>
      </trkpt>
      <trkpt lat="43.91186" lon="6.13819">
        <ele>543.79998779297</ele>
        <time>2019-10-12T07:20:40Z</time>
      </trkpt>
      <trkpt lat="43.91169" lon="6.13835">
        <ele>545.59997558594</ele>
        <time>2019-10-12T07:20:51Z</time>
      </trkpt>
      <trkpt lat="43.91152" lon="6.13852">
        <ele>547.20001220703</ele>
        <time>2019-10-12T07:21:02Z</time>
      </trkpt>
      <trkpt lat="43.91138" lon="6.13865">
        <ele>549.20001220703</ele>
        <time>2019-10-12T07:21:13Z</time>
      </trkpt>
      <trkpt lat="43.91128" lon="6.13874">
        <ele>550.79998779297</ele>
        <time>2019-10-12T07:21:20Z</time>
      </trkpt>
      <trkpt lat="43.9111" lon="6.13908">
        <ele>554.20001220703</ele>
        <time>2019-10-12T07:21:40Z</time>
      </trkpt>
      <trkpt lat="43.91117" lon="6.13913">
        <ele>555.20001220703</ele>
        <time>2019-10-12T07:21:46Z</time>
      </trkpt>
      <trkpt lat="43.91129" lon="6.13909">
        <ele>555.59997558594</ele>
        <time>2019-10-12T07:21:52Z</time>
      </trkpt>
      <trkpt lat="43.91158" lon="6.13907">
        <ele>557</ele>
        <time>2019-10-12T07:22:04Z</time>
      </trkpt>
      <trkpt lat="43.9116" lon="6.13923">
        <ele>557.59997558594</ele>
        <time>2019-10-12T07:22:08Z</time>
      </trkpt>
      <trkpt lat="43.9112" lon="6.13938">
        <ele>560.20001220703</ele>
        <time>2019-10-12T07:22:25Z</time>
      </trkpt>
      <trkpt lat="43.91098" lon="6.13949">
        <ele>561.40002441406</ele>
        <time>2019-10-12T07:22:36Z</time>
      </trkpt>
      <trkpt lat="43.91072" lon="6.13963">
        <ele>563</ele>
        <time>2019-10-12T07:22:49Z</time>
      </trkpt>
      <trkpt lat="43.91058" lon="6.13971">
        <ele>564.40002441406</ele>
        <time>2019-10-12T07:22:57Z</time>
      </trkpt>
      <trkpt lat="43.91019" lon="6.13988">
        <ele>567.79998779297</ele>
        <time>2019-10-12T07:23:17Z</time>
      </trkpt>
      <trkpt lat="43.91001" lon="6.13976">
        <ele>568.79998779297</ele>
        <time>2019-10-12T07:23:26Z</time>
      </trkpt>
      <trkpt lat="43.90996" lon="6.1394">
        <ele>570</ele>
        <time>2019-10-12T07:23:37Z</time>
      </trkpt>
      <trkpt lat="43.91001" lon="6.13912">
        <ele>571.20001220703</ele>
        <time>2019-10-12T07:23:46Z</time>
      </trkpt>
      <trkpt lat="43.91009" lon="6.13866">
        <ele>573.20001220703</ele>
        <time>2019-10-12T07:24:01Z</time>
      </trkpt>
      <trkpt lat="43.91013" lon="6.13842">
        <ele>574</ele>
        <time>2019-10-12T07:24:10Z</time>
      </trkpt>
      <trkpt lat="43.91017" lon="6.13815">
        <ele>575.40002441406</ele>
        <time>2019-10-12T07:24:20Z</time>
      </trkpt>
      <trkpt lat="43.91019" lon="6.13787">
        <ele>576.79998779297</ele>
        <time>2019-10-12T07:24:29Z</time>
      </trkpt>
      <trkpt lat="43.91013" lon="6.13761">
        <ele>578</ele>
        <time>2019-10-12T07:24:38Z</time>
      </trkpt>
      <trkpt lat="43.91003" lon="6.13727">
        <ele>579.59997558594</ele>
        <time>2019-10-12T07:24:50Z</time>
      </trkpt>
      <trkpt lat="43.9099" lon="6.13706">
        <ele>580.59997558594</ele>
        <time>2019-10-12T07:24:58Z</time>
      </trkpt>
      <trkpt lat="43.90965" lon="6.13696">
        <ele>582.20001220703</ele>
        <time>2019-10-12T07:25:09Z</time>
      </trkpt>
      <trkpt lat="43.90955" lon="6.13704">
        <ele>583.20001220703</ele>
        <time>2019-10-12T07:25:16Z</time>
      </trkpt>
      <trkpt lat="43.90942" lon="6.13719">
        <ele>584.20001220703</ele>
        <time>2019-10-12T07:25:25Z</time>
      </trkpt>
      <trkpt lat="43.90922" lon="6.13761">
        <ele>587.20001220703</ele>
        <time>2019-10-12T07:25:41Z</time>
      </trkpt>
      <trkpt lat="43.90912" lon="6.13783">
        <ele>588.20001220703</ele>
        <time>2019-10-12T07:25:49Z</time>
      </trkpt>
      <trkpt lat="43.90904" lon="6.13798">
        <ele>589.40002441406</ele>
        <time>2019-10-12T07:25:57Z</time>
      </trkpt>
      <trkpt lat="43.90887" lon="6.13829">
        <ele>591.40002441406</ele>
        <time>2019-10-12T07:26:11Z</time>
      </trkpt>
      <trkpt lat="43.90878" lon="6.13844">
        <ele>592.20001220703</ele>
        <time>2019-10-12T07:26:18Z</time>
      </trkpt>
      <trkpt lat="43.90857" lon="6.13875">
        <ele>594</ele>
        <time>2019-10-12T07:26:30Z</time>
      </trkpt>
      <trkpt lat="43.90842" lon="6.13889">
        <ele>595</ele>
        <time>2019-10-12T07:26:37Z</time>
      </trkpt>
      <trkpt lat="43.90827" lon="6.13901">
        <ele>596.20001220703</ele>
        <time>2019-10-12T07:26:44Z</time>
      </trkpt>
      <trkpt lat="43.90806" lon="6.1392">
        <ele>598</ele>
        <time>2019-10-12T07:26:56Z</time>
      </trkpt>
      <trkpt lat="43.90789" lon="6.1394">
        <ele>599.20001220703</ele>
        <time>2019-10-12T07:27:06Z</time>
      </trkpt>
      <trkpt lat="43.90772" lon="6.1396">
        <ele>600.40002441406</ele>
        <time>2019-10-12T07:27:16Z</time>
      </trkpt>
      <trkpt lat="43.9076" lon="6.13974">
        <ele>601.59997558594</ele>
        <time>2019-10-12T07:27:23Z</time>
      </trkpt>
      <trkpt lat="43.9073" lon="6.13992">
        <ele>604</ele>
        <time>2019-10-12T07:27:38Z</time>
      </trkpt>
      <trkpt lat="43.90711" lon="6.13997">
        <ele>605.59997558594</ele>
        <time>2019-10-12T07:27:47Z</time>
      </trkpt>
      <trkpt lat="43.90688" lon="6.14004">
        <ele>607.40002441406</ele>
        <time>2019-10-12T07:27:58Z</time>
      </trkpt>
      <trkpt lat="43.90674" lon="6.1401">
        <ele>608.40002441406</ele>
        <time>2019-10-12T07:28:05Z</time>
      </trkpt>
      <trkpt lat="43.90651" lon="6.14028">
        <ele>610.40002441406</ele>
        <time>2019-10-12T07:28:18Z</time>
      </trkpt>
      <trkpt lat="43.90639" lon="6.1404">
        <ele>611.40002441406</ele>
        <time>2019-10-12T07:28:26Z</time>
      </trkpt>
      <trkpt lat="43.90617" lon="6.14073">
        <ele>614.40002441406</ele>
        <time>2019-10-12T07:28:41Z</time>
      </trkpt>
      <trkpt lat="43.90607" lon="6.14092">
        <ele>615.40002441406</ele>
        <time>2019-10-12T07:28:49Z</time>
      </trkpt>
      <trkpt lat="43.90598" lon="6.14109">
        <ele>616.40002441406</ele>
        <time>2019-10-12T07:28:56Z</time>
      </trkpt>
      <trkpt lat="43.90587" lon="6.1413">
        <ele>618.20001220703</ele>
        <time>2019-10-12T07:29:07Z</time>
      </trkpt>
      <trkpt lat="43.90578" lon="6.14144">
        <ele>619.40002441406</ele>
        <time>2019-10-12T07:29:14Z</time>
      </trkpt>
      <trkpt lat="43.90559" lon="6.14171">
        <ele>621</ele>
        <time>2019-10-12T07:29:25Z</time>
      </trkpt>
      <trkpt lat="43.90544" lon="6.14184">
        <ele>622</ele>
        <time>2019-10-12T07:29:32Z</time>
      </trkpt>
      <trkpt lat="43.90533" lon="6.14186">
        <ele>622.79998779297</ele>
        <time>2019-10-12T07:29:37Z</time>
      </trkpt>
      <trkpt lat="43.90513" lon="6.14162">
        <ele>624.59997558594</ele>
        <time>2019-10-12T07:29:49Z</time>
      </trkpt>
      <trkpt lat="43.90516" lon="6.14139">
        <ele>625.79998779297</ele>
        <time>2019-10-12T07:29:57Z</time>
      </trkpt>
      <trkpt lat="43.90526" lon="6.14105">
        <ele>627.79998779297</ele>
        <time>2019-10-12T07:30:09Z</time>
      </trkpt>
      <trkpt lat="43.90529" lon="6.1407">
        <ele>628.79998779297</ele>
        <time>2019-10-12T07:30:19Z</time>
      </trkpt>
      <trkpt lat="43.90527" lon="6.14046">
        <ele>629.59997558594</ele>
        <time>2019-10-12T07:30:26Z</time>
      </trkpt>
      <trkpt lat="43.90507" lon="6.14006">
        <ele>631.40002441406</ele>
        <time>2019-10-12T07:30:39Z</time>
      </trkpt>
      <trkpt lat="43.90489" lon="6.13993">
        <ele>633</ele>
        <time>2019-10-12T07:30:48Z</time>
      </trkpt>
      <trkpt lat="43.90475" lon="6.1399">
        <ele>634</ele>
        <time>2019-10-12T07:30:55Z</time>
      </trkpt>
      <trkpt lat="43.9044" lon="6.14002">
        <ele>636.40002441406</ele>
        <time>2019-10-12T07:31:13Z</time>
      </trkpt>
      <trkpt lat="43.90421" lon="6.14013">
        <ele>637.59997558594</ele>
        <time>2019-10-12T07:31:23Z</time>
      </trkpt>
      <trkpt lat="43.90403" lon="6.13993">
        <ele>639</ele>
        <time>2019-10-12T07:31:35Z</time>
      </trkpt>
      <trkpt lat="43.90405" lon="6.1397">
        <ele>640.40002441406</ele>
        <time>2019-10-12T07:31:42Z</time>
      </trkpt>
      <trkpt lat="43.90418" lon="6.13937">
        <ele>642</ele>
        <time>2019-10-12T07:31:53Z</time>
      </trkpt>
      <trkpt lat="43.90435" lon="6.13895">
        <ele>643.79998779297</ele>
        <time>2019-10-12T07:32:08Z</time>
      </trkpt>
      <trkpt lat="43.90414" lon="6.13872">
        <ele>645.59997558594</ele>
        <time>2019-10-12T07:32:20Z</time>
      </trkpt>
      <trkpt lat="43.90396" lon="6.13875">
        <ele>647</ele>
        <time>2019-10-12T07:32:29Z</time>
      </trkpt>
      <trkpt lat="43.90381" lon="6.13881">
        <ele>648.20001220703</ele>
        <time>2019-10-12T07:32:37Z</time>
      </trkpt>
      <trkpt lat="43.90362" lon="6.13895">
        <ele>649.79998779297</ele>
        <time>2019-10-12T07:32:47Z</time>
      </trkpt>
      <trkpt lat="43.90339" lon="6.13913">
        <ele>651.79998779297</ele>
        <time>2019-10-12T07:33:00Z</time>
      </trkpt>
      <trkpt lat="43.90319" lon="6.13926">
        <ele>653.20001220703</ele>
        <time>2019-10-12T07:33:10Z</time>
      </trkpt>
      <trkpt lat="43.90295" lon="6.13935">
        <ele>654.59997558594</ele>
        <time>2019-10-12T07:33:21Z</time>
      </trkpt>
      <trkpt lat="43.90277" lon="6.13948">
        <ele>656.20001220703</ele>
        <time>2019-10-12T07:33:31Z</time>
      </trkpt>
      <trkpt lat="43.90261" lon="6.13964">
        <ele>657.40002441406</ele>
        <time>2019-10-12T07:33:40Z</time>
      </trkpt>
      <trkpt lat="43.90247" lon="6.13977">
        <ele>658.79998779297</ele>
        <time>2019-10-12T07:33:48Z</time>
      </trkpt>
      <trkpt lat="43.90234" lon="6.13987">
        <ele>659.79998779297</ele>
        <time>2019-10-12T07:33:55Z</time>
      </trkpt>
      <trkpt lat="43.90212" lon="6.13997">
        <ele>661.79998779297</ele>
        <time>2019-10-12T07:34:05Z</time>
      </trkpt>
      <trkpt lat="43.90186" lon="6.14005">
        <ele>664</ele>
        <time>2019-10-12T07:34:18Z</time>
      </trkpt>
      <trkpt lat="43.9017" lon="6.13995">
        <ele>665.40002441406</ele>
        <time>2019-10-12T07:34:27Z</time>
      </trkpt>
      <trkpt lat="43.90161" lon="6.13971">
        <ele>667.79998779297</ele>
        <time>2019-10-12T07:34:35Z</time>
      </trkpt>
      <trkpt lat="43.90151" lon="6.13928">
        <ele>668.79998779297</ele>
        <time>2019-10-12T07:34:49Z</time>
      </trkpt>
      <trkpt lat="43.90146" lon="6.13898">
        <ele>669.20001220703</ele>
        <time>2019-10-12T07:34:56Z</time>
      </trkpt>
      <trkpt lat="43.90125" lon="6.13876">
        <ele>670.20001220703</ele>
        <time>2019-10-12T07:35:07Z</time>
      </trkpt>
      <trkpt lat="43.90107" lon="6.13881">
        <ele>670.79998779297</ele>
        <time>2019-10-12T07:35:13Z</time>
      </trkpt>
      <trkpt lat="43.9008" lon="6.13899">
        <ele>672.40002441406</ele>
        <time>2019-10-12T07:35:25Z</time>
      </trkpt>
      <trkpt lat="43.90066" lon="6.13904">
        <ele>673</ele>
        <time>2019-10-12T07:35:30Z</time>
      </trkpt>
      <trkpt lat="43.90049" lon="6.13897">
        <ele>674.20001220703</ele>
        <time>2019-10-12T07:35:37Z</time>
      </trkpt>
      <trkpt lat="43.90029" lon="6.13873">
        <ele>676.79998779297</ele>
        <time>2019-10-12T07:35:48Z</time>
      </trkpt>
      <trkpt lat="43.90012" lon="6.13848">
        <ele>677.79998779297</ele>
        <time>2019-10-12T07:35:57Z</time>
      </trkpt>
      <trkpt lat="43.89992" lon="6.13826">
        <ele>679.20001220703</ele>
        <time>2019-10-12T07:36:08Z</time>
      </trkpt>
      <trkpt lat="43.89974" lon="6.13818">
        <ele>680.59997558594</ele>
        <time>2019-10-12T07:36:17Z</time>
      </trkpt>
      <trkpt lat="43.89948" lon="6.13811">
        <ele>682.20001220703</ele>
        <time>2019-10-12T07:36:31Z</time>
      </trkpt>
      <trkpt lat="43.89942" lon="6.13805">
        <ele>682.59997558594</ele>
        <time>2019-10-12T07:36:35Z</time>
      </trkpt>
      <trkpt lat="43.89928" lon="6.13777">
        <ele>685.20001220703</ele>
        <time>2019-10-12T07:36:47Z</time>
      </trkpt>
      <trkpt lat="43.89918" lon="6.13755">
        <ele>685.79998779297</ele>
        <time>2019-10-12T07:36:55Z</time>
      </trkpt>
      <trkpt lat="43.89894" lon="6.1372">
        <ele>687.79998779297</ele>
        <time>2019-10-12T07:37:11Z</time>
      </trkpt>
      <trkpt lat="43.89881" lon="6.13703">
        <ele>688.59997558594</ele>
        <time>2019-10-12T07:37:19Z</time>
      </trkpt>
      <trkpt lat="43.8987" lon="6.13668">
        <ele>690.40002441406</ele>
        <time>2019-10-12T07:37:30Z</time>
      </trkpt>
      <trkpt lat="43.89862" lon="6.13631">
        <ele>691.79998779297</ele>
        <time>2019-10-12T07:37:42Z</time>
      </trkpt>
      <trkpt lat="43.89845" lon="6.13607">
        <ele>693</ele>
        <time>2019-10-12T07:37:50Z</time>
      </trkpt>
      <trkpt lat="43.89816" lon="6.1359">
        <ele>695.40002441406</ele>
        <time>2019-10-12T07:38:05Z</time>
      </trkpt>
      <trkpt lat="43.89804" lon="6.13578">
        <ele>696</ele>
        <time>2019-10-12T07:38:12Z</time>
      </trkpt>
      <trkpt lat="43.89782" lon="6.13541">
        <ele>698.79998779297</ele>
        <time>2019-10-12T07:38:29Z</time>
      </trkpt>
      <trkpt lat="43.89771" lon="6.1352">
        <ele>699.40002441406</ele>
        <time>2019-10-12T07:38:38Z</time>
      </trkpt>
      <trkpt lat="43.89753" lon="6.13494">
        <ele>700.59997558594</ele>
        <time>2019-10-12T07:38:47Z</time>
      </trkpt>
      <trkpt lat="43.89739" lon="6.13479">
        <ele>701.79998779297</ele>
        <time>2019-10-12T07:38:55Z</time>
      </trkpt>
      <trkpt lat="43.89723" lon="6.13459">
        <ele>703</ele>
        <time>2019-10-12T07:39:05Z</time>
      </trkpt>
      <trkpt lat="43.89711" lon="6.1344">
        <ele>704.40002441406</ele>
        <time>2019-10-12T07:39:14Z</time>
      </trkpt>
      <trkpt lat="43.89695" lon="6.13394">
        <ele>706</ele>
        <time>2019-10-12T07:39:27Z</time>
      </trkpt>
      <trkpt lat="43.89689" lon="6.13373">
        <ele>706.79998779297</ele>
        <time>2019-10-12T07:39:34Z</time>
      </trkpt>
      <trkpt lat="43.89662" lon="6.13344">
        <ele>708.20001220703</ele>
        <time>2019-10-12T07:39:47Z</time>
      </trkpt>
      <trkpt lat="43.89632" lon="6.13332">
        <ele>709.79998779297</ele>
        <time>2019-10-12T07:39:58Z</time>
      </trkpt>
      <trkpt lat="43.89605" lon="6.13321">
        <ele>711.59997558594</ele>
        <time>2019-10-12T07:40:10Z</time>
      </trkpt>
      <trkpt lat="43.89585" lon="6.13307">
        <ele>713.59997558594</ele>
        <time>2019-10-12T07:40:21Z</time>
      </trkpt>
      <trkpt lat="43.89579" lon="6.13297">
        <ele>714.40002441406</ele>
        <time>2019-10-12T07:40:25Z</time>
      </trkpt>
      <trkpt lat="43.89586" lon="6.13272">
        <ele>715.59997558594</ele>
        <time>2019-10-12T07:40:34Z</time>
      </trkpt>
      <trkpt lat="43.89597" lon="6.13253">
        <ele>716.79998779297</ele>
        <time>2019-10-12T07:40:41Z</time>
      </trkpt>
      <trkpt lat="43.89599" lon="6.1321">
        <ele>718.40002441406</ele>
        <time>2019-10-12T07:40:55Z</time>
      </trkpt>
      <trkpt lat="43.89593" lon="6.13187">
        <ele>719</ele>
        <time>2019-10-12T07:41:01Z</time>
      </trkpt>
      <trkpt lat="43.89583" lon="6.13143">
        <ele>720.59997558594</ele>
        <time>2019-10-12T07:41:14Z</time>
      </trkpt>
      <trkpt lat="43.89582" lon="6.13121">
        <ele>721.59997558594</ele>
        <time>2019-10-12T07:41:21Z</time>
      </trkpt>
      <trkpt lat="43.89584" lon="6.13086">
        <ele>722.79998779297</ele>
        <time>2019-10-12T07:41:31Z</time>
      </trkpt>
      <trkpt lat="43.8959" lon="6.13066">
        <ele>723.79998779297</ele>
        <time>2019-10-12T07:41:38Z</time>
      </trkpt>
      <trkpt lat="43.89608" lon="6.13032">
        <ele>725.79998779297</ele>
        <time>2019-10-12T07:41:50Z</time>
      </trkpt>
      <trkpt lat="43.8963" lon="6.12997">
        <ele>726.79998779297</ele>
        <time>2019-10-12T07:42:02Z</time>
      </trkpt>
      <trkpt lat="43.89639" lon="6.12962">
        <ele>727.59997558594</ele>
        <time>2019-10-12T07:42:11Z</time>
      </trkpt>
      <trkpt lat="43.89638" lon="6.12929">
        <ele>728.79998779297</ele>
        <time>2019-10-12T07:42:19Z</time>
      </trkpt>
      <trkpt lat="43.89637" lon="6.12898">
        <ele>729.59997558594</ele>
        <time>2019-10-12T07:42:27Z</time>
      </trkpt>
      <trkpt lat="43.89626" lon="6.12874">
        <ele>731</ele>
        <time>2019-10-12T07:42:35Z</time>
      </trkpt>
      <trkpt lat="43.89626" lon="6.12861">
        <ele>732.40002441406</ele>
        <time>2019-10-12T07:42:42Z</time>
      </trkpt>
      <trkpt lat="43.89626" lon="6.1286">
        <ele>733.40002441406</ele>
        <time>2019-10-12T07:44:08Z</time>
      </trkpt>
      <trkpt lat="43.89626" lon="6.1286">
        <ele>733.20001220703</ele>
        <time>2019-10-12T07:44:10Z</time>
      </trkpt>
      <trkpt lat="43.89619" lon="6.12878">
        <ele>733.40002441406</ele>
        <time>2019-10-12T07:44:15Z</time>
      </trkpt>
      <trkpt lat="43.89602" lon="6.12887">
        <ele>733.40002441406</ele>
        <time>2019-10-12T07:44:21Z</time>
      </trkpt>
      <trkpt lat="43.89576" lon="6.12901">
        <ele>733.40002441406</ele>
        <time>2019-10-12T07:44:28Z</time>
      </trkpt>
      <trkpt lat="43.89528" lon="6.12926">
        <ele>734.40002441406</ele>
        <time>2019-10-12T07:44:44Z</time>
      </trkpt>
      <trkpt lat="43.89467" lon="6.12959">
        <ele>734.20001220703</ele>
        <time>2019-10-12T07:45:01Z</time>
      </trkpt>
      <trkpt lat="43.89452" lon="6.12967">
        <ele>734.20001220703</ele>
        <time>2019-10-12T07:45:06Z</time>
      </trkpt>
      <trkpt lat="43.89401" lon="6.12995">
        <ele>733.40002441406</ele>
        <time>2019-10-12T07:45:18Z</time>
      </trkpt>
      <trkpt lat="43.89382" lon="6.13004">
        <ele>733.40002441406</ele>
        <time>2019-10-12T07:45:23Z</time>
      </trkpt>
      <trkpt lat="43.89358" lon="6.13018">
        <ele>733.40002441406</ele>
        <time>2019-10-12T07:45:30Z</time>
      </trkpt>
      <trkpt lat="43.89292" lon="6.13053">
        <ele>733.40002441406</ele>
        <time>2019-10-12T07:45:43Z</time>
      </trkpt>
      <trkpt lat="43.89233" lon="6.13084">
        <ele>732.79998779297</ele>
        <time>2019-10-12T07:45:55Z</time>
      </trkpt>
      <trkpt lat="43.89188" lon="6.13108">
        <ele>731.79998779297</ele>
        <time>2019-10-12T07:46:04Z</time>
      </trkpt>
      <trkpt lat="43.89163" lon="6.13122">
        <ele>731</ele>
        <time>2019-10-12T07:46:08Z</time>
      </trkpt>
      <trkpt lat="43.891" lon="6.13147">
        <ele>729.20001220703</ele>
        <time>2019-10-12T07:46:18Z</time>
      </trkpt>
      <trkpt lat="43.89071" lon="6.13151">
        <ele>728.40002441406</ele>
        <time>2019-10-12T07:46:22Z</time>
      </trkpt>
      <trkpt lat="43.89023" lon="6.13171">
        <ele>727.20001220703</ele>
        <time>2019-10-12T07:46:28Z</time>
      </trkpt>
      <trkpt lat="43.89008" lon="6.13181">
        <ele>726.40002441406</ele>
        <time>2019-10-12T07:46:30Z</time>
      </trkpt>
      <trkpt lat="43.89003" lon="6.13224">
        <ele>724.59997558594</ele>
        <time>2019-10-12T07:46:35Z</time>
      </trkpt>
      <trkpt lat="43.89015" lon="6.13249">
        <ele>723</ele>
        <time>2019-10-12T07:46:38Z</time>
      </trkpt>
      <trkpt lat="43.89057" lon="6.13309">
        <ele>720.59997558594</ele>
        <time>2019-10-12T07:46:45Z</time>
      </trkpt>
      <trkpt lat="43.89081" lon="6.13338">
        <ele>719</ele>
        <time>2019-10-12T07:46:49Z</time>
      </trkpt>
      <trkpt lat="43.89085" lon="6.13352">
        <ele>718</ele>
        <time>2019-10-12T07:46:51Z</time>
      </trkpt>
      <trkpt lat="43.8907" lon="6.13363">
        <ele>716.79998779297</ele>
        <time>2019-10-12T07:46:54Z</time>
      </trkpt>
      <trkpt lat="43.89053" lon="6.13343">
        <ele>715.40002441406</ele>
        <time>2019-10-12T07:46:57Z</time>
      </trkpt>
      <trkpt lat="43.89018" lon="6.13302">
        <ele>712.40002441406</ele>
        <time>2019-10-12T07:47:03Z</time>
      </trkpt>
      <trkpt lat="43.8898" lon="6.13271">
        <ele>711.40002441406</ele>
        <time>2019-10-12T07:47:07Z</time>
      </trkpt>
      <trkpt lat="43.88932" lon="6.13233">
        <ele>708.59997558594</ele>
        <time>2019-10-12T07:47:14Z</time>
      </trkpt>
      <trkpt lat="43.88903" lon="6.13197">
        <ele>707</ele>
        <time>2019-10-12T07:47:18Z</time>
      </trkpt>
      <trkpt lat="43.88855" lon="6.13201">
        <ele>704.79998779297</ele>
        <time>2019-10-12T07:47:22Z</time>
      </trkpt>
      <trkpt lat="43.88826" lon="6.13213">
        <ele>702.59997558594</ele>
        <time>2019-10-12T07:47:26Z</time>
      </trkpt>
      <trkpt lat="43.88761" lon="6.13243">
        <ele>700.59997558594</ele>
        <time>2019-10-12T07:47:34Z</time>
      </trkpt>
      <trkpt lat="43.88733" lon="6.13252">
        <ele>700.79998779297</ele>
        <time>2019-10-12T07:47:38Z</time>
      </trkpt>
      <trkpt lat="43.88709" lon="6.13256">
        <ele>701.79998779297</ele>
        <time>2019-10-12T07:47:45Z</time>
      </trkpt>
      <trkpt lat="43.8869" lon="6.13259">
        <ele>703.79998779297</ele>
        <time>2019-10-12T07:47:51Z</time>
      </trkpt>
      <trkpt lat="43.88665" lon="6.13263">
        <ele>705.59997558594</ele>
        <time>2019-10-12T07:47:59Z</time>
      </trkpt>
      <trkpt lat="43.88646" lon="6.13266">
        <ele>707</ele>
        <time>2019-10-12T07:48:08Z</time>
      </trkpt>
      <trkpt lat="43.88626" lon="6.13271">
        <ele>708.20001220703</ele>
        <time>2019-10-12T07:48:16Z</time>
      </trkpt>
      <trkpt lat="43.88569" lon="6.13278">
        <ele>711.20001220703</ele>
        <time>2019-10-12T07:48:39Z</time>
      </trkpt>
      <trkpt lat="43.88547" lon="6.13279">
        <ele>712.20001220703</ele>
        <time>2019-10-12T07:48:47Z</time>
      </trkpt>
      <trkpt lat="43.88515" lon="6.13265">
        <ele>714.20001220703</ele>
        <time>2019-10-12T07:49:03Z</time>
      </trkpt>
      <trkpt lat="43.88498" lon="6.13252">
        <ele>715.20001220703</ele>
        <time>2019-10-12T07:49:12Z</time>
      </trkpt>
      <trkpt lat="43.88479" lon="6.13238">
        <ele>716.59997558594</ele>
        <time>2019-10-12T07:49:22Z</time>
      </trkpt>
      <trkpt lat="43.88463" lon="6.13226">
        <ele>717.59997558594</ele>
        <time>2019-10-12T07:49:28Z</time>
      </trkpt>
      <trkpt lat="43.88426" lon="6.13212">
        <ele>719.40002441406</ele>
        <time>2019-10-12T07:49:42Z</time>
      </trkpt>
      <trkpt lat="43.88393" lon="6.13203">
        <ele>720</ele>
        <time>2019-10-12T07:49:53Z</time>
      </trkpt>
      <trkpt lat="43.88351" lon="6.13197">
        <ele>720.59997558594</ele>
        <time>2019-10-12T07:50:04Z</time>
      </trkpt>
      <trkpt lat="43.88315" lon="6.13193">
        <ele>720.59997558594</ele>
        <time>2019-10-12T07:50:12Z</time>
      </trkpt>
      <trkpt lat="43.88253" lon="6.13185">
        <ele>720</ele>
        <time>2019-10-12T07:50:24Z</time>
      </trkpt>
      <trkpt lat="43.88217" lon="6.13181">
        <ele>719.59997558594</ele>
        <time>2019-10-12T07:50:30Z</time>
      </trkpt>
      <trkpt lat="43.8817" lon="6.13177">
        <ele>718.59997558594</ele>
        <time>2019-10-12T07:50:37Z</time>
      </trkpt>
      <trkpt lat="43.88099" lon="6.13173">
        <ele>716.40002441406</ele>
        <time>2019-10-12T07:50:46Z</time>
      </trkpt>
      <trkpt lat="43.88041" lon="6.13159">
        <ele>715</ele>
        <time>2019-10-12T07:50:55Z</time>
      </trkpt>
      <trkpt lat="43.8798" lon="6.13143">
        <ele>715</ele>
        <time>2019-10-12T07:51:06Z</time>
      </trkpt>
      <trkpt lat="43.87925" lon="6.13128">
        <ele>715</ele>
        <time>2019-10-12T07:51:16Z</time>
      </trkpt>
      <trkpt lat="43.87845" lon="6.131">
        <ele>714.59997558594</ele>
        <time>2019-10-12T07:51:30Z</time>
      </trkpt>
      <trkpt lat="43.87785" lon="6.13077">
        <ele>713.40002441406</ele>
        <time>2019-10-12T07:51:41Z</time>
      </trkpt>
      <trkpt lat="43.87698" lon="6.13051">
        <ele>712.40002441406</ele>
        <time>2019-10-12T07:51:56Z</time>
      </trkpt>
      <trkpt lat="43.87674" lon="6.13044">
        <ele>712.59997558594</ele>
        <time>2019-10-12T07:51:59Z</time>
      </trkpt>
      <trkpt lat="43.87603" lon="6.13027">
        <ele>711.20001220703</ele>
        <time>2019-10-12T07:52:12Z</time>
      </trkpt>
      <trkpt lat="43.87529" lon="6.13008">
        <ele>710.40002441406</ele>
        <time>2019-10-12T07:52:24Z</time>
      </trkpt>
      <trkpt lat="43.87466" lon="6.12993">
        <ele>709.59997558594</ele>
        <time>2019-10-12T07:52:34Z</time>
      </trkpt>
      <trkpt lat="43.87416" lon="6.12981">
        <ele>708.79998779297</ele>
        <time>2019-10-12T07:52:42Z</time>
      </trkpt>
      <trkpt lat="43.87364" lon="6.12972">
        <ele>708.40002441406</ele>
        <time>2019-10-12T07:52:50Z</time>
      </trkpt>
      <trkpt lat="43.87328" lon="6.12966">
        <ele>707.79998779297</ele>
        <time>2019-10-12T07:52:55Z</time>
      </trkpt>
      <trkpt lat="43.87247" lon="6.12955">
        <ele>705.59997558594</ele>
        <time>2019-10-12T07:53:06Z</time>
      </trkpt>
      <trkpt lat="43.87191" lon="6.12943">
        <ele>704.79998779297</ele>
        <time>2019-10-12T07:53:14Z</time>
      </trkpt>
      <trkpt lat="43.87128" lon="6.12923">
        <ele>704.40002441406</ele>
        <time>2019-10-12T07:53:24Z</time>
      </trkpt>
      <trkpt lat="43.87053" lon="6.12901">
        <ele>704</ele>
        <time>2019-10-12T07:53:36Z</time>
      </trkpt>
      <trkpt lat="43.87004" lon="6.12897">
        <ele>703.40002441406</ele>
        <time>2019-10-12T07:53:44Z</time>
      </trkpt>
      <trkpt lat="43.86947" lon="6.12906">
        <ele>702.40002441406</ele>
        <time>2019-10-12T07:53:54Z</time>
      </trkpt>
      <trkpt lat="43.86899" lon="6.12904">
        <ele>701.79998779297</ele>
        <time>2019-10-12T07:54:02Z</time>
      </trkpt>
      <trkpt lat="43.8685" lon="6.12889">
        <ele>701.20001220703</ele>
        <time>2019-10-12T07:54:10Z</time>
      </trkpt>
      <trkpt lat="43.86787" lon="6.12863">
        <ele>700.59997558594</ele>
        <time>2019-10-12T07:54:20Z</time>
      </trkpt>
      <trkpt lat="43.86665" lon="6.12819">
        <ele>699.40002441406</ele>
        <time>2019-10-12T07:54:40Z</time>
      </trkpt>
      <trkpt lat="43.86608" lon="6.128">
        <ele>699</ele>
        <time>2019-10-12T07:54:50Z</time>
      </trkpt>
      <trkpt lat="43.86566" lon="6.12792">
        <ele>698.59997558594</ele>
        <time>2019-10-12T07:54:57Z</time>
      </trkpt>
      <trkpt lat="43.86522" lon="6.12789">
        <ele>698</ele>
        <time>2019-10-12T07:55:04Z</time>
      </trkpt>
      <trkpt lat="43.86468" lon="6.12788">
        <ele>697.40002441406</ele>
        <time>2019-10-12T07:55:13Z</time>
      </trkpt>
      <trkpt lat="43.86446" lon="6.12786">
        <ele>697.20001220703</ele>
        <time>2019-10-12T07:55:17Z</time>
      </trkpt>
      <trkpt lat="43.86405" lon="6.12758">
        <ele>696.79998779297</ele>
        <time>2019-10-12T07:55:24Z</time>
      </trkpt>
      <trkpt lat="43.86345" lon="6.12715">
        <ele>695.79998779297</ele>
        <time>2019-10-12T07:55:35Z</time>
      </trkpt>
      <trkpt lat="43.86319" lon="6.12696">
        <ele>695.20001220703</ele>
        <time>2019-10-12T07:55:41Z</time>
      </trkpt>
      <trkpt lat="43.86257" lon="6.12651">
        <ele>694.40002441406</ele>
        <time>2019-10-12T07:55:54Z</time>
      </trkpt>
      <trkpt lat="43.86226" lon="6.12628">
        <ele>694</ele>
        <time>2019-10-12T07:56:00Z</time>
      </trkpt>
      <trkpt lat="43.8617" lon="6.12586">
        <ele>693</ele>
        <time>2019-10-12T07:56:12Z</time>
      </trkpt>
      <trkpt lat="43.8615" lon="6.12571">
        <ele>692.59997558594</ele>
        <time>2019-10-12T07:56:16Z</time>
      </trkpt>
      <trkpt lat="43.86054" lon="6.12504">
        <ele>691</ele>
        <time>2019-10-12T07:56:31Z</time>
      </trkpt>
      <trkpt lat="43.86025" lon="6.12479">
        <ele>690.59997558594</ele>
        <time>2019-10-12T07:56:37Z</time>
      </trkpt>
      <trkpt lat="43.85948" lon="6.12389">
        <ele>689</ele>
        <time>2019-10-12T07:56:51Z</time>
      </trkpt>
      <trkpt lat="43.85892" lon="6.12318">
        <ele>687.40002441406</ele>
        <time>2019-10-12T07:57:03Z</time>
      </trkpt>
      <trkpt lat="43.85872" lon="6.12293">
        <ele>687.20001220703</ele>
        <time>2019-10-12T07:57:07Z</time>
      </trkpt>
      <trkpt lat="43.85834" lon="6.12224">
        <ele>686.40002441406</ele>
        <time>2019-10-12T07:57:17Z</time>
      </trkpt>
      <trkpt lat="43.8581" lon="6.12153">
        <ele>685.79998779297</ele>
        <time>2019-10-12T07:57:27Z</time>
      </trkpt>
      <trkpt lat="43.85774" lon="6.12071">
        <ele>684.40002441406</ele>
        <time>2019-10-12T07:57:40Z</time>
      </trkpt>
      <trkpt lat="43.85755" lon="6.12053">
        <ele>684</ele>
        <time>2019-10-12T07:57:44Z</time>
      </trkpt>
      <trkpt lat="43.85715" lon="6.12015">
        <ele>683.59997558594</ele>
        <time>2019-10-12T07:57:52Z</time>
      </trkpt>
      <trkpt lat="43.8566" lon="6.11961">
        <ele>682.20001220703</ele>
        <time>2019-10-12T07:58:03Z</time>
      </trkpt>
      <trkpt lat="43.85605" lon="6.11908">
        <ele>681.79998779297</ele>
        <time>2019-10-12T07:58:14Z</time>
      </trkpt>
      <trkpt lat="43.85561" lon="6.11864">
        <ele>681.20001220703</ele>
        <time>2019-10-12T07:58:23Z</time>
      </trkpt>
      <trkpt lat="43.85493" lon="6.11798">
        <ele>680.20001220703</ele>
        <time>2019-10-12T07:58:37Z</time>
      </trkpt>
      <trkpt lat="43.85472" lon="6.11778">
        <ele>679.59997558594</ele>
        <time>2019-10-12T07:58:41Z</time>
      </trkpt>
      <trkpt lat="43.85437" lon="6.11744">
        <ele>678.59997558594</ele>
        <time>2019-10-12T07:58:47Z</time>
      </trkpt>
      <trkpt lat="43.85406" lon="6.11713">
        <ele>677.20001220703</ele>
        <time>2019-10-12T07:58:53Z</time>
      </trkpt>
      <trkpt lat="43.85357" lon="6.11662">
        <ele>675.20001220703</ele>
        <time>2019-10-12T07:59:00Z</time>
      </trkpt>
      <trkpt lat="43.85315" lon="6.11606">
        <ele>673.40002441406</ele>
        <time>2019-10-12T07:59:09Z</time>
      </trkpt>
      <trkpt lat="43.85287" lon="6.11564">
        <ele>672.79998779297</ele>
        <time>2019-10-12T07:59:15Z</time>
      </trkpt>
      <trkpt lat="43.8526" lon="6.1151">
        <ele>672.59997558594</ele>
        <time>2019-10-12T07:59:21Z</time>
      </trkpt>
      <trkpt lat="43.85239" lon="6.11468">
        <ele>672.59997558594</ele>
        <time>2019-10-12T07:59:27Z</time>
      </trkpt>
      <trkpt lat="43.85209" lon="6.11406">
        <ele>672.40002441406</ele>
        <time>2019-10-12T07:59:36Z</time>
      </trkpt>
      <trkpt lat="43.85176" lon="6.11344">
        <ele>672.20001220703</ele>
        <time>2019-10-12T07:59:45Z</time>
      </trkpt>
      <trkpt lat="43.85132" lon="6.11273">
        <ele>671.40002441406</ele>
        <time>2019-10-12T07:59:54Z</time>
      </trkpt>
      <trkpt lat="43.85107" lon="6.11242">
        <ele>670.20001220703</ele>
        <time>2019-10-12T07:59:58Z</time>
      </trkpt>
      <trkpt lat="43.85056" lon="6.11196">
        <ele>667.59997558594</ele>
        <time>2019-10-12T08:00:05Z</time>
      </trkpt>
      <trkpt lat="43.85009" lon="6.11186">
        <ele>665.79998779297</ele>
        <time>2019-10-12T08:00:10Z</time>
      </trkpt>
      <trkpt lat="43.8492" lon="6.11175">
        <ele>662.20001220703</ele>
        <time>2019-10-12T08:00:19Z</time>
      </trkpt>
      <trkpt lat="43.84899" lon="6.11171">
        <ele>661.40002441406</ele>
        <time>2019-10-12T08:00:21Z</time>
      </trkpt>
      <trkpt lat="43.84869" lon="6.11156">
        <ele>659.59997558594</ele>
        <time>2019-10-12T08:00:25Z</time>
      </trkpt>
      <trkpt lat="43.84807" lon="6.11094">
        <ele>655</ele>
        <time>2019-10-12T08:00:33Z</time>
      </trkpt>
      <trkpt lat="43.84783" lon="6.11047">
        <ele>653.59997558594</ele>
        <time>2019-10-12T08:00:38Z</time>
      </trkpt>
      <trkpt lat="43.84737" lon="6.10983">
        <ele>653</ele>
        <time>2019-10-12T08:00:45Z</time>
      </trkpt>
      <trkpt lat="43.84719" lon="6.10969">
        <ele>652.20001220703</ele>
        <time>2019-10-12T08:00:47Z</time>
      </trkpt>
      <trkpt lat="43.84676" lon="6.10932">
        <ele>649.40002441406</ele>
        <time>2019-10-12T08:00:52Z</time>
      </trkpt>
      <trkpt lat="43.84638" lon="6.10904">
        <ele>646.79998779297</ele>
        <time>2019-10-12T08:00:56Z</time>
      </trkpt>
      <trkpt lat="43.84572" lon="6.10855">
        <ele>642.40002441406</ele>
        <time>2019-10-12T08:01:03Z</time>
      </trkpt>
      <trkpt lat="43.84539" lon="6.10832">
        <ele>639.79998779297</ele>
        <time>2019-10-12T08:01:07Z</time>
      </trkpt>
      <trkpt lat="43.84475" lon="6.10788">
        <ele>637</ele>
        <time>2019-10-12T08:01:15Z</time>
      </trkpt>
      <trkpt lat="43.8444" lon="6.10778">
        <ele>635.79998779297</ele>
        <time>2019-10-12T08:01:19Z</time>
      </trkpt>
      <trkpt lat="43.84383" lon="6.10794">
        <ele>633</ele>
        <time>2019-10-12T08:01:25Z</time>
      </trkpt>
      <trkpt lat="43.84331" lon="6.10828">
        <ele>629</ele>
        <time>2019-10-12T08:01:31Z</time>
      </trkpt>
      <trkpt lat="43.84301" lon="6.1083">
        <ele>627.20001220703</ele>
        <time>2019-10-12T08:01:35Z</time>
      </trkpt>
      <trkpt lat="43.84255" lon="6.10807">
        <ele>626.20001220703</ele>
        <time>2019-10-12T08:01:41Z</time>
      </trkpt>
      <trkpt lat="43.84238" lon="6.10783">
        <ele>626.20001220703</ele>
        <time>2019-10-12T08:01:44Z</time>
      </trkpt>
      <trkpt lat="43.84218" lon="6.10738">
        <ele>625</ele>
        <time>2019-10-12T08:01:48Z</time>
      </trkpt>
      <trkpt lat="43.84196" lon="6.1069">
        <ele>623</ele>
        <time>2019-10-12T08:01:52Z</time>
      </trkpt>
      <trkpt lat="43.84158" lon="6.10651">
        <ele>620.20001220703</ele>
        <time>2019-10-12T08:01:57Z</time>
      </trkpt>
      <trkpt lat="43.84116" lon="6.1062">
        <ele>618.20001220703</ele>
        <time>2019-10-12T08:02:02Z</time>
      </trkpt>
      <trkpt lat="43.84071" lon="6.10601">
        <ele>615.40002441406</ele>
        <time>2019-10-12T08:02:07Z</time>
      </trkpt>
      <trkpt lat="43.84029" lon="6.10605">
        <ele>613.20001220703</ele>
        <time>2019-10-12T08:02:11Z</time>
      </trkpt>
      <trkpt lat="43.83992" lon="6.10615">
        <ele>611.59997558594</ele>
        <time>2019-10-12T08:02:15Z</time>
      </trkpt>
      <trkpt lat="43.83965" lon="6.10625">
        <ele>610</ele>
        <time>2019-10-12T08:02:18Z</time>
      </trkpt>
      <trkpt lat="43.83946" lon="6.10617">
        <ele>608.59997558594</ele>
        <time>2019-10-12T08:02:21Z</time>
      </trkpt>
      <trkpt lat="43.83943" lon="6.10598">
        <ele>607.59997558594</ele>
        <time>2019-10-12T08:02:23Z</time>
      </trkpt>
      <trkpt lat="43.83956" lon="6.10577">
        <ele>606.40002441406</ele>
        <time>2019-10-12T08:02:27Z</time>
      </trkpt>
      <trkpt lat="43.83996" lon="6.10553">
        <ele>604.59997558594</ele>
        <time>2019-10-12T08:02:31Z</time>
      </trkpt>
      <trkpt lat="43.84024" lon="6.10552">
        <ele>603.40002441406</ele>
        <time>2019-10-12T08:02:34Z</time>
      </trkpt>
      <trkpt lat="43.84051" lon="6.10557">
        <ele>602.20001220703</ele>
        <time>2019-10-12T08:02:38Z</time>
      </trkpt>
      <trkpt lat="43.84082" lon="6.10562">
        <ele>601</ele>
        <time>2019-10-12T08:02:41Z</time>
      </trkpt>
      <trkpt lat="43.84094" lon="6.1055">
        <ele>599.79998779297</ele>
        <time>2019-10-12T08:02:44Z</time>
      </trkpt>
      <trkpt lat="43.84076" lon="6.10531">
        <ele>598</ele>
        <time>2019-10-12T08:02:48Z</time>
      </trkpt>
      <trkpt lat="43.84027" lon="6.10511">
        <ele>596</ele>
        <time>2019-10-12T08:02:54Z</time>
      </trkpt>
      <trkpt lat="43.83998" lon="6.10507">
        <ele>595.20001220703</ele>
        <time>2019-10-12T08:02:57Z</time>
      </trkpt>
      <trkpt lat="43.83928" lon="6.10515">
        <ele>591.79998779297</ele>
        <time>2019-10-12T08:03:04Z</time>
      </trkpt>
      <trkpt lat="43.83897" lon="6.10528">
        <ele>589.79998779297</ele>
        <time>2019-10-12T08:03:08Z</time>
      </trkpt>
      <trkpt lat="43.8384" lon="6.10574">
        <ele>586.40002441406</ele>
        <time>2019-10-12T08:03:13Z</time>
      </trkpt>
      <trkpt lat="43.83802" lon="6.1061">
        <ele>584.59997558594</ele>
        <time>2019-10-12T08:03:17Z</time>
      </trkpt>
      <trkpt lat="43.83746" lon="6.10638">
        <ele>580.79998779297</ele>
        <time>2019-10-12T08:03:22Z</time>
      </trkpt>
      <trkpt lat="43.83698" lon="6.10636">
        <ele>577.20001220703</ele>
        <time>2019-10-12T08:03:26Z</time>
      </trkpt>
      <trkpt lat="43.83666" lon="6.1062">
        <ele>574.40002441406</ele>
        <time>2019-10-12T08:03:29Z</time>
      </trkpt>
      <trkpt lat="43.83626" lon="6.10589">
        <ele>571.79998779297</ele>
        <time>2019-10-12T08:03:33Z</time>
      </trkpt>
      <trkpt lat="43.83608" lon="6.1057">
        <ele>569.40002441406</ele>
        <time>2019-10-12T08:03:36Z</time>
      </trkpt>
      <trkpt lat="43.83533" lon="6.10484">
        <ele>564.79998779297</ele>
        <time>2019-10-12T08:03:44Z</time>
      </trkpt>
      <trkpt lat="43.83479" lon="6.10425">
        <ele>561</ele>
        <time>2019-10-12T08:03:51Z</time>
      </trkpt>
      <trkpt lat="43.83422" lon="6.10356">
        <ele>559</ele>
        <time>2019-10-12T08:03:59Z</time>
      </trkpt>
      <trkpt lat="43.83395" lon="6.10305">
        <ele>558.20001220703</ele>
        <time>2019-10-12T08:04:04Z</time>
      </trkpt>
      <trkpt lat="43.8338" lon="6.10259">
        <ele>557.79998779297</ele>
        <time>2019-10-12T08:04:09Z</time>
      </trkpt>
      <trkpt lat="43.83369" lon="6.1022">
        <ele>557.79998779297</ele>
        <time>2019-10-12T08:04:14Z</time>
      </trkpt>
      <trkpt lat="43.83356" lon="6.10174">
        <ele>558</ele>
        <time>2019-10-12T08:04:21Z</time>
      </trkpt>
      <trkpt lat="43.83335" lon="6.10118">
        <ele>559</ele>
        <time>2019-10-12T08:04:29Z</time>
      </trkpt>
      <trkpt lat="43.83275" lon="6.10034">
        <ele>558.79998779297</ele>
        <time>2019-10-12T08:04:43Z</time>
      </trkpt>
      <trkpt lat="43.83212" lon="6.09985">
        <ele>558</ele>
        <time>2019-10-12T08:04:54Z</time>
      </trkpt>
      <trkpt lat="43.83182" lon="6.0996">
        <ele>557.79998779297</ele>
        <time>2019-10-12T08:04:59Z</time>
      </trkpt>
      <trkpt lat="43.83145" lon="6.09927">
        <ele>557.40002441406</ele>
        <time>2019-10-12T08:05:05Z</time>
      </trkpt>
      <trkpt lat="43.83096" lon="6.09869">
        <ele>555.20001220703</ele>
        <time>2019-10-12T08:05:13Z</time>
      </trkpt>
      <trkpt lat="43.83046" lon="6.09811">
        <ele>554.79998779297</ele>
        <time>2019-10-12T08:05:23Z</time>
      </trkpt>
      <trkpt lat="43.83039" lon="6.09803">
        <ele>554.79998779297</ele>
        <time>2019-10-12T08:05:25Z</time>
      </trkpt>
      <trkpt lat="43.83031" lon="6.09794">
        <ele>554.20001220703</ele>
        <time>2019-10-12T08:06:37Z</time>
      </trkpt>
      <trkpt lat="43.83003" lon="6.09771">
        <ele>554</ele>
        <time>2019-10-12T08:06:45Z</time>
      </trkpt>
      <trkpt lat="43.82967" lon="6.09747">
        <ele>553.40002441406</ele>
        <time>2019-10-12T08:06:52Z</time>
      </trkpt>
      <trkpt lat="43.82934" lon="6.09725">
        <ele>552.79998779297</ele>
        <time>2019-10-12T08:06:58Z</time>
      </trkpt>
      <trkpt lat="43.82861" lon="6.09678">
        <ele>550.40002441406</ele>
        <time>2019-10-12T08:07:12Z</time>
      </trkpt>
      <trkpt lat="43.8284" lon="6.09661">
        <ele>550.40002441406</ele>
        <time>2019-10-12T08:07:16Z</time>
      </trkpt>
      <trkpt lat="43.82809" lon="6.0963">
        <ele>549.79998779297</ele>
        <time>2019-10-12T08:07:21Z</time>
      </trkpt>
      <trkpt lat="43.82783" lon="6.09601">
        <ele>549</ele>
        <time>2019-10-12T08:07:25Z</time>
      </trkpt>
      <trkpt lat="43.82726" lon="6.09557">
        <ele>546.20001220703</ele>
        <time>2019-10-12T08:07:32Z</time>
      </trkpt>
      <trkpt lat="43.82697" lon="6.09547">
        <ele>544.79998779297</ele>
        <time>2019-10-12T08:07:35Z</time>
      </trkpt>
      <trkpt lat="43.82677" lon="6.09542">
        <ele>544.20001220703</ele>
        <time>2019-10-12T08:07:37Z</time>
      </trkpt>
      <trkpt lat="43.82583" lon="6.09495">
        <ele>538.20001220703</ele>
        <time>2019-10-12T08:07:47Z</time>
      </trkpt>
      <trkpt lat="43.82552" lon="6.09458">
        <ele>536</ele>
        <time>2019-10-12T08:07:52Z</time>
      </trkpt>
      <trkpt lat="43.82501" lon="6.09409">
        <ele>534.20001220703</ele>
        <time>2019-10-12T08:08:00Z</time>
      </trkpt>
      <trkpt lat="43.82427" lon="6.09367">
        <ele>532.79998779297</ele>
        <time>2019-10-12T08:08:12Z</time>
      </trkpt>
      <trkpt lat="43.82386" lon="6.09335">
        <ele>532.40002441406</ele>
        <time>2019-10-12T08:08:19Z</time>
      </trkpt>
      <trkpt lat="43.8236" lon="6.09302">
        <ele>531.79998779297</ele>
        <time>2019-10-12T08:08:24Z</time>
      </trkpt>
      <trkpt lat="43.82331" lon="6.09245">
        <ele>530.59997558594</ele>
        <time>2019-10-12T08:08:31Z</time>
      </trkpt>
      <trkpt lat="43.82282" lon="6.09177">
        <ele>529.20001220703</ele>
        <time>2019-10-12T08:08:42Z</time>
      </trkpt>
      <trkpt lat="43.82249" lon="6.0915">
        <ele>528.59997558594</ele>
        <time>2019-10-12T08:08:50Z</time>
      </trkpt>
      <trkpt lat="43.82253" lon="6.09147">
        <ele>528.40002441406</ele>
        <time>2019-10-12T08:08:52Z</time>
      </trkpt>
      <trkpt lat="43.82261" lon="6.09105">
        <ele>527.59997558594</ele>
        <time>2019-10-12T08:09:04Z</time>
      </trkpt>
      <trkpt lat="43.82256" lon="6.09099">
        <ele>527.40002441406</ele>
        <time>2019-10-12T08:09:07Z</time>
      </trkpt>
      <trkpt lat="43.82248" lon="6.0909">
        <ele>527.59997558594</ele>
        <time>2019-10-12T08:09:13Z</time>
      </trkpt>
      <trkpt lat="43.82244" lon="6.09085">
        <ele>527.40002441406</ele>
        <time>2019-10-12T08:09:20Z</time>
      </trkpt>
      <trkpt lat="43.82246" lon="6.09087">
        <ele>527.20001220703</ele>
        <time>2019-10-12T08:09:50Z</time>
      </trkpt>
      <trkpt lat="43.82245" lon="6.09087">
        <ele>527.20001220703</ele>
        <time>2019-10-12T08:09:58Z</time>
      </trkpt>
      <trkpt lat="43.82239" lon="6.0908">
        <ele>524.79998779297</ele>
        <time>2019-10-12T08:28:00Z</time>
      </trkpt>
      <trkpt lat="43.82223" lon="6.09088">
        <ele>524.79998779297</ele>
        <time>2019-10-12T08:28:11Z</time>
      </trkpt>
      <trkpt lat="43.82208" lon="6.09102">
        <ele>525</ele>
        <time>2019-10-12T08:28:17Z</time>
      </trkpt>
      <trkpt lat="43.82191" lon="6.09112">
        <ele>524.79998779297</ele>
        <time>2019-10-12T08:28:24Z</time>
      </trkpt>
      <trkpt lat="43.82179" lon="6.09111">
        <ele>524.79998779297</ele>
        <time>2019-10-12T08:28:27Z</time>
      </trkpt>
      <trkpt lat="43.82157" lon="6.0909">
        <ele>524.40002441406</ele>
        <time>2019-10-12T08:28:32Z</time>
      </trkpt>
      <trkpt lat="43.8212" lon="6.09056">
        <ele>524.20001220703</ele>
        <time>2019-10-12T08:28:40Z</time>
      </trkpt>
      <trkpt lat="43.82077" lon="6.08985">
        <ele>524.20001220703</ele>
        <time>2019-10-12T08:28:53Z</time>
      </trkpt>
      <trkpt lat="43.82062" lon="6.08952">
        <ele>524.20001220703</ele>
        <time>2019-10-12T08:28:59Z</time>
      </trkpt>
      <trkpt lat="43.82026" lon="6.08894">
        <ele>524.20001220703</ele>
        <time>2019-10-12T08:29:09Z</time>
      </trkpt>
      <trkpt lat="43.82004" lon="6.08854">
        <ele>523.79998779297</ele>
        <time>2019-10-12T08:29:16Z</time>
      </trkpt>
      <trkpt lat="43.81996" lon="6.08831">
        <ele>523.59997558594</ele>
        <time>2019-10-12T08:29:19Z</time>
      </trkpt>
      <trkpt lat="43.81968" lon="6.08844">
        <ele>523</ele>
        <time>2019-10-12T08:29:24Z</time>
      </trkpt>
      <trkpt lat="43.81949" lon="6.08863">
        <ele>522.79998779297</ele>
        <time>2019-10-12T08:29:28Z</time>
      </trkpt>
      <trkpt lat="43.81906" lon="6.08912">
        <ele>521.59997558594</ele>
        <time>2019-10-12T08:29:38Z</time>
      </trkpt>
      <trkpt lat="43.8188" lon="6.08942">
        <ele>521.40002441406</ele>
        <time>2019-10-12T08:29:43Z</time>
      </trkpt>
      <trkpt lat="43.8185" lon="6.08982">
        <ele>520.20001220703</ele>
        <time>2019-10-12T08:29:50Z</time>
      </trkpt>
      <trkpt lat="43.81848" lon="6.09006">
        <ele>519.79998779297</ele>
        <time>2019-10-12T08:29:54Z</time>
      </trkpt>
      <trkpt lat="43.8185" lon="6.09018">
        <ele>520</ele>
        <time>2019-10-12T08:29:57Z</time>
      </trkpt>
      <trkpt lat="43.81859" lon="6.0904">
        <ele>519.79998779297</ele>
        <time>2019-10-12T08:30:01Z</time>
      </trkpt>
      <trkpt lat="43.81824" lon="6.09056">
        <ele>521.20001220703</ele>
        <time>2019-10-12T08:30:15Z</time>
      </trkpt>
      <trkpt lat="43.81796" lon="6.0905">
        <ele>521</ele>
        <time>2019-10-12T08:30:23Z</time>
      </trkpt>
      <trkpt lat="43.81787" lon="6.09074">
        <ele>520.79998779297</ele>
        <time>2019-10-12T08:30:32Z</time>
      </trkpt>
      <trkpt lat="43.81774" lon="6.0911">
        <ele>520.79998779297</ele>
        <time>2019-10-12T08:30:51Z</time>
      </trkpt>
      <trkpt lat="43.81769" lon="6.09124">
        <ele>521</ele>
        <time>2019-10-12T08:30:57Z</time>
      </trkpt>
      <trkpt lat="43.81755" lon="6.09165">
        <ele>521</ele>
        <time>2019-10-12T08:31:16Z</time>
      </trkpt>
      <trkpt lat="43.81751" lon="6.09176">
        <ele>521.20001220703</ele>
        <time>2019-10-12T08:31:21Z</time>
      </trkpt>
      <trkpt lat="43.81735" lon="6.09221">
        <ele>521.20001220703</ele>
        <time>2019-10-12T08:31:41Z</time>
      </trkpt>
      <trkpt lat="43.81731" lon="6.09238">
        <ele>521.59997558594</ele>
        <time>2019-10-12T08:31:45Z</time>
      </trkpt>
      <trkpt lat="43.81719" lon="6.09302">
        <ele>521.79998779297</ele>
        <time>2019-10-12T08:31:58Z</time>
      </trkpt>
      <trkpt lat="43.81716" lon="6.0932">
        <ele>521.79998779297</ele>
        <time>2019-10-12T08:32:03Z</time>
      </trkpt>
      <trkpt lat="43.81715" lon="6.09333">
        <ele>522</ele>
        <time>2019-10-12T08:32:10Z</time>
      </trkpt>
      <trkpt lat="43.81715" lon="6.09335">
        <ele>522</ele>
        <time>2019-10-12T08:32:22Z</time>
      </trkpt>
      <trkpt lat="43.81716" lon="6.09347">
        <ele>522.20001220703</ele>
        <time>2019-10-12T08:32:28Z</time>
      </trkpt>
      <trkpt lat="43.81722" lon="6.09376">
        <ele>522.20001220703</ele>
        <time>2019-10-12T08:32:39Z</time>
      </trkpt>
      <trkpt lat="43.81729" lon="6.09413">
        <ele>522.40002441406</ele>
        <time>2019-10-12T08:32:48Z</time>
      </trkpt>
      <trkpt lat="43.81723" lon="6.09434">
        <ele>523</ele>
        <time>2019-10-12T08:32:53Z</time>
      </trkpt>
      <trkpt lat="43.81706" lon="6.09442">
        <ele>523.79998779297</ele>
        <time>2019-10-12T08:32:59Z</time>
      </trkpt>
      <trkpt lat="43.81674" lon="6.09444">
        <ele>524</ele>
        <time>2019-10-12T08:33:06Z</time>
      </trkpt>
      <trkpt lat="43.81664" lon="6.09444">
        <ele>524</ele>
        <time>2019-10-12T08:33:09Z</time>
      </trkpt>
      <trkpt lat="43.81586" lon="6.09466">
        <ele>524.59997558594</ele>
        <time>2019-10-12T08:33:27Z</time>
      </trkpt>
      <trkpt lat="43.81558" lon="6.09475">
        <ele>525</ele>
        <time>2019-10-12T08:33:36Z</time>
      </trkpt>
      <trkpt lat="43.81532" lon="6.09481">
        <ele>526.40002441406</ele>
        <time>2019-10-12T08:33:46Z</time>
      </trkpt>
      <trkpt lat="43.81511" lon="6.0949">
        <ele>527.20001220703</ele>
        <time>2019-10-12T08:33:55Z</time>
      </trkpt>
      <trkpt lat="43.81489" lon="6.09519">
        <ele>529.40002441406</ele>
        <time>2019-10-12T08:34:07Z</time>
      </trkpt>
      <trkpt lat="43.8148" lon="6.09541">
        <ele>530.40002441406</ele>
        <time>2019-10-12T08:34:15Z</time>
      </trkpt>
      <trkpt lat="43.81464" lon="6.09589">
        <ele>532.59997558594</ele>
        <time>2019-10-12T08:34:31Z</time>
      </trkpt>
      <trkpt lat="43.81454" lon="6.09613">
        <ele>533.59997558594</ele>
        <time>2019-10-12T08:34:39Z</time>
      </trkpt>
      <trkpt lat="43.81434" lon="6.09634">
        <ele>535</ele>
        <time>2019-10-12T08:34:51Z</time>
      </trkpt>
      <trkpt lat="43.81418" lon="6.09646">
        <ele>536</ele>
        <time>2019-10-12T08:35:00Z</time>
      </trkpt>
      <trkpt lat="43.81394" lon="6.09664">
        <ele>537.20001220703</ele>
        <time>2019-10-12T08:35:11Z</time>
      </trkpt>
      <trkpt lat="43.81365" lon="6.09687">
        <ele>539</ele>
        <time>2019-10-12T08:35:24Z</time>
      </trkpt>
      <trkpt lat="43.81337" lon="6.09709">
        <ele>540.79998779297</ele>
        <time>2019-10-12T08:35:37Z</time>
      </trkpt>
      <trkpt lat="43.81312" lon="6.0973">
        <ele>542.40002441406</ele>
        <time>2019-10-12T08:35:49Z</time>
      </trkpt>
      <trkpt lat="43.81291" lon="6.09754">
        <ele>544</ele>
        <time>2019-10-12T08:36:01Z</time>
      </trkpt>
      <trkpt lat="43.8126" lon="6.09801">
        <ele>546.59997558594</ele>
        <time>2019-10-12T08:36:20Z</time>
      </trkpt>
      <trkpt lat="43.81249" lon="6.09819">
        <ele>547.59997558594</ele>
        <time>2019-10-12T08:36:28Z</time>
      </trkpt>
      <trkpt lat="43.81222" lon="6.09859">
        <ele>550</ele>
        <time>2019-10-12T08:36:44Z</time>
      </trkpt>
      <trkpt lat="43.81208" lon="6.09882">
        <ele>551</ele>
        <time>2019-10-12T08:36:53Z</time>
      </trkpt>
      <trkpt lat="43.81183" lon="6.09922">
        <ele>553.20001220703</ele>
        <time>2019-10-12T08:37:08Z</time>
      </trkpt>
      <trkpt lat="43.81164" lon="6.09951">
        <ele>554.79998779297</ele>
        <time>2019-10-12T08:37:19Z</time>
      </trkpt>
      <trkpt lat="43.81146" lon="6.09999">
        <ele>556.40002441406</ele>
        <time>2019-10-12T08:37:34Z</time>
      </trkpt>
      <trkpt lat="43.81136" lon="6.10028">
        <ele>557.59997558594</ele>
        <time>2019-10-12T08:37:44Z</time>
      </trkpt>
      <trkpt lat="43.81121" lon="6.10056">
        <ele>559</ele>
        <time>2019-10-12T08:37:54Z</time>
      </trkpt>
      <trkpt lat="43.81096" lon="6.10097">
        <ele>561</ele>
        <time>2019-10-12T08:38:09Z</time>
      </trkpt>
      <trkpt lat="43.81087" lon="6.10119">
        <ele>562.20001220703</ele>
        <time>2019-10-12T08:38:17Z</time>
      </trkpt>
      <trkpt lat="43.81072" lon="6.10166">
        <ele>564.59997558594</ele>
        <time>2019-10-12T08:38:33Z</time>
      </trkpt>
      <trkpt lat="43.81062" lon="6.10195">
        <ele>565.59997558594</ele>
        <time>2019-10-12T08:38:43Z</time>
      </trkpt>
      <trkpt lat="43.81045" lon="6.10236">
        <ele>567.40002441406</ele>
        <time>2019-10-12T08:38:57Z</time>
      </trkpt>
      <trkpt lat="43.81035" lon="6.1026">
        <ele>568.79998779297</ele>
        <time>2019-10-12T08:39:06Z</time>
      </trkpt>
      <trkpt lat="43.81024" lon="6.10293">
        <ele>570</ele>
        <time>2019-10-12T08:39:16Z</time>
      </trkpt>
      <trkpt lat="43.81019" lon="6.10328">
        <ele>571.59997558594</ele>
        <time>2019-10-12T08:39:26Z</time>
      </trkpt>
      <trkpt lat="43.8101" lon="6.10372">
        <ele>573.40002441406</ele>
        <time>2019-10-12T08:39:40Z</time>
      </trkpt>
      <trkpt lat="43.80997" lon="6.10428">
        <ele>575.40002441406</ele>
        <time>2019-10-12T08:39:58Z</time>
      </trkpt>
      <trkpt lat="43.80989" lon="6.10467">
        <ele>577</ele>
        <time>2019-10-12T08:40:11Z</time>
      </trkpt>
      <trkpt lat="43.80979" lon="6.10506">
        <ele>578.79998779297</ele>
        <time>2019-10-12T08:40:23Z</time>
      </trkpt>
      <trkpt lat="43.80968" lon="6.10538">
        <ele>580.20001220703</ele>
        <time>2019-10-12T08:40:33Z</time>
      </trkpt>
      <trkpt lat="43.80953" lon="6.10567">
        <ele>581.79998779297</ele>
        <time>2019-10-12T08:40:44Z</time>
      </trkpt>
      <trkpt lat="43.80946" lon="6.1059">
        <ele>583.20001220703</ele>
        <time>2019-10-12T08:40:53Z</time>
      </trkpt>
      <trkpt lat="43.80936" lon="6.10646">
        <ele>585.40002441406</ele>
        <time>2019-10-12T08:41:11Z</time>
      </trkpt>
      <trkpt lat="43.80932" lon="6.10667">
        <ele>586.40002441406</ele>
        <time>2019-10-12T08:41:18Z</time>
      </trkpt>
      <trkpt lat="43.80915" lon="6.10734">
        <ele>589.20001220703</ele>
        <time>2019-10-12T08:41:39Z</time>
      </trkpt>
      <trkpt lat="43.8091" lon="6.10776">
        <ele>591</ele>
        <time>2019-10-12T08:41:51Z</time>
      </trkpt>
      <trkpt lat="43.80896" lon="6.10813">
        <ele>592.40002441406</ele>
        <time>2019-10-12T08:42:03Z</time>
      </trkpt>
      <trkpt lat="43.80887" lon="6.1083">
        <ele>592.79998779297</ele>
        <time>2019-10-12T08:42:10Z</time>
      </trkpt>
      <trkpt lat="43.80872" lon="6.10877">
        <ele>595.20001220703</ele>
        <time>2019-10-12T08:42:26Z</time>
      </trkpt>
      <trkpt lat="43.80865" lon="6.10902">
        <ele>596.79998779297</ele>
        <time>2019-10-12T08:42:34Z</time>
      </trkpt>
      <trkpt lat="43.80853" lon="6.1095">
        <ele>599</ele>
        <time>2019-10-12T08:42:50Z</time>
      </trkpt>
      <trkpt lat="43.80846" lon="6.10978">
        <ele>600.20001220703</ele>
        <time>2019-10-12T08:42:59Z</time>
      </trkpt>
      <trkpt lat="43.80824" lon="6.11015">
        <ele>602.20001220703</ele>
        <time>2019-10-12T08:43:14Z</time>
      </trkpt>
      <trkpt lat="43.80801" lon="6.11021">
        <ele>603.40002441406</ele>
        <time>2019-10-12T08:43:23Z</time>
      </trkpt>
      <trkpt lat="43.80776" lon="6.11022">
        <ele>604.59997558594</ele>
        <time>2019-10-12T08:43:33Z</time>
      </trkpt>
      <trkpt lat="43.80743" lon="6.11026">
        <ele>606.59997558594</ele>
        <time>2019-10-12T08:43:48Z</time>
      </trkpt>
      <trkpt lat="43.80731" lon="6.11039">
        <ele>607.79998779297</ele>
        <time>2019-10-12T08:43:55Z</time>
      </trkpt>
      <trkpt lat="43.80734" lon="6.11069">
        <ele>609</ele>
        <time>2019-10-12T08:44:07Z</time>
      </trkpt>
      <trkpt lat="43.80743" lon="6.11091">
        <ele>610.20001220703</ele>
        <time>2019-10-12T08:44:15Z</time>
      </trkpt>
      <trkpt lat="43.80753" lon="6.11133">
        <ele>612.20001220703</ele>
        <time>2019-10-12T08:44:28Z</time>
      </trkpt>
      <trkpt lat="43.80747" lon="6.11152">
        <ele>612.79998779297</ele>
        <time>2019-10-12T08:44:34Z</time>
      </trkpt>
      <trkpt lat="43.80719" lon="6.11181">
        <ele>614.79998779297</ele>
        <time>2019-10-12T08:44:48Z</time>
      </trkpt>
      <trkpt lat="43.80707" lon="6.11197">
        <ele>615.59997558594</ele>
        <time>2019-10-12T08:44:55Z</time>
      </trkpt>
      <trkpt lat="43.80702" lon="6.11238">
        <ele>617.59997558594</ele>
        <time>2019-10-12T08:45:08Z</time>
      </trkpt>
      <trkpt lat="43.80716" lon="6.11263">
        <ele>619.20001220703</ele>
        <time>2019-10-12T08:45:17Z</time>
      </trkpt>
      <trkpt lat="43.80733" lon="6.11301">
        <ele>620.40002441406</ele>
        <time>2019-10-12T08:45:29Z</time>
      </trkpt>
      <trkpt lat="43.80736" lon="6.11329">
        <ele>621.40002441406</ele>
        <time>2019-10-12T08:45:36Z</time>
      </trkpt>
      <trkpt lat="43.80733" lon="6.11366">
        <ele>622.79998779297</ele>
        <time>2019-10-12T08:45:45Z</time>
      </trkpt>
      <trkpt lat="43.80706" lon="6.11408">
        <ele>624.79998779297</ele>
        <time>2019-10-12T08:46:01Z</time>
      </trkpt>
      <trkpt lat="43.80683" lon="6.11432">
        <ele>626.40002441406</ele>
        <time>2019-10-12T08:46:11Z</time>
      </trkpt>
      <trkpt lat="43.80643" lon="6.11468">
        <ele>628.79998779297</ele>
        <time>2019-10-12T08:46:30Z</time>
      </trkpt>
      <trkpt lat="43.80628" lon="6.11485">
        <ele>629.79998779297</ele>
        <time>2019-10-12T08:46:39Z</time>
      </trkpt>
      <trkpt lat="43.80619" lon="6.11517">
        <ele>631</ele>
        <time>2019-10-12T08:46:49Z</time>
      </trkpt>
      <trkpt lat="43.80615" lon="6.11553">
        <ele>632.40002441406</ele>
        <time>2019-10-12T08:47:01Z</time>
      </trkpt>
      <trkpt lat="43.80605" lon="6.11602">
        <ele>634.20001220703</ele>
        <time>2019-10-12T08:47:16Z</time>
      </trkpt>
      <trkpt lat="43.80591" lon="6.11628">
        <ele>635.20001220703</ele>
        <time>2019-10-12T08:47:25Z</time>
      </trkpt>
      <trkpt lat="43.80562" lon="6.11662">
        <ele>637.20001220703</ele>
        <time>2019-10-12T08:47:40Z</time>
      </trkpt>
      <trkpt lat="43.80541" lon="6.11682">
        <ele>638.40002441406</ele>
        <time>2019-10-12T08:47:50Z</time>
      </trkpt>
      <trkpt lat="43.8051" lon="6.11713">
        <ele>640.20001220703</ele>
        <time>2019-10-12T08:48:05Z</time>
      </trkpt>
      <trkpt lat="43.80492" lon="6.1173">
        <ele>641.40002441406</ele>
        <time>2019-10-12T08:48:14Z</time>
      </trkpt>
      <trkpt lat="43.80466" lon="6.11754">
        <ele>642.40002441406</ele>
        <time>2019-10-12T08:48:23Z</time>
      </trkpt>
      <trkpt lat="43.80423" lon="6.11791">
        <ele>644.40002441406</ele>
        <time>2019-10-12T08:48:39Z</time>
      </trkpt>
      <trkpt lat="43.80394" lon="6.11815">
        <ele>645</ele>
        <time>2019-10-12T08:48:48Z</time>
      </trkpt>
      <trkpt lat="43.80355" lon="6.11879">
        <ele>645.40002441406</ele>
        <time>2019-10-12T08:49:03Z</time>
      </trkpt>
      <trkpt lat="43.80343" lon="6.11901">
        <ele>645.40002441406</ele>
        <time>2019-10-12T08:49:09Z</time>
      </trkpt>
      <trkpt lat="43.80304" lon="6.11971">
        <ele>645.40002441406</ele>
        <time>2019-10-12T08:49:23Z</time>
      </trkpt>
      <trkpt lat="43.80286" lon="6.12004">
        <ele>645.59997558594</ele>
        <time>2019-10-12T08:49:30Z</time>
      </trkpt>
      <trkpt lat="43.80215" lon="6.12129">
        <ele>646</ele>
        <time>2019-10-12T08:49:54Z</time>
      </trkpt>
      <trkpt lat="43.80178" lon="6.12192">
        <ele>646.20001220703</ele>
        <time>2019-10-12T08:50:08Z</time>
      </trkpt>
      <trkpt lat="43.8012" lon="6.12286">
        <ele>646.59997558594</ele>
        <time>2019-10-12T08:50:27Z</time>
      </trkpt>
      <trkpt lat="43.80094" lon="6.12326">
        <ele>646.40002441406</ele>
        <time>2019-10-12T08:50:37Z</time>
      </trkpt>
      <trkpt lat="43.80055" lon="6.12375">
        <ele>646.59997558594</ele>
        <time>2019-10-12T08:50:50Z</time>
      </trkpt>
      <trkpt lat="43.80038" lon="6.12396">
        <ele>646.59997558594</ele>
        <time>2019-10-12T08:50:56Z</time>
      </trkpt>
      <trkpt lat="43.8001" lon="6.12429">
        <ele>646</ele>
        <time>2019-10-12T08:51:04Z</time>
      </trkpt>
      <trkpt lat="43.79978" lon="6.12477">
        <ele>645.20001220703</ele>
        <time>2019-10-12T08:51:12Z</time>
      </trkpt>
      <trkpt lat="43.79958" lon="6.1251">
        <ele>644.59997558594</ele>
        <time>2019-10-12T08:51:17Z</time>
      </trkpt>
      <trkpt lat="43.79913" lon="6.12564">
        <ele>643.79998779297</ele>
        <time>2019-10-12T08:51:27Z</time>
      </trkpt>
      <trkpt lat="43.79895" lon="6.12578">
        <ele>643.59997558594</ele>
        <time>2019-10-12T08:51:31Z</time>
      </trkpt>
      <trkpt lat="43.79876" lon="6.12593">
        <ele>644.59997558594</ele>
        <time>2019-10-12T08:51:36Z</time>
      </trkpt>
      <trkpt lat="43.79858" lon="6.12608">
        <ele>645.40002441406</ele>
        <time>2019-10-12T08:51:41Z</time>
      </trkpt>
      <trkpt lat="43.79839" lon="6.12627">
        <ele>646</ele>
        <time>2019-10-12T08:51:47Z</time>
      </trkpt>
      <trkpt lat="43.7982" lon="6.12649">
        <ele>647.20001220703</ele>
        <time>2019-10-12T08:51:54Z</time>
      </trkpt>
      <trkpt lat="43.79776" lon="6.12705">
        <ele>648.40002441406</ele>
        <time>2019-10-12T08:52:08Z</time>
      </trkpt>
      <trkpt lat="43.79736" lon="6.12756">
        <ele>648.40002441406</ele>
        <time>2019-10-12T08:52:19Z</time>
      </trkpt>
      <trkpt lat="43.79644" lon="6.12865">
        <ele>648.59997558594</ele>
        <time>2019-10-12T08:52:43Z</time>
      </trkpt>
      <trkpt lat="43.79595" lon="6.1292">
        <ele>648.40002441406</ele>
        <time>2019-10-12T08:52:55Z</time>
      </trkpt>
      <trkpt lat="43.79504" lon="6.13018">
        <ele>648.59997558594</ele>
        <time>2019-10-12T08:53:17Z</time>
      </trkpt>
      <trkpt lat="43.79446" lon="6.13078">
        <ele>648.40002441406</ele>
        <time>2019-10-12T08:53:30Z</time>
      </trkpt>
      <trkpt lat="43.79396" lon="6.13129">
        <ele>648.79998779297</ele>
        <time>2019-10-12T08:53:42Z</time>
      </trkpt>
      <trkpt lat="43.79309" lon="6.1323">
        <ele>649.20001220703</ele>
        <time>2019-10-12T08:54:04Z</time>
      </trkpt>
      <trkpt lat="43.79268" lon="6.13289">
        <ele>649.20001220703</ele>
        <time>2019-10-12T08:54:15Z</time>
      </trkpt>
      <trkpt lat="43.79184" lon="6.13388">
        <ele>649</ele>
        <time>2019-10-12T08:54:36Z</time>
      </trkpt>
      <trkpt lat="43.79132" lon="6.13444">
        <ele>649.59997558594</ele>
        <time>2019-10-12T08:54:49Z</time>
      </trkpt>
      <trkpt lat="43.79037" lon="6.1355">
        <ele>650</ele>
        <time>2019-10-12T08:55:11Z</time>
      </trkpt>
      <trkpt lat="43.7899" lon="6.13603">
        <ele>650</ele>
        <time>2019-10-12T08:55:22Z</time>
      </trkpt>
      <trkpt lat="43.78921" lon="6.13681">
        <ele>649.79998779297</ele>
        <time>2019-10-12T08:55:39Z</time>
      </trkpt>
      <trkpt lat="43.78906" lon="6.13697">
        <ele>649.79998779297</ele>
        <time>2019-10-12T08:55:44Z</time>
      </trkpt>
      <trkpt lat="43.78903" lon="6.137">
        <ele>649</ele>
        <time>2019-10-12T08:56:23Z</time>
      </trkpt>
      <trkpt lat="43.78894" lon="6.1371">
        <ele>649</ele>
        <time>2019-10-12T08:56:27Z</time>
      </trkpt>
      <trkpt lat="43.7885" lon="6.1376">
        <ele>649.20001220703</ele>
        <time>2019-10-12T08:56:41Z</time>
      </trkpt>
      <trkpt lat="43.78829" lon="6.13784">
        <ele>649.20001220703</ele>
        <time>2019-10-12T08:56:46Z</time>
      </trkpt>
      <trkpt lat="43.78782" lon="6.13837">
        <ele>648.40002441406</ele>
        <time>2019-10-12T08:56:57Z</time>
      </trkpt>
      <trkpt lat="43.7873" lon="6.13897">
        <ele>646.59997558594</ele>
        <time>2019-10-12T08:57:09Z</time>
      </trkpt>
      <trkpt lat="43.78685" lon="6.13947">
        <ele>645.79998779297</ele>
        <time>2019-10-12T08:57:19Z</time>
      </trkpt>
      <trkpt lat="43.78627" lon="6.1402">
        <ele>644.40002441406</ele>
        <time>2019-10-12T08:57:31Z</time>
      </trkpt>
      <trkpt lat="43.78589" lon="6.14067">
        <ele>643.20001220703</ele>
        <time>2019-10-12T08:57:39Z</time>
      </trkpt>
      <trkpt lat="43.7853" lon="6.14132">
        <ele>642</ele>
        <time>2019-10-12T08:57:50Z</time>
      </trkpt>
      <trkpt lat="43.78484" lon="6.14179">
        <ele>641</ele>
        <time>2019-10-12T08:57:58Z</time>
      </trkpt>
      <trkpt lat="43.78462" lon="6.14212">
        <ele>640.20001220703</ele>
        <time>2019-10-12T08:58:04Z</time>
      </trkpt>
      <trkpt lat="43.7844" lon="6.14239">
        <ele>640.20001220703</ele>
        <time>2019-10-12T08:58:11Z</time>
      </trkpt>
      <trkpt lat="43.7841" lon="6.14253">
        <ele>640.79998779297</ele>
        <time>2019-10-12T08:58:19Z</time>
      </trkpt>
      <trkpt lat="43.78386" lon="6.14263">
        <ele>641.59997558594</ele>
        <time>2019-10-12T08:58:24Z</time>
      </trkpt>
      <trkpt lat="43.78353" lon="6.14277">
        <ele>642.59997558594</ele>
        <time>2019-10-12T08:58:33Z</time>
      </trkpt>
      <trkpt lat="43.78339" lon="6.14283">
        <ele>643.20001220703</ele>
        <time>2019-10-12T08:58:37Z</time>
      </trkpt>
      <trkpt lat="43.78258" lon="6.14318">
        <ele>644.40002441406</ele>
        <time>2019-10-12T08:58:54Z</time>
      </trkpt>
      <trkpt lat="43.78194" lon="6.14344">
        <ele>644.79998779297</ele>
        <time>2019-10-12T08:59:07Z</time>
      </trkpt>
      <trkpt lat="43.78133" lon="6.14367">
        <ele>644.79998779297</ele>
        <time>2019-10-12T08:59:19Z</time>
      </trkpt>
      <trkpt lat="43.78006" lon="6.14413">
        <ele>644.20001220703</ele>
        <time>2019-10-12T08:59:41Z</time>
      </trkpt>
      <trkpt lat="43.77926" lon="6.14436">
        <ele>644</ele>
        <time>2019-10-12T08:59:55Z</time>
      </trkpt>
      <trkpt lat="43.7781" lon="6.14467">
        <ele>643</ele>
        <time>2019-10-12T09:00:15Z</time>
      </trkpt>
      <trkpt lat="43.77774" lon="6.14476">
        <ele>643.20001220703</ele>
        <time>2019-10-12T09:00:21Z</time>
      </trkpt>
      <trkpt lat="43.77659" lon="6.14497">
        <ele>642.40002441406</ele>
        <time>2019-10-12T09:00:39Z</time>
      </trkpt>
      <trkpt lat="43.77554" lon="6.14497">
        <ele>641.40002441406</ele>
        <time>2019-10-12T09:00:55Z</time>
      </trkpt>
      <trkpt lat="43.77458" lon="6.145">
        <ele>641.20001220703</ele>
        <time>2019-10-12T09:01:10Z</time>
      </trkpt>
      <trkpt lat="43.77386" lon="6.14509">
        <ele>640.59997558594</ele>
        <time>2019-10-12T09:01:21Z</time>
      </trkpt>
      <trkpt lat="43.77283" lon="6.1453">
        <ele>639.40002441406</ele>
        <time>2019-10-12T09:01:36Z</time>
      </trkpt>
      <trkpt lat="43.77211" lon="6.14544">
        <ele>639.20001220703</ele>
        <time>2019-10-12T09:01:47Z</time>
      </trkpt>
      <trkpt lat="43.77076" lon="6.14569">
        <ele>639.40002441406</ele>
        <time>2019-10-12T09:02:10Z</time>
      </trkpt>
      <trkpt lat="43.77047" lon="6.1457">
        <ele>639.59997558594</ele>
        <time>2019-10-12T09:02:15Z</time>
      </trkpt>
      <trkpt lat="43.76945" lon="6.1457">
        <ele>640</ele>
        <time>2019-10-12T09:02:33Z</time>
      </trkpt>
      <trkpt lat="43.76868" lon="6.14568">
        <ele>640.20001220703</ele>
        <time>2019-10-12T09:02:47Z</time>
      </trkpt>
      <trkpt lat="43.76811" lon="6.14567">
        <ele>639.79998779297</ele>
        <time>2019-10-12T09:02:56Z</time>
      </trkpt>
      <trkpt lat="43.76758" lon="6.14568">
        <ele>639.20001220703</ele>
        <time>2019-10-12T09:03:05Z</time>
      </trkpt>
      <trkpt lat="43.76691" lon="6.14573">
        <ele>639.20001220703</ele>
        <time>2019-10-12T09:03:17Z</time>
      </trkpt>
      <trkpt lat="43.76557" lon="6.146">
        <ele>639.59997558594</ele>
        <time>2019-10-12T09:03:39Z</time>
      </trkpt>
      <trkpt lat="43.76495" lon="6.14639">
        <ele>639.40002441406</ele>
        <time>2019-10-12T09:03:50Z</time>
      </trkpt>
      <trkpt lat="43.76419" lon="6.14705">
        <ele>639.20001220703</ele>
        <time>2019-10-12T09:04:05Z</time>
      </trkpt>
      <trkpt lat="43.76393" lon="6.14728">
        <ele>638.79998779297</ele>
        <time>2019-10-12T09:04:10Z</time>
      </trkpt>
      <trkpt lat="43.76346" lon="6.14771">
        <ele>638.59997558594</ele>
        <time>2019-10-12T09:04:20Z</time>
      </trkpt>
      <trkpt lat="43.76323" lon="6.14781">
        <ele>638.20001220703</ele>
        <time>2019-10-12T09:04:24Z</time>
      </trkpt>
      <trkpt lat="43.76293" lon="6.14779">
        <ele>637.79998779297</ele>
        <time>2019-10-12T09:04:29Z</time>
      </trkpt>
      <trkpt lat="43.76265" lon="6.14769">
        <ele>637</ele>
        <time>2019-10-12T09:04:34Z</time>
      </trkpt>
      <trkpt lat="43.76242" lon="6.14748">
        <ele>636.40002441406</ele>
        <time>2019-10-12T09:04:39Z</time>
      </trkpt>
      <trkpt lat="43.76173" lon="6.14706">
        <ele>635</ele>
        <time>2019-10-12T09:04:53Z</time>
      </trkpt>
      <trkpt lat="43.76139" lon="6.14691">
        <ele>634.20001220703</ele>
        <time>2019-10-12T09:05:00Z</time>
      </trkpt>
      <trkpt lat="43.76133" lon="6.14685">
        <ele>632</ele>
        <time>2019-10-12T09:10:33Z</time>
      </trkpt>
      <trkpt lat="43.76124" lon="6.14668">
        <ele>631.79998779297</ele>
        <time>2019-10-12T09:10:39Z</time>
      </trkpt>
      <trkpt lat="43.761" lon="6.1459">
        <ele>630.59997558594</ele>
        <time>2019-10-12T09:10:50Z</time>
      </trkpt>
      <trkpt lat="43.76095" lon="6.14562">
        <ele>629.79998779297</ele>
        <time>2019-10-12T09:10:53Z</time>
      </trkpt>
      <trkpt lat="43.76089" lon="6.14527">
        <ele>628.40002441406</ele>
        <time>2019-10-12T09:10:57Z</time>
      </trkpt>
      <trkpt lat="43.76082" lon="6.14518">
        <ele>627.59997558594</ele>
        <time>2019-10-12T09:10:59Z</time>
      </trkpt>
      <trkpt lat="43.76072" lon="6.14521">
        <ele>626.20001220703</ele>
        <time>2019-10-12T09:11:02Z</time>
      </trkpt>
      <trkpt lat="43.76065" lon="6.14538">
        <ele>624.79998779297</ele>
        <time>2019-10-12T09:11:04Z</time>
      </trkpt>
      <trkpt lat="43.76075" lon="6.14585">
        <ele>623</ele>
        <time>2019-10-12T09:11:08Z</time>
      </trkpt>
      <trkpt lat="43.76087" lon="6.14622">
        <ele>621.40002441406</ele>
        <time>2019-10-12T09:11:11Z</time>
      </trkpt>
      <trkpt lat="43.76088" lon="6.1465">
        <ele>620.20001220703</ele>
        <time>2019-10-12T09:11:13Z</time>
      </trkpt>
      <trkpt lat="43.76088" lon="6.14704">
        <ele>618</ele>
        <time>2019-10-12T09:11:17Z</time>
      </trkpt>
      <trkpt lat="43.76092" lon="6.14729">
        <ele>616.79998779297</ele>
        <time>2019-10-12T09:11:19Z</time>
      </trkpt>
      <trkpt lat="43.76108" lon="6.14759">
        <ele>614.59997558594</ele>
        <time>2019-10-12T09:11:22Z</time>
      </trkpt>
      <trkpt lat="43.76126" lon="6.14768">
        <ele>613</ele>
        <time>2019-10-12T09:11:24Z</time>
      </trkpt>
      <trkpt lat="43.76149" lon="6.14784">
        <ele>610</ele>
        <time>2019-10-12T09:11:28Z</time>
      </trkpt>
      <trkpt lat="43.76149" lon="6.1479">
        <ele>608.20001220703</ele>
        <time>2019-10-12T09:11:30Z</time>
      </trkpt>
      <trkpt lat="43.76128" lon="6.14796">
        <ele>605.59997558594</ele>
        <time>2019-10-12T09:11:33Z</time>
      </trkpt>
      <trkpt lat="43.76101" lon="6.1478">
        <ele>603.79998779297</ele>
        <time>2019-10-12T09:11:36Z</time>
      </trkpt>
      <trkpt lat="43.76068" lon="6.1474">
        <ele>601.40002441406</ele>
        <time>2019-10-12T09:11:41Z</time>
      </trkpt>
      <trkpt lat="43.76064" lon="6.1472">
        <ele>600.40002441406</ele>
        <time>2019-10-12T09:11:43Z</time>
      </trkpt>
      <trkpt lat="43.76043" lon="6.14709">
        <ele>598.20001220703</ele>
        <time>2019-10-12T09:11:47Z</time>
      </trkpt>
      <trkpt lat="43.76041" lon="6.1473">
        <ele>596.79998779297</ele>
        <time>2019-10-12T09:11:49Z</time>
      </trkpt>
      <trkpt lat="43.76067" lon="6.14784">
        <ele>593.59997558594</ele>
        <time>2019-10-12T09:11:55Z</time>
      </trkpt>
      <trkpt lat="43.76087" lon="6.14822">
        <ele>592.20001220703</ele>
        <time>2019-10-12T09:11:59Z</time>
      </trkpt>
      <trkpt lat="43.76095" lon="6.14844">
        <ele>590.79998779297</ele>
        <time>2019-10-12T09:12:02Z</time>
      </trkpt>
      <trkpt lat="43.76084" lon="6.14855">
        <ele>588.79998779297</ele>
        <time>2019-10-12T09:12:05Z</time>
      </trkpt>
      <trkpt lat="43.76065" lon="6.14833">
        <ele>587.40002441406</ele>
        <time>2019-10-12T09:12:08Z</time>
      </trkpt>
      <trkpt lat="43.76041" lon="6.14793">
        <ele>585.59997558594</ele>
        <time>2019-10-12T09:12:12Z</time>
      </trkpt>
      <trkpt lat="43.76022" lon="6.14779">
        <ele>584.40002441406</ele>
        <time>2019-10-12T09:12:14Z</time>
      </trkpt>
      <trkpt lat="43.76008" lon="6.14745">
        <ele>582.79998779297</ele>
        <time>2019-10-12T09:12:17Z</time>
      </trkpt>
      <trkpt lat="43.76014" lon="6.14696">
        <ele>580.40002441406</ele>
        <time>2019-10-12T09:12:21Z</time>
      </trkpt>
      <trkpt lat="43.76018" lon="6.14666">
        <ele>578.20001220703</ele>
        <time>2019-10-12T09:12:24Z</time>
      </trkpt>
      <trkpt lat="43.76012" lon="6.14646">
        <ele>576.59997558594</ele>
        <time>2019-10-12T09:12:26Z</time>
      </trkpt>
      <trkpt lat="43.75985" lon="6.14612">
        <ele>576.20001220703</ele>
        <time>2019-10-12T09:12:32Z</time>
      </trkpt>
      <trkpt lat="43.7597" lon="6.14597">
        <ele>576</ele>
        <time>2019-10-12T09:12:36Z</time>
      </trkpt>
      <trkpt lat="43.75949" lon="6.14573">
        <ele>577.40002441406</ele>
        <time>2019-10-12T09:12:43Z</time>
      </trkpt>
      <trkpt lat="43.75937" lon="6.14555">
        <ele>578.79998779297</ele>
        <time>2019-10-12T09:12:48Z</time>
      </trkpt>
      <trkpt lat="43.75924" lon="6.14535">
        <ele>579.59997558594</ele>
        <time>2019-10-12T09:12:53Z</time>
      </trkpt>
      <trkpt lat="43.75895" lon="6.14451">
        <ele>581.20001220703</ele>
        <time>2019-10-12T09:13:10Z</time>
      </trkpt>
      <trkpt lat="43.75878" lon="6.14385">
        <ele>582.20001220703</ele>
        <time>2019-10-12T09:13:22Z</time>
      </trkpt>
      <trkpt lat="43.7586" lon="6.14347">
        <ele>582.79998779297</ele>
        <time>2019-10-12T09:13:31Z</time>
      </trkpt>
      <trkpt lat="43.75856" lon="6.14338">
        <ele>582.79998779297</ele>
        <time>2019-10-12T09:13:35Z</time>
      </trkpt>
      <trkpt lat="43.75827" lon="6.14295">
        <ele>581.79998779297</ele>
        <time>2019-10-12T09:17:11Z</time>
      </trkpt>
      <trkpt lat="43.75753" lon="6.14189">
        <ele>580.20001220703</ele>
        <time>2019-10-12T09:17:27Z</time>
      </trkpt>
      <trkpt lat="43.75732" lon="6.14148">
        <ele>579.59997558594</ele>
        <time>2019-10-12T09:17:32Z</time>
      </trkpt>
      <trkpt lat="43.75702" lon="6.14107">
        <ele>578.79998779297</ele>
        <time>2019-10-12T09:17:37Z</time>
      </trkpt>
      <trkpt lat="43.75665" lon="6.14064">
        <ele>577.40002441406</ele>
        <time>2019-10-12T09:17:42Z</time>
      </trkpt>
      <trkpt lat="43.7563" lon="6.1403">
        <ele>575.20001220703</ele>
        <time>2019-10-12T09:17:46Z</time>
      </trkpt>
      <trkpt lat="43.75595" lon="6.14016">
        <ele>573</ele>
        <time>2019-10-12T09:17:50Z</time>
      </trkpt>
      <trkpt lat="43.7558" lon="6.1402">
        <ele>571.59997558594</ele>
        <time>2019-10-12T09:17:52Z</time>
      </trkpt>
      <trkpt lat="43.75567" lon="6.14035">
        <ele>570.40002441406</ele>
        <time>2019-10-12T09:17:54Z</time>
      </trkpt>
      <trkpt lat="43.75548" lon="6.14077">
        <ele>567.79998779297</ele>
        <time>2019-10-12T09:17:58Z</time>
      </trkpt>
      <trkpt lat="43.75541" lon="6.14082">
        <ele>567.20001220703</ele>
        <time>2019-10-12T09:18:00Z</time>
      </trkpt>
      <trkpt lat="43.75522" lon="6.1407">
        <ele>565.40002441406</ele>
        <time>2019-10-12T09:18:03Z</time>
      </trkpt>
      <trkpt lat="43.7552" lon="6.14055">
        <ele>563.79998779297</ele>
        <time>2019-10-12T09:18:05Z</time>
      </trkpt>
      <trkpt lat="43.75544" lon="6.14006">
        <ele>560</ele>
        <time>2019-10-12T09:18:10Z</time>
      </trkpt>
      <trkpt lat="43.75569" lon="6.13965">
        <ele>558</ele>
        <time>2019-10-12T09:18:14Z</time>
      </trkpt>
      <trkpt lat="43.75618" lon="6.13974">
        <ele>556.59997558594</ele>
        <time>2019-10-12T09:18:19Z</time>
      </trkpt>
      <trkpt lat="43.7565" lon="6.13987">
        <ele>555.59997558594</ele>
        <time>2019-10-12T09:18:22Z</time>
      </trkpt>
      <trkpt lat="43.75716" lon="6.14014">
        <ele>552.40002441406</ele>
        <time>2019-10-12T09:18:28Z</time>
      </trkpt>
      <trkpt lat="43.75739" lon="6.14024">
        <ele>551</ele>
        <time>2019-10-12T09:18:30Z</time>
      </trkpt>
      <trkpt lat="43.75795" lon="6.14043">
        <ele>547.20001220703</ele>
        <time>2019-10-12T09:18:35Z</time>
      </trkpt>
      <trkpt lat="43.75824" lon="6.14021">
        <ele>543.20001220703</ele>
        <time>2019-10-12T09:18:39Z</time>
      </trkpt>
      <trkpt lat="43.75828" lon="6.13973">
        <ele>539</ele>
        <time>2019-10-12T09:18:43Z</time>
      </trkpt>
      <trkpt lat="43.75804" lon="6.13924">
        <ele>535.40002441406</ele>
        <time>2019-10-12T09:18:47Z</time>
      </trkpt>
      <trkpt lat="43.75775" lon="6.1387">
        <ele>533.20001220703</ele>
        <time>2019-10-12T09:18:51Z</time>
      </trkpt>
      <trkpt lat="43.75753" lon="6.1383">
        <ele>530.79998779297</ele>
        <time>2019-10-12T09:18:54Z</time>
      </trkpt>
      <trkpt lat="43.75724" lon="6.13774">
        <ele>527.40002441406</ele>
        <time>2019-10-12T09:18:58Z</time>
      </trkpt>
      <trkpt lat="43.75702" lon="6.13731">
        <ele>524.79998779297</ele>
        <time>2019-10-12T09:19:01Z</time>
      </trkpt>
      <trkpt lat="43.75688" lon="6.13703">
        <ele>522.79998779297</ele>
        <time>2019-10-12T09:19:03Z</time>
      </trkpt>
      <trkpt lat="43.75648" lon="6.13627">
        <ele>517.79998779297</ele>
        <time>2019-10-12T09:19:08Z</time>
      </trkpt>
      <trkpt lat="43.75622" lon="6.13593">
        <ele>515</ele>
        <time>2019-10-12T09:19:11Z</time>
      </trkpt>
      <trkpt lat="43.75568" lon="6.13528">
        <ele>509.79998779297</ele>
        <time>2019-10-12T09:19:17Z</time>
      </trkpt>
      <trkpt lat="43.75557" lon="6.13503">
        <ele>508</ele>
        <time>2019-10-12T09:19:19Z</time>
      </trkpt>
      <trkpt lat="43.7555" lon="6.13459">
        <ele>505.39999389648</ele>
        <time>2019-10-12T09:19:22Z</time>
      </trkpt>
      <trkpt lat="43.7555" lon="6.1337">
        <ele>501.20001220703</ele>
        <time>2019-10-12T09:19:28Z</time>
      </trkpt>
      <trkpt lat="43.7555" lon="6.13254">
        <ele>496.39999389648</ele>
        <time>2019-10-12T09:19:37Z</time>
      </trkpt>
      <trkpt lat="43.75548" lon="6.13184">
        <ele>495.20001220703</ele>
        <time>2019-10-12T09:19:43Z</time>
      </trkpt>
      <trkpt lat="43.75542" lon="6.13163">
        <ele>494.79998779297</ele>
        <time>2019-10-12T09:19:45Z</time>
      </trkpt>
      <trkpt lat="43.7551" lon="6.13126">
        <ele>493.39999389648</ele>
        <time>2019-10-12T09:19:51Z</time>
      </trkpt>
      <trkpt lat="43.75482" lon="6.13124">
        <ele>492.79998779297</ele>
        <time>2019-10-12T09:19:55Z</time>
      </trkpt>
      <trkpt lat="43.75443" lon="6.13171">
        <ele>492.39999389648</ele>
        <time>2019-10-12T09:20:03Z</time>
      </trkpt>
      <trkpt lat="43.75434" lon="6.13193">
        <ele>492.60000610352</ele>
        <time>2019-10-12T09:20:06Z</time>
      </trkpt>
      <trkpt lat="43.75419" lon="6.13227">
        <ele>492.60000610352</ele>
        <time>2019-10-12T09:20:11Z</time>
      </trkpt>
      <trkpt lat="43.75399" lon="6.13273">
        <ele>493.20001220703</ele>
        <time>2019-10-12T09:20:18Z</time>
      </trkpt>
      <trkpt lat="43.75353" lon="6.13352">
        <ele>493.60000610352</ele>
        <time>2019-10-12T09:20:31Z</time>
      </trkpt>
      <trkpt lat="43.753" lon="6.13376">
        <ele>494</ele>
        <time>2019-10-12T09:20:42Z</time>
      </trkpt>
      <trkpt lat="43.75218" lon="6.13406">
        <ele>494.39999389648</ele>
        <time>2019-10-12T09:20:57Z</time>
      </trkpt>
      <trkpt lat="43.75179" lon="6.13442">
        <ele>494.20001220703</ele>
        <time>2019-10-12T09:21:05Z</time>
      </trkpt>
      <trkpt lat="43.75068" lon="6.13597">
        <ele>493</ele>
        <time>2019-10-12T09:21:31Z</time>
      </trkpt>
      <trkpt lat="43.75013" lon="6.13672">
        <ele>493.39999389648</ele>
        <time>2019-10-12T09:21:45Z</time>
      </trkpt>
      <trkpt lat="43.74984" lon="6.13703">
        <ele>494</ele>
        <time>2019-10-12T09:21:53Z</time>
      </trkpt>
      <trkpt lat="43.74961" lon="6.13711">
        <ele>494.20001220703</ele>
        <time>2019-10-12T09:21:58Z</time>
      </trkpt>
      <trkpt lat="43.74933" lon="6.13699">
        <ele>494.39999389648</ele>
        <time>2019-10-12T09:22:03Z</time>
      </trkpt>
      <trkpt lat="43.74911" lon="6.13661">
        <ele>494.60000610352</ele>
        <time>2019-10-12T09:22:09Z</time>
      </trkpt>
      <trkpt lat="43.7491" lon="6.13602">
        <ele>494.39999389648</ele>
        <time>2019-10-12T09:22:16Z</time>
      </trkpt>
      <trkpt lat="43.74932" lon="6.13478">
        <ele>495</ele>
        <time>2019-10-12T09:22:34Z</time>
      </trkpt>
      <trkpt lat="43.7494" lon="6.13435">
        <ele>495.20001220703</ele>
        <time>2019-10-12T09:22:40Z</time>
      </trkpt>
      <trkpt lat="43.74958" lon="6.1333">
        <ele>496.20001220703</ele>
        <time>2019-10-12T09:22:55Z</time>
      </trkpt>
      <trkpt lat="43.74961" lon="6.13277">
        <ele>496.20001220703</ele>
        <time>2019-10-12T09:23:01Z</time>
      </trkpt>
      <trkpt lat="43.74941" lon="6.13241">
        <ele>495.60000610352</ele>
        <time>2019-10-12T09:23:06Z</time>
      </trkpt>
      <trkpt lat="43.74926" lon="6.13237">
        <ele>495.20001220703</ele>
        <time>2019-10-12T09:23:08Z</time>
      </trkpt>
      <trkpt lat="43.74889" lon="6.13261">
        <ele>494.20001220703</ele>
        <time>2019-10-12T09:23:13Z</time>
      </trkpt>
      <trkpt lat="43.74856" lon="6.13311">
        <ele>492.79998779297</ele>
        <time>2019-10-12T09:23:19Z</time>
      </trkpt>
      <trkpt lat="43.74821" lon="6.13348">
        <ele>491.39999389648</ele>
        <time>2019-10-12T09:23:25Z</time>
      </trkpt>
      <trkpt lat="43.74743" lon="6.1342">
        <ele>491</ele>
        <time>2019-10-12T09:23:41Z</time>
      </trkpt>
      <trkpt lat="43.74692" lon="6.13487">
        <ele>492</ele>
        <time>2019-10-12T09:23:55Z</time>
      </trkpt>
      <trkpt lat="43.74624" lon="6.13583">
        <ele>491.79998779297</ele>
        <time>2019-10-12T09:24:12Z</time>
      </trkpt>
      <trkpt lat="43.74582" lon="6.13643">
        <ele>492</ele>
        <time>2019-10-12T09:24:23Z</time>
      </trkpt>
      <trkpt lat="43.74507" lon="6.13743">
        <ele>492.60000610352</ele>
        <time>2019-10-12T09:24:41Z</time>
      </trkpt>
      <trkpt lat="43.74442" lon="6.13789">
        <ele>492.79998779297</ele>
        <time>2019-10-12T09:24:54Z</time>
      </trkpt>
      <trkpt lat="43.74381" lon="6.13861">
        <ele>494</ele>
        <time>2019-10-12T09:25:10Z</time>
      </trkpt>
      <trkpt lat="43.74303" lon="6.13887">
        <ele>495.20001220703</ele>
        <time>2019-10-12T09:25:26Z</time>
      </trkpt>
      <trkpt lat="43.74271" lon="6.13903">
        <ele>495.79998779297</ele>
        <time>2019-10-12T09:25:33Z</time>
      </trkpt>
      <trkpt lat="43.74261" lon="6.13912">
        <ele>496</ele>
        <time>2019-10-12T09:25:38Z</time>
      </trkpt>
      <trkpt lat="43.74254" lon="6.13919">
        <ele>496.60000610352</ele>
        <time>2019-10-12T09:35:53Z</time>
      </trkpt>
      <trkpt lat="43.7425" lon="6.13923">
        <ele>496.60000610352</ele>
        <time>2019-10-12T09:35:55Z</time>
      </trkpt>
      <trkpt lat="43.74207" lon="6.1397">
        <ele>496.79998779297</ele>
        <time>2019-10-12T09:36:09Z</time>
      </trkpt>
      <trkpt lat="43.74188" lon="6.13991">
        <ele>497</ele>
        <time>2019-10-12T09:36:15Z</time>
      </trkpt>
      <trkpt lat="43.7417" lon="6.14008">
        <ele>497.20001220703</ele>
        <time>2019-10-12T09:36:20Z</time>
      </trkpt>
      <trkpt lat="43.7413" lon="6.14033">
        <ele>498.20001220703</ele>
        <time>2019-10-12T09:36:30Z</time>
      </trkpt>
      <trkpt lat="43.74089" lon="6.14045">
        <ele>498.60000610352</ele>
        <time>2019-10-12T09:36:39Z</time>
      </trkpt>
      <trkpt lat="43.74027" lon="6.14053">
        <ele>499.20001220703</ele>
        <time>2019-10-12T09:36:53Z</time>
      </trkpt>
      <trkpt lat="43.7398" lon="6.14049">
        <ele>499.79998779297</ele>
        <time>2019-10-12T09:37:04Z</time>
      </trkpt>
      <trkpt lat="43.73939" lon="6.1403">
        <ele>500.39999389648</ele>
        <time>2019-10-12T09:37:13Z</time>
      </trkpt>
      <trkpt lat="43.7391" lon="6.13999">
        <ele>500.79998779297</ele>
        <time>2019-10-12T09:37:21Z</time>
      </trkpt>
      <trkpt lat="43.73883" lon="6.13933">
        <ele>501.20001220703</ele>
        <time>2019-10-12T09:37:32Z</time>
      </trkpt>
      <trkpt lat="43.73879" lon="6.13926">
        <ele>501</ele>
        <time>2019-10-12T09:37:34Z</time>
      </trkpt>
      <trkpt lat="43.73848" lon="6.13923">
        <ele>501</ele>
        <time>2019-10-12T09:37:40Z</time>
      </trkpt>
      <trkpt lat="43.7374" lon="6.1397">
        <ele>500.79998779297</ele>
        <time>2019-10-12T09:38:01Z</time>
      </trkpt>
      <trkpt lat="43.73628" lon="6.14019">
        <ele>501</ele>
        <time>2019-10-12T09:38:23Z</time>
      </trkpt>
      <trkpt lat="43.73612" lon="6.14037">
        <ele>501</ele>
        <time>2019-10-12T09:38:27Z</time>
      </trkpt>
      <trkpt lat="43.7361" lon="6.14061">
        <ele>500.79998779297</ele>
        <time>2019-10-12T09:38:31Z</time>
      </trkpt>
      <trkpt lat="43.73604" lon="6.14111">
        <ele>500.79998779297</ele>
        <time>2019-10-12T09:38:38Z</time>
      </trkpt>
      <trkpt lat="43.73593" lon="6.14135">
        <ele>500.79998779297</ele>
        <time>2019-10-12T09:38:42Z</time>
      </trkpt>
      <trkpt lat="43.7356" lon="6.14192">
        <ele>500.60000610352</ele>
        <time>2019-10-12T09:38:52Z</time>
      </trkpt>
      <trkpt lat="43.73543" lon="6.1422">
        <ele>500.79998779297</ele>
        <time>2019-10-12T09:38:57Z</time>
      </trkpt>
      <trkpt lat="43.73501" lon="6.14291">
        <ele>501</ele>
        <time>2019-10-12T09:39:09Z</time>
      </trkpt>
      <trkpt lat="43.73447" lon="6.14383">
        <ele>501.39999389648</ele>
        <time>2019-10-12T09:39:26Z</time>
      </trkpt>
      <trkpt lat="43.73369" lon="6.14497">
        <ele>501.60000610352</ele>
        <time>2019-10-12T09:39:48Z</time>
      </trkpt>
      <trkpt lat="43.73316" lon="6.14543">
        <ele>501.79998779297</ele>
        <time>2019-10-12T09:39:59Z</time>
      </trkpt>
      <trkpt lat="43.73191" lon="6.14571">
        <ele>501.60000610352</ele>
        <time>2019-10-12T09:40:21Z</time>
      </trkpt>
      <trkpt lat="43.73116" lon="6.14591">
        <ele>501.20001220703</ele>
        <time>2019-10-12T09:40:35Z</time>
      </trkpt>
      <trkpt lat="43.73043" lon="6.14611">
        <ele>501.20001220703</ele>
        <time>2019-10-12T09:40:48Z</time>
      </trkpt>
      <trkpt lat="43.72996" lon="6.14608">
        <ele>501.39999389648</ele>
        <time>2019-10-12T09:40:57Z</time>
      </trkpt>
      <trkpt lat="43.72968" lon="6.14605">
        <ele>502</ele>
        <time>2019-10-12T09:41:04Z</time>
      </trkpt>
      <trkpt lat="43.72927" lon="6.14607">
        <ele>504</ele>
        <time>2019-10-12T09:41:15Z</time>
      </trkpt>
      <trkpt lat="43.72914" lon="6.14613">
        <ele>504.39999389648</ele>
        <time>2019-10-12T09:41:19Z</time>
      </trkpt>
      <trkpt lat="43.72884" lon="6.14644">
        <ele>506</ele>
        <time>2019-10-12T09:41:30Z</time>
      </trkpt>
      <trkpt lat="43.72873" lon="6.14667">
        <ele>507.20001220703</ele>
        <time>2019-10-12T09:41:36Z</time>
      </trkpt>
      <trkpt lat="43.72859" lon="6.14717">
        <ele>509.20001220703</ele>
        <time>2019-10-12T09:41:48Z</time>
      </trkpt>
      <trkpt lat="43.72851" lon="6.14754">
        <ele>510.60000610352</ele>
        <time>2019-10-12T09:41:57Z</time>
      </trkpt>
      <trkpt lat="43.72841" lon="6.14795">
        <ele>511.79998779297</ele>
        <time>2019-10-12T09:42:07Z</time>
      </trkpt>
      <trkpt lat="43.72826" lon="6.14828">
        <ele>513.20001220703</ele>
        <time>2019-10-12T09:42:17Z</time>
      </trkpt>
      <trkpt lat="43.72796" lon="6.1486">
        <ele>514.59997558594</ele>
        <time>2019-10-12T09:42:29Z</time>
      </trkpt>
      <trkpt lat="43.72769" lon="6.14884">
        <ele>515.79998779297</ele>
        <time>2019-10-12T09:42:39Z</time>
      </trkpt>
      <trkpt lat="43.72739" lon="6.14911">
        <ele>517.79998779297</ele>
        <time>2019-10-12T09:42:51Z</time>
      </trkpt>
      <trkpt lat="43.72713" lon="6.14932">
        <ele>518.79998779297</ele>
        <time>2019-10-12T09:43:01Z</time>
      </trkpt>
      <trkpt lat="43.72693" lon="6.14949">
        <ele>520</ele>
        <time>2019-10-12T09:43:10Z</time>
      </trkpt>
      <trkpt lat="43.72655" lon="6.1498">
        <ele>521.79998779297</ele>
        <time>2019-10-12T09:43:25Z</time>
      </trkpt>
      <trkpt lat="43.7263" lon="6.14999">
        <ele>523.20001220703</ele>
        <time>2019-10-12T09:43:35Z</time>
      </trkpt>
      <trkpt lat="43.72589" lon="6.1504">
        <ele>525.20001220703</ele>
        <time>2019-10-12T09:43:52Z</time>
      </trkpt>
      <trkpt lat="43.72573" lon="6.15076">
        <ele>526.59997558594</ele>
        <time>2019-10-12T09:44:02Z</time>
      </trkpt>
      <trkpt lat="43.72565" lon="6.15129">
        <ele>528.40002441406</ele>
        <time>2019-10-12T09:44:15Z</time>
      </trkpt>
      <trkpt lat="43.72567" lon="6.15156">
        <ele>529.59997558594</ele>
        <time>2019-10-12T09:44:22Z</time>
      </trkpt>
      <trkpt lat="43.72575" lon="6.15205">
        <ele>532.20001220703</ele>
        <time>2019-10-12T09:44:36Z</time>
      </trkpt>
      <trkpt lat="43.72578" lon="6.15231">
        <ele>533.40002441406</ele>
        <time>2019-10-12T09:44:44Z</time>
      </trkpt>
      <trkpt lat="43.72576" lon="6.15284">
        <ele>536.20001220703</ele>
        <time>2019-10-12T09:45:00Z</time>
      </trkpt>
      <trkpt lat="43.72575" lon="6.15303">
        <ele>537</ele>
        <time>2019-10-12T09:45:06Z</time>
      </trkpt>
      <trkpt lat="43.72574" lon="6.15337">
        <ele>538.40002441406</ele>
        <time>2019-10-12T09:45:16Z</time>
      </trkpt>
      <trkpt lat="43.72577" lon="6.1536">
        <ele>539.79998779297</ele>
        <time>2019-10-12T09:45:23Z</time>
      </trkpt>
      <trkpt lat="43.72595" lon="6.15408">
        <ele>542.40002441406</ele>
        <time>2019-10-12T09:45:38Z</time>
      </trkpt>
      <trkpt lat="43.72605" lon="6.15426">
        <ele>543.20001220703</ele>
        <time>2019-10-12T09:45:44Z</time>
      </trkpt>
      <trkpt lat="43.72618" lon="6.15447">
        <ele>544.20001220703</ele>
        <time>2019-10-12T09:45:51Z</time>
      </trkpt>
      <trkpt lat="43.72634" lon="6.15475">
        <ele>545.79998779297</ele>
        <time>2019-10-12T09:46:00Z</time>
      </trkpt>
      <trkpt lat="43.72642" lon="6.15489">
        <ele>546.79998779297</ele>
        <time>2019-10-12T09:46:05Z</time>
      </trkpt>
      <trkpt lat="43.72658" lon="6.15518">
        <ele>548.59997558594</ele>
        <time>2019-10-12T09:46:15Z</time>
      </trkpt>
      <trkpt lat="43.72664" lon="6.15534">
        <ele>549.59997558594</ele>
        <time>2019-10-12T09:46:20Z</time>
      </trkpt>
      <trkpt lat="43.72672" lon="6.15587">
        <ele>552.20001220703</ele>
        <time>2019-10-12T09:46:34Z</time>
      </trkpt>
      <trkpt lat="43.72671" lon="6.1563">
        <ele>553.59997558594</ele>
        <time>2019-10-12T09:46:43Z</time>
      </trkpt>
      <trkpt lat="43.7267" lon="6.15692">
        <ele>555</ele>
        <time>2019-10-12T09:46:56Z</time>
      </trkpt>
      <trkpt lat="43.72674" lon="6.15731">
        <ele>555.79998779297</ele>
        <time>2019-10-12T09:47:03Z</time>
      </trkpt>
      <trkpt lat="43.72692" lon="6.15771">
        <ele>555.79998779297</ele>
        <time>2019-10-12T09:47:10Z</time>
      </trkpt>
      <trkpt lat="43.72704" lon="6.15787">
        <ele>556</ele>
        <time>2019-10-12T09:47:13Z</time>
      </trkpt>
      <trkpt lat="43.72735" lon="6.15808">
        <ele>555.79998779297</ele>
        <time>2019-10-12T09:47:20Z</time>
      </trkpt>
      <trkpt lat="43.72755" lon="6.15815">
        <ele>555.59997558594</ele>
        <time>2019-10-12T09:47:24Z</time>
      </trkpt>
      <trkpt lat="43.72797" lon="6.15829">
        <ele>554.79998779297</ele>
        <time>2019-10-12T09:47:31Z</time>
      </trkpt>
      <trkpt lat="43.72842" lon="6.15845">
        <ele>553.40002441406</ele>
        <time>2019-10-12T09:47:37Z</time>
      </trkpt>
      <trkpt lat="43.72875" lon="6.15856">
        <ele>552.40002441406</ele>
        <time>2019-10-12T09:47:41Z</time>
      </trkpt>
      <trkpt lat="43.72921" lon="6.15872">
        <ele>550.20001220703</ele>
        <time>2019-10-12T09:47:46Z</time>
      </trkpt>
      <trkpt lat="43.72957" lon="6.15891">
        <ele>548.40002441406</ele>
        <time>2019-10-12T09:47:50Z</time>
      </trkpt>
      <trkpt lat="43.73014" lon="6.15927">
        <ele>545.59997558594</ele>
        <time>2019-10-12T09:47:56Z</time>
      </trkpt>
      <trkpt lat="43.73081" lon="6.15952">
        <ele>541.79998779297</ele>
        <time>2019-10-12T09:48:03Z</time>
      </trkpt>
      <trkpt lat="43.73187" lon="6.1597">
        <ele>536.79998779297</ele>
        <time>2019-10-12T09:48:14Z</time>
      </trkpt>
      <trkpt lat="43.73215" lon="6.15998">
        <ele>535.59997558594</ele>
        <time>2019-10-12T09:48:18Z</time>
      </trkpt>
      <trkpt lat="43.73248" lon="6.16062">
        <ele>534</ele>
        <time>2019-10-12T09:48:25Z</time>
      </trkpt>
      <trkpt lat="43.73253" lon="6.16127">
        <ele>533.20001220703</ele>
        <time>2019-10-12T09:48:31Z</time>
      </trkpt>
      <trkpt lat="43.73232" lon="6.16207">
        <ele>531.20001220703</ele>
        <time>2019-10-12T09:48:39Z</time>
      </trkpt>
      <trkpt lat="43.73208" lon="6.16238">
        <ele>530.79998779297</ele>
        <time>2019-10-12T09:48:43Z</time>
      </trkpt>
      <trkpt lat="43.73169" lon="6.1628">
        <ele>530.20001220703</ele>
        <time>2019-10-12T09:48:49Z</time>
      </trkpt>
      <trkpt lat="43.73118" lon="6.16334">
        <ele>528.79998779297</ele>
        <time>2019-10-12T09:48:56Z</time>
      </trkpt>
      <trkpt lat="43.73083" lon="6.16372">
        <ele>526.79998779297</ele>
        <time>2019-10-12T09:49:01Z</time>
      </trkpt>
      <trkpt lat="43.73034" lon="6.16436">
        <ele>522.79998779297</ele>
        <time>2019-10-12T09:49:08Z</time>
      </trkpt>
      <trkpt lat="43.73024" lon="6.1646">
        <ele>521.79998779297</ele>
        <time>2019-10-12T09:49:10Z</time>
      </trkpt>
      <trkpt lat="43.73014" lon="6.16501">
        <ele>520.20001220703</ele>
        <time>2019-10-12T09:49:13Z</time>
      </trkpt>
      <trkpt lat="43.7301" lon="6.16526">
        <ele>519.20001220703</ele>
        <time>2019-10-12T09:49:15Z</time>
      </trkpt>
      <trkpt lat="43.73014" lon="6.1659">
        <ele>517.20001220703</ele>
        <time>2019-10-12T09:49:19Z</time>
      </trkpt>
      <trkpt lat="43.73022" lon="6.16618">
        <ele>516</ele>
        <time>2019-10-12T09:49:21Z</time>
      </trkpt>
      <trkpt lat="43.73055" lon="6.16707">
        <ele>511.60000610352</ele>
        <time>2019-10-12T09:49:28Z</time>
      </trkpt>
      <trkpt lat="43.73063" lon="6.16729">
        <ele>510.20001220703</ele>
        <time>2019-10-12T09:49:30Z</time>
      </trkpt>
      <trkpt lat="43.73073" lon="6.16772">
        <ele>508</ele>
        <time>2019-10-12T09:49:34Z</time>
      </trkpt>
      <trkpt lat="43.73073" lon="6.168">
        <ele>507.60000610352</ele>
        <time>2019-10-12T09:49:37Z</time>
      </trkpt>
      <trkpt lat="43.73071" lon="6.16818">
        <ele>507.60000610352</ele>
        <time>2019-10-12T09:49:39Z</time>
      </trkpt>
      <trkpt lat="43.73041" lon="6.16883">
        <ele>508</ele>
        <time>2019-10-12T09:49:48Z</time>
      </trkpt>
      <trkpt lat="43.73023" lon="6.16905">
        <ele>508</ele>
        <time>2019-10-12T09:49:52Z</time>
      </trkpt>
      <trkpt lat="43.72982" lon="6.16956">
        <ele>508.20001220703</ele>
        <time>2019-10-12T09:50:00Z</time>
      </trkpt>
      <trkpt lat="43.7296" lon="6.16997">
        <ele>507.60000610352</ele>
        <time>2019-10-12T09:50:05Z</time>
      </trkpt>
      <trkpt lat="43.72951" lon="6.17044">
        <ele>506.60000610352</ele>
        <time>2019-10-12T09:50:10Z</time>
      </trkpt>
      <trkpt lat="43.72959" lon="6.1709">
        <ele>506</ele>
        <time>2019-10-12T09:50:15Z</time>
      </trkpt>
      <trkpt lat="43.72972" lon="6.17125">
        <ele>505.60000610352</ele>
        <time>2019-10-12T09:50:20Z</time>
      </trkpt>
      <trkpt lat="43.72989" lon="6.17157">
        <ele>506</ele>
        <time>2019-10-12T09:50:26Z</time>
      </trkpt>
      <trkpt lat="43.73014" lon="6.1721">
        <ele>507.39999389648</ele>
        <time>2019-10-12T09:50:36Z</time>
      </trkpt>
      <trkpt lat="43.73023" lon="6.17231">
        <ele>508.20001220703</ele>
        <time>2019-10-12T09:50:40Z</time>
      </trkpt>
      <trkpt lat="43.73026" lon="6.17284">
        <ele>509.39999389648</ele>
        <time>2019-10-12T09:50:49Z</time>
      </trkpt>
      <trkpt lat="43.73025" lon="6.173">
        <ele>509.79998779297</ele>
        <time>2019-10-12T09:50:52Z</time>
      </trkpt>
      <trkpt lat="43.73004" lon="6.17355">
        <ele>511.39999389648</ele>
        <time>2019-10-12T09:51:06Z</time>
      </trkpt>
      <trkpt lat="43.73009" lon="6.17356">
        <ele>512.59997558594</ele>
        <time>2019-10-12T09:53:05Z</time>
      </trkpt>
      <trkpt lat="43.73005" lon="6.17355">
        <ele>512.40002441406</ele>
        <time>2019-10-12T09:53:07Z</time>
      </trkpt>
      <trkpt lat="43.72965" lon="6.17395">
        <ele>512.59997558594</ele>
        <time>2019-10-12T09:53:21Z</time>
      </trkpt>
      <trkpt lat="43.72947" lon="6.17411">
        <ele>513.40002441406</ele>
        <time>2019-10-12T09:53:27Z</time>
      </trkpt>
      <trkpt lat="43.72922" lon="6.17431">
        <ele>514.20001220703</ele>
        <time>2019-10-12T09:53:35Z</time>
      </trkpt>
      <trkpt lat="43.72903" lon="6.17447">
        <ele>515</ele>
        <time>2019-10-12T09:53:41Z</time>
      </trkpt>
      <trkpt lat="43.72861" lon="6.17478">
        <ele>516.59997558594</ele>
        <time>2019-10-12T09:53:54Z</time>
      </trkpt>
      <trkpt lat="43.72807" lon="6.17502">
        <ele>518.20001220703</ele>
        <time>2019-10-12T09:54:09Z</time>
      </trkpt>
      <trkpt lat="43.72753" lon="6.17528">
        <ele>520.40002441406</ele>
        <time>2019-10-12T09:54:23Z</time>
      </trkpt>
      <trkpt lat="43.72734" lon="6.17543">
        <ele>521.20001220703</ele>
        <time>2019-10-12T09:54:29Z</time>
      </trkpt>
      <trkpt lat="43.72695" lon="6.17573">
        <ele>522</ele>
        <time>2019-10-12T09:54:42Z</time>
      </trkpt>
      <trkpt lat="43.72664" lon="6.17594">
        <ele>522.40002441406</ele>
        <time>2019-10-12T09:54:50Z</time>
      </trkpt>
      <trkpt lat="43.72596" lon="6.17631">
        <ele>523.20001220703</ele>
        <time>2019-10-12T09:55:06Z</time>
      </trkpt>
      <trkpt lat="43.72549" lon="6.17656">
        <ele>524.20001220703</ele>
        <time>2019-10-12T09:55:17Z</time>
      </trkpt>
      <trkpt lat="43.72473" lon="6.17697">
        <ele>525.40002441406</ele>
        <time>2019-10-12T09:55:34Z</time>
      </trkpt>
      <trkpt lat="43.7244" lon="6.17725">
        <ele>525.40002441406</ele>
        <time>2019-10-12T09:55:42Z</time>
      </trkpt>
      <trkpt lat="43.72415" lon="6.17747">
        <ele>525.40002441406</ele>
        <time>2019-10-12T09:55:48Z</time>
      </trkpt>
      <trkpt lat="43.72374" lon="6.17784">
        <ele>524.20001220703</ele>
        <time>2019-10-12T09:55:57Z</time>
      </trkpt>
      <trkpt lat="43.7233" lon="6.17826">
        <ele>523</ele>
        <time>2019-10-12T09:56:06Z</time>
      </trkpt>
      <trkpt lat="43.72272" lon="6.17877">
        <ele>521.59997558594</ele>
        <time>2019-10-12T09:56:17Z</time>
      </trkpt>
      <trkpt lat="43.72241" lon="6.17902">
        <ele>521</ele>
        <time>2019-10-12T09:56:22Z</time>
      </trkpt>
      <trkpt lat="43.7215" lon="6.17985">
        <ele>519.59997558594</ele>
        <time>2019-10-12T09:56:37Z</time>
      </trkpt>
      <trkpt lat="43.72127" lon="6.18024">
        <ele>519.20001220703</ele>
        <time>2019-10-12T09:56:42Z</time>
      </trkpt>
      <trkpt lat="43.72109" lon="6.18084">
        <ele>518.40002441406</ele>
        <time>2019-10-12T09:56:48Z</time>
      </trkpt>
      <trkpt lat="43.72107" lon="6.1814">
        <ele>516.79998779297</ele>
        <time>2019-10-12T09:56:53Z</time>
      </trkpt>
      <trkpt lat="43.72126" lon="6.18239">
        <ele>514.79998779297</ele>
        <time>2019-10-12T09:57:02Z</time>
      </trkpt>
      <trkpt lat="43.72131" lon="6.18262">
        <ele>514.59997558594</ele>
        <time>2019-10-12T09:57:04Z</time>
      </trkpt>
      <trkpt lat="43.72144" lon="6.18324">
        <ele>512.79998779297</ele>
        <time>2019-10-12T09:57:09Z</time>
      </trkpt>
      <trkpt lat="43.72159" lon="6.18387">
        <ele>510.39999389648</ele>
        <time>2019-10-12T09:57:14Z</time>
      </trkpt>
      <trkpt lat="43.72167" lon="6.18426">
        <ele>509</ele>
        <time>2019-10-12T09:57:17Z</time>
      </trkpt>
      <trkpt lat="43.72183" lon="6.18504">
        <ele>506.39999389648</ele>
        <time>2019-10-12T09:57:23Z</time>
      </trkpt>
      <trkpt lat="43.72196" lon="6.18561">
        <ele>504.20001220703</ele>
        <time>2019-10-12T09:57:27Z</time>
      </trkpt>
      <trkpt lat="43.72221" lon="6.18628">
        <ele>501.39999389648</ele>
        <time>2019-10-12T09:57:32Z</time>
      </trkpt>
      <trkpt lat="43.72239" lon="6.18667">
        <ele>499.39999389648</ele>
        <time>2019-10-12T09:57:35Z</time>
      </trkpt>
      <trkpt lat="43.72273" lon="6.18742">
        <ele>495</ele>
        <time>2019-10-12T09:57:41Z</time>
      </trkpt>
      <trkpt lat="43.72286" lon="6.18776">
        <ele>492.60000610352</ele>
        <time>2019-10-12T09:57:44Z</time>
      </trkpt>
      <trkpt lat="43.72299" lon="6.1881">
        <ele>492.20001220703</ele>
        <time>2019-10-12T09:57:49Z</time>
      </trkpt>
      <trkpt lat="43.72306" lon="6.18826">
        <ele>492</ele>
        <time>2019-10-12T09:57:51Z</time>
      </trkpt>
      <trkpt lat="43.723" lon="6.18853">
        <ele>492.39999389648</ele>
        <time>2019-10-12T09:57:56Z</time>
      </trkpt>
      <trkpt lat="43.72299" lon="6.18865">
        <ele>493.60000610352</ele>
        <time>2019-10-12T09:58:00Z</time>
      </trkpt>
      <trkpt lat="43.72296" lon="6.18876">
        <ele>495.60000610352</ele>
        <time>2019-10-12T09:58:05Z</time>
      </trkpt>
      <trkpt lat="43.72288" lon="6.189">
        <ele>497</ele>
        <time>2019-10-12T09:58:14Z</time>
      </trkpt>
      <trkpt lat="43.72283" lon="6.18912">
        <ele>497.60000610352</ele>
        <time>2019-10-12T09:58:18Z</time>
      </trkpt>
      <trkpt lat="43.72266" lon="6.1894">
        <ele>499.60000610352</ele>
        <time>2019-10-12T09:58:29Z</time>
      </trkpt>
      <trkpt lat="43.72254" lon="6.18953">
        <ele>500.60000610352</ele>
        <time>2019-10-12T09:58:35Z</time>
      </trkpt>
      <trkpt lat="43.72233" lon="6.18966">
        <ele>502.20001220703</ele>
        <time>2019-10-12T09:58:45Z</time>
      </trkpt>
      <trkpt lat="43.72216" lon="6.18971">
        <ele>503.79998779297</ele>
        <time>2019-10-12T09:58:53Z</time>
      </trkpt>
      <trkpt lat="43.72181" lon="6.18981">
        <ele>506.20001220703</ele>
        <time>2019-10-12T09:59:10Z</time>
      </trkpt>
      <trkpt lat="43.72165" lon="6.18985">
        <ele>507.20001220703</ele>
        <time>2019-10-12T09:59:17Z</time>
      </trkpt>
      <trkpt lat="43.72139" lon="6.18987">
        <ele>508.79998779297</ele>
        <time>2019-10-12T09:59:27Z</time>
      </trkpt>
      <trkpt lat="43.72116" lon="6.18983">
        <ele>510</ele>
        <time>2019-10-12T09:59:36Z</time>
      </trkpt>
      <trkpt lat="43.7208" lon="6.18973">
        <ele>511.79998779297</ele>
        <time>2019-10-12T09:59:50Z</time>
      </trkpt>
      <trkpt lat="43.72056" lon="6.18979">
        <ele>512.79998779297</ele>
        <time>2019-10-12T09:59:59Z</time>
      </trkpt>
      <trkpt lat="43.72035" lon="6.19001">
        <ele>514.20001220703</ele>
        <time>2019-10-12T10:00:09Z</time>
      </trkpt>
      <trkpt lat="43.72017" lon="6.19023">
        <ele>515.20001220703</ele>
        <time>2019-10-12T10:00:17Z</time>
      </trkpt>
      <trkpt lat="43.72006" lon="6.19037">
        <ele>516</ele>
        <time>2019-10-12T10:00:23Z</time>
      </trkpt>
      <trkpt lat="43.71976" lon="6.19066">
        <ele>518.40002441406</ele>
        <time>2019-10-12T10:00:36Z</time>
      </trkpt>
      <trkpt lat="43.71957" lon="6.19084">
        <ele>519.59997558594</ele>
        <time>2019-10-12T10:00:44Z</time>
      </trkpt>
      <trkpt lat="43.71925" lon="6.19113">
        <ele>521.20001220703</ele>
        <time>2019-10-12T10:00:58Z</time>
      </trkpt>
      <trkpt lat="43.71905" lon="6.19131">
        <ele>522.40002441406</ele>
        <time>2019-10-12T10:01:06Z</time>
      </trkpt>
      <trkpt lat="43.71872" lon="6.19161">
        <ele>524.59997558594</ele>
        <time>2019-10-12T10:01:20Z</time>
      </trkpt>
      <trkpt lat="43.71846" lon="6.19185">
        <ele>526.20001220703</ele>
        <time>2019-10-12T10:01:30Z</time>
      </trkpt>
      <trkpt lat="43.71816" lon="6.19207">
        <ele>527.59997558594</ele>
        <time>2019-10-12T10:01:41Z</time>
      </trkpt>
      <trkpt lat="43.71797" lon="6.19217">
        <ele>528.40002441406</ele>
        <time>2019-10-12T10:01:48Z</time>
      </trkpt>
      <trkpt lat="43.71755" lon="6.19227">
        <ele>530</ele>
        <time>2019-10-12T10:02:00Z</time>
      </trkpt>
      <trkpt lat="43.71727" lon="6.19226">
        <ele>531.40002441406</ele>
        <time>2019-10-12T10:02:09Z</time>
      </trkpt>
      <trkpt lat="43.71695" lon="6.19223">
        <ele>533</ele>
        <time>2019-10-12T10:02:19Z</time>
      </trkpt>
      <trkpt lat="43.7167" lon="6.19222">
        <ele>534</ele>
        <time>2019-10-12T10:02:26Z</time>
      </trkpt>
      <trkpt lat="43.7164" lon="6.19221">
        <ele>535.40002441406</ele>
        <time>2019-10-12T10:02:35Z</time>
      </trkpt>
      <trkpt lat="43.716" lon="6.19223">
        <ele>537.20001220703</ele>
        <time>2019-10-12T10:02:47Z</time>
      </trkpt>
      <trkpt lat="43.71581" lon="6.19228">
        <ele>538.40002441406</ele>
        <time>2019-10-12T10:02:53Z</time>
      </trkpt>
      <trkpt lat="43.71557" lon="6.19241">
        <ele>541.20001220703</ele>
        <time>2019-10-12T10:03:06Z</time>
      </trkpt>
      <trkpt lat="43.71557" lon="6.19241">
        <ele>541.59997558594</ele>
        <time>2019-10-12T10:03:09Z</time>
      </trkpt>
      <trkpt lat="43.71278" lon="6.19376">
        <ele>556</ele>
        <time>2019-10-12T10:57:12Z</time>
      </trkpt>
      <trkpt lat="43.71274" lon="6.19379">
        <ele>556.20001220703</ele>
        <time>2019-10-12T10:57:15Z</time>
      </trkpt>
      <trkpt lat="43.71261" lon="6.19391">
        <ele>556.20001220703</ele>
        <time>2019-10-12T10:58:15Z</time>
      </trkpt>
      <trkpt lat="43.71258" lon="6.19393">
        <ele>556.20001220703</ele>
        <time>2019-10-12T10:58:17Z</time>
      </trkpt>
      <trkpt lat="43.71223" lon="6.19415">
        <ele>556.40002441406</ele>
        <time>2019-10-12T10:58:30Z</time>
      </trkpt>
      <trkpt lat="43.71197" lon="6.19426">
        <ele>557.40002441406</ele>
        <time>2019-10-12T10:58:38Z</time>
      </trkpt>
      <trkpt lat="43.7118" lon="6.19433">
        <ele>558</ele>
        <time>2019-10-12T10:58:44Z</time>
      </trkpt>
      <trkpt lat="43.71158" lon="6.19442">
        <ele>558.59997558594</ele>
        <time>2019-10-12T10:58:52Z</time>
      </trkpt>
      <trkpt lat="43.71138" lon="6.1945">
        <ele>559</ele>
        <time>2019-10-12T10:58:59Z</time>
      </trkpt>
      <trkpt lat="43.71104" lon="6.19464">
        <ele>560.59997558594</ele>
        <time>2019-10-12T10:59:10Z</time>
      </trkpt>
      <trkpt lat="43.71082" lon="6.19473">
        <ele>561.59997558594</ele>
        <time>2019-10-12T10:59:18Z</time>
      </trkpt>
      <trkpt lat="43.71054" lon="6.19486">
        <ele>563.59997558594</ele>
        <time>2019-10-12T10:59:31Z</time>
      </trkpt>
      <trkpt lat="43.71038" lon="6.195">
        <ele>564.59997558594</ele>
        <time>2019-10-12T10:59:39Z</time>
      </trkpt>
      <trkpt lat="43.71005" lon="6.19555">
        <ele>567</ele>
        <time>2019-10-12T10:59:57Z</time>
      </trkpt>
      <trkpt lat="43.70986" lon="6.19589">
        <ele>567.59997558594</ele>
        <time>2019-10-12T11:00:08Z</time>
      </trkpt>
      <trkpt lat="43.7096" lon="6.19624">
        <ele>569</ele>
        <time>2019-10-12T11:00:20Z</time>
      </trkpt>
      <trkpt lat="43.7094" lon="6.19644">
        <ele>570</ele>
        <time>2019-10-12T11:00:29Z</time>
      </trkpt>
      <trkpt lat="43.70916" lon="6.1967">
        <ele>571.79998779297</ele>
        <time>2019-10-12T11:00:41Z</time>
      </trkpt>
      <trkpt lat="43.70901" lon="6.19685">
        <ele>572.79998779297</ele>
        <time>2019-10-12T11:00:48Z</time>
      </trkpt>
      <trkpt lat="43.70865" lon="6.19722">
        <ele>575.20001220703</ele>
        <time>2019-10-12T11:01:05Z</time>
      </trkpt>
      <trkpt lat="43.70847" lon="6.1974">
        <ele>576.20001220703</ele>
        <time>2019-10-12T11:01:13Z</time>
      </trkpt>
      <trkpt lat="43.70818" lon="6.19765">
        <ele>578</ele>
        <time>2019-10-12T11:01:26Z</time>
      </trkpt>
      <trkpt lat="43.70803" lon="6.19778">
        <ele>579</ele>
        <time>2019-10-12T11:01:33Z</time>
      </trkpt>
      <trkpt lat="43.70775" lon="6.198">
        <ele>581</ele>
        <time>2019-10-12T11:01:45Z</time>
      </trkpt>
      <trkpt lat="43.7075" lon="6.1982">
        <ele>582.40002441406</ele>
        <time>2019-10-12T11:01:57Z</time>
      </trkpt>
      <trkpt lat="43.70721" lon="6.19843">
        <ele>584.20001220703</ele>
        <time>2019-10-12T11:02:09Z</time>
      </trkpt>
      <trkpt lat="43.70698" lon="6.19861">
        <ele>585.79998779297</ele>
        <time>2019-10-12T11:02:20Z</time>
      </trkpt>
      <trkpt lat="43.70672" lon="6.19882">
        <ele>587.40002441406</ele>
        <time>2019-10-12T11:02:31Z</time>
      </trkpt>
      <trkpt lat="43.70644" lon="6.19904">
        <ele>588.59997558594</ele>
        <time>2019-10-12T11:02:43Z</time>
      </trkpt>
      <trkpt lat="43.70621" lon="6.19922">
        <ele>590</ele>
        <time>2019-10-12T11:02:54Z</time>
      </trkpt>
      <trkpt lat="43.7058" lon="6.19955">
        <ele>592</ele>
        <time>2019-10-12T11:03:11Z</time>
      </trkpt>
      <trkpt lat="43.70561" lon="6.1997">
        <ele>592.79998779297</ele>
        <time>2019-10-12T11:03:18Z</time>
      </trkpt>
      <trkpt lat="43.70519" lon="6.19998">
        <ele>595.20001220703</ele>
        <time>2019-10-12T11:03:34Z</time>
      </trkpt>
      <trkpt lat="43.70495" lon="6.20005">
        <ele>596.20001220703</ele>
        <time>2019-10-12T11:03:42Z</time>
      </trkpt>
      <trkpt lat="43.70446" lon="6.19996">
        <ele>598.20001220703</ele>
        <time>2019-10-12T11:03:57Z</time>
      </trkpt>
      <trkpt lat="43.70429" lon="6.19986">
        <ele>599.20001220703</ele>
        <time>2019-10-12T11:04:03Z</time>
      </trkpt>
      <trkpt lat="43.70411" lon="6.19973">
        <ele>600.20001220703</ele>
        <time>2019-10-12T11:04:10Z</time>
      </trkpt>
      <trkpt lat="43.70344" lon="6.1994">
        <ele>603.79998779297</ele>
        <time>2019-10-12T11:04:35Z</time>
      </trkpt>
      <trkpt lat="43.70328" lon="6.19936">
        <ele>604.59997558594</ele>
        <time>2019-10-12T11:04:41Z</time>
      </trkpt>
      <trkpt lat="43.70288" lon="6.19933">
        <ele>606.79998779297</ele>
        <time>2019-10-12T11:04:56Z</time>
      </trkpt>
      <trkpt lat="43.70251" lon="6.1994">
        <ele>608.79998779297</ele>
        <time>2019-10-12T11:05:09Z</time>
      </trkpt>
      <trkpt lat="43.70213" lon="6.1995">
        <ele>610.79998779297</ele>
        <time>2019-10-12T11:05:23Z</time>
      </trkpt>
      <trkpt lat="43.7019" lon="6.19956">
        <ele>612.59997558594</ele>
        <time>2019-10-12T11:05:32Z</time>
      </trkpt>
      <trkpt lat="43.70138" lon="6.19964">
        <ele>615.20001220703</ele>
        <time>2019-10-12T11:05:52Z</time>
      </trkpt>
      <trkpt lat="43.70121" lon="6.19962">
        <ele>616.20001220703</ele>
        <time>2019-10-12T11:05:58Z</time>
      </trkpt>
      <trkpt lat="43.70051" lon="6.19949">
        <ele>620.20001220703</ele>
        <time>2019-10-12T11:06:22Z</time>
      </trkpt>
      <trkpt lat="43.70035" lon="6.19947">
        <ele>621</ele>
        <time>2019-10-12T11:06:28Z</time>
      </trkpt>
      <trkpt lat="43.7" lon="6.1994">
        <ele>622.79998779297</ele>
        <time>2019-10-12T11:06:41Z</time>
      </trkpt>
      <trkpt lat="43.69973" lon="6.19939">
        <ele>624.59997558594</ele>
        <time>2019-10-12T11:06:52Z</time>
      </trkpt>
      <trkpt lat="43.69953" lon="6.19942">
        <ele>626</ele>
        <time>2019-10-12T11:07:00Z</time>
      </trkpt>
      <trkpt lat="43.69923" lon="6.1995">
        <ele>628.59997558594</ele>
        <time>2019-10-12T11:07:13Z</time>
      </trkpt>
      <trkpt lat="43.69908" lon="6.19955">
        <ele>629.59997558594</ele>
        <time>2019-10-12T11:07:19Z</time>
      </trkpt>
      <trkpt lat="43.69873" lon="6.19966">
        <ele>631.59997558594</ele>
        <time>2019-10-12T11:07:34Z</time>
      </trkpt>
      <trkpt lat="43.6985" lon="6.19974">
        <ele>633.40002441406</ele>
        <time>2019-10-12T11:07:43Z</time>
      </trkpt>
      <trkpt lat="43.69813" lon="6.19987">
        <ele>636</ele>
        <time>2019-10-12T11:07:59Z</time>
      </trkpt>
      <trkpt lat="43.69793" lon="6.19993">
        <ele>637.40002441406</ele>
        <time>2019-10-12T11:08:09Z</time>
      </trkpt>
      <trkpt lat="43.69762" lon="6.20004">
        <ele>639</ele>
        <time>2019-10-12T11:08:22Z</time>
      </trkpt>
      <trkpt lat="43.69746" lon="6.20009">
        <ele>640.40002441406</ele>
        <time>2019-10-12T11:08:30Z</time>
      </trkpt>
      <trkpt lat="43.69718" lon="6.20019">
        <ele>642.40002441406</ele>
        <time>2019-10-12T11:08:42Z</time>
      </trkpt>
      <trkpt lat="43.69685" lon="6.2003">
        <ele>645</ele>
        <time>2019-10-12T11:08:56Z</time>
      </trkpt>
      <trkpt lat="43.69661" lon="6.20038">
        <ele>646.20001220703</ele>
        <time>2019-10-12T11:09:06Z</time>
      </trkpt>
      <trkpt lat="43.69645" lon="6.20043">
        <ele>647.20001220703</ele>
        <time>2019-10-12T11:09:13Z</time>
      </trkpt>
      <trkpt lat="43.69626" lon="6.2005">
        <ele>648.59997558594</ele>
        <time>2019-10-12T11:09:22Z</time>
      </trkpt>
      <trkpt lat="43.69593" lon="6.20061">
        <ele>651.20001220703</ele>
        <time>2019-10-12T11:09:36Z</time>
      </trkpt>
      <trkpt lat="43.69566" lon="6.2007">
        <ele>653.20001220703</ele>
        <time>2019-10-12T11:09:48Z</time>
      </trkpt>
      <trkpt lat="43.69532" lon="6.20081">
        <ele>655.40002441406</ele>
        <time>2019-10-12T11:10:03Z</time>
      </trkpt>
      <trkpt lat="43.69513" lon="6.20087">
        <ele>656.59997558594</ele>
        <time>2019-10-12T11:10:11Z</time>
      </trkpt>
      <trkpt lat="43.69488" lon="6.20097">
        <ele>658.20001220703</ele>
        <time>2019-10-12T11:10:23Z</time>
      </trkpt>
      <trkpt lat="43.69468" lon="6.20107">
        <ele>659.79998779297</ele>
        <time>2019-10-12T11:10:33Z</time>
      </trkpt>
      <trkpt lat="43.69435" lon="6.20125">
        <ele>661.79998779297</ele>
        <time>2019-10-12T11:10:48Z</time>
      </trkpt>
      <trkpt lat="43.69419" lon="6.20137">
        <ele>663</ele>
        <time>2019-10-12T11:10:55Z</time>
      </trkpt>
      <trkpt lat="43.69393" lon="6.20155">
        <ele>665.20001220703</ele>
        <time>2019-10-12T11:11:08Z</time>
      </trkpt>
      <trkpt lat="43.69379" lon="6.20166">
        <ele>666.20001220703</ele>
        <time>2019-10-12T11:11:16Z</time>
      </trkpt>
      <trkpt lat="43.69336" lon="6.202">
        <ele>669.20001220703</ele>
        <time>2019-10-12T11:11:35Z</time>
      </trkpt>
      <trkpt lat="43.69314" lon="6.20218">
        <ele>670.40002441406</ele>
        <time>2019-10-12T11:11:45Z</time>
      </trkpt>
      <trkpt lat="43.69293" lon="6.20237">
        <ele>672</ele>
        <time>2019-10-12T11:11:56Z</time>
      </trkpt>
      <trkpt lat="43.69273" lon="6.20253">
        <ele>673</ele>
        <time>2019-10-12T11:12:05Z</time>
      </trkpt>
      <trkpt lat="43.6926" lon="6.20265">
        <ele>674.20001220703</ele>
        <time>2019-10-12T11:12:12Z</time>
      </trkpt>
      <trkpt lat="43.69223" lon="6.20296">
        <ele>676.59997558594</ele>
        <time>2019-10-12T11:12:32Z</time>
      </trkpt>
      <trkpt lat="43.69207" lon="6.2031">
        <ele>677.79998779297</ele>
        <time>2019-10-12T11:12:40Z</time>
      </trkpt>
      <trkpt lat="43.69182" lon="6.20331">
        <ele>679.79998779297</ele>
        <time>2019-10-12T11:12:51Z</time>
      </trkpt>
      <trkpt lat="43.69165" lon="6.20346">
        <ele>681</ele>
        <time>2019-10-12T11:13:00Z</time>
      </trkpt>
      <trkpt lat="43.69143" lon="6.20373">
        <ele>682.40002441406</ele>
        <time>2019-10-12T11:13:11Z</time>
      </trkpt>
      <trkpt lat="43.69129" lon="6.2039">
        <ele>683.20001220703</ele>
        <time>2019-10-12T11:13:19Z</time>
      </trkpt>
      <trkpt lat="43.69113" lon="6.20413">
        <ele>684.40002441406</ele>
        <time>2019-10-12T11:13:28Z</time>
      </trkpt>
      <trkpt lat="43.69096" lon="6.20437">
        <ele>686.40002441406</ele>
        <time>2019-10-12T11:13:38Z</time>
      </trkpt>
      <trkpt lat="43.6908" lon="6.2046">
        <ele>687.40002441406</ele>
        <time>2019-10-12T11:13:47Z</time>
      </trkpt>
      <trkpt lat="43.69068" lon="6.20477">
        <ele>688.79998779297</ele>
        <time>2019-10-12T11:13:55Z</time>
      </trkpt>
      <trkpt lat="43.69033" lon="6.20526">
        <ele>691.79998779297</ele>
        <time>2019-10-12T11:14:14Z</time>
      </trkpt>
      <trkpt lat="43.6902" lon="6.20544">
        <ele>692.79998779297</ele>
        <time>2019-10-12T11:14:20Z</time>
      </trkpt>
      <trkpt lat="43.69001" lon="6.20571">
        <ele>695.20001220703</ele>
        <time>2019-10-12T11:14:30Z</time>
      </trkpt>
      <trkpt lat="43.6898" lon="6.206">
        <ele>697</ele>
        <time>2019-10-12T11:14:42Z</time>
      </trkpt>
      <trkpt lat="43.68966" lon="6.20619">
        <ele>698.40002441406</ele>
        <time>2019-10-12T11:14:50Z</time>
      </trkpt>
      <trkpt lat="43.68943" lon="6.20652">
        <ele>700.40002441406</ele>
        <time>2019-10-12T11:15:02Z</time>
      </trkpt>
      <trkpt lat="43.68924" lon="6.20679">
        <ele>701.59997558594</ele>
        <time>2019-10-12T11:15:11Z</time>
      </trkpt>
      <trkpt lat="43.68904" lon="6.20707">
        <ele>702.40002441406</ele>
        <time>2019-10-12T11:15:21Z</time>
      </trkpt>
      <trkpt lat="43.68891" lon="6.20725">
        <ele>703</ele>
        <time>2019-10-12T11:15:27Z</time>
      </trkpt>
      <trkpt lat="43.68876" lon="6.20745">
        <ele>703.20001220703</ele>
        <time>2019-10-12T11:15:33Z</time>
      </trkpt>
      <trkpt lat="43.68865" lon="6.20762">
        <ele>703.20001220703</ele>
        <time>2019-10-12T11:15:39Z</time>
      </trkpt>
      <trkpt lat="43.68844" lon="6.20792">
        <ele>703.20001220703</ele>
        <time>2019-10-12T11:15:46Z</time>
      </trkpt>
      <trkpt lat="43.68825" lon="6.20818">
        <ele>702.59997558594</ele>
        <time>2019-10-12T11:15:51Z</time>
      </trkpt>
      <trkpt lat="43.6879" lon="6.20866">
        <ele>701.40002441406</ele>
        <time>2019-10-12T11:16:00Z</time>
      </trkpt>
      <trkpt lat="43.68768" lon="6.20897">
        <ele>700.20001220703</ele>
        <time>2019-10-12T11:16:05Z</time>
      </trkpt>
      <trkpt lat="43.68748" lon="6.20924">
        <ele>699.79998779297</ele>
        <time>2019-10-12T11:16:09Z</time>
      </trkpt>
      <trkpt lat="43.68688" lon="6.21006">
        <ele>697.59997558594</ele>
        <time>2019-10-12T11:16:22Z</time>
      </trkpt>
      <trkpt lat="43.68677" lon="6.21022">
        <ele>697.40002441406</ele>
        <time>2019-10-12T11:16:25Z</time>
      </trkpt>
      <trkpt lat="43.68635" lon="6.21079">
        <ele>696.40002441406</ele>
        <time>2019-10-12T11:16:35Z</time>
      </trkpt>
      <trkpt lat="43.68616" lon="6.21108">
        <ele>696.40002441406</ele>
        <time>2019-10-12T11:16:40Z</time>
      </trkpt>
      <trkpt lat="43.6857" lon="6.21182">
        <ele>696</ele>
        <time>2019-10-12T11:16:51Z</time>
      </trkpt>
      <trkpt lat="43.68518" lon="6.2126">
        <ele>695.40002441406</ele>
        <time>2019-10-12T11:17:04Z</time>
      </trkpt>
      <trkpt lat="43.68464" lon="6.21324">
        <ele>694.79998779297</ele>
        <time>2019-10-12T11:17:15Z</time>
      </trkpt>
      <trkpt lat="43.68418" lon="6.21379">
        <ele>693.40002441406</ele>
        <time>2019-10-12T11:17:24Z</time>
      </trkpt>
      <trkpt lat="43.68349" lon="6.21472">
        <ele>692</ele>
        <time>2019-10-12T11:17:38Z</time>
      </trkpt>
      <trkpt lat="43.68284" lon="6.2157">
        <ele>689.79998779297</ele>
        <time>2019-10-12T11:17:51Z</time>
      </trkpt>
      <trkpt lat="43.68221" lon="6.21665">
        <ele>687.79998779297</ele>
        <time>2019-10-12T11:18:04Z</time>
      </trkpt>
      <trkpt lat="43.68175" lon="6.21737">
        <ele>687.40002441406</ele>
        <time>2019-10-12T11:18:15Z</time>
      </trkpt>
      <trkpt lat="43.68139" lon="6.21807">
        <ele>688</ele>
        <time>2019-10-12T11:18:27Z</time>
      </trkpt>
      <trkpt lat="43.68117" lon="6.21851">
        <ele>688.59997558594</ele>
        <time>2019-10-12T11:18:36Z</time>
      </trkpt>
      <trkpt lat="43.68103" lon="6.21878">
        <ele>689.40002441406</ele>
        <time>2019-10-12T11:18:43Z</time>
      </trkpt>
      <trkpt lat="43.68075" lon="6.21934">
        <ele>691.79998779297</ele>
        <time>2019-10-12T11:18:59Z</time>
      </trkpt>
      <trkpt lat="43.68055" lon="6.21976">
        <ele>694.59997558594</ele>
        <time>2019-10-12T11:19:12Z</time>
      </trkpt>
      <trkpt lat="43.68037" lon="6.22009">
        <ele>695.79998779297</ele>
        <time>2019-10-12T11:19:23Z</time>
      </trkpt>
      <trkpt lat="43.68012" lon="6.22044">
        <ele>697.59997558594</ele>
        <time>2019-10-12T11:19:35Z</time>
      </trkpt>
      <trkpt lat="43.67971" lon="6.22095">
        <ele>699.40002441406</ele>
        <time>2019-10-12T11:19:53Z</time>
      </trkpt>
      <trkpt lat="43.67958" lon="6.22111">
        <ele>699.59997558594</ele>
        <time>2019-10-12T11:19:57Z</time>
      </trkpt>
      <trkpt lat="43.67914" lon="6.22163">
        <ele>700.40002441406</ele>
        <time>2019-10-12T11:20:12Z</time>
      </trkpt>
      <trkpt lat="43.67866" lon="6.2222">
        <ele>701</ele>
        <time>2019-10-12T11:20:25Z</time>
      </trkpt>
      <trkpt lat="43.67829" lon="6.22288">
        <ele>701.40002441406</ele>
        <time>2019-10-12T11:20:39Z</time>
      </trkpt>
      <trkpt lat="43.6781" lon="6.223">
        <ele>701.20001220703</ele>
        <time>2019-10-12T11:20:43Z</time>
      </trkpt>
      <trkpt lat="43.67743" lon="6.22367">
        <ele>703.40002441406</ele>
        <time>2019-10-12T11:21:06Z</time>
      </trkpt>
      <trkpt lat="43.67705" lon="6.22412">
        <ele>704.59997558594</ele>
        <time>2019-10-12T11:21:19Z</time>
      </trkpt>
      <trkpt lat="43.67686" lon="6.22433">
        <ele>704.79998779297</ele>
        <time>2019-10-12T11:21:26Z</time>
      </trkpt>
      <trkpt lat="43.67664" lon="6.22486">
        <ele>707</ele>
        <time>2019-10-12T11:21:42Z</time>
      </trkpt>
      <trkpt lat="43.67639" lon="6.22522">
        <ele>707.20001220703</ele>
        <time>2019-10-12T11:21:51Z</time>
      </trkpt>
      <trkpt lat="43.67588" lon="6.22595">
        <ele>709.79998779297</ele>
        <time>2019-10-12T11:22:11Z</time>
      </trkpt>
      <trkpt lat="43.67556" lon="6.2264">
        <ele>710.79998779297</ele>
        <time>2019-10-12T11:22:23Z</time>
      </trkpt>
      <trkpt lat="43.6753" lon="6.22677">
        <ele>711.59997558594</ele>
        <time>2019-10-12T11:22:33Z</time>
      </trkpt>
      <trkpt lat="43.67486" lon="6.2274">
        <ele>711.79998779297</ele>
        <time>2019-10-12T11:22:47Z</time>
      </trkpt>
      <trkpt lat="43.67424" lon="6.22828">
        <ele>712.79998779297</ele>
        <time>2019-10-12T11:23:07Z</time>
      </trkpt>
      <trkpt lat="43.67405" lon="6.22856">
        <ele>713.40002441406</ele>
        <time>2019-10-12T11:23:14Z</time>
      </trkpt>
      <trkpt lat="43.67354" lon="6.22929">
        <ele>716.20001220703</ele>
        <time>2019-10-12T11:23:34Z</time>
      </trkpt>
      <trkpt lat="43.6732" lon="6.22977">
        <ele>717.20001220703</ele>
        <time>2019-10-12T11:23:46Z</time>
      </trkpt>
      <trkpt lat="43.67267" lon="6.23051">
        <ele>717.79998779297</ele>
        <time>2019-10-12T11:24:02Z</time>
      </trkpt>
      <trkpt lat="43.67237" lon="6.23095">
        <ele>718</ele>
        <time>2019-10-12T11:24:12Z</time>
      </trkpt>
      <trkpt lat="43.67214" lon="6.23128">
        <ele>718.79998779297</ele>
        <time>2019-10-12T11:24:21Z</time>
      </trkpt>
      <trkpt lat="43.67173" lon="6.23189">
        <ele>721.79998779297</ele>
        <time>2019-10-12T11:24:39Z</time>
      </trkpt>
      <trkpt lat="43.67153" lon="6.23218">
        <ele>723.20001220703</ele>
        <time>2019-10-12T11:24:48Z</time>
      </trkpt>
      <trkpt lat="43.67115" lon="6.23272">
        <ele>724.79998779297</ele>
        <time>2019-10-12T11:25:03Z</time>
      </trkpt>
      <trkpt lat="43.67083" lon="6.23318">
        <ele>725.79998779297</ele>
        <time>2019-10-12T11:25:15Z</time>
      </trkpt>
      <trkpt lat="43.67046" lon="6.2337">
        <ele>727</ele>
        <time>2019-10-12T11:25:29Z</time>
      </trkpt>
      <trkpt lat="43.66992" lon="6.23446">
        <ele>728.40002441406</ele>
        <time>2019-10-12T11:25:48Z</time>
      </trkpt>
      <trkpt lat="43.66947" lon="6.2351">
        <ele>728.79998779297</ele>
        <time>2019-10-12T11:26:02Z</time>
      </trkpt>
      <trkpt lat="43.66905" lon="6.23569">
        <ele>728.59997558594</ele>
        <time>2019-10-12T11:26:14Z</time>
      </trkpt>
      <trkpt lat="43.66874" lon="6.23614">
        <ele>729.20001220703</ele>
        <time>2019-10-12T11:26:25Z</time>
      </trkpt>
      <trkpt lat="43.6685" lon="6.23647">
        <ele>731</ele>
        <time>2019-10-12T11:26:35Z</time>
      </trkpt>
      <trkpt lat="43.66824" lon="6.23673">
        <ele>732.59997558594</ele>
        <time>2019-10-12T11:26:45Z</time>
      </trkpt>
      <trkpt lat="43.66791" lon="6.23685">
        <ele>733.79998779297</ele>
        <time>2019-10-12T11:26:54Z</time>
      </trkpt>
      <trkpt lat="43.6675" lon="6.23694">
        <ele>735.59997558594</ele>
        <time>2019-10-12T11:27:06Z</time>
      </trkpt>
      <trkpt lat="43.66695" lon="6.23723">
        <ele>737.20001220703</ele>
        <time>2019-10-12T11:27:23Z</time>
      </trkpt>
      <trkpt lat="43.6668" lon="6.23738">
        <ele>737.59997558594</ele>
        <time>2019-10-12T11:27:28Z</time>
      </trkpt>
      <trkpt lat="43.66652" lon="6.23753">
        <ele>738.40002441406</ele>
        <time>2019-10-12T11:27:38Z</time>
      </trkpt>
      <trkpt lat="43.66644" lon="6.23776">
        <ele>739</ele>
        <time>2019-10-12T11:27:45Z</time>
      </trkpt>
      <trkpt lat="43.66636" lon="6.23839">
        <ele>739.20001220703</ele>
        <time>2019-10-12T11:27:56Z</time>
      </trkpt>
      <trkpt lat="43.66633" lon="6.23884">
        <ele>739.40002441406</ele>
        <time>2019-10-12T11:28:05Z</time>
      </trkpt>
      <trkpt lat="43.66631" lon="6.23949">
        <ele>741</ele>
        <time>2019-10-12T11:28:18Z</time>
      </trkpt>
      <trkpt lat="43.66616" lon="6.24023">
        <ele>742.20001220703</ele>
        <time>2019-10-12T11:28:34Z</time>
      </trkpt>
      <trkpt lat="43.66601" lon="6.24059">
        <ele>743.20001220703</ele>
        <time>2019-10-12T11:28:45Z</time>
      </trkpt>
      <trkpt lat="43.66592" lon="6.24088">
        <ele>744.40002441406</ele>
        <time>2019-10-12T11:28:53Z</time>
      </trkpt>
      <trkpt lat="43.66576" lon="6.24146">
        <ele>746.59997558594</ele>
        <time>2019-10-12T11:29:10Z</time>
      </trkpt>
      <trkpt lat="43.66569" lon="6.24174">
        <ele>747.59997558594</ele>
        <time>2019-10-12T11:29:18Z</time>
      </trkpt>
      <trkpt lat="43.66564" lon="6.24193">
        <ele>749</ele>
        <time>2019-10-12T11:29:58Z</time>
      </trkpt>
      <trkpt lat="43.6656" lon="6.2421">
        <ele>749</ele>
        <time>2019-10-12T11:30:03Z</time>
      </trkpt>
      <trkpt lat="43.66554" lon="6.24234">
        <ele>749.79998779297</ele>
        <time>2019-10-12T11:30:09Z</time>
      </trkpt>
      <trkpt lat="43.66544" lon="6.24272">
        <ele>751</ele>
        <time>2019-10-12T11:30:19Z</time>
      </trkpt>
      <trkpt lat="43.6654" lon="6.24287">
        <ele>752</ele>
        <time>2019-10-12T11:30:23Z</time>
      </trkpt>
      <trkpt lat="43.66529" lon="6.24331">
        <ele>753.79998779297</ele>
        <time>2019-10-12T11:30:37Z</time>
      </trkpt>
      <trkpt lat="43.66518" lon="6.24364">
        <ele>755.20001220703</ele>
        <time>2019-10-12T11:30:47Z</time>
      </trkpt>
      <trkpt lat="43.66497" lon="6.24398">
        <ele>756.40002441406</ele>
        <time>2019-10-12T11:30:59Z</time>
      </trkpt>
      <trkpt lat="43.66484" lon="6.24424">
        <ele>757.59997558594</ele>
        <time>2019-10-12T11:31:07Z</time>
      </trkpt>
      <trkpt lat="43.66479" lon="6.24475">
        <ele>759.59997558594</ele>
        <time>2019-10-12T11:31:20Z</time>
      </trkpt>
      <trkpt lat="43.66474" lon="6.24517">
        <ele>760.59997558594</ele>
        <time>2019-10-12T11:31:31Z</time>
      </trkpt>
      <trkpt lat="43.66452" lon="6.24564">
        <ele>761.79998779297</ele>
        <time>2019-10-12T11:31:45Z</time>
      </trkpt>
      <trkpt lat="43.66436" lon="6.246">
        <ele>763.20001220703</ele>
        <time>2019-10-12T11:31:56Z</time>
      </trkpt>
      <trkpt lat="43.6641" lon="6.24644">
        <ele>764.59997558594</ele>
        <time>2019-10-12T11:32:10Z</time>
      </trkpt>
      <trkpt lat="43.66397" lon="6.24656">
        <ele>765.20001220703</ele>
        <time>2019-10-12T11:32:15Z</time>
      </trkpt>
      <trkpt lat="43.66374" lon="6.24684">
        <ele>766.20001220703</ele>
        <time>2019-10-12T11:32:26Z</time>
      </trkpt>
      <trkpt lat="43.66352" lon="6.24728">
        <ele>767.20001220703</ele>
        <time>2019-10-12T11:32:37Z</time>
      </trkpt>
      <trkpt lat="43.66331" lon="6.24762">
        <ele>768</ele>
        <time>2019-10-12T11:32:46Z</time>
      </trkpt>
      <trkpt lat="43.66306" lon="6.24834">
        <ele>769.40002441406</ele>
        <time>2019-10-12T11:33:01Z</time>
      </trkpt>
      <trkpt lat="43.66292" lon="6.24864">
        <ele>769.79998779297</ele>
        <time>2019-10-12T11:33:08Z</time>
      </trkpt>
      <trkpt lat="43.66239" lon="6.24959">
        <ele>772.40002441406</ele>
        <time>2019-10-12T11:33:30Z</time>
      </trkpt>
      <trkpt lat="43.66226" lon="6.25006">
        <ele>773.20001220703</ele>
        <time>2019-10-12T11:33:40Z</time>
      </trkpt>
      <trkpt lat="43.6621" lon="6.25065">
        <ele>774.40002441406</ele>
        <time>2019-10-12T11:33:53Z</time>
      </trkpt>
      <trkpt lat="43.66199" lon="6.2513">
        <ele>776.59997558594</ele>
        <time>2019-10-12T11:34:09Z</time>
      </trkpt>
      <trkpt lat="43.662" lon="6.25199">
        <ele>778.79998779297</ele>
        <time>2019-10-12T11:34:26Z</time>
      </trkpt>
      <trkpt lat="43.66191" lon="6.25241">
        <ele>779.79998779297</ele>
        <time>2019-10-12T11:34:37Z</time>
      </trkpt>
      <trkpt lat="43.66186" lon="6.25311">
        <ele>782</ele>
        <time>2019-10-12T11:34:53Z</time>
      </trkpt>
      <trkpt lat="43.66188" lon="6.25356">
        <ele>783.40002441406</ele>
        <time>2019-10-12T11:35:03Z</time>
      </trkpt>
      <trkpt lat="43.66186" lon="6.25402">
        <ele>784.40002441406</ele>
        <time>2019-10-12T11:35:14Z</time>
      </trkpt>
      <trkpt lat="43.66174" lon="6.25464">
        <ele>785.40002441406</ele>
        <time>2019-10-12T11:35:28Z</time>
      </trkpt>
      <trkpt lat="43.6616" lon="6.25511">
        <ele>786.40002441406</ele>
        <time>2019-10-12T11:35:38Z</time>
      </trkpt>
      <trkpt lat="43.66151" lon="6.25583">
        <ele>788</ele>
        <time>2019-10-12T11:35:53Z</time>
      </trkpt>
      <trkpt lat="43.66142" lon="6.25607">
        <ele>788</ele>
        <time>2019-10-12T11:35:59Z</time>
      </trkpt>
      <trkpt lat="43.66116" lon="6.25666">
        <ele>790.59997558594</ele>
        <time>2019-10-12T11:36:15Z</time>
      </trkpt>
      <trkpt lat="43.66107" lon="6.257">
        <ele>791.59997558594</ele>
        <time>2019-10-12T11:36:24Z</time>
      </trkpt>
      <trkpt lat="43.66087" lon="6.25775">
        <ele>794</ele>
        <time>2019-10-12T11:36:43Z</time>
      </trkpt>
      <trkpt lat="43.66078" lon="6.25805">
        <ele>794.79998779297</ele>
        <time>2019-10-12T11:36:51Z</time>
      </trkpt>
      <trkpt lat="43.66052" lon="6.25863">
        <ele>796.59997558594</ele>
        <time>2019-10-12T11:37:07Z</time>
      </trkpt>
      <trkpt lat="43.6604" lon="6.25885">
        <ele>797.20001220703</ele>
        <time>2019-10-12T11:37:13Z</time>
      </trkpt>
      <trkpt lat="43.66023" lon="6.2593">
        <ele>798.79998779297</ele>
        <time>2019-10-12T11:37:24Z</time>
      </trkpt>
      <trkpt lat="43.66012" lon="6.25965">
        <ele>799</ele>
        <time>2019-10-12T11:37:32Z</time>
      </trkpt>
      <trkpt lat="43.65996" lon="6.26026">
        <ele>800.59997558594</ele>
        <time>2019-10-12T11:37:45Z</time>
      </trkpt>
      <trkpt lat="43.65985" lon="6.26119">
        <ele>801.59997558594</ele>
        <time>2019-10-12T11:38:03Z</time>
      </trkpt>
      <trkpt lat="43.65975" lon="6.26162">
        <ele>802.59997558594</ele>
        <time>2019-10-12T11:38:13Z</time>
      </trkpt>
      <trkpt lat="43.65949" lon="6.26212">
        <ele>803.20001220703</ele>
        <time>2019-10-12T11:38:24Z</time>
      </trkpt>
      <trkpt lat="43.65921" lon="6.2626">
        <ele>803.40002441406</ele>
        <time>2019-10-12T11:38:34Z</time>
      </trkpt>
      <trkpt lat="43.65895" lon="6.26303">
        <ele>804.79998779297</ele>
        <time>2019-10-12T11:38:47Z</time>
      </trkpt>
      <trkpt lat="43.65883" lon="6.26322">
        <ele>806</ele>
        <time>2019-10-12T11:38:55Z</time>
      </trkpt>
      <trkpt lat="43.65864" lon="6.26353">
        <ele>807.40002441406</ele>
        <time>2019-10-12T11:39:05Z</time>
      </trkpt>
      <trkpt lat="43.65852" lon="6.26371">
        <ele>808.20001220703</ele>
        <time>2019-10-12T11:39:11Z</time>
      </trkpt>
      <trkpt lat="43.65827" lon="6.26412">
        <ele>810.40002441406</ele>
        <time>2019-10-12T11:39:25Z</time>
      </trkpt>
      <trkpt lat="43.65819" lon="6.26425">
        <ele>811.40002441406</ele>
        <time>2019-10-12T11:39:30Z</time>
      </trkpt>
      <trkpt lat="43.65804" lon="6.26448">
        <ele>813</ele>
        <time>2019-10-12T11:39:38Z</time>
      </trkpt>
      <trkpt lat="43.65787" lon="6.26476">
        <ele>814.79998779297</ele>
        <time>2019-10-12T11:39:48Z</time>
      </trkpt>
      <trkpt lat="43.65766" lon="6.26509">
        <ele>816.40002441406</ele>
        <time>2019-10-12T11:39:59Z</time>
      </trkpt>
      <trkpt lat="43.65737" lon="6.26553">
        <ele>818</ele>
        <time>2019-10-12T11:40:12Z</time>
      </trkpt>
      <trkpt lat="43.65725" lon="6.26572">
        <ele>818.40002441406</ele>
        <time>2019-10-12T11:40:17Z</time>
      </trkpt>
      <trkpt lat="43.65695" lon="6.26618">
        <ele>819.40002441406</ele>
        <time>2019-10-12T11:40:29Z</time>
      </trkpt>
      <trkpt lat="43.65671" lon="6.26654">
        <ele>819.40002441406</ele>
        <time>2019-10-12T11:40:38Z</time>
      </trkpt>
      <trkpt lat="43.65624" lon="6.26715">
        <ele>820.40002441406</ele>
        <time>2019-10-12T11:40:54Z</time>
      </trkpt>
      <trkpt lat="43.65596" lon="6.26767">
        <ele>821.20001220703</ele>
        <time>2019-10-12T11:41:05Z</time>
      </trkpt>
      <trkpt lat="43.65565" lon="6.26836">
        <ele>822</ele>
        <time>2019-10-12T11:41:19Z</time>
      </trkpt>
      <trkpt lat="43.65553" lon="6.26863">
        <ele>822.79998779297</ele>
        <time>2019-10-12T11:41:25Z</time>
      </trkpt>
      <trkpt lat="43.65534" lon="6.26906">
        <ele>824.79998779297</ele>
        <time>2019-10-12T11:41:38Z</time>
      </trkpt>
      <trkpt lat="43.65522" lon="6.26931">
        <ele>826.40002441406</ele>
        <time>2019-10-12T11:41:47Z</time>
      </trkpt>
      <trkpt lat="43.65503" lon="6.26974">
        <ele>828.20001220703</ele>
        <time>2019-10-12T11:42:00Z</time>
      </trkpt>
      <trkpt lat="43.65491" lon="6.27">
        <ele>828.79998779297</ele>
        <time>2019-10-12T11:42:07Z</time>
      </trkpt>
      <trkpt lat="43.65467" lon="6.27051">
        <ele>831</ele>
        <time>2019-10-12T11:42:24Z</time>
      </trkpt>
      <trkpt lat="43.65455" lon="6.27081">
        <ele>832.79998779297</ele>
        <time>2019-10-12T11:42:33Z</time>
      </trkpt>
      <trkpt lat="43.65443" lon="6.2711">
        <ele>833.79998779297</ele>
        <time>2019-10-12T11:42:43Z</time>
      </trkpt>
      <trkpt lat="43.65434" lon="6.27138">
        <ele>835</ele>
        <time>2019-10-12T11:42:53Z</time>
      </trkpt>
      <trkpt lat="43.65424" lon="6.27165">
        <ele>836</ele>
        <time>2019-10-12T11:42:59Z</time>
      </trkpt>
      <trkpt lat="43.65403" lon="6.27226">
        <ele>839.40002441406</ele>
        <time>2019-10-12T11:43:16Z</time>
      </trkpt>
      <trkpt lat="43.65395" lon="6.27251">
        <ele>840.40002441406</ele>
        <time>2019-10-12T11:43:23Z</time>
      </trkpt>
      <trkpt lat="43.65381" lon="6.27294">
        <ele>842.59997558594</ele>
        <time>2019-10-12T11:43:35Z</time>
      </trkpt>
      <trkpt lat="43.65367" lon="6.27332">
        <ele>844.40002441406</ele>
        <time>2019-10-12T11:43:45Z</time>
      </trkpt>
      <trkpt lat="43.65343" lon="6.27383">
        <ele>845.79998779297</ele>
        <time>2019-10-12T11:44:00Z</time>
      </trkpt>
      <trkpt lat="43.65326" lon="6.27406">
        <ele>846.20001220703</ele>
        <time>2019-10-12T11:44:05Z</time>
      </trkpt>
      <trkpt lat="43.65287" lon="6.27442">
        <ele>846.40002441406</ele>
        <time>2019-10-12T11:44:16Z</time>
      </trkpt>
      <trkpt lat="43.65249" lon="6.27478">
        <ele>846.40002441406</ele>
        <time>2019-10-12T11:44:25Z</time>
      </trkpt>
      <trkpt lat="43.65177" lon="6.27544">
        <ele>846.40002441406</ele>
        <time>2019-10-12T11:44:42Z</time>
      </trkpt>
      <trkpt lat="43.65117" lon="6.27616">
        <ele>846.59997558594</ele>
        <time>2019-10-12T11:44:56Z</time>
      </trkpt>
      <trkpt lat="43.65096" lon="6.27638">
        <ele>846.59997558594</ele>
        <time>2019-10-12T11:45:01Z</time>
      </trkpt>
      <trkpt lat="43.65015" lon="6.27771">
        <ele>846.79998779297</ele>
        <time>2019-10-12T11:45:23Z</time>
      </trkpt>
      <trkpt lat="43.64966" lon="6.27842">
        <ele>846.79998779297</ele>
        <time>2019-10-12T11:45:36Z</time>
      </trkpt>
      <trkpt lat="43.64936" lon="6.27848">
        <ele>846.59997558594</ele>
        <time>2019-10-12T11:45:41Z</time>
      </trkpt>
      <trkpt lat="43.64928" lon="6.27858">
        <ele>846.59997558594</ele>
        <time>2019-10-12T11:45:43Z</time>
      </trkpt>
      <trkpt lat="43.64923" lon="6.27893">
        <ele>846.59997558594</ele>
        <time>2019-10-12T11:45:49Z</time>
      </trkpt>
      <trkpt lat="43.64917" lon="6.27916">
        <ele>846.79998779297</ele>
        <time>2019-10-12T11:45:52Z</time>
      </trkpt>
      <trkpt lat="43.64899" lon="6.27943">
        <ele>846.59997558594</ele>
        <time>2019-10-12T11:45:57Z</time>
      </trkpt>
      <trkpt lat="43.64837" lon="6.28014">
        <ele>846.20001220703</ele>
        <time>2019-10-12T11:46:11Z</time>
      </trkpt>
      <trkpt lat="43.64767" lon="6.28082">
        <ele>845.40002441406</ele>
        <time>2019-10-12T11:46:27Z</time>
      </trkpt>
      <trkpt lat="43.64728" lon="6.28122">
        <ele>844.79998779297</ele>
        <time>2019-10-12T11:46:35Z</time>
      </trkpt>
      <trkpt lat="43.64688" lon="6.28182">
        <ele>844.20001220703</ele>
        <time>2019-10-12T11:46:45Z</time>
      </trkpt>
      <trkpt lat="43.64678" lon="6.28204">
        <ele>843.79998779297</ele>
        <time>2019-10-12T11:46:48Z</time>
      </trkpt>
      <trkpt lat="43.64658" lon="6.28252">
        <ele>843.20001220703</ele>
        <time>2019-10-12T11:46:55Z</time>
      </trkpt>
      <trkpt lat="43.64642" lon="6.2829">
        <ele>842.79998779297</ele>
        <time>2019-10-12T11:47:02Z</time>
      </trkpt>
      <trkpt lat="43.64625" lon="6.28333">
        <ele>842.20001220703</ele>
        <time>2019-10-12T11:47:11Z</time>
      </trkpt>
      <trkpt lat="43.64595" lon="6.28409">
        <ele>842</ele>
        <time>2019-10-12T11:47:26Z</time>
      </trkpt>
      <trkpt lat="43.64576" lon="6.2844">
        <ele>842.20001220703</ele>
        <time>2019-10-12T11:47:31Z</time>
      </trkpt>
      <trkpt lat="43.64526" lon="6.28495">
        <ele>842</ele>
        <time>2019-10-12T11:47:42Z</time>
      </trkpt>
      <trkpt lat="43.64478" lon="6.28522">
        <ele>842</ele>
        <time>2019-10-12T11:47:51Z</time>
      </trkpt>
      <trkpt lat="43.64404" lon="6.2859">
        <ele>842</ele>
        <time>2019-10-12T11:48:07Z</time>
      </trkpt>
      <trkpt lat="43.64324" lon="6.28651">
        <ele>842.20001220703</ele>
        <time>2019-10-12T11:48:22Z</time>
      </trkpt>
      <trkpt lat="43.64314" lon="6.28673">
        <ele>842.20001220703</ele>
        <time>2019-10-12T11:48:26Z</time>
      </trkpt>
      <trkpt lat="43.64309" lon="6.28698">
        <ele>842.20001220703</ele>
        <time>2019-10-12T11:48:29Z</time>
      </trkpt>
      <trkpt lat="43.64306" lon="6.28756">
        <ele>842</ele>
        <time>2019-10-12T11:48:36Z</time>
      </trkpt>
      <trkpt lat="43.64299" lon="6.28777">
        <ele>842.20001220703</ele>
        <time>2019-10-12T11:48:39Z</time>
      </trkpt>
      <trkpt lat="43.64277" lon="6.28812">
        <ele>841.79998779297</ele>
        <time>2019-10-12T11:48:45Z</time>
      </trkpt>
      <trkpt lat="43.64256" lon="6.28838">
        <ele>841.79998779297</ele>
        <time>2019-10-12T11:48:50Z</time>
      </trkpt>
      <trkpt lat="43.64224" lon="6.2886">
        <ele>841.40002441406</ele>
        <time>2019-10-12T11:48:57Z</time>
      </trkpt>
      <trkpt lat="43.6417" lon="6.28887">
        <ele>840.40002441406</ele>
        <time>2019-10-12T11:49:06Z</time>
      </trkpt>
      <trkpt lat="43.64118" lon="6.28933">
        <ele>838</ele>
        <time>2019-10-12T11:49:14Z</time>
      </trkpt>
      <trkpt lat="43.64084" lon="6.28977">
        <ele>835.79998779297</ele>
        <time>2019-10-12T11:49:20Z</time>
      </trkpt>
      <trkpt lat="43.64078" lon="6.28985">
        <ele>835.20001220703</ele>
        <time>2019-10-12T11:49:22Z</time>
      </trkpt>
      <trkpt lat="43.64028" lon="6.29067">
        <ele>833</ele>
        <time>2019-10-12T11:49:30Z</time>
      </trkpt>
      <trkpt lat="43.64004" lon="6.29104">
        <ele>831.59997558594</ele>
        <time>2019-10-12T11:49:34Z</time>
      </trkpt>
      <trkpt lat="43.63975" lon="6.29169">
        <ele>829.40002441406</ele>
        <time>2019-10-12T11:49:40Z</time>
      </trkpt>
      <trkpt lat="43.63963" lon="6.29193">
        <ele>828.79998779297</ele>
        <time>2019-10-12T11:49:42Z</time>
      </trkpt>
      <trkpt lat="43.63933" lon="6.29257">
        <ele>826.20001220703</ele>
        <time>2019-10-12T11:49:48Z</time>
      </trkpt>
      <trkpt lat="43.63917" lon="6.29302">
        <ele>824.79998779297</ele>
        <time>2019-10-12T11:49:52Z</time>
      </trkpt>
      <trkpt lat="43.63897" lon="6.29389">
        <ele>822</ele>
        <time>2019-10-12T11:49:59Z</time>
      </trkpt>
      <trkpt lat="43.6389" lon="6.2944">
        <ele>820.40002441406</ele>
        <time>2019-10-12T11:50:03Z</time>
      </trkpt>
      <trkpt lat="43.63883" lon="6.2952">
        <ele>818</ele>
        <time>2019-10-12T11:50:09Z</time>
      </trkpt>
      <trkpt lat="43.63883" lon="6.29571">
        <ele>815.79998779297</ele>
        <time>2019-10-12T11:50:13Z</time>
      </trkpt>
      <trkpt lat="43.63878" lon="6.29608">
        <ele>815.20001220703</ele>
        <time>2019-10-12T11:50:16Z</time>
      </trkpt>
      <trkpt lat="43.63858" lon="6.29656">
        <ele>813.40002441406</ele>
        <time>2019-10-12T11:50:20Z</time>
      </trkpt>
      <trkpt lat="43.63855" lon="6.29694">
        <ele>811.79998779297</ele>
        <time>2019-10-12T11:50:23Z</time>
      </trkpt>
      <trkpt lat="43.63851" lon="6.29771">
        <ele>809.20001220703</ele>
        <time>2019-10-12T11:50:29Z</time>
      </trkpt>
      <trkpt lat="43.63844" lon="6.29821">
        <ele>807.79998779297</ele>
        <time>2019-10-12T11:50:33Z</time>
      </trkpt>
      <trkpt lat="43.63832" lon="6.29902">
        <ele>805.20001220703</ele>
        <time>2019-10-12T11:50:39Z</time>
      </trkpt>
      <trkpt lat="43.63832" lon="6.29956">
        <ele>803.79998779297</ele>
        <time>2019-10-12T11:50:43Z</time>
      </trkpt>
      <trkpt lat="43.63816" lon="6.29999">
        <ele>801.79998779297</ele>
        <time>2019-10-12T11:50:47Z</time>
      </trkpt>
      <trkpt lat="43.63798" lon="6.3003">
        <ele>800.59997558594</ele>
        <time>2019-10-12T11:50:50Z</time>
      </trkpt>
      <trkpt lat="43.6379" lon="6.30073">
        <ele>799</ele>
        <time>2019-10-12T11:50:53Z</time>
      </trkpt>
      <trkpt lat="43.63785" lon="6.30126">
        <ele>797.20001220703</ele>
        <time>2019-10-12T11:50:57Z</time>
      </trkpt>
      <trkpt lat="43.63783" lon="6.30163">
        <ele>795.59997558594</ele>
        <time>2019-10-12T11:51:00Z</time>
      </trkpt>
      <trkpt lat="43.63761" lon="6.30263">
        <ele>793</ele>
        <time>2019-10-12T11:51:08Z</time>
      </trkpt>
      <trkpt lat="43.63748" lon="6.30297">
        <ele>791.40002441406</ele>
        <time>2019-10-12T11:51:11Z</time>
      </trkpt>
      <trkpt lat="43.63716" lon="6.30389">
        <ele>788</ele>
        <time>2019-10-12T11:51:19Z</time>
      </trkpt>
      <trkpt lat="43.63698" lon="6.30432">
        <ele>786.40002441406</ele>
        <time>2019-10-12T11:51:23Z</time>
      </trkpt>
      <trkpt lat="43.63674" lon="6.30486">
        <ele>784</ele>
        <time>2019-10-12T11:51:28Z</time>
      </trkpt>
      <trkpt lat="43.63654" lon="6.30548">
        <ele>782.59997558594</ele>
        <time>2019-10-12T11:51:33Z</time>
      </trkpt>
      <trkpt lat="43.63633" lon="6.30634">
        <ele>779.40002441406</ele>
        <time>2019-10-12T11:51:40Z</time>
      </trkpt>
      <trkpt lat="43.63619" lon="6.30666">
        <ele>777.79998779297</ele>
        <time>2019-10-12T11:51:43Z</time>
      </trkpt>
      <trkpt lat="43.6359" lon="6.30723">
        <ele>775.79998779297</ele>
        <time>2019-10-12T11:51:48Z</time>
      </trkpt>
      <trkpt lat="43.63584" lon="6.30762">
        <ele>774.20001220703</ele>
        <time>2019-10-12T11:51:51Z</time>
      </trkpt>
      <trkpt lat="43.63574" lon="6.30853">
        <ele>771.40002441406</ele>
        <time>2019-10-12T11:51:58Z</time>
      </trkpt>
      <trkpt lat="43.63568" lon="6.30891">
        <ele>769.79998779297</ele>
        <time>2019-10-12T11:52:01Z</time>
      </trkpt>
      <trkpt lat="43.63533" lon="6.3092">
        <ele>767.79998779297</ele>
        <time>2019-10-12T11:52:06Z</time>
      </trkpt>
      <trkpt lat="43.63488" lon="6.3095">
        <ele>764.40002441406</ele>
        <time>2019-10-12T11:52:11Z</time>
      </trkpt>
      <trkpt lat="43.63475" lon="6.30965">
        <ele>763.59997558594</ele>
        <time>2019-10-12T11:52:13Z</time>
      </trkpt>
      <trkpt lat="43.6344" lon="6.31008">
        <ele>761.59997558594</ele>
        <time>2019-10-12T11:52:18Z</time>
      </trkpt>
      <trkpt lat="43.63424" lon="6.31019">
        <ele>761</ele>
        <time>2019-10-12T11:52:20Z</time>
      </trkpt>
      <trkpt lat="43.63388" lon="6.31016">
        <ele>759.59997558594</ele>
        <time>2019-10-12T11:52:24Z</time>
      </trkpt>
      <trkpt lat="43.63346" lon="6.31035">
        <ele>757.59997558594</ele>
        <time>2019-10-12T11:52:29Z</time>
      </trkpt>
      <trkpt lat="43.63289" lon="6.31092">
        <ele>754.20001220703</ele>
        <time>2019-10-12T11:52:37Z</time>
      </trkpt>
      <trkpt lat="43.63275" lon="6.31099">
        <ele>753.40002441406</ele>
        <time>2019-10-12T11:52:39Z</time>
      </trkpt>
      <trkpt lat="43.63222" lon="6.31114">
        <ele>751.40002441406</ele>
        <time>2019-10-12T11:52:45Z</time>
      </trkpt>
      <trkpt lat="43.63193" lon="6.31129">
        <ele>749</ele>
        <time>2019-10-12T11:52:49Z</time>
      </trkpt>
      <trkpt lat="43.6313" lon="6.31205">
        <ele>744.40002441406</ele>
        <time>2019-10-12T11:52:59Z</time>
      </trkpt>
      <trkpt lat="43.63093" lon="6.3125">
        <ele>742.40002441406</ele>
        <time>2019-10-12T11:53:05Z</time>
      </trkpt>
      <trkpt lat="43.63056" lon="6.313">
        <ele>740.59997558594</ele>
        <time>2019-10-12T11:53:11Z</time>
      </trkpt>
      <trkpt lat="43.63029" lon="6.31333">
        <ele>739.79998779297</ele>
        <time>2019-10-12T11:53:15Z</time>
      </trkpt>
      <trkpt lat="43.62989" lon="6.31383">
        <ele>737.20001220703</ele>
        <time>2019-10-12T11:53:21Z</time>
      </trkpt>
      <trkpt lat="43.62948" lon="6.31452">
        <ele>734</ele>
        <time>2019-10-12T11:53:29Z</time>
      </trkpt>
      <trkpt lat="43.62927" lon="6.3151">
        <ele>732</ele>
        <time>2019-10-12T11:53:34Z</time>
      </trkpt>
      <trkpt lat="43.62879" lon="6.31596">
        <ele>728.79998779297</ele>
        <time>2019-10-12T11:53:43Z</time>
      </trkpt>
      <trkpt lat="43.62858" lon="6.31638">
        <ele>727.20001220703</ele>
        <time>2019-10-12T11:53:47Z</time>
      </trkpt>
      <trkpt lat="43.6284" lon="6.31705">
        <ele>725</ele>
        <time>2019-10-12T11:53:53Z</time>
      </trkpt>
      <trkpt lat="43.62837" lon="6.31753">
        <ele>723.79998779297</ele>
        <time>2019-10-12T11:53:57Z</time>
      </trkpt>
      <trkpt lat="43.62829" lon="6.31848">
        <ele>721</ele>
        <time>2019-10-12T11:54:05Z</time>
      </trkpt>
      <trkpt lat="43.6283" lon="6.31884">
        <ele>719.40002441406</ele>
        <time>2019-10-12T11:54:08Z</time>
      </trkpt>
      <trkpt lat="43.6284" lon="6.31933">
        <ele>718.20001220703</ele>
        <time>2019-10-12T11:54:12Z</time>
      </trkpt>
      <trkpt lat="43.62843" lon="6.31968">
        <ele>717.20001220703</ele>
        <time>2019-10-12T11:54:15Z</time>
      </trkpt>
      <trkpt lat="43.62852" lon="6.32024">
        <ele>715.20001220703</ele>
        <time>2019-10-12T11:54:20Z</time>
      </trkpt>
      <trkpt lat="43.62855" lon="6.32042">
        <ele>714.40002441406</ele>
        <time>2019-10-12T11:54:22Z</time>
      </trkpt>
      <trkpt lat="43.62847" lon="6.32074">
        <ele>713.40002441406</ele>
        <time>2019-10-12T11:54:25Z</time>
      </trkpt>
      <trkpt lat="43.62814" lon="6.32116">
        <ele>712</ele>
        <time>2019-10-12T11:54:30Z</time>
      </trkpt>
      <trkpt lat="43.62805" lon="6.32136">
        <ele>710.59997558594</ele>
        <time>2019-10-12T11:54:32Z</time>
      </trkpt>
      <trkpt lat="43.62798" lon="6.32183">
        <ele>709.20001220703</ele>
        <time>2019-10-12T11:54:36Z</time>
      </trkpt>
      <trkpt lat="43.62799" lon="6.32223">
        <ele>707.59997558594</ele>
        <time>2019-10-12T11:54:39Z</time>
      </trkpt>
      <trkpt lat="43.62807" lon="6.3226">
        <ele>706.20001220703</ele>
        <time>2019-10-12T11:54:42Z</time>
      </trkpt>
      <trkpt lat="43.62815" lon="6.32285">
        <ele>705.20001220703</ele>
        <time>2019-10-12T11:54:44Z</time>
      </trkpt>
      <trkpt lat="43.62815" lon="6.3236">
        <ele>701.79998779297</ele>
        <time>2019-10-12T11:54:50Z</time>
      </trkpt>
      <trkpt lat="43.62813" lon="6.32397">
        <ele>700.59997558594</ele>
        <time>2019-10-12T11:54:53Z</time>
      </trkpt>
      <trkpt lat="43.62802" lon="6.32485">
        <ele>698.40002441406</ele>
        <time>2019-10-12T11:55:00Z</time>
      </trkpt>
      <trkpt lat="43.62784" lon="6.32543">
        <ele>696.40002441406</ele>
        <time>2019-10-12T11:55:05Z</time>
      </trkpt>
      <trkpt lat="43.62755" lon="6.32611">
        <ele>693.79998779297</ele>
        <time>2019-10-12T11:55:11Z</time>
      </trkpt>
      <trkpt lat="43.62723" lon="6.32665">
        <ele>691.20001220703</ele>
        <time>2019-10-12T11:55:17Z</time>
      </trkpt>
      <trkpt lat="43.62707" lon="6.32684">
        <ele>690</ele>
        <time>2019-10-12T11:55:19Z</time>
      </trkpt>
      <trkpt lat="43.62657" lon="6.32741">
        <ele>687.79998779297</ele>
        <time>2019-10-12T11:55:26Z</time>
      </trkpt>
      <trkpt lat="43.62623" lon="6.3278">
        <ele>685.40002441406</ele>
        <time>2019-10-12T11:55:31Z</time>
      </trkpt>
      <trkpt lat="43.6261" lon="6.32813">
        <ele>684</ele>
        <time>2019-10-12T11:55:34Z</time>
      </trkpt>
      <trkpt lat="43.62599" lon="6.32882">
        <ele>681.59997558594</ele>
        <time>2019-10-12T11:55:40Z</time>
      </trkpt>
      <trkpt lat="43.62592" lon="6.32939">
        <ele>680.20001220703</ele>
        <time>2019-10-12T11:55:45Z</time>
      </trkpt>
      <trkpt lat="43.62583" lon="6.3298">
        <ele>679.79998779297</ele>
        <time>2019-10-12T11:55:49Z</time>
      </trkpt>
      <trkpt lat="43.62563" lon="6.33078">
        <ele>677.59997558594</ele>
        <time>2019-10-12T11:55:59Z</time>
      </trkpt>
      <trkpt lat="43.62554" lon="6.33155">
        <ele>676.59997558594</ele>
        <time>2019-10-12T11:56:07Z</time>
      </trkpt>
      <trkpt lat="43.62536" lon="6.33298">
        <ele>674.59997558594</ele>
        <time>2019-10-12T11:56:22Z</time>
      </trkpt>
      <trkpt lat="43.62525" lon="6.33393">
        <ele>673</ele>
        <time>2019-10-12T11:56:32Z</time>
      </trkpt>
      <trkpt lat="43.62529" lon="6.3347">
        <ele>672.20001220703</ele>
        <time>2019-10-12T11:56:41Z</time>
      </trkpt>
      <trkpt lat="43.62553" lon="6.33536">
        <ele>671.59997558594</ele>
        <time>2019-10-12T11:56:49Z</time>
      </trkpt>
      <trkpt lat="43.62597" lon="6.33653">
        <ele>670.59997558594</ele>
        <time>2019-10-12T11:57:03Z</time>
      </trkpt>
      <trkpt lat="43.62623" lon="6.33729">
        <ele>669.20001220703</ele>
        <time>2019-10-12T11:57:12Z</time>
      </trkpt>
      <trkpt lat="43.62634" lon="6.33822">
        <ele>668.40002441406</ele>
        <time>2019-10-12T11:57:22Z</time>
      </trkpt>
      <trkpt lat="43.6262" lon="6.33915">
        <ele>667.20001220703</ele>
        <time>2019-10-12T11:57:31Z</time>
      </trkpt>
      <trkpt lat="43.62611" lon="6.33941">
        <ele>666.79998779297</ele>
        <time>2019-10-12T11:57:34Z</time>
      </trkpt>
      <trkpt lat="43.62572" lon="6.33987">
        <ele>664.59997558594</ele>
        <time>2019-10-12T11:57:40Z</time>
      </trkpt>
      <trkpt lat="43.62539" lon="6.3402">
        <ele>662.79998779297</ele>
        <time>2019-10-12T11:57:45Z</time>
      </trkpt>
      <trkpt lat="43.625" lon="6.34052">
        <ele>661.20001220703</ele>
        <time>2019-10-12T11:57:50Z</time>
      </trkpt>
      <trkpt lat="43.62443" lon="6.34119">
        <ele>658.20001220703</ele>
        <time>2019-10-12T11:57:58Z</time>
      </trkpt>
      <trkpt lat="43.62403" lon="6.34165">
        <ele>655.40002441406</ele>
        <time>2019-10-12T11:58:04Z</time>
      </trkpt>
      <trkpt lat="43.62362" lon="6.34213">
        <ele>654</ele>
        <time>2019-10-12T11:58:11Z</time>
      </trkpt>
      <trkpt lat="43.62321" lon="6.34225">
        <ele>653.20001220703</ele>
        <time>2019-10-12T11:58:17Z</time>
      </trkpt>
      <trkpt lat="43.62304" lon="6.34234">
        <ele>653.20001220703</ele>
        <time>2019-10-12T11:58:20Z</time>
      </trkpt>
      <trkpt lat="43.62284" lon="6.34252">
        <ele>653.40002441406</ele>
        <time>2019-10-12T11:58:24Z</time>
      </trkpt>
      <trkpt lat="43.6224" lon="6.34291">
        <ele>653</ele>
        <time>2019-10-12T11:58:32Z</time>
      </trkpt>
      <trkpt lat="43.6222" lon="6.34309">
        <ele>652.79998779297</ele>
        <time>2019-10-12T11:58:36Z</time>
      </trkpt>
      <trkpt lat="43.62168" lon="6.34352">
        <ele>652.20001220703</ele>
        <time>2019-10-12T11:58:45Z</time>
      </trkpt>
      <trkpt lat="43.62095" lon="6.34394">
        <ele>650.79998779297</ele>
        <time>2019-10-12T11:58:57Z</time>
      </trkpt>
      <trkpt lat="43.62013" lon="6.34432">
        <ele>650</ele>
        <time>2019-10-12T11:59:11Z</time>
      </trkpt>
      <trkpt lat="43.61983" lon="6.3446">
        <ele>649.59997558594</ele>
        <time>2019-10-12T11:59:16Z</time>
      </trkpt>
      <trkpt lat="43.61965" lon="6.34524">
        <ele>648.40002441406</ele>
        <time>2019-10-12T11:59:23Z</time>
      </trkpt>
      <trkpt lat="43.61923" lon="6.34595">
        <ele>647.79998779297</ele>
        <time>2019-10-12T11:59:33Z</time>
      </trkpt>
      <trkpt lat="43.61863" lon="6.34658">
        <ele>647.59997558594</ele>
        <time>2019-10-12T11:59:44Z</time>
      </trkpt>
      <trkpt lat="43.61841" lon="6.34685">
        <ele>647.20001220703</ele>
        <time>2019-10-12T11:59:48Z</time>
      </trkpt>
      <trkpt lat="43.61804" lon="6.3473">
        <ele>646.40002441406</ele>
        <time>2019-10-12T11:59:54Z</time>
      </trkpt>
      <trkpt lat="43.61733" lon="6.34816">
        <ele>642.20001220703</ele>
        <time>2019-10-12T12:00:05Z</time>
      </trkpt>
      <trkpt lat="43.61682" lon="6.34876">
        <ele>640.40002441406</ele>
        <time>2019-10-12T12:00:14Z</time>
      </trkpt>
      <trkpt lat="43.61619" lon="6.34934">
        <ele>639.79998779297</ele>
        <time>2019-10-12T12:00:25Z</time>
      </trkpt>
      <trkpt lat="43.61592" lon="6.34958">
        <ele>639.79998779297</ele>
        <time>2019-10-12T12:00:30Z</time>
      </trkpt>
      <trkpt lat="43.615" lon="6.3503">
        <ele>640</ele>
        <time>2019-10-12T12:00:48Z</time>
      </trkpt>
      <trkpt lat="43.61444" lon="6.35068">
        <ele>640.20001220703</ele>
        <time>2019-10-12T12:00:58Z</time>
      </trkpt>
      <trkpt lat="43.61427" lon="6.35093">
        <ele>639.59997558594</ele>
        <time>2019-10-12T12:01:02Z</time>
      </trkpt>
      <trkpt lat="43.61389" lon="6.35192">
        <ele>639.20001220703</ele>
        <time>2019-10-12T12:01:16Z</time>
      </trkpt>
      <trkpt lat="43.61293" lon="6.35331">
        <ele>639.59997558594</ele>
        <time>2019-10-12T12:01:40Z</time>
      </trkpt>
      <trkpt lat="43.61235" lon="6.35409">
        <ele>639.40002441406</ele>
        <time>2019-10-12T12:01:53Z</time>
      </trkpt>
      <trkpt lat="43.61209" lon="6.35482">
        <ele>639.59997558594</ele>
        <time>2019-10-12T12:02:04Z</time>
      </trkpt>
      <trkpt lat="43.61198" lon="6.35505">
        <ele>639.79998779297</ele>
        <time>2019-10-12T12:02:08Z</time>
      </trkpt>
      <trkpt lat="43.61173" lon="6.355">
        <ele>640.20001220703</ele>
        <time>2019-10-12T12:02:13Z</time>
      </trkpt>
      <trkpt lat="43.61147" lon="6.35469">
        <ele>641</ele>
        <time>2019-10-12T12:02:20Z</time>
      </trkpt>
      <trkpt lat="43.6111" lon="6.35414">
        <ele>642.40002441406</ele>
        <time>2019-10-12T12:02:33Z</time>
      </trkpt>
      <trkpt lat="43.61105" lon="6.35385">
        <ele>643.20001220703</ele>
        <time>2019-10-12T12:02:39Z</time>
      </trkpt>
      <trkpt lat="43.61088" lon="6.35361">
        <ele>644.59997558594</ele>
        <time>2019-10-12T12:02:46Z</time>
      </trkpt>
      <trkpt lat="43.61042" lon="6.35347">
        <ele>646</ele>
        <time>2019-10-12T12:02:57Z</time>
      </trkpt>
      <trkpt lat="43.61015" lon="6.3535">
        <ele>646.59997558594</ele>
        <time>2019-10-12T12:03:03Z</time>
      </trkpt>
      <trkpt lat="43.60966" lon="6.35382">
        <ele>647.20001220703</ele>
        <time>2019-10-12T12:03:14Z</time>
      </trkpt>
      <trkpt lat="43.60894" lon="6.35431">
        <ele>647.40002441406</ele>
        <time>2019-10-12T12:03:29Z</time>
      </trkpt>
      <trkpt lat="43.60846" lon="6.35421">
        <ele>647.59997558594</ele>
        <time>2019-10-12T12:03:38Z</time>
      </trkpt>
      <trkpt lat="43.60768" lon="6.35387">
        <ele>647.20001220703</ele>
        <time>2019-10-12T12:03:52Z</time>
      </trkpt>
      <trkpt lat="43.60712" lon="6.35365">
        <ele>646.40002441406</ele>
        <time>2019-10-12T12:04:02Z</time>
      </trkpt>
      <trkpt lat="43.60695" lon="6.35365">
        <ele>646.20001220703</ele>
        <time>2019-10-12T12:04:05Z</time>
      </trkpt>
      <trkpt lat="43.60609" lon="6.35399">
        <ele>646</ele>
        <time>2019-10-12T12:04:19Z</time>
      </trkpt>
      <trkpt lat="43.60568" lon="6.35416">
        <ele>645</ele>
        <time>2019-10-12T12:04:26Z</time>
      </trkpt>
      <trkpt lat="43.60541" lon="6.35447">
        <ele>643.79998779297</ele>
        <time>2019-10-12T12:04:31Z</time>
      </trkpt>
      <trkpt lat="43.60499" lon="6.35539">
        <ele>641.40002441406</ele>
        <time>2019-10-12T12:04:41Z</time>
      </trkpt>
      <trkpt lat="43.60485" lon="6.3557">
        <ele>640</ele>
        <time>2019-10-12T12:04:45Z</time>
      </trkpt>
      <trkpt lat="43.60449" lon="6.35651">
        <ele>638.20001220703</ele>
        <time>2019-10-12T12:04:54Z</time>
      </trkpt>
      <trkpt lat="43.60419" lon="6.35712">
        <ele>636.40002441406</ele>
        <time>2019-10-12T12:05:03Z</time>
      </trkpt>
      <trkpt lat="43.60416" lon="6.35717">
        <ele>635.79998779297</ele>
        <time>2019-10-12T12:05:10Z</time>
      </trkpt>
      <trkpt lat="43.60417" lon="6.35716">
        <ele>635.40002441406</ele>
        <time>2019-10-12T12:05:59Z</time>
      </trkpt>
      <trkpt lat="43.60419" lon="6.35726">
        <ele>635.40002441406</ele>
        <time>2019-10-12T12:06:05Z</time>
      </trkpt>
      <trkpt lat="43.60424" lon="6.3574">
        <ele>635.40002441406</ele>
        <time>2019-10-12T12:06:08Z</time>
      </trkpt>
      <trkpt lat="43.60413" lon="6.35807">
        <ele>635.20001220703</ele>
        <time>2019-10-12T12:06:16Z</time>
      </trkpt>
      <trkpt lat="43.6039" lon="6.35886">
        <ele>633.59997558594</ele>
        <time>2019-10-12T12:06:25Z</time>
      </trkpt>
      <trkpt lat="43.60362" lon="6.35979">
        <ele>632.59997558594</ele>
        <time>2019-10-12T12:06:36Z</time>
      </trkpt>
      <trkpt lat="43.60341" lon="6.36051">
        <ele>632.40002441406</ele>
        <time>2019-10-12T12:06:45Z</time>
      </trkpt>
      <trkpt lat="43.60302" lon="6.36191">
        <ele>632</ele>
        <time>2019-10-12T12:07:03Z</time>
      </trkpt>
      <trkpt lat="43.60296" lon="6.36243">
        <ele>632.20001220703</ele>
        <time>2019-10-12T12:07:09Z</time>
      </trkpt>
      <trkpt lat="43.60312" lon="6.36287">
        <ele>632</ele>
        <time>2019-10-12T12:07:15Z</time>
      </trkpt>
      <trkpt lat="43.60319" lon="6.3633">
        <ele>632</ele>
        <time>2019-10-12T12:07:19Z</time>
      </trkpt>
      <trkpt lat="43.60317" lon="6.36357">
        <ele>631.40002441406</ele>
        <time>2019-10-12T12:07:22Z</time>
      </trkpt>
      <trkpt lat="43.60298" lon="6.36434">
        <ele>629.20001220703</ele>
        <time>2019-10-12T12:07:28Z</time>
      </trkpt>
      <trkpt lat="43.60299" lon="6.3652">
        <ele>625.79998779297</ele>
        <time>2019-10-12T12:07:34Z</time>
      </trkpt>
      <trkpt lat="43.6031" lon="6.36553">
        <ele>624.79998779297</ele>
        <time>2019-10-12T12:07:37Z</time>
      </trkpt>
      <trkpt lat="43.60348" lon="6.36593">
        <ele>622.20001220703</ele>
        <time>2019-10-12T12:07:44Z</time>
      </trkpt>
      <trkpt lat="43.60379" lon="6.36625">
        <ele>622.20001220703</ele>
        <time>2019-10-12T12:07:50Z</time>
      </trkpt>
      <trkpt lat="43.60399" lon="6.36645">
        <ele>622.40002441406</ele>
        <time>2019-10-12T12:07:54Z</time>
      </trkpt>
      <trkpt lat="43.60435" lon="6.3669">
        <ele>623</ele>
        <time>2019-10-12T12:08:03Z</time>
      </trkpt>
      <trkpt lat="43.60456" lon="6.36728">
        <ele>624</ele>
        <time>2019-10-12T12:08:09Z</time>
      </trkpt>
      <trkpt lat="43.60484" lon="6.36778">
        <ele>624.59997558594</ele>
        <time>2019-10-12T12:08:18Z</time>
      </trkpt>
      <trkpt lat="43.60519" lon="6.36846">
        <ele>626.20001220703</ele>
        <time>2019-10-12T12:08:31Z</time>
      </trkpt>
      <trkpt lat="43.60572" lon="6.36949">
        <ele>628.59997558594</ele>
        <time>2019-10-12T12:08:50Z</time>
      </trkpt>
      <trkpt lat="43.60584" lon="6.36973">
        <ele>628.79998779297</ele>
        <time>2019-10-12T12:08:54Z</time>
      </trkpt>
      <trkpt lat="43.60609" lon="6.37041">
        <ele>629.79998779297</ele>
        <time>2019-10-12T12:09:05Z</time>
      </trkpt>
      <trkpt lat="43.60625" lon="6.37108">
        <ele>630.59997558594</ele>
        <time>2019-10-12T12:09:16Z</time>
      </trkpt>
      <trkpt lat="43.60629" lon="6.37126">
        <ele>630.59997558594</ele>
        <time>2019-10-12T12:09:20Z</time>
      </trkpt>
      <trkpt lat="43.60638" lon="6.37171">
        <ele>630.79998779297</ele>
        <time>2019-10-12T12:09:27Z</time>
      </trkpt>
      <trkpt lat="43.6064" lon="6.37197">
        <ele>630.59997558594</ele>
        <time>2019-10-12T12:09:31Z</time>
      </trkpt>
      <trkpt lat="43.60642" lon="6.37227">
        <ele>629.79998779297</ele>
        <time>2019-10-12T12:09:37Z</time>
      </trkpt>
      <trkpt lat="43.60642" lon="6.37228">
        <ele>628.79998779297</ele>
        <time>2019-10-12T12:09:40Z</time>
      </trkpt>
      <trkpt lat="43.60642" lon="6.37229">
        <ele>627.79998779297</ele>
        <time>2019-10-12T12:10:48Z</time>
      </trkpt>
      <trkpt lat="43.60643" lon="6.37248">
        <ele>627.79998779297</ele>
        <time>2019-10-12T12:10:52Z</time>
      </trkpt>
      <trkpt lat="43.60635" lon="6.37296">
        <ele>627</ele>
        <time>2019-10-12T12:10:58Z</time>
      </trkpt>
      <trkpt lat="43.60619" lon="6.37335">
        <ele>626.20001220703</ele>
        <time>2019-10-12T12:11:02Z</time>
      </trkpt>
      <trkpt lat="43.60589" lon="6.37381">
        <ele>624.79998779297</ele>
        <time>2019-10-12T12:11:07Z</time>
      </trkpt>
      <trkpt lat="43.60549" lon="6.37425">
        <ele>621.79998779297</ele>
        <time>2019-10-12T12:11:12Z</time>
      </trkpt>
      <trkpt lat="43.60502" lon="6.37481">
        <ele>618</ele>
        <time>2019-10-12T12:11:18Z</time>
      </trkpt>
      <trkpt lat="43.60478" lon="6.37532">
        <ele>615.59997558594</ele>
        <time>2019-10-12T12:11:22Z</time>
      </trkpt>
      <trkpt lat="43.60469" lon="6.3756">
        <ele>615</ele>
        <time>2019-10-12T12:11:24Z</time>
      </trkpt>
      <trkpt lat="43.60443" lon="6.3765">
        <ele>610.40002441406</ele>
        <time>2019-10-12T12:11:30Z</time>
      </trkpt>
      <trkpt lat="43.6043" lon="6.37713">
        <ele>606.20001220703</ele>
        <time>2019-10-12T12:11:34Z</time>
      </trkpt>
      <trkpt lat="43.60424" lon="6.37762">
        <ele>603.40002441406</ele>
        <time>2019-10-12T12:11:37Z</time>
      </trkpt>
      <trkpt lat="43.60423" lon="6.37814">
        <ele>600.40002441406</ele>
        <time>2019-10-12T12:11:40Z</time>
      </trkpt>
      <trkpt lat="43.60424" lon="6.37883">
        <ele>596.59997558594</ele>
        <time>2019-10-12T12:11:44Z</time>
      </trkpt>
      <trkpt lat="43.60422" lon="6.37954">
        <ele>593</ele>
        <time>2019-10-12T12:11:48Z</time>
      </trkpt>
      <trkpt lat="43.60412" lon="6.38036">
        <ele>589</ele>
        <time>2019-10-12T12:11:53Z</time>
      </trkpt>
      <trkpt lat="43.60409" lon="6.38067">
        <ele>587</ele>
        <time>2019-10-12T12:11:55Z</time>
      </trkpt>
      <trkpt lat="43.6039" lon="6.3812">
        <ele>583.40002441406</ele>
        <time>2019-10-12T12:11:59Z</time>
      </trkpt>
      <trkpt lat="43.60375" lon="6.38141">
        <ele>581.40002441406</ele>
        <time>2019-10-12T12:12:01Z</time>
      </trkpt>
      <trkpt lat="43.60326" lon="6.38177">
        <ele>576.20001220703</ele>
        <time>2019-10-12T12:12:07Z</time>
      </trkpt>
      <trkpt lat="43.60313" lon="6.38179">
        <ele>574.59997558594</ele>
        <time>2019-10-12T12:12:09Z</time>
      </trkpt>
      <trkpt lat="43.60289" lon="6.38173">
        <ele>572.40002441406</ele>
        <time>2019-10-12T12:12:13Z</time>
      </trkpt>
      <trkpt lat="43.60259" lon="6.3816">
        <ele>572.20001220703</ele>
        <time>2019-10-12T12:12:18Z</time>
      </trkpt>
      <trkpt lat="43.60225" lon="6.38135">
        <ele>572.20001220703</ele>
        <time>2019-10-12T12:12:25Z</time>
      </trkpt>
      <trkpt lat="43.60208" lon="6.38129">
        <ele>572.20001220703</ele>
        <time>2019-10-12T12:12:30Z</time>
      </trkpt>
      <trkpt lat="43.60197" lon="6.38122">
        <ele>573</ele>
        <time>2019-10-12T12:12:34Z</time>
      </trkpt>
      <trkpt lat="43.60175" lon="6.38103">
        <ele>574.59997558594</ele>
        <time>2019-10-12T12:12:42Z</time>
      </trkpt>
      <trkpt lat="43.60152" lon="6.38085">
        <ele>575.20001220703</ele>
        <time>2019-10-12T12:12:50Z</time>
      </trkpt>
      <trkpt lat="43.60105" lon="6.3806">
        <ele>577</ele>
        <time>2019-10-12T12:13:04Z</time>
      </trkpt>
      <trkpt lat="43.60065" lon="6.38041">
        <ele>577.59997558594</ele>
        <time>2019-10-12T12:13:14Z</time>
      </trkpt>
      <trkpt lat="43.60024" lon="6.38023">
        <ele>578.40002441406</ele>
        <time>2019-10-12T12:13:26Z</time>
      </trkpt>
      <trkpt lat="43.59996" lon="6.38009">
        <ele>579.59997558594</ele>
        <time>2019-10-12T12:13:35Z</time>
      </trkpt>
      <trkpt lat="43.59951" lon="6.37989">
        <ele>582.20001220703</ele>
        <time>2019-10-12T12:13:52Z</time>
      </trkpt>
      <trkpt lat="43.59923" lon="6.37976">
        <ele>583.59997558594</ele>
        <time>2019-10-12T12:14:02Z</time>
      </trkpt>
      <trkpt lat="43.59902" lon="6.37966">
        <ele>585</ele>
        <time>2019-10-12T12:14:09Z</time>
      </trkpt>
      <trkpt lat="43.59864" lon="6.37965">
        <ele>586.79998779297</ele>
        <time>2019-10-12T12:14:22Z</time>
      </trkpt>
      <trkpt lat="43.59839" lon="6.37973">
        <ele>588</ele>
        <time>2019-10-12T12:14:30Z</time>
      </trkpt>
      <trkpt lat="43.59812" lon="6.37985">
        <ele>589.59997558594</ele>
        <time>2019-10-12T12:14:39Z</time>
      </trkpt>
      <trkpt lat="43.59766" lon="6.38008">
        <ele>591.59997558594</ele>
        <time>2019-10-12T12:14:55Z</time>
      </trkpt>
      <trkpt lat="43.59732" lon="6.38022">
        <ele>593.40002441406</ele>
        <time>2019-10-12T12:15:06Z</time>
      </trkpt>
      <trkpt lat="43.59701" lon="6.38026">
        <ele>594.59997558594</ele>
        <time>2019-10-12T12:15:15Z</time>
      </trkpt>
      <trkpt lat="43.59625" lon="6.38025">
        <ele>596.40002441406</ele>
        <time>2019-10-12T12:15:36Z</time>
      </trkpt>
      <trkpt lat="43.59592" lon="6.38029">
        <ele>597</ele>
        <time>2019-10-12T12:15:44Z</time>
      </trkpt>
      <trkpt lat="43.59535" lon="6.38036">
        <ele>598.40002441406</ele>
        <time>2019-10-12T12:15:58Z</time>
      </trkpt>
      <trkpt lat="43.59486" lon="6.38042">
        <ele>599.59997558594</ele>
        <time>2019-10-12T12:16:10Z</time>
      </trkpt>
      <trkpt lat="43.59424" lon="6.3805">
        <ele>601.20001220703</ele>
        <time>2019-10-12T12:16:25Z</time>
      </trkpt>
      <trkpt lat="43.59382" lon="6.38057">
        <ele>603</ele>
        <time>2019-10-12T12:16:35Z</time>
      </trkpt>
      <trkpt lat="43.5936" lon="6.38067">
        <ele>603.20001220703</ele>
        <time>2019-10-12T12:16:40Z</time>
      </trkpt>
      <trkpt lat="43.59342" lon="6.38081">
        <ele>603.40002441406</ele>
        <time>2019-10-12T12:16:45Z</time>
      </trkpt>
      <trkpt lat="43.59311" lon="6.38119">
        <ele>604.79998779297</ele>
        <time>2019-10-12T12:16:56Z</time>
      </trkpt>
      <trkpt lat="43.59258" lon="6.3817">
        <ele>606.20001220703</ele>
        <time>2019-10-12T12:17:11Z</time>
      </trkpt>
      <trkpt lat="43.59203" lon="6.38205">
        <ele>606.79998779297</ele>
        <time>2019-10-12T12:17:24Z</time>
      </trkpt>
      <trkpt lat="43.59182" lon="6.38229">
        <ele>607.40002441406</ele>
        <time>2019-10-12T12:17:30Z</time>
      </trkpt>
      <trkpt lat="43.59178" lon="6.38276">
        <ele>608.40002441406</ele>
        <time>2019-10-12T12:17:37Z</time>
      </trkpt>
      <trkpt lat="43.59192" lon="6.38385">
        <ele>608.79998779297</ele>
        <time>2019-10-12T12:17:52Z</time>
      </trkpt>
      <trkpt lat="43.59198" lon="6.38454">
        <ele>608.79998779297</ele>
        <time>2019-10-12T12:18:01Z</time>
      </trkpt>
      <trkpt lat="43.59171" lon="6.3859">
        <ele>608.59997558594</ele>
        <time>2019-10-12T12:18:19Z</time>
      </trkpt>
      <trkpt lat="43.5912" lon="6.38671">
        <ele>608.59997558594</ele>
        <time>2019-10-12T12:18:31Z</time>
      </trkpt>
      <trkpt lat="43.59029" lon="6.38744">
        <ele>607.59997558594</ele>
        <time>2019-10-12T12:18:47Z</time>
      </trkpt>
      <trkpt lat="43.58956" lon="6.38775">
        <ele>607</ele>
        <time>2019-10-12T12:18:59Z</time>
      </trkpt>
      <trkpt lat="43.58864" lon="6.38766">
        <ele>606.59997558594</ele>
        <time>2019-10-12T12:19:16Z</time>
      </trkpt>
      <trkpt lat="43.58846" lon="6.38761">
        <ele>607</ele>
        <time>2019-10-12T12:19:21Z</time>
      </trkpt>
      <trkpt lat="43.58824" lon="6.38754">
        <ele>607.79998779297</ele>
        <time>2019-10-12T12:19:27Z</time>
      </trkpt>
      <trkpt lat="43.58791" lon="6.38752">
        <ele>609.40002441406</ele>
        <time>2019-10-12T12:19:35Z</time>
      </trkpt>
      <trkpt lat="43.58783" lon="6.38755">
        <ele>609.59997558594</ele>
        <time>2019-10-12T12:19:37Z</time>
      </trkpt>
      <trkpt lat="43.58756" lon="6.38765">
        <ele>611.20001220703</ele>
        <time>2019-10-12T12:19:45Z</time>
      </trkpt>
      <trkpt lat="43.58735" lon="6.38778">
        <ele>613</ele>
        <time>2019-10-12T12:19:52Z</time>
      </trkpt>
      <trkpt lat="43.58718" lon="6.38789">
        <ele>614.40002441406</ele>
        <time>2019-10-12T12:19:57Z</time>
      </trkpt>
      <trkpt lat="43.5868" lon="6.38813">
        <ele>616.59997558594</ele>
        <time>2019-10-12T12:20:07Z</time>
      </trkpt>
      <trkpt lat="43.58626" lon="6.38847">
        <ele>617.20001220703</ele>
        <time>2019-10-12T12:20:20Z</time>
      </trkpt>
      <trkpt lat="43.58612" lon="6.38856">
        <ele>617.40002441406</ele>
        <time>2019-10-12T12:20:23Z</time>
      </trkpt>
      <trkpt lat="43.58597" lon="6.38865">
        <ele>617.79998779297</ele>
        <time>2019-10-12T12:20:29Z</time>
      </trkpt>
      <trkpt lat="43.58593" lon="6.38866">
        <ele>617.40002441406</ele>
        <time>2019-10-12T12:20:55Z</time>
      </trkpt>
      <trkpt lat="43.58578" lon="6.38859">
        <ele>617.20001220703</ele>
        <time>2019-10-12T12:20:59Z</time>
      </trkpt>
      <trkpt lat="43.58571" lon="6.38841">
        <ele>617</ele>
        <time>2019-10-12T12:21:01Z</time>
      </trkpt>
      <trkpt lat="43.58565" lon="6.3881">
        <ele>616.59997558594</ele>
        <time>2019-10-12T12:21:06Z</time>
      </trkpt>
      <trkpt lat="43.58561" lon="6.38775">
        <ele>615</ele>
        <time>2019-10-12T12:21:14Z</time>
      </trkpt>
      <trkpt lat="43.58557" lon="6.38754">
        <ele>614.20001220703</ele>
        <time>2019-10-12T12:21:17Z</time>
      </trkpt>
      <trkpt lat="43.5854" lon="6.38716">
        <ele>613.20001220703</ele>
        <time>2019-10-12T12:21:22Z</time>
      </trkpt>
      <trkpt lat="43.58528" lon="6.38693">
        <ele>612.20001220703</ele>
        <time>2019-10-12T12:21:25Z</time>
      </trkpt>
      <trkpt lat="43.58508" lon="6.38695">
        <ele>610.20001220703</ele>
        <time>2019-10-12T12:21:30Z</time>
      </trkpt>
      <trkpt lat="43.58492" lon="6.38708">
        <ele>609.40002441406</ele>
        <time>2019-10-12T12:21:33Z</time>
      </trkpt>
      <trkpt lat="43.58467" lon="6.38719">
        <ele>608.40002441406</ele>
        <time>2019-10-12T12:21:36Z</time>
      </trkpt>
      <trkpt lat="43.58452" lon="6.38722">
        <ele>607.79998779297</ele>
        <time>2019-10-12T12:21:38Z</time>
      </trkpt>
      <trkpt lat="43.5843" lon="6.38768">
        <ele>606.20001220703</ele>
        <time>2019-10-12T12:21:42Z</time>
      </trkpt>
      <trkpt lat="43.58412" lon="6.38803">
        <ele>604.59997558594</ele>
        <time>2019-10-12T12:21:45Z</time>
      </trkpt>
      <trkpt lat="43.58387" lon="6.38829">
        <ele>602.40002441406</ele>
        <time>2019-10-12T12:21:49Z</time>
      </trkpt>
      <trkpt lat="43.58357" lon="6.38824">
        <ele>600.40002441406</ele>
        <time>2019-10-12T12:21:52Z</time>
      </trkpt>
      <trkpt lat="43.58332" lon="6.38834">
        <ele>598.59997558594</ele>
        <time>2019-10-12T12:21:55Z</time>
      </trkpt>
      <trkpt lat="43.58322" lon="6.38879">
        <ele>596.20001220703</ele>
        <time>2019-10-12T12:21:59Z</time>
      </trkpt>
      <trkpt lat="43.58301" lon="6.38915">
        <ele>593.40002441406</ele>
        <time>2019-10-12T12:22:03Z</time>
      </trkpt>
      <trkpt lat="43.5827" lon="6.38951">
        <ele>591.59997558594</ele>
        <time>2019-10-12T12:22:07Z</time>
      </trkpt>
      <trkpt lat="43.58247" lon="6.38979">
        <ele>589.79998779297</ele>
        <time>2019-10-12T12:22:10Z</time>
      </trkpt>
      <trkpt lat="43.58204" lon="6.39029">
        <ele>586.59997558594</ele>
        <time>2019-10-12T12:22:15Z</time>
      </trkpt>
      <trkpt lat="43.58186" lon="6.39043">
        <ele>585</ele>
        <time>2019-10-12T12:22:17Z</time>
      </trkpt>
      <trkpt lat="43.58161" lon="6.39059">
        <ele>582.59997558594</ele>
        <time>2019-10-12T12:22:20Z</time>
      </trkpt>
      <trkpt lat="43.58118" lon="6.39113">
        <ele>579.40002441406</ele>
        <time>2019-10-12T12:22:25Z</time>
      </trkpt>
      <trkpt lat="43.5808" lon="6.39139">
        <ele>576.40002441406</ele>
        <time>2019-10-12T12:22:29Z</time>
      </trkpt>
      <trkpt lat="43.58046" lon="6.39146">
        <ele>574</ele>
        <time>2019-10-12T12:22:32Z</time>
      </trkpt>
      <trkpt lat="43.57977" lon="6.39156">
        <ele>569</ele>
        <time>2019-10-12T12:22:38Z</time>
      </trkpt>
      <trkpt lat="43.57935" lon="6.39168">
        <ele>566</ele>
        <time>2019-10-12T12:22:42Z</time>
      </trkpt>
      <trkpt lat="43.57896" lon="6.39205">
        <ele>563</ele>
        <time>2019-10-12T12:22:46Z</time>
      </trkpt>
      <trkpt lat="43.5789" lon="6.39227">
        <ele>561.59997558594</ele>
        <time>2019-10-12T12:22:48Z</time>
      </trkpt>
      <trkpt lat="43.57886" lon="6.39263">
        <ele>560</ele>
        <time>2019-10-12T12:22:51Z</time>
      </trkpt>
      <trkpt lat="43.57875" lon="6.39303">
        <ele>557.59997558594</ele>
        <time>2019-10-12T12:22:54Z</time>
      </trkpt>
      <trkpt lat="43.57862" lon="6.39342">
        <ele>555.40002441406</ele>
        <time>2019-10-12T12:22:57Z</time>
      </trkpt>
      <trkpt lat="43.57842" lon="6.3938">
        <ele>552.59997558594</ele>
        <time>2019-10-12T12:23:01Z</time>
      </trkpt>
      <trkpt lat="43.57822" lon="6.39407">
        <ele>550.40002441406</ele>
        <time>2019-10-12T12:23:04Z</time>
      </trkpt>
      <trkpt lat="43.57801" lon="6.39444">
        <ele>548.40002441406</ele>
        <time>2019-10-12T12:23:07Z</time>
      </trkpt>
      <trkpt lat="43.57796" lon="6.39472">
        <ele>547</ele>
        <time>2019-10-12T12:23:09Z</time>
      </trkpt>
      <trkpt lat="43.57798" lon="6.3952">
        <ele>544.59997558594</ele>
        <time>2019-10-12T12:23:12Z</time>
      </trkpt>
      <trkpt lat="43.578" lon="6.39548">
        <ele>543.79998779297</ele>
        <time>2019-10-12T12:23:14Z</time>
      </trkpt>
      <trkpt lat="43.57787" lon="6.39597">
        <ele>541.20001220703</ele>
        <time>2019-10-12T12:23:18Z</time>
      </trkpt>
      <trkpt lat="43.57768" lon="6.39646">
        <ele>538.40002441406</ele>
        <time>2019-10-12T12:23:22Z</time>
      </trkpt>
      <trkpt lat="43.57739" lon="6.39717">
        <ele>534.20001220703</ele>
        <time>2019-10-12T12:23:27Z</time>
      </trkpt>
      <trkpt lat="43.57718" lon="6.39768">
        <ele>531.79998779297</ele>
        <time>2019-10-12T12:23:31Z</time>
      </trkpt>
      <trkpt lat="43.577" lon="6.39812">
        <ele>529.79998779297</ele>
        <time>2019-10-12T12:23:34Z</time>
      </trkpt>
      <trkpt lat="43.57676" lon="6.39849">
        <ele>527.20001220703</ele>
        <time>2019-10-12T12:23:37Z</time>
      </trkpt>
      <trkpt lat="43.57655" lon="6.39864">
        <ele>526.59997558594</ele>
        <time>2019-10-12T12:23:39Z</time>
      </trkpt>
      <trkpt lat="43.57609" lon="6.3987">
        <ele>523.20001220703</ele>
        <time>2019-10-12T12:23:43Z</time>
      </trkpt>
      <trkpt lat="43.57561" lon="6.3987">
        <ele>519.79998779297</ele>
        <time>2019-10-12T12:23:47Z</time>
      </trkpt>
      <trkpt lat="43.57515" lon="6.39868">
        <ele>516.59997558594</ele>
        <time>2019-10-12T12:23:51Z</time>
      </trkpt>
      <trkpt lat="43.57493" lon="6.39873">
        <ele>514.79998779297</ele>
        <time>2019-10-12T12:23:53Z</time>
      </trkpt>
      <trkpt lat="43.57465" lon="6.39902">
        <ele>512.40002441406</ele>
        <time>2019-10-12T12:23:56Z</time>
      </trkpt>
      <trkpt lat="43.57453" lon="6.3993">
        <ele>510.60000610352</ele>
        <time>2019-10-12T12:23:58Z</time>
      </trkpt>
      <trkpt lat="43.57436" lon="6.39996">
        <ele>506.39999389648</ele>
        <time>2019-10-12T12:24:02Z</time>
      </trkpt>
      <trkpt lat="43.57423" lon="6.40057">
        <ele>503.39999389648</ele>
        <time>2019-10-12T12:24:06Z</time>
      </trkpt>
      <trkpt lat="43.57395" lon="6.40114">
        <ele>499.79998779297</ele>
        <time>2019-10-12T12:24:10Z</time>
      </trkpt>
      <trkpt lat="43.57368" lon="6.40163">
        <ele>496.39999389648</ele>
        <time>2019-10-12T12:24:14Z</time>
      </trkpt>
      <trkpt lat="43.57351" lon="6.40201">
        <ele>494</ele>
        <time>2019-10-12T12:24:17Z</time>
      </trkpt>
      <trkpt lat="43.57332" lon="6.40294">
        <ele>489.20001220703</ele>
        <time>2019-10-12T12:24:23Z</time>
      </trkpt>
      <trkpt lat="43.5732" lon="6.40336">
        <ele>487.20001220703</ele>
        <time>2019-10-12T12:24:26Z</time>
      </trkpt>
      <trkpt lat="43.57283" lon="6.40398">
        <ele>484.20001220703</ele>
        <time>2019-10-12T12:24:31Z</time>
      </trkpt>
      <trkpt lat="43.57259" lon="6.40449">
        <ele>481</ele>
        <time>2019-10-12T12:24:35Z</time>
      </trkpt>
      <trkpt lat="43.57231" lon="6.4049">
        <ele>477.79998779297</ele>
        <time>2019-10-12T12:24:39Z</time>
      </trkpt>
      <trkpt lat="43.57206" lon="6.40518">
        <ele>475.79998779297</ele>
        <time>2019-10-12T12:24:42Z</time>
      </trkpt>
      <trkpt lat="43.57189" lon="6.40558">
        <ele>473.60000610352</ele>
        <time>2019-10-12T12:24:45Z</time>
      </trkpt>
      <trkpt lat="43.57186" lon="6.4059">
        <ele>472.20001220703</ele>
        <time>2019-10-12T12:24:47Z</time>
      </trkpt>
      <trkpt lat="43.57185" lon="6.40669">
        <ele>467.79998779297</ele>
        <time>2019-10-12T12:24:52Z</time>
      </trkpt>
      <trkpt lat="43.5718" lon="6.40702">
        <ele>466.20001220703</ele>
        <time>2019-10-12T12:24:54Z</time>
      </trkpt>
      <trkpt lat="43.57167" lon="6.40742">
        <ele>464.39999389648</ele>
        <time>2019-10-12T12:24:57Z</time>
      </trkpt>
      <trkpt lat="43.57152" lon="6.40765">
        <ele>463</ele>
        <time>2019-10-12T12:24:59Z</time>
      </trkpt>
      <trkpt lat="43.57135" lon="6.40803">
        <ele>460.79998779297</ele>
        <time>2019-10-12T12:25:02Z</time>
      </trkpt>
      <trkpt lat="43.57122" lon="6.40862">
        <ele>457.79998779297</ele>
        <time>2019-10-12T12:25:06Z</time>
      </trkpt>
      <trkpt lat="43.57118" lon="6.40893">
        <ele>456</ele>
        <time>2019-10-12T12:25:08Z</time>
      </trkpt>
      <trkpt lat="43.57099" lon="6.40981">
        <ele>451.39999389648</ele>
        <time>2019-10-12T12:25:14Z</time>
      </trkpt>
      <trkpt lat="43.57077" lon="6.41029">
        <ele>448.79998779297</ele>
        <time>2019-10-12T12:25:18Z</time>
      </trkpt>
      <trkpt lat="43.57032" lon="6.41074">
        <ele>445.79998779297</ele>
        <time>2019-10-12T12:25:23Z</time>
      </trkpt>
      <trkpt lat="43.56999" lon="6.41086">
        <ele>443.79998779297</ele>
        <time>2019-10-12T12:25:26Z</time>
      </trkpt>
      <trkpt lat="43.56943" lon="6.41107">
        <ele>440</ele>
        <time>2019-10-12T12:25:31Z</time>
      </trkpt>
      <trkpt lat="43.56923" lon="6.41122">
        <ele>438.39999389648</ele>
        <time>2019-10-12T12:25:33Z</time>
      </trkpt>
      <trkpt lat="43.56884" lon="6.4115">
        <ele>435.39999389648</ele>
        <time>2019-10-12T12:25:37Z</time>
      </trkpt>
      <trkpt lat="43.56857" lon="6.41158">
        <ele>433</ele>
        <time>2019-10-12T12:25:40Z</time>
      </trkpt>
      <trkpt lat="43.56794" lon="6.41164">
        <ele>429.20001220703</ele>
        <time>2019-10-12T12:25:45Z</time>
      </trkpt>
      <trkpt lat="43.56757" lon="6.41167">
        <ele>427.79998779297</ele>
        <time>2019-10-12T12:25:48Z</time>
      </trkpt>
      <trkpt lat="43.56704" lon="6.41162">
        <ele>423.79998779297</ele>
        <time>2019-10-12T12:25:53Z</time>
      </trkpt>
      <trkpt lat="43.56672" lon="6.41147">
        <ele>421.60000610352</ele>
        <time>2019-10-12T12:25:56Z</time>
      </trkpt>
      <trkpt lat="43.56628" lon="6.41131">
        <ele>419.20001220703</ele>
        <time>2019-10-12T12:26:00Z</time>
      </trkpt>
      <trkpt lat="43.56589" lon="6.41118">
        <ele>416</ele>
        <time>2019-10-12T12:26:04Z</time>
      </trkpt>
      <trkpt lat="43.56556" lon="6.41106">
        <ele>413.79998779297</ele>
        <time>2019-10-12T12:26:07Z</time>
      </trkpt>
      <trkpt lat="43.56512" lon="6.41099">
        <ele>410.79998779297</ele>
        <time>2019-10-12T12:26:11Z</time>
      </trkpt>
      <trkpt lat="43.56491" lon="6.41098">
        <ele>410.20001220703</ele>
        <time>2019-10-12T12:26:13Z</time>
      </trkpt>
      <trkpt lat="43.56453" lon="6.41052">
        <ele>407.39999389648</ele>
        <time>2019-10-12T12:26:17Z</time>
      </trkpt>
      <trkpt lat="43.56421" lon="6.4101">
        <ele>404.20001220703</ele>
        <time>2019-10-12T12:26:21Z</time>
      </trkpt>
      <trkpt lat="43.5639" lon="6.41003">
        <ele>401.79998779297</ele>
        <time>2019-10-12T12:26:24Z</time>
      </trkpt>
      <trkpt lat="43.56368" lon="6.41001">
        <ele>400.39999389648</ele>
        <time>2019-10-12T12:26:26Z</time>
      </trkpt>
      <trkpt lat="43.56337" lon="6.40986">
        <ele>398.20001220703</ele>
        <time>2019-10-12T12:26:29Z</time>
      </trkpt>
      <trkpt lat="43.56297" lon="6.40962">
        <ele>394.39999389648</ele>
        <time>2019-10-12T12:26:33Z</time>
      </trkpt>
      <trkpt lat="43.56257" lon="6.40933">
        <ele>390.79998779297</ele>
        <time>2019-10-12T12:26:37Z</time>
      </trkpt>
      <trkpt lat="43.56212" lon="6.40884">
        <ele>388.20001220703</ele>
        <time>2019-10-12T12:26:42Z</time>
      </trkpt>
      <trkpt lat="43.56197" lon="6.4087">
        <ele>386.79998779297</ele>
        <time>2019-10-12T12:26:44Z</time>
      </trkpt>
      <trkpt lat="43.56161" lon="6.4088">
        <ele>382.60000610352</ele>
        <time>2019-10-12T12:26:49Z</time>
      </trkpt>
      <trkpt lat="43.56153" lon="6.40915">
        <ele>380.20001220703</ele>
        <time>2019-10-12T12:26:52Z</time>
      </trkpt>
      <trkpt lat="43.56158" lon="6.4099">
        <ele>376.20001220703</ele>
        <time>2019-10-12T12:26:58Z</time>
      </trkpt>
      <trkpt lat="43.56171" lon="6.4103">
        <ele>374.60000610352</ele>
        <time>2019-10-12T12:27:01Z</time>
      </trkpt>
      <trkpt lat="43.5618" lon="6.41074">
        <ele>372.79998779297</ele>
        <time>2019-10-12T12:27:05Z</time>
      </trkpt>
      <trkpt lat="43.56197" lon="6.4108">
        <ele>371.20001220703</ele>
        <time>2019-10-12T12:27:07Z</time>
      </trkpt>
      <trkpt lat="43.56223" lon="6.41069">
        <ele>369.20001220703</ele>
        <time>2019-10-12T12:27:10Z</time>
      </trkpt>
      <trkpt lat="43.5624" lon="6.41069">
        <ele>367.60000610352</ele>
        <time>2019-10-12T12:27:12Z</time>
      </trkpt>
      <trkpt lat="43.56265" lon="6.41088">
        <ele>365.60000610352</ele>
        <time>2019-10-12T12:27:15Z</time>
      </trkpt>
      <trkpt lat="43.56291" lon="6.4113">
        <ele>363.20001220703</ele>
        <time>2019-10-12T12:27:19Z</time>
      </trkpt>
      <trkpt lat="43.56311" lon="6.41179">
        <ele>360.39999389648</ele>
        <time>2019-10-12T12:27:23Z</time>
      </trkpt>
      <trkpt lat="43.56341" lon="6.41202">
        <ele>357.60000610352</ele>
        <time>2019-10-12T12:27:27Z</time>
      </trkpt>
      <trkpt lat="43.56354" lon="6.41207">
        <ele>357.20001220703</ele>
        <time>2019-10-12T12:27:29Z</time>
      </trkpt>
      <trkpt lat="43.56369" lon="6.41239">
        <ele>355.39999389648</ele>
        <time>2019-10-12T12:27:32Z</time>
      </trkpt>
      <trkpt lat="43.56393" lon="6.41287">
        <ele>352.39999389648</ele>
        <time>2019-10-12T12:27:36Z</time>
      </trkpt>
      <trkpt lat="43.5644" lon="6.41348">
        <ele>347.60000610352</ele>
        <time>2019-10-12T12:27:43Z</time>
      </trkpt>
      <trkpt lat="43.56459" lon="6.41357">
        <ele>346</ele>
        <time>2019-10-12T12:27:45Z</time>
      </trkpt>
      <trkpt lat="43.56487" lon="6.41361">
        <ele>344.60000610352</ele>
        <time>2019-10-12T12:27:48Z</time>
      </trkpt>
      <trkpt lat="43.56515" lon="6.41369">
        <ele>343.79998779297</ele>
        <time>2019-10-12T12:27:51Z</time>
      </trkpt>
      <trkpt lat="43.56553" lon="6.41399">
        <ele>342.20001220703</ele>
        <time>2019-10-12T12:27:56Z</time>
      </trkpt>
      <trkpt lat="43.56571" lon="6.41421">
        <ele>340.39999389648</ele>
        <time>2019-10-12T12:27:59Z</time>
      </trkpt>
      <trkpt lat="43.56594" lon="6.41451">
        <ele>338.20001220703</ele>
        <time>2019-10-12T12:28:03Z</time>
      </trkpt>
      <trkpt lat="43.56605" lon="6.41469">
        <ele>336.79998779297</ele>
        <time>2019-10-12T12:28:06Z</time>
      </trkpt>
      <trkpt lat="43.56628" lon="6.41515">
        <ele>333.39999389648</ele>
        <time>2019-10-12T12:28:12Z</time>
      </trkpt>
      <trkpt lat="43.56648" lon="6.41544">
        <ele>331.39999389648</ele>
        <time>2019-10-12T12:28:16Z</time>
      </trkpt>
      <trkpt lat="43.56685" lon="6.41557">
        <ele>330</ele>
        <time>2019-10-12T12:28:21Z</time>
      </trkpt>
      <trkpt lat="43.56702" lon="6.41552">
        <ele>329.20001220703</ele>
        <time>2019-10-12T12:28:23Z</time>
      </trkpt>
      <trkpt lat="43.56723" lon="6.41542">
        <ele>328</ele>
        <time>2019-10-12T12:28:26Z</time>
      </trkpt>
      <trkpt lat="43.56741" lon="6.41549">
        <ele>326.79998779297</ele>
        <time>2019-10-12T12:28:29Z</time>
      </trkpt>
      <trkpt lat="43.56753" lon="6.41563">
        <ele>325.39999389648</ele>
        <time>2019-10-12T12:28:31Z</time>
      </trkpt>
      <trkpt lat="43.56784" lon="6.41607">
        <ele>322.60000610352</ele>
        <time>2019-10-12T12:28:36Z</time>
      </trkpt>
      <trkpt lat="43.56809" lon="6.41642">
        <ele>320</ele>
        <time>2019-10-12T12:28:40Z</time>
      </trkpt>
      <trkpt lat="43.56828" lon="6.41668">
        <ele>317.60000610352</ele>
        <time>2019-10-12T12:28:43Z</time>
      </trkpt>
      <trkpt lat="43.56845" lon="6.4169">
        <ele>316.39999389648</ele>
        <time>2019-10-12T12:28:47Z</time>
      </trkpt>
      <trkpt lat="43.56839" lon="6.41696">
        <ele>314</ele>
        <time>2019-10-12T12:28:51Z</time>
      </trkpt>
      <trkpt lat="43.56797" lon="6.41673">
        <ele>310.60000610352</ele>
        <time>2019-10-12T12:28:57Z</time>
      </trkpt>
      <trkpt lat="43.56759" lon="6.41645">
        <ele>308.79998779297</ele>
        <time>2019-10-12T12:29:02Z</time>
      </trkpt>
      <trkpt lat="43.56738" lon="6.41632">
        <ele>308</ele>
        <time>2019-10-12T12:29:05Z</time>
      </trkpt>
      <trkpt lat="43.56709" lon="6.41641">
        <ele>306.39999389648</ele>
        <time>2019-10-12T12:29:08Z</time>
      </trkpt>
      <trkpt lat="43.56684" lon="6.41661">
        <ele>305.60000610352</ele>
        <time>2019-10-12T12:29:11Z</time>
      </trkpt>
      <trkpt lat="43.56646" lon="6.41686">
        <ele>303.20001220703</ele>
        <time>2019-10-12T12:29:15Z</time>
      </trkpt>
      <trkpt lat="43.56607" lon="6.41709">
        <ele>300.79998779297</ele>
        <time>2019-10-12T12:29:20Z</time>
      </trkpt>
      <trkpt lat="43.56577" lon="6.41695">
        <ele>298.60000610352</ele>
        <time>2019-10-12T12:29:23Z</time>
      </trkpt>
      <trkpt lat="43.56537" lon="6.41701">
        <ele>296.39999389648</ele>
        <time>2019-10-12T12:29:27Z</time>
      </trkpt>
      <trkpt lat="43.5651" lon="6.4171">
        <ele>294.20001220703</ele>
        <time>2019-10-12T12:29:30Z</time>
      </trkpt>
      <trkpt lat="43.56473" lon="6.41695">
        <ele>291.39999389648</ele>
        <time>2019-10-12T12:29:34Z</time>
      </trkpt>
      <trkpt lat="43.56427" lon="6.41663">
        <ele>289</ele>
        <time>2019-10-12T12:29:39Z</time>
      </trkpt>
      <trkpt lat="43.5639" lon="6.41642">
        <ele>286.20001220703</ele>
        <time>2019-10-12T12:29:43Z</time>
      </trkpt>
      <trkpt lat="43.56366" lon="6.41622">
        <ele>284.20001220703</ele>
        <time>2019-10-12T12:29:46Z</time>
      </trkpt>
      <trkpt lat="43.56354" lon="6.41614">
        <ele>282</ele>
        <time>2019-10-12T12:29:49Z</time>
      </trkpt>
      <trkpt lat="43.56345" lon="6.41619">
        <ele>280.39999389648</ele>
        <time>2019-10-12T12:29:51Z</time>
      </trkpt>
      <trkpt lat="43.56322" lon="6.4166">
        <ele>277</ele>
        <time>2019-10-12T12:29:56Z</time>
      </trkpt>
      <trkpt lat="43.5629" lon="6.41657">
        <ele>275.39999389648</ele>
        <time>2019-10-12T12:29:59Z</time>
      </trkpt>
      <trkpt lat="43.56266" lon="6.41652">
        <ele>274.60000610352</ele>
        <time>2019-10-12T12:30:02Z</time>
      </trkpt>
      <trkpt lat="43.56259" lon="6.4167">
        <ele>272.79998779297</ele>
        <time>2019-10-12T12:30:05Z</time>
      </trkpt>
      <trkpt lat="43.5627" lon="6.41685">
        <ele>271.39999389648</ele>
        <time>2019-10-12T12:30:07Z</time>
      </trkpt>
      <trkpt lat="43.56295" lon="6.41707">
        <ele>269</ele>
        <time>2019-10-12T12:30:11Z</time>
      </trkpt>
      <trkpt lat="43.56308" lon="6.41733">
        <ele>267.79998779297</ele>
        <time>2019-10-12T12:30:14Z</time>
      </trkpt>
      <trkpt lat="43.56335" lon="6.41795">
        <ele>266.20001220703</ele>
        <time>2019-10-12T12:30:20Z</time>
      </trkpt>
      <trkpt lat="43.56363" lon="6.41821">
        <ele>265</ele>
        <time>2019-10-12T12:30:24Z</time>
      </trkpt>
      <trkpt lat="43.56384" lon="6.41845">
        <ele>264</ele>
        <time>2019-10-12T12:30:27Z</time>
      </trkpt>
      <trkpt lat="43.56398" lon="6.41895">
        <ele>262.20001220703</ele>
        <time>2019-10-12T12:30:31Z</time>
      </trkpt>
      <trkpt lat="43.56394" lon="6.41951">
        <ele>260.39999389648</ele>
        <time>2019-10-12T12:30:35Z</time>
      </trkpt>
      <trkpt lat="43.56382" lon="6.41988">
        <ele>258.20001220703</ele>
        <time>2019-10-12T12:30:38Z</time>
      </trkpt>
      <trkpt lat="43.56359" lon="6.42033">
        <ele>255.39999389648</ele>
        <time>2019-10-12T12:30:42Z</time>
      </trkpt>
      <trkpt lat="43.56329" lon="6.42081">
        <ele>252.80000305176</ele>
        <time>2019-10-12T12:30:46Z</time>
      </trkpt>
      <trkpt lat="43.563" lon="6.42124">
        <ele>249.60000610352</ele>
        <time>2019-10-12T12:30:50Z</time>
      </trkpt>
      <trkpt lat="43.56266" lon="6.42155">
        <ele>247.19999694824</ele>
        <time>2019-10-12T12:30:54Z</time>
      </trkpt>
      <trkpt lat="43.56244" lon="6.42154">
        <ele>245.80000305176</ele>
        <time>2019-10-12T12:30:56Z</time>
      </trkpt>
      <trkpt lat="43.56198" lon="6.42148">
        <ele>243</ele>
        <time>2019-10-12T12:31:00Z</time>
      </trkpt>
      <trkpt lat="43.56168" lon="6.42157">
        <ele>240.39999389648</ele>
        <time>2019-10-12T12:31:03Z</time>
      </trkpt>
      <trkpt lat="43.56131" lon="6.42185">
        <ele>237.19999694824</ele>
        <time>2019-10-12T12:31:07Z</time>
      </trkpt>
      <trkpt lat="43.56117" lon="6.42204">
        <ele>235.60000610352</ele>
        <time>2019-10-12T12:31:09Z</time>
      </trkpt>
      <trkpt lat="43.56102" lon="6.42255">
        <ele>233</ele>
        <time>2019-10-12T12:31:13Z</time>
      </trkpt>
      <trkpt lat="43.56074" lon="6.42275">
        <ele>231</ele>
        <time>2019-10-12T12:31:17Z</time>
      </trkpt>
      <trkpt lat="43.56056" lon="6.42297">
        <ele>228</ele>
        <time>2019-10-12T12:31:20Z</time>
      </trkpt>
      <trkpt lat="43.56052" lon="6.4232">
        <ele>226</ele>
        <time>2019-10-12T12:31:22Z</time>
      </trkpt>
      <trkpt lat="43.56047" lon="6.42355">
        <ele>223.80000305176</ele>
        <time>2019-10-12T12:31:25Z</time>
      </trkpt>
      <trkpt lat="43.56036" lon="6.42382">
        <ele>222.19999694824</ele>
        <time>2019-10-12T12:31:27Z</time>
      </trkpt>
      <trkpt lat="43.56004" lon="6.42458">
        <ele>216.80000305176</ele>
        <time>2019-10-12T12:31:34Z</time>
      </trkpt>
      <trkpt lat="43.55974" lon="6.42491">
        <ele>214.80000305176</ele>
        <time>2019-10-12T12:31:39Z</time>
      </trkpt>
      <trkpt lat="43.55951" lon="6.42515">
        <ele>214.39999389648</ele>
        <time>2019-10-12T12:31:43Z</time>
      </trkpt>
      <trkpt lat="43.5592" lon="6.42556">
        <ele>214.60000610352</ele>
        <time>2019-10-12T12:31:50Z</time>
      </trkpt>
      <trkpt lat="43.55892" lon="6.42598">
        <ele>214.60000610352</ele>
        <time>2019-10-12T12:31:57Z</time>
      </trkpt>
      <trkpt lat="43.55879" lon="6.42629">
        <ele>214.80000305176</ele>
        <time>2019-10-12T12:32:01Z</time>
      </trkpt>
      <trkpt lat="43.55877" lon="6.42656">
        <ele>214.39999389648</ele>
        <time>2019-10-12T12:32:04Z</time>
      </trkpt>
      <trkpt lat="43.55862" lon="6.42686">
        <ele>214.19999694824</ele>
        <time>2019-10-12T12:32:08Z</time>
      </trkpt>
      <trkpt lat="43.55821" lon="6.42724">
        <ele>212.19999694824</ele>
        <time>2019-10-12T12:32:15Z</time>
      </trkpt>
      <trkpt lat="43.55771" lon="6.42777">
        <ele>211</ele>
        <time>2019-10-12T12:32:25Z</time>
      </trkpt>
      <trkpt lat="43.55746" lon="6.42806">
        <ele>210.80000305176</ele>
        <time>2019-10-12T12:32:30Z</time>
      </trkpt>
      <trkpt lat="43.55681" lon="6.42876">
        <ele>209.19999694824</ele>
        <time>2019-10-12T12:32:43Z</time>
      </trkpt>
      <trkpt lat="43.55672" lon="6.42897">
        <ele>208.80000305176</ele>
        <time>2019-10-12T12:32:46Z</time>
      </trkpt>
      <trkpt lat="43.55659" lon="6.42973">
        <ele>208.19999694824</ele>
        <time>2019-10-12T12:32:55Z</time>
      </trkpt>
      <trkpt lat="43.55633" lon="6.43016">
        <ele>208.19999694824</ele>
        <time>2019-10-12T12:33:02Z</time>
      </trkpt>
      <trkpt lat="43.55612" lon="6.43044">
        <ele>208.19999694824</ele>
        <time>2019-10-12T12:33:07Z</time>
      </trkpt>
      <trkpt lat="43.55564" lon="6.43116">
        <ele>208.19999694824</ele>
        <time>2019-10-12T12:33:19Z</time>
      </trkpt>
      <trkpt lat="43.55528" lon="6.43169">
        <ele>208.19999694824</ele>
        <time>2019-10-12T12:33:28Z</time>
      </trkpt>
      <trkpt lat="43.55453" lon="6.43273">
        <ele>207.19999694824</ele>
        <time>2019-10-12T12:33:45Z</time>
      </trkpt>
      <trkpt lat="43.55435" lon="6.43311">
        <ele>207</ele>
        <time>2019-10-12T12:33:50Z</time>
      </trkpt>
      <trkpt lat="43.55408" lon="6.43411">
        <ele>206.60000610352</ele>
        <time>2019-10-12T12:34:02Z</time>
      </trkpt>
      <trkpt lat="43.5539" lon="6.43477">
        <ele>206.39999389648</ele>
        <time>2019-10-12T12:34:10Z</time>
      </trkpt>
      <trkpt lat="43.55374" lon="6.43501">
        <ele>206.60000610352</ele>
        <time>2019-10-12T12:34:15Z</time>
      </trkpt>
      <trkpt lat="43.55353" lon="6.43522">
        <ele>207.60000610352</ele>
        <time>2019-10-12T12:34:21Z</time>
      </trkpt>
      <trkpt lat="43.55317" lon="6.43556">
        <ele>208.80000305176</ele>
        <time>2019-10-12T12:34:31Z</time>
      </trkpt>
      <trkpt lat="43.55279" lon="6.43595">
        <ele>209.39999389648</ele>
        <time>2019-10-12T12:34:42Z</time>
      </trkpt>
      <trkpt lat="43.55261" lon="6.43624">
        <ele>210</ele>
        <time>2019-10-12T12:34:48Z</time>
      </trkpt>
      <trkpt lat="43.55252" lon="6.43656">
        <ele>211.19999694824</ele>
        <time>2019-10-12T12:34:54Z</time>
      </trkpt>
      <trkpt lat="43.5524" lon="6.43702">
        <ele>212.60000610352</ele>
        <time>2019-10-12T12:35:03Z</time>
      </trkpt>
      <trkpt lat="43.55226" lon="6.43745">
        <ele>214</ele>
        <time>2019-10-12T12:35:13Z</time>
      </trkpt>
      <trkpt lat="43.55198" lon="6.43803">
        <ele>216.60000610352</ele>
        <time>2019-10-12T12:35:29Z</time>
      </trkpt>
      <trkpt lat="43.55153" lon="6.43871">
        <ele>218</ele>
        <time>2019-10-12T12:35:45Z</time>
      </trkpt>
      <trkpt lat="43.55132" lon="6.43905">
        <ele>218.19999694824</ele>
        <time>2019-10-12T12:35:52Z</time>
      </trkpt>
      <trkpt lat="43.55112" lon="6.43948">
        <ele>217.80000305176</ele>
        <time>2019-10-12T12:35:59Z</time>
      </trkpt>
      <trkpt lat="43.55087" lon="6.44023">
        <ele>217.80000305176</ele>
        <time>2019-10-12T12:36:10Z</time>
      </trkpt>
      <trkpt lat="43.55029" lon="6.44159">
        <ele>218.80000305176</ele>
        <time>2019-10-12T12:36:31Z</time>
      </trkpt>
      <trkpt lat="43.55" lon="6.442">
        <ele>218.19999694824</ele>
        <time>2019-10-12T12:36:38Z</time>
      </trkpt>
      <trkpt lat="43.54955" lon="6.44258">
        <ele>217.39999389648</ele>
        <time>2019-10-12T12:36:49Z</time>
      </trkpt>
      <trkpt lat="43.5494" lon="6.44281">
        <ele>217.60000610352</ele>
        <time>2019-10-12T12:36:53Z</time>
      </trkpt>
      <trkpt lat="43.54926" lon="6.4431">
        <ele>218</ele>
        <time>2019-10-12T12:37:00Z</time>
      </trkpt>
      <trkpt lat="43.54924" lon="6.44315">
        <ele>217.60000610352</ele>
        <time>2019-10-12T12:39:03Z</time>
      </trkpt>
      <trkpt lat="43.54912" lon="6.44341">
        <ele>217.39999389648</ele>
        <time>2019-10-12T12:39:10Z</time>
      </trkpt>
      <trkpt lat="43.54874" lon="6.44398">
        <ele>218</ele>
        <time>2019-10-12T12:39:25Z</time>
      </trkpt>
      <trkpt lat="43.54856" lon="6.44414">
        <ele>218.39999389648</ele>
        <time>2019-10-12T12:39:32Z</time>
      </trkpt>
      <trkpt lat="43.54818" lon="6.44435">
        <ele>218.60000610352</ele>
        <time>2019-10-12T12:39:42Z</time>
      </trkpt>
      <trkpt lat="43.54813" lon="6.44448">
        <ele>218.60000610352</ele>
        <time>2019-10-12T12:39:44Z</time>
      </trkpt>
      <trkpt lat="43.54821" lon="6.44474">
        <ele>218.60000610352</ele>
        <time>2019-10-12T12:39:48Z</time>
      </trkpt>
      <trkpt lat="43.54826" lon="6.44495">
        <ele>218.60000610352</ele>
        <time>2019-10-12T12:39:52Z</time>
      </trkpt>
      <trkpt lat="43.54828" lon="6.44542">
        <ele>218.80000305176</ele>
        <time>2019-10-12T12:40:01Z</time>
      </trkpt>
      <trkpt lat="43.54823" lon="6.44573">
        <ele>220</ele>
        <time>2019-10-12T12:40:07Z</time>
      </trkpt>
      <trkpt lat="43.54812" lon="6.44628">
        <ele>221.39999389648</ele>
        <time>2019-10-12T12:40:18Z</time>
      </trkpt>
      <trkpt lat="43.54802" lon="6.4466">
        <ele>222.19999694824</ele>
        <time>2019-10-12T12:40:24Z</time>
      </trkpt>
      <trkpt lat="43.54778" lon="6.44685">
        <ele>222.60000610352</ele>
        <time>2019-10-12T12:40:31Z</time>
      </trkpt>
      <trkpt lat="43.5477" lon="6.44688">
        <ele>222.60000610352</ele>
        <time>2019-10-12T12:40:33Z</time>
      </trkpt>
      <trkpt lat="43.5474" lon="6.44693">
        <ele>222.60000610352</ele>
        <time>2019-10-12T12:40:39Z</time>
      </trkpt>
      <trkpt lat="43.54717" lon="6.44696">
        <ele>222</ele>
        <time>2019-10-12T12:40:43Z</time>
      </trkpt>
      <trkpt lat="43.54693" lon="6.44698">
        <ele>221.60000610352</ele>
        <time>2019-10-12T12:40:47Z</time>
      </trkpt>
      <trkpt lat="43.54642" lon="6.44741">
        <ele>220</ele>
        <time>2019-10-12T12:40:57Z</time>
      </trkpt>
      <trkpt lat="43.54637" lon="6.44758">
        <ele>219.60000610352</ele>
        <time>2019-10-12T12:40:59Z</time>
      </trkpt>
      <trkpt lat="43.54627" lon="6.44794">
        <ele>218.80000305176</ele>
        <time>2019-10-12T12:41:03Z</time>
      </trkpt>
      <trkpt lat="43.54621" lon="6.44825">
        <ele>218.39999389648</ele>
        <time>2019-10-12T12:41:06Z</time>
      </trkpt>
      <trkpt lat="43.54627" lon="6.44898">
        <ele>216.19999694824</ele>
        <time>2019-10-12T12:41:12Z</time>
      </trkpt>
      <trkpt lat="43.54641" lon="6.44977">
        <ele>213.19999694824</ele>
        <time>2019-10-12T12:41:19Z</time>
      </trkpt>
      <trkpt lat="43.54648" lon="6.45049">
        <ele>211.39999389648</ele>
        <time>2019-10-12T12:41:26Z</time>
      </trkpt>
      <trkpt lat="43.54642" lon="6.45073">
        <ele>211.19999694824</ele>
        <time>2019-10-12T12:41:29Z</time>
      </trkpt>
      <trkpt lat="43.54639" lon="6.451">
        <ele>211</ele>
        <time>2019-10-12T12:41:32Z</time>
      </trkpt>
      <trkpt lat="43.54638" lon="6.45122">
        <ele>211.19999694824</ele>
        <time>2019-10-12T12:41:35Z</time>
      </trkpt>
      <trkpt lat="43.54627" lon="6.45189">
        <ele>211.19999694824</ele>
        <time>2019-10-12T12:41:43Z</time>
      </trkpt>
      <trkpt lat="43.54616" lon="6.45216">
        <ele>211</ele>
        <time>2019-10-12T12:41:47Z</time>
      </trkpt>
      <trkpt lat="43.54594" lon="6.45263">
        <ele>211.19999694824</ele>
        <time>2019-10-12T12:41:54Z</time>
      </trkpt>
      <trkpt lat="43.54571" lon="6.45315">
        <ele>211.19999694824</ele>
        <time>2019-10-12T12:42:02Z</time>
      </trkpt>
      <trkpt lat="43.54557" lon="6.45354">
        <ele>211.60000610352</ele>
        <time>2019-10-12T12:42:08Z</time>
      </trkpt>
      <trkpt lat="43.54547" lon="6.45407">
        <ele>212.19999694824</ele>
        <time>2019-10-12T12:42:17Z</time>
      </trkpt>
      <trkpt lat="43.54537" lon="6.45441">
        <ele>212.60000610352</ele>
        <time>2019-10-12T12:42:23Z</time>
      </trkpt>
      <trkpt lat="43.54519" lon="6.45488">
        <ele>213.80000305176</ele>
        <time>2019-10-12T12:42:32Z</time>
      </trkpt>
      <trkpt lat="43.54502" lon="6.45523">
        <ele>215</ele>
        <time>2019-10-12T12:42:39Z</time>
      </trkpt>
      <trkpt lat="43.5444" lon="6.45578">
        <ele>216</ele>
        <time>2019-10-12T12:42:55Z</time>
      </trkpt>
      <trkpt lat="43.54424" lon="6.45592">
        <ele>215.80000305176</ele>
        <time>2019-10-12T12:42:58Z</time>
      </trkpt>
      <trkpt lat="43.5439" lon="6.4563">
        <ele>215.19999694824</ele>
        <time>2019-10-12T12:43:04Z</time>
      </trkpt>
      <trkpt lat="43.5438" lon="6.45644">
        <ele>214.39999389648</ele>
        <time>2019-10-12T12:43:06Z</time>
      </trkpt>
      <trkpt lat="43.5435" lon="6.45695">
        <ele>212.60000610352</ele>
        <time>2019-10-12T12:43:12Z</time>
      </trkpt>
      <trkpt lat="43.5433" lon="6.45749">
        <ele>211</ele>
        <time>2019-10-12T12:43:17Z</time>
      </trkpt>
      <trkpt lat="43.54315" lon="6.45793">
        <ele>209.19999694824</ele>
        <time>2019-10-12T12:43:21Z</time>
      </trkpt>
      <trkpt lat="43.54287" lon="6.45862">
        <ele>205.80000305176</ele>
        <time>2019-10-12T12:43:28Z</time>
      </trkpt>
      <trkpt lat="43.54257" lon="6.45903">
        <ele>203.19999694824</ele>
        <time>2019-10-12T12:43:34Z</time>
      </trkpt>
      <trkpt lat="43.54242" lon="6.45935">
        <ele>201</ele>
        <time>2019-10-12T12:43:41Z</time>
      </trkpt>
      <trkpt lat="43.54236" lon="6.45948">
        <ele>200.39999389648</ele>
        <time>2019-10-12T12:43:44Z</time>
      </trkpt>
      <trkpt lat="43.54217" lon="6.46002">
        <ele>199</ele>
        <time>2019-10-12T12:43:52Z</time>
      </trkpt>
      <trkpt lat="43.54207" lon="6.46031">
        <ele>198.80000305176</ele>
        <time>2019-10-12T12:43:57Z</time>
      </trkpt>
      <trkpt lat="43.54182" lon="6.46089">
        <ele>198</ele>
        <time>2019-10-12T12:44:08Z</time>
      </trkpt>
      <trkpt lat="43.54177" lon="6.46101">
        <ele>197.80000305176</ele>
        <time>2019-10-12T12:44:11Z</time>
      </trkpt>
      <trkpt lat="43.54164" lon="6.46146">
        <ele>198</ele>
        <time>2019-10-12T12:44:20Z</time>
      </trkpt>
      <trkpt lat="43.54161" lon="6.46161">
        <ele>198.19999694824</ele>
        <time>2019-10-12T12:44:23Z</time>
      </trkpt>
      <trkpt lat="43.54155" lon="6.46193">
        <ele>199.19999694824</ele>
        <time>2019-10-12T12:44:30Z</time>
      </trkpt>
      <trkpt lat="43.54152" lon="6.46215">
        <ele>199.80000305176</ele>
        <time>2019-10-12T12:44:35Z</time>
      </trkpt>
      <trkpt lat="43.54141" lon="6.46283">
        <ele>200.39999389648</ele>
        <time>2019-10-12T12:44:48Z</time>
      </trkpt>
      <trkpt lat="43.54139" lon="6.46301">
        <ele>200.39999389648</ele>
        <time>2019-10-12T12:44:52Z</time>
      </trkpt>
      <trkpt lat="43.54134" lon="6.46324">
        <ele>200</ele>
        <time>2019-10-12T12:44:58Z</time>
      </trkpt>
      <trkpt lat="43.54127" lon="6.46354">
        <ele>200.39999389648</ele>
        <time>2019-10-12T12:45:06Z</time>
      </trkpt>
      <trkpt lat="43.54121" lon="6.46385">
        <ele>201</ele>
        <time>2019-10-12T12:45:13Z</time>
      </trkpt>
      <trkpt lat="43.54115" lon="6.46419">
        <ele>202.19999694824</ele>
        <time>2019-10-12T12:45:21Z</time>
      </trkpt>
      <trkpt lat="43.54114" lon="6.46434">
        <ele>203</ele>
        <time>2019-10-12T12:45:24Z</time>
      </trkpt>
      <trkpt lat="43.54107" lon="6.46469">
        <ele>204</ele>
        <time>2019-10-12T12:45:34Z</time>
      </trkpt>
      <trkpt lat="43.5411" lon="6.46478">
        <ele>204.60000610352</ele>
        <time>2019-10-12T12:45:40Z</time>
      </trkpt>
      <trkpt lat="43.54094" lon="6.4649">
        <ele>205</ele>
        <time>2019-10-12T12:45:50Z</time>
      </trkpt>
      <trkpt lat="43.54089" lon="6.46505">
        <ele>205</ele>
        <time>2019-10-12T12:45:56Z</time>
      </trkpt>
      <trkpt lat="43.54084" lon="6.46534">
        <ele>205</ele>
        <time>2019-10-12T12:46:03Z</time>
      </trkpt>
      <trkpt lat="43.54087" lon="6.46537">
        <ele>204.80000305176</ele>
        <time>2019-10-12T12:46:06Z</time>
      </trkpt>
      <trkpt lat="43.54092" lon="6.46542">
        <ele>204.39999389648</ele>
        <time>2019-10-12T12:46:16Z</time>
      </trkpt>
      <trkpt lat="43.54089" lon="6.46539">
        <ele>204.39999389648</ele>
        <time>2019-10-12T12:46:23Z</time>
      </trkpt>
      <trkpt lat="43.54066" lon="6.46519">
        <ele>204.19999694824</ele>
        <time>2019-10-12T12:46:34Z</time>
      </trkpt>
      <trkpt lat="43.5403" lon="6.46488">
        <ele>203.19999694824</ele>
        <time>2019-10-12T12:46:47Z</time>
      </trkpt>
      <trkpt lat="43.54019" lon="6.4648">
        <ele>203</ele>
        <time>2019-10-12T12:46:52Z</time>
      </trkpt>
      <trkpt lat="43.53993" lon="6.46463">
        <ele>201.60000610352</ele>
        <time>2019-10-12T12:47:03Z</time>
      </trkpt>
      <trkpt lat="43.53978" lon="6.46453">
        <ele>200.19999694824</ele>
        <time>2019-10-12T12:47:11Z</time>
      </trkpt>
      <trkpt lat="43.5396" lon="6.46441">
        <ele>199.39999389648</ele>
        <time>2019-10-12T12:47:19Z</time>
      </trkpt>
      <trkpt lat="43.53947" lon="6.46433">
        <ele>198.19999694824</ele>
        <time>2019-10-12T12:47:26Z</time>
      </trkpt>
      <trkpt lat="43.53951" lon="6.46436">
        <ele>197.39999389648</ele>
        <time>2019-10-12T12:47:33Z</time>
      </trkpt>
      <trkpt lat="43.53951" lon="6.46436">
        <ele>197.39999389648</ele>
        <time>2019-10-12T12:47:37Z</time>
      </trkpt>
      <trkpt lat="43.53928" lon="6.46467">
        <ele>197.60000610352</ele>
        <time>2019-10-12T12:47:44Z</time>
      </trkpt>
      <trkpt lat="43.53909" lon="6.465">
        <ele>197.60000610352</ele>
        <time>2019-10-12T12:47:53Z</time>
      </trkpt>
      <trkpt lat="43.53886" lon="6.46483">
        <ele>197</ele>
        <time>2019-10-12T12:48:03Z</time>
      </trkpt>
      <trkpt lat="43.53882" lon="6.46478">
        <ele>196</ele>
        <time>2019-10-12T12:48:07Z</time>
      </trkpt>
      <trkpt lat="43.53879" lon="6.46475">
        <ele>195.19999694824</ele>
        <time>2019-10-12T12:48:10Z</time>
      </trkpt>
      <trkpt lat="43.53862" lon="6.46484">
        <ele>194</ele>
        <time>2019-10-12T12:48:22Z</time>
      </trkpt>
      <trkpt lat="43.53854" lon="6.46506">
        <ele>193.80000305176</ele>
        <time>2019-10-12T12:48:30Z</time>
      </trkpt>
      <trkpt lat="43.53844" lon="6.46528">
        <ele>192.80000305176</ele>
        <time>2019-10-12T12:48:41Z</time>
      </trkpt>
      <trkpt lat="43.53841" lon="6.46533">
        <ele>192.19999694824</ele>
        <time>2019-10-12T12:48:47Z</time>
      </trkpt>
      <trkpt lat="43.53843" lon="6.46526">
        <ele>191.80000305176</ele>
        <time>2019-10-12T12:48:52Z</time>
      </trkpt>
      <trkpt lat="43.53849" lon="6.46518">
        <ele>191.60000610352</ele>
        <time>2019-10-12T12:49:00Z</time>
      </trkpt>
      <trkpt lat="43.53855" lon="6.46504">
        <ele>192.19999694824</ele>
        <time>2019-10-12T12:49:06Z</time>
      </trkpt>
      <trkpt lat="43.53857" lon="6.46498">
        <ele>192.39999389648</ele>
        <time>2019-10-12T12:49:10Z</time>
      </trkpt>
      <trkpt lat="43.53862" lon="6.46486">
        <ele>193.19999694824</ele>
        <time>2019-10-12T12:49:17Z</time>
      </trkpt>
      <trkpt lat="43.53871" lon="6.46471">
        <ele>193.80000305176</ele>
        <time>2019-10-12T12:49:25Z</time>
      </trkpt>
      <trkpt lat="43.53873" lon="6.46468">
        <ele>194.39999389648</ele>
        <time>2019-10-12T12:49:42Z</time>
      </trkpt>
      <trkpt lat="43.53873" lon="6.46468">
        <ele>194.39999389648</ele>
        <time>2019-10-12T12:49:44Z</time>
      </trkpt>
      <trkpt lat="43.53914" lon="6.4643">
        <ele>195</ele>
        <time>2019-10-12T12:49:57Z</time>
      </trkpt>
      <trkpt lat="43.53914" lon="6.4638">
        <ele>195.39999389648</ele>
        <time>2019-10-12T12:50:12Z</time>
      </trkpt>
      <trkpt lat="43.53916" lon="6.46374">
        <ele>195.39999389648</ele>
        <time>2019-10-12T12:50:17Z</time>
      </trkpt>
      <trkpt lat="43.53925" lon="6.46352">
        <ele>195.60000610352</ele>
        <time>2019-10-12T12:50:28Z</time>
      </trkpt>
      <trkpt lat="43.53936" lon="6.46334">
        <ele>195.80000305176</ele>
        <time>2019-10-12T12:50:37Z</time>
      </trkpt>
      <trkpt lat="43.53942" lon="6.46322">
        <ele>195.19999694824</ele>
        <time>2019-10-12T12:50:51Z</time>
      </trkpt>
      <trkpt lat="43.5393" lon="6.46313">
        <ele>195.19999694824</ele>
        <time>2019-10-12T12:50:56Z</time>
      </trkpt>
      <trkpt lat="43.53922" lon="6.46306">
        <ele>195</ele>
        <time>2019-10-12T12:51:05Z</time>
      </trkpt>
      <trkpt lat="43.53903" lon="6.46287">
        <ele>194.80000305176</ele>
        <time>2019-10-12T12:51:13Z</time>
      </trkpt>
      <trkpt lat="43.53887" lon="6.46272">
        <ele>193.80000305176</ele>
        <time>2019-10-12T12:51:25Z</time>
      </trkpt>
      <trkpt lat="43.53884" lon="6.4627">
        <ele>193.60000610352</ele>
        <time>2019-10-12T12:51:28Z</time>
      </trkpt>
      <trkpt lat="43.53884" lon="6.4627">
        <ele>193.19999694824</ele>
        <time>2019-10-12T12:51:32Z</time>
      </trkpt>
      <trkpt lat="43.53884" lon="6.4627">
        <ele>193</ele>
        <time>2019-10-12T12:51:37Z</time>
      </trkpt>
      <trkpt lat="43.5387" lon="6.46256">
        <ele>193.19999694824</ele>
        <time>2019-10-12T13:17:31Z</time>
      </trkpt>
      <trkpt lat="43.53865" lon="6.46254">
        <ele>194.39999389648</ele>
        <time>2019-10-12T13:23:03Z</time>
      </trkpt>
      <trkpt lat="43.5385" lon="6.4624">
        <ele>194.39999389648</ele>
        <time>2019-10-12T13:23:10Z</time>
      </trkpt>
      <trkpt lat="43.53825" lon="6.46218">
        <ele>193.80000305176</ele>
        <time>2019-10-12T13:23:16Z</time>
      </trkpt>
      <trkpt lat="43.53808" lon="6.46202">
        <ele>193.60000610352</ele>
        <time>2019-10-12T13:23:20Z</time>
      </trkpt>
      <trkpt lat="43.5379" lon="6.46185">
        <ele>191.80000305176</ele>
        <time>2019-10-12T13:23:32Z</time>
      </trkpt>
      <trkpt lat="43.53786" lon="6.46174">
        <ele>191.60000610352</ele>
        <time>2019-10-12T13:23:36Z</time>
      </trkpt>
      <trkpt lat="43.53761" lon="6.46221">
        <ele>191.19999694824</ele>
        <time>2019-10-12T13:23:50Z</time>
      </trkpt>
      <trkpt lat="43.53749" lon="6.46243">
        <ele>191</ele>
        <time>2019-10-12T13:23:55Z</time>
      </trkpt>
      <trkpt lat="43.53728" lon="6.46279">
        <ele>190.60000610352</ele>
        <time>2019-10-12T13:24:09Z</time>
      </trkpt>
      <trkpt lat="43.53712" lon="6.46306">
        <ele>190.60000610352</ele>
        <time>2019-10-12T13:24:15Z</time>
      </trkpt>
      <trkpt lat="43.5368" lon="6.46363">
        <ele>190.80000305176</ele>
        <time>2019-10-12T13:24:26Z</time>
      </trkpt>
      <trkpt lat="43.53667" lon="6.46385">
        <ele>190.80000305176</ele>
        <time>2019-10-12T13:24:30Z</time>
      </trkpt>
      <trkpt lat="43.53627" lon="6.46457">
        <ele>191</ele>
        <time>2019-10-12T13:24:50Z</time>
      </trkpt>
      <trkpt lat="43.53614" lon="6.46482">
        <ele>191.39999389648</ele>
        <time>2019-10-12T13:25:00Z</time>
      </trkpt>
      <trkpt lat="43.53608" lon="6.46492">
        <ele>191.80000305176</ele>
        <time>2019-10-12T13:25:07Z</time>
      </trkpt>
      <trkpt lat="43.5363" lon="6.4655">
        <ele>192.80000305176</ele>
        <time>2019-10-12T13:25:20Z</time>
      </trkpt>
      <trkpt lat="43.53632" lon="6.46549">
        <ele>193</ele>
        <time>2019-10-12T13:25:29Z</time>
      </trkpt>
      <trkpt lat="43.53645" lon="6.46546">
        <ele>193</ele>
        <time>2019-10-12T13:25:41Z</time>
      </trkpt>
      <trkpt lat="43.53658" lon="6.4653">
        <ele>193</ele>
        <time>2019-10-12T13:25:47Z</time>
      </trkpt>
      <trkpt lat="43.53642" lon="6.46526">
        <ele>192.60000610352</ele>
        <time>2019-10-12T13:25:52Z</time>
      </trkpt>
      <trkpt lat="43.5364" lon="6.46532">
        <ele>192.60000610352</ele>
        <time>2019-10-12T13:25:55Z</time>
      </trkpt>
      <trkpt lat="43.53627" lon="6.46576">
        <ele>192.60000610352</ele>
        <time>2019-10-12T13:26:04Z</time>
      </trkpt>
      <trkpt lat="43.53629" lon="6.46583">
        <ele>192.80000305176</ele>
        <time>2019-10-12T13:26:06Z</time>
      </trkpt>
      <trkpt lat="43.53637" lon="6.46607">
        <ele>193.19999694824</ele>
        <time>2019-10-12T13:26:12Z</time>
      </trkpt>
      <trkpt lat="43.53644" lon="6.46627">
        <ele>194.19999694824</ele>
        <time>2019-10-12T13:26:17Z</time>
      </trkpt>
      <trkpt lat="43.53653" lon="6.46657">
        <ele>195</ele>
        <time>2019-10-12T13:26:25Z</time>
      </trkpt>
      <trkpt lat="43.53659" lon="6.46674">
        <ele>195.60000610352</ele>
        <time>2019-10-12T13:26:31Z</time>
      </trkpt>
      <trkpt lat="43.53661" lon="6.46689">
        <ele>196</ele>
        <time>2019-10-12T13:26:38Z</time>
      </trkpt>
      <trkpt lat="43.53671" lon="6.46731">
        <ele>196.80000305176</ele>
        <time>2019-10-12T13:26:49Z</time>
      </trkpt>
      <trkpt lat="43.53675" lon="6.46798">
        <ele>198</ele>
        <time>2019-10-12T13:27:03Z</time>
      </trkpt>
      <trkpt lat="43.53676" lon="6.46844">
        <ele>198.19999694824</ele>
        <time>2019-10-12T13:27:13Z</time>
      </trkpt>
      <trkpt lat="43.53676" lon="6.46867">
        <ele>199</ele>
        <time>2019-10-12T13:27:18Z</time>
      </trkpt>
      <trkpt lat="43.53677" lon="6.46903">
        <ele>200</ele>
        <time>2019-10-12T13:27:26Z</time>
      </trkpt>
      <trkpt lat="43.53678" lon="6.46927">
        <ele>200.80000305176</ele>
        <time>2019-10-12T13:27:31Z</time>
      </trkpt>
      <trkpt lat="43.53675" lon="6.4699">
        <ele>202.39999389648</ele>
        <time>2019-10-12T13:27:45Z</time>
      </trkpt>
      <trkpt lat="43.53674" lon="6.47001">
        <ele>202.80000305176</ele>
        <time>2019-10-12T13:27:48Z</time>
      </trkpt>
      <trkpt lat="43.53668" lon="6.4704">
        <ele>203.80000305176</ele>
        <time>2019-10-12T13:27:57Z</time>
      </trkpt>
      <trkpt lat="43.5366" lon="6.47086">
        <ele>204.60000610352</ele>
        <time>2019-10-12T13:28:06Z</time>
      </trkpt>
      <trkpt lat="43.5364" lon="6.47155">
        <ele>206.39999389648</ele>
        <time>2019-10-12T13:28:21Z</time>
      </trkpt>
      <trkpt lat="43.53631" lon="6.47183">
        <ele>207.19999694824</ele>
        <time>2019-10-12T13:28:28Z</time>
      </trkpt>
      <trkpt lat="43.53621" lon="6.47216">
        <ele>207.39999389648</ele>
        <time>2019-10-12T13:28:35Z</time>
      </trkpt>
      <trkpt lat="43.5361" lon="6.47256">
        <ele>207.39999389648</ele>
        <time>2019-10-12T13:28:41Z</time>
      </trkpt>
      <trkpt lat="43.53592" lon="6.47335">
        <ele>205.80000305176</ele>
        <time>2019-10-12T13:28:53Z</time>
      </trkpt>
      <trkpt lat="43.53577" lon="6.47395">
        <ele>205.39999389648</ele>
        <time>2019-10-12T13:29:02Z</time>
      </trkpt>
      <trkpt lat="43.53566" lon="6.47448">
        <ele>205.39999389648</ele>
        <time>2019-10-12T13:29:10Z</time>
      </trkpt>
      <trkpt lat="43.53552" lon="6.47499">
        <ele>206</ele>
        <time>2019-10-12T13:29:20Z</time>
      </trkpt>
      <trkpt lat="43.53538" lon="6.47562">
        <ele>207</ele>
        <time>2019-10-12T13:29:31Z</time>
      </trkpt>
      <trkpt lat="43.53499" lon="6.4765">
        <ele>208.39999389648</ele>
        <time>2019-10-12T13:29:51Z</time>
      </trkpt>
      <trkpt lat="43.53473" lon="6.4771">
        <ele>208.80000305176</ele>
        <time>2019-10-12T13:30:01Z</time>
      </trkpt>
      <trkpt lat="43.53453" lon="6.47784">
        <ele>209.39999389648</ele>
        <time>2019-10-12T13:30:15Z</time>
      </trkpt>
      <trkpt lat="43.5345" lon="6.47797">
        <ele>209.39999389648</ele>
        <time>2019-10-12T13:30:18Z</time>
      </trkpt>
      <trkpt lat="43.53426" lon="6.47779">
        <ele>209.39999389648</ele>
        <time>2019-10-12T13:30:22Z</time>
      </trkpt>
      <trkpt lat="43.53386" lon="6.47766">
        <ele>210.19999694824</ele>
        <time>2019-10-12T13:30:33Z</time>
      </trkpt>
      <trkpt lat="43.5339" lon="6.47815">
        <ele>210.60000610352</ele>
        <time>2019-10-12T13:30:47Z</time>
      </trkpt>
      <trkpt lat="43.53394" lon="6.47845">
        <ele>211.19999694824</ele>
        <time>2019-10-12T13:30:55Z</time>
      </trkpt>
      <trkpt lat="43.53397" lon="6.47879">
        <ele>211.80000305176</ele>
        <time>2019-10-12T13:31:02Z</time>
      </trkpt>
      <trkpt lat="43.53398" lon="6.47947">
        <ele>212.80000305176</ele>
        <time>2019-10-12T13:31:15Z</time>
      </trkpt>
      <trkpt lat="43.53397" lon="6.47977">
        <ele>213.39999389648</ele>
        <time>2019-10-12T13:31:21Z</time>
      </trkpt>
      <trkpt lat="43.53391" lon="6.48054">
        <ele>215.19999694824</ele>
        <time>2019-10-12T13:31:36Z</time>
      </trkpt>
      <trkpt lat="43.5337" lon="6.48146">
        <ele>216</ele>
        <time>2019-10-12T13:31:52Z</time>
      </trkpt>
      <trkpt lat="43.53353" lon="6.48225">
        <ele>216</ele>
        <time>2019-10-12T13:32:04Z</time>
      </trkpt>
      <trkpt lat="43.53348" lon="6.48248">
        <ele>216.19999694824</ele>
        <time>2019-10-12T13:32:08Z</time>
      </trkpt>
      <trkpt lat="43.53328" lon="6.48312">
        <ele>216.39999389648</ele>
        <time>2019-10-12T13:32:18Z</time>
      </trkpt>
      <trkpt lat="43.53319" lon="6.48348">
        <ele>216.80000305176</ele>
        <time>2019-10-12T13:32:23Z</time>
      </trkpt>
      <trkpt lat="43.53302" lon="6.48414">
        <ele>217.80000305176</ele>
        <time>2019-10-12T13:32:36Z</time>
      </trkpt>
      <trkpt lat="43.5329" lon="6.48467">
        <ele>218.80000305176</ele>
        <time>2019-10-12T13:32:45Z</time>
      </trkpt>
      <trkpt lat="43.53283" lon="6.48525">
        <ele>219.80000305176</ele>
        <time>2019-10-12T13:32:55Z</time>
      </trkpt>
      <trkpt lat="43.53281" lon="6.4857">
        <ele>220.80000305176</ele>
        <time>2019-10-12T13:33:03Z</time>
      </trkpt>
      <trkpt lat="43.53278" lon="6.48621">
        <ele>221.80000305176</ele>
        <time>2019-10-12T13:33:12Z</time>
      </trkpt>
      <trkpt lat="43.53266" lon="6.4869">
        <ele>222.19999694824</ele>
        <time>2019-10-12T13:33:22Z</time>
      </trkpt>
      <trkpt lat="43.53261" lon="6.48726">
        <ele>222</ele>
        <time>2019-10-12T13:33:27Z</time>
      </trkpt>
      <trkpt lat="43.53252" lon="6.48764">
        <ele>221.60000610352</ele>
        <time>2019-10-12T13:33:33Z</time>
      </trkpt>
      <trkpt lat="43.53235" lon="6.4879">
        <ele>220.80000305176</ele>
        <time>2019-10-12T13:33:37Z</time>
      </trkpt>
      <trkpt lat="43.53207" lon="6.48813">
        <ele>220.19999694824</ele>
        <time>2019-10-12T13:33:41Z</time>
      </trkpt>
      <trkpt lat="43.53185" lon="6.48824">
        <ele>219.19999694824</ele>
        <time>2019-10-12T13:33:44Z</time>
      </trkpt>
      <trkpt lat="43.53164" lon="6.48849">
        <ele>218.60000610352</ele>
        <time>2019-10-12T13:33:48Z</time>
      </trkpt>
      <trkpt lat="43.53156" lon="6.48864">
        <ele>218.39999389648</ele>
        <time>2019-10-12T13:33:50Z</time>
      </trkpt>
      <trkpt lat="43.53151" lon="6.48906">
        <ele>218.19999694824</ele>
        <time>2019-10-12T13:33:54Z</time>
      </trkpt>
      <trkpt lat="43.53119" lon="6.49014">
        <ele>215.80000305176</ele>
        <time>2019-10-12T13:34:03Z</time>
      </trkpt>
      <trkpt lat="43.53069" lon="6.49106">
        <ele>214.19999694824</ele>
        <time>2019-10-12T13:34:15Z</time>
      </trkpt>
      <trkpt lat="43.53057" lon="6.49132">
        <ele>214</ele>
        <time>2019-10-12T13:34:18Z</time>
      </trkpt>
      <trkpt lat="43.53045" lon="6.49173">
        <ele>213.80000305176</ele>
        <time>2019-10-12T13:34:22Z</time>
      </trkpt>
      <trkpt lat="43.53038" lon="6.49206">
        <ele>213</ele>
        <time>2019-10-12T13:34:25Z</time>
      </trkpt>
      <trkpt lat="43.53034" lon="6.49256">
        <ele>211.19999694824</ele>
        <time>2019-10-12T13:34:29Z</time>
      </trkpt>
      <trkpt lat="43.53012" lon="6.49385">
        <ele>206.39999389648</ele>
        <time>2019-10-12T13:34:40Z</time>
      </trkpt>
      <trkpt lat="43.52992" lon="6.49426">
        <ele>205.39999389648</ele>
        <time>2019-10-12T13:34:45Z</time>
      </trkpt>
      <trkpt lat="43.52959" lon="6.49494">
        <ele>206.60000610352</ele>
        <time>2019-10-12T13:34:57Z</time>
      </trkpt>
      <trkpt lat="43.52931" lon="6.49554">
        <ele>207.80000305176</ele>
        <time>2019-10-12T13:35:07Z</time>
      </trkpt>
      <trkpt lat="43.52893" lon="6.49633">
        <ele>208.19999694824</ele>
        <time>2019-10-12T13:35:21Z</time>
      </trkpt>
      <trkpt lat="43.52855" lon="6.49704">
        <ele>209</ele>
        <time>2019-10-12T13:35:34Z</time>
      </trkpt>
      <trkpt lat="43.52827" lon="6.49725">
        <ele>209.80000305176</ele>
        <time>2019-10-12T13:35:41Z</time>
      </trkpt>
      <trkpt lat="43.52811" lon="6.49734">
        <ele>210.19999694824</ele>
        <time>2019-10-12T13:35:45Z</time>
      </trkpt>
      <trkpt lat="43.52798" lon="6.49804">
        <ele>210.39999389648</ele>
        <time>2019-10-12T13:35:56Z</time>
      </trkpt>
      <trkpt lat="43.52783" lon="6.49837">
        <ele>210.80000305176</ele>
        <time>2019-10-12T13:36:03Z</time>
      </trkpt>
      <trkpt lat="43.52769" lon="6.49869">
        <ele>212.60000610352</ele>
        <time>2019-10-12T13:36:13Z</time>
      </trkpt>
      <trkpt lat="43.52761" lon="6.49887">
        <ele>213.60000610352</ele>
        <time>2019-10-12T13:36:19Z</time>
      </trkpt>
      <trkpt lat="43.52755" lon="6.49904">
        <ele>214.80000305176</ele>
        <time>2019-10-12T13:36:24Z</time>
      </trkpt>
      <trkpt lat="43.52749" lon="6.49921">
        <ele>215.80000305176</ele>
        <time>2019-10-12T13:36:30Z</time>
      </trkpt>
      <trkpt lat="43.52742" lon="6.49941">
        <ele>217.19999694824</ele>
        <time>2019-10-12T13:36:35Z</time>
      </trkpt>
      <trkpt lat="43.52739" lon="6.49954">
        <ele>219.19999694824</ele>
        <time>2019-10-12T13:36:45Z</time>
      </trkpt>
      <trkpt lat="43.52732" lon="6.49986">
        <ele>221.80000305176</ele>
        <time>2019-10-12T13:36:55Z</time>
      </trkpt>
      <trkpt lat="43.52719" lon="6.50042">
        <ele>225</ele>
        <time>2019-10-12T13:37:14Z</time>
      </trkpt>
      <trkpt lat="43.52715" lon="6.50072">
        <ele>225.80000305176</ele>
        <time>2019-10-12T13:37:21Z</time>
      </trkpt>
      <trkpt lat="43.52707" lon="6.50116">
        <ele>226.39999389648</ele>
        <time>2019-10-12T13:37:29Z</time>
      </trkpt>
      <trkpt lat="43.527" lon="6.50151">
        <ele>226.39999389648</ele>
        <time>2019-10-12T13:37:35Z</time>
      </trkpt>
      <trkpt lat="43.52676" lon="6.50231">
        <ele>226.60000610352</ele>
        <time>2019-10-12T13:37:48Z</time>
      </trkpt>
      <trkpt lat="43.52652" lon="6.50284">
        <ele>226.60000610352</ele>
        <time>2019-10-12T13:37:57Z</time>
      </trkpt>
      <trkpt lat="43.52605" lon="6.50349">
        <ele>227</ele>
        <time>2019-10-12T13:38:10Z</time>
      </trkpt>
      <trkpt lat="43.52574" lon="6.50421">
        <ele>227.60000610352</ele>
        <time>2019-10-12T13:38:22Z</time>
      </trkpt>
      <trkpt lat="43.52531" lon="6.50513">
        <ele>227.60000610352</ele>
        <time>2019-10-12T13:38:38Z</time>
      </trkpt>
      <trkpt lat="43.52517" lon="6.50655">
        <ele>228.19999694824</ele>
        <time>2019-10-12T13:38:58Z</time>
      </trkpt>
      <trkpt lat="43.52517" lon="6.5069">
        <ele>228</ele>
        <time>2019-10-12T13:39:02Z</time>
      </trkpt>
      <trkpt lat="43.52513" lon="6.50758">
        <ele>226.80000305176</ele>
        <time>2019-10-12T13:39:10Z</time>
      </trkpt>
      <trkpt lat="43.52502" lon="6.50805">
        <ele>226.60000610352</ele>
        <time>2019-10-12T13:39:16Z</time>
      </trkpt>
      <trkpt lat="43.52488" lon="6.50869">
        <ele>227</ele>
        <time>2019-10-12T13:39:27Z</time>
      </trkpt>
      <trkpt lat="43.52484" lon="6.50887">
        <ele>227.39999389648</ele>
        <time>2019-10-12T13:39:31Z</time>
      </trkpt>
      <trkpt lat="43.52477" lon="6.50916">
        <ele>229.19999694824</ele>
        <time>2019-10-12T13:39:40Z</time>
      </trkpt>
      <trkpt lat="43.52475" lon="6.50928">
        <ele>229.80000305176</ele>
        <time>2019-10-12T13:39:43Z</time>
      </trkpt>
      <trkpt lat="43.5247" lon="6.50956">
        <ele>231</ele>
        <time>2019-10-12T13:39:50Z</time>
      </trkpt>
      <trkpt lat="43.52469" lon="6.5097">
        <ele>232</ele>
        <time>2019-10-12T13:39:53Z</time>
      </trkpt>
      <trkpt lat="43.52466" lon="6.51013">
        <ele>235</ele>
        <time>2019-10-12T13:40:03Z</time>
      </trkpt>
      <trkpt lat="43.52466" lon="6.51019">
        <ele>235.60000610352</ele>
        <time>2019-10-12T13:40:05Z</time>
      </trkpt>
      <trkpt lat="43.52467" lon="6.51046">
        <ele>237.60000610352</ele>
        <time>2019-10-12T13:40:14Z</time>
      </trkpt>
      <trkpt lat="43.52469" lon="6.51077">
        <ele>240.19999694824</ele>
        <time>2019-10-12T13:40:26Z</time>
      </trkpt>
      <trkpt lat="43.52472" lon="6.51092">
        <ele>241</ele>
        <time>2019-10-12T13:40:32Z</time>
      </trkpt>
      <trkpt lat="43.52477" lon="6.51126">
        <ele>244</ele>
        <time>2019-10-12T13:40:44Z</time>
      </trkpt>
      <trkpt lat="43.5248" lon="6.51141">
        <ele>244.80000305176</ele>
        <time>2019-10-12T13:40:49Z</time>
      </trkpt>
      <trkpt lat="43.52484" lon="6.51176">
        <ele>247.39999389648</ele>
        <time>2019-10-12T13:41:01Z</time>
      </trkpt>
      <trkpt lat="43.52487" lon="6.51192">
        <ele>248.39999389648</ele>
        <time>2019-10-12T13:41:06Z</time>
      </trkpt>
      <trkpt lat="43.52493" lon="6.5124">
        <ele>251.39999389648</ele>
        <time>2019-10-12T13:41:22Z</time>
      </trkpt>
      <trkpt lat="43.52495" lon="6.51263">
        <ele>253</ele>
        <time>2019-10-12T13:41:29Z</time>
      </trkpt>
      <trkpt lat="43.52499" lon="6.51296">
        <ele>254.80000305176</ele>
        <time>2019-10-12T13:41:38Z</time>
      </trkpt>
      <trkpt lat="43.52501" lon="6.51317">
        <ele>256</ele>
        <time>2019-10-12T13:41:44Z</time>
      </trkpt>
      <trkpt lat="43.52508" lon="6.51363">
        <ele>257.20001220703</ele>
        <time>2019-10-12T13:41:55Z</time>
      </trkpt>
      <trkpt lat="43.52516" lon="6.51391">
        <ele>257.60000610352</ele>
        <time>2019-10-12T13:42:01Z</time>
      </trkpt>
      <trkpt lat="43.52529" lon="6.51426">
        <ele>257.60000610352</ele>
        <time>2019-10-12T13:42:07Z</time>
      </trkpt>
      <trkpt lat="43.52541" lon="6.51462">
        <ele>257.39999389648</ele>
        <time>2019-10-12T13:42:12Z</time>
      </trkpt>
      <trkpt lat="43.52544" lon="6.51485">
        <ele>257.20001220703</ele>
        <time>2019-10-12T13:42:15Z</time>
      </trkpt>
      <trkpt lat="43.52542" lon="6.51567">
        <ele>256.79998779297</ele>
        <time>2019-10-12T13:42:26Z</time>
      </trkpt>
      <trkpt lat="43.52539" lon="6.51629">
        <ele>257.39999389648</ele>
        <time>2019-10-12T13:42:35Z</time>
      </trkpt>
      <trkpt lat="43.52531" lon="6.51706">
        <ele>259.20001220703</ele>
        <time>2019-10-12T13:42:48Z</time>
      </trkpt>
      <trkpt lat="43.52521" lon="6.51781">
        <ele>260.79998779297</ele>
        <time>2019-10-12T13:43:01Z</time>
      </trkpt>
      <trkpt lat="43.52504" lon="6.519">
        <ele>261.60000610352</ele>
        <time>2019-10-12T13:43:18Z</time>
      </trkpt>
      <trkpt lat="43.52502" lon="6.51958">
        <ele>261.79998779297</ele>
        <time>2019-10-12T13:43:26Z</time>
      </trkpt>
      <trkpt lat="43.52497" lon="6.51986">
        <ele>261.79998779297</ele>
        <time>2019-10-12T13:43:31Z</time>
      </trkpt>
      <trkpt lat="43.52486" lon="6.51997">
        <ele>261.60000610352</ele>
        <time>2019-10-12T13:43:34Z</time>
      </trkpt>
      <trkpt lat="43.52479" lon="6.52028">
        <ele>262.39999389648</ele>
        <time>2019-10-12T13:43:41Z</time>
      </trkpt>
      <trkpt lat="43.52494" lon="6.52068">
        <ele>263.79998779297</ele>
        <time>2019-10-12T13:43:48Z</time>
      </trkpt>
      <trkpt lat="43.52494" lon="6.52097">
        <ele>265.20001220703</ele>
        <time>2019-10-12T13:43:56Z</time>
      </trkpt>
      <trkpt lat="43.52492" lon="6.5212">
        <ele>266.60000610352</ele>
        <time>2019-10-12T13:44:02Z</time>
      </trkpt>
      <trkpt lat="43.52491" lon="6.52127">
        <ele>267.39999389648</ele>
        <time>2019-10-12T13:44:05Z</time>
      </trkpt>
      <trkpt lat="43.52488" lon="6.5215">
        <ele>269.39999389648</ele>
        <time>2019-10-12T13:44:13Z</time>
      </trkpt>
      <trkpt lat="43.52486" lon="6.52164">
        <ele>270.79998779297</ele>
        <time>2019-10-12T13:44:17Z</time>
      </trkpt>
      <trkpt lat="43.52481" lon="6.52195">
        <ele>273</ele>
        <time>2019-10-12T13:44:26Z</time>
      </trkpt>
      <trkpt lat="43.52478" lon="6.52213">
        <ele>275</ele>
        <time>2019-10-12T13:44:32Z</time>
      </trkpt>
      <trkpt lat="43.52474" lon="6.52249">
        <ele>277.39999389648</ele>
        <time>2019-10-12T13:44:42Z</time>
      </trkpt>
      <trkpt lat="43.52469" lon="6.52295">
        <ele>279.60000610352</ele>
        <time>2019-10-12T13:44:53Z</time>
      </trkpt>
      <trkpt lat="43.52464" lon="6.52335">
        <ele>281.20001220703</ele>
        <time>2019-10-12T13:45:02Z</time>
      </trkpt>
      <trkpt lat="43.5246" lon="6.52374">
        <ele>281.60000610352</ele>
        <time>2019-10-12T13:45:10Z</time>
      </trkpt>
      <trkpt lat="43.52455" lon="6.52411">
        <ele>281.60000610352</ele>
        <time>2019-10-12T13:45:16Z</time>
      </trkpt>
      <trkpt lat="43.52453" lon="6.52433">
        <ele>281.60000610352</ele>
        <time>2019-10-12T13:45:19Z</time>
      </trkpt>
      <trkpt lat="43.52447" lon="6.5247">
        <ele>281</ele>
        <time>2019-10-12T13:45:23Z</time>
      </trkpt>
      <trkpt lat="43.52442" lon="6.52501">
        <ele>280.20001220703</ele>
        <time>2019-10-12T13:45:26Z</time>
      </trkpt>
      <trkpt lat="43.52434" lon="6.52533">
        <ele>278.60000610352</ele>
        <time>2019-10-12T13:45:29Z</time>
      </trkpt>
      <trkpt lat="43.52402" lon="6.52578">
        <ele>274.20001220703</ele>
        <time>2019-10-12T13:45:36Z</time>
      </trkpt>
      <trkpt lat="43.52403" lon="6.52603">
        <ele>272.60000610352</ele>
        <time>2019-10-12T13:45:39Z</time>
      </trkpt>
      <trkpt lat="43.52411" lon="6.52636">
        <ele>272</ele>
        <time>2019-10-12T13:45:45Z</time>
      </trkpt>
      <trkpt lat="43.52416" lon="6.52678">
        <ele>273</ele>
        <time>2019-10-12T13:45:54Z</time>
      </trkpt>
      <trkpt lat="43.52418" lon="6.52712">
        <ele>274.39999389648</ele>
        <time>2019-10-12T13:46:03Z</time>
      </trkpt>
      <trkpt lat="43.52417" lon="6.52728">
        <ele>275.39999389648</ele>
        <time>2019-10-12T13:46:07Z</time>
      </trkpt>
      <trkpt lat="43.52413" lon="6.52773">
        <ele>277.60000610352</ele>
        <time>2019-10-12T13:46:19Z</time>
      </trkpt>
      <trkpt lat="43.52411" lon="6.52804">
        <ele>279.20001220703</ele>
        <time>2019-10-12T13:46:28Z</time>
      </trkpt>
      <trkpt lat="43.52408" lon="6.52843">
        <ele>281.20001220703</ele>
        <time>2019-10-12T13:46:39Z</time>
      </trkpt>
      <trkpt lat="43.52407" lon="6.52863">
        <ele>282</ele>
        <time>2019-10-12T13:46:45Z</time>
      </trkpt>
      <trkpt lat="43.52401" lon="6.52929">
        <ele>285.39999389648</ele>
        <time>2019-10-12T13:47:04Z</time>
      </trkpt>
      <trkpt lat="43.52397" lon="6.5296">
        <ele>287.20001220703</ele>
        <time>2019-10-12T13:47:13Z</time>
      </trkpt>
      <trkpt lat="43.52395" lon="6.52989">
        <ele>288.20001220703</ele>
        <time>2019-10-12T13:47:21Z</time>
      </trkpt>
      <trkpt lat="43.52395" lon="6.53029">
        <ele>290.20001220703</ele>
        <time>2019-10-12T13:47:31Z</time>
      </trkpt>
      <trkpt lat="43.524" lon="6.53069">
        <ele>291.39999389648</ele>
        <time>2019-10-12T13:47:40Z</time>
      </trkpt>
      <trkpt lat="43.5241" lon="6.53153">
        <ele>293.39999389648</ele>
        <time>2019-10-12T13:47:58Z</time>
      </trkpt>
      <trkpt lat="43.52416" lon="6.5321">
        <ele>294</ele>
        <time>2019-10-12T13:48:09Z</time>
      </trkpt>
      <trkpt lat="43.52408" lon="6.53328">
        <ele>294.60000610352</ele>
        <time>2019-10-12T13:48:27Z</time>
      </trkpt>
      <trkpt lat="43.52394" lon="6.53382">
        <ele>294.39999389648</ele>
        <time>2019-10-12T13:48:35Z</time>
      </trkpt>
      <trkpt lat="43.52382" lon="6.53431">
        <ele>294</ele>
        <time>2019-10-12T13:48:43Z</time>
      </trkpt>
      <trkpt lat="43.52368" lon="6.53483">
        <ele>294</ele>
        <time>2019-10-12T13:48:51Z</time>
      </trkpt>
      <trkpt lat="43.52352" lon="6.53618">
        <ele>294.39999389648</ele>
        <time>2019-10-12T13:49:09Z</time>
      </trkpt>
      <trkpt lat="43.52349" lon="6.53655">
        <ele>294.39999389648</ele>
        <time>2019-10-12T13:49:15Z</time>
      </trkpt>
      <trkpt lat="43.52274" lon="6.53681">
        <ele>294.39999389648</ele>
        <time>2019-10-12T13:49:27Z</time>
      </trkpt>
      <trkpt lat="43.52213" lon="6.53689">
        <ele>294.39999389648</ele>
        <time>2019-10-12T13:49:37Z</time>
      </trkpt>
      <trkpt lat="43.52157" lon="6.53696">
        <ele>295</ele>
        <time>2019-10-12T13:49:47Z</time>
      </trkpt>
      <trkpt lat="43.52014" lon="6.53713">
        <ele>295.60000610352</ele>
        <time>2019-10-12T13:50:13Z</time>
      </trkpt>
      <trkpt lat="43.51957" lon="6.5372">
        <ele>295.60000610352</ele>
        <time>2019-10-12T13:50:22Z</time>
      </trkpt>
      <trkpt lat="43.51896" lon="6.53728">
        <ele>294.60000610352</ele>
        <time>2019-10-12T13:50:31Z</time>
      </trkpt>
      <trkpt lat="43.51859" lon="6.53732">
        <ele>294</ele>
        <time>2019-10-12T13:50:36Z</time>
      </trkpt>
      <trkpt lat="43.51759" lon="6.53745">
        <ele>292.20001220703</ele>
        <time>2019-10-12T13:50:50Z</time>
      </trkpt>
      <trkpt lat="43.51719" lon="6.5375">
        <ele>291.39999389648</ele>
        <time>2019-10-12T13:50:56Z</time>
      </trkpt>
      <trkpt lat="43.51635" lon="6.53761">
        <ele>289.39999389648</ele>
        <time>2019-10-12T13:51:08Z</time>
      </trkpt>
      <trkpt lat="43.51598" lon="6.53766">
        <ele>288.79998779297</ele>
        <time>2019-10-12T13:51:13Z</time>
      </trkpt>
      <trkpt lat="43.51552" lon="6.5377">
        <ele>287.20001220703</ele>
        <time>2019-10-12T13:51:19Z</time>
      </trkpt>
      <trkpt lat="43.51511" lon="6.53773">
        <ele>285.60000610352</ele>
        <time>2019-10-12T13:51:24Z</time>
      </trkpt>
      <trkpt lat="43.51446" lon="6.53774">
        <ele>282.60000610352</ele>
        <time>2019-10-12T13:51:32Z</time>
      </trkpt>
      <trkpt lat="43.5142" lon="6.53769">
        <ele>281.60000610352</ele>
        <time>2019-10-12T13:51:35Z</time>
      </trkpt>
      <trkpt lat="43.51401" lon="6.53753">
        <ele>280.39999389648</ele>
        <time>2019-10-12T13:51:38Z</time>
      </trkpt>
      <trkpt lat="43.51379" lon="6.53727">
        <ele>279</ele>
        <time>2019-10-12T13:51:41Z</time>
      </trkpt>
      <trkpt lat="43.51348" lon="6.5369">
        <ele>277.20001220703</ele>
        <time>2019-10-12T13:51:45Z</time>
      </trkpt>
      <trkpt lat="43.51316" lon="6.53651">
        <ele>275</ele>
        <time>2019-10-12T13:51:49Z</time>
      </trkpt>
      <trkpt lat="43.51287" lon="6.53601">
        <ele>272.60000610352</ele>
        <time>2019-10-12T13:51:53Z</time>
      </trkpt>
      <trkpt lat="43.51244" lon="6.53526">
        <ele>269.39999389648</ele>
        <time>2019-10-12T13:51:59Z</time>
      </trkpt>
      <trkpt lat="43.5122" lon="6.53495">
        <ele>266.79998779297</ele>
        <time>2019-10-12T13:52:02Z</time>
      </trkpt>
      <trkpt lat="43.51195" lon="6.53489">
        <ele>265.39999389648</ele>
        <time>2019-10-12T13:52:05Z</time>
      </trkpt>
      <trkpt lat="43.51159" lon="6.53508">
        <ele>262.60000610352</ele>
        <time>2019-10-12T13:52:09Z</time>
      </trkpt>
      <trkpt lat="43.51117" lon="6.53547">
        <ele>258.79998779297</ele>
        <time>2019-10-12T13:52:14Z</time>
      </trkpt>
      <trkpt lat="43.51105" lon="6.5357">
        <ele>257.60000610352</ele>
        <time>2019-10-12T13:52:16Z</time>
      </trkpt>
      <trkpt lat="43.51064" lon="6.53635">
        <ele>254</ele>
        <time>2019-10-12T13:52:21Z</time>
      </trkpt>
      <trkpt lat="43.51032" lon="6.53652">
        <ele>252.60000610352</ele>
        <time>2019-10-12T13:52:24Z</time>
      </trkpt>
      <trkpt lat="43.50993" lon="6.53658">
        <ele>250.39999389648</ele>
        <time>2019-10-12T13:52:27Z</time>
      </trkpt>
      <trkpt lat="43.50971" lon="6.53659">
        <ele>248.80000305176</ele>
        <time>2019-10-12T13:52:29Z</time>
      </trkpt>
      <trkpt lat="43.50924" lon="6.53658">
        <ele>246</ele>
        <time>2019-10-12T13:52:33Z</time>
      </trkpt>
      <trkpt lat="43.5088" lon="6.53652">
        <ele>242.80000305176</ele>
        <time>2019-10-12T13:52:37Z</time>
      </trkpt>
      <trkpt lat="43.50847" lon="6.53638">
        <ele>240.60000610352</ele>
        <time>2019-10-12T13:52:40Z</time>
      </trkpt>
      <trkpt lat="43.50802" lon="6.53618">
        <ele>237.60000610352</ele>
        <time>2019-10-12T13:52:44Z</time>
      </trkpt>
      <trkpt lat="43.50772" lon="6.536">
        <ele>235.39999389648</ele>
        <time>2019-10-12T13:52:47Z</time>
      </trkpt>
      <trkpt lat="43.5073" lon="6.53565">
        <ele>233</ele>
        <time>2019-10-12T13:52:51Z</time>
      </trkpt>
      <trkpt lat="43.5071" lon="6.53548">
        <ele>231.60000610352</ele>
        <time>2019-10-12T13:52:53Z</time>
      </trkpt>
      <trkpt lat="43.50649" lon="6.535">
        <ele>227.39999389648</ele>
        <time>2019-10-12T13:52:59Z</time>
      </trkpt>
      <trkpt lat="43.50614" lon="6.5349">
        <ele>224.60000610352</ele>
        <time>2019-10-12T13:53:02Z</time>
      </trkpt>
      <trkpt lat="43.50556" lon="6.53493">
        <ele>220.19999694824</ele>
        <time>2019-10-12T13:53:07Z</time>
      </trkpt>
      <trkpt lat="43.50539" lon="6.53506">
        <ele>218.80000305176</ele>
        <time>2019-10-12T13:53:09Z</time>
      </trkpt>
      <trkpt lat="43.50517" lon="6.53525">
        <ele>216.39999389648</ele>
        <time>2019-10-12T13:53:12Z</time>
      </trkpt>
      <trkpt lat="43.50508" lon="6.53547">
        <ele>215</ele>
        <time>2019-10-12T13:53:14Z</time>
      </trkpt>
      <trkpt lat="43.50504" lon="6.53566">
        <ele>214.19999694824</ele>
        <time>2019-10-12T13:53:16Z</time>
      </trkpt>
      <trkpt lat="43.50521" lon="6.53654">
        <ele>209.60000610352</ele>
        <time>2019-10-12T13:53:22Z</time>
      </trkpt>
      <trkpt lat="43.50528" lon="6.53713">
        <ele>207.19999694824</ele>
        <time>2019-10-12T13:53:26Z</time>
      </trkpt>
      <trkpt lat="43.50524" lon="6.53786">
        <ele>203.80000305176</ele>
        <time>2019-10-12T13:53:31Z</time>
      </trkpt>
      <trkpt lat="43.50515" lon="6.53802">
        <ele>202.19999694824</ele>
        <time>2019-10-12T13:53:33Z</time>
      </trkpt>
      <trkpt lat="43.50494" lon="6.53802">
        <ele>200</ele>
        <time>2019-10-12T13:53:36Z</time>
      </trkpt>
      <trkpt lat="43.50483" lon="6.53771">
        <ele>198</ele>
        <time>2019-10-12T13:53:39Z</time>
      </trkpt>
      <trkpt lat="43.5048" lon="6.53727">
        <ele>195.19999694824</ele>
        <time>2019-10-12T13:53:43Z</time>
      </trkpt>
      <trkpt lat="43.50462" lon="6.53687">
        <ele>193.80000305176</ele>
        <time>2019-10-12T13:53:47Z</time>
      </trkpt>
      <trkpt lat="43.50442" lon="6.53649">
        <ele>193</ele>
        <time>2019-10-12T13:53:51Z</time>
      </trkpt>
      <trkpt lat="43.50423" lon="6.53612">
        <ele>191.60000610352</ele>
        <time>2019-10-12T13:53:55Z</time>
      </trkpt>
      <trkpt lat="43.50375" lon="6.53531">
        <ele>189.39999389648</ele>
        <time>2019-10-12T13:54:04Z</time>
      </trkpt>
      <trkpt lat="43.50341" lon="6.53461">
        <ele>187.39999389648</ele>
        <time>2019-10-12T13:54:11Z</time>
      </trkpt>
      <trkpt lat="43.50308" lon="6.53424">
        <ele>185.60000610352</ele>
        <time>2019-10-12T13:54:16Z</time>
      </trkpt>
      <trkpt lat="43.5028" lon="6.53397">
        <ele>184.60000610352</ele>
        <time>2019-10-12T13:54:20Z</time>
      </trkpt>
      <trkpt lat="43.50256" lon="6.53359">
        <ele>183.60000610352</ele>
        <time>2019-10-12T13:54:24Z</time>
      </trkpt>
      <trkpt lat="43.50205" lon="6.53297">
        <ele>180</ele>
        <time>2019-10-12T13:54:31Z</time>
      </trkpt>
      <trkpt lat="43.50174" lon="6.53284">
        <ele>178.80000305176</ele>
        <time>2019-10-12T13:54:34Z</time>
      </trkpt>
      <trkpt lat="43.5014" lon="6.53278">
        <ele>177</ele>
        <time>2019-10-12T13:54:37Z</time>
      </trkpt>
      <trkpt lat="43.50118" lon="6.53284">
        <ele>175.80000305176</ele>
        <time>2019-10-12T13:54:39Z</time>
      </trkpt>
      <trkpt lat="43.50088" lon="6.53304">
        <ele>173.80000305176</ele>
        <time>2019-10-12T13:54:42Z</time>
      </trkpt>
      <trkpt lat="43.50059" lon="6.53326">
        <ele>171.60000610352</ele>
        <time>2019-10-12T13:54:45Z</time>
      </trkpt>
      <trkpt lat="43.49993" lon="6.53375">
        <ele>167</ele>
        <time>2019-10-12T13:54:51Z</time>
      </trkpt>
      <trkpt lat="43.49952" lon="6.53402">
        <ele>164.39999389648</ele>
        <time>2019-10-12T13:54:55Z</time>
      </trkpt>
      <trkpt lat="43.49915" lon="6.53414">
        <ele>162.19999694824</ele>
        <time>2019-10-12T13:54:59Z</time>
      </trkpt>
      <trkpt lat="43.49896" lon="6.53413">
        <ele>160.60000610352</ele>
        <time>2019-10-12T13:55:01Z</time>
      </trkpt>
      <trkpt lat="43.49852" lon="6.53435">
        <ele>157.39999389648</ele>
        <time>2019-10-12T13:55:06Z</time>
      </trkpt>
      <trkpt lat="43.49839" lon="6.53463">
        <ele>155.39999389648</ele>
        <time>2019-10-12T13:55:09Z</time>
      </trkpt>
      <trkpt lat="43.49824" lon="6.53472">
        <ele>154.19999694824</ele>
        <time>2019-10-12T13:55:11Z</time>
      </trkpt>
      <trkpt lat="43.49761" lon="6.53456">
        <ele>150</ele>
        <time>2019-10-12T13:55:17Z</time>
      </trkpt>
      <trkpt lat="43.49733" lon="6.53447">
        <ele>147.60000610352</ele>
        <time>2019-10-12T13:55:20Z</time>
      </trkpt>
      <trkpt lat="43.49706" lon="6.53416">
        <ele>145.60000610352</ele>
        <time>2019-10-12T13:55:24Z</time>
      </trkpt>
      <trkpt lat="43.49702" lon="6.53395">
        <ele>144.19999694824</ele>
        <time>2019-10-12T13:55:26Z</time>
      </trkpt>
      <trkpt lat="43.497" lon="6.53361">
        <ele>141.19999694824</ele>
        <time>2019-10-12T13:55:30Z</time>
      </trkpt>
      <trkpt lat="43.49687" lon="6.53354">
        <ele>139.60000610352</ele>
        <time>2019-10-12T13:55:32Z</time>
      </trkpt>
      <trkpt lat="43.49679" lon="6.5336">
        <ele>136.60000610352</ele>
        <time>2019-10-12T13:55:36Z</time>
      </trkpt>
      <trkpt lat="43.49669" lon="6.53369">
        <ele>135.39999389648</ele>
        <time>2019-10-12T13:55:38Z</time>
      </trkpt>
      <trkpt lat="43.49627" lon="6.53395">
        <ele>133</ele>
        <time>2019-10-12T13:55:44Z</time>
      </trkpt>
      <trkpt lat="43.4961" lon="6.53404">
        <ele>132</ele>
        <time>2019-10-12T13:55:46Z</time>
      </trkpt>
      <trkpt lat="43.49569" lon="6.53424">
        <ele>129.39999389648</ele>
        <time>2019-10-12T13:55:51Z</time>
      </trkpt>
      <trkpt lat="43.49539" lon="6.53438">
        <ele>125.40000152588</ele>
        <time>2019-10-12T13:55:55Z</time>
      </trkpt>
      <trkpt lat="43.49515" lon="6.5345">
        <ele>122.19999694824</ele>
        <time>2019-10-12T13:55:58Z</time>
      </trkpt>
      <trkpt lat="43.49492" lon="6.53466">
        <ele>119.59999847412</ele>
        <time>2019-10-12T13:56:01Z</time>
      </trkpt>
      <trkpt lat="43.49479" lon="6.53479">
        <ele>118.59999847412</ele>
        <time>2019-10-12T13:56:03Z</time>
      </trkpt>
      <trkpt lat="43.49442" lon="6.53521">
        <ele>113.40000152588</ele>
        <time>2019-10-12T13:56:09Z</time>
      </trkpt>
      <trkpt lat="43.49436" lon="6.53532">
        <ele>111.59999847412</ele>
        <time>2019-10-12T13:56:11Z</time>
      </trkpt>
      <trkpt lat="43.49436" lon="6.53532">
        <ele>108.80000305176</ele>
        <time>2019-10-12T13:56:15Z</time>
      </trkpt>
      <trkpt lat="43.49425" lon="6.53537">
        <ele>106.80000305176</ele>
        <time>2019-10-12T13:56:17Z</time>
      </trkpt>
      <trkpt lat="43.49423" lon="6.53539">
        <ele>104</ele>
        <time>2019-10-12T13:56:20Z</time>
      </trkpt>
      <trkpt lat="43.49412" lon="6.53534">
        <ele>101.80000305176</ele>
        <time>2019-10-12T13:56:23Z</time>
      </trkpt>
      <trkpt lat="43.49408" lon="6.53536">
        <ele>99.400001525879</ele>
        <time>2019-10-12T13:56:28Z</time>
      </trkpt>
      <trkpt lat="43.49392" lon="6.53558">
        <ele>95.199996948242</ele>
        <time>2019-10-12T13:56:37Z</time>
      </trkpt>
      <trkpt lat="43.49391" lon="6.5356">
        <ele>94.199996948242</ele>
        <time>2019-10-12T13:56:43Z</time>
      </trkpt>
      <trkpt lat="43.49357" lon="6.53538">
        <ele>93.800003051758</ele>
        <time>2019-10-12T13:56:45Z</time>
      </trkpt>
      <trkpt lat="43.49356" lon="6.53539">
        <ele>93</ele>
        <time>2019-10-12T13:56:48Z</time>
      </trkpt>
      <trkpt lat="43.49359" lon="6.53534">
        <ele>90.800003051758</ele>
        <time>2019-10-12T13:56:53Z</time>
      </trkpt>
      <trkpt lat="43.49353" lon="6.53546">
        <ele>88.599998474121</ele>
        <time>2019-10-12T13:56:58Z</time>
      </trkpt>
      <trkpt lat="43.49347" lon="6.53579">
        <ele>87</ele>
        <time>2019-10-12T13:57:08Z</time>
      </trkpt>
      <trkpt lat="43.4935" lon="6.53591">
        <ele>86.400001525879</ele>
        <time>2019-10-12T13:57:13Z</time>
      </trkpt>
      <trkpt lat="43.49351" lon="6.53613">
        <ele>85.599998474121</ele>
        <time>2019-10-12T13:57:20Z</time>
      </trkpt>
      <trkpt lat="43.49342" lon="6.53627">
        <ele>85.400001525879</ele>
        <time>2019-10-12T13:57:24Z</time>
      </trkpt>
      <trkpt lat="43.49335" lon="6.53624">
        <ele>85</ele>
        <time>2019-10-12T13:57:28Z</time>
      </trkpt>
      <trkpt lat="43.49324" lon="6.5361">
        <ele>83.800003051758</ele>
        <time>2019-10-12T13:57:33Z</time>
      </trkpt>
      <trkpt lat="43.49307" lon="6.53586">
        <ele>81.599998474121</ele>
        <time>2019-10-12T13:57:40Z</time>
      </trkpt>
      <trkpt lat="43.49301" lon="6.53566">
        <ele>80.599998474121</ele>
        <time>2019-10-12T13:57:47Z</time>
      </trkpt>
      <trkpt lat="43.49287" lon="6.53554">
        <ele>79.800003051758</ele>
        <time>2019-10-12T13:57:55Z</time>
      </trkpt>
      <trkpt lat="43.49279" lon="6.53545">
        <ele>79.599998474121</ele>
        <time>2019-10-12T13:57:58Z</time>
      </trkpt>
      <trkpt lat="43.49259" lon="6.53518">
        <ele>79</ele>
        <time>2019-10-12T13:58:03Z</time>
      </trkpt>
      <trkpt lat="43.49248" lon="6.53531">
        <ele>78.400001525879</ele>
        <time>2019-10-12T13:58:06Z</time>
      </trkpt>
      <trkpt lat="43.49234" lon="6.53551">
        <ele>77</ele>
        <time>2019-10-12T13:58:11Z</time>
      </trkpt>
      <trkpt lat="43.49217" lon="6.53555">
        <ele>76</ele>
        <time>2019-10-12T13:58:15Z</time>
      </trkpt>
      <trkpt lat="43.49181" lon="6.53556">
        <ele>75.199996948242</ele>
        <time>2019-10-12T13:58:20Z</time>
      </trkpt>
      <trkpt lat="43.49149" lon="6.53533">
        <ele>74</ele>
        <time>2019-10-12T13:58:25Z</time>
      </trkpt>
      <trkpt lat="43.49134" lon="6.53518">
        <ele>72.800003051758</ele>
        <time>2019-10-12T13:58:28Z</time>
      </trkpt>
      <trkpt lat="43.4909" lon="6.53512">
        <ele>70</ele>
        <time>2019-10-12T13:58:37Z</time>
      </trkpt>
      <trkpt lat="43.49066" lon="6.53506">
        <ele>69.800003051758</ele>
        <time>2019-10-12T13:58:43Z</time>
      </trkpt>
      <trkpt lat="43.49037" lon="6.53497">
        <ele>70.199996948242</ele>
        <time>2019-10-12T13:58:51Z</time>
      </trkpt>
      <trkpt lat="43.49025" lon="6.53491">
        <ele>70.800003051758</ele>
        <time>2019-10-12T13:58:56Z</time>
      </trkpt>
      <trkpt lat="43.49014" lon="6.53484">
        <ele>72.199996948242</ele>
        <time>2019-10-12T13:59:02Z</time>
      </trkpt>
      <trkpt lat="43.4901" lon="6.53482">
        <ele>72.400001525879</ele>
        <time>2019-10-12T13:59:04Z</time>
      </trkpt>
      <trkpt lat="43.48999" lon="6.53478">
        <ele>73.599998474121</ele>
        <time>2019-10-12T13:59:10Z</time>
      </trkpt>
      <trkpt lat="43.48978" lon="6.53471">
        <ele>75</ele>
        <time>2019-10-12T13:59:17Z</time>
      </trkpt>
      <trkpt lat="43.48955" lon="6.53466">
        <ele>76</ele>
        <time>2019-10-12T13:59:25Z</time>
      </trkpt>
      <trkpt lat="43.48935" lon="6.53461">
        <ele>77.800003051758</ele>
        <time>2019-10-12T13:59:35Z</time>
      </trkpt>
      <trkpt lat="43.48919" lon="6.53472">
        <ele>79.199996948242</ele>
        <time>2019-10-12T13:59:44Z</time>
      </trkpt>
      <trkpt lat="43.48888" lon="6.53501">
        <ele>80.599998474121</ele>
        <time>2019-10-12T13:59:56Z</time>
      </trkpt>
      <trkpt lat="43.48856" lon="6.53525">
        <ele>80.800003051758</ele>
        <time>2019-10-12T14:00:05Z</time>
      </trkpt>
      <trkpt lat="43.48819" lon="6.53561">
        <ele>81.400001525879</ele>
        <time>2019-10-12T14:00:15Z</time>
      </trkpt>
      <trkpt lat="43.48811" lon="6.53593">
        <ele>82</ele>
        <time>2019-10-12T14:00:20Z</time>
      </trkpt>
      <trkpt lat="43.48815" lon="6.53622">
        <ele>82.199996948242</ele>
        <time>2019-10-12T14:00:24Z</time>
      </trkpt>
      <trkpt lat="43.48816" lon="6.53658">
        <ele>82.599998474121</ele>
        <time>2019-10-12T14:00:30Z</time>
      </trkpt>
      <trkpt lat="43.48817" lon="6.53713">
        <ele>82.800003051758</ele>
        <time>2019-10-12T14:00:38Z</time>
      </trkpt>
      <trkpt lat="43.48818" lon="6.53755">
        <ele>83</ele>
        <time>2019-10-12T14:00:44Z</time>
      </trkpt>
      <trkpt lat="43.48815" lon="6.53787">
        <ele>83.400001525879</ele>
        <time>2019-10-12T14:00:49Z</time>
      </trkpt>
      <trkpt lat="43.4881" lon="6.53813">
        <ele>83.599998474121</ele>
        <time>2019-10-12T14:00:53Z</time>
      </trkpt>
      <trkpt lat="43.48805" lon="6.53839">
        <ele>83.800003051758</ele>
        <time>2019-10-12T14:00:57Z</time>
      </trkpt>
      <trkpt lat="43.48786" lon="6.53876">
        <ele>84.400001525879</ele>
        <time>2019-10-12T14:01:04Z</time>
      </trkpt>
      <trkpt lat="43.48762" lon="6.53886">
        <ele>84.800003051758</ele>
        <time>2019-10-12T14:01:09Z</time>
      </trkpt>
      <trkpt lat="43.48716" lon="6.53919">
        <ele>85.800003051758</ele>
        <time>2019-10-12T14:01:20Z</time>
      </trkpt>
      <trkpt lat="43.48692" lon="6.53928">
        <ele>86.199996948242</ele>
        <time>2019-10-12T14:01:26Z</time>
      </trkpt>
      <trkpt lat="43.4866" lon="6.53931">
        <ele>86.199996948242</ele>
        <time>2019-10-12T14:01:32Z</time>
      </trkpt>
      <trkpt lat="43.48649" lon="6.53934">
        <ele>86.199996948242</ele>
        <time>2019-10-12T14:01:34Z</time>
      </trkpt>
      <trkpt lat="43.48631" lon="6.53945">
        <ele>85.800003051758</ele>
        <time>2019-10-12T14:01:38Z</time>
      </trkpt>
      <trkpt lat="43.48616" lon="6.53967">
        <ele>85.199996948242</ele>
        <time>2019-10-12T14:01:42Z</time>
      </trkpt>
      <trkpt lat="43.48567" lon="6.54044">
        <ele>84</ele>
        <time>2019-10-12T14:01:54Z</time>
      </trkpt>
      <trkpt lat="43.48531" lon="6.54106">
        <ele>83.199996948242</ele>
        <time>2019-10-12T14:02:04Z</time>
      </trkpt>
      <trkpt lat="43.48493" lon="6.54171">
        <ele>83.599998474121</ele>
        <time>2019-10-12T14:02:16Z</time>
      </trkpt>
      <trkpt lat="43.4848" lon="6.54193">
        <ele>84</ele>
        <time>2019-10-12T14:02:20Z</time>
      </trkpt>
      <trkpt lat="43.48444" lon="6.54253">
        <ele>84.800003051758</ele>
        <time>2019-10-12T14:02:32Z</time>
      </trkpt>
      <trkpt lat="43.48418" lon="6.54331">
        <ele>85.199996948242</ele>
        <time>2019-10-12T14:02:45Z</time>
      </trkpt>
      <trkpt lat="43.4839" lon="6.544">
        <ele>85.199996948242</ele>
        <time>2019-10-12T14:02:56Z</time>
      </trkpt>
      <trkpt lat="43.48361" lon="6.54466">
        <ele>84.400001525879</ele>
        <time>2019-10-12T14:03:06Z</time>
      </trkpt>
      <trkpt lat="43.48355" lon="6.54488">
        <ele>83.800003051758</ele>
        <time>2019-10-12T14:03:09Z</time>
      </trkpt>
      <trkpt lat="43.48344" lon="6.54526">
        <ele>83.400001525879</ele>
        <time>2019-10-12T14:03:14Z</time>
      </trkpt>
      <trkpt lat="43.48327" lon="6.54587">
        <ele>82.199996948242</ele>
        <time>2019-10-12T14:03:21Z</time>
      </trkpt>
      <trkpt lat="43.48291" lon="6.54641">
        <ele>80.800003051758</ele>
        <time>2019-10-12T14:03:28Z</time>
      </trkpt>
      <trkpt lat="43.48262" lon="6.54675">
        <ele>80.199996948242</ele>
        <time>2019-10-12T14:03:33Z</time>
      </trkpt>
      <trkpt lat="43.48236" lon="6.54718">
        <ele>79.199996948242</ele>
        <time>2019-10-12T14:03:39Z</time>
      </trkpt>
      <trkpt lat="43.48225" lon="6.54743">
        <ele>78.599998474121</ele>
        <time>2019-10-12T14:03:42Z</time>
      </trkpt>
      <trkpt lat="43.48211" lon="6.54791">
        <ele>77.800003051758</ele>
        <time>2019-10-12T14:03:47Z</time>
      </trkpt>
      <trkpt lat="43.48209" lon="6.54822">
        <ele>77.199996948242</ele>
        <time>2019-10-12T14:03:50Z</time>
      </trkpt>
      <trkpt lat="43.48216" lon="6.54907">
        <ele>75.599998474121</ele>
        <time>2019-10-12T14:03:58Z</time>
      </trkpt>
      <trkpt lat="43.48212" lon="6.54927">
        <ele>75.199996948242</ele>
        <time>2019-10-12T14:04:00Z</time>
      </trkpt>
      <trkpt lat="43.48193" lon="6.54983">
        <ele>73.400001525879</ele>
        <time>2019-10-12T14:04:06Z</time>
      </trkpt>
      <trkpt lat="43.48161" lon="6.55085">
        <ele>71.199996948242</ele>
        <time>2019-10-12T14:04:17Z</time>
      </trkpt>
      <trkpt lat="43.48158" lon="6.55111">
        <ele>71</ele>
        <time>2019-10-12T14:04:20Z</time>
      </trkpt>
      <trkpt lat="43.48168" lon="6.55185">
        <ele>70.599998474121</ele>
        <time>2019-10-12T14:04:28Z</time>
      </trkpt>
      <trkpt lat="43.48169" lon="6.55211">
        <ele>70.400001525879</ele>
        <time>2019-10-12T14:04:31Z</time>
      </trkpt>
      <trkpt lat="43.48152" lon="6.55261">
        <ele>69.400001525879</ele>
        <time>2019-10-12T14:04:38Z</time>
      </trkpt>
      <trkpt lat="43.48129" lon="6.55304">
        <ele>69.199996948242</ele>
        <time>2019-10-12T14:04:44Z</time>
      </trkpt>
      <trkpt lat="43.48091" lon="6.55367">
        <ele>68.599998474121</ele>
        <time>2019-10-12T14:04:53Z</time>
      </trkpt>
      <trkpt lat="43.4806" lon="6.55417">
        <ele>67.599998474121</ele>
        <time>2019-10-12T14:05:00Z</time>
      </trkpt>
      <trkpt lat="43.47998" lon="6.55516">
        <ele>67</ele>
        <time>2019-10-12T14:05:14Z</time>
      </trkpt>
      <trkpt lat="43.47968" lon="6.55566">
        <ele>66.199996948242</ele>
        <time>2019-10-12T14:05:21Z</time>
      </trkpt>
      <trkpt lat="43.47945" lon="6.55626">
        <ele>66</ele>
        <time>2019-10-12T14:05:29Z</time>
      </trkpt>
      <trkpt lat="43.47916" lon="6.55728">
        <ele>65.199996948242</ele>
        <time>2019-10-12T14:05:41Z</time>
      </trkpt>
      <trkpt lat="43.47898" lon="6.55776">
        <ele>64.599998474121</ele>
        <time>2019-10-12T14:05:47Z</time>
      </trkpt>
      <trkpt lat="43.47864" lon="6.55825">
        <ele>64</ele>
        <time>2019-10-12T14:05:54Z</time>
      </trkpt>
      <trkpt lat="43.47839" lon="6.55855">
        <ele>63.200000762939</ele>
        <time>2019-10-12T14:05:59Z</time>
      </trkpt>
      <trkpt lat="43.47787" lon="6.55937">
        <ele>61.400001525879</ele>
        <time>2019-10-12T14:06:12Z</time>
      </trkpt>
      <trkpt lat="43.47763" lon="6.55981">
        <ele>60.799999237061</ele>
        <time>2019-10-12T14:06:18Z</time>
      </trkpt>
      <trkpt lat="43.47713" lon="6.56068">
        <ele>60.799999237061</ele>
        <time>2019-10-12T14:06:31Z</time>
      </trkpt>
      <trkpt lat="43.47693" lon="6.56101">
        <ele>60.400001525879</ele>
        <time>2019-10-12T14:06:36Z</time>
      </trkpt>
      <trkpt lat="43.4765" lon="6.56134">
        <ele>60.200000762939</ele>
        <time>2019-10-12T14:06:44Z</time>
      </trkpt>
      <trkpt lat="43.47582" lon="6.56156">
        <ele>59.599998474121</ele>
        <time>2019-10-12T14:06:55Z</time>
      </trkpt>
      <trkpt lat="43.47522" lon="6.56176">
        <ele>58.799999237061</ele>
        <time>2019-10-12T14:07:06Z</time>
      </trkpt>
      <trkpt lat="43.47497" lon="6.56183">
        <ele>58.400001525879</ele>
        <time>2019-10-12T14:07:10Z</time>
      </trkpt>
      <trkpt lat="43.47469" lon="6.56194">
        <ele>57.799999237061</ele>
        <time>2019-10-12T14:07:14Z</time>
      </trkpt>
      <trkpt lat="43.47422" lon="6.56215">
        <ele>55.599998474121</ele>
        <time>2019-10-12T14:07:22Z</time>
      </trkpt>
      <trkpt lat="43.47411" lon="6.56221">
        <ele>54.400001525879</ele>
        <time>2019-10-12T14:07:27Z</time>
      </trkpt>
      <trkpt lat="43.47397" lon="6.56229">
        <ele>54.200000762939</ele>
        <time>2019-10-12T14:07:44Z</time>
      </trkpt>
      <trkpt lat="43.47389" lon="6.56233">
        <ele>54.400001525879</ele>
        <time>2019-10-12T14:08:05Z</time>
      </trkpt>
      <trkpt lat="43.47368" lon="6.56247">
        <ele>54.400001525879</ele>
        <time>2019-10-12T14:08:11Z</time>
      </trkpt>
      <trkpt lat="43.47353" lon="6.56264">
        <ele>54.599998474121</ele>
        <time>2019-10-12T14:08:16Z</time>
      </trkpt>
      <trkpt lat="43.47338" lon="6.56283">
        <ele>55.200000762939</ele>
        <time>2019-10-12T14:08:22Z</time>
      </trkpt>
      <trkpt lat="43.4734" lon="6.56309">
        <ele>55.799999237061</ele>
        <time>2019-10-12T14:08:26Z</time>
      </trkpt>
      <trkpt lat="43.47294" lon="6.56347">
        <ele>56</ele>
        <time>2019-10-12T14:08:37Z</time>
      </trkpt>
      <trkpt lat="43.47284" lon="6.56372">
        <ele>55.400001525879</ele>
        <time>2019-10-12T14:08:41Z</time>
      </trkpt>
      <trkpt lat="43.47264" lon="6.56382">
        <ele>54.799999237061</ele>
        <time>2019-10-12T14:08:45Z</time>
      </trkpt>
      <trkpt lat="43.47248" lon="6.56407">
        <ele>54.599998474121</ele>
        <time>2019-10-12T14:08:49Z</time>
      </trkpt>
      <trkpt lat="43.47241" lon="6.56441">
        <ele>53.599998474121</ele>
        <time>2019-10-12T14:08:54Z</time>
      </trkpt>
      <trkpt lat="43.47234" lon="6.56471">
        <ele>53.200000762939</ele>
        <time>2019-10-12T14:08:58Z</time>
      </trkpt>
      <trkpt lat="43.47252" lon="6.56525">
        <ele>52.599998474121</ele>
        <time>2019-10-12T14:09:05Z</time>
      </trkpt>
      <trkpt lat="43.47249" lon="6.56542">
        <ele>52.200000762939</ele>
        <time>2019-10-12T14:09:08Z</time>
      </trkpt>
      <trkpt lat="43.47249" lon="6.56568">
        <ele>51.400001525879</ele>
        <time>2019-10-12T14:09:12Z</time>
      </trkpt>
      <trkpt lat="43.47249" lon="6.56609">
        <ele>50.400001525879</ele>
        <time>2019-10-12T14:09:18Z</time>
      </trkpt>
      <trkpt lat="43.47213" lon="6.56616">
        <ele>49</ele>
        <time>2019-10-12T14:09:26Z</time>
      </trkpt>
      <trkpt lat="43.47191" lon="6.56609">
        <ele>48</ele>
        <time>2019-10-12T14:09:35Z</time>
      </trkpt>
      <trkpt lat="43.47204" lon="6.56613">
        <ele>47.599998474121</ele>
        <time>2019-10-12T14:09:42Z</time>
      </trkpt>
      <trkpt lat="43.47204" lon="6.56613">
        <ele>47.400001525879</ele>
        <time>2019-10-12T14:09:45Z</time>
      </trkpt>
      <trkpt lat="43.4716" lon="6.56644">
        <ele>47.200000762939</ele>
        <time>2019-10-12T14:09:49Z</time>
      </trkpt>
      <trkpt lat="43.47154" lon="6.56673">
        <ele>46.799999237061</ele>
        <time>2019-10-12T14:09:54Z</time>
      </trkpt>
      <trkpt lat="43.47172" lon="6.5671">
        <ele>46.599998474121</ele>
        <time>2019-10-12T14:09:56Z</time>
      </trkpt>
      <trkpt lat="43.47179" lon="6.56725">
        <ele>45.599998474121</ele>
        <time>2019-10-12T14:10:03Z</time>
      </trkpt>
      <trkpt lat="43.47183" lon="6.56755">
        <ele>45.200000762939</ele>
        <time>2019-10-12T14:10:06Z</time>
      </trkpt>
      <trkpt lat="43.47185" lon="6.56782">
        <ele>44.599998474121</ele>
        <time>2019-10-12T14:10:10Z</time>
      </trkpt>
      <trkpt lat="43.47209" lon="6.56822">
        <ele>43.599998474121</ele>
        <time>2019-10-12T14:10:14Z</time>
      </trkpt>
      <trkpt lat="43.47212" lon="6.56854">
        <ele>41.400001525879</ele>
        <time>2019-10-12T14:10:20Z</time>
      </trkpt>
      <trkpt lat="43.47213" lon="6.56858">
        <ele>39</ele>
        <time>2019-10-12T14:10:25Z</time>
      </trkpt>
      <trkpt lat="43.47198" lon="6.56913">
        <ele>38.200000762939</ele>
        <time>2019-10-12T14:10:30Z</time>
      </trkpt>
      <trkpt lat="43.47211" lon="6.56958">
        <ele>36.799999237061</ele>
        <time>2019-10-12T14:10:36Z</time>
      </trkpt>
      <trkpt lat="43.47207" lon="6.56988">
        <ele>36</ele>
        <time>2019-10-12T14:10:41Z</time>
      </trkpt>
      <trkpt lat="43.47202" lon="6.57015">
        <ele>36</ele>
        <time>2019-10-12T14:10:47Z</time>
      </trkpt>
      <trkpt lat="43.47227" lon="6.5712">
        <ele>36</ele>
        <time>2019-10-12T14:11:01Z</time>
      </trkpt>
      <trkpt lat="43.47228" lon="6.57133">
        <ele>36</ele>
        <time>2019-10-12T14:11:05Z</time>
      </trkpt>
      <trkpt lat="43.47191" lon="6.57199">
        <ele>36.200000762939</ele>
        <time>2019-10-12T14:11:15Z</time>
      </trkpt>
      <trkpt lat="43.47168" lon="6.57254">
        <ele>35.799999237061</ele>
        <time>2019-10-12T14:11:30Z</time>
      </trkpt>
      <trkpt lat="43.47163" lon="6.57276">
        <ele>36</ele>
        <time>2019-10-12T14:11:33Z</time>
      </trkpt>
      <trkpt lat="43.47112" lon="6.57319">
        <ele>36</ele>
        <time>2019-10-12T14:11:43Z</time>
      </trkpt>
      <trkpt lat="43.4711" lon="6.5736">
        <ele>36</ele>
        <time>2019-10-12T14:11:47Z</time>
      </trkpt>
      <trkpt lat="43.47098" lon="6.57456">
        <ele>36</ele>
        <time>2019-10-12T14:12:00Z</time>
      </trkpt>
      <trkpt lat="43.47086" lon="6.57542">
        <ele>36.200000762939</ele>
        <time>2019-10-12T14:12:11Z</time>
      </trkpt>
      <trkpt lat="43.47057" lon="6.57561">
        <ele>36.400001525879</ele>
        <time>2019-10-12T14:12:15Z</time>
      </trkpt>
      <trkpt lat="43.47051" lon="6.57689">
        <ele>36.599998474121</ele>
        <time>2019-10-12T14:12:32Z</time>
      </trkpt>
      <trkpt lat="43.47048" lon="6.57751">
        <ele>36.599998474121</ele>
        <time>2019-10-12T14:12:40Z</time>
      </trkpt>
      <trkpt lat="43.47045" lon="6.57793">
        <ele>36.400001525879</ele>
        <time>2019-10-12T14:12:46Z</time>
      </trkpt>
      <trkpt lat="43.47037" lon="6.57918">
        <ele>36</ele>
        <time>2019-10-12T14:13:03Z</time>
      </trkpt>
      <trkpt lat="43.47032" lon="6.57967">
        <ele>35.599998474121</ele>
        <time>2019-10-12T14:13:10Z</time>
      </trkpt>
      <trkpt lat="43.47024" lon="6.57986">
        <ele>35.599998474121</ele>
        <time>2019-10-12T14:13:13Z</time>
      </trkpt>
      <trkpt lat="43.47023" lon="6.58014">
        <ele>35.400001525879</ele>
        <time>2019-10-12T14:13:17Z</time>
      </trkpt>
      <trkpt lat="43.47024" lon="6.58032">
        <ele>35.200000762939</ele>
        <time>2019-10-12T14:13:20Z</time>
      </trkpt>
      <trkpt lat="43.47016" lon="6.58074">
        <ele>35.200000762939</ele>
        <time>2019-10-12T14:13:30Z</time>
      </trkpt>
      <trkpt lat="43.47013" lon="6.58091">
        <ele>35.200000762939</ele>
        <time>2019-10-12T14:13:34Z</time>
      </trkpt>
      <trkpt lat="43.47006" lon="6.58112">
        <ele>35.400001525879</ele>
        <time>2019-10-12T14:13:43Z</time>
      </trkpt>
      <trkpt lat="43.46995" lon="6.5818">
        <ele>35.599998474121</ele>
        <time>2019-10-12T14:13:56Z</time>
      </trkpt>
      <trkpt lat="43.46979" lon="6.58221">
        <ele>35.599998474121</ele>
        <time>2019-10-12T14:14:03Z</time>
      </trkpt>
      <trkpt lat="43.46953" lon="6.58271">
        <ele>36</ele>
        <time>2019-10-12T14:14:11Z</time>
      </trkpt>
      <trkpt lat="43.46929" lon="6.58347">
        <ele>36.200000762939</ele>
        <time>2019-10-12T14:14:22Z</time>
      </trkpt>
      <trkpt lat="43.46902" lon="6.5843">
        <ele>36.200000762939</ele>
        <time>2019-10-12T14:14:34Z</time>
      </trkpt>
      <trkpt lat="43.46874" lon="6.5852">
        <ele>36.200000762939</ele>
        <time>2019-10-12T14:14:46Z</time>
      </trkpt>
      <trkpt lat="43.46853" lon="6.58585">
        <ele>36.799999237061</ele>
        <time>2019-10-12T14:14:56Z</time>
      </trkpt>
      <trkpt lat="43.46826" lon="6.58677">
        <ele>38</ele>
        <time>2019-10-12T14:15:10Z</time>
      </trkpt>
      <trkpt lat="43.46813" lon="6.58746">
        <ele>39.799999237061</ele>
        <time>2019-10-12T14:15:21Z</time>
      </trkpt>
      <trkpt lat="43.4681" lon="6.58763">
        <ele>40.200000762939</ele>
        <time>2019-10-12T14:15:24Z</time>
      </trkpt>
      <trkpt lat="43.46801" lon="6.58833">
        <ele>42</ele>
        <time>2019-10-12T14:15:35Z</time>
      </trkpt>
      <trkpt lat="43.46798" lon="6.58885">
        <ele>42.799999237061</ele>
        <time>2019-10-12T14:15:43Z</time>
      </trkpt>
      <trkpt lat="43.46797" lon="6.58966">
        <ele>44.200000762939</ele>
        <time>2019-10-12T14:15:55Z</time>
      </trkpt>
      <trkpt lat="43.46798" lon="6.58993">
        <ele>44.400001525879</ele>
        <time>2019-10-12T14:15:59Z</time>
      </trkpt>
      <trkpt lat="43.46801" lon="6.59043">
        <ele>44.799999237061</ele>
        <time>2019-10-12T14:16:06Z</time>
      </trkpt>
      <trkpt lat="43.46803" lon="6.591">
        <ele>44.799999237061</ele>
        <time>2019-10-12T14:16:13Z</time>
      </trkpt>
      <trkpt lat="43.46806" lon="6.5916">
        <ele>44.200000762939</ele>
        <time>2019-10-12T14:16:20Z</time>
      </trkpt>
      <trkpt lat="43.46808" lon="6.59215">
        <ele>43.599998474121</ele>
        <time>2019-10-12T14:16:26Z</time>
      </trkpt>
      <trkpt lat="43.4681" lon="6.59254">
        <ele>43</ele>
        <time>2019-10-12T14:16:30Z</time>
      </trkpt>
      <trkpt lat="43.46813" lon="6.59303">
        <ele>42</ele>
        <time>2019-10-12T14:16:35Z</time>
      </trkpt>
      <trkpt lat="43.46817" lon="6.59384">
        <ele>40.400001525879</ele>
        <time>2019-10-12T14:16:43Z</time>
      </trkpt>
      <trkpt lat="43.46821" lon="6.59479">
        <ele>37.799999237061</ele>
        <time>2019-10-12T14:16:52Z</time>
      </trkpt>
      <trkpt lat="43.46823" lon="6.59521">
        <ele>37.200000762939</ele>
        <time>2019-10-12T14:16:56Z</time>
      </trkpt>
      <trkpt lat="43.46826" lon="6.59593">
        <ele>35.599998474121</ele>
        <time>2019-10-12T14:17:03Z</time>
      </trkpt>
      <trkpt lat="43.46825" lon="6.59678">
        <ele>34.599998474121</ele>
        <time>2019-10-12T14:17:11Z</time>
      </trkpt>
      <trkpt lat="43.46814" lon="6.59769">
        <ele>34.200000762939</ele>
        <time>2019-10-12T14:17:21Z</time>
      </trkpt>
      <trkpt lat="43.4681" lon="6.59796">
        <ele>34.200000762939</ele>
        <time>2019-10-12T14:17:24Z</time>
      </trkpt>
      <trkpt lat="43.46807" lon="6.5982">
        <ele>34.400001525879</ele>
        <time>2019-10-12T14:17:27Z</time>
      </trkpt>
      <trkpt lat="43.46791" lon="6.59937">
        <ele>34.799999237061</ele>
        <time>2019-10-12T14:17:42Z</time>
      </trkpt>
      <trkpt lat="43.46784" lon="6.59979">
        <ele>35</ele>
        <time>2019-10-12T14:17:47Z</time>
      </trkpt>
      <trkpt lat="43.46775" lon="6.60047">
        <ele>35.200000762939</ele>
        <time>2019-10-12T14:17:55Z</time>
      </trkpt>
      <trkpt lat="43.46768" lon="6.60111">
        <ele>35</ele>
        <time>2019-10-12T14:18:02Z</time>
      </trkpt>
      <trkpt lat="43.46754" lon="6.60231">
        <ele>34.599998474121</ele>
        <time>2019-10-12T14:18:15Z</time>
      </trkpt>
      <trkpt lat="43.46744" lon="6.60336">
        <ele>34.400001525879</ele>
        <time>2019-10-12T14:18:26Z</time>
      </trkpt>
      <trkpt lat="43.46744" lon="6.60411">
        <ele>34.400001525879</ele>
        <time>2019-10-12T14:18:34Z</time>
      </trkpt>
      <trkpt lat="43.46745" lon="6.60525">
        <ele>33.599998474121</ele>
        <time>2019-10-12T14:18:46Z</time>
      </trkpt>
      <trkpt lat="43.46747" lon="6.60642">
        <ele>32.799999237061</ele>
        <time>2019-10-12T14:18:59Z</time>
      </trkpt>
      <trkpt lat="43.46748" lon="6.60748">
        <ele>32</ele>
        <time>2019-10-12T14:19:11Z</time>
      </trkpt>
      <trkpt lat="43.46749" lon="6.60848">
        <ele>32.200000762939</ele>
        <time>2019-10-12T14:19:23Z</time>
      </trkpt>
      <trkpt lat="43.46749" lon="6.60896">
        <ele>32.200000762939</ele>
        <time>2019-10-12T14:19:29Z</time>
      </trkpt>
      <trkpt lat="43.46732" lon="6.61039">
        <ele>32.400001525879</ele>
        <time>2019-10-12T14:19:44Z</time>
      </trkpt>
      <trkpt lat="43.46721" lon="6.61104">
        <ele>32.400001525879</ele>
        <time>2019-10-12T14:19:51Z</time>
      </trkpt>
      <trkpt lat="43.46712" lon="6.6116">
        <ele>32.799999237061</ele>
        <time>2019-10-12T14:19:58Z</time>
      </trkpt>
      <trkpt lat="43.46694" lon="6.6126">
        <ele>33.599998474121</ele>
        <time>2019-10-12T14:20:13Z</time>
      </trkpt>
      <trkpt lat="43.46683" lon="6.61316">
        <ele>34.599998474121</ele>
        <time>2019-10-12T14:20:22Z</time>
      </trkpt>
      <trkpt lat="43.46665" lon="6.61408">
        <ele>36</ele>
        <time>2019-10-12T14:20:37Z</time>
      </trkpt>
      <trkpt lat="43.46663" lon="6.61419">
        <ele>36.400001525879</ele>
        <time>2019-10-12T14:20:39Z</time>
      </trkpt>
      <trkpt lat="43.46648" lon="6.61494">
        <ele>38.200000762939</ele>
        <time>2019-10-12T14:20:52Z</time>
      </trkpt>
      <trkpt lat="43.46637" lon="6.61547">
        <ele>39.799999237061</ele>
        <time>2019-10-12T14:21:02Z</time>
      </trkpt>
      <trkpt lat="43.46627" lon="6.61594">
        <ele>41.200000762939</ele>
        <time>2019-10-12T14:21:12Z</time>
      </trkpt>
      <trkpt lat="43.46617" lon="6.6164">
        <ele>42.200000762939</ele>
        <time>2019-10-12T14:21:22Z</time>
      </trkpt>
      <trkpt lat="43.46604" lon="6.617">
        <ele>43.400001525879</ele>
        <time>2019-10-12T14:21:34Z</time>
      </trkpt>
      <trkpt lat="43.46595" lon="6.61739">
        <ele>44.200000762939</ele>
        <time>2019-10-12T14:21:41Z</time>
      </trkpt>
      <trkpt lat="43.46573" lon="6.61834">
        <ele>46.400001525879</ele>
        <time>2019-10-12T14:21:59Z</time>
      </trkpt>
      <trkpt lat="43.46556" lon="6.61894">
        <ele>48.200000762939</ele>
        <time>2019-10-12T14:22:11Z</time>
      </trkpt>
      <trkpt lat="43.46544" lon="6.61935">
        <ele>48.799999237061</ele>
        <time>2019-10-12T14:22:19Z</time>
      </trkpt>
      <trkpt lat="43.46523" lon="6.62001">
        <ele>51</ele>
        <time>2019-10-12T14:22:32Z</time>
      </trkpt>
      <trkpt lat="43.46508" lon="6.62045">
        <ele>52</ele>
        <time>2019-10-12T14:22:41Z</time>
      </trkpt>
      <trkpt lat="43.46493" lon="6.62087">
        <ele>53.599998474121</ele>
        <time>2019-10-12T14:22:50Z</time>
      </trkpt>
      <trkpt lat="43.46481" lon="6.62121">
        <ele>54.400001525879</ele>
        <time>2019-10-12T14:22:57Z</time>
      </trkpt>
      <trkpt lat="43.46449" lon="6.62212">
        <ele>56.799999237061</ele>
        <time>2019-10-12T14:23:14Z</time>
      </trkpt>
      <trkpt lat="43.46433" lon="6.62259">
        <ele>57.599998474121</ele>
        <time>2019-10-12T14:23:22Z</time>
      </trkpt>
      <trkpt lat="43.46413" lon="6.6231">
        <ele>57.400001525879</ele>
        <time>2019-10-12T14:23:31Z</time>
      </trkpt>
      <trkpt lat="43.46404" lon="6.62337">
        <ele>57.400001525879</ele>
        <time>2019-10-12T14:23:35Z</time>
      </trkpt>
      <trkpt lat="43.46383" lon="6.62393">
        <ele>56.799999237061</ele>
        <time>2019-10-12T14:23:43Z</time>
      </trkpt>
      <trkpt lat="43.46375" lon="6.62416">
        <ele>56.599998474121</ele>
        <time>2019-10-12T14:23:46Z</time>
      </trkpt>
      <trkpt lat="43.46359" lon="6.62459">
        <ele>55.799999237061</ele>
        <time>2019-10-12T14:23:52Z</time>
      </trkpt>
      <trkpt lat="43.46318" lon="6.62566">
        <ele>53.799999237061</ele>
        <time>2019-10-12T14:24:07Z</time>
      </trkpt>
      <trkpt lat="43.46297" lon="6.62622">
        <ele>52.799999237061</ele>
        <time>2019-10-12T14:24:14Z</time>
      </trkpt>
      <trkpt lat="43.46266" lon="6.62718">
        <ele>51.799999237061</ele>
        <time>2019-10-12T14:24:25Z</time>
      </trkpt>
      <trkpt lat="43.46245" lon="6.62829">
        <ele>50.200000762939</ele>
        <time>2019-10-12T14:24:37Z</time>
      </trkpt>
      <trkpt lat="43.46239" lon="6.62908">
        <ele>48.200000762939</ele>
        <time>2019-10-12T14:24:45Z</time>
      </trkpt>
      <trkpt lat="43.46239" lon="6.6294">
        <ele>47.200000762939</ele>
        <time>2019-10-12T14:24:48Z</time>
      </trkpt>
      <trkpt lat="43.46239" lon="6.63024">
        <ele>45.200000762939</ele>
        <time>2019-10-12T14:24:56Z</time>
      </trkpt>
      <trkpt lat="43.46245" lon="6.6309">
        <ele>43.400001525879</ele>
        <time>2019-10-12T14:25:02Z</time>
      </trkpt>
      <trkpt lat="43.46253" lon="6.63158">
        <ele>41.400001525879</ele>
        <time>2019-10-12T14:25:08Z</time>
      </trkpt>
      <trkpt lat="43.46259" lon="6.63204">
        <ele>39.799999237061</ele>
        <time>2019-10-12T14:25:12Z</time>
      </trkpt>
      <trkpt lat="43.46269" lon="6.63283">
        <ele>37.200000762939</ele>
        <time>2019-10-12T14:25:19Z</time>
      </trkpt>
      <trkpt lat="43.46274" lon="6.63318">
        <ele>36</ele>
        <time>2019-10-12T14:25:22Z</time>
      </trkpt>
      <trkpt lat="43.46287" lon="6.63386">
        <ele>33.799999237061</ele>
        <time>2019-10-12T14:25:28Z</time>
      </trkpt>
      <trkpt lat="43.46304" lon="6.63454">
        <ele>31.60000038147</ele>
        <time>2019-10-12T14:25:34Z</time>
      </trkpt>
      <trkpt lat="43.46312" lon="6.63475">
        <ele>31.200000762939</ele>
        <time>2019-10-12T14:25:36Z</time>
      </trkpt>
      <trkpt lat="43.46316" lon="6.63583">
        <ele>28.39999961853</ele>
        <time>2019-10-12T14:25:47Z</time>
      </trkpt>
      <trkpt lat="43.4631" lon="6.63621">
        <ele>27.60000038147</ele>
        <time>2019-10-12T14:25:51Z</time>
      </trkpt>
      <trkpt lat="43.46328" lon="6.63657">
        <ele>27.60000038147</ele>
        <time>2019-10-12T14:25:55Z</time>
      </trkpt>
      <trkpt lat="43.46344" lon="6.63668">
        <ele>27.39999961853</ele>
        <time>2019-10-12T14:25:58Z</time>
      </trkpt>
      <trkpt lat="43.46376" lon="6.63709">
        <ele>27.39999961853</ele>
        <time>2019-10-12T14:26:05Z</time>
      </trkpt>
      <trkpt lat="43.46384" lon="6.63752">
        <ele>27.39999961853</ele>
        <time>2019-10-12T14:26:10Z</time>
      </trkpt>
      <trkpt lat="43.46394" lon="6.63864">
        <ele>27</ele>
        <time>2019-10-12T14:26:23Z</time>
      </trkpt>
      <trkpt lat="43.4639" lon="6.63995">
        <ele>27.200000762939</ele>
        <time>2019-10-12T14:26:39Z</time>
      </trkpt>
      <trkpt lat="43.46349" lon="6.64193">
        <ele>27.200000762939</ele>
        <time>2019-10-12T14:27:04Z</time>
      </trkpt>
      <trkpt lat="43.4631" lon="6.64295">
        <ele>27.200000762939</ele>
        <time>2019-10-12T14:27:18Z</time>
      </trkpt>
      <trkpt lat="43.4624" lon="6.64472">
        <ele>27.200000762939</ele>
        <time>2019-10-12T14:27:43Z</time>
      </trkpt>
      <trkpt lat="43.4622" lon="6.64593">
        <ele>27.200000762939</ele>
        <time>2019-10-12T14:27:58Z</time>
      </trkpt>
      <trkpt lat="43.4623" lon="6.64722">
        <ele>27.200000762939</ele>
        <time>2019-10-12T14:28:13Z</time>
      </trkpt>
      <trkpt lat="43.46234" lon="6.64848">
        <ele>27.39999961853</ele>
        <time>2019-10-12T14:28:29Z</time>
      </trkpt>
      <trkpt lat="43.46218" lon="6.64969">
        <ele>27.200000762939</ele>
        <time>2019-10-12T14:28:43Z</time>
      </trkpt>
      <trkpt lat="43.46197" lon="6.65101">
        <ele>26.799999237061</ele>
        <time>2019-10-12T14:28:59Z</time>
      </trkpt>
      <trkpt lat="43.46177" lon="6.65223">
        <ele>26.799999237061</ele>
        <time>2019-10-12T14:29:14Z</time>
      </trkpt>
      <trkpt lat="43.46167" lon="6.65292">
        <ele>26.799999237061</ele>
        <time>2019-10-12T14:29:22Z</time>
      </trkpt>
      <trkpt lat="43.46164" lon="6.65436">
        <ele>26.60000038147</ele>
        <time>2019-10-12T14:29:38Z</time>
      </trkpt>
      <trkpt lat="43.46185" lon="6.65573">
        <ele>26.39999961853</ele>
        <time>2019-10-12T14:29:54Z</time>
      </trkpt>
      <trkpt lat="43.46191" lon="6.65625">
        <ele>26.39999961853</ele>
        <time>2019-10-12T14:30:01Z</time>
      </trkpt>
      <trkpt lat="43.46193" lon="6.65676">
        <ele>26.200000762939</ele>
        <time>2019-10-12T14:30:10Z</time>
      </trkpt>
      <trkpt lat="43.46176" lon="6.65692">
        <ele>26</ele>
        <time>2019-10-12T14:30:15Z</time>
      </trkpt>
      <trkpt lat="43.46172" lon="6.65747">
        <ele>25.799999237061</ele>
        <time>2019-10-12T14:30:20Z</time>
      </trkpt>
      <trkpt lat="43.46152" lon="6.6583">
        <ele>26</ele>
        <time>2019-10-12T14:30:29Z</time>
      </trkpt>
      <trkpt lat="43.46129" lon="6.65922">
        <ele>26.39999961853</ele>
        <time>2019-10-12T14:30:40Z</time>
      </trkpt>
      <trkpt lat="43.46122" lon="6.65951">
        <ele>26.799999237061</ele>
        <time>2019-10-12T14:30:44Z</time>
      </trkpt>
      <trkpt lat="43.46107" lon="6.66014">
        <ele>29</ele>
        <time>2019-10-12T14:30:56Z</time>
      </trkpt>
      <trkpt lat="43.46096" lon="6.66058">
        <ele>30.799999237061</ele>
        <time>2019-10-12T14:31:05Z</time>
      </trkpt>
      <trkpt lat="43.46092" lon="6.66077">
        <ele>31.60000038147</ele>
        <time>2019-10-12T14:31:09Z</time>
      </trkpt>
      <trkpt lat="43.46075" lon="6.66145">
        <ele>34.200000762939</ele>
        <time>2019-10-12T14:31:23Z</time>
      </trkpt>
      <trkpt lat="43.46066" lon="6.66181">
        <ele>34.799999237061</ele>
        <time>2019-10-12T14:31:29Z</time>
      </trkpt>
      <trkpt lat="43.46056" lon="6.66225">
        <ele>34.799999237061</ele>
        <time>2019-10-12T14:31:35Z</time>
      </trkpt>
      <trkpt lat="43.46044" lon="6.66271">
        <ele>34.200000762939</ele>
        <time>2019-10-12T14:31:40Z</time>
      </trkpt>
      <trkpt lat="43.46028" lon="6.66338">
        <ele>32.599998474121</ele>
        <time>2019-10-12T14:31:46Z</time>
      </trkpt>
      <trkpt lat="43.46003" lon="6.6644">
        <ele>29.39999961853</ele>
        <time>2019-10-12T14:31:54Z</time>
      </trkpt>
      <trkpt lat="43.45992" lon="6.66485">
        <ele>28.200000762939</ele>
        <time>2019-10-12T14:31:58Z</time>
      </trkpt>
      <trkpt lat="43.45983" lon="6.66524">
        <ele>28</ele>
        <time>2019-10-12T14:32:02Z</time>
      </trkpt>
      <trkpt lat="43.45967" lon="6.66587">
        <ele>29</ele>
        <time>2019-10-12T14:32:11Z</time>
      </trkpt>
      <trkpt lat="43.45959" lon="6.66619">
        <ele>30.799999237061</ele>
        <time>2019-10-12T14:32:16Z</time>
      </trkpt>
      <trkpt lat="43.45954" lon="6.66642">
        <ele>31.60000038147</ele>
        <time>2019-10-12T14:32:20Z</time>
      </trkpt>
      <trkpt lat="43.45939" lon="6.66708">
        <ele>33.599998474121</ele>
        <time>2019-10-12T14:32:31Z</time>
      </trkpt>
      <trkpt lat="43.45915" lon="6.66815">
        <ele>33.799999237061</ele>
        <time>2019-10-12T14:32:44Z</time>
      </trkpt>
      <trkpt lat="43.45902" lon="6.6689">
        <ele>33.599998474121</ele>
        <time>2019-10-12T14:32:53Z</time>
      </trkpt>
      <trkpt lat="43.45895" lon="6.66941">
        <ele>33.599998474121</ele>
        <time>2019-10-12T14:32:59Z</time>
      </trkpt>
      <trkpt lat="43.4588" lon="6.67044">
        <ele>32.599998474121</ele>
        <time>2019-10-12T14:33:10Z</time>
      </trkpt>
      <trkpt lat="43.45864" lon="6.67108">
        <ele>31.39999961853</ele>
        <time>2019-10-12T14:33:17Z</time>
      </trkpt>
      <trkpt lat="43.4586" lon="6.67234">
        <ele>29.39999961853</ele>
        <time>2019-10-12T14:33:30Z</time>
      </trkpt>
      <trkpt lat="43.45789" lon="6.67303">
        <ele>28</ele>
        <time>2019-10-12T14:33:39Z</time>
      </trkpt>
      <trkpt lat="43.45755" lon="6.67443">
        <ele>26</ele>
        <time>2019-10-12T14:33:54Z</time>
      </trkpt>
      <trkpt lat="43.45732" lon="6.67538">
        <ele>25.39999961853</ele>
        <time>2019-10-12T14:34:05Z</time>
      </trkpt>
      <trkpt lat="43.45713" lon="6.67615">
        <ele>25.200000762939</ele>
        <time>2019-10-12T14:34:14Z</time>
      </trkpt>
      <trkpt lat="43.45682" lon="6.67736">
        <ele>25.39999961853</ele>
        <time>2019-10-12T14:34:28Z</time>
      </trkpt>
      <trkpt lat="43.45658" lon="6.67831">
        <ele>25.39999961853</ele>
        <time>2019-10-12T14:34:39Z</time>
      </trkpt>
      <trkpt lat="43.45636" lon="6.67916">
        <ele>26.200000762939</ele>
        <time>2019-10-12T14:34:51Z</time>
      </trkpt>
      <trkpt lat="43.45623" lon="6.67967">
        <ele>27.60000038147</ele>
        <time>2019-10-12T14:34:59Z</time>
      </trkpt>
      <trkpt lat="43.45606" lon="6.68039">
        <ele>29.200000762939</ele>
        <time>2019-10-12T14:35:10Z</time>
      </trkpt>
      <trkpt lat="43.45591" lon="6.68109">
        <ele>30.60000038147</ele>
        <time>2019-10-12T14:35:21Z</time>
      </trkpt>
      <trkpt lat="43.45578" lon="6.68164">
        <ele>31.60000038147</ele>
        <time>2019-10-12T14:35:31Z</time>
      </trkpt>
      <trkpt lat="43.45567" lon="6.68207">
        <ele>33</ele>
        <time>2019-10-12T14:35:39Z</time>
      </trkpt>
      <trkpt lat="43.45555" lon="6.68256">
        <ele>35.400001525879</ele>
        <time>2019-10-12T14:35:50Z</time>
      </trkpt>
      <trkpt lat="43.45547" lon="6.68285">
        <ele>36.400001525879</ele>
        <time>2019-10-12T14:35:57Z</time>
      </trkpt>
      <trkpt lat="43.45536" lon="6.68324">
        <ele>38.200000762939</ele>
        <time>2019-10-12T14:36:06Z</time>
      </trkpt>
      <trkpt lat="43.45528" lon="6.68352">
        <ele>39.599998474121</ele>
        <time>2019-10-12T14:36:13Z</time>
      </trkpt>
      <trkpt lat="43.45522" lon="6.68418">
        <ele>40.200000762939</ele>
        <time>2019-10-12T14:36:24Z</time>
      </trkpt>
      <trkpt lat="43.45516" lon="6.6844">
        <ele>40.400001525879</ele>
        <time>2019-10-12T14:36:29Z</time>
      </trkpt>
      <trkpt lat="43.45516" lon="6.68452">
        <ele>40.599998474121</ele>
        <time>2019-10-12T14:36:32Z</time>
      </trkpt>
      <trkpt lat="43.45507" lon="6.68473">
        <ele>40.799999237061</ele>
        <time>2019-10-12T14:36:37Z</time>
      </trkpt>
      <trkpt lat="43.45495" lon="6.68503">
        <ele>40.200000762939</ele>
        <time>2019-10-12T14:36:41Z</time>
      </trkpt>
      <trkpt lat="43.45491" lon="6.68539">
        <ele>38.799999237061</ele>
        <time>2019-10-12T14:36:47Z</time>
      </trkpt>
      <trkpt lat="43.45489" lon="6.68529">
        <ele>38</ele>
        <time>2019-10-12T14:36:50Z</time>
      </trkpt>
      <trkpt lat="43.45488" lon="6.68537">
        <ele>36.599998474121</ele>
        <time>2019-10-12T14:36:55Z</time>
      </trkpt>
      <trkpt lat="43.45486" lon="6.68546">
        <ele>36.200000762939</ele>
        <time>2019-10-12T14:37:01Z</time>
      </trkpt>
      <trkpt lat="43.45484" lon="6.68564">
        <ele>35.400001525879</ele>
        <time>2019-10-12T14:37:08Z</time>
      </trkpt>
      <trkpt lat="43.4548" lon="6.68599">
        <ele>35.200000762939</ele>
        <time>2019-10-12T14:37:14Z</time>
      </trkpt>
      <trkpt lat="43.45473" lon="6.68654">
        <ele>34</ele>
        <time>2019-10-12T14:37:24Z</time>
      </trkpt>
      <trkpt lat="43.4547" lon="6.68673">
        <ele>33.799999237061</ele>
        <time>2019-10-12T14:37:27Z</time>
      </trkpt>
      <trkpt lat="43.45464" lon="6.68712">
        <ele>33</ele>
        <time>2019-10-12T14:37:33Z</time>
      </trkpt>
      <trkpt lat="43.45443" lon="6.68792">
        <ele>32.599998474121</ele>
        <time>2019-10-12T14:37:44Z</time>
      </trkpt>
      <trkpt lat="43.45426" lon="6.68853">
        <ele>32.400001525879</ele>
        <time>2019-10-12T14:37:54Z</time>
      </trkpt>
      <trkpt lat="43.45419" lon="6.68868">
        <ele>32.599998474121</ele>
        <time>2019-10-12T14:37:57Z</time>
      </trkpt>
      <trkpt lat="43.4541" lon="6.68882">
        <ele>32.599998474121</ele>
        <time>2019-10-12T14:38:00Z</time>
      </trkpt>
      <trkpt lat="43.45378" lon="6.68933">
        <ele>33.400001525879</ele>
        <time>2019-10-12T14:38:10Z</time>
      </trkpt>
      <trkpt lat="43.45362" lon="6.68956">
        <ele>33.799999237061</ele>
        <time>2019-10-12T14:38:15Z</time>
      </trkpt>
      <trkpt lat="43.45337" lon="6.68992">
        <ele>35.799999237061</ele>
        <time>2019-10-12T14:38:24Z</time>
      </trkpt>
      <trkpt lat="43.45323" lon="6.69011">
        <ele>37</ele>
        <time>2019-10-12T14:38:33Z</time>
      </trkpt>
      <trkpt lat="43.45319" lon="6.69017">
        <ele>37.400001525879</ele>
        <time>2019-10-12T14:38:40Z</time>
      </trkpt>
      <trkpt lat="43.45271" lon="6.69036">
        <ele>39.200000762939</ele>
        <time>2019-10-12T14:39:36Z</time>
      </trkpt>
      <trkpt lat="43.45273" lon="6.68999">
        <ele>39.200000762939</ele>
        <time>2019-10-12T14:39:48Z</time>
      </trkpt>
      <trkpt lat="43.45284" lon="6.68981">
        <ele>39.200000762939</ele>
        <time>2019-10-12T14:39:57Z</time>
      </trkpt>
      <trkpt lat="43.45295" lon="6.68976">
        <ele>38.599998474121</ele>
        <time>2019-10-12T14:43:21Z</time>
      </trkpt>
      <trkpt lat="43.45279" lon="6.68989">
        <ele>38.799999237061</ele>
        <time>2019-10-12T14:43:29Z</time>
      </trkpt>
      <trkpt lat="43.45283" lon="6.69012">
        <ele>39.400001525879</ele>
        <time>2019-10-12T14:43:40Z</time>
      </trkpt>
      <trkpt lat="43.45298" lon="6.69052">
        <ele>39.400001525879</ele>
        <time>2019-10-12T14:43:54Z</time>
      </trkpt>
      <trkpt lat="43.45276" lon="6.69086">
        <ele>39.599998474121</ele>
        <time>2019-10-12T14:44:06Z</time>
      </trkpt>
      <trkpt lat="43.4526" lon="6.69109">
        <ele>41.200000762939</ele>
        <time>2019-10-12T14:44:16Z</time>
      </trkpt>
      <trkpt lat="43.45249" lon="6.6913">
        <ele>41.799999237061</ele>
        <time>2019-10-12T14:44:22Z</time>
      </trkpt>
      <trkpt lat="43.45178" lon="6.69179">
        <ele>42.400001525879</ele>
        <time>2019-10-12T14:44:41Z</time>
      </trkpt>
      <trkpt lat="43.4514" lon="6.69205">
        <ele>42</ele>
        <time>2019-10-12T14:44:50Z</time>
      </trkpt>
      <trkpt lat="43.45099" lon="6.69242">
        <ele>41</ele>
        <time>2019-10-12T14:44:59Z</time>
      </trkpt>
      <trkpt lat="43.45029" lon="6.69319">
        <ele>40.599998474121</ele>
        <time>2019-10-12T14:45:15Z</time>
      </trkpt>
      <trkpt lat="43.44925" lon="6.69441">
        <ele>39.799999237061</ele>
        <time>2019-10-12T14:45:39Z</time>
      </trkpt>
      <trkpt lat="43.44899" lon="6.69472">
        <ele>39.599998474121</ele>
        <time>2019-10-12T14:45:45Z</time>
      </trkpt>
      <trkpt lat="43.44858" lon="6.69518">
        <ele>39</ele>
        <time>2019-10-12T14:45:54Z</time>
      </trkpt>
      <trkpt lat="43.44838" lon="6.6954">
        <ele>38.799999237061</ele>
        <time>2019-10-12T14:45:58Z</time>
      </trkpt>
      <trkpt lat="43.44754" lon="6.69639">
        <ele>37.799999237061</ele>
        <time>2019-10-12T14:46:16Z</time>
      </trkpt>
      <trkpt lat="43.44704" lon="6.69698">
        <ele>37.400001525879</ele>
        <time>2019-10-12T14:46:27Z</time>
      </trkpt>
      <trkpt lat="43.44631" lon="6.69767">
        <ele>37.799999237061</ele>
        <time>2019-10-12T14:46:44Z</time>
      </trkpt>
      <trkpt lat="43.44606" lon="6.69785">
        <ele>37.599998474121</ele>
        <time>2019-10-12T14:46:54Z</time>
      </trkpt>
      <trkpt lat="43.446" lon="6.69788">
        <ele>37.400001525879</ele>
        <time>2019-10-12T14:46:59Z</time>
      </trkpt>
      <trkpt lat="43.44587" lon="6.69784">
        <ele>37.200000762939</ele>
        <time>2019-10-12T14:47:02Z</time>
      </trkpt>
      <trkpt lat="43.44572" lon="6.69783">
        <ele>37.200000762939</ele>
        <time>2019-10-12T14:47:04Z</time>
      </trkpt>
      <trkpt lat="43.44556" lon="6.69806">
        <ele>37.200000762939</ele>
        <time>2019-10-12T14:47:07Z</time>
      </trkpt>
      <trkpt lat="43.44558" lon="6.69859">
        <ele>36.599998474121</ele>
        <time>2019-10-12T14:47:13Z</time>
      </trkpt>
      <trkpt lat="43.44532" lon="6.69944">
        <ele>36</ele>
        <time>2019-10-12T14:47:26Z</time>
      </trkpt>
      <trkpt lat="43.44515" lon="6.69974">
        <ele>35.799999237061</ele>
        <time>2019-10-12T14:47:31Z</time>
      </trkpt>
      <trkpt lat="43.44487" lon="6.70022">
        <ele>35</ele>
        <time>2019-10-12T14:47:39Z</time>
      </trkpt>
      <trkpt lat="43.44449" lon="6.70066">
        <ele>34.200000762939</ele>
        <time>2019-10-12T14:47:48Z</time>
      </trkpt>
      <trkpt lat="43.44429" lon="6.70097">
        <ele>32.599998474121</ele>
        <time>2019-10-12T14:47:55Z</time>
      </trkpt>
      <trkpt lat="43.44424" lon="6.70104">
        <ele>31.799999237061</ele>
        <time>2019-10-12T14:48:00Z</time>
      </trkpt>
      <trkpt lat="43.44408" lon="6.70128">
        <ele>31.200000762939</ele>
        <time>2019-10-12T14:48:09Z</time>
      </trkpt>
      <trkpt lat="43.44397" lon="6.70141">
        <ele>31.200000762939</ele>
        <time>2019-10-12T14:48:13Z</time>
      </trkpt>
      <trkpt lat="43.44376" lon="6.70149">
        <ele>31.200000762939</ele>
        <time>2019-10-12T14:48:17Z</time>
      </trkpt>
      <trkpt lat="43.44348" lon="6.70193">
        <ele>31.200000762939</ele>
        <time>2019-10-12T14:48:24Z</time>
      </trkpt>
      <trkpt lat="43.44347" lon="6.70207">
        <ele>31.200000762939</ele>
        <time>2019-10-12T14:48:27Z</time>
      </trkpt>
      <trkpt lat="43.44306" lon="6.703">
        <ele>30.39999961853</ele>
        <time>2019-10-12T14:48:41Z</time>
      </trkpt>
      <trkpt lat="43.44239" lon="6.70403">
        <ele>30.60000038147</ele>
        <time>2019-10-12T14:48:59Z</time>
      </trkpt>
      <trkpt lat="43.44185" lon="6.70487">
        <ele>30.799999237061</ele>
        <time>2019-10-12T14:49:13Z</time>
      </trkpt>
      <trkpt lat="43.44151" lon="6.70533">
        <ele>30.39999961853</ele>
        <time>2019-10-12T14:49:21Z</time>
      </trkpt>
      <trkpt lat="43.44096" lon="6.70588">
        <ele>29.799999237061</ele>
        <time>2019-10-12T14:49:31Z</time>
      </trkpt>
      <trkpt lat="43.44063" lon="6.70623">
        <ele>29</ele>
        <time>2019-10-12T14:49:37Z</time>
      </trkpt>
      <trkpt lat="43.44014" lon="6.7067">
        <ele>27.60000038147</ele>
        <time>2019-10-12T14:49:46Z</time>
      </trkpt>
      <trkpt lat="43.43991" lon="6.70692">
        <ele>27</ele>
        <time>2019-10-12T14:49:50Z</time>
      </trkpt>
      <trkpt lat="43.4396" lon="6.70717">
        <ele>26.39999961853</ele>
        <time>2019-10-12T14:49:55Z</time>
      </trkpt>
      <trkpt lat="43.43938" lon="6.7076">
        <ele>25.60000038147</ele>
        <time>2019-10-12T14:49:58Z</time>
      </trkpt>
      <trkpt lat="43.43947" lon="6.708">
        <ele>24.39999961853</ele>
        <time>2019-10-12T14:50:03Z</time>
      </trkpt>
      <trkpt lat="43.43925" lon="6.70856">
        <ele>23</ele>
        <time>2019-10-12T14:50:09Z</time>
      </trkpt>
      <trkpt lat="43.43901" lon="6.7094">
        <ele>22</ele>
        <time>2019-10-12T14:50:18Z</time>
      </trkpt>
      <trkpt lat="43.43886" lon="6.71022">
        <ele>21.799999237061</ele>
        <time>2019-10-12T14:50:26Z</time>
      </trkpt>
      <trkpt lat="43.43875" lon="6.71107">
        <ele>21.60000038147</ele>
        <time>2019-10-12T14:50:35Z</time>
      </trkpt>
      <trkpt lat="43.43858" lon="6.71232">
        <ele>21.39999961853</ele>
        <time>2019-10-12T14:50:48Z</time>
      </trkpt>
      <trkpt lat="43.43849" lon="6.71298">
        <ele>21.60000038147</ele>
        <time>2019-10-12T14:50:55Z</time>
      </trkpt>
      <trkpt lat="43.4383" lon="6.71462">
        <ele>22</ele>
        <time>2019-10-12T14:51:12Z</time>
      </trkpt>
      <trkpt lat="43.43813" lon="6.71589">
        <ele>21.799999237061</ele>
        <time>2019-10-12T14:51:26Z</time>
      </trkpt>
      <trkpt lat="43.43802" lon="6.71717">
        <ele>22</ele>
        <time>2019-10-12T14:51:40Z</time>
      </trkpt>
      <trkpt lat="43.43788" lon="6.71789">
        <ele>22.200000762939</ele>
        <time>2019-10-12T14:51:49Z</time>
      </trkpt>
      <trkpt lat="43.43768" lon="6.7185">
        <ele>23</ele>
        <time>2019-10-12T14:51:58Z</time>
      </trkpt>
      <trkpt lat="43.43757" lon="6.71883">
        <ele>23</ele>
        <time>2019-10-12T14:52:03Z</time>
      </trkpt>
      <trkpt lat="43.4374" lon="6.71935">
        <ele>23.200000762939</ele>
        <time>2019-10-12T14:52:11Z</time>
      </trkpt>
      <trkpt lat="43.43727" lon="6.71974">
        <ele>23.60000038147</ele>
        <time>2019-10-12T14:52:19Z</time>
      </trkpt>
      <trkpt lat="43.43716" lon="6.72005">
        <ele>23.60000038147</ele>
        <time>2019-10-12T14:52:24Z</time>
      </trkpt>
      <trkpt lat="43.43705" lon="6.72035">
        <ele>23.60000038147</ele>
        <time>2019-10-12T14:52:28Z</time>
      </trkpt>
      <trkpt lat="43.43725" lon="6.72036">
        <ele>23.799999237061</ele>
        <time>2019-10-12T14:52:31Z</time>
      </trkpt>
      <trkpt lat="43.43727" lon="6.72029">
        <ele>23.799999237061</ele>
        <time>2019-10-12T14:52:35Z</time>
      </trkpt>
      <trkpt lat="43.43726" lon="6.72009">
        <ele>23.799999237061</ele>
        <time>2019-10-12T14:52:39Z</time>
      </trkpt>
      <trkpt lat="43.43742" lon="6.71957">
        <ele>23.799999237061</ele>
        <time>2019-10-12T14:52:46Z</time>
      </trkpt>
      <trkpt lat="43.43765" lon="6.71916">
        <ele>23.60000038147</ele>
        <time>2019-10-12T14:52:55Z</time>
      </trkpt>
      <trkpt lat="43.4379" lon="6.71916">
        <ele>23.60000038147</ele>
        <time>2019-10-12T14:53:00Z</time>
      </trkpt>
      <trkpt lat="43.43811" lon="6.71923">
        <ele>23.39999961853</ele>
        <time>2019-10-12T14:53:04Z</time>
      </trkpt>
      <trkpt lat="43.43852" lon="6.71939">
        <ele>23.200000762939</ele>
        <time>2019-10-12T14:53:13Z</time>
      </trkpt>
      <trkpt lat="43.43858" lon="6.71941">
        <ele>22.60000038147</ele>
        <time>2019-10-12T14:53:16Z</time>
      </trkpt>
      <trkpt lat="43.4385" lon="6.71938">
        <ele>22.39999961853</ele>
        <time>2019-10-12T14:53:19Z</time>
      </trkpt>
      <trkpt lat="43.43851" lon="6.71995">
        <ele>22.39999961853</ele>
        <time>2019-10-12T14:53:30Z</time>
      </trkpt>
      <trkpt lat="43.43846" lon="6.71969">
        <ele>22.39999961853</ele>
        <time>2019-10-12T14:53:33Z</time>
      </trkpt>
      <trkpt lat="43.43838" lon="6.72012">
        <ele>22.799999237061</ele>
        <time>2019-10-12T14:59:02Z</time>
      </trkpt>
      <trkpt lat="43.43848" lon="6.72005">
        <ele>23</ele>
        <time>2019-10-12T15:01:14Z</time>
      </trkpt>
      <trkpt lat="43.43857" lon="6.72">
        <ele>23.200000762939</ele>
        <time>2019-10-12T15:01:20Z</time>
      </trkpt>
      <trkpt lat="43.43867" lon="6.72008">
        <ele>23</ele>
        <time>2019-10-12T15:01:25Z</time>
      </trkpt>
      <trkpt lat="43.43888" lon="6.72024">
        <ele>22.799999237061</ele>
        <time>2019-10-12T15:01:34Z</time>
      </trkpt>
      <trkpt lat="43.43891" lon="6.72026">
        <ele>22.60000038147</ele>
        <time>2019-10-12T15:01:40Z</time>
      </trkpt>
      <trkpt lat="43.43891" lon="6.72026">
        <ele>22.60000038147</ele>
        <time>2019-10-12T15:01:52Z</time>
      </trkpt>
      <trkpt lat="43.43896" lon="6.72044">
        <ele>22.60000038147</ele>
        <time>2019-10-12T15:01:57Z</time>
      </trkpt>
      <trkpt lat="43.43906" lon="6.72062">
        <ele>22.39999961853</ele>
        <time>2019-10-12T15:02:02Z</time>
      </trkpt>
      <trkpt lat="43.43908" lon="6.72065">
        <ele>22.39999961853</ele>
        <time>2019-10-12T15:02:08Z</time>
      </trkpt>
      <trkpt lat="43.4389" lon="6.72099">
        <ele>22.799999237061</ele>
        <time>2019-10-12T15:02:22Z</time>
      </trkpt>
      <trkpt lat="43.43881" lon="6.72093">
        <ele>23.200000762939</ele>
        <time>2019-10-12T15:02:26Z</time>
      </trkpt>
      <trkpt lat="43.43869" lon="6.72084">
        <ele>23.200000762939</ele>
        <time>2019-10-12T15:02:29Z</time>
      </trkpt>
      <trkpt lat="43.43828" lon="6.72051">
        <ele>23.60000038147</ele>
        <time>2019-10-12T15:02:40Z</time>
      </trkpt>
      <trkpt lat="43.43827" lon="6.7205">
        <ele>24.39999961853</ele>
        <time>2019-10-12T15:02:45Z</time>
      </trkpt>
      <trkpt lat="43.43744" lon="6.72032">
        <ele>24.60000038147</ele>
        <time>2019-10-12T15:02:59Z</time>
      </trkpt>
      <trkpt lat="43.43725" lon="6.72006">
        <ele>24.799999237061</ele>
        <time>2019-10-12T15:03:04Z</time>
      </trkpt>
      <trkpt lat="43.43708" lon="6.72002">
        <ele>24.60000038147</ele>
        <time>2019-10-12T15:03:08Z</time>
      </trkpt>
      <trkpt lat="43.43701" lon="6.72016">
        <ele>24.60000038147</ele>
        <time>2019-10-12T15:03:11Z</time>
      </trkpt>
      <trkpt lat="43.43648" lon="6.7218">
        <ele>24.60000038147</ele>
        <time>2019-10-12T15:03:33Z</time>
      </trkpt>
      <trkpt lat="43.43621" lon="6.72252">
        <ele>24.60000038147</ele>
        <time>2019-10-12T15:03:43Z</time>
      </trkpt>
      <trkpt lat="43.43581" lon="6.72354">
        <ele>25.60000038147</ele>
        <time>2019-10-12T15:03:59Z</time>
      </trkpt>
      <trkpt lat="43.43553" lon="6.72411">
        <ele>25.799999237061</ele>
        <time>2019-10-12T15:04:09Z</time>
      </trkpt>
      <trkpt lat="43.43498" lon="6.7252">
        <ele>26.200000762939</ele>
        <time>2019-10-12T15:04:25Z</time>
      </trkpt>
      <trkpt lat="43.4347" lon="6.72572">
        <ele>26.39999961853</ele>
        <time>2019-10-12T15:04:34Z</time>
      </trkpt>
      <trkpt lat="43.43443" lon="6.72617">
        <ele>26.39999961853</ele>
        <time>2019-10-12T15:04:41Z</time>
      </trkpt>
      <trkpt lat="43.43409" lon="6.72683">
        <ele>26</ele>
        <time>2019-10-12T15:04:50Z</time>
      </trkpt>
      <trkpt lat="43.43383" lon="6.72738">
        <ele>25.200000762939</ele>
        <time>2019-10-12T15:04:57Z</time>
      </trkpt>
      <trkpt lat="43.43363" lon="6.72789">
        <ele>24.60000038147</ele>
        <time>2019-10-12T15:05:04Z</time>
      </trkpt>
      <trkpt lat="43.43357" lon="6.72818">
        <ele>24</ele>
        <time>2019-10-12T15:05:08Z</time>
      </trkpt>
      <trkpt lat="43.43345" lon="6.72855">
        <ele>23.39999961853</ele>
        <time>2019-10-12T15:05:13Z</time>
      </trkpt>
      <trkpt lat="43.43324" lon="6.72919">
        <ele>23</ele>
        <time>2019-10-12T15:05:21Z</time>
      </trkpt>
      <trkpt lat="43.43312" lon="6.72956">
        <ele>22.799999237061</ele>
        <time>2019-10-12T15:05:26Z</time>
      </trkpt>
      <trkpt lat="43.43297" lon="6.73006">
        <ele>23</ele>
        <time>2019-10-12T15:05:33Z</time>
      </trkpt>
      <trkpt lat="43.43276" lon="6.73096">
        <ele>23.200000762939</ele>
        <time>2019-10-12T15:05:45Z</time>
      </trkpt>
      <trkpt lat="43.43266" lon="6.73149">
        <ele>23.799999237061</ele>
        <time>2019-10-12T15:05:52Z</time>
      </trkpt>
      <trkpt lat="43.43256" lon="6.73197">
        <ele>24.799999237061</ele>
        <time>2019-10-12T15:06:00Z</time>
      </trkpt>
      <trkpt lat="43.43254" lon="6.73209">
        <ele>25</ele>
        <time>2019-10-12T15:06:03Z</time>
      </trkpt>
      <trkpt lat="43.43245" lon="6.73224">
        <ele>25.200000762939</ele>
        <time>2019-10-12T15:06:05Z</time>
      </trkpt>
      <trkpt lat="43.43254" lon="6.73264">
        <ele>26.39999961853</ele>
        <time>2019-10-12T15:06:16Z</time>
      </trkpt>
      <trkpt lat="43.43234" lon="6.73269">
        <ele>26.799999237061</ele>
        <time>2019-10-12T15:06:20Z</time>
      </trkpt>
      <trkpt lat="43.43208" lon="6.73335">
        <ele>26.60000038147</ele>
        <time>2019-10-12T15:06:31Z</time>
      </trkpt>
      <trkpt lat="43.43184" lon="6.73372">
        <ele>26.200000762939</ele>
        <time>2019-10-12T15:06:37Z</time>
      </trkpt>
      <trkpt lat="43.43152" lon="6.7344">
        <ele>25.39999961853</ele>
        <time>2019-10-12T15:06:47Z</time>
      </trkpt>
      <trkpt lat="43.43137" lon="6.73494">
        <ele>25.60000038147</ele>
        <time>2019-10-12T15:06:55Z</time>
      </trkpt>
      <trkpt lat="43.43124" lon="6.73572">
        <ele>25.60000038147</ele>
        <time>2019-10-12T15:07:04Z</time>
      </trkpt>
      <trkpt lat="43.4313" lon="6.73628">
        <ele>25.200000762939</ele>
        <time>2019-10-12T15:07:11Z</time>
      </trkpt>
      <trkpt lat="43.43138" lon="6.73678">
        <ele>25.799999237061</ele>
        <time>2019-10-12T15:07:19Z</time>
      </trkpt>
      <trkpt lat="43.43147" lon="6.73717">
        <ele>26.60000038147</ele>
        <time>2019-10-12T15:07:26Z</time>
      </trkpt>
      <trkpt lat="43.43159" lon="6.73739">
        <ele>27.200000762939</ele>
        <time>2019-10-12T15:07:32Z</time>
      </trkpt>
      <trkpt lat="43.43182" lon="6.73741">
        <ele>27.39999961853</ele>
        <time>2019-10-12T15:07:37Z</time>
      </trkpt>
      <trkpt lat="43.43198" lon="6.73754">
        <ele>27.39999961853</ele>
        <time>2019-10-12T15:07:42Z</time>
      </trkpt>
      <trkpt lat="43.43218" lon="6.73799">
        <ele>27</ele>
        <time>2019-10-12T15:07:48Z</time>
      </trkpt>
      <trkpt lat="43.43236" lon="6.73834">
        <ele>26.60000038147</ele>
        <time>2019-10-12T15:07:52Z</time>
      </trkpt>
      <trkpt lat="43.43278" lon="6.73928">
        <ele>22.200000762939</ele>
        <time>2019-10-12T15:08:01Z</time>
      </trkpt>
      <trkpt lat="43.43307" lon="6.74017">
        <ele>21</ele>
        <time>2019-10-12T15:08:10Z</time>
      </trkpt>
      <trkpt lat="43.43329" lon="6.74071">
        <ele>21</ele>
        <time>2019-10-12T15:08:19Z</time>
      </trkpt>
      <trkpt lat="43.43347" lon="6.7409">
        <ele>21</ele>
        <time>2019-10-12T15:08:22Z</time>
      </trkpt>
      <trkpt lat="43.43379" lon="6.74162">
        <ele>20.799999237061</ele>
        <time>2019-10-12T15:08:35Z</time>
      </trkpt>
      <trkpt lat="43.4339" lon="6.74205">
        <ele>20.60000038147</ele>
        <time>2019-10-12T15:08:40Z</time>
      </trkpt>
      <trkpt lat="43.43399" lon="6.74258">
        <ele>20.39999961853</ele>
        <time>2019-10-12T15:08:46Z</time>
      </trkpt>
      <trkpt lat="43.43398" lon="6.74342">
        <ele>20.39999961853</ele>
        <time>2019-10-12T15:08:55Z</time>
      </trkpt>
      <trkpt lat="43.43392" lon="6.74398">
        <ele>20.39999961853</ele>
        <time>2019-10-12T15:09:02Z</time>
      </trkpt>
      <trkpt lat="43.43383" lon="6.74443">
        <ele>20.39999961853</ele>
        <time>2019-10-12T15:09:09Z</time>
      </trkpt>
      <trkpt lat="43.43359" lon="6.74536">
        <ele>20</ele>
        <time>2019-10-12T15:09:22Z</time>
      </trkpt>
      <trkpt lat="43.43354" lon="6.74553">
        <ele>20</ele>
        <time>2019-10-12T15:09:25Z</time>
      </trkpt>
      <trkpt lat="43.43343" lon="6.74588">
        <ele>19.799999237061</ele>
        <time>2019-10-12T15:09:31Z</time>
      </trkpt>
      <trkpt lat="43.43336" lon="6.74606">
        <ele>19.799999237061</ele>
        <time>2019-10-12T15:09:35Z</time>
      </trkpt>
      <trkpt lat="43.43334" lon="6.74615">
        <ele>19.799999237061</ele>
        <time>2019-10-12T15:09:38Z</time>
      </trkpt>
      <trkpt lat="43.4333" lon="6.74631">
        <ele>19.799999237061</ele>
        <time>2019-10-12T15:09:42Z</time>
      </trkpt>
      <trkpt lat="43.43324" lon="6.74651">
        <ele>19.60000038147</ele>
        <time>2019-10-12T15:09:46Z</time>
      </trkpt>
      <trkpt lat="43.4328" lon="6.74788">
        <ele>19.60000038147</ele>
        <time>2019-10-12T15:10:12Z</time>
      </trkpt>
      <trkpt lat="43.43275" lon="6.74804">
        <ele>19.60000038147</ele>
        <time>2019-10-12T15:10:16Z</time>
      </trkpt>
      <trkpt lat="43.4326" lon="6.74855">
        <ele>19.799999237061</ele>
        <time>2019-10-12T15:10:31Z</time>
      </trkpt>
      <trkpt lat="43.4325" lon="6.74894">
        <ele>19.60000038147</ele>
        <time>2019-10-12T15:10:37Z</time>
      </trkpt>
      <trkpt lat="43.43225" lon="6.74935">
        <ele>19.60000038147</ele>
        <time>2019-10-12T15:10:47Z</time>
      </trkpt>
      <trkpt lat="43.4322" lon="6.74955">
        <ele>19.39999961853</ele>
        <time>2019-10-12T15:10:56Z</time>
      </trkpt>
      <trkpt lat="43.43213" lon="6.75025">
        <ele>19.200000762939</ele>
        <time>2019-10-12T15:11:11Z</time>
      </trkpt>
      <trkpt lat="43.432" lon="6.75074">
        <ele>19.39999961853</ele>
        <time>2019-10-12T15:11:21Z</time>
      </trkpt>
      <trkpt lat="43.4318" lon="6.75149">
        <ele>19.39999961853</ele>
        <time>2019-10-12T15:11:33Z</time>
      </trkpt>
      <trkpt lat="43.43146" lon="6.75277">
        <ele>19.60000038147</ele>
        <time>2019-10-12T15:11:54Z</time>
      </trkpt>
      <trkpt lat="43.43144" lon="6.75287">
        <ele>19.799999237061</ele>
        <time>2019-10-12T15:11:58Z</time>
      </trkpt>
      <trkpt lat="43.43139" lon="6.75304">
        <ele>19.799999237061</ele>
        <time>2019-10-12T15:12:03Z</time>
      </trkpt>
      <trkpt lat="43.43134" lon="6.75324">
        <ele>19.799999237061</ele>
        <time>2019-10-12T15:12:06Z</time>
      </trkpt>
      <trkpt lat="43.43119" lon="6.75381">
        <ele>19.799999237061</ele>
        <time>2019-10-12T15:12:13Z</time>
      </trkpt>
      <trkpt lat="43.43106" lon="6.75425">
        <ele>19.60000038147</ele>
        <time>2019-10-12T15:12:19Z</time>
      </trkpt>
      <trkpt lat="43.43092" lon="6.75478">
        <ele>19.799999237061</ele>
        <time>2019-10-12T15:12:26Z</time>
      </trkpt>
      <trkpt lat="43.43077" lon="6.75536">
        <ele>19.799999237061</ele>
        <time>2019-10-12T15:12:33Z</time>
      </trkpt>
      <trkpt lat="43.43057" lon="6.75614">
        <ele>20</ele>
        <time>2019-10-12T15:12:41Z</time>
      </trkpt>
      <trkpt lat="43.43044" lon="6.7567">
        <ele>20</ele>
        <time>2019-10-12T15:12:47Z</time>
      </trkpt>
      <trkpt lat="43.4302" lon="6.75773">
        <ele>19.799999237061</ele>
        <time>2019-10-12T15:13:02Z</time>
      </trkpt>
      <trkpt lat="43.43015" lon="6.75791">
        <ele>19.60000038147</ele>
        <time>2019-10-12T15:13:06Z</time>
      </trkpt>
      <trkpt lat="43.43011" lon="6.75808">
        <ele>19.799999237061</ele>
        <time>2019-10-12T15:13:11Z</time>
      </trkpt>
      <trkpt lat="43.42996" lon="6.75837">
        <ele>19.799999237061</ele>
        <time>2019-10-12T15:13:18Z</time>
      </trkpt>
      <trkpt lat="43.42989" lon="6.75891">
        <ele>19.799999237061</ele>
        <time>2019-10-12T15:13:26Z</time>
      </trkpt>
      <trkpt lat="43.42975" lon="6.75944">
        <ele>19.39999961853</ele>
        <time>2019-10-12T15:13:36Z</time>
      </trkpt>
      <trkpt lat="43.4295" lon="6.76021">
        <ele>19.799999237061</ele>
        <time>2019-10-12T15:13:49Z</time>
      </trkpt>
      <trkpt lat="43.4294" lon="6.76052">
        <ele>19.799999237061</ele>
        <time>2019-10-12T15:13:56Z</time>
      </trkpt>
      <trkpt lat="43.4293" lon="6.76054">
        <ele>19.799999237061</ele>
        <time>2019-10-12T15:13:59Z</time>
      </trkpt>
      <trkpt lat="43.42932" lon="6.76082">
        <ele>20</ele>
        <time>2019-10-12T15:14:07Z</time>
      </trkpt>
      <trkpt lat="43.42927" lon="6.76105">
        <ele>20</ele>
        <time>2019-10-12T15:14:11Z</time>
      </trkpt>
      <trkpt lat="43.4291" lon="6.76191">
        <ele>20</ele>
        <time>2019-10-12T15:14:25Z</time>
      </trkpt>
      <trkpt lat="43.429" lon="6.76246">
        <ele>19.799999237061</ele>
        <time>2019-10-12T15:14:35Z</time>
      </trkpt>
      <trkpt lat="43.42892" lon="6.76282">
        <ele>19.60000038147</ele>
        <time>2019-10-12T15:14:44Z</time>
      </trkpt>
      <trkpt lat="43.4289" lon="6.7629">
        <ele>19.60000038147</ele>
        <time>2019-10-12T15:14:47Z</time>
      </trkpt>
      <trkpt lat="43.42888" lon="6.76298">
        <ele>19.60000038147</ele>
        <time>2019-10-12T15:14:51Z</time>
      </trkpt>
      <trkpt lat="43.42887" lon="6.76303">
        <ele>19.39999961853</ele>
        <time>2019-10-12T15:14:54Z</time>
      </trkpt>
      <trkpt lat="43.42887" lon="6.76324">
        <ele>19.39999961853</ele>
        <time>2019-10-12T15:14:57Z</time>
      </trkpt>
      <trkpt lat="43.42868" lon="6.76388">
        <ele>19.39999961853</ele>
        <time>2019-10-12T15:15:07Z</time>
      </trkpt>
      <trkpt lat="43.42843" lon="6.76478">
        <ele>19.39999961853</ele>
        <time>2019-10-12T15:15:20Z</time>
      </trkpt>
      <trkpt lat="43.42818" lon="6.76563">
        <ele>19.39999961853</ele>
        <time>2019-10-12T15:15:33Z</time>
      </trkpt>
      <trkpt lat="43.4276" lon="6.76668">
        <ele>19.799999237061</ele>
        <time>2019-10-12T15:15:50Z</time>
      </trkpt>
      <trkpt lat="43.42721" lon="6.76734">
        <ele>19.799999237061</ele>
        <time>2019-10-12T15:16:03Z</time>
      </trkpt>
      <trkpt lat="43.42701" lon="6.76767">
        <ele>19.799999237061</ele>
        <time>2019-10-12T15:16:11Z</time>
      </trkpt>
      <trkpt lat="43.42685" lon="6.76793">
        <ele>19.60000038147</ele>
        <time>2019-10-12T15:16:18Z</time>
      </trkpt>
      <trkpt lat="43.42681" lon="6.768">
        <ele>19.799999237061</ele>
        <time>2019-10-12T15:16:20Z</time>
      </trkpt>
      <trkpt lat="43.42662" lon="6.76829">
        <ele>20</ele>
        <time>2019-10-12T15:16:27Z</time>
      </trkpt>
      <trkpt lat="43.42657" lon="6.76837">
        <ele>20.200000762939</ele>
        <time>2019-10-12T15:16:29Z</time>
      </trkpt>
      <trkpt lat="43.42639" lon="6.7686">
        <ele>21.200000762939</ele>
        <time>2019-10-12T15:16:36Z</time>
      </trkpt>
      <trkpt lat="43.42607" lon="6.76882">
        <ele>22.60000038147</ele>
        <time>2019-10-12T15:16:46Z</time>
      </trkpt>
      <trkpt lat="43.42599" lon="6.76879">
        <ele>22.60000038147</ele>
        <time>2019-10-12T15:16:48Z</time>
      </trkpt>
      <trkpt lat="43.42553" lon="6.76867">
        <ele>24.200000762939</ele>
        <time>2019-10-12T15:17:02Z</time>
      </trkpt>
      <trkpt lat="43.42537" lon="6.76874">
        <ele>24</ele>
        <time>2019-10-12T15:17:07Z</time>
      </trkpt>
      <trkpt lat="43.42525" lon="6.76881">
        <ele>24</ele>
        <time>2019-10-12T15:17:13Z</time>
      </trkpt>
      <trkpt lat="43.42518" lon="6.76887">
        <ele>24</ele>
        <time>2019-10-12T15:17:17Z</time>
      </trkpt>
      <trkpt lat="43.42501" lon="6.7695">
        <ele>23.799999237061</ele>
        <time>2019-10-12T15:17:34Z</time>
      </trkpt>
    </trkseg>
  </trk>
</gpx>